<?xml version="1.0"?>
<gpx
 version="1.1"
 creator="Satmap Active 20"
 xmlns:xsi="http://www.w3.org/2001/XMLSchema-instance"
 xmlns="http://www.topografix.com/GPX/1/1"
 xmlns:satmap="http://www.satmap.com/updates/xmlschemas/GpxExtensions/v2/GpxExtensions_v2.xsd"
 xsi:schemaLocation="http://www.topografix.com/GPX/1/1 http://www.topografix.com/GPX/1/1/gpx.xsd">
<metadata>
<time>2021-03-19T09:20:32Z</time>
<extensions>
<satmap:platform>43</satmap:platform>
<satmap:software version="3.13.037">SM15.exe</satmap:software>
<satmap:username>pieter metz</satmap:username>
<satmap:network_ids>
<satmap:network_id type="wifi">00-23-A7-CA-E3-5C</satmap:network_id>
<satmap:network_id type="bluetooth">80-BB-EB-78-4F-29</satmap:network_id>
</satmap:network_ids>
<satmap:snap_type>simple</satmap:snap_type>
</extensions>
</metadata>
<trk>
<name>2021-03-19_0920</name>
<desc>Track 1</desc>
<number>1</number>
<trkseg>
<trkpt lat="52.968544" lon="05.966676"><ele>40.3</ele><time>2021-03-19T09:20:32Z</time><name>PT1</name></trkpt>
<trkpt lat="52.968564" lon="05.966843"><ele>39.8</ele><time>2021-03-19T09:20:53Z</time><name>PT2</name></trkpt>
<trkpt lat="52.968558" lon="05.966863"><ele>39.6</ele><time>2021-03-19T09:20:54Z</time><name>PT3</name></trkpt>
<trkpt lat="52.968552" lon="05.966887"><ele>39.6</ele><time>2021-03-19T09:20:55Z</time><name>PT4</name></trkpt>
<trkpt lat="52.968551" lon="05.966911"><ele>39.6</ele><time>2021-03-19T09:20:56Z</time><name>PT5</name></trkpt>
<trkpt lat="52.968546" lon="05.966946"><ele>39.6</ele><time>2021-03-19T09:20:57Z</time><name>PT6</name></trkpt>
<trkpt lat="52.968541" lon="05.967015"><ele>39.6</ele><time>2021-03-19T09:20:58Z</time><name>PT7</name></trkpt>
<trkpt lat="52.968530" lon="05.967067"><ele>39.7</ele><time>2021-03-19T09:20:59Z</time><name>PT8</name></trkpt>
<trkpt lat="52.968528" lon="05.967099"><ele>39.5</ele><time>2021-03-19T09:21:00Z</time><name>PT9</name></trkpt>
<trkpt lat="52.968525" lon="05.967132"><ele>39.5</ele><time>2021-03-19T09:21:01Z</time><name>PT10</name></trkpt>
<trkpt lat="52.968522" lon="05.967157"><ele>39.5</ele><time>2021-03-19T09:21:02Z</time><name>PT11</name></trkpt>
<trkpt lat="52.968521" lon="05.967202"><ele>39.5</ele><time>2021-03-19T09:21:03Z</time><name>PT12</name></trkpt>
<trkpt lat="52.968519" lon="05.967232"><ele>39.3</ele><time>2021-03-19T09:21:04Z</time><name>PT13</name></trkpt>
<trkpt lat="52.968519" lon="05.967260"><ele>39.3</ele><time>2021-03-19T09:21:05Z</time><name>PT14</name></trkpt>
<trkpt lat="52.968512" lon="05.967283"><ele>39.1</ele><time>2021-03-19T09:21:06Z</time><name>PT15</name></trkpt>
<trkpt lat="52.968507" lon="05.967297"><ele>39</ele><time>2021-03-19T09:21:07Z</time><name>PT16</name></trkpt>
<trkpt lat="52.968501" lon="05.967303"><ele>39.2</ele><time>2021-03-19T09:21:08Z</time><name>PT17</name></trkpt>
<trkpt lat="52.968496" lon="05.967307"><ele>39.4</ele><time>2021-03-19T09:21:09Z</time><name>PT18</name></trkpt>
<trkpt lat="52.968488" lon="05.967308"><ele>39.6</ele><time>2021-03-19T09:21:10Z</time><name>PT19</name></trkpt>
<trkpt lat="52.968480" lon="05.967308"><ele>39.9</ele><time>2021-03-19T09:21:11Z</time><name>PT20</name></trkpt>
<trkpt lat="52.968466" lon="05.967319"><ele>39.9</ele><time>2021-03-19T09:21:12Z</time><name>PT21</name></trkpt>
<trkpt lat="52.968455" lon="05.967326"><ele>39.8</ele><time>2021-03-19T09:21:13Z</time><name>PT22</name></trkpt>
<trkpt lat="52.968446" lon="05.967337"><ele>39.8</ele><time>2021-03-19T09:21:14Z</time><name>PT23</name></trkpt>
<trkpt lat="52.968435" lon="05.967346"><ele>39.9</ele><time>2021-03-19T09:21:15Z</time><name>PT24</name></trkpt>
<trkpt lat="52.968430" lon="05.967353"><ele>39.7</ele><time>2021-03-19T09:21:16Z</time><name>PT25</name></trkpt>
<trkpt lat="52.968427" lon="05.967358"><ele>39.7</ele><time>2021-03-19T09:21:17Z</time><name>PT26</name></trkpt>
<trkpt lat="52.968424" lon="05.967361"><ele>39.5</ele><time>2021-03-19T09:21:18Z</time><name>PT27</name></trkpt>
<trkpt lat="52.968420" lon="05.967374"><ele>39.5</ele><time>2021-03-19T09:21:19Z</time><name>PT28</name></trkpt>
<trkpt lat="52.968418" lon="05.967378"><ele>39.5</ele><time>2021-03-19T09:21:20Z</time><name>PT29</name></trkpt>
<trkpt lat="52.968417" lon="05.967394"><ele>39.5</ele><time>2021-03-19T09:21:21Z</time><name>PT30</name></trkpt>
<trkpt lat="52.968415" lon="05.967399"><ele>39.5</ele><time>2021-03-19T09:21:22Z</time><name>PT31</name></trkpt>
<trkpt lat="52.968417" lon="05.967398"><ele>39.6</ele><time>2021-03-19T09:21:23Z</time><name>PT32</name></trkpt>
<trkpt lat="52.968422" lon="05.967401"><ele>39.7</ele><time>2021-03-19T09:21:24Z</time><name>PT33</name></trkpt>
<trkpt lat="52.968430" lon="05.967403"><ele>39.7</ele><time>2021-03-19T09:21:25Z</time><name>PT34</name></trkpt>
<trkpt lat="52.968440" lon="05.967409"><ele>39.7</ele><time>2021-03-19T09:21:26Z</time><name>PT35</name></trkpt>
<trkpt lat="52.968445" lon="05.967417"><ele>39.6</ele><time>2021-03-19T09:21:27Z</time><name>PT36</name></trkpt>
<trkpt lat="52.968453" lon="05.967425"><ele>39.6</ele><time>2021-03-19T09:21:28Z</time><name>PT37</name></trkpt>
<trkpt lat="52.968453" lon="05.967443"><ele>39.5</ele><time>2021-03-19T09:21:29Z</time><name>PT38</name></trkpt>
<trkpt lat="52.968456" lon="05.967461"><ele>39.5</ele><time>2021-03-19T09:21:30Z</time><name>PT39</name></trkpt>
<trkpt lat="52.968460" lon="05.967479"><ele>39.5</ele><time>2021-03-19T09:21:31Z</time><name>PT40</name></trkpt>
<trkpt lat="52.968464" lon="05.967496"><ele>39.4</ele><time>2021-03-19T09:21:32Z</time><name>PT41</name></trkpt>
<trkpt lat="52.968466" lon="05.967521"><ele>39.5</ele><time>2021-03-19T09:21:33Z</time><name>PT42</name></trkpt>
<trkpt lat="52.968468" lon="05.967541"><ele>39.4</ele><time>2021-03-19T09:21:34Z</time><name>PT43</name></trkpt>
<trkpt lat="52.968470" lon="05.967562"><ele>39.5</ele><time>2021-03-19T09:21:35Z</time><name>PT44</name></trkpt>
<trkpt lat="52.968478" lon="05.967585"><ele>39.5</ele><time>2021-03-19T09:21:36Z</time><name>PT45</name></trkpt>
<trkpt lat="52.968484" lon="05.967610"><ele>39.5</ele><time>2021-03-19T09:21:37Z</time><name>PT46</name></trkpt>
<trkpt lat="52.968484" lon="05.967629"><ele>39.3</ele><time>2021-03-19T09:21:38Z</time><name>PT47</name></trkpt>
<trkpt lat="52.968478" lon="05.967639"><ele>39.3</ele><time>2021-03-19T09:21:39Z</time><name>PT48</name></trkpt>
<trkpt lat="52.968479" lon="05.967656"><ele>39.3</ele><time>2021-03-19T09:21:40Z</time><name>PT49</name></trkpt>
<trkpt lat="52.968479" lon="05.967676"><ele>39.1</ele><time>2021-03-19T09:21:41Z</time><name>PT50</name></trkpt>
<trkpt lat="52.968481" lon="05.967696"><ele>39</ele><time>2021-03-19T09:21:42Z</time><name>PT51</name></trkpt>
<trkpt lat="52.968485" lon="05.967718"><ele>39.1</ele><time>2021-03-19T09:21:43Z</time><name>PT52</name></trkpt>
<trkpt lat="52.968484" lon="05.967737"><ele>39.1</ele><time>2021-03-19T09:21:44Z</time><name>PT53</name></trkpt>
<trkpt lat="52.968486" lon="05.967760"><ele>39.1</ele><time>2021-03-19T09:21:45Z</time><name>PT54</name></trkpt>
<trkpt lat="52.968485" lon="05.967784"><ele>39.1</ele><time>2021-03-19T09:21:46Z</time><name>PT55</name></trkpt>
<trkpt lat="52.968487" lon="05.967811"><ele>39.3</ele><time>2021-03-19T09:21:47Z</time><name>PT56</name></trkpt>
<trkpt lat="52.968488" lon="05.967834"><ele>39.2</ele><time>2021-03-19T09:21:48Z</time><name>PT57</name></trkpt>
<trkpt lat="52.968479" lon="05.967854"><ele>39.1</ele><time>2021-03-19T09:21:49Z</time><name>PT58</name></trkpt>
<trkpt lat="52.968474" lon="05.967876"><ele>39.3</ele><time>2021-03-19T09:21:50Z</time><name>PT59</name></trkpt>
<trkpt lat="52.968474" lon="05.967897"><ele>39.3</ele><time>2021-03-19T09:21:51Z</time><name>PT60</name></trkpt>
<trkpt lat="52.968476" lon="05.967916"><ele>39.2</ele><time>2021-03-19T09:21:52Z</time><name>PT61</name></trkpt>
<trkpt lat="52.968477" lon="05.967935"><ele>39.3</ele><time>2021-03-19T09:21:53Z</time><name>PT62</name></trkpt>
<trkpt lat="52.968476" lon="05.967948"><ele>39.1</ele><time>2021-03-19T09:21:54Z</time><name>PT63</name></trkpt>
<trkpt lat="52.968477" lon="05.967965"><ele>39</ele><time>2021-03-19T09:21:55Z</time><name>PT64</name></trkpt>
<trkpt lat="52.968479" lon="05.967980"><ele>39</ele><time>2021-03-19T09:21:56Z</time><name>PT65</name></trkpt>
<trkpt lat="52.968482" lon="05.967996"><ele>39</ele><time>2021-03-19T09:21:57Z</time><name>PT66</name></trkpt>
<trkpt lat="52.968484" lon="05.968013"><ele>39.1</ele><time>2021-03-19T09:21:58Z</time><name>PT67</name></trkpt>
<trkpt lat="52.968487" lon="05.968036"><ele>39.2</ele><time>2021-03-19T09:21:59Z</time><name>PT68</name></trkpt>
<trkpt lat="52.968486" lon="05.968065"><ele>39.4</ele><time>2021-03-19T09:22:00Z</time><name>PT69</name></trkpt>
<trkpt lat="52.968482" lon="05.968077"><ele>39.5</ele><time>2021-03-19T09:22:01Z</time><name>PT70</name></trkpt>
<trkpt lat="52.968481" lon="05.968093"><ele>39.5</ele><time>2021-03-19T09:22:02Z</time><name>PT71</name></trkpt>
<trkpt lat="52.968482" lon="05.968112"><ele>39.5</ele><time>2021-03-19T09:22:03Z</time><name>PT72</name></trkpt>
<trkpt lat="52.968482" lon="05.968143"><ele>39.5</ele><time>2021-03-19T09:22:04Z</time><name>PT73</name></trkpt>
<trkpt lat="52.968483" lon="05.968164"><ele>39.3</ele><time>2021-03-19T09:22:05Z</time><name>PT74</name></trkpt>
<trkpt lat="52.968480" lon="05.968185"><ele>39.5</ele><time>2021-03-19T09:22:06Z</time><name>PT75</name></trkpt>
<trkpt lat="52.968482" lon="05.968206"><ele>39.5</ele><time>2021-03-19T09:22:07Z</time><name>PT76</name></trkpt>
<trkpt lat="52.968484" lon="05.968224"><ele>39.6</ele><time>2021-03-19T09:22:08Z</time><name>PT77</name></trkpt>
<trkpt lat="52.968487" lon="05.968239"><ele>39.6</ele><time>2021-03-19T09:22:09Z</time><name>PT78</name></trkpt>
<trkpt lat="52.968488" lon="05.968253"><ele>39.6</ele><time>2021-03-19T09:22:10Z</time><name>PT79</name></trkpt>
<trkpt lat="52.968488" lon="05.968267"><ele>39.5</ele><time>2021-03-19T09:22:11Z</time><name>PT80</name></trkpt>
<trkpt lat="52.968490" lon="05.968283"><ele>39.5</ele><time>2021-03-19T09:22:12Z</time><name>PT81</name></trkpt>
<trkpt lat="52.968493" lon="05.968299"><ele>39.5</ele><time>2021-03-19T09:22:13Z</time><name>PT82</name></trkpt>
<trkpt lat="52.968495" lon="05.968323"><ele>39.5</ele><time>2021-03-19T09:22:14Z</time><name>PT83</name></trkpt>
<trkpt lat="52.968494" lon="05.968341"><ele>39.5</ele><time>2021-03-19T09:22:15Z</time><name>PT84</name></trkpt>
<trkpt lat="52.968491" lon="05.968360"><ele>39.5</ele><time>2021-03-19T09:22:16Z</time><name>PT85</name></trkpt>
<trkpt lat="52.968488" lon="05.968376"><ele>39.5</ele><time>2021-03-19T09:22:17Z</time><name>PT86</name></trkpt>
<trkpt lat="52.968487" lon="05.968393"><ele>39.4</ele><time>2021-03-19T09:22:18Z</time><name>PT87</name></trkpt>
<trkpt lat="52.968488" lon="05.968409"><ele>39.3</ele><time>2021-03-19T09:22:19Z</time><name>PT88</name></trkpt>
<trkpt lat="52.968489" lon="05.968425"><ele>39.4</ele><time>2021-03-19T09:22:20Z</time><name>PT89</name></trkpt>
<trkpt lat="52.968491" lon="05.968445"><ele>39.4</ele><time>2021-03-19T09:22:21Z</time><name>PT90</name></trkpt>
<trkpt lat="52.968492" lon="05.968454"><ele>39.4</ele><time>2021-03-19T09:22:22Z</time><name>PT91</name></trkpt>
<trkpt lat="52.968493" lon="05.968471"><ele>39.4</ele><time>2021-03-19T09:22:23Z</time><name>PT92</name></trkpt>
<trkpt lat="52.968492" lon="05.968497"><ele>39.4</ele><time>2021-03-19T09:22:24Z</time><name>PT93</name></trkpt>
<trkpt lat="52.968494" lon="05.968520"><ele>39.2</ele><time>2021-03-19T09:22:25Z</time><name>PT94</name></trkpt>
<trkpt lat="52.968495" lon="05.968543"><ele>39.2</ele><time>2021-03-19T09:22:26Z</time><name>PT95</name></trkpt>
<trkpt lat="52.968494" lon="05.968562"><ele>39.1</ele><time>2021-03-19T09:22:27Z</time><name>PT96</name></trkpt>
<trkpt lat="52.968495" lon="05.968582"><ele>39.2</ele><time>2021-03-19T09:22:28Z</time><name>PT97</name></trkpt>
<trkpt lat="52.968494" lon="05.968597"><ele>39.1</ele><time>2021-03-19T09:22:29Z</time><name>PT98</name></trkpt>
<trkpt lat="52.968493" lon="05.968612"><ele>39.1</ele><time>2021-03-19T09:22:30Z</time><name>PT99</name></trkpt>
<trkpt lat="52.968493" lon="05.968632"><ele>39.1</ele><time>2021-03-19T09:22:31Z</time><name>PT100</name></trkpt>
<trkpt lat="52.968492" lon="05.968653"><ele>39</ele><time>2021-03-19T09:22:32Z</time><name>PT101</name></trkpt>
<trkpt lat="52.968492" lon="05.968673"><ele>39</ele><time>2021-03-19T09:22:33Z</time><name>PT102</name></trkpt>
<trkpt lat="52.968491" lon="05.968685"><ele>39.1</ele><time>2021-03-19T09:22:34Z</time><name>PT103</name></trkpt>
<trkpt lat="52.968495" lon="05.968722"><ele>39</ele><time>2021-03-19T09:22:35Z</time><name>PT104</name></trkpt>
<trkpt lat="52.968493" lon="05.968741"><ele>39</ele><time>2021-03-19T09:22:36Z</time><name>PT105</name></trkpt>
<trkpt lat="52.968492" lon="05.968762"><ele>39</ele><time>2021-03-19T09:22:37Z</time><name>PT106</name></trkpt>
<trkpt lat="52.968497" lon="05.968786"><ele>39</ele><time>2021-03-19T09:22:38Z</time><name>PT107</name></trkpt>
<trkpt lat="52.968499" lon="05.968809"><ele>38.9</ele><time>2021-03-19T09:22:39Z</time><name>PT108</name></trkpt>
<trkpt lat="52.968496" lon="05.968828"><ele>38.9</ele><time>2021-03-19T09:22:40Z</time><name>PT109</name></trkpt>
<trkpt lat="52.968492" lon="05.968851"><ele>39</ele><time>2021-03-19T09:22:41Z</time><name>PT110</name></trkpt>
<trkpt lat="52.968490" lon="05.968869"><ele>39</ele><time>2021-03-19T09:22:42Z</time><name>PT111</name></trkpt>
<trkpt lat="52.968490" lon="05.968890"><ele>39.1</ele><time>2021-03-19T09:22:43Z</time><name>PT112</name></trkpt>
<trkpt lat="52.968490" lon="05.968918"><ele>39.2</ele><time>2021-03-19T09:22:44Z</time><name>PT113</name></trkpt>
<trkpt lat="52.968492" lon="05.968945"><ele>39.3</ele><time>2021-03-19T09:22:45Z</time><name>PT114</name></trkpt>
<trkpt lat="52.968499" lon="05.968965"><ele>39.2</ele><time>2021-03-19T09:22:46Z</time><name>PT115</name></trkpt>
<trkpt lat="52.968504" lon="05.968987"><ele>39.3</ele><time>2021-03-19T09:22:47Z</time><name>PT116</name></trkpt>
<trkpt lat="52.968501" lon="05.969000"><ele>39.2</ele><time>2021-03-19T09:22:48Z</time><name>PT117</name></trkpt>
<trkpt lat="52.968502" lon="05.969020"><ele>39</ele><time>2021-03-19T09:22:49Z</time><name>PT118</name></trkpt>
<trkpt lat="52.968500" lon="05.969034"><ele>39.1</ele><time>2021-03-19T09:22:50Z</time><name>PT119</name></trkpt>
<trkpt lat="52.968500" lon="05.969048"><ele>39</ele><time>2021-03-19T09:22:51Z</time><name>PT120</name></trkpt>
<trkpt lat="52.968501" lon="05.969056"><ele>38.9</ele><time>2021-03-19T09:22:52Z</time><name>PT121</name></trkpt>
<trkpt lat="52.968497" lon="05.969068"><ele>39.1</ele><time>2021-03-19T09:22:53Z</time><name>PT122</name></trkpt>
<trkpt lat="52.968497" lon="05.969105"><ele>39.1</ele><time>2021-03-19T09:22:54Z</time><name>PT123</name></trkpt>
<trkpt lat="52.968500" lon="05.969127"><ele>39</ele><time>2021-03-19T09:22:55Z</time><name>PT124</name></trkpt>
<trkpt lat="52.968497" lon="05.969144"><ele>39.1</ele><time>2021-03-19T09:22:56Z</time><name>PT125</name></trkpt>
<trkpt lat="52.968493" lon="05.969159"><ele>39.4</ele><time>2021-03-19T09:22:57Z</time><name>PT126</name></trkpt>
<trkpt lat="52.968485" lon="05.969172"><ele>39.4</ele><time>2021-03-19T09:22:58Z</time><name>PT127</name></trkpt>
<trkpt lat="52.968479" lon="05.969182"><ele>39.4</ele><time>2021-03-19T09:22:59Z</time><name>PT128</name></trkpt>
<trkpt lat="52.968474" lon="05.969181"><ele>39.5</ele><time>2021-03-19T09:23:00Z</time><name>PT129</name></trkpt>
<trkpt lat="52.968468" lon="05.969184"><ele>39.5</ele><time>2021-03-19T09:23:01Z</time><name>PT130</name></trkpt>
<trkpt lat="52.968465" lon="05.969259"><ele>39.5</ele><time>2021-03-19T09:23:02Z</time><name>PT131</name></trkpt>
<trkpt lat="52.968452" lon="05.969281"><ele>39.5</ele><time>2021-03-19T09:23:03Z</time><name>PT132</name></trkpt>
<trkpt lat="52.968445" lon="05.969284"><ele>39.3</ele><time>2021-03-19T09:23:04Z</time><name>PT133</name></trkpt>
<trkpt lat="52.968437" lon="05.969287"><ele>39.3</ele><time>2021-03-19T09:23:05Z</time><name>PT134</name></trkpt>
<trkpt lat="52.968426" lon="05.969289"><ele>39</ele><time>2021-03-19T09:23:06Z</time><name>PT135</name></trkpt>
<trkpt lat="52.968414" lon="05.969295"><ele>39</ele><time>2021-03-19T09:23:07Z</time><name>PT136</name></trkpt>
<trkpt lat="52.968406" lon="05.969302"><ele>38.9</ele><time>2021-03-19T09:23:08Z</time><name>PT137</name></trkpt>
<trkpt lat="52.968395" lon="05.969310"><ele>39</ele><time>2021-03-19T09:23:09Z</time><name>PT138</name></trkpt>
<trkpt lat="52.968384" lon="05.969318"><ele>39</ele><time>2021-03-19T09:23:10Z</time><name>PT139</name></trkpt>
<trkpt lat="52.968368" lon="05.969326"><ele>39</ele><time>2021-03-19T09:23:11Z</time><name>PT140</name></trkpt>
<trkpt lat="52.968353" lon="05.969335"><ele>39.2</ele><time>2021-03-19T09:23:12Z</time><name>PT141</name></trkpt>
<trkpt lat="52.968341" lon="05.969339"><ele>39.1</ele><time>2021-03-19T09:23:13Z</time><name>PT142</name></trkpt>
<trkpt lat="52.968332" lon="05.969344"><ele>39.2</ele><time>2021-03-19T09:23:14Z</time><name>PT143</name></trkpt>
<trkpt lat="52.968326" lon="05.969348"><ele>39.3</ele><time>2021-03-19T09:23:15Z</time><name>PT144</name></trkpt>
<trkpt lat="52.968316" lon="05.969355"><ele>39.3</ele><time>2021-03-19T09:23:16Z</time><name>PT145</name></trkpt>
<trkpt lat="52.968310" lon="05.969365"><ele>39.5</ele><time>2021-03-19T09:23:17Z</time><name>PT146</name></trkpt>
<trkpt lat="52.968301" lon="05.969372"><ele>39.5</ele><time>2021-03-19T09:23:18Z</time><name>PT147</name></trkpt>
<trkpt lat="52.968289" lon="05.969381"><ele>39.1</ele><time>2021-03-19T09:23:19Z</time><name>PT148</name></trkpt>
<trkpt lat="52.968279" lon="05.969389"><ele>39.1</ele><time>2021-03-19T09:23:20Z</time><name>PT149</name></trkpt>
<trkpt lat="52.968271" lon="05.969394"><ele>39</ele><time>2021-03-19T09:23:21Z</time><name>PT150</name></trkpt>
<trkpt lat="52.968271" lon="05.969387"><ele>39</ele><time>2021-03-19T09:23:22Z</time><name>PT151</name></trkpt>
<trkpt lat="52.968268" lon="05.969383"><ele>39</ele><time>2021-03-19T09:23:23Z</time><name>PT152</name></trkpt>
<trkpt lat="52.968263" lon="05.969377"><ele>39</ele><time>2021-03-19T09:23:24Z</time><name>PT153</name></trkpt>
<trkpt lat="52.968259" lon="05.969369"><ele>38.9</ele><time>2021-03-19T09:23:25Z</time><name>PT154</name></trkpt>
<trkpt lat="52.968255" lon="05.969368"><ele>38.8</ele><time>2021-03-19T09:23:26Z</time><name>PT155</name></trkpt>
<trkpt lat="52.968244" lon="05.969371"><ele>38.8</ele><time>2021-03-19T09:23:27Z</time><name>PT156</name></trkpt>
<trkpt lat="52.968232" lon="05.969358"><ele>39</ele><time>2021-03-19T09:23:28Z</time><name>PT157</name></trkpt>
<trkpt lat="52.968219" lon="05.969345"><ele>39</ele><time>2021-03-19T09:23:29Z</time><name>PT158</name></trkpt>
<trkpt lat="52.968205" lon="05.969358"><ele>39.3</ele><time>2021-03-19T09:23:30Z</time><name>PT159</name></trkpt>
<trkpt lat="52.968186" lon="05.969349"><ele>39.3</ele><time>2021-03-19T09:23:31Z</time><name>PT160</name></trkpt>
<trkpt lat="52.968173" lon="05.969353"><ele>39.2</ele><time>2021-03-19T09:23:32Z</time><name>PT161</name></trkpt>
<trkpt lat="52.968168" lon="05.969353"><ele>39</ele><time>2021-03-19T09:23:33Z</time><name>PT162</name></trkpt>
<trkpt lat="52.968158" lon="05.969357"><ele>38.9</ele><time>2021-03-19T09:23:34Z</time><name>PT163</name></trkpt>
<trkpt lat="52.968145" lon="05.969361"><ele>38.8</ele><time>2021-03-19T09:23:35Z</time><name>PT164</name></trkpt>
<trkpt lat="52.968136" lon="05.969366"><ele>39</ele><time>2021-03-19T09:23:36Z</time><name>PT165</name></trkpt>
<trkpt lat="52.968126" lon="05.969370"><ele>39</ele><time>2021-03-19T09:23:37Z</time><name>PT166</name></trkpt>
<trkpt lat="52.968116" lon="05.969366"><ele>39.1</ele><time>2021-03-19T09:23:38Z</time><name>PT167</name></trkpt>
<trkpt lat="52.968093" lon="05.969367"><ele>39.1</ele><time>2021-03-19T09:23:39Z</time><name>PT168</name></trkpt>
<trkpt lat="52.968082" lon="05.969387"><ele>39</ele><time>2021-03-19T09:23:40Z</time><name>PT169</name></trkpt>
<trkpt lat="52.968067" lon="05.969405"><ele>39.1</ele><time>2021-03-19T09:23:41Z</time><name>PT170</name></trkpt>
<trkpt lat="52.968063" lon="05.969412"><ele>39.1</ele><time>2021-03-19T09:23:42Z</time><name>PT171</name></trkpt>
<trkpt lat="52.968051" lon="05.969433"><ele>39</ele><time>2021-03-19T09:23:43Z</time><name>PT172</name></trkpt>
<trkpt lat="52.968034" lon="05.969444"><ele>39</ele><time>2021-03-19T09:23:44Z</time><name>PT173</name></trkpt>
<trkpt lat="52.968022" lon="05.969466"><ele>39.1</ele><time>2021-03-19T09:23:45Z</time><name>PT174</name></trkpt>
<trkpt lat="52.968014" lon="05.969476"><ele>39</ele><time>2021-03-19T09:23:46Z</time><name>PT175</name></trkpt>
<trkpt lat="52.967991" lon="05.969475"><ele>39.1</ele><time>2021-03-19T09:23:47Z</time><name>PT176</name></trkpt>
<trkpt lat="52.967976" lon="05.969489"><ele>39</ele><time>2021-03-19T09:23:48Z</time><name>PT177</name></trkpt>
<trkpt lat="52.967964" lon="05.969493"><ele>39.1</ele><time>2021-03-19T09:23:49Z</time><name>PT178</name></trkpt>
<trkpt lat="52.967953" lon="05.969498"><ele>39.1</ele><time>2021-03-19T09:23:50Z</time><name>PT179</name></trkpt>
<trkpt lat="52.967946" lon="05.969505"><ele>39.1</ele><time>2021-03-19T09:23:51Z</time><name>PT180</name></trkpt>
<trkpt lat="52.967933" lon="05.969523"><ele>39.1</ele><time>2021-03-19T09:23:52Z</time><name>PT181</name></trkpt>
<trkpt lat="52.967924" lon="05.969538"><ele>39.1</ele><time>2021-03-19T09:23:53Z</time><name>PT182</name></trkpt>
<trkpt lat="52.967912" lon="05.969545"><ele>39</ele><time>2021-03-19T09:23:54Z</time><name>PT183</name></trkpt>
<trkpt lat="52.967904" lon="05.969551"><ele>39.2</ele><time>2021-03-19T09:23:55Z</time><name>PT184</name></trkpt>
<trkpt lat="52.967896" lon="05.969554"><ele>39.2</ele><time>2021-03-19T09:23:56Z</time><name>PT185</name></trkpt>
<trkpt lat="52.967887" lon="05.969559"><ele>39</ele><time>2021-03-19T09:23:57Z</time><name>PT186</name></trkpt>
<trkpt lat="52.967876" lon="05.969564"><ele>39.1</ele><time>2021-03-19T09:23:58Z</time><name>PT187</name></trkpt>
<trkpt lat="52.967868" lon="05.969577"><ele>39.2</ele><time>2021-03-19T09:23:59Z</time><name>PT188</name></trkpt>
<trkpt lat="52.967859" lon="05.969580"><ele>39</ele><time>2021-03-19T09:24:00Z</time><name>PT189</name></trkpt>
<trkpt lat="52.967843" lon="05.969586"><ele>39</ele><time>2021-03-19T09:24:01Z</time><name>PT190</name></trkpt>
<trkpt lat="52.967831" lon="05.969597"><ele>39</ele><time>2021-03-19T09:24:02Z</time><name>PT191</name></trkpt>
<trkpt lat="52.967823" lon="05.969611"><ele>38.8</ele><time>2021-03-19T09:24:03Z</time><name>PT192</name></trkpt>
<trkpt lat="52.967820" lon="05.969625"><ele>38.9</ele><time>2021-03-19T09:24:04Z</time><name>PT193</name></trkpt>
<trkpt lat="52.967826" lon="05.969630"><ele>38.9</ele><time>2021-03-19T09:24:05Z</time><name>PT194</name></trkpt>
<trkpt lat="52.967832" lon="05.969640"><ele>39</ele><time>2021-03-19T09:24:06Z</time><name>PT195</name></trkpt>
<trkpt lat="52.967837" lon="05.969650"><ele>39</ele><time>2021-03-19T09:24:07Z</time><name>PT196</name></trkpt>
<trkpt lat="52.967844" lon="05.969671"><ele>39</ele><time>2021-03-19T09:24:08Z</time><name>PT197</name></trkpt>
<trkpt lat="52.967849" lon="05.969692"><ele>39</ele><time>2021-03-19T09:24:09Z</time><name>PT198</name></trkpt>
<trkpt lat="52.967854" lon="05.969716"><ele>38.8</ele><time>2021-03-19T09:24:10Z</time><name>PT199</name></trkpt>
<trkpt lat="52.967857" lon="05.969737"><ele>38.7</ele><time>2021-03-19T09:24:11Z</time><name>PT200</name></trkpt>
<trkpt lat="52.967860" lon="05.969756"><ele>38.6</ele><time>2021-03-19T09:24:12Z</time><name>PT201</name></trkpt>
<trkpt lat="52.967864" lon="05.969782"><ele>38.4</ele><time>2021-03-19T09:24:13Z</time><name>PT202</name></trkpt>
<trkpt lat="52.967869" lon="05.969805"><ele>38.4</ele><time>2021-03-19T09:24:14Z</time><name>PT203</name></trkpt>
<trkpt lat="52.967879" lon="05.969826"><ele>38.3</ele><time>2021-03-19T09:24:15Z</time><name>PT204</name></trkpt>
<trkpt lat="52.967886" lon="05.969842"><ele>38.3</ele><time>2021-03-19T09:24:16Z</time><name>PT205</name></trkpt>
<trkpt lat="52.967890" lon="05.969861"><ele>38.3</ele><time>2021-03-19T09:24:17Z</time><name>PT206</name></trkpt>
<trkpt lat="52.967892" lon="05.969884"><ele>38.5</ele><time>2021-03-19T09:24:18Z</time><name>PT207</name></trkpt>
<trkpt lat="52.967896" lon="05.969900"><ele>38.4</ele><time>2021-03-19T09:24:19Z</time><name>PT208</name></trkpt>
<trkpt lat="52.967894" lon="05.969929"><ele>38.4</ele><time>2021-03-19T09:24:20Z</time><name>PT209</name></trkpt>
<trkpt lat="52.967897" lon="05.969948"><ele>38.4</ele><time>2021-03-19T09:24:21Z</time><name>PT210</name></trkpt>
<trkpt lat="52.967903" lon="05.969960"><ele>38.6</ele><time>2021-03-19T09:24:22Z</time><name>PT211</name></trkpt>
<trkpt lat="52.967908" lon="05.969977"><ele>38.6</ele><time>2021-03-19T09:24:23Z</time><name>PT212</name></trkpt>
<trkpt lat="52.967912" lon="05.969995"><ele>38.9</ele><time>2021-03-19T09:24:24Z</time><name>PT213</name></trkpt>
<trkpt lat="52.967916" lon="05.970013"><ele>38.9</ele><time>2021-03-19T09:24:25Z</time><name>PT214</name></trkpt>
<trkpt lat="52.967921" lon="05.970033"><ele>38.9</ele><time>2021-03-19T09:24:26Z</time><name>PT215</name></trkpt>
<trkpt lat="52.967920" lon="05.970048"><ele>38.7</ele><time>2021-03-19T09:24:27Z</time><name>PT216</name></trkpt>
<trkpt lat="52.967925" lon="05.970072"><ele>38.4</ele><time>2021-03-19T09:24:28Z</time><name>PT217</name></trkpt>
<trkpt lat="52.967932" lon="05.970095"><ele>38.2</ele><time>2021-03-19T09:24:29Z</time><name>PT218</name></trkpt>
<trkpt lat="52.967938" lon="05.970113"><ele>38.2</ele><time>2021-03-19T09:24:30Z</time><name>PT219</name></trkpt>
<trkpt lat="52.967946" lon="05.970127"><ele>38.3</ele><time>2021-03-19T09:24:31Z</time><name>PT220</name></trkpt>
<trkpt lat="52.967953" lon="05.970142"><ele>38.3</ele><time>2021-03-19T09:24:32Z</time><name>PT221</name></trkpt>
<trkpt lat="52.967958" lon="05.970155"><ele>38.3</ele><time>2021-03-19T09:24:33Z</time><name>PT222</name></trkpt>
<trkpt lat="52.967964" lon="05.970169"><ele>38.2</ele><time>2021-03-19T09:24:34Z</time><name>PT223</name></trkpt>
<trkpt lat="52.967967" lon="05.970188"><ele>38.4</ele><time>2021-03-19T09:24:35Z</time><name>PT224</name></trkpt>
<trkpt lat="52.967972" lon="05.970206"><ele>38.3</ele><time>2021-03-19T09:24:36Z</time><name>PT225</name></trkpt>
<trkpt lat="52.967975" lon="05.970219"><ele>38.5</ele><time>2021-03-19T09:24:37Z</time><name>PT226</name></trkpt>
<trkpt lat="52.967979" lon="05.970230"><ele>38.5</ele><time>2021-03-19T09:24:38Z</time><name>PT227</name></trkpt>
<trkpt lat="52.967983" lon="05.970246"><ele>38.5</ele><time>2021-03-19T09:24:39Z</time><name>PT228</name></trkpt>
<trkpt lat="52.967989" lon="05.970254"><ele>38.6</ele><time>2021-03-19T09:24:40Z</time><name>PT229</name></trkpt>
<trkpt lat="52.967993" lon="05.970266"><ele>38.6</ele><time>2021-03-19T09:24:41Z</time><name>PT230</name></trkpt>
<trkpt lat="52.967996" lon="05.970282"><ele>38.6</ele><time>2021-03-19T09:24:42Z</time><name>PT231</name></trkpt>
<trkpt lat="52.967996" lon="05.970294"><ele>38.7</ele><time>2021-03-19T09:24:43Z</time><name>PT232</name></trkpt>
<trkpt lat="52.968001" lon="05.970308"><ele>38.6</ele><time>2021-03-19T09:24:44Z</time><name>PT233</name></trkpt>
<trkpt lat="52.968004" lon="05.970329"><ele>38.6</ele><time>2021-03-19T09:24:45Z</time><name>PT234</name></trkpt>
<trkpt lat="52.968008" lon="05.970345"><ele>38.6</ele><time>2021-03-19T09:24:46Z</time><name>PT235</name></trkpt>
<trkpt lat="52.968009" lon="05.970355"><ele>38.6</ele><time>2021-03-19T09:24:47Z</time><name>PT236</name></trkpt>
<trkpt lat="52.968009" lon="05.970378"><ele>38.6</ele><time>2021-03-19T09:24:48Z</time><name>PT237</name></trkpt>
<trkpt lat="52.968005" lon="05.970396"><ele>38.7</ele><time>2021-03-19T09:24:49Z</time><name>PT238</name></trkpt>
<trkpt lat="52.968001" lon="05.970410"><ele>38.7</ele><time>2021-03-19T09:24:50Z</time><name>PT239</name></trkpt>
<trkpt lat="52.967996" lon="05.970423"><ele>38.8</ele><time>2021-03-19T09:24:51Z</time><name>PT240</name></trkpt>
<trkpt lat="52.967990" lon="05.970442"><ele>38.7</ele><time>2021-03-19T09:24:52Z</time><name>PT241</name></trkpt>
<trkpt lat="52.967982" lon="05.970449"><ele>38.6</ele><time>2021-03-19T09:24:53Z</time><name>PT242</name></trkpt>
<trkpt lat="52.967975" lon="05.970460"><ele>38.6</ele><time>2021-03-19T09:24:54Z</time><name>PT243</name></trkpt>
<trkpt lat="52.967962" lon="05.970513"><ele>38.6</ele><time>2021-03-19T09:24:55Z</time><name>PT244</name></trkpt>
<trkpt lat="52.967952" lon="05.970520"><ele>38.6</ele><time>2021-03-19T09:24:56Z</time><name>PT245</name></trkpt>
<trkpt lat="52.967941" lon="05.970537"><ele>38.6</ele><time>2021-03-19T09:24:57Z</time><name>PT246</name></trkpt>
<trkpt lat="52.967930" lon="05.970552"><ele>38.5</ele><time>2021-03-19T09:24:58Z</time><name>PT247</name></trkpt>
<trkpt lat="52.967918" lon="05.970563"><ele>38.6</ele><time>2021-03-19T09:24:59Z</time><name>PT248</name></trkpt>
<trkpt lat="52.967907" lon="05.970580"><ele>38.5</ele><time>2021-03-19T09:25:00Z</time><name>PT249</name></trkpt>
<trkpt lat="52.967895" lon="05.970597"><ele>38.6</ele><time>2021-03-19T09:25:01Z</time><name>PT250</name></trkpt>
<trkpt lat="52.967884" lon="05.970606"><ele>38.5</ele><time>2021-03-19T09:25:02Z</time><name>PT251</name></trkpt>
<trkpt lat="52.967869" lon="05.970621"><ele>38.6</ele><time>2021-03-19T09:25:03Z</time><name>PT252</name></trkpt>
<trkpt lat="52.967857" lon="05.970634"><ele>38.6</ele><time>2021-03-19T09:25:04Z</time><name>PT253</name></trkpt>
<trkpt lat="52.967849" lon="05.970643"><ele>38.6</ele><time>2021-03-19T09:25:05Z</time><name>PT254</name></trkpt>
<trkpt lat="52.967842" lon="05.970649"><ele>38.6</ele><time>2021-03-19T09:25:06Z</time><name>PT255</name></trkpt>
<trkpt lat="52.967834" lon="05.970695"><ele>38.6</ele><time>2021-03-19T09:25:07Z</time><name>PT256</name></trkpt>
<trkpt lat="52.967824" lon="05.970699"><ele>38.6</ele><time>2021-03-19T09:25:08Z</time><name>PT257</name></trkpt>
<trkpt lat="52.967814" lon="05.970712"><ele>38.5</ele><time>2021-03-19T09:25:09Z</time><name>PT258</name></trkpt>
<trkpt lat="52.967804" lon="05.970714"><ele>38.2</ele><time>2021-03-19T09:25:10Z</time><name>PT259</name></trkpt>
<trkpt lat="52.967797" lon="05.970716"><ele>38.3</ele><time>2021-03-19T09:25:11Z</time><name>PT260</name></trkpt>
<trkpt lat="52.967789" lon="05.970714"><ele>38.4</ele><time>2021-03-19T09:25:12Z</time><name>PT261</name></trkpt>
<trkpt lat="52.967778" lon="05.970724"><ele>38.4</ele><time>2021-03-19T09:25:13Z</time><name>PT262</name></trkpt>
<trkpt lat="52.967769" lon="05.970743"><ele>38.3</ele><time>2021-03-19T09:25:14Z</time><name>PT263</name></trkpt>
<trkpt lat="52.967761" lon="05.970763"><ele>38.3</ele><time>2021-03-19T09:25:15Z</time><name>PT264</name></trkpt>
<trkpt lat="52.967752" lon="05.970779"><ele>38.2</ele><time>2021-03-19T09:25:16Z</time><name>PT265</name></trkpt>
<trkpt lat="52.967741" lon="05.970790"><ele>38.2</ele><time>2021-03-19T09:25:17Z</time><name>PT266</name></trkpt>
<trkpt lat="52.967733" lon="05.970798"><ele>38.1</ele><time>2021-03-19T09:25:18Z</time><name>PT267</name></trkpt>
<trkpt lat="52.967719" lon="05.970807"><ele>38.2</ele><time>2021-03-19T09:25:19Z</time><name>PT268</name></trkpt>
<trkpt lat="52.967711" lon="05.970815"><ele>38.3</ele><time>2021-03-19T09:25:20Z</time><name>PT269</name></trkpt>
<trkpt lat="52.967700" lon="05.970822"><ele>38.3</ele><time>2021-03-19T09:25:21Z</time><name>PT270</name></trkpt>
<trkpt lat="52.967689" lon="05.970827"><ele>38.4</ele><time>2021-03-19T09:25:22Z</time><name>PT271</name></trkpt>
<trkpt lat="52.967678" lon="05.970838"><ele>38.4</ele><time>2021-03-19T09:25:23Z</time><name>PT272</name></trkpt>
<trkpt lat="52.967666" lon="05.970851"><ele>38.3</ele><time>2021-03-19T09:25:24Z</time><name>PT273</name></trkpt>
<trkpt lat="52.967655" lon="05.970862"><ele>38.4</ele><time>2021-03-19T09:25:25Z</time><name>PT274</name></trkpt>
<trkpt lat="52.967645" lon="05.970872"><ele>38.3</ele><time>2021-03-19T09:25:26Z</time><name>PT275</name></trkpt>
<trkpt lat="52.967636" lon="05.970886"><ele>38.3</ele><time>2021-03-19T09:25:27Z</time><name>PT276</name></trkpt>
<trkpt lat="52.967628" lon="05.970903"><ele>38.4</ele><time>2021-03-19T09:25:28Z</time><name>PT277</name></trkpt>
<trkpt lat="52.967619" lon="05.970921"><ele>38.5</ele><time>2021-03-19T09:25:29Z</time><name>PT278</name></trkpt>
<trkpt lat="52.967608" lon="05.970933"><ele>38.6</ele><time>2021-03-19T09:25:30Z</time><name>PT279</name></trkpt>
<trkpt lat="52.967599" lon="05.970941"><ele>38.6</ele><time>2021-03-19T09:25:31Z</time><name>PT280</name></trkpt>
<trkpt lat="52.967591" lon="05.970945"><ele>38.6</ele><time>2021-03-19T09:25:32Z</time><name>PT281</name></trkpt>
<trkpt lat="52.967577" lon="05.970955"><ele>38.6</ele><time>2021-03-19T09:25:33Z</time><name>PT282</name></trkpt>
<trkpt lat="52.967563" lon="05.970962"><ele>38.7</ele><time>2021-03-19T09:25:34Z</time><name>PT283</name></trkpt>
<trkpt lat="52.967553" lon="05.970968"><ele>38.6</ele><time>2021-03-19T09:25:35Z</time><name>PT284</name></trkpt>
<trkpt lat="52.967545" lon="05.970972"><ele>38.6</ele><time>2021-03-19T09:25:36Z</time><name>PT285</name></trkpt>
<trkpt lat="52.967535" lon="05.970982"><ele>38.6</ele><time>2021-03-19T09:25:37Z</time><name>PT286</name></trkpt>
<trkpt lat="52.967524" lon="05.970991"><ele>38.6</ele><time>2021-03-19T09:25:38Z</time><name>PT287</name></trkpt>
<trkpt lat="52.967515" lon="05.971007"><ele>38.4</ele><time>2021-03-19T09:25:39Z</time><name>PT288</name></trkpt>
<trkpt lat="52.967506" lon="05.971024"><ele>38.4</ele><time>2021-03-19T09:25:40Z</time><name>PT289</name></trkpt>
<trkpt lat="52.967499" lon="05.971028"><ele>38.2</ele><time>2021-03-19T09:25:41Z</time><name>PT290</name></trkpt>
<trkpt lat="52.967490" lon="05.971041"><ele>38.2</ele><time>2021-03-19T09:25:42Z</time><name>PT291</name></trkpt>
<trkpt lat="52.967484" lon="05.971051"><ele>38.3</ele><time>2021-03-19T09:25:43Z</time><name>PT292</name></trkpt>
<trkpt lat="52.967476" lon="05.971055"><ele>38.4</ele><time>2021-03-19T09:25:44Z</time><name>PT293</name></trkpt>
<trkpt lat="52.967470" lon="05.971056"><ele>38.6</ele><time>2021-03-19T09:25:45Z</time><name>PT294</name></trkpt>
<trkpt lat="52.967462" lon="05.971066"><ele>38.5</ele><time>2021-03-19T09:25:46Z</time><name>PT295</name></trkpt>
<trkpt lat="52.967449" lon="05.971079"><ele>38.6</ele><time>2021-03-19T09:25:47Z</time><name>PT296</name></trkpt>
<trkpt lat="52.967441" lon="05.971087"><ele>38.5</ele><time>2021-03-19T09:25:48Z</time><name>PT297</name></trkpt>
<trkpt lat="52.967430" lon="05.971099"><ele>38.5</ele><time>2021-03-19T09:25:49Z</time><name>PT298</name></trkpt>
<trkpt lat="52.967419" lon="05.971108"><ele>38.6</ele><time>2021-03-19T09:25:50Z</time><name>PT299</name></trkpt>
<trkpt lat="52.967409" lon="05.971118"><ele>38.6</ele><time>2021-03-19T09:25:51Z</time><name>PT300</name></trkpt>
<trkpt lat="52.967398" lon="05.971125"><ele>38.6</ele><time>2021-03-19T09:25:52Z</time><name>PT301</name></trkpt>
<trkpt lat="52.967387" lon="05.971133"><ele>38.6</ele><time>2021-03-19T09:25:53Z</time><name>PT302</name></trkpt>
<trkpt lat="52.967377" lon="05.971139"><ele>38.5</ele><time>2021-03-19T09:25:54Z</time><name>PT303</name></trkpt>
<trkpt lat="52.967370" lon="05.971148"><ele>38.4</ele><time>2021-03-19T09:25:55Z</time><name>PT304</name></trkpt>
<trkpt lat="52.967361" lon="05.971170"><ele>38.2</ele><time>2021-03-19T09:25:56Z</time><name>PT305</name></trkpt>
<trkpt lat="52.967356" lon="05.971189"><ele>38.1</ele><time>2021-03-19T09:25:57Z</time><name>PT306</name></trkpt>
<trkpt lat="52.967351" lon="05.971207"><ele>38.1</ele><time>2021-03-19T09:25:58Z</time><name>PT307</name></trkpt>
<trkpt lat="52.967345" lon="05.971221"><ele>38.1</ele><time>2021-03-19T09:25:59Z</time><name>PT308</name></trkpt>
<trkpt lat="52.967337" lon="05.971242"><ele>38.1</ele><time>2021-03-19T09:26:00Z</time><name>PT309</name></trkpt>
<trkpt lat="52.967333" lon="05.971258"><ele>38.1</ele><time>2021-03-19T09:26:01Z</time><name>PT310</name></trkpt>
<trkpt lat="52.967327" lon="05.971270"><ele>38.1</ele><time>2021-03-19T09:26:02Z</time><name>PT311</name></trkpt>
<trkpt lat="52.967321" lon="05.971288"><ele>38</ele><time>2021-03-19T09:26:03Z</time><name>PT312</name></trkpt>
<trkpt lat="52.967314" lon="05.971305"><ele>38</ele><time>2021-03-19T09:26:04Z</time><name>PT313</name></trkpt>
<trkpt lat="52.967306" lon="05.971331"><ele>38.1</ele><time>2021-03-19T09:26:05Z</time><name>PT314</name></trkpt>
<trkpt lat="52.967298" lon="05.971344"><ele>38.2</ele><time>2021-03-19T09:26:06Z</time><name>PT315</name></trkpt>
<trkpt lat="52.967287" lon="05.971357"><ele>38.1</ele><time>2021-03-19T09:26:07Z</time><name>PT316</name></trkpt>
<trkpt lat="52.967282" lon="05.971355"><ele>38.1</ele><time>2021-03-19T09:26:08Z</time><name>PT317</name></trkpt>
<trkpt lat="52.967275" lon="05.971367"><ele>38.2</ele><time>2021-03-19T09:26:09Z</time><name>PT318</name></trkpt>
<trkpt lat="52.967268" lon="05.971379"><ele>38.1</ele><time>2021-03-19T09:26:10Z</time><name>PT319</name></trkpt>
<trkpt lat="52.967258" lon="05.971390"><ele>38.1</ele><time>2021-03-19T09:26:11Z</time><name>PT320</name></trkpt>
<trkpt lat="52.967244" lon="05.971421"><ele>38.1</ele><time>2021-03-19T09:26:12Z</time><name>PT321</name></trkpt>
<trkpt lat="52.967230" lon="05.971459"><ele>38.1</ele><time>2021-03-19T09:26:13Z</time><name>PT322</name></trkpt>
<trkpt lat="52.967218" lon="05.971470"><ele>38.1</ele><time>2021-03-19T09:26:14Z</time><name>PT323</name></trkpt>
<trkpt lat="52.967210" lon="05.971480"><ele>38.1</ele><time>2021-03-19T09:26:15Z</time><name>PT324</name></trkpt>
<trkpt lat="52.967202" lon="05.971491"><ele>38.1</ele><time>2021-03-19T09:26:16Z</time><name>PT325</name></trkpt>
<trkpt lat="52.967190" lon="05.971506"><ele>38.1</ele><time>2021-03-19T09:26:17Z</time><name>PT326</name></trkpt>
<trkpt lat="52.967177" lon="05.971519"><ele>38</ele><time>2021-03-19T09:26:18Z</time><name>PT327</name></trkpt>
<trkpt lat="52.967167" lon="05.971531"><ele>37.9</ele><time>2021-03-19T09:26:19Z</time><name>PT328</name></trkpt>
<trkpt lat="52.967158" lon="05.971538"><ele>37.9</ele><time>2021-03-19T09:26:20Z</time><name>PT329</name></trkpt>
<trkpt lat="52.967147" lon="05.971547"><ele>38.1</ele><time>2021-03-19T09:26:21Z</time><name>PT330</name></trkpt>
<trkpt lat="52.967136" lon="05.971561"><ele>38</ele><time>2021-03-19T09:26:22Z</time><name>PT331</name></trkpt>
<trkpt lat="52.967126" lon="05.971571"><ele>38.1</ele><time>2021-03-19T09:26:23Z</time><name>PT332</name></trkpt>
<trkpt lat="52.967114" lon="05.971583"><ele>38.2</ele><time>2021-03-19T09:26:24Z</time><name>PT333</name></trkpt>
<trkpt lat="52.967104" lon="05.971594"><ele>38.3</ele><time>2021-03-19T09:26:25Z</time><name>PT334</name></trkpt>
<trkpt lat="52.967095" lon="05.971607"><ele>38.2</ele><time>2021-03-19T09:26:26Z</time><name>PT335</name></trkpt>
<trkpt lat="52.967086" lon="05.971621"><ele>38.2</ele><time>2021-03-19T09:26:27Z</time><name>PT336</name></trkpt>
<trkpt lat="52.967074" lon="05.971634"><ele>38.2</ele><time>2021-03-19T09:26:28Z</time><name>PT337</name></trkpt>
<trkpt lat="52.967062" lon="05.971650"><ele>38.4</ele><time>2021-03-19T09:26:29Z</time><name>PT338</name></trkpt>
<trkpt lat="52.967052" lon="05.971655"><ele>38.4</ele><time>2021-03-19T09:26:30Z</time><name>PT339</name></trkpt>
<trkpt lat="52.967043" lon="05.971662"><ele>38.5</ele><time>2021-03-19T09:26:31Z</time><name>PT340</name></trkpt>
<trkpt lat="52.967033" lon="05.971674"><ele>38.5</ele><time>2021-03-19T09:26:32Z</time><name>PT341</name></trkpt>
<trkpt lat="52.967026" lon="05.971679"><ele>38.4</ele><time>2021-03-19T09:26:33Z</time><name>PT342</name></trkpt>
<trkpt lat="52.967017" lon="05.971687"><ele>38.4</ele><time>2021-03-19T09:26:34Z</time><name>PT343</name></trkpt>
<trkpt lat="52.967007" lon="05.971696"><ele>38.5</ele><time>2021-03-19T09:26:35Z</time><name>PT344</name></trkpt>
<trkpt lat="52.966996" lon="05.971705"><ele>38.5</ele><time>2021-03-19T09:26:36Z</time><name>PT345</name></trkpt>
<trkpt lat="52.966985" lon="05.971713"><ele>38.5</ele><time>2021-03-19T09:26:37Z</time><name>PT346</name></trkpt>
<trkpt lat="52.966975" lon="05.971715"><ele>38.4</ele><time>2021-03-19T09:26:38Z</time><name>PT347</name></trkpt>
<trkpt lat="52.966968" lon="05.971719"><ele>38.4</ele><time>2021-03-19T09:26:39Z</time><name>PT348</name></trkpt>
<trkpt lat="52.966962" lon="05.971729"><ele>38.5</ele><time>2021-03-19T09:26:40Z</time><name>PT349</name></trkpt>
<trkpt lat="52.966957" lon="05.971745"><ele>38.6</ele><time>2021-03-19T09:26:41Z</time><name>PT350</name></trkpt>
<trkpt lat="52.966954" lon="05.971750"><ele>38.5</ele><time>2021-03-19T09:26:42Z</time><name>PT351</name></trkpt>
<trkpt lat="52.966951" lon="05.971745"><ele>38.6</ele><time>2021-03-19T09:26:43Z</time><name>PT352</name></trkpt>
<trkpt lat="52.966944" lon="05.971753"><ele>38.6</ele><time>2021-03-19T09:26:44Z</time><name>PT353</name></trkpt>
<trkpt lat="52.966938" lon="05.971758"><ele>38.5</ele><time>2021-03-19T09:26:45Z</time><name>PT354</name></trkpt>
<trkpt lat="52.966930" lon="05.971763"><ele>38.4</ele><time>2021-03-19T09:26:46Z</time><name>PT355</name></trkpt>
<trkpt lat="52.966923" lon="05.971771"><ele>38.3</ele><time>2021-03-19T09:26:47Z</time><name>PT356</name></trkpt>
<trkpt lat="52.966915" lon="05.971779"><ele>38.1</ele><time>2021-03-19T09:26:48Z</time><name>PT357</name></trkpt>
<trkpt lat="52.966905" lon="05.971782"><ele>38.2</ele><time>2021-03-19T09:26:49Z</time><name>PT358</name></trkpt>
<trkpt lat="52.966894" lon="05.971786"><ele>38.2</ele><time>2021-03-19T09:26:50Z</time><name>PT359</name></trkpt>
<trkpt lat="52.966883" lon="05.971789"><ele>38.2</ele><time>2021-03-19T09:26:51Z</time><name>PT360</name></trkpt>
<trkpt lat="52.966873" lon="05.971791"><ele>38.4</ele><time>2021-03-19T09:26:52Z</time><name>PT361</name></trkpt>
<trkpt lat="52.966864" lon="05.971797"><ele>38.2</ele><time>2021-03-19T09:26:53Z</time><name>PT362</name></trkpt>
<trkpt lat="52.966854" lon="05.971802"><ele>38.2</ele><time>2021-03-19T09:26:54Z</time><name>PT363</name></trkpt>
<trkpt lat="52.966845" lon="05.971803"><ele>38.1</ele><time>2021-03-19T09:26:55Z</time><name>PT364</name></trkpt>
<trkpt lat="52.966836" lon="05.971803"><ele>38.3</ele><time>2021-03-19T09:26:56Z</time><name>PT365</name></trkpt>
<trkpt lat="52.966827" lon="05.971806"><ele>38.2</ele><time>2021-03-19T09:26:57Z</time><name>PT366</name></trkpt>
<trkpt lat="52.966818" lon="05.971809"><ele>38.3</ele><time>2021-03-19T09:26:58Z</time><name>PT367</name></trkpt>
<trkpt lat="52.966815" lon="05.971795"><ele>38.3</ele><time>2021-03-19T09:26:59Z</time><name>PT368</name></trkpt>
<trkpt lat="52.966806" lon="05.971796"><ele>38.2</ele><time>2021-03-19T09:27:00Z</time><name>PT369</name></trkpt>
<trkpt lat="52.966797" lon="05.971791"><ele>38.1</ele><time>2021-03-19T09:27:01Z</time><name>PT370</name></trkpt>
<trkpt lat="52.966788" lon="05.971791"><ele>38</ele><time>2021-03-19T09:27:02Z</time><name>PT371</name></trkpt>
<trkpt lat="52.966776" lon="05.971807"><ele>38</ele><time>2021-03-19T09:27:03Z</time><name>PT372</name></trkpt>
<trkpt lat="52.966763" lon="05.971838"><ele>38</ele><time>2021-03-19T09:27:04Z</time><name>PT373</name></trkpt>
<trkpt lat="52.966752" lon="05.971863"><ele>38</ele><time>2021-03-19T09:27:05Z</time><name>PT374</name></trkpt>
<trkpt lat="52.966740" lon="05.971883"><ele>38.1</ele><time>2021-03-19T09:27:06Z</time><name>PT375</name></trkpt>
<trkpt lat="52.966729" lon="05.971898"><ele>38</ele><time>2021-03-19T09:27:07Z</time><name>PT376</name></trkpt>
<trkpt lat="52.966716" lon="05.971908"><ele>38.1</ele><time>2021-03-19T09:27:08Z</time><name>PT377</name></trkpt>
<trkpt lat="52.966702" lon="05.971925"><ele>38</ele><time>2021-03-19T09:27:09Z</time><name>PT378</name></trkpt>
<trkpt lat="52.966684" lon="05.971964"><ele>38</ele><time>2021-03-19T09:27:10Z</time><name>PT379</name></trkpt>
<trkpt lat="52.966671" lon="05.971950"><ele>38.2</ele><time>2021-03-19T09:27:11Z</time><name>PT380</name></trkpt>
<trkpt lat="52.966658" lon="05.971963"><ele>38.1</ele><time>2021-03-19T09:27:12Z</time><name>PT381</name></trkpt>
<trkpt lat="52.966647" lon="05.971969"><ele>38.1</ele><time>2021-03-19T09:27:13Z</time><name>PT382</name></trkpt>
<trkpt lat="52.966639" lon="05.971972"><ele>38.2</ele><time>2021-03-19T09:27:14Z</time><name>PT383</name></trkpt>
<trkpt lat="52.966628" lon="05.971974"><ele>38.2</ele><time>2021-03-19T09:27:15Z</time><name>PT384</name></trkpt>
<trkpt lat="52.966617" lon="05.971975"><ele>38.1</ele><time>2021-03-19T09:27:16Z</time><name>PT385</name></trkpt>
<trkpt lat="52.966604" lon="05.971992"><ele>38.2</ele><time>2021-03-19T09:27:17Z</time><name>PT386</name></trkpt>
<trkpt lat="52.966596" lon="05.971994"><ele>38.2</ele><time>2021-03-19T09:27:18Z</time><name>PT387</name></trkpt>
<trkpt lat="52.966587" lon="05.972010"><ele>38.3</ele><time>2021-03-19T09:27:19Z</time><name>PT388</name></trkpt>
<trkpt lat="52.966573" lon="05.972042"><ele>38.1</ele><time>2021-03-19T09:27:20Z</time><name>PT389</name></trkpt>
<trkpt lat="52.966561" lon="05.972055"><ele>38.2</ele><time>2021-03-19T09:27:21Z</time><name>PT390</name></trkpt>
<trkpt lat="52.966548" lon="05.972084"><ele>38.1</ele><time>2021-03-19T09:27:22Z</time><name>PT391</name></trkpt>
<trkpt lat="52.966535" lon="05.972108"><ele>38.1</ele><time>2021-03-19T09:27:23Z</time><name>PT392</name></trkpt>
<trkpt lat="52.966520" lon="05.972133"><ele>38.1</ele><time>2021-03-19T09:27:24Z</time><name>PT393</name></trkpt>
<trkpt lat="52.966506" lon="05.972167"><ele>38.2</ele><time>2021-03-19T09:27:25Z</time><name>PT394</name></trkpt>
<trkpt lat="52.966494" lon="05.972188"><ele>38.3</ele><time>2021-03-19T09:27:26Z</time><name>PT395</name></trkpt>
<trkpt lat="52.966481" lon="05.972206"><ele>38.2</ele><time>2021-03-19T09:27:27Z</time><name>PT396</name></trkpt>
<trkpt lat="52.966469" lon="05.972225"><ele>38.2</ele><time>2021-03-19T09:27:28Z</time><name>PT397</name></trkpt>
<trkpt lat="52.966460" lon="05.972242"><ele>38.2</ele><time>2021-03-19T09:27:29Z</time><name>PT398</name></trkpt>
<trkpt lat="52.966449" lon="05.972256"><ele>38.1</ele><time>2021-03-19T09:27:30Z</time><name>PT399</name></trkpt>
<trkpt lat="52.966442" lon="05.972294"><ele>38.1</ele><time>2021-03-19T09:27:31Z</time><name>PT400</name></trkpt>
<trkpt lat="52.966431" lon="05.972307"><ele>38</ele><time>2021-03-19T09:27:32Z</time><name>PT401</name></trkpt>
<trkpt lat="52.966421" lon="05.972317"><ele>38</ele><time>2021-03-19T09:27:33Z</time><name>PT402</name></trkpt>
<trkpt lat="52.966410" lon="05.972326"><ele>38.1</ele><time>2021-03-19T09:27:34Z</time><name>PT403</name></trkpt>
<trkpt lat="52.966405" lon="05.972327"><ele>38</ele><time>2021-03-19T09:27:35Z</time><name>PT404</name></trkpt>
<trkpt lat="52.966394" lon="05.972342"><ele>38.1</ele><time>2021-03-19T09:27:36Z</time><name>PT405</name></trkpt>
<trkpt lat="52.966382" lon="05.972374"><ele>38.1</ele><time>2021-03-19T09:27:37Z</time><name>PT406</name></trkpt>
<trkpt lat="52.966369" lon="05.972395"><ele>38.1</ele><time>2021-03-19T09:27:38Z</time><name>PT407</name></trkpt>
<trkpt lat="52.966361" lon="05.972405"><ele>38</ele><time>2021-03-19T09:27:39Z</time><name>PT408</name></trkpt>
<trkpt lat="52.966351" lon="05.972416"><ele>38.1</ele><time>2021-03-19T09:27:40Z</time><name>PT409</name></trkpt>
<trkpt lat="52.966342" lon="05.972425"><ele>38.1</ele><time>2021-03-19T09:27:41Z</time><name>PT410</name></trkpt>
<trkpt lat="52.966329" lon="05.972444"><ele>38.1</ele><time>2021-03-19T09:27:42Z</time><name>PT411</name></trkpt>
<trkpt lat="52.966317" lon="05.972458"><ele>38.1</ele><time>2021-03-19T09:27:43Z</time><name>PT412</name></trkpt>
<trkpt lat="52.966308" lon="05.972477"><ele>38.1</ele><time>2021-03-19T09:27:44Z</time><name>PT413</name></trkpt>
<trkpt lat="52.966297" lon="05.972490"><ele>37.9</ele><time>2021-03-19T09:27:45Z</time><name>PT414</name></trkpt>
<trkpt lat="52.966288" lon="05.972502"><ele>37.9</ele><time>2021-03-19T09:27:46Z</time><name>PT415</name></trkpt>
<trkpt lat="52.966277" lon="05.972511"><ele>37.9</ele><time>2021-03-19T09:27:47Z</time><name>PT416</name></trkpt>
<trkpt lat="52.966267" lon="05.972523"><ele>38</ele><time>2021-03-19T09:27:48Z</time><name>PT417</name></trkpt>
<trkpt lat="52.966257" lon="05.972532"><ele>38.1</ele><time>2021-03-19T09:27:49Z</time><name>PT418</name></trkpt>
<trkpt lat="52.966244" lon="05.972541"><ele>38.5</ele><time>2021-03-19T09:27:50Z</time><name>PT419</name></trkpt>
<trkpt lat="52.966232" lon="05.972549"><ele>38.6</ele><time>2021-03-19T09:27:51Z</time><name>PT420</name></trkpt>
<trkpt lat="52.966228" lon="05.972556"><ele>38.4</ele><time>2021-03-19T09:27:52Z</time><name>PT421</name></trkpt>
<trkpt lat="52.966225" lon="05.972563"><ele>38.4</ele><time>2021-03-19T09:27:53Z</time><name>PT422</name></trkpt>
<trkpt lat="52.966218" lon="05.972567"><ele>38.1</ele><time>2021-03-19T09:27:54Z</time><name>PT423</name></trkpt>
<trkpt lat="52.966208" lon="05.972571"><ele>37.9</ele><time>2021-03-19T09:27:55Z</time><name>PT424</name></trkpt>
<trkpt lat="52.966198" lon="05.972579"><ele>37.8</ele><time>2021-03-19T09:27:56Z</time><name>PT425</name></trkpt>
<trkpt lat="52.966189" lon="05.972584"><ele>37.7</ele><time>2021-03-19T09:27:57Z</time><name>PT426</name></trkpt>
<trkpt lat="52.966180" lon="05.972594"><ele>38</ele><time>2021-03-19T09:27:58Z</time><name>PT427</name></trkpt>
<trkpt lat="52.966172" lon="05.972609"><ele>38.1</ele><time>2021-03-19T09:27:59Z</time><name>PT428</name></trkpt>
<trkpt lat="52.966162" lon="05.972623"><ele>38.1</ele><time>2021-03-19T09:28:00Z</time><name>PT429</name></trkpt>
<trkpt lat="52.966153" lon="05.972635"><ele>38.3</ele><time>2021-03-19T09:28:01Z</time><name>PT430</name></trkpt>
<trkpt lat="52.966143" lon="05.972643"><ele>38.4</ele><time>2021-03-19T09:28:02Z</time><name>PT431</name></trkpt>
<trkpt lat="52.966134" lon="05.972652"><ele>38.5</ele><time>2021-03-19T09:28:03Z</time><name>PT432</name></trkpt>
<trkpt lat="52.966124" lon="05.972663"><ele>38.5</ele><time>2021-03-19T09:28:04Z</time><name>PT433</name></trkpt>
<trkpt lat="52.966115" lon="05.972672"><ele>38.6</ele><time>2021-03-19T09:28:05Z</time><name>PT434</name></trkpt>
<trkpt lat="52.966107" lon="05.972679"><ele>38.6</ele><time>2021-03-19T09:28:06Z</time><name>PT435</name></trkpt>
<trkpt lat="52.966097" lon="05.972688"><ele>38.5</ele><time>2021-03-19T09:28:07Z</time><name>PT436</name></trkpt>
<trkpt lat="52.966085" lon="05.972700"><ele>38.5</ele><time>2021-03-19T09:28:08Z</time><name>PT437</name></trkpt>
<trkpt lat="52.966075" lon="05.972704"><ele>38.3</ele><time>2021-03-19T09:28:09Z</time><name>PT438</name></trkpt>
<trkpt lat="52.966061" lon="05.972726"><ele>38.3</ele><time>2021-03-19T09:28:10Z</time><name>PT439</name></trkpt>
<trkpt lat="52.966047" lon="05.972740"><ele>38.3</ele><time>2021-03-19T09:28:11Z</time><name>PT440</name></trkpt>
<trkpt lat="52.966035" lon="05.972747"><ele>38.1</ele><time>2021-03-19T09:28:12Z</time><name>PT441</name></trkpt>
<trkpt lat="52.966023" lon="05.972758"><ele>38.1</ele><time>2021-03-19T09:28:13Z</time><name>PT442</name></trkpt>
<trkpt lat="52.966013" lon="05.972769"><ele>38.1</ele><time>2021-03-19T09:28:14Z</time><name>PT443</name></trkpt>
<trkpt lat="52.966001" lon="05.972784"><ele>37.9</ele><time>2021-03-19T09:28:15Z</time><name>PT444</name></trkpt>
<trkpt lat="52.965992" lon="05.972790"><ele>37.8</ele><time>2021-03-19T09:28:16Z</time><name>PT445</name></trkpt>
<trkpt lat="52.965981" lon="05.972805"><ele>37.8</ele><time>2021-03-19T09:28:17Z</time><name>PT446</name></trkpt>
<trkpt lat="52.965970" lon="05.972814"><ele>37.8</ele><time>2021-03-19T09:28:18Z</time><name>PT447</name></trkpt>
<trkpt lat="52.965960" lon="05.972829"><ele>37.7</ele><time>2021-03-19T09:28:19Z</time><name>PT448</name></trkpt>
<trkpt lat="52.965947" lon="05.972843"><ele>37.8</ele><time>2021-03-19T09:28:20Z</time><name>PT449</name></trkpt>
<trkpt lat="52.965936" lon="05.972854"><ele>37.7</ele><time>2021-03-19T09:28:21Z</time><name>PT450</name></trkpt>
<trkpt lat="52.965924" lon="05.972866"><ele>37.6</ele><time>2021-03-19T09:28:22Z</time><name>PT451</name></trkpt>
<trkpt lat="52.965913" lon="05.972875"><ele>37.7</ele><time>2021-03-19T09:28:23Z</time><name>PT452</name></trkpt>
<trkpt lat="52.965902" lon="05.972884"><ele>37.6</ele><time>2021-03-19T09:28:24Z</time><name>PT453</name></trkpt>
<trkpt lat="52.965892" lon="05.972899"><ele>37.5</ele><time>2021-03-19T09:28:25Z</time><name>PT454</name></trkpt>
<trkpt lat="52.965883" lon="05.972909"><ele>37.7</ele><time>2021-03-19T09:28:26Z</time><name>PT455</name></trkpt>
<trkpt lat="52.965873" lon="05.972920"><ele>37.7</ele><time>2021-03-19T09:28:27Z</time><name>PT456</name></trkpt>
<trkpt lat="52.965863" lon="05.972932"><ele>37.7</ele><time>2021-03-19T09:28:28Z</time><name>PT457</name></trkpt>
<trkpt lat="52.965853" lon="05.972945"><ele>37.9</ele><time>2021-03-19T09:28:29Z</time><name>PT458</name></trkpt>
<trkpt lat="52.965844" lon="05.972956"><ele>37.9</ele><time>2021-03-19T09:28:30Z</time><name>PT459</name></trkpt>
<trkpt lat="52.965835" lon="05.972965"><ele>38</ele><time>2021-03-19T09:28:31Z</time><name>PT460</name></trkpt>
<trkpt lat="52.965823" lon="05.972976"><ele>38.1</ele><time>2021-03-19T09:28:32Z</time><name>PT461</name></trkpt>
<trkpt lat="52.965819" lon="05.972984"><ele>37.9</ele><time>2021-03-19T09:28:33Z</time><name>PT462</name></trkpt>
<trkpt lat="52.965812" lon="05.972995"><ele>37.8</ele><time>2021-03-19T09:28:34Z</time><name>PT463</name></trkpt>
<trkpt lat="52.965806" lon="05.973002"><ele>37.7</ele><time>2021-03-19T09:28:35Z</time><name>PT464</name></trkpt>
<trkpt lat="52.965800" lon="05.973005"><ele>37.7</ele><time>2021-03-19T09:28:36Z</time><name>PT465</name></trkpt>
<trkpt lat="52.965788" lon="05.973019"><ele>37.7</ele><time>2021-03-19T09:28:37Z</time><name>PT466</name></trkpt>
<trkpt lat="52.965776" lon="05.973024"><ele>37.7</ele><time>2021-03-19T09:28:38Z</time><name>PT467</name></trkpt>
<trkpt lat="52.965766" lon="05.973028"><ele>37.6</ele><time>2021-03-19T09:28:39Z</time><name>PT468</name></trkpt>
<trkpt lat="52.965755" lon="05.973043"><ele>37.6</ele><time>2021-03-19T09:28:40Z</time><name>PT469</name></trkpt>
<trkpt lat="52.965745" lon="05.973055"><ele>37.5</ele><time>2021-03-19T09:28:41Z</time><name>PT470</name></trkpt>
<trkpt lat="52.965735" lon="05.973064"><ele>37.4</ele><time>2021-03-19T09:28:42Z</time><name>PT471</name></trkpt>
<trkpt lat="52.965724" lon="05.973077"><ele>37.4</ele><time>2021-03-19T09:28:43Z</time><name>PT472</name></trkpt>
<trkpt lat="52.965716" lon="05.973083"><ele>37.6</ele><time>2021-03-19T09:28:44Z</time><name>PT473</name></trkpt>
<trkpt lat="52.965709" lon="05.973086"><ele>37.7</ele><time>2021-03-19T09:28:45Z</time><name>PT474</name></trkpt>
<trkpt lat="52.965701" lon="05.973090"><ele>37.7</ele><time>2021-03-19T09:28:46Z</time><name>PT475</name></trkpt>
<trkpt lat="52.965688" lon="05.973098"><ele>37.7</ele><time>2021-03-19T09:28:47Z</time><name>PT476</name></trkpt>
<trkpt lat="52.965679" lon="05.973101"><ele>37.7</ele><time>2021-03-19T09:28:48Z</time><name>PT477</name></trkpt>
<trkpt lat="52.965669" lon="05.973108"><ele>37.7</ele><time>2021-03-19T09:28:49Z</time><name>PT478</name></trkpt>
<trkpt lat="52.965663" lon="05.973103"><ele>37.7</ele><time>2021-03-19T09:28:50Z</time><name>PT479</name></trkpt>
<trkpt lat="52.965654" lon="05.973111"><ele>37.8</ele><time>2021-03-19T09:28:51Z</time><name>PT480</name></trkpt>
<trkpt lat="52.965646" lon="05.973119"><ele>37.8</ele><time>2021-03-19T09:28:52Z</time><name>PT481</name></trkpt>
<trkpt lat="52.965641" lon="05.973121"><ele>37.8</ele><time>2021-03-19T09:28:53Z</time><name>PT482</name></trkpt>
<trkpt lat="52.965632" lon="05.973133"><ele>37.7</ele><time>2021-03-19T09:28:54Z</time><name>PT483</name></trkpt>
<trkpt lat="52.965618" lon="05.973141"><ele>37.7</ele><time>2021-03-19T09:28:55Z</time><name>PT484</name></trkpt>
<trkpt lat="52.965608" lon="05.973153"><ele>37.7</ele><time>2021-03-19T09:28:56Z</time><name>PT485</name></trkpt>
<trkpt lat="52.965599" lon="05.973163"><ele>37.7</ele><time>2021-03-19T09:28:57Z</time><name>PT486</name></trkpt>
<trkpt lat="52.965590" lon="05.973175"><ele>37.5</ele><time>2021-03-19T09:28:58Z</time><name>PT487</name></trkpt>
<trkpt lat="52.965582" lon="05.973189"><ele>37.7</ele><time>2021-03-19T09:28:59Z</time><name>PT488</name></trkpt>
<trkpt lat="52.965573" lon="05.973203"><ele>37.7</ele><time>2021-03-19T09:29:00Z</time><name>PT489</name></trkpt>
<trkpt lat="52.965562" lon="05.973217"><ele>37.7</ele><time>2021-03-19T09:29:01Z</time><name>PT490</name></trkpt>
<trkpt lat="52.965550" lon="05.973232"><ele>37.7</ele><time>2021-03-19T09:29:02Z</time><name>PT491</name></trkpt>
<trkpt lat="52.965540" lon="05.973240"><ele>37.6</ele><time>2021-03-19T09:29:03Z</time><name>PT492</name></trkpt>
<trkpt lat="52.965531" lon="05.973247"><ele>37.4</ele><time>2021-03-19T09:29:04Z</time><name>PT493</name></trkpt>
<trkpt lat="52.965521" lon="05.973268"><ele>37.6</ele><time>2021-03-19T09:29:05Z</time><name>PT494</name></trkpt>
<trkpt lat="52.965510" lon="05.973279"><ele>37.4</ele><time>2021-03-19T09:29:06Z</time><name>PT495</name></trkpt>
<trkpt lat="52.965501" lon="05.973291"><ele>37.4</ele><time>2021-03-19T09:29:07Z</time><name>PT496</name></trkpt>
<trkpt lat="52.965487" lon="05.973308"><ele>37.4</ele><time>2021-03-19T09:29:08Z</time><name>PT497</name></trkpt>
<trkpt lat="52.965475" lon="05.973322"><ele>37.5</ele><time>2021-03-19T09:29:09Z</time><name>PT498</name></trkpt>
<trkpt lat="52.965464" lon="05.973331"><ele>37.3</ele><time>2021-03-19T09:29:10Z</time><name>PT499</name></trkpt>
<trkpt lat="52.965454" lon="05.973338"><ele>37.4</ele><time>2021-03-19T09:29:11Z</time><name>PT500</name></trkpt>
<trkpt lat="52.965443" lon="05.973355"><ele>37.3</ele><time>2021-03-19T09:29:12Z</time><name>PT501</name></trkpt>
<trkpt lat="52.965435" lon="05.973361"><ele>37.6</ele><time>2021-03-19T09:29:13Z</time><name>PT502</name></trkpt>
<trkpt lat="52.965426" lon="05.973371"><ele>37.6</ele><time>2021-03-19T09:29:14Z</time><name>PT503</name></trkpt>
<trkpt lat="52.965415" lon="05.973382"><ele>37.7</ele><time>2021-03-19T09:29:15Z</time><name>PT504</name></trkpt>
<trkpt lat="52.965405" lon="05.973388"><ele>37.6</ele><time>2021-03-19T09:29:16Z</time><name>PT505</name></trkpt>
<trkpt lat="52.965391" lon="05.973398"><ele>37.7</ele><time>2021-03-19T09:29:17Z</time><name>PT506</name></trkpt>
<trkpt lat="52.965376" lon="05.973414"><ele>37.6</ele><time>2021-03-19T09:29:18Z</time><name>PT507</name></trkpt>
<trkpt lat="52.965364" lon="05.973423"><ele>37.6</ele><time>2021-03-19T09:29:19Z</time><name>PT508</name></trkpt>
<trkpt lat="52.965353" lon="05.973426"><ele>37.5</ele><time>2021-03-19T09:29:20Z</time><name>PT509</name></trkpt>
<trkpt lat="52.965344" lon="05.973433"><ele>37.4</ele><time>2021-03-19T09:29:21Z</time><name>PT510</name></trkpt>
<trkpt lat="52.965333" lon="05.973447"><ele>37.3</ele><time>2021-03-19T09:29:22Z</time><name>PT511</name></trkpt>
<trkpt lat="52.965321" lon="05.973460"><ele>37.4</ele><time>2021-03-19T09:29:23Z</time><name>PT512</name></trkpt>
<trkpt lat="52.965311" lon="05.973473"><ele>37.4</ele><time>2021-03-19T09:29:24Z</time><name>PT513</name></trkpt>
<trkpt lat="52.965300" lon="05.973483"><ele>37.5</ele><time>2021-03-19T09:29:25Z</time><name>PT514</name></trkpt>
<trkpt lat="52.965289" lon="05.973483"><ele>37.6</ele><time>2021-03-19T09:29:26Z</time><name>PT515</name></trkpt>
<trkpt lat="52.965278" lon="05.973502"><ele>37.4</ele><time>2021-03-19T09:29:27Z</time><name>PT516</name></trkpt>
<trkpt lat="52.965269" lon="05.973509"><ele>37.4</ele><time>2021-03-19T09:29:28Z</time><name>PT517</name></trkpt>
<trkpt lat="52.965259" lon="05.973520"><ele>37.3</ele><time>2021-03-19T09:29:29Z</time><name>PT518</name></trkpt>
<trkpt lat="52.965249" lon="05.973541"><ele>37.3</ele><time>2021-03-19T09:29:30Z</time><name>PT519</name></trkpt>
<trkpt lat="52.965240" lon="05.973546"><ele>37.2</ele><time>2021-03-19T09:29:31Z</time><name>PT520</name></trkpt>
<trkpt lat="52.965229" lon="05.973553"><ele>37.2</ele><time>2021-03-19T09:29:32Z</time><name>PT521</name></trkpt>
<trkpt lat="52.965217" lon="05.973560"><ele>37.2</ele><time>2021-03-19T09:29:33Z</time><name>PT522</name></trkpt>
<trkpt lat="52.965204" lon="05.973576"><ele>37.2</ele><time>2021-03-19T09:29:34Z</time><name>PT523</name></trkpt>
<trkpt lat="52.965190" lon="05.973599"><ele>37.4</ele><time>2021-03-19T09:29:35Z</time><name>PT524</name></trkpt>
<trkpt lat="52.965174" lon="05.973617"><ele>37.4</ele><time>2021-03-19T09:29:36Z</time><name>PT525</name></trkpt>
<trkpt lat="52.965162" lon="05.973629"><ele>37.5</ele><time>2021-03-19T09:29:37Z</time><name>PT526</name></trkpt>
<trkpt lat="52.965151" lon="05.973648"><ele>37.6</ele><time>2021-03-19T09:29:38Z</time><name>PT527</name></trkpt>
<trkpt lat="52.965140" lon="05.973669"><ele>37.5</ele><time>2021-03-19T09:29:39Z</time><name>PT528</name></trkpt>
<trkpt lat="52.965130" lon="05.973682"><ele>37.4</ele><time>2021-03-19T09:29:40Z</time><name>PT529</name></trkpt>
<trkpt lat="52.965117" lon="05.973695"><ele>37.4</ele><time>2021-03-19T09:29:41Z</time><name>PT530</name></trkpt>
<trkpt lat="52.965106" lon="05.973704"><ele>37.3</ele><time>2021-03-19T09:29:42Z</time><name>PT531</name></trkpt>
<trkpt lat="52.965095" lon="05.973723"><ele>37.3</ele><time>2021-03-19T09:29:43Z</time><name>PT532</name></trkpt>
<trkpt lat="52.965084" lon="05.973735"><ele>37.5</ele><time>2021-03-19T09:29:44Z</time><name>PT533</name></trkpt>
<trkpt lat="52.965072" lon="05.973747"><ele>37.4</ele><time>2021-03-19T09:29:45Z</time><name>PT534</name></trkpt>
<trkpt lat="52.965062" lon="05.973756"><ele>37.3</ele><time>2021-03-19T09:29:46Z</time><name>PT535</name></trkpt>
<trkpt lat="52.965052" lon="05.973772"><ele>37.2</ele><time>2021-03-19T09:29:47Z</time><name>PT536</name></trkpt>
<trkpt lat="52.965043" lon="05.973781"><ele>37.4</ele><time>2021-03-19T09:29:48Z</time><name>PT537</name></trkpt>
<trkpt lat="52.965033" lon="05.973795"><ele>37.2</ele><time>2021-03-19T09:29:49Z</time><name>PT538</name></trkpt>
<trkpt lat="52.965022" lon="05.973802"><ele>37.3</ele><time>2021-03-19T09:29:50Z</time><name>PT539</name></trkpt>
<trkpt lat="52.965013" lon="05.973811"><ele>37.3</ele><time>2021-03-19T09:29:51Z</time><name>PT540</name></trkpt>
<trkpt lat="52.965001" lon="05.973820"><ele>37.3</ele><time>2021-03-19T09:29:52Z</time><name>PT541</name></trkpt>
<trkpt lat="52.964989" lon="05.973834"><ele>37.3</ele><time>2021-03-19T09:29:53Z</time><name>PT542</name></trkpt>
<trkpt lat="52.964978" lon="05.973847"><ele>37.2</ele><time>2021-03-19T09:29:54Z</time><name>PT543</name></trkpt>
<trkpt lat="52.964966" lon="05.973858"><ele>37.3</ele><time>2021-03-19T09:29:55Z</time><name>PT544</name></trkpt>
<trkpt lat="52.964954" lon="05.973871"><ele>37.2</ele><time>2021-03-19T09:29:56Z</time><name>PT545</name></trkpt>
<trkpt lat="52.964942" lon="05.973877"><ele>37.2</ele><time>2021-03-19T09:29:57Z</time><name>PT546</name></trkpt>
<trkpt lat="52.964931" lon="05.973896"><ele>37.1</ele><time>2021-03-19T09:29:58Z</time><name>PT547</name></trkpt>
<trkpt lat="52.964922" lon="05.973911"><ele>37.2</ele><time>2021-03-19T09:29:59Z</time><name>PT548</name></trkpt>
<trkpt lat="52.964914" lon="05.973926"><ele>37.3</ele><time>2021-03-19T09:30:00Z</time><name>PT549</name></trkpt>
<trkpt lat="52.964904" lon="05.973936"><ele>37.4</ele><time>2021-03-19T09:30:01Z</time><name>PT550</name></trkpt>
<trkpt lat="52.964894" lon="05.973939"><ele>37.4</ele><time>2021-03-19T09:30:02Z</time><name>PT551</name></trkpt>
<trkpt lat="52.964878" lon="05.973959"><ele>37.4</ele><time>2021-03-19T09:30:03Z</time><name>PT552</name></trkpt>
<trkpt lat="52.964862" lon="05.973986"><ele>37.2</ele><time>2021-03-19T09:30:04Z</time><name>PT553</name></trkpt>
<trkpt lat="52.964849" lon="05.973999"><ele>37.3</ele><time>2021-03-19T09:30:05Z</time><name>PT554</name></trkpt>
<trkpt lat="52.964837" lon="05.974014"><ele>37.2</ele><time>2021-03-19T09:30:06Z</time><name>PT555</name></trkpt>
<trkpt lat="52.964829" lon="05.974022"><ele>37.4</ele><time>2021-03-19T09:30:07Z</time><name>PT556</name></trkpt>
<trkpt lat="52.964819" lon="05.974035"><ele>37.3</ele><time>2021-03-19T09:30:08Z</time><name>PT557</name></trkpt>
<trkpt lat="52.964808" lon="05.974043"><ele>37.3</ele><time>2021-03-19T09:30:09Z</time><name>PT558</name></trkpt>
<trkpt lat="52.964798" lon="05.974051"><ele>37.4</ele><time>2021-03-19T09:30:10Z</time><name>PT559</name></trkpt>
<trkpt lat="52.964786" lon="05.974062"><ele>37.4</ele><time>2021-03-19T09:30:11Z</time><name>PT560</name></trkpt>
<trkpt lat="52.964775" lon="05.974067"><ele>37.3</ele><time>2021-03-19T09:30:12Z</time><name>PT561</name></trkpt>
<trkpt lat="52.964763" lon="05.974077"><ele>37.3</ele><time>2021-03-19T09:30:13Z</time><name>PT562</name></trkpt>
<trkpt lat="52.964751" lon="05.974084"><ele>37.2</ele><time>2021-03-19T09:30:14Z</time><name>PT563</name></trkpt>
<trkpt lat="52.964741" lon="05.974096"><ele>37.2</ele><time>2021-03-19T09:30:15Z</time><name>PT564</name></trkpt>
<trkpt lat="52.964733" lon="05.974108"><ele>37</ele><time>2021-03-19T09:30:16Z</time><name>PT565</name></trkpt>
<trkpt lat="52.964724" lon="05.974120"><ele>36.9</ele><time>2021-03-19T09:30:17Z</time><name>PT566</name></trkpt>
<trkpt lat="52.964715" lon="05.974132"><ele>36.9</ele><time>2021-03-19T09:30:18Z</time><name>PT567</name></trkpt>
<trkpt lat="52.964705" lon="05.974142"><ele>36.9</ele><time>2021-03-19T09:30:19Z</time><name>PT568</name></trkpt>
<trkpt lat="52.964697" lon="05.974150"><ele>37.1</ele><time>2021-03-19T09:30:20Z</time><name>PT569</name></trkpt>
<trkpt lat="52.964692" lon="05.974157"><ele>37.1</ele><time>2021-03-19T09:30:21Z</time><name>PT570</name></trkpt>
<trkpt lat="52.964683" lon="05.974166"><ele>36.9</ele><time>2021-03-19T09:30:22Z</time><name>PT571</name></trkpt>
<trkpt lat="52.964674" lon="05.974176"><ele>37</ele><time>2021-03-19T09:30:23Z</time><name>PT572</name></trkpt>
<trkpt lat="52.964665" lon="05.974184"><ele>37</ele><time>2021-03-19T09:30:24Z</time><name>PT573</name></trkpt>
<trkpt lat="52.964656" lon="05.974193"><ele>36.8</ele><time>2021-03-19T09:30:25Z</time><name>PT574</name></trkpt>
<trkpt lat="52.964644" lon="05.974206"><ele>36.9</ele><time>2021-03-19T09:30:26Z</time><name>PT575</name></trkpt>
<trkpt lat="52.964633" lon="05.974217"><ele>36.8</ele><time>2021-03-19T09:30:27Z</time><name>PT576</name></trkpt>
<trkpt lat="52.964620" lon="05.974231"><ele>36.8</ele><time>2021-03-19T09:30:28Z</time><name>PT577</name></trkpt>
<trkpt lat="52.964609" lon="05.974244"><ele>36.7</ele><time>2021-03-19T09:30:29Z</time><name>PT578</name></trkpt>
<trkpt lat="52.964597" lon="05.974257"><ele>36.8</ele><time>2021-03-19T09:30:30Z</time><name>PT579</name></trkpt>
<trkpt lat="52.964585" lon="05.974264"><ele>36.8</ele><time>2021-03-19T09:30:31Z</time><name>PT580</name></trkpt>
<trkpt lat="52.964577" lon="05.974271"><ele>37</ele><time>2021-03-19T09:30:32Z</time><name>PT581</name></trkpt>
<trkpt lat="52.964565" lon="05.974284"><ele>37.1</ele><time>2021-03-19T09:30:33Z</time><name>PT582</name></trkpt>
<trkpt lat="52.964556" lon="05.974294"><ele>37.2</ele><time>2021-03-19T09:30:34Z</time><name>PT583</name></trkpt>
<trkpt lat="52.964546" lon="05.974307"><ele>37.2</ele><time>2021-03-19T09:30:35Z</time><name>PT584</name></trkpt>
<trkpt lat="52.964536" lon="05.974314"><ele>37.2</ele><time>2021-03-19T09:30:36Z</time><name>PT585</name></trkpt>
<trkpt lat="52.964524" lon="05.974331"><ele>37.1</ele><time>2021-03-19T09:30:37Z</time><name>PT586</name></trkpt>
<trkpt lat="52.964514" lon="05.974343"><ele>36.8</ele><time>2021-03-19T09:30:38Z</time><name>PT587</name></trkpt>
<trkpt lat="52.964504" lon="05.974356"><ele>36.9</ele><time>2021-03-19T09:30:39Z</time><name>PT588</name></trkpt>
<trkpt lat="52.964494" lon="05.974369"><ele>36.9</ele><time>2021-03-19T09:30:40Z</time><name>PT589</name></trkpt>
<trkpt lat="52.964484" lon="05.974381"><ele>36.9</ele><time>2021-03-19T09:30:41Z</time><name>PT590</name></trkpt>
<trkpt lat="52.964475" lon="05.974388"><ele>37</ele><time>2021-03-19T09:30:42Z</time><name>PT591</name></trkpt>
<trkpt lat="52.964465" lon="05.974394"><ele>37</ele><time>2021-03-19T09:30:43Z</time><name>PT592</name></trkpt>
<trkpt lat="52.964454" lon="05.974406"><ele>37</ele><time>2021-03-19T09:30:44Z</time><name>PT593</name></trkpt>
<trkpt lat="52.964443" lon="05.974411"><ele>37</ele><time>2021-03-19T09:30:45Z</time><name>PT594</name></trkpt>
<trkpt lat="52.964432" lon="05.974423"><ele>37</ele><time>2021-03-19T09:30:46Z</time><name>PT595</name></trkpt>
<trkpt lat="52.964420" lon="05.974435"><ele>37.1</ele><time>2021-03-19T09:30:47Z</time><name>PT596</name></trkpt>
<trkpt lat="52.964411" lon="05.974444"><ele>37.2</ele><time>2021-03-19T09:30:48Z</time><name>PT597</name></trkpt>
<trkpt lat="52.964401" lon="05.974452"><ele>37.2</ele><time>2021-03-19T09:30:49Z</time><name>PT598</name></trkpt>
<trkpt lat="52.964391" lon="05.974455"><ele>37.1</ele><time>2021-03-19T09:30:50Z</time><name>PT599</name></trkpt>
<trkpt lat="52.964383" lon="05.974460"><ele>37.1</ele><time>2021-03-19T09:30:51Z</time><name>PT600</name></trkpt>
<trkpt lat="52.964374" lon="05.974468"><ele>37.2</ele><time>2021-03-19T09:30:52Z</time><name>PT601</name></trkpt>
<trkpt lat="52.964362" lon="05.974479"><ele>37</ele><time>2021-03-19T09:30:53Z</time><name>PT602</name></trkpt>
<trkpt lat="52.964351" lon="05.974487"><ele>37.2</ele><time>2021-03-19T09:30:54Z</time><name>PT603</name></trkpt>
<trkpt lat="52.964339" lon="05.974496"><ele>37.4</ele><time>2021-03-19T09:30:55Z</time><name>PT604</name></trkpt>
<trkpt lat="52.964330" lon="05.974501"><ele>37.3</ele><time>2021-03-19T09:30:56Z</time><name>PT605</name></trkpt>
<trkpt lat="52.964326" lon="05.974495"><ele>37.2</ele><time>2021-03-19T09:30:57Z</time><name>PT606</name></trkpt>
<trkpt lat="52.964312" lon="05.974506"><ele>37.1</ele><time>2021-03-19T09:30:58Z</time><name>PT607</name></trkpt>
<trkpt lat="52.964305" lon="05.974513"><ele>37</ele><time>2021-03-19T09:30:59Z</time><name>PT608</name></trkpt>
<trkpt lat="52.964301" lon="05.974507"><ele>37</ele><time>2021-03-19T09:31:00Z</time><name>PT609</name></trkpt>
<trkpt lat="52.964290" lon="05.974512"><ele>37</ele><time>2021-03-19T09:31:01Z</time><name>PT610</name></trkpt>
<trkpt lat="52.964286" lon="05.974521"><ele>37.1</ele><time>2021-03-19T09:31:02Z</time><name>PT611</name></trkpt>
<trkpt lat="52.964286" lon="05.974511"><ele>37.2</ele><time>2021-03-19T09:31:03Z</time><name>PT612</name></trkpt>
<trkpt lat="52.964283" lon="05.974502"><ele>37.2</ele><time>2021-03-19T09:31:04Z</time><name>PT613</name></trkpt>
<trkpt lat="52.964283" lon="05.974490"><ele>37.1</ele><time>2021-03-19T09:31:05Z</time><name>PT614</name></trkpt>
<trkpt lat="52.964286" lon="05.974478"><ele>37</ele><time>2021-03-19T09:31:06Z</time><name>PT615</name></trkpt>
<trkpt lat="52.964288" lon="05.974467"><ele>37</ele><time>2021-03-19T09:31:07Z</time><name>PT616</name></trkpt>
<trkpt lat="52.964280" lon="05.974458"><ele>37</ele><time>2021-03-19T09:31:08Z</time><name>PT617</name></trkpt>
<trkpt lat="52.964273" lon="05.974448"><ele>37.1</ele><time>2021-03-19T09:31:09Z</time><name>PT618</name></trkpt>
<trkpt lat="52.964268" lon="05.974432"><ele>37.1</ele><time>2021-03-19T09:31:10Z</time><name>PT619</name></trkpt>
<trkpt lat="52.964264" lon="05.974417"><ele>37</ele><time>2021-03-19T09:31:11Z</time><name>PT620</name></trkpt>
<trkpt lat="52.964262" lon="05.974403"><ele>37</ele><time>2021-03-19T09:31:12Z</time><name>PT621</name></trkpt>
<trkpt lat="52.964255" lon="05.974396"><ele>37</ele><time>2021-03-19T09:31:13Z</time><name>PT622</name></trkpt>
<trkpt lat="52.964255" lon="05.974383"><ele>36.9</ele><time>2021-03-19T09:31:14Z</time><name>PT623</name></trkpt>
<trkpt lat="52.964254" lon="05.974370"><ele>36.9</ele><time>2021-03-19T09:31:15Z</time><name>PT624</name></trkpt>
<trkpt lat="52.964250" lon="05.974356"><ele>36.9</ele><time>2021-03-19T09:31:16Z</time><name>PT625</name></trkpt>
<trkpt lat="52.964251" lon="05.974340"><ele>36.8</ele><time>2021-03-19T09:31:17Z</time><name>PT626</name></trkpt>
<trkpt lat="52.964246" lon="05.974326"><ele>36.9</ele><time>2021-03-19T09:31:18Z</time><name>PT627</name></trkpt>
<trkpt lat="52.964246" lon="05.974312"><ele>37</ele><time>2021-03-19T09:31:19Z</time><name>PT628</name></trkpt>
<trkpt lat="52.964243" lon="05.974300"><ele>36.9</ele><time>2021-03-19T09:31:20Z</time><name>PT629</name></trkpt>
<trkpt lat="52.964243" lon="05.974279"><ele>37</ele><time>2021-03-19T09:31:21Z</time><name>PT630</name></trkpt>
<trkpt lat="52.964242" lon="05.974267"><ele>36.9</ele><time>2021-03-19T09:31:22Z</time><name>PT631</name></trkpt>
<trkpt lat="52.964233" lon="05.974259"><ele>37</ele><time>2021-03-19T09:31:23Z</time><name>PT632</name></trkpt>
<trkpt lat="52.964231" lon="05.974246"><ele>37</ele><time>2021-03-19T09:31:24Z</time><name>PT633</name></trkpt>
<trkpt lat="52.964226" lon="05.974233"><ele>37.1</ele><time>2021-03-19T09:31:25Z</time><name>PT634</name></trkpt>
<trkpt lat="52.964221" lon="05.974220"><ele>37.2</ele><time>2021-03-19T09:31:26Z</time><name>PT635</name></trkpt>
<trkpt lat="52.964218" lon="05.974199"><ele>37.1</ele><time>2021-03-19T09:31:27Z</time><name>PT636</name></trkpt>
<trkpt lat="52.964201" lon="05.974190"><ele>37.2</ele><time>2021-03-19T09:31:28Z</time><name>PT637</name></trkpt>
<trkpt lat="52.964187" lon="05.974187"><ele>37.2</ele><time>2021-03-19T09:31:29Z</time><name>PT638</name></trkpt>
<trkpt lat="52.964179" lon="05.974178"><ele>37.3</ele><time>2021-03-19T09:31:30Z</time><name>PT639</name></trkpt>
<trkpt lat="52.964165" lon="05.974159"><ele>37.2</ele><time>2021-03-19T09:31:31Z</time><name>PT640</name></trkpt>
<trkpt lat="52.964155" lon="05.974142"><ele>37.1</ele><time>2021-03-19T09:31:32Z</time><name>PT641</name></trkpt>
<trkpt lat="52.964146" lon="05.974124"><ele>37</ele><time>2021-03-19T09:31:33Z</time><name>PT642</name></trkpt>
<trkpt lat="52.964145" lon="05.974107"><ele>36.9</ele><time>2021-03-19T09:31:34Z</time><name>PT643</name></trkpt>
<trkpt lat="52.964138" lon="05.974090"><ele>36.9</ele><time>2021-03-19T09:31:35Z</time><name>PT644</name></trkpt>
<trkpt lat="52.964138" lon="05.974077"><ele>36.9</ele><time>2021-03-19T09:31:36Z</time><name>PT645</name></trkpt>
<trkpt lat="52.964132" lon="05.974058"><ele>36.7</ele><time>2021-03-19T09:31:37Z</time><name>PT646</name></trkpt>
<trkpt lat="52.964133" lon="05.974040"><ele>36.6</ele><time>2021-03-19T09:31:38Z</time><name>PT647</name></trkpt>
<trkpt lat="52.964131" lon="05.974025"><ele>36.7</ele><time>2021-03-19T09:31:39Z</time><name>PT648</name></trkpt>
<trkpt lat="52.964126" lon="05.974008"><ele>36.6</ele><time>2021-03-19T09:31:40Z</time><name>PT649</name></trkpt>
<trkpt lat="52.964121" lon="05.973994"><ele>36.7</ele><time>2021-03-19T09:31:41Z</time><name>PT650</name></trkpt>
<trkpt lat="52.964115" lon="05.973983"><ele>37</ele><time>2021-03-19T09:31:42Z</time><name>PT651</name></trkpt>
<trkpt lat="52.964105" lon="05.973975"><ele>37.2</ele><time>2021-03-19T09:31:43Z</time><name>PT652</name></trkpt>
<trkpt lat="52.964097" lon="05.973966"><ele>37</ele><time>2021-03-19T09:31:44Z</time><name>PT653</name></trkpt>
<trkpt lat="52.964088" lon="05.973963"><ele>36.9</ele><time>2021-03-19T09:31:45Z</time><name>PT654</name></trkpt>
<trkpt lat="52.964067" lon="05.973958"><ele>36.7</ele><time>2021-03-19T09:31:46Z</time><name>PT655</name></trkpt>
<trkpt lat="52.964046" lon="05.973947"><ele>36.7</ele><time>2021-03-19T09:31:47Z</time><name>PT656</name></trkpt>
<trkpt lat="52.964021" lon="05.973940"><ele>36.7</ele><time>2021-03-19T09:31:48Z</time><name>PT657</name></trkpt>
<trkpt lat="52.964000" lon="05.973940"><ele>36.8</ele><time>2021-03-19T09:31:49Z</time><name>PT658</name></trkpt>
<trkpt lat="52.963979" lon="05.973943"><ele>37</ele><time>2021-03-19T09:31:50Z</time><name>PT659</name></trkpt>
<trkpt lat="52.963961" lon="05.973948"><ele>37</ele><time>2021-03-19T09:31:51Z</time><name>PT660</name></trkpt>
<trkpt lat="52.963944" lon="05.973950"><ele>37</ele><time>2021-03-19T09:31:52Z</time><name>PT661</name></trkpt>
<trkpt lat="52.963930" lon="05.973947"><ele>37.2</ele><time>2021-03-19T09:31:53Z</time><name>PT662</name></trkpt>
<trkpt lat="52.963915" lon="05.973950"><ele>37.2</ele><time>2021-03-19T09:31:54Z</time><name>PT663</name></trkpt>
<trkpt lat="52.963903" lon="05.973952"><ele>37.2</ele><time>2021-03-19T09:31:55Z</time><name>PT664</name></trkpt>
<trkpt lat="52.963891" lon="05.973957"><ele>37.1</ele><time>2021-03-19T09:31:56Z</time><name>PT665</name></trkpt>
<trkpt lat="52.963879" lon="05.973963"><ele>37</ele><time>2021-03-19T09:31:57Z</time><name>PT666</name></trkpt>
<trkpt lat="52.963867" lon="05.973970"><ele>37</ele><time>2021-03-19T09:31:58Z</time><name>PT667</name></trkpt>
<trkpt lat="52.963856" lon="05.973973"><ele>36.8</ele><time>2021-03-19T09:31:59Z</time><name>PT668</name></trkpt>
<trkpt lat="52.963846" lon="05.973975"><ele>36.9</ele><time>2021-03-19T09:32:00Z</time><name>PT669</name></trkpt>
<trkpt lat="52.963835" lon="05.973980"><ele>37</ele><time>2021-03-19T09:32:01Z</time><name>PT670</name></trkpt>
<trkpt lat="52.963821" lon="05.973991"><ele>37.1</ele><time>2021-03-19T09:32:02Z</time><name>PT671</name></trkpt>
<trkpt lat="52.963809" lon="05.973997"><ele>37.2</ele><time>2021-03-19T09:32:03Z</time><name>PT672</name></trkpt>
<trkpt lat="52.963799" lon="05.973995"><ele>37.2</ele><time>2021-03-19T09:32:04Z</time><name>PT673</name></trkpt>
<trkpt lat="52.963789" lon="05.974005"><ele>37.2</ele><time>2021-03-19T09:32:05Z</time><name>PT674</name></trkpt>
<trkpt lat="52.963779" lon="05.974015"><ele>37.1</ele><time>2021-03-19T09:32:06Z</time><name>PT675</name></trkpt>
<trkpt lat="52.963769" lon="05.974027"><ele>37</ele><time>2021-03-19T09:32:07Z</time><name>PT676</name></trkpt>
<trkpt lat="52.963757" lon="05.974043"><ele>37</ele><time>2021-03-19T09:32:08Z</time><name>PT677</name></trkpt>
<trkpt lat="52.963748" lon="05.974054"><ele>37.1</ele><time>2021-03-19T09:32:09Z</time><name>PT678</name></trkpt>
<trkpt lat="52.963739" lon="05.974063"><ele>37.3</ele><time>2021-03-19T09:32:10Z</time><name>PT679</name></trkpt>
<trkpt lat="52.963729" lon="05.974072"><ele>37.3</ele><time>2021-03-19T09:32:11Z</time><name>PT680</name></trkpt>
<trkpt lat="52.963720" lon="05.974083"><ele>37.3</ele><time>2021-03-19T09:32:12Z</time><name>PT681</name></trkpt>
<trkpt lat="52.963709" lon="05.974091"><ele>37.2</ele><time>2021-03-19T09:32:13Z</time><name>PT682</name></trkpt>
<trkpt lat="52.963697" lon="05.974102"><ele>37</ele><time>2021-03-19T09:32:14Z</time><name>PT683</name></trkpt>
<trkpt lat="52.963688" lon="05.974108"><ele>37</ele><time>2021-03-19T09:32:15Z</time><name>PT684</name></trkpt>
<trkpt lat="52.963677" lon="05.974114"><ele>37</ele><time>2021-03-19T09:32:16Z</time><name>PT685</name></trkpt>
<trkpt lat="52.963667" lon="05.974121"><ele>37.1</ele><time>2021-03-19T09:32:17Z</time><name>PT686</name></trkpt>
<trkpt lat="52.963655" lon="05.974129"><ele>37.1</ele><time>2021-03-19T09:32:18Z</time><name>PT687</name></trkpt>
<trkpt lat="52.963643" lon="05.974139"><ele>37.2</ele><time>2021-03-19T09:32:19Z</time><name>PT688</name></trkpt>
<trkpt lat="52.963632" lon="05.974150"><ele>37.3</ele><time>2021-03-19T09:32:20Z</time><name>PT689</name></trkpt>
<trkpt lat="52.963620" lon="05.974164"><ele>37.2</ele><time>2021-03-19T09:32:21Z</time><name>PT690</name></trkpt>
<trkpt lat="52.963609" lon="05.974176"><ele>37.2</ele><time>2021-03-19T09:32:22Z</time><name>PT691</name></trkpt>
<trkpt lat="52.963599" lon="05.974186"><ele>37.1</ele><time>2021-03-19T09:32:23Z</time><name>PT692</name></trkpt>
<trkpt lat="52.963589" lon="05.974194"><ele>37.1</ele><time>2021-03-19T09:32:24Z</time><name>PT693</name></trkpt>
<trkpt lat="52.963579" lon="05.974202"><ele>37.1</ele><time>2021-03-19T09:32:25Z</time><name>PT694</name></trkpt>
<trkpt lat="52.963568" lon="05.974211"><ele>36.9</ele><time>2021-03-19T09:32:26Z</time><name>PT695</name></trkpt>
<trkpt lat="52.963557" lon="05.974219"><ele>36.9</ele><time>2021-03-19T09:32:27Z</time><name>PT696</name></trkpt>
<trkpt lat="52.963548" lon="05.974222"><ele>36.8</ele><time>2021-03-19T09:32:28Z</time><name>PT697</name></trkpt>
<trkpt lat="52.963539" lon="05.974231"><ele>36.8</ele><time>2021-03-19T09:32:29Z</time><name>PT698</name></trkpt>
<trkpt lat="52.963530" lon="05.974238"><ele>36.9</ele><time>2021-03-19T09:32:30Z</time><name>PT699</name></trkpt>
<trkpt lat="52.963519" lon="05.974250"><ele>36.7</ele><time>2021-03-19T09:32:31Z</time><name>PT700</name></trkpt>
<trkpt lat="52.963511" lon="05.974257"><ele>36.9</ele><time>2021-03-19T09:32:32Z</time><name>PT701</name></trkpt>
<trkpt lat="52.963502" lon="05.974267"><ele>36.7</ele><time>2021-03-19T09:32:33Z</time><name>PT702</name></trkpt>
<trkpt lat="52.963493" lon="05.974274"><ele>36.6</ele><time>2021-03-19T09:32:34Z</time><name>PT703</name></trkpt>
<trkpt lat="52.963485" lon="05.974282"><ele>36.8</ele><time>2021-03-19T09:32:35Z</time><name>PT704</name></trkpt>
<trkpt lat="52.963476" lon="05.974289"><ele>36.7</ele><time>2021-03-19T09:32:36Z</time><name>PT705</name></trkpt>
<trkpt lat="52.963467" lon="05.974292"><ele>36.9</ele><time>2021-03-19T09:32:37Z</time><name>PT706</name></trkpt>
<trkpt lat="52.963456" lon="05.974305"><ele>37</ele><time>2021-03-19T09:32:38Z</time><name>PT707</name></trkpt>
<trkpt lat="52.963445" lon="05.974313"><ele>36.9</ele><time>2021-03-19T09:32:39Z</time><name>PT708</name></trkpt>
<trkpt lat="52.963434" lon="05.974322"><ele>36.8</ele><time>2021-03-19T09:32:40Z</time><name>PT709</name></trkpt>
<trkpt lat="52.963422" lon="05.974333"><ele>36.7</ele><time>2021-03-19T09:32:41Z</time><name>PT710</name></trkpt>
<trkpt lat="52.963412" lon="05.974339"><ele>36.8</ele><time>2021-03-19T09:32:42Z</time><name>PT711</name></trkpt>
<trkpt lat="52.963402" lon="05.974345"><ele>36.9</ele><time>2021-03-19T09:32:43Z</time><name>PT712</name></trkpt>
<trkpt lat="52.963392" lon="05.974354"><ele>36.8</ele><time>2021-03-19T09:32:44Z</time><name>PT713</name></trkpt>
<trkpt lat="52.963378" lon="05.974369"><ele>36.9</ele><time>2021-03-19T09:32:45Z</time><name>PT714</name></trkpt>
<trkpt lat="52.963367" lon="05.974380"><ele>36.6</ele><time>2021-03-19T09:32:46Z</time><name>PT715</name></trkpt>
<trkpt lat="52.963355" lon="05.974396"><ele>36.7</ele><time>2021-03-19T09:32:47Z</time><name>PT716</name></trkpt>
<trkpt lat="52.963346" lon="05.974404"><ele>36.7</ele><time>2021-03-19T09:32:48Z</time><name>PT717</name></trkpt>
<trkpt lat="52.963336" lon="05.974418"><ele>36.8</ele><time>2021-03-19T09:32:49Z</time><name>PT718</name></trkpt>
<trkpt lat="52.963324" lon="05.974430"><ele>37</ele><time>2021-03-19T09:32:50Z</time><name>PT719</name></trkpt>
<trkpt lat="52.963308" lon="05.974446"><ele>37</ele><time>2021-03-19T09:32:51Z</time><name>PT720</name></trkpt>
<trkpt lat="52.963294" lon="05.974470"><ele>36.9</ele><time>2021-03-19T09:32:52Z</time><name>PT721</name></trkpt>
<trkpt lat="52.963283" lon="05.974479"><ele>36.8</ele><time>2021-03-19T09:32:53Z</time><name>PT722</name></trkpt>
<trkpt lat="52.963272" lon="05.974484"><ele>36.7</ele><time>2021-03-19T09:32:54Z</time><name>PT723</name></trkpt>
<trkpt lat="52.963260" lon="05.974494"><ele>36.7</ele><time>2021-03-19T09:32:55Z</time><name>PT724</name></trkpt>
<trkpt lat="52.963250" lon="05.974500"><ele>36.7</ele><time>2021-03-19T09:32:56Z</time><name>PT725</name></trkpt>
<trkpt lat="52.963238" lon="05.974511"><ele>36.8</ele><time>2021-03-19T09:32:57Z</time><name>PT726</name></trkpt>
<trkpt lat="52.963228" lon="05.974522"><ele>36.9</ele><time>2021-03-19T09:32:58Z</time><name>PT727</name></trkpt>
<trkpt lat="52.963217" lon="05.974526"><ele>37.1</ele><time>2021-03-19T09:32:59Z</time><name>PT728</name></trkpt>
<trkpt lat="52.963206" lon="05.974533"><ele>37.1</ele><time>2021-03-19T09:33:00Z</time><name>PT729</name></trkpt>
<trkpt lat="52.963197" lon="05.974541"><ele>37.1</ele><time>2021-03-19T09:33:01Z</time><name>PT730</name></trkpt>
<trkpt lat="52.963190" lon="05.974552"><ele>37</ele><time>2021-03-19T09:33:02Z</time><name>PT731</name></trkpt>
<trkpt lat="52.963181" lon="05.974555"><ele>37</ele><time>2021-03-19T09:33:03Z</time><name>PT732</name></trkpt>
<trkpt lat="52.963173" lon="05.974561"><ele>37.1</ele><time>2021-03-19T09:33:04Z</time><name>PT733</name></trkpt>
<trkpt lat="52.963163" lon="05.974570"><ele>36.9</ele><time>2021-03-19T09:33:05Z</time><name>PT734</name></trkpt>
<trkpt lat="52.963152" lon="05.974575"><ele>36.8</ele><time>2021-03-19T09:33:06Z</time><name>PT735</name></trkpt>
<trkpt lat="52.963140" lon="05.974584"><ele>36.7</ele><time>2021-03-19T09:33:07Z</time><name>PT736</name></trkpt>
<trkpt lat="52.963131" lon="05.974591"><ele>36.6</ele><time>2021-03-19T09:33:08Z</time><name>PT737</name></trkpt>
<trkpt lat="52.963121" lon="05.974604"><ele>36.7</ele><time>2021-03-19T09:33:09Z</time><name>PT738</name></trkpt>
<trkpt lat="52.963111" lon="05.974611"><ele>36.9</ele><time>2021-03-19T09:33:10Z</time><name>PT739</name></trkpt>
<trkpt lat="52.963101" lon="05.974627"><ele>36.9</ele><time>2021-03-19T09:33:11Z</time><name>PT740</name></trkpt>
<trkpt lat="52.963090" lon="05.974638"><ele>37.1</ele><time>2021-03-19T09:33:12Z</time><name>PT741</name></trkpt>
<trkpt lat="52.963078" lon="05.974666"><ele>37.1</ele><time>2021-03-19T09:33:13Z</time><name>PT742</name></trkpt>
<trkpt lat="52.963065" lon="05.974683"><ele>36.9</ele><time>2021-03-19T09:33:14Z</time><name>PT743</name></trkpt>
<trkpt lat="52.963055" lon="05.974690"><ele>37</ele><time>2021-03-19T09:33:15Z</time><name>PT744</name></trkpt>
<trkpt lat="52.963043" lon="05.974710"><ele>37</ele><time>2021-03-19T09:33:16Z</time><name>PT745</name></trkpt>
<trkpt lat="52.963030" lon="05.974724"><ele>36.8</ele><time>2021-03-19T09:33:17Z</time><name>PT746</name></trkpt>
<trkpt lat="52.963018" lon="05.974736"><ele>36.9</ele><time>2021-03-19T09:33:18Z</time><name>PT747</name></trkpt>
<trkpt lat="52.963008" lon="05.974754"><ele>36.8</ele><time>2021-03-19T09:33:19Z</time><name>PT748</name></trkpt>
<trkpt lat="52.962998" lon="05.974769"><ele>36.8</ele><time>2021-03-19T09:33:20Z</time><name>PT749</name></trkpt>
<trkpt lat="52.962987" lon="05.974780"><ele>36.8</ele><time>2021-03-19T09:33:21Z</time><name>PT750</name></trkpt>
<trkpt lat="52.962976" lon="05.974792"><ele>37.1</ele><time>2021-03-19T09:33:22Z</time><name>PT751</name></trkpt>
<trkpt lat="52.962964" lon="05.974803"><ele>37.2</ele><time>2021-03-19T09:33:23Z</time><name>PT752</name></trkpt>
<trkpt lat="52.962953" lon="05.974811"><ele>37.3</ele><time>2021-03-19T09:33:24Z</time><name>PT753</name></trkpt>
<trkpt lat="52.962944" lon="05.974818"><ele>37.3</ele><time>2021-03-19T09:33:25Z</time><name>PT754</name></trkpt>
<trkpt lat="52.962935" lon="05.974829"><ele>37.2</ele><time>2021-03-19T09:33:26Z</time><name>PT755</name></trkpt>
<trkpt lat="52.962918" lon="05.974838"><ele>37.2</ele><time>2021-03-19T09:33:27Z</time><name>PT756</name></trkpt>
<trkpt lat="52.962905" lon="05.974847"><ele>37.1</ele><time>2021-03-19T09:33:28Z</time><name>PT757</name></trkpt>
<trkpt lat="52.962893" lon="05.974853"><ele>37.2</ele><time>2021-03-19T09:33:29Z</time><name>PT758</name></trkpt>
<trkpt lat="52.962882" lon="05.974857"><ele>37.2</ele><time>2021-03-19T09:33:30Z</time><name>PT759</name></trkpt>
<trkpt lat="52.962870" lon="05.974868"><ele>37.2</ele><time>2021-03-19T09:33:31Z</time><name>PT760</name></trkpt>
<trkpt lat="52.962862" lon="05.974871"><ele>37.2</ele><time>2021-03-19T09:33:32Z</time><name>PT761</name></trkpt>
<trkpt lat="52.962851" lon="05.974881"><ele>37.3</ele><time>2021-03-19T09:33:33Z</time><name>PT762</name></trkpt>
<trkpt lat="52.962843" lon="05.974886"><ele>37.1</ele><time>2021-03-19T09:33:34Z</time><name>PT763</name></trkpt>
<trkpt lat="52.962833" lon="05.974892"><ele>37.1</ele><time>2021-03-19T09:33:35Z</time><name>PT764</name></trkpt>
<trkpt lat="52.962823" lon="05.974898"><ele>37</ele><time>2021-03-19T09:33:36Z</time><name>PT765</name></trkpt>
<trkpt lat="52.962817" lon="05.974906"><ele>36.9</ele><time>2021-03-19T09:33:37Z</time><name>PT766</name></trkpt>
<trkpt lat="52.962807" lon="05.974919"><ele>37</ele><time>2021-03-19T09:33:38Z</time><name>PT767</name></trkpt>
<trkpt lat="52.962798" lon="05.974930"><ele>37.1</ele><time>2021-03-19T09:33:39Z</time><name>PT768</name></trkpt>
<trkpt lat="52.962789" lon="05.974950"><ele>37.1</ele><time>2021-03-19T09:33:40Z</time><name>PT769</name></trkpt>
<trkpt lat="52.962779" lon="05.974960"><ele>37</ele><time>2021-03-19T09:33:41Z</time><name>PT770</name></trkpt>
<trkpt lat="52.962769" lon="05.974970"><ele>36.9</ele><time>2021-03-19T09:33:42Z</time><name>PT771</name></trkpt>
<trkpt lat="52.962758" lon="05.974978"><ele>36.9</ele><time>2021-03-19T09:33:43Z</time><name>PT772</name></trkpt>
<trkpt lat="52.962748" lon="05.974988"><ele>36.9</ele><time>2021-03-19T09:33:44Z</time><name>PT773</name></trkpt>
<trkpt lat="52.962738" lon="05.974997"><ele>36.8</ele><time>2021-03-19T09:33:45Z</time><name>PT774</name></trkpt>
<trkpt lat="52.962728" lon="05.975003"><ele>36.8</ele><time>2021-03-19T09:33:46Z</time><name>PT775</name></trkpt>
<trkpt lat="52.962719" lon="05.975014"><ele>36.8</ele><time>2021-03-19T09:33:47Z</time><name>PT776</name></trkpt>
<trkpt lat="52.962708" lon="05.975029"><ele>36.8</ele><time>2021-03-19T09:33:48Z</time><name>PT777</name></trkpt>
<trkpt lat="52.962697" lon="05.975051"><ele>36.8</ele><time>2021-03-19T09:33:49Z</time><name>PT778</name></trkpt>
<trkpt lat="52.962686" lon="05.975065"><ele>37</ele><time>2021-03-19T09:33:50Z</time><name>PT779</name></trkpt>
<trkpt lat="52.962677" lon="05.975078"><ele>36.9</ele><time>2021-03-19T09:33:51Z</time><name>PT780</name></trkpt>
<trkpt lat="52.962668" lon="05.975090"><ele>37</ele><time>2021-03-19T09:33:52Z</time><name>PT781</name></trkpt>
<trkpt lat="52.962658" lon="05.975104"><ele>37.1</ele><time>2021-03-19T09:33:53Z</time><name>PT782</name></trkpt>
<trkpt lat="52.962648" lon="05.975115"><ele>37</ele><time>2021-03-19T09:33:54Z</time><name>PT783</name></trkpt>
<trkpt lat="52.962639" lon="05.975129"><ele>37</ele><time>2021-03-19T09:33:55Z</time><name>PT784</name></trkpt>
<trkpt lat="52.962632" lon="05.975134"><ele>37</ele><time>2021-03-19T09:33:56Z</time><name>PT785</name></trkpt>
<trkpt lat="52.962621" lon="05.975148"><ele>36.9</ele><time>2021-03-19T09:33:57Z</time><name>PT786</name></trkpt>
<trkpt lat="52.962608" lon="05.975163"><ele>36.8</ele><time>2021-03-19T09:33:58Z</time><name>PT787</name></trkpt>
<trkpt lat="52.962595" lon="05.975175"><ele>36.8</ele><time>2021-03-19T09:33:59Z</time><name>PT788</name></trkpt>
<trkpt lat="52.962584" lon="05.975189"><ele>36.9</ele><time>2021-03-19T09:34:00Z</time><name>PT789</name></trkpt>
<trkpt lat="52.962576" lon="05.975199"><ele>36.9</ele><time>2021-03-19T09:34:01Z</time><name>PT790</name></trkpt>
<trkpt lat="52.962564" lon="05.975208"><ele>36.8</ele><time>2021-03-19T09:34:02Z</time><name>PT791</name></trkpt>
<trkpt lat="52.962554" lon="05.975213"><ele>36.7</ele><time>2021-03-19T09:34:03Z</time><name>PT792</name></trkpt>
<trkpt lat="52.962541" lon="05.975219"><ele>36.7</ele><time>2021-03-19T09:34:04Z</time><name>PT793</name></trkpt>
<trkpt lat="52.962529" lon="05.975228"><ele>36.6</ele><time>2021-03-19T09:34:05Z</time><name>PT794</name></trkpt>
<trkpt lat="52.962517" lon="05.975241"><ele>36.7</ele><time>2021-03-19T09:34:06Z</time><name>PT795</name></trkpt>
<trkpt lat="52.962508" lon="05.975251"><ele>36.8</ele><time>2021-03-19T09:34:07Z</time><name>PT796</name></trkpt>
<trkpt lat="52.962499" lon="05.975261"><ele>36.8</ele><time>2021-03-19T09:34:08Z</time><name>PT797</name></trkpt>
<trkpt lat="52.962489" lon="05.975271"><ele>36.9</ele><time>2021-03-19T09:34:09Z</time><name>PT798</name></trkpt>
<trkpt lat="52.962477" lon="05.975278"><ele>36.8</ele><time>2021-03-19T09:34:10Z</time><name>PT799</name></trkpt>
<trkpt lat="52.962468" lon="05.975284"><ele>36.7</ele><time>2021-03-19T09:34:11Z</time><name>PT800</name></trkpt>
<trkpt lat="52.962455" lon="05.975296"><ele>36.7</ele><time>2021-03-19T09:34:12Z</time><name>PT801</name></trkpt>
<trkpt lat="52.962445" lon="05.975300"><ele>36.6</ele><time>2021-03-19T09:34:13Z</time><name>PT802</name></trkpt>
<trkpt lat="52.962433" lon="05.975303"><ele>36.7</ele><time>2021-03-19T09:34:14Z</time><name>PT803</name></trkpt>
<trkpt lat="52.962426" lon="05.975309"><ele>36.8</ele><time>2021-03-19T09:34:15Z</time><name>PT804</name></trkpt>
<trkpt lat="52.962418" lon="05.975317"><ele>36.9</ele><time>2021-03-19T09:34:16Z</time><name>PT805</name></trkpt>
<trkpt lat="52.962407" lon="05.975327"><ele>37.1</ele><time>2021-03-19T09:34:17Z</time><name>PT806</name></trkpt>
<trkpt lat="52.962395" lon="05.975337"><ele>37</ele><time>2021-03-19T09:34:18Z</time><name>PT807</name></trkpt>
<trkpt lat="52.962387" lon="05.975340"><ele>37.1</ele><time>2021-03-19T09:34:19Z</time><name>PT808</name></trkpt>
<trkpt lat="52.962377" lon="05.975351"><ele>37.2</ele><time>2021-03-19T09:34:20Z</time><name>PT809</name></trkpt>
<trkpt lat="52.962369" lon="05.975358"><ele>37.2</ele><time>2021-03-19T09:34:21Z</time><name>PT810</name></trkpt>
<trkpt lat="52.962360" lon="05.975369"><ele>37.2</ele><time>2021-03-19T09:34:22Z</time><name>PT811</name></trkpt>
<trkpt lat="52.962346" lon="05.975389"><ele>37</ele><time>2021-03-19T09:34:23Z</time><name>PT812</name></trkpt>
<trkpt lat="52.962338" lon="05.975391"><ele>36.9</ele><time>2021-03-19T09:34:24Z</time><name>PT813</name></trkpt>
<trkpt lat="52.962330" lon="05.975400"><ele>36.8</ele><time>2021-03-19T09:34:25Z</time><name>PT814</name></trkpt>
<trkpt lat="52.962316" lon="05.975413"><ele>36.8</ele><time>2021-03-19T09:34:26Z</time><name>PT815</name></trkpt>
<trkpt lat="52.962304" lon="05.975425"><ele>36.9</ele><time>2021-03-19T09:34:27Z</time><name>PT816</name></trkpt>
<trkpt lat="52.962294" lon="05.975435"><ele>37</ele><time>2021-03-19T09:34:28Z</time><name>PT817</name></trkpt>
<trkpt lat="52.962284" lon="05.975444"><ele>36.9</ele><time>2021-03-19T09:34:29Z</time><name>PT818</name></trkpt>
<trkpt lat="52.962272" lon="05.975450"><ele>37</ele><time>2021-03-19T09:34:30Z</time><name>PT819</name></trkpt>
<trkpt lat="52.962260" lon="05.975459"><ele>36.9</ele><time>2021-03-19T09:34:31Z</time><name>PT820</name></trkpt>
<trkpt lat="52.962248" lon="05.975490"><ele>37.1</ele><time>2021-03-19T09:34:32Z</time><name>PT821</name></trkpt>
<trkpt lat="52.962239" lon="05.975501"><ele>37.2</ele><time>2021-03-19T09:34:33Z</time><name>PT822</name></trkpt>
<trkpt lat="52.962229" lon="05.975515"><ele>37.2</ele><time>2021-03-19T09:34:34Z</time><name>PT823</name></trkpt>
<trkpt lat="52.962217" lon="05.975529"><ele>37.2</ele><time>2021-03-19T09:34:35Z</time><name>PT824</name></trkpt>
<trkpt lat="52.962207" lon="05.975539"><ele>37.2</ele><time>2021-03-19T09:34:36Z</time><name>PT825</name></trkpt>
<trkpt lat="52.962197" lon="05.975551"><ele>37.1</ele><time>2021-03-19T09:34:37Z</time><name>PT826</name></trkpt>
<trkpt lat="52.962191" lon="05.975549"><ele>36.9</ele><time>2021-03-19T09:34:38Z</time><name>PT827</name></trkpt>
<trkpt lat="52.962180" lon="05.975553"><ele>36.8</ele><time>2021-03-19T09:34:39Z</time><name>PT828</name></trkpt>
<trkpt lat="52.962169" lon="05.975560"><ele>36.7</ele><time>2021-03-19T09:34:40Z</time><name>PT829</name></trkpt>
<trkpt lat="52.962159" lon="05.975574"><ele>36.7</ele><time>2021-03-19T09:34:41Z</time><name>PT830</name></trkpt>
<trkpt lat="52.962147" lon="05.975581"><ele>36.7</ele><time>2021-03-19T09:34:42Z</time><name>PT831</name></trkpt>
<trkpt lat="52.962138" lon="05.975590"><ele>36.9</ele><time>2021-03-19T09:34:43Z</time><name>PT832</name></trkpt>
<trkpt lat="52.962127" lon="05.975596"><ele>36.9</ele><time>2021-03-19T09:34:44Z</time><name>PT833</name></trkpt>
<trkpt lat="52.962116" lon="05.975604"><ele>36.8</ele><time>2021-03-19T09:34:45Z</time><name>PT834</name></trkpt>
<trkpt lat="52.962107" lon="05.975613"><ele>36.7</ele><time>2021-03-19T09:34:46Z</time><name>PT835</name></trkpt>
<trkpt lat="52.962099" lon="05.975627"><ele>36.7</ele><time>2021-03-19T09:34:47Z</time><name>PT836</name></trkpt>
<trkpt lat="52.962090" lon="05.975639"><ele>36.7</ele><time>2021-03-19T09:34:48Z</time><name>PT837</name></trkpt>
<trkpt lat="52.962080" lon="05.975652"><ele>36.7</ele><time>2021-03-19T09:34:49Z</time><name>PT838</name></trkpt>
<trkpt lat="52.962071" lon="05.975659"><ele>36.7</ele><time>2021-03-19T09:34:50Z</time><name>PT839</name></trkpt>
<trkpt lat="52.962061" lon="05.975668"><ele>36.8</ele><time>2021-03-19T09:34:51Z</time><name>PT840</name></trkpt>
<trkpt lat="52.962052" lon="05.975671"><ele>36.7</ele><time>2021-03-19T09:34:52Z</time><name>PT841</name></trkpt>
<trkpt lat="52.962043" lon="05.975680"><ele>36.7</ele><time>2021-03-19T09:34:53Z</time><name>PT842</name></trkpt>
<trkpt lat="52.962031" lon="05.975691"><ele>36.8</ele><time>2021-03-19T09:34:54Z</time><name>PT843</name></trkpt>
<trkpt lat="52.962022" lon="05.975701"><ele>36.8</ele><time>2021-03-19T09:34:55Z</time><name>PT844</name></trkpt>
<trkpt lat="52.962006" lon="05.975728"><ele>36.7</ele><time>2021-03-19T09:34:56Z</time><name>PT845</name></trkpt>
<trkpt lat="52.961995" lon="05.975740"><ele>36.7</ele><time>2021-03-19T09:34:57Z</time><name>PT846</name></trkpt>
<trkpt lat="52.961984" lon="05.975745"><ele>36.7</ele><time>2021-03-19T09:34:58Z</time><name>PT847</name></trkpt>
<trkpt lat="52.961971" lon="05.975755"><ele>36.5</ele><time>2021-03-19T09:34:59Z</time><name>PT848</name></trkpt>
<trkpt lat="52.961959" lon="05.975771"><ele>36.6</ele><time>2021-03-19T09:35:00Z</time><name>PT849</name></trkpt>
<trkpt lat="52.961948" lon="05.975786"><ele>36.5</ele><time>2021-03-19T09:35:01Z</time><name>PT850</name></trkpt>
<trkpt lat="52.961938" lon="05.975803"><ele>36.5</ele><time>2021-03-19T09:35:02Z</time><name>PT851</name></trkpt>
<trkpt lat="52.961927" lon="05.975814"><ele>36.7</ele><time>2021-03-19T09:35:03Z</time><name>PT852</name></trkpt>
<trkpt lat="52.961917" lon="05.975821"><ele>36.7</ele><time>2021-03-19T09:35:04Z</time><name>PT853</name></trkpt>
<trkpt lat="52.961907" lon="05.975831"><ele>37</ele><time>2021-03-19T09:35:05Z</time><name>PT854</name></trkpt>
<trkpt lat="52.961895" lon="05.975842"><ele>37</ele><time>2021-03-19T09:35:06Z</time><name>PT855</name></trkpt>
<trkpt lat="52.961885" lon="05.975850"><ele>36.9</ele><time>2021-03-19T09:35:07Z</time><name>PT856</name></trkpt>
<trkpt lat="52.961875" lon="05.975864"><ele>37.1</ele><time>2021-03-19T09:35:08Z</time><name>PT857</name></trkpt>
<trkpt lat="52.961867" lon="05.975873"><ele>37.1</ele><time>2021-03-19T09:35:09Z</time><name>PT858</name></trkpt>
<trkpt lat="52.961856" lon="05.975890"><ele>37</ele><time>2021-03-19T09:35:10Z</time><name>PT859</name></trkpt>
<trkpt lat="52.961846" lon="05.975901"><ele>37.1</ele><time>2021-03-19T09:35:11Z</time><name>PT860</name></trkpt>
<trkpt lat="52.961835" lon="05.975918"><ele>36.9</ele><time>2021-03-19T09:35:12Z</time><name>PT861</name></trkpt>
<trkpt lat="52.961825" lon="05.975929"><ele>36.7</ele><time>2021-03-19T09:35:13Z</time><name>PT862</name></trkpt>
<trkpt lat="52.961818" lon="05.975939"><ele>36.8</ele><time>2021-03-19T09:35:14Z</time><name>PT863</name></trkpt>
<trkpt lat="52.961808" lon="05.975947"><ele>36.7</ele><time>2021-03-19T09:35:15Z</time><name>PT864</name></trkpt>
<trkpt lat="52.961800" lon="05.975955"><ele>36.7</ele><time>2021-03-19T09:35:16Z</time><name>PT865</name></trkpt>
<trkpt lat="52.961790" lon="05.975957"><ele>37</ele><time>2021-03-19T09:35:17Z</time><name>PT866</name></trkpt>
<trkpt lat="52.961778" lon="05.975974"><ele>36.9</ele><time>2021-03-19T09:35:18Z</time><name>PT867</name></trkpt>
<trkpt lat="52.961769" lon="05.975983"><ele>36.7</ele><time>2021-03-19T09:35:19Z</time><name>PT868</name></trkpt>
<trkpt lat="52.961759" lon="05.975986"><ele>37</ele><time>2021-03-19T09:35:20Z</time><name>PT869</name></trkpt>
<trkpt lat="52.961749" lon="05.975994"><ele>37.1</ele><time>2021-03-19T09:35:21Z</time><name>PT870</name></trkpt>
<trkpt lat="52.961740" lon="05.976002"><ele>37.1</ele><time>2021-03-19T09:35:22Z</time><name>PT871</name></trkpt>
<trkpt lat="52.961730" lon="05.976017"><ele>37</ele><time>2021-03-19T09:35:23Z</time><name>PT872</name></trkpt>
<trkpt lat="52.961722" lon="05.976025"><ele>36.8</ele><time>2021-03-19T09:35:24Z</time><name>PT873</name></trkpt>
<trkpt lat="52.961714" lon="05.976037"><ele>36.8</ele><time>2021-03-19T09:35:25Z</time><name>PT874</name></trkpt>
<trkpt lat="52.961705" lon="05.976046"><ele>36.6</ele><time>2021-03-19T09:35:26Z</time><name>PT875</name></trkpt>
<trkpt lat="52.961696" lon="05.976059"><ele>36.6</ele><time>2021-03-19T09:35:27Z</time><name>PT876</name></trkpt>
<trkpt lat="52.961684" lon="05.976066"><ele>36.7</ele><time>2021-03-19T09:35:28Z</time><name>PT877</name></trkpt>
<trkpt lat="52.961674" lon="05.976071"><ele>36.6</ele><time>2021-03-19T09:35:29Z</time><name>PT878</name></trkpt>
<trkpt lat="52.961663" lon="05.976085"><ele>36.7</ele><time>2021-03-19T09:35:30Z</time><name>PT879</name></trkpt>
<trkpt lat="52.961654" lon="05.976100"><ele>36.5</ele><time>2021-03-19T09:35:31Z</time><name>PT880</name></trkpt>
<trkpt lat="52.961644" lon="05.976109"><ele>36.3</ele><time>2021-03-19T09:35:32Z</time><name>PT881</name></trkpt>
<trkpt lat="52.961633" lon="05.976117"><ele>36.3</ele><time>2021-03-19T09:35:33Z</time><name>PT882</name></trkpt>
<trkpt lat="52.961624" lon="05.976127"><ele>36.5</ele><time>2021-03-19T09:35:34Z</time><name>PT883</name></trkpt>
<trkpt lat="52.961612" lon="05.976135"><ele>36.6</ele><time>2021-03-19T09:35:35Z</time><name>PT884</name></trkpt>
<trkpt lat="52.961596" lon="05.976151"><ele>36.6</ele><time>2021-03-19T09:35:36Z</time><name>PT885</name></trkpt>
<trkpt lat="52.961583" lon="05.976162"><ele>36.4</ele><time>2021-03-19T09:35:37Z</time><name>PT886</name></trkpt>
<trkpt lat="52.961575" lon="05.976169"><ele>36.7</ele><time>2021-03-19T09:35:38Z</time><name>PT887</name></trkpt>
<trkpt lat="52.961565" lon="05.976180"><ele>36.6</ele><time>2021-03-19T09:35:39Z</time><name>PT888</name></trkpt>
<trkpt lat="52.961557" lon="05.976188"><ele>36.7</ele><time>2021-03-19T09:35:40Z</time><name>PT889</name></trkpt>
<trkpt lat="52.961549" lon="05.976201"><ele>36.7</ele><time>2021-03-19T09:35:41Z</time><name>PT890</name></trkpt>
<trkpt lat="52.961541" lon="05.976207"><ele>36.6</ele><time>2021-03-19T09:35:42Z</time><name>PT891</name></trkpt>
<trkpt lat="52.961531" lon="05.976219"><ele>36.3</ele><time>2021-03-19T09:35:43Z</time><name>PT892</name></trkpt>
<trkpt lat="52.961521" lon="05.976229"><ele>36.4</ele><time>2021-03-19T09:35:44Z</time><name>PT893</name></trkpt>
<trkpt lat="52.961511" lon="05.976239"><ele>36.4</ele><time>2021-03-19T09:35:45Z</time><name>PT894</name></trkpt>
<trkpt lat="52.961501" lon="05.976248"><ele>36.7</ele><time>2021-03-19T09:35:46Z</time><name>PT895</name></trkpt>
<trkpt lat="52.961489" lon="05.976259"><ele>37</ele><time>2021-03-19T09:35:47Z</time><name>PT896</name></trkpt>
<trkpt lat="52.961482" lon="05.976262"><ele>37.1</ele><time>2021-03-19T09:35:48Z</time><name>PT897</name></trkpt>
<trkpt lat="52.961473" lon="05.976266"><ele>37.2</ele><time>2021-03-19T09:35:49Z</time><name>PT898</name></trkpt>
<trkpt lat="52.961462" lon="05.976278"><ele>37.2</ele><time>2021-03-19T09:35:50Z</time><name>PT899</name></trkpt>
<trkpt lat="52.961451" lon="05.976289"><ele>37.1</ele><time>2021-03-19T09:35:51Z</time><name>PT900</name></trkpt>
<trkpt lat="52.961440" lon="05.976299"><ele>37.1</ele><time>2021-03-19T09:35:52Z</time><name>PT901</name></trkpt>
<trkpt lat="52.961430" lon="05.976318"><ele>36.8</ele><time>2021-03-19T09:35:53Z</time><name>PT902</name></trkpt>
<trkpt lat="52.961419" lon="05.976334"><ele>36.9</ele><time>2021-03-19T09:35:54Z</time><name>PT903</name></trkpt>
<trkpt lat="52.961408" lon="05.976346"><ele>37</ele><time>2021-03-19T09:35:55Z</time><name>PT904</name></trkpt>
<trkpt lat="52.961398" lon="05.976357"><ele>37.2</ele><time>2021-03-19T09:35:56Z</time><name>PT905</name></trkpt>
<trkpt lat="52.961388" lon="05.976366"><ele>37.3</ele><time>2021-03-19T09:35:57Z</time><name>PT906</name></trkpt>
<trkpt lat="52.961377" lon="05.976377"><ele>37.2</ele><time>2021-03-19T09:35:58Z</time><name>PT907</name></trkpt>
<trkpt lat="52.961365" lon="05.976392"><ele>37.1</ele><time>2021-03-19T09:35:59Z</time><name>PT908</name></trkpt>
<trkpt lat="52.961353" lon="05.976408"><ele>37.2</ele><time>2021-03-19T09:36:00Z</time><name>PT909</name></trkpt>
<trkpt lat="52.961343" lon="05.976411"><ele>37.2</ele><time>2021-03-19T09:36:01Z</time><name>PT910</name></trkpt>
<trkpt lat="52.961333" lon="05.976420"><ele>37</ele><time>2021-03-19T09:36:02Z</time><name>PT911</name></trkpt>
<trkpt lat="52.961324" lon="05.976436"><ele>37</ele><time>2021-03-19T09:36:03Z</time><name>PT912</name></trkpt>
<trkpt lat="52.961313" lon="05.976447"><ele>36.8</ele><time>2021-03-19T09:36:04Z</time><name>PT913</name></trkpt>
<trkpt lat="52.961301" lon="05.976460"><ele>36.9</ele><time>2021-03-19T09:36:05Z</time><name>PT914</name></trkpt>
<trkpt lat="52.961290" lon="05.976474"><ele>36.9</ele><time>2021-03-19T09:36:06Z</time><name>PT915</name></trkpt>
<trkpt lat="52.961280" lon="05.976480"><ele>37</ele><time>2021-03-19T09:36:07Z</time><name>PT916</name></trkpt>
<trkpt lat="52.961270" lon="05.976495"><ele>37.1</ele><time>2021-03-19T09:36:08Z</time><name>PT917</name></trkpt>
<trkpt lat="52.961260" lon="05.976513"><ele>37</ele><time>2021-03-19T09:36:09Z</time><name>PT918</name></trkpt>
<trkpt lat="52.961251" lon="05.976522"><ele>36.8</ele><time>2021-03-19T09:36:10Z</time><name>PT919</name></trkpt>
<trkpt lat="52.961243" lon="05.976521"><ele>36.8</ele><time>2021-03-19T09:36:11Z</time><name>PT920</name></trkpt>
<trkpt lat="52.961233" lon="05.976527"><ele>36.8</ele><time>2021-03-19T09:36:12Z</time><name>PT921</name></trkpt>
<trkpt lat="52.961222" lon="05.976538"><ele>36.7</ele><time>2021-03-19T09:36:13Z</time><name>PT922</name></trkpt>
<trkpt lat="52.961210" lon="05.976543"><ele>36.9</ele><time>2021-03-19T09:36:14Z</time><name>PT923</name></trkpt>
<trkpt lat="52.961197" lon="05.976558"><ele>37</ele><time>2021-03-19T09:36:15Z</time><name>PT924</name></trkpt>
<trkpt lat="52.961187" lon="05.976568"><ele>36.9</ele><time>2021-03-19T09:36:16Z</time><name>PT925</name></trkpt>
<trkpt lat="52.961175" lon="05.976583"><ele>37</ele><time>2021-03-19T09:36:17Z</time><name>PT926</name></trkpt>
<trkpt lat="52.961163" lon="05.976604"><ele>36.8</ele><time>2021-03-19T09:36:18Z</time><name>PT927</name></trkpt>
<trkpt lat="52.961151" lon="05.976614"><ele>36.7</ele><time>2021-03-19T09:36:19Z</time><name>PT928</name></trkpt>
<trkpt lat="52.961140" lon="05.976622"><ele>36.7</ele><time>2021-03-19T09:36:20Z</time><name>PT929</name></trkpt>
<trkpt lat="52.961130" lon="05.976626"><ele>36.8</ele><time>2021-03-19T09:36:21Z</time><name>PT930</name></trkpt>
<trkpt lat="52.961119" lon="05.976635"><ele>37</ele><time>2021-03-19T09:36:22Z</time><name>PT931</name></trkpt>
<trkpt lat="52.961108" lon="05.976646"><ele>37</ele><time>2021-03-19T09:36:23Z</time><name>PT932</name></trkpt>
<trkpt lat="52.961097" lon="05.976657"><ele>37.1</ele><time>2021-03-19T09:36:24Z</time><name>PT933</name></trkpt>
<trkpt lat="52.961089" lon="05.976670"><ele>37</ele><time>2021-03-19T09:36:25Z</time><name>PT934</name></trkpt>
<trkpt lat="52.961080" lon="05.976674"><ele>37</ele><time>2021-03-19T09:36:26Z</time><name>PT935</name></trkpt>
<trkpt lat="52.961070" lon="05.976678"><ele>37</ele><time>2021-03-19T09:36:27Z</time><name>PT936</name></trkpt>
<trkpt lat="52.961059" lon="05.976688"><ele>36.9</ele><time>2021-03-19T09:36:28Z</time><name>PT937</name></trkpt>
<trkpt lat="52.961048" lon="05.976707"><ele>36.8</ele><time>2021-03-19T09:36:29Z</time><name>PT938</name></trkpt>
<trkpt lat="52.961035" lon="05.976723"><ele>36.7</ele><time>2021-03-19T09:36:30Z</time><name>PT939</name></trkpt>
<trkpt lat="52.961021" lon="05.976757"><ele>36.6</ele><time>2021-03-19T09:36:31Z</time><name>PT940</name></trkpt>
<trkpt lat="52.961010" lon="05.976774"><ele>36.7</ele><time>2021-03-19T09:36:32Z</time><name>PT941</name></trkpt>
<trkpt lat="52.961003" lon="05.976780"><ele>36.8</ele><time>2021-03-19T09:36:33Z</time><name>PT942</name></trkpt>
<trkpt lat="52.960992" lon="05.976797"><ele>36.9</ele><time>2021-03-19T09:36:34Z</time><name>PT943</name></trkpt>
<trkpt lat="52.960980" lon="05.976811"><ele>37.1</ele><time>2021-03-19T09:36:35Z</time><name>PT944</name></trkpt>
<trkpt lat="52.960967" lon="05.976837"><ele>37.1</ele><time>2021-03-19T09:36:36Z</time><name>PT945</name></trkpt>
<trkpt lat="52.960953" lon="05.976858"><ele>37</ele><time>2021-03-19T09:36:37Z</time><name>PT946</name></trkpt>
<trkpt lat="52.960944" lon="05.976861"><ele>37</ele><time>2021-03-19T09:36:38Z</time><name>PT947</name></trkpt>
<trkpt lat="52.960936" lon="05.976863"><ele>37.1</ele><time>2021-03-19T09:36:39Z</time><name>PT948</name></trkpt>
<trkpt lat="52.960926" lon="05.976874"><ele>37.2</ele><time>2021-03-19T09:36:40Z</time><name>PT949</name></trkpt>
<trkpt lat="52.960920" lon="05.976878"><ele>37.1</ele><time>2021-03-19T09:36:41Z</time><name>PT950</name></trkpt>
<trkpt lat="52.960909" lon="05.976888"><ele>37.2</ele><time>2021-03-19T09:36:42Z</time><name>PT951</name></trkpt>
<trkpt lat="52.960896" lon="05.976897"><ele>37.1</ele><time>2021-03-19T09:36:43Z</time><name>PT952</name></trkpt>
<trkpt lat="52.960885" lon="05.976907"><ele>37.2</ele><time>2021-03-19T09:36:44Z</time><name>PT953</name></trkpt>
<trkpt lat="52.960875" lon="05.976915"><ele>37.2</ele><time>2021-03-19T09:36:45Z</time><name>PT954</name></trkpt>
<trkpt lat="52.960865" lon="05.976924"><ele>37.2</ele><time>2021-03-19T09:36:46Z</time><name>PT955</name></trkpt>
<trkpt lat="52.960857" lon="05.976935"><ele>37.2</ele><time>2021-03-19T09:36:47Z</time><name>PT956</name></trkpt>
<trkpt lat="52.960847" lon="05.976946"><ele>37.2</ele><time>2021-03-19T09:36:48Z</time><name>PT957</name></trkpt>
<trkpt lat="52.960837" lon="05.976956"><ele>37.2</ele><time>2021-03-19T09:36:49Z</time><name>PT958</name></trkpt>
<trkpt lat="52.960826" lon="05.976968"><ele>37.2</ele><time>2021-03-19T09:36:50Z</time><name>PT959</name></trkpt>
<trkpt lat="52.960816" lon="05.976974"><ele>37</ele><time>2021-03-19T09:36:51Z</time><name>PT960</name></trkpt>
<trkpt lat="52.960805" lon="05.976980"><ele>37.1</ele><time>2021-03-19T09:36:52Z</time><name>PT961</name></trkpt>
<trkpt lat="52.960795" lon="05.976989"><ele>36.8</ele><time>2021-03-19T09:36:53Z</time><name>PT962</name></trkpt>
<trkpt lat="52.960784" lon="05.977001"><ele>36.9</ele><time>2021-03-19T09:36:54Z</time><name>PT963</name></trkpt>
<trkpt lat="52.960773" lon="05.977018"><ele>37</ele><time>2021-03-19T09:36:55Z</time><name>PT964</name></trkpt>
<trkpt lat="52.960763" lon="05.977029"><ele>36.9</ele><time>2021-03-19T09:36:56Z</time><name>PT965</name></trkpt>
<trkpt lat="52.960754" lon="05.977039"><ele>36.9</ele><time>2021-03-19T09:36:57Z</time><name>PT966</name></trkpt>
<trkpt lat="52.960744" lon="05.977047"><ele>37</ele><time>2021-03-19T09:36:58Z</time><name>PT967</name></trkpt>
<trkpt lat="52.960733" lon="05.977064"><ele>37.1</ele><time>2021-03-19T09:36:59Z</time><name>PT968</name></trkpt>
<trkpt lat="52.960721" lon="05.977080"><ele>37</ele><time>2021-03-19T09:37:00Z</time><name>PT969</name></trkpt>
<trkpt lat="52.960711" lon="05.977084"><ele>37.2</ele><time>2021-03-19T09:37:01Z</time><name>PT970</name></trkpt>
<trkpt lat="52.960700" lon="05.977099"><ele>37.1</ele><time>2021-03-19T09:37:02Z</time><name>PT971</name></trkpt>
<trkpt lat="52.960689" lon="05.977111"><ele>37</ele><time>2021-03-19T09:37:03Z</time><name>PT972</name></trkpt>
<trkpt lat="52.960678" lon="05.977124"><ele>36.8</ele><time>2021-03-19T09:37:04Z</time><name>PT973</name></trkpt>
<trkpt lat="52.960668" lon="05.977133"><ele>36.9</ele><time>2021-03-19T09:37:05Z</time><name>PT974</name></trkpt>
<trkpt lat="52.960657" lon="05.977142"><ele>36.8</ele><time>2021-03-19T09:37:06Z</time><name>PT975</name></trkpt>
<trkpt lat="52.960646" lon="05.977146"><ele>36.8</ele><time>2021-03-19T09:37:07Z</time><name>PT976</name></trkpt>
<trkpt lat="52.960636" lon="05.977155"><ele>36.7</ele><time>2021-03-19T09:37:08Z</time><name>PT977</name></trkpt>
<trkpt lat="52.960626" lon="05.977168"><ele>36.6</ele><time>2021-03-19T09:37:09Z</time><name>PT978</name></trkpt>
<trkpt lat="52.960617" lon="05.977174"><ele>36.7</ele><time>2021-03-19T09:37:10Z</time><name>PT979</name></trkpt>
<trkpt lat="52.960607" lon="05.977186"><ele>36.8</ele><time>2021-03-19T09:37:11Z</time><name>PT980</name></trkpt>
<trkpt lat="52.960598" lon="05.977189"><ele>36.9</ele><time>2021-03-19T09:37:12Z</time><name>PT981</name></trkpt>
<trkpt lat="52.960587" lon="05.977203"><ele>37</ele><time>2021-03-19T09:37:13Z</time><name>PT982</name></trkpt>
<trkpt lat="52.960576" lon="05.977213"><ele>37</ele><time>2021-03-19T09:37:14Z</time><name>PT983</name></trkpt>
<trkpt lat="52.960565" lon="05.977222"><ele>36.9</ele><time>2021-03-19T09:37:15Z</time><name>PT984</name></trkpt>
<trkpt lat="52.960555" lon="05.977235"><ele>36.8</ele><time>2021-03-19T09:37:16Z</time><name>PT985</name></trkpt>
<trkpt lat="52.960544" lon="05.977247"><ele>37</ele><time>2021-03-19T09:37:17Z</time><name>PT986</name></trkpt>
<trkpt lat="52.960536" lon="05.977258"><ele>37</ele><time>2021-03-19T09:37:18Z</time><name>PT987</name></trkpt>
<trkpt lat="52.960526" lon="05.977266"><ele>37</ele><time>2021-03-19T09:37:19Z</time><name>PT988</name></trkpt>
<trkpt lat="52.960516" lon="05.977269"><ele>36.9</ele><time>2021-03-19T09:37:20Z</time><name>PT989</name></trkpt>
<trkpt lat="52.960505" lon="05.977276"><ele>36.7</ele><time>2021-03-19T09:37:21Z</time><name>PT990</name></trkpt>
<trkpt lat="52.960493" lon="05.977285"><ele>36.7</ele><time>2021-03-19T09:37:22Z</time><name>PT991</name></trkpt>
<trkpt lat="52.960483" lon="05.977293"><ele>36.9</ele><time>2021-03-19T09:37:23Z</time><name>PT992</name></trkpt>
<trkpt lat="52.960470" lon="05.977314"><ele>36.8</ele><time>2021-03-19T09:37:24Z</time><name>PT993</name></trkpt>
<trkpt lat="52.960459" lon="05.977324"><ele>36.9</ele><time>2021-03-19T09:37:25Z</time><name>PT994</name></trkpt>
<trkpt lat="52.960448" lon="05.977334"><ele>36.8</ele><time>2021-03-19T09:37:26Z</time><name>PT995</name></trkpt>
<trkpt lat="52.960439" lon="05.977349"><ele>36.7</ele><time>2021-03-19T09:37:27Z</time><name>PT996</name></trkpt>
<trkpt lat="52.960429" lon="05.977360"><ele>36.7</ele><time>2021-03-19T09:37:28Z</time><name>PT997</name></trkpt>
<trkpt lat="52.960420" lon="05.977374"><ele>36.7</ele><time>2021-03-19T09:37:29Z</time><name>PT998</name></trkpt>
<trkpt lat="52.960409" lon="05.977390"><ele>36.7</ele><time>2021-03-19T09:37:30Z</time><name>PT999</name></trkpt>
<trkpt lat="52.960397" lon="05.977403"><ele>36.9</ele><time>2021-03-19T09:37:31Z</time><name>PT1000</name></trkpt>
<trkpt lat="52.960386" lon="05.977414"><ele>37</ele><time>2021-03-19T09:37:32Z</time><name>PT1001</name></trkpt>
<trkpt lat="52.960376" lon="05.977427"><ele>37</ele><time>2021-03-19T09:37:33Z</time><name>PT1002</name></trkpt>
<trkpt lat="52.960366" lon="05.977435"><ele>37.1</ele><time>2021-03-19T09:37:34Z</time><name>PT1003</name></trkpt>
<trkpt lat="52.960355" lon="05.977448"><ele>37.1</ele><time>2021-03-19T09:37:35Z</time><name>PT1004</name></trkpt>
<trkpt lat="52.960346" lon="05.977464"><ele>36.9</ele><time>2021-03-19T09:37:36Z</time><name>PT1005</name></trkpt>
<trkpt lat="52.960337" lon="05.977478"><ele>37</ele><time>2021-03-19T09:37:37Z</time><name>PT1006</name></trkpt>
<trkpt lat="52.960326" lon="05.977496"><ele>36.8</ele><time>2021-03-19T09:37:38Z</time><name>PT1007</name></trkpt>
<trkpt lat="52.960315" lon="05.977515"><ele>36.8</ele><time>2021-03-19T09:37:39Z</time><name>PT1008</name></trkpt>
<trkpt lat="52.960305" lon="05.977522"><ele>36.9</ele><time>2021-03-19T09:37:40Z</time><name>PT1009</name></trkpt>
<trkpt lat="52.960296" lon="05.977528"><ele>36.7</ele><time>2021-03-19T09:37:41Z</time><name>PT1010</name></trkpt>
<trkpt lat="52.960285" lon="05.977534"><ele>36.7</ele><time>2021-03-19T09:37:42Z</time><name>PT1011</name></trkpt>
<trkpt lat="52.960275" lon="05.977548"><ele>36.8</ele><time>2021-03-19T09:37:43Z</time><name>PT1012</name></trkpt>
<trkpt lat="52.960263" lon="05.977559"><ele>36.9</ele><time>2021-03-19T09:37:44Z</time><name>PT1013</name></trkpt>
<trkpt lat="52.960250" lon="05.977583"><ele>36.9</ele><time>2021-03-19T09:37:45Z</time><name>PT1014</name></trkpt>
<trkpt lat="52.960238" lon="05.977596"><ele>37.1</ele><time>2021-03-19T09:37:46Z</time><name>PT1015</name></trkpt>
<trkpt lat="52.960229" lon="05.977601"><ele>37.1</ele><time>2021-03-19T09:37:47Z</time><name>PT1016</name></trkpt>
<trkpt lat="52.960218" lon="05.977612"><ele>36.9</ele><time>2021-03-19T09:37:48Z</time><name>PT1017</name></trkpt>
<trkpt lat="52.960210" lon="05.977621"><ele>36.8</ele><time>2021-03-19T09:37:49Z</time><name>PT1018</name></trkpt>
<trkpt lat="52.960202" lon="05.977628"><ele>36.9</ele><time>2021-03-19T09:37:50Z</time><name>PT1019</name></trkpt>
<trkpt lat="52.960196" lon="05.977634"><ele>36.8</ele><time>2021-03-19T09:37:51Z</time><name>PT1020</name></trkpt>
<trkpt lat="52.960187" lon="05.977646"><ele>37</ele><time>2021-03-19T09:37:52Z</time><name>PT1021</name></trkpt>
<trkpt lat="52.960173" lon="05.977665"><ele>36.9</ele><time>2021-03-19T09:37:53Z</time><name>PT1022</name></trkpt>
<trkpt lat="52.960163" lon="05.977677"><ele>36.9</ele><time>2021-03-19T09:37:54Z</time><name>PT1023</name></trkpt>
<trkpt lat="52.960154" lon="05.977682"><ele>36.8</ele><time>2021-03-19T09:37:55Z</time><name>PT1024</name></trkpt>
<trkpt lat="52.960145" lon="05.977690"><ele>36.8</ele><time>2021-03-19T09:37:56Z</time><name>PT1025</name></trkpt>
<trkpt lat="52.960135" lon="05.977700"><ele>36.8</ele><time>2021-03-19T09:37:57Z</time><name>PT1026</name></trkpt>
<trkpt lat="52.960126" lon="05.977715"><ele>37</ele><time>2021-03-19T09:37:58Z</time><name>PT1027</name></trkpt>
<trkpt lat="52.960118" lon="05.977727"><ele>37</ele><time>2021-03-19T09:37:59Z</time><name>PT1028</name></trkpt>
<trkpt lat="52.960108" lon="05.977737"><ele>37</ele><time>2021-03-19T09:38:00Z</time><name>PT1029</name></trkpt>
<trkpt lat="52.960098" lon="05.977748"><ele>36.9</ele><time>2021-03-19T09:38:01Z</time><name>PT1030</name></trkpt>
<trkpt lat="52.960087" lon="05.977759"><ele>36.9</ele><time>2021-03-19T09:38:02Z</time><name>PT1031</name></trkpt>
<trkpt lat="52.960079" lon="05.977763"><ele>36.7</ele><time>2021-03-19T09:38:03Z</time><name>PT1032</name></trkpt>
<trkpt lat="52.960069" lon="05.977783"><ele>36.7</ele><time>2021-03-19T09:38:04Z</time><name>PT1033</name></trkpt>
<trkpt lat="52.960059" lon="05.977791"><ele>36.8</ele><time>2021-03-19T09:38:05Z</time><name>PT1034</name></trkpt>
<trkpt lat="52.960049" lon="05.977800"><ele>36.7</ele><time>2021-03-19T09:38:06Z</time><name>PT1035</name></trkpt>
<trkpt lat="52.960039" lon="05.977809"><ele>36.8</ele><time>2021-03-19T09:38:07Z</time><name>PT1036</name></trkpt>
<trkpt lat="52.960030" lon="05.977816"><ele>36.7</ele><time>2021-03-19T09:38:08Z</time><name>PT1037</name></trkpt>
<trkpt lat="52.960022" lon="05.977825"><ele>36.7</ele><time>2021-03-19T09:38:09Z</time><name>PT1038</name></trkpt>
<trkpt lat="52.960012" lon="05.977834"><ele>36.5</ele><time>2021-03-19T09:38:10Z</time><name>PT1039</name></trkpt>
<trkpt lat="52.960004" lon="05.977841"><ele>36.6</ele><time>2021-03-19T09:38:11Z</time><name>PT1040</name></trkpt>
<trkpt lat="52.959994" lon="05.977857"><ele>36.6</ele><time>2021-03-19T09:38:12Z</time><name>PT1041</name></trkpt>
<trkpt lat="52.959983" lon="05.977880"><ele>36.7</ele><time>2021-03-19T09:38:13Z</time><name>PT1042</name></trkpt>
<trkpt lat="52.959972" lon="05.977893"><ele>36.8</ele><time>2021-03-19T09:38:14Z</time><name>PT1043</name></trkpt>
<trkpt lat="52.959960" lon="05.977918"><ele>36.7</ele><time>2021-03-19T09:38:15Z</time><name>PT1044</name></trkpt>
<trkpt lat="52.959950" lon="05.977936"><ele>36.7</ele><time>2021-03-19T09:38:16Z</time><name>PT1045</name></trkpt>
<trkpt lat="52.959939" lon="05.977947"><ele>36.5</ele><time>2021-03-19T09:38:17Z</time><name>PT1046</name></trkpt>
<trkpt lat="52.959928" lon="05.977964"><ele>36.4</ele><time>2021-03-19T09:38:18Z</time><name>PT1047</name></trkpt>
<trkpt lat="52.959919" lon="05.977973"><ele>36.6</ele><time>2021-03-19T09:38:19Z</time><name>PT1048</name></trkpt>
<trkpt lat="52.959910" lon="05.977983"><ele>36.8</ele><time>2021-03-19T09:38:20Z</time><name>PT1049</name></trkpt>
<trkpt lat="52.959901" lon="05.977990"><ele>36.9</ele><time>2021-03-19T09:38:21Z</time><name>PT1050</name></trkpt>
<trkpt lat="52.959893" lon="05.978002"><ele>37.2</ele><time>2021-03-19T09:38:22Z</time><name>PT1051</name></trkpt>
<trkpt lat="52.959884" lon="05.978008"><ele>37</ele><time>2021-03-19T09:38:23Z</time><name>PT1052</name></trkpt>
<trkpt lat="52.959875" lon="05.978013"><ele>37</ele><time>2021-03-19T09:38:24Z</time><name>PT1053</name></trkpt>
<trkpt lat="52.959864" lon="05.978023"><ele>36.8</ele><time>2021-03-19T09:38:25Z</time><name>PT1054</name></trkpt>
<trkpt lat="52.959850" lon="05.978037"><ele>36.7</ele><time>2021-03-19T09:38:26Z</time><name>PT1055</name></trkpt>
<trkpt lat="52.959837" lon="05.978046"><ele>36.8</ele><time>2021-03-19T09:38:27Z</time><name>PT1056</name></trkpt>
<trkpt lat="52.959827" lon="05.978056"><ele>36.9</ele><time>2021-03-19T09:38:28Z</time><name>PT1057</name></trkpt>
<trkpt lat="52.959816" lon="05.978065"><ele>36.8</ele><time>2021-03-19T09:38:29Z</time><name>PT1058</name></trkpt>
<trkpt lat="52.959807" lon="05.978079"><ele>36.8</ele><time>2021-03-19T09:38:30Z</time><name>PT1059</name></trkpt>
<trkpt lat="52.959798" lon="05.978094"><ele>36.7</ele><time>2021-03-19T09:38:31Z</time><name>PT1060</name></trkpt>
<trkpt lat="52.959788" lon="05.978109"><ele>36.7</ele><time>2021-03-19T09:38:32Z</time><name>PT1061</name></trkpt>
<trkpt lat="52.959775" lon="05.978119"><ele>36.7</ele><time>2021-03-19T09:38:33Z</time><name>PT1062</name></trkpt>
<trkpt lat="52.959766" lon="05.978131"><ele>36.7</ele><time>2021-03-19T09:38:34Z</time><name>PT1063</name></trkpt>
<trkpt lat="52.959757" lon="05.978145"><ele>36.7</ele><time>2021-03-19T09:38:35Z</time><name>PT1064</name></trkpt>
<trkpt lat="52.959746" lon="05.978154"><ele>36.7</ele><time>2021-03-19T09:38:36Z</time><name>PT1065</name></trkpt>
<trkpt lat="52.959734" lon="05.978173"><ele>36.6</ele><time>2021-03-19T09:38:37Z</time><name>PT1066</name></trkpt>
<trkpt lat="52.959723" lon="05.978182"><ele>36.7</ele><time>2021-03-19T09:38:38Z</time><name>PT1067</name></trkpt>
<trkpt lat="52.959712" lon="05.978191"><ele>36.7</ele><time>2021-03-19T09:38:39Z</time><name>PT1068</name></trkpt>
<trkpt lat="52.959701" lon="05.978198"><ele>36.6</ele><time>2021-03-19T09:38:40Z</time><name>PT1069</name></trkpt>
<trkpt lat="52.959690" lon="05.978208"><ele>36.6</ele><time>2021-03-19T09:38:41Z</time><name>PT1070</name></trkpt>
<trkpt lat="52.959678" lon="05.978224"><ele>36.7</ele><time>2021-03-19T09:38:42Z</time><name>PT1071</name></trkpt>
<trkpt lat="52.959668" lon="05.978229"><ele>36.7</ele><time>2021-03-19T09:38:43Z</time><name>PT1072</name></trkpt>
<trkpt lat="52.959657" lon="05.978246"><ele>36.7</ele><time>2021-03-19T09:38:44Z</time><name>PT1073</name></trkpt>
<trkpt lat="52.959644" lon="05.978257"><ele>36.8</ele><time>2021-03-19T09:38:45Z</time><name>PT1074</name></trkpt>
<trkpt lat="52.959635" lon="05.978265"><ele>36.7</ele><time>2021-03-19T09:38:46Z</time><name>PT1075</name></trkpt>
<trkpt lat="52.959631" lon="05.978271"><ele>36.7</ele><time>2021-03-19T09:38:47Z</time><name>PT1076</name></trkpt>
<trkpt lat="52.959632" lon="05.978270"><ele>36.7</ele><time>2021-03-19T09:38:48Z</time><name>PT1077</name></trkpt>
<trkpt lat="52.959633" lon="05.978270"><ele>36.7</ele><time>2021-03-19T09:38:49Z</time><name>PT1078</name></trkpt>
<trkpt lat="52.959622" lon="05.978271"><ele>36.6</ele><time>2021-03-19T09:38:53Z</time><name>PT1079</name></trkpt>
<trkpt lat="52.959613" lon="05.978276"><ele>36.7</ele><time>2021-03-19T09:38:54Z</time><name>PT1080</name></trkpt>
<trkpt lat="52.959606" lon="05.978289"><ele>36.7</ele><time>2021-03-19T09:38:55Z</time><name>PT1081</name></trkpt>
<trkpt lat="52.959597" lon="05.978299"><ele>36.5</ele><time>2021-03-19T09:38:56Z</time><name>PT1082</name></trkpt>
<trkpt lat="52.959588" lon="05.978304"><ele>36.4</ele><time>2021-03-19T09:38:57Z</time><name>PT1083</name></trkpt>
<trkpt lat="52.959581" lon="05.978309"><ele>36.3</ele><time>2021-03-19T09:38:58Z</time><name>PT1084</name></trkpt>
<trkpt lat="52.959570" lon="05.978313"><ele>36.3</ele><time>2021-03-19T09:38:59Z</time><name>PT1085</name></trkpt>
<trkpt lat="52.959558" lon="05.978321"><ele>36.3</ele><time>2021-03-19T09:39:00Z</time><name>PT1086</name></trkpt>
<trkpt lat="52.959545" lon="05.978324"><ele>36.3</ele><time>2021-03-19T09:39:01Z</time><name>PT1087</name></trkpt>
<trkpt lat="52.959532" lon="05.978333"><ele>36.4</ele><time>2021-03-19T09:39:02Z</time><name>PT1088</name></trkpt>
<trkpt lat="52.959523" lon="05.978344"><ele>36.6</ele><time>2021-03-19T09:39:03Z</time><name>PT1089</name></trkpt>
<trkpt lat="52.959515" lon="05.978358"><ele>36.7</ele><time>2021-03-19T09:39:04Z</time><name>PT1090</name></trkpt>
<trkpt lat="52.959505" lon="05.978379"><ele>36.6</ele><time>2021-03-19T09:39:05Z</time><name>PT1091</name></trkpt>
<trkpt lat="52.959495" lon="05.978392"><ele>36.5</ele><time>2021-03-19T09:39:06Z</time><name>PT1092</name></trkpt>
<trkpt lat="52.959484" lon="05.978403"><ele>36.3</ele><time>2021-03-19T09:39:07Z</time><name>PT1093</name></trkpt>
<trkpt lat="52.959475" lon="05.978420"><ele>36.1</ele><time>2021-03-19T09:39:08Z</time><name>PT1094</name></trkpt>
<trkpt lat="52.959464" lon="05.978433"><ele>36.3</ele><time>2021-03-19T09:39:09Z</time><name>PT1095</name></trkpt>
<trkpt lat="52.959456" lon="05.978443"><ele>36.4</ele><time>2021-03-19T09:39:10Z</time><name>PT1096</name></trkpt>
<trkpt lat="52.959447" lon="05.978450"><ele>36.6</ele><time>2021-03-19T09:39:11Z</time><name>PT1097</name></trkpt>
<trkpt lat="52.959437" lon="05.978458"><ele>36.7</ele><time>2021-03-19T09:39:12Z</time><name>PT1098</name></trkpt>
<trkpt lat="52.959427" lon="05.978465"><ele>36.6</ele><time>2021-03-19T09:39:13Z</time><name>PT1099</name></trkpt>
<trkpt lat="52.959417" lon="05.978472"><ele>36.7</ele><time>2021-03-19T09:39:14Z</time><name>PT1100</name></trkpt>
<trkpt lat="52.959407" lon="05.978476"><ele>36.6</ele><time>2021-03-19T09:39:15Z</time><name>PT1101</name></trkpt>
<trkpt lat="52.959397" lon="05.978488"><ele>36.6</ele><time>2021-03-19T09:39:16Z</time><name>PT1102</name></trkpt>
<trkpt lat="52.959387" lon="05.978501"><ele>36.6</ele><time>2021-03-19T09:39:17Z</time><name>PT1103</name></trkpt>
<trkpt lat="52.959376" lon="05.978515"><ele>36.6</ele><time>2021-03-19T09:39:18Z</time><name>PT1104</name></trkpt>
<trkpt lat="52.959367" lon="05.978524"><ele>36.5</ele><time>2021-03-19T09:39:19Z</time><name>PT1105</name></trkpt>
<trkpt lat="52.959358" lon="05.978538"><ele>36.5</ele><time>2021-03-19T09:39:20Z</time><name>PT1106</name></trkpt>
<trkpt lat="52.959349" lon="05.978549"><ele>36.4</ele><time>2021-03-19T09:39:21Z</time><name>PT1107</name></trkpt>
<trkpt lat="52.959340" lon="05.978559"><ele>36.7</ele><time>2021-03-19T09:39:22Z</time><name>PT1108</name></trkpt>
<trkpt lat="52.959332" lon="05.978568"><ele>36.7</ele><time>2021-03-19T09:39:23Z</time><name>PT1109</name></trkpt>
<trkpt lat="52.959323" lon="05.978574"><ele>36.7</ele><time>2021-03-19T09:39:24Z</time><name>PT1110</name></trkpt>
<trkpt lat="52.959313" lon="05.978584"><ele>36.8</ele><time>2021-03-19T09:39:25Z</time><name>PT1111</name></trkpt>
<trkpt lat="52.959302" lon="05.978599"><ele>36.7</ele><time>2021-03-19T09:39:26Z</time><name>PT1112</name></trkpt>
<trkpt lat="52.959291" lon="05.978608"><ele>36.7</ele><time>2021-03-19T09:39:27Z</time><name>PT1113</name></trkpt>
<trkpt lat="52.959279" lon="05.978625"><ele>36.7</ele><time>2021-03-19T09:39:28Z</time><name>PT1114</name></trkpt>
<trkpt lat="52.959267" lon="05.978640"><ele>36.6</ele><time>2021-03-19T09:39:29Z</time><name>PT1115</name></trkpt>
<trkpt lat="52.959258" lon="05.978652"><ele>36.6</ele><time>2021-03-19T09:39:30Z</time><name>PT1116</name></trkpt>
<trkpt lat="52.959248" lon="05.978662"><ele>36.6</ele><time>2021-03-19T09:39:31Z</time><name>PT1117</name></trkpt>
<trkpt lat="52.959239" lon="05.978676"><ele>36.7</ele><time>2021-03-19T09:39:32Z</time><name>PT1118</name></trkpt>
<trkpt lat="52.959233" lon="05.978685"><ele>36.7</ele><time>2021-03-19T09:39:33Z</time><name>PT1119</name></trkpt>
<trkpt lat="52.959223" lon="05.978694"><ele>36.7</ele><time>2021-03-19T09:39:34Z</time><name>PT1120</name></trkpt>
<trkpt lat="52.959215" lon="05.978704"><ele>36.7</ele><time>2021-03-19T09:39:35Z</time><name>PT1121</name></trkpt>
<trkpt lat="52.959206" lon="05.978714"><ele>36.6</ele><time>2021-03-19T09:39:36Z</time><name>PT1122</name></trkpt>
<trkpt lat="52.959195" lon="05.978727"><ele>36.7</ele><time>2021-03-19T09:39:37Z</time><name>PT1123</name></trkpt>
<trkpt lat="52.959185" lon="05.978734"><ele>36.7</ele><time>2021-03-19T09:39:38Z</time><name>PT1124</name></trkpt>
<trkpt lat="52.959176" lon="05.978742"><ele>36.7</ele><time>2021-03-19T09:39:39Z</time><name>PT1125</name></trkpt>
<trkpt lat="52.959166" lon="05.978755"><ele>36.7</ele><time>2021-03-19T09:39:40Z</time><name>PT1126</name></trkpt>
<trkpt lat="52.959157" lon="05.978778"><ele>36.7</ele><time>2021-03-19T09:39:41Z</time><name>PT1127</name></trkpt>
<trkpt lat="52.959153" lon="05.978790"><ele>36.8</ele><time>2021-03-19T09:39:42Z</time><name>PT1128</name></trkpt>
<trkpt lat="52.959149" lon="05.978801"><ele>36.8</ele><time>2021-03-19T09:39:43Z</time><name>PT1129</name></trkpt>
<trkpt lat="52.959140" lon="05.978823"><ele>36.6</ele><time>2021-03-19T09:39:44Z</time><name>PT1130</name></trkpt>
<trkpt lat="52.959132" lon="05.978832"><ele>36.6</ele><time>2021-03-19T09:39:45Z</time><name>PT1131</name></trkpt>
<trkpt lat="52.959123" lon="05.978841"><ele>36.7</ele><time>2021-03-19T09:39:46Z</time><name>PT1132</name></trkpt>
<trkpt lat="52.959114" lon="05.978851"><ele>36.7</ele><time>2021-03-19T09:39:47Z</time><name>PT1133</name></trkpt>
<trkpt lat="52.959106" lon="05.978856"><ele>36.8</ele><time>2021-03-19T09:39:48Z</time><name>PT1134</name></trkpt>
<trkpt lat="52.959096" lon="05.978862"><ele>36.7</ele><time>2021-03-19T09:39:49Z</time><name>PT1135</name></trkpt>
<trkpt lat="52.959087" lon="05.978865"><ele>36.6</ele><time>2021-03-19T09:39:50Z</time><name>PT1136</name></trkpt>
<trkpt lat="52.959082" lon="05.978862"><ele>36.5</ele><time>2021-03-19T09:39:51Z</time><name>PT1137</name></trkpt>
<trkpt lat="52.959072" lon="05.978873"><ele>36.6</ele><time>2021-03-19T09:39:52Z</time><name>PT1138</name></trkpt>
<trkpt lat="52.959063" lon="05.978883"><ele>36.7</ele><time>2021-03-19T09:39:53Z</time><name>PT1139</name></trkpt>
<trkpt lat="52.959055" lon="05.978897"><ele>36.8</ele><time>2021-03-19T09:39:54Z</time><name>PT1140</name></trkpt>
<trkpt lat="52.959052" lon="05.978906"><ele>37</ele><time>2021-03-19T09:39:55Z</time><name>PT1141</name></trkpt>
<trkpt lat="52.959045" lon="05.978920"><ele>36.9</ele><time>2021-03-19T09:39:56Z</time><name>PT1142</name></trkpt>
<trkpt lat="52.959039" lon="05.978921"><ele>36.8</ele><time>2021-03-19T09:39:57Z</time><name>PT1143</name></trkpt>
<trkpt lat="52.959032" lon="05.978934"><ele>36.7</ele><time>2021-03-19T09:39:58Z</time><name>PT1144</name></trkpt>
<trkpt lat="52.959023" lon="05.978945"><ele>36.7</ele><time>2021-03-19T09:39:59Z</time><name>PT1145</name></trkpt>
<trkpt lat="52.959012" lon="05.978954"><ele>36.8</ele><time>2021-03-19T09:40:00Z</time><name>PT1146</name></trkpt>
<trkpt lat="52.959006" lon="05.978956"><ele>36.9</ele><time>2021-03-19T09:40:01Z</time><name>PT1147</name></trkpt>
<trkpt lat="52.958996" lon="05.978962"><ele>36.9</ele><time>2021-03-19T09:40:02Z</time><name>PT1148</name></trkpt>
<trkpt lat="52.958989" lon="05.978963"><ele>37.1</ele><time>2021-03-19T09:40:03Z</time><name>PT1149</name></trkpt>
<trkpt lat="52.958983" lon="05.978972"><ele>36.8</ele><time>2021-03-19T09:40:04Z</time><name>PT1150</name></trkpt>
<trkpt lat="52.958973" lon="05.978983"><ele>36.8</ele><time>2021-03-19T09:40:05Z</time><name>PT1151</name></trkpt>
<trkpt lat="52.958965" lon="05.978990"><ele>36.8</ele><time>2021-03-19T09:40:06Z</time><name>PT1152</name></trkpt>
<trkpt lat="52.958954" lon="05.979012"><ele>36.8</ele><time>2021-03-19T09:40:07Z</time><name>PT1153</name></trkpt>
<trkpt lat="52.958946" lon="05.979022"><ele>36.9</ele><time>2021-03-19T09:40:08Z</time><name>PT1154</name></trkpt>
<trkpt lat="52.958935" lon="05.979024"><ele>37.1</ele><time>2021-03-19T09:40:09Z</time><name>PT1155</name></trkpt>
<trkpt lat="52.958926" lon="05.979031"><ele>37.3</ele><time>2021-03-19T09:40:10Z</time><name>PT1156</name></trkpt>
<trkpt lat="52.958914" lon="05.979038"><ele>37.3</ele><time>2021-03-19T09:40:11Z</time><name>PT1157</name></trkpt>
<trkpt lat="52.958901" lon="05.979043"><ele>37.4</ele><time>2021-03-19T09:40:12Z</time><name>PT1158</name></trkpt>
<trkpt lat="52.958890" lon="05.979048"><ele>37.2</ele><time>2021-03-19T09:40:13Z</time><name>PT1159</name></trkpt>
<trkpt lat="52.958878" lon="05.979052"><ele>37.2</ele><time>2021-03-19T09:40:14Z</time><name>PT1160</name></trkpt>
<trkpt lat="52.958868" lon="05.979060"><ele>37</ele><time>2021-03-19T09:40:15Z</time><name>PT1161</name></trkpt>
<trkpt lat="52.958856" lon="05.979064"><ele>37</ele><time>2021-03-19T09:40:16Z</time><name>PT1162</name></trkpt>
<trkpt lat="52.958844" lon="05.979060"><ele>37.2</ele><time>2021-03-19T09:40:17Z</time><name>PT1163</name></trkpt>
<trkpt lat="52.958832" lon="05.979055"><ele>37.2</ele><time>2021-03-19T09:40:18Z</time><name>PT1164</name></trkpt>
<trkpt lat="52.958823" lon="05.979051"><ele>37.2</ele><time>2021-03-19T09:40:19Z</time><name>PT1165</name></trkpt>
<trkpt lat="52.958813" lon="05.979062"><ele>37.2</ele><time>2021-03-19T09:40:20Z</time><name>PT1166</name></trkpt>
<trkpt lat="52.958807" lon="05.979064"><ele>37.3</ele><time>2021-03-19T09:40:21Z</time><name>PT1167</name></trkpt>
<trkpt lat="52.958804" lon="05.979068"><ele>37.4</ele><time>2021-03-19T09:40:22Z</time><name>PT1168</name></trkpt>
<trkpt lat="52.958802" lon="05.979072"><ele>37.4</ele><time>2021-03-19T09:40:23Z</time><name>PT1169</name></trkpt>
<trkpt lat="52.958801" lon="05.979076"><ele>37.5</ele><time>2021-03-19T09:40:24Z</time><name>PT1170</name></trkpt>
<trkpt lat="52.958800" lon="05.979071"><ele>37</ele><time>2021-03-19T09:40:40Z</time><name>PT1171</name></trkpt>
<trkpt lat="52.958798" lon="05.979071"><ele>36.8</ele><time>2021-03-19T09:40:41Z</time><name>PT1172</name></trkpt>
<trkpt lat="52.958799" lon="05.979070"><ele>36.8</ele><time>2021-03-19T09:40:42Z</time><name>PT1173</name></trkpt>
<trkpt lat="52.958800" lon="05.979072"><ele>37.2</ele><time>2021-03-19T09:40:43Z</time><name>PT1174</name></trkpt>
<trkpt lat="52.958787" lon="05.979096"><ele>37.7</ele><time>2021-03-19T09:40:44Z</time><name>PT1175</name></trkpt>
<trkpt lat="52.958787" lon="05.979083"><ele>37.7</ele><time>2021-03-19T09:40:45Z</time><name>PT1176</name></trkpt>
<trkpt lat="52.958784" lon="05.979066"><ele>37.8</ele><time>2021-03-19T09:40:46Z</time><name>PT1177</name></trkpt>
<trkpt lat="52.958782" lon="05.979069"><ele>37.7</ele><time>2021-03-19T09:40:47Z</time><name>PT1178</name></trkpt>
<trkpt lat="52.958778" lon="05.979076"><ele>37.5</ele><time>2021-03-19T09:40:48Z</time><name>PT1179</name></trkpt>
<trkpt lat="52.958770" lon="05.979066"><ele>37.5</ele><time>2021-03-19T09:40:49Z</time><name>PT1180</name></trkpt>
<trkpt lat="52.958763" lon="05.979058"><ele>37.5</ele><time>2021-03-19T09:40:50Z</time><name>PT1181</name></trkpt>
<trkpt lat="52.958760" lon="05.979054"><ele>37.3</ele><time>2021-03-19T09:40:51Z</time><name>PT1182</name></trkpt>
<trkpt lat="52.958756" lon="05.979049"><ele>37.4</ele><time>2021-03-19T09:40:52Z</time><name>PT1183</name></trkpt>
<trkpt lat="52.958753" lon="05.979041"><ele>37.4</ele><time>2021-03-19T09:40:53Z</time><name>PT1184</name></trkpt>
<trkpt lat="52.958750" lon="05.979038"><ele>37.4</ele><time>2021-03-19T09:40:54Z</time><name>PT1185</name></trkpt>
<trkpt lat="52.958749" lon="05.979034"><ele>37.4</ele><time>2021-03-19T09:40:55Z</time><name>PT1186</name></trkpt>
<trkpt lat="52.958748" lon="05.979031"><ele>37.6</ele><time>2021-03-19T09:40:56Z</time><name>PT1187</name></trkpt>
<trkpt lat="52.958748" lon="05.979028"><ele>37.6</ele><time>2021-03-19T09:40:57Z</time><name>PT1188</name></trkpt>
<trkpt lat="52.958749" lon="05.979026"><ele>37.4</ele><time>2021-03-19T09:40:58Z</time><name>PT1189</name></trkpt>
<trkpt lat="52.958745" lon="05.979026"><ele>38</ele><time>2021-03-19T09:41:10Z</time><name>PT1190</name></trkpt>
<trkpt lat="52.958741" lon="05.979017"><ele>37.8</ele><time>2021-03-19T09:41:11Z</time><name>PT1191</name></trkpt>
<trkpt lat="52.958734" lon="05.979008"><ele>37.8</ele><time>2021-03-19T09:41:12Z</time><name>PT1192</name></trkpt>
<trkpt lat="52.958729" lon="05.978995"><ele>37.7</ele><time>2021-03-19T09:41:13Z</time><name>PT1193</name></trkpt>
<trkpt lat="52.958724" lon="05.978991"><ele>37.5</ele><time>2021-03-19T09:41:14Z</time><name>PT1194</name></trkpt>
<trkpt lat="52.958720" lon="05.978981"><ele>37.7</ele><time>2021-03-19T09:41:15Z</time><name>PT1195</name></trkpt>
<trkpt lat="52.958718" lon="05.978969"><ele>37.5</ele><time>2021-03-19T09:41:16Z</time><name>PT1196</name></trkpt>
<trkpt lat="52.958714" lon="05.978957"><ele>37.2</ele><time>2021-03-19T09:41:17Z</time><name>PT1197</name></trkpt>
<trkpt lat="52.958710" lon="05.978942"><ele>37.2</ele><time>2021-03-19T09:41:18Z</time><name>PT1198</name></trkpt>
<trkpt lat="52.958703" lon="05.978930"><ele>37.3</ele><time>2021-03-19T09:41:19Z</time><name>PT1199</name></trkpt>
<trkpt lat="52.958699" lon="05.978919"><ele>37.2</ele><time>2021-03-19T09:41:20Z</time><name>PT1200</name></trkpt>
<trkpt lat="52.958695" lon="05.978904"><ele>37.2</ele><time>2021-03-19T09:41:21Z</time><name>PT1201</name></trkpt>
<trkpt lat="52.958693" lon="05.978892"><ele>37.1</ele><time>2021-03-19T09:41:22Z</time><name>PT1202</name></trkpt>
<trkpt lat="52.958690" lon="05.978881"><ele>36.9</ele><time>2021-03-19T09:41:23Z</time><name>PT1203</name></trkpt>
<trkpt lat="52.958688" lon="05.978866"><ele>37</ele><time>2021-03-19T09:41:24Z</time><name>PT1204</name></trkpt>
<trkpt lat="52.958688" lon="05.978852"><ele>37</ele><time>2021-03-19T09:41:25Z</time><name>PT1205</name></trkpt>
<trkpt lat="52.958679" lon="05.978845"><ele>37.1</ele><time>2021-03-19T09:41:26Z</time><name>PT1206</name></trkpt>
<trkpt lat="52.958671" lon="05.978833"><ele>37.2</ele><time>2021-03-19T09:41:27Z</time><name>PT1207</name></trkpt>
<trkpt lat="52.958666" lon="05.978818"><ele>37.2</ele><time>2021-03-19T09:41:28Z</time><name>PT1208</name></trkpt>
<trkpt lat="52.958661" lon="05.978800"><ele>37.2</ele><time>2021-03-19T09:41:29Z</time><name>PT1209</name></trkpt>
<trkpt lat="52.958659" lon="05.978782"><ele>37.1</ele><time>2021-03-19T09:41:30Z</time><name>PT1210</name></trkpt>
<trkpt lat="52.958655" lon="05.978768"><ele>36.9</ele><time>2021-03-19T09:41:31Z</time><name>PT1211</name></trkpt>
<trkpt lat="52.958652" lon="05.978752"><ele>37</ele><time>2021-03-19T09:41:32Z</time><name>PT1212</name></trkpt>
<trkpt lat="52.958647" lon="05.978732"><ele>36.9</ele><time>2021-03-19T09:41:33Z</time><name>PT1213</name></trkpt>
<trkpt lat="52.958642" lon="05.978718"><ele>36.8</ele><time>2021-03-19T09:41:34Z</time><name>PT1214</name></trkpt>
<trkpt lat="52.958636" lon="05.978706"><ele>37</ele><time>2021-03-19T09:41:35Z</time><name>PT1215</name></trkpt>
<trkpt lat="52.958630" lon="05.978688"><ele>37</ele><time>2021-03-19T09:41:36Z</time><name>PT1216</name></trkpt>
<trkpt lat="52.958623" lon="05.978671"><ele>37.1</ele><time>2021-03-19T09:41:37Z</time><name>PT1217</name></trkpt>
<trkpt lat="52.958610" lon="05.978660"><ele>37.2</ele><time>2021-03-19T09:41:38Z</time><name>PT1218</name></trkpt>
<trkpt lat="52.958597" lon="05.978646"><ele>37.2</ele><time>2021-03-19T09:41:39Z</time><name>PT1219</name></trkpt>
<trkpt lat="52.958589" lon="05.978630"><ele>37.1</ele><time>2021-03-19T09:41:40Z</time><name>PT1220</name></trkpt>
<trkpt lat="52.958586" lon="05.978614"><ele>37.2</ele><time>2021-03-19T09:41:41Z</time><name>PT1221</name></trkpt>
<trkpt lat="52.958582" lon="05.978600"><ele>37.2</ele><time>2021-03-19T09:41:42Z</time><name>PT1222</name></trkpt>
<trkpt lat="52.958575" lon="05.978585"><ele>37.4</ele><time>2021-03-19T09:41:43Z</time><name>PT1223</name></trkpt>
<trkpt lat="52.958569" lon="05.978570"><ele>37.5</ele><time>2021-03-19T09:41:44Z</time><name>PT1224</name></trkpt>
<trkpt lat="52.958563" lon="05.978559"><ele>37.5</ele><time>2021-03-19T09:41:45Z</time><name>PT1225</name></trkpt>
<trkpt lat="52.958556" lon="05.978546"><ele>37.5</ele><time>2021-03-19T09:41:46Z</time><name>PT1226</name></trkpt>
<trkpt lat="52.958550" lon="05.978528"><ele>37.2</ele><time>2021-03-19T09:41:47Z</time><name>PT1227</name></trkpt>
<trkpt lat="52.958548" lon="05.978510"><ele>37.2</ele><time>2021-03-19T09:41:48Z</time><name>PT1228</name></trkpt>
<trkpt lat="52.958546" lon="05.978494"><ele>37.2</ele><time>2021-03-19T09:41:49Z</time><name>PT1229</name></trkpt>
<trkpt lat="52.958543" lon="05.978481"><ele>37.2</ele><time>2021-03-19T09:41:50Z</time><name>PT1230</name></trkpt>
<trkpt lat="52.958536" lon="05.978466"><ele>37.2</ele><time>2021-03-19T09:41:51Z</time><name>PT1231</name></trkpt>
<trkpt lat="52.958530" lon="05.978452"><ele>37.2</ele><time>2021-03-19T09:41:52Z</time><name>PT1232</name></trkpt>
<trkpt lat="52.958526" lon="05.978438"><ele>37.2</ele><time>2021-03-19T09:41:53Z</time><name>PT1233</name></trkpt>
<trkpt lat="52.958521" lon="05.978426"><ele>37.3</ele><time>2021-03-19T09:41:54Z</time><name>PT1234</name></trkpt>
<trkpt lat="52.958515" lon="05.978411"><ele>37.2</ele><time>2021-03-19T09:41:55Z</time><name>PT1235</name></trkpt>
<trkpt lat="52.958513" lon="05.978398"><ele>37.2</ele><time>2021-03-19T09:41:56Z</time><name>PT1236</name></trkpt>
<trkpt lat="52.958504" lon="05.978381"><ele>37.3</ele><time>2021-03-19T09:41:57Z</time><name>PT1237</name></trkpt>
<trkpt lat="52.958493" lon="05.978367"><ele>37.2</ele><time>2021-03-19T09:41:58Z</time><name>PT1238</name></trkpt>
<trkpt lat="52.958487" lon="05.978351"><ele>37.2</ele><time>2021-03-19T09:41:59Z</time><name>PT1239</name></trkpt>
<trkpt lat="52.958482" lon="05.978335"><ele>37.2</ele><time>2021-03-19T09:42:00Z</time><name>PT1240</name></trkpt>
<trkpt lat="52.958478" lon="05.978317"><ele>37.2</ele><time>2021-03-19T09:42:01Z</time><name>PT1241</name></trkpt>
<trkpt lat="52.958475" lon="05.978301"><ele>37.2</ele><time>2021-03-19T09:42:02Z</time><name>PT1242</name></trkpt>
<trkpt lat="52.958471" lon="05.978284"><ele>37.2</ele><time>2021-03-19T09:42:03Z</time><name>PT1243</name></trkpt>
<trkpt lat="52.958463" lon="05.978267"><ele>37.2</ele><time>2021-03-19T09:42:04Z</time><name>PT1244</name></trkpt>
<trkpt lat="52.958458" lon="05.978252"><ele>37.1</ele><time>2021-03-19T09:42:05Z</time><name>PT1245</name></trkpt>
<trkpt lat="52.958451" lon="05.978239"><ele>37.2</ele><time>2021-03-19T09:42:06Z</time><name>PT1246</name></trkpt>
<trkpt lat="52.958446" lon="05.978228"><ele>37.2</ele><time>2021-03-19T09:42:07Z</time><name>PT1247</name></trkpt>
<trkpt lat="52.958434" lon="05.978213"><ele>37.2</ele><time>2021-03-19T09:42:08Z</time><name>PT1248</name></trkpt>
<trkpt lat="52.958427" lon="05.978200"><ele>37.2</ele><time>2021-03-19T09:42:09Z</time><name>PT1249</name></trkpt>
<trkpt lat="52.958417" lon="05.978184"><ele>37.3</ele><time>2021-03-19T09:42:10Z</time><name>PT1250</name></trkpt>
<trkpt lat="52.958410" lon="05.978169"><ele>37.2</ele><time>2021-03-19T09:42:11Z</time><name>PT1251</name></trkpt>
<trkpt lat="52.958403" lon="05.978151"><ele>37.2</ele><time>2021-03-19T09:42:12Z</time><name>PT1252</name></trkpt>
<trkpt lat="52.958398" lon="05.978132"><ele>37.1</ele><time>2021-03-19T09:42:13Z</time><name>PT1253</name></trkpt>
<trkpt lat="52.958392" lon="05.978116"><ele>36.9</ele><time>2021-03-19T09:42:14Z</time><name>PT1254</name></trkpt>
<trkpt lat="52.958385" lon="05.978101"><ele>36.9</ele><time>2021-03-19T09:42:15Z</time><name>PT1255</name></trkpt>
<trkpt lat="52.958378" lon="05.978083"><ele>36.9</ele><time>2021-03-19T09:42:16Z</time><name>PT1256</name></trkpt>
<trkpt lat="52.958376" lon="05.978067"><ele>37.1</ele><time>2021-03-19T09:42:17Z</time><name>PT1257</name></trkpt>
<trkpt lat="52.958367" lon="05.978043"><ele>37.2</ele><time>2021-03-19T09:42:18Z</time><name>PT1258</name></trkpt>
<trkpt lat="52.958363" lon="05.978022"><ele>37.2</ele><time>2021-03-19T09:42:19Z</time><name>PT1259</name></trkpt>
<trkpt lat="52.958360" lon="05.978006"><ele>37.2</ele><time>2021-03-19T09:42:20Z</time><name>PT1260</name></trkpt>
<trkpt lat="52.958356" lon="05.977993"><ele>37.2</ele><time>2021-03-19T09:42:21Z</time><name>PT1261</name></trkpt>
<trkpt lat="52.958351" lon="05.977980"><ele>37.2</ele><time>2021-03-19T09:42:22Z</time><name>PT1262</name></trkpt>
<trkpt lat="52.958343" lon="05.977966"><ele>37</ele><time>2021-03-19T09:42:23Z</time><name>PT1263</name></trkpt>
<trkpt lat="52.958336" lon="05.977954"><ele>36.9</ele><time>2021-03-19T09:42:24Z</time><name>PT1264</name></trkpt>
<trkpt lat="52.958336" lon="05.977946"><ele>36.9</ele><time>2021-03-19T09:42:25Z</time><name>PT1265</name></trkpt>
<trkpt lat="52.958325" lon="05.977932"><ele>37</ele><time>2021-03-19T09:42:26Z</time><name>PT1266</name></trkpt>
<trkpt lat="52.958320" lon="05.977914"><ele>37.1</ele><time>2021-03-19T09:42:27Z</time><name>PT1267</name></trkpt>
<trkpt lat="52.958311" lon="05.977894"><ele>37.3</ele><time>2021-03-19T09:42:28Z</time><name>PT1268</name></trkpt>
<trkpt lat="52.958306" lon="05.977879"><ele>37.2</ele><time>2021-03-19T09:42:29Z</time><name>PT1269</name></trkpt>
<trkpt lat="52.958297" lon="05.977863"><ele>37.2</ele><time>2021-03-19T09:42:30Z</time><name>PT1270</name></trkpt>
<trkpt lat="52.958293" lon="05.977848"><ele>37.2</ele><time>2021-03-19T09:42:31Z</time><name>PT1271</name></trkpt>
<trkpt lat="52.958286" lon="05.977837"><ele>37.2</ele><time>2021-03-19T09:42:32Z</time><name>PT1272</name></trkpt>
<trkpt lat="52.958281" lon="05.977824"><ele>37.1</ele><time>2021-03-19T09:42:33Z</time><name>PT1273</name></trkpt>
<trkpt lat="52.958278" lon="05.977810"><ele>37.1</ele><time>2021-03-19T09:42:34Z</time><name>PT1274</name></trkpt>
<trkpt lat="52.958273" lon="05.977793"><ele>37</ele><time>2021-03-19T09:42:35Z</time><name>PT1275</name></trkpt>
<trkpt lat="52.958270" lon="05.977777"><ele>37</ele><time>2021-03-19T09:42:36Z</time><name>PT1276</name></trkpt>
<trkpt lat="52.958263" lon="05.977760"><ele>36.9</ele><time>2021-03-19T09:42:37Z</time><name>PT1277</name></trkpt>
<trkpt lat="52.958262" lon="05.977752"><ele>36.8</ele><time>2021-03-19T09:42:38Z</time><name>PT1278</name></trkpt>
<trkpt lat="52.958257" lon="05.977743"><ele>36.7</ele><time>2021-03-19T09:42:39Z</time><name>PT1279</name></trkpt>
<trkpt lat="52.958250" lon="05.977726"><ele>36.7</ele><time>2021-03-19T09:42:40Z</time><name>PT1280</name></trkpt>
<trkpt lat="52.958248" lon="05.977713"><ele>36.9</ele><time>2021-03-19T09:42:41Z</time><name>PT1281</name></trkpt>
<trkpt lat="52.958245" lon="05.977697"><ele>36.9</ele><time>2021-03-19T09:42:42Z</time><name>PT1282</name></trkpt>
<trkpt lat="52.958237" lon="05.977680"><ele>37.2</ele><time>2021-03-19T09:42:43Z</time><name>PT1283</name></trkpt>
<trkpt lat="52.958231" lon="05.977666"><ele>37.3</ele><time>2021-03-19T09:42:44Z</time><name>PT1284</name></trkpt>
<trkpt lat="52.958221" lon="05.977644"><ele>37.2</ele><time>2021-03-19T09:42:45Z</time><name>PT1285</name></trkpt>
<trkpt lat="52.958216" lon="05.977632"><ele>36.9</ele><time>2021-03-19T09:42:46Z</time><name>PT1286</name></trkpt>
<trkpt lat="52.958212" lon="05.977618"><ele>36.9</ele><time>2021-03-19T09:42:47Z</time><name>PT1287</name></trkpt>
<trkpt lat="52.958208" lon="05.977609"><ele>36.8</ele><time>2021-03-19T09:42:48Z</time><name>PT1288</name></trkpt>
<trkpt lat="52.958195" lon="05.977587"><ele>36.6</ele><time>2021-03-19T09:42:49Z</time><name>PT1289</name></trkpt>
<trkpt lat="52.958190" lon="05.977571"><ele>36.8</ele><time>2021-03-19T09:42:50Z</time><name>PT1290</name></trkpt>
<trkpt lat="52.958189" lon="05.977555"><ele>37</ele><time>2021-03-19T09:42:51Z</time><name>PT1291</name></trkpt>
<trkpt lat="52.958180" lon="05.977538"><ele>36.7</ele><time>2021-03-19T09:42:52Z</time><name>PT1292</name></trkpt>
<trkpt lat="52.958175" lon="05.977522"><ele>36.7</ele><time>2021-03-19T09:42:53Z</time><name>PT1293</name></trkpt>
<trkpt lat="52.958173" lon="05.977511"><ele>36.7</ele><time>2021-03-19T09:42:54Z</time><name>PT1294</name></trkpt>
<trkpt lat="52.958165" lon="05.977496"><ele>36.5</ele><time>2021-03-19T09:42:55Z</time><name>PT1295</name></trkpt>
<trkpt lat="52.958159" lon="05.977482"><ele>36.5</ele><time>2021-03-19T09:42:56Z</time><name>PT1296</name></trkpt>
<trkpt lat="52.958155" lon="05.977467"><ele>36.6</ele><time>2021-03-19T09:42:57Z</time><name>PT1297</name></trkpt>
<trkpt lat="52.958149" lon="05.977451"><ele>36.6</ele><time>2021-03-19T09:42:58Z</time><name>PT1298</name></trkpt>
<trkpt lat="52.958146" lon="05.977435"><ele>36.7</ele><time>2021-03-19T09:42:59Z</time><name>PT1299</name></trkpt>
<trkpt lat="52.958136" lon="05.977416"><ele>36.7</ele><time>2021-03-19T09:43:00Z</time><name>PT1300</name></trkpt>
<trkpt lat="52.958132" lon="05.977400"><ele>36.9</ele><time>2021-03-19T09:43:01Z</time><name>PT1301</name></trkpt>
<trkpt lat="52.958123" lon="05.977384"><ele>37</ele><time>2021-03-19T09:43:02Z</time><name>PT1302</name></trkpt>
<trkpt lat="52.958114" lon="05.977366"><ele>36.9</ele><time>2021-03-19T09:43:03Z</time><name>PT1303</name></trkpt>
<trkpt lat="52.958107" lon="05.977349"><ele>36.7</ele><time>2021-03-19T09:43:04Z</time><name>PT1304</name></trkpt>
<trkpt lat="52.958101" lon="05.977331"><ele>36.7</ele><time>2021-03-19T09:43:05Z</time><name>PT1305</name></trkpt>
<trkpt lat="52.958098" lon="05.977312"><ele>36.6</ele><time>2021-03-19T09:43:06Z</time><name>PT1306</name></trkpt>
<trkpt lat="52.958093" lon="05.977294"><ele>36.5</ele><time>2021-03-19T09:43:07Z</time><name>PT1307</name></trkpt>
<trkpt lat="52.958090" lon="05.977279"><ele>36.7</ele><time>2021-03-19T09:43:08Z</time><name>PT1308</name></trkpt>
<trkpt lat="52.958085" lon="05.977264"><ele>36.7</ele><time>2021-03-19T09:43:09Z</time><name>PT1309</name></trkpt>
<trkpt lat="52.958075" lon="05.977246"><ele>36.7</ele><time>2021-03-19T09:43:10Z</time><name>PT1310</name></trkpt>
<trkpt lat="52.958063" lon="05.977228"><ele>36.7</ele><time>2021-03-19T09:43:11Z</time><name>PT1311</name></trkpt>
<trkpt lat="52.958058" lon="05.977215"><ele>36.7</ele><time>2021-03-19T09:43:12Z</time><name>PT1312</name></trkpt>
<trkpt lat="52.958053" lon="05.977200"><ele>36.7</ele><time>2021-03-19T09:43:13Z</time><name>PT1313</name></trkpt>
<trkpt lat="52.958048" lon="05.977185"><ele>36.6</ele><time>2021-03-19T09:43:14Z</time><name>PT1314</name></trkpt>
<trkpt lat="52.958046" lon="05.977174"><ele>36.7</ele><time>2021-03-19T09:43:15Z</time><name>PT1315</name></trkpt>
<trkpt lat="52.958039" lon="05.977159"><ele>36.7</ele><time>2021-03-19T09:43:16Z</time><name>PT1316</name></trkpt>
<trkpt lat="52.958033" lon="05.977146"><ele>36.7</ele><time>2021-03-19T09:43:17Z</time><name>PT1317</name></trkpt>
<trkpt lat="52.958027" lon="05.977130"><ele>36.7</ele><time>2021-03-19T09:43:18Z</time><name>PT1318</name></trkpt>
<trkpt lat="52.958020" lon="05.977117"><ele>37</ele><time>2021-03-19T09:43:19Z</time><name>PT1319</name></trkpt>
<trkpt lat="52.958018" lon="05.977106"><ele>37.1</ele><time>2021-03-19T09:43:20Z</time><name>PT1320</name></trkpt>
<trkpt lat="52.958014" lon="05.977090"><ele>37.2</ele><time>2021-03-19T09:43:21Z</time><name>PT1321</name></trkpt>
<trkpt lat="52.958011" lon="05.977072"><ele>37.1</ele><time>2021-03-19T09:43:22Z</time><name>PT1322</name></trkpt>
<trkpt lat="52.958005" lon="05.977056"><ele>36.9</ele><time>2021-03-19T09:43:23Z</time><name>PT1323</name></trkpt>
<trkpt lat="52.957997" lon="05.977038"><ele>36.9</ele><time>2021-03-19T09:43:24Z</time><name>PT1324</name></trkpt>
<trkpt lat="52.957992" lon="05.977023"><ele>36.7</ele><time>2021-03-19T09:43:25Z</time><name>PT1325</name></trkpt>
<trkpt lat="52.957989" lon="05.977012"><ele>36.6</ele><time>2021-03-19T09:43:26Z</time><name>PT1326</name></trkpt>
<trkpt lat="52.957988" lon="05.976999"><ele>36.6</ele><time>2021-03-19T09:43:27Z</time><name>PT1327</name></trkpt>
<trkpt lat="52.957991" lon="05.976985"><ele>36.6</ele><time>2021-03-19T09:43:28Z</time><name>PT1328</name></trkpt>
<trkpt lat="52.957987" lon="05.976969"><ele>36.4</ele><time>2021-03-19T09:43:29Z</time><name>PT1329</name></trkpt>
<trkpt lat="52.957981" lon="05.976955"><ele>36.5</ele><time>2021-03-19T09:43:30Z</time><name>PT1330</name></trkpt>
<trkpt lat="52.957976" lon="05.976940"><ele>36.7</ele><time>2021-03-19T09:43:31Z</time><name>PT1331</name></trkpt>
<trkpt lat="52.957968" lon="05.976924"><ele>36.7</ele><time>2021-03-19T09:43:32Z</time><name>PT1332</name></trkpt>
<trkpt lat="52.957963" lon="05.976908"><ele>36.6</ele><time>2021-03-19T09:43:33Z</time><name>PT1333</name></trkpt>
<trkpt lat="52.957960" lon="05.976891"><ele>36.6</ele><time>2021-03-19T09:43:34Z</time><name>PT1334</name></trkpt>
<trkpt lat="52.957957" lon="05.976875"><ele>36.6</ele><time>2021-03-19T09:43:35Z</time><name>PT1335</name></trkpt>
<trkpt lat="52.957961" lon="05.976859"><ele>36.4</ele><time>2021-03-19T09:43:36Z</time><name>PT1336</name></trkpt>
<trkpt lat="52.957962" lon="05.976844"><ele>36.5</ele><time>2021-03-19T09:43:37Z</time><name>PT1337</name></trkpt>
<trkpt lat="52.957962" lon="05.976825"><ele>36.6</ele><time>2021-03-19T09:43:38Z</time><name>PT1338</name></trkpt>
<trkpt lat="52.957959" lon="05.976807"><ele>36.6</ele><time>2021-03-19T09:43:39Z</time><name>PT1339</name></trkpt>
<trkpt lat="52.957954" lon="05.976792"><ele>36.6</ele><time>2021-03-19T09:43:40Z</time><name>PT1340</name></trkpt>
<trkpt lat="52.957940" lon="05.976770"><ele>36.7</ele><time>2021-03-19T09:43:41Z</time><name>PT1341</name></trkpt>
<trkpt lat="52.957940" lon="05.976756"><ele>36.7</ele><time>2021-03-19T09:43:42Z</time><name>PT1342</name></trkpt>
<trkpt lat="52.957934" lon="05.976738"><ele>36.6</ele><time>2021-03-19T09:43:43Z</time><name>PT1343</name></trkpt>
<trkpt lat="52.957915" lon="05.976705"><ele>36.6</ele><time>2021-03-19T09:43:44Z</time><name>PT1344</name></trkpt>
<trkpt lat="52.957897" lon="05.976681"><ele>36.4</ele><time>2021-03-19T09:43:45Z</time><name>PT1345</name></trkpt>
<trkpt lat="52.957891" lon="05.976671"><ele>36.3</ele><time>2021-03-19T09:43:46Z</time><name>PT1346</name></trkpt>
<trkpt lat="52.957877" lon="05.976652"><ele>36.3</ele><time>2021-03-19T09:43:47Z</time><name>PT1347</name></trkpt>
<trkpt lat="52.957864" lon="05.976648"><ele>36.5</ele><time>2021-03-19T09:43:48Z</time><name>PT1348</name></trkpt>
<trkpt lat="52.957839" lon="05.976639"><ele>36.5</ele><time>2021-03-19T09:43:49Z</time><name>PT1349</name></trkpt>
<trkpt lat="52.957830" lon="05.976641"><ele>36.6</ele><time>2021-03-19T09:43:50Z</time><name>PT1350</name></trkpt>
<trkpt lat="52.957818" lon="05.976645"><ele>36.5</ele><time>2021-03-19T09:43:51Z</time><name>PT1351</name></trkpt>
<trkpt lat="52.957813" lon="05.976653"><ele>36.5</ele><time>2021-03-19T09:43:52Z</time><name>PT1352</name></trkpt>
<trkpt lat="52.957799" lon="05.976652"><ele>36.3</ele><time>2021-03-19T09:43:53Z</time><name>PT1353</name></trkpt>
<trkpt lat="52.957787" lon="05.976657"><ele>36.3</ele><time>2021-03-19T09:43:54Z</time><name>PT1354</name></trkpt>
<trkpt lat="52.957778" lon="05.976667"><ele>36.4</ele><time>2021-03-19T09:43:55Z</time><name>PT1355</name></trkpt>
<trkpt lat="52.957769" lon="05.976680"><ele>36.4</ele><time>2021-03-19T09:43:56Z</time><name>PT1356</name></trkpt>
<trkpt lat="52.957758" lon="05.976691"><ele>36.3</ele><time>2021-03-19T09:43:57Z</time><name>PT1357</name></trkpt>
<trkpt lat="52.957748" lon="05.976701"><ele>36.3</ele><time>2021-03-19T09:43:58Z</time><name>PT1358</name></trkpt>
<trkpt lat="52.957737" lon="05.976713"><ele>36.3</ele><time>2021-03-19T09:43:59Z</time><name>PT1359</name></trkpt>
<trkpt lat="52.957728" lon="05.976724"><ele>36.3</ele><time>2021-03-19T09:44:00Z</time><name>PT1360</name></trkpt>
<trkpt lat="52.957718" lon="05.976738"><ele>36.3</ele><time>2021-03-19T09:44:01Z</time><name>PT1361</name></trkpt>
<trkpt lat="52.957707" lon="05.976750"><ele>36.3</ele><time>2021-03-19T09:44:02Z</time><name>PT1362</name></trkpt>
<trkpt lat="52.957694" lon="05.976762"><ele>36.4</ele><time>2021-03-19T09:44:03Z</time><name>PT1363</name></trkpt>
<trkpt lat="52.957683" lon="05.976770"><ele>36.3</ele><time>2021-03-19T09:44:04Z</time><name>PT1364</name></trkpt>
<trkpt lat="52.957673" lon="05.976773"><ele>36.2</ele><time>2021-03-19T09:44:05Z</time><name>PT1365</name></trkpt>
<trkpt lat="52.957662" lon="05.976781"><ele>36.2</ele><time>2021-03-19T09:44:06Z</time><name>PT1366</name></trkpt>
<trkpt lat="52.957650" lon="05.976789"><ele>36.1</ele><time>2021-03-19T09:44:07Z</time><name>PT1367</name></trkpt>
<trkpt lat="52.957639" lon="05.976796"><ele>36.1</ele><time>2021-03-19T09:44:08Z</time><name>PT1368</name></trkpt>
<trkpt lat="52.957626" lon="05.976806"><ele>36</ele><time>2021-03-19T09:44:09Z</time><name>PT1369</name></trkpt>
<trkpt lat="52.957613" lon="05.976807"><ele>36</ele><time>2021-03-19T09:44:10Z</time><name>PT1370</name></trkpt>
<trkpt lat="52.957601" lon="05.976812"><ele>36</ele><time>2021-03-19T09:44:11Z</time><name>PT1371</name></trkpt>
<trkpt lat="52.957589" lon="05.976817"><ele>35.8</ele><time>2021-03-19T09:44:12Z</time><name>PT1372</name></trkpt>
<trkpt lat="52.957579" lon="05.976826"><ele>35.8</ele><time>2021-03-19T09:44:13Z</time><name>PT1373</name></trkpt>
<trkpt lat="52.957567" lon="05.976835"><ele>35.9</ele><time>2021-03-19T09:44:14Z</time><name>PT1374</name></trkpt>
<trkpt lat="52.957557" lon="05.976847"><ele>36</ele><time>2021-03-19T09:44:15Z</time><name>PT1375</name></trkpt>
<trkpt lat="52.957549" lon="05.976855"><ele>35.9</ele><time>2021-03-19T09:44:16Z</time><name>PT1376</name></trkpt>
<trkpt lat="52.957539" lon="05.976863"><ele>36</ele><time>2021-03-19T09:44:17Z</time><name>PT1377</name></trkpt>
<trkpt lat="52.957528" lon="05.976874"><ele>36</ele><time>2021-03-19T09:44:18Z</time><name>PT1378</name></trkpt>
<trkpt lat="52.957517" lon="05.976887"><ele>35.9</ele><time>2021-03-19T09:44:19Z</time><name>PT1379</name></trkpt>
<trkpt lat="52.957506" lon="05.976894"><ele>35.9</ele><time>2021-03-19T09:44:20Z</time><name>PT1380</name></trkpt>
<trkpt lat="52.957496" lon="05.976905"><ele>35.9</ele><time>2021-03-19T09:44:21Z</time><name>PT1381</name></trkpt>
<trkpt lat="52.957487" lon="05.976920"><ele>36</ele><time>2021-03-19T09:44:22Z</time><name>PT1382</name></trkpt>
<trkpt lat="52.957479" lon="05.976928"><ele>35.9</ele><time>2021-03-19T09:44:23Z</time><name>PT1383</name></trkpt>
<trkpt lat="52.957467" lon="05.976941"><ele>35.8</ele><time>2021-03-19T09:44:24Z</time><name>PT1384</name></trkpt>
<trkpt lat="52.957456" lon="05.976951"><ele>35.8</ele><time>2021-03-19T09:44:25Z</time><name>PT1385</name></trkpt>
<trkpt lat="52.957443" lon="05.976962"><ele>35.8</ele><time>2021-03-19T09:44:26Z</time><name>PT1386</name></trkpt>
<trkpt lat="52.957433" lon="05.976969"><ele>35.8</ele><time>2021-03-19T09:44:27Z</time><name>PT1387</name></trkpt>
<trkpt lat="52.957420" lon="05.976981"><ele>35.8</ele><time>2021-03-19T09:44:28Z</time><name>PT1388</name></trkpt>
<trkpt lat="52.957414" lon="05.976987"><ele>35.9</ele><time>2021-03-19T09:44:29Z</time><name>PT1389</name></trkpt>
<trkpt lat="52.957402" lon="05.976993"><ele>36</ele><time>2021-03-19T09:44:30Z</time><name>PT1390</name></trkpt>
<trkpt lat="52.957390" lon="05.977009"><ele>36</ele><time>2021-03-19T09:44:31Z</time><name>PT1391</name></trkpt>
<trkpt lat="52.957379" lon="05.977023"><ele>36.1</ele><time>2021-03-19T09:44:32Z</time><name>PT1392</name></trkpt>
<trkpt lat="52.957366" lon="05.977040"><ele>36.2</ele><time>2021-03-19T09:44:33Z</time><name>PT1393</name></trkpt>
<trkpt lat="52.957356" lon="05.977056"><ele>36</ele><time>2021-03-19T09:44:34Z</time><name>PT1394</name></trkpt>
<trkpt lat="52.957346" lon="05.977066"><ele>36</ele><time>2021-03-19T09:44:35Z</time><name>PT1395</name></trkpt>
<trkpt lat="52.957336" lon="05.977076"><ele>35.8</ele><time>2021-03-19T09:44:36Z</time><name>PT1396</name></trkpt>
<trkpt lat="52.957327" lon="05.977084"><ele>35.9</ele><time>2021-03-19T09:44:37Z</time><name>PT1397</name></trkpt>
<trkpt lat="52.957315" lon="05.977099"><ele>35.9</ele><time>2021-03-19T09:44:38Z</time><name>PT1398</name></trkpt>
<trkpt lat="52.957303" lon="05.977113"><ele>35.9</ele><time>2021-03-19T09:44:39Z</time><name>PT1399</name></trkpt>
<trkpt lat="52.957292" lon="05.977122"><ele>36</ele><time>2021-03-19T09:44:40Z</time><name>PT1400</name></trkpt>
<trkpt lat="52.957279" lon="05.977131"><ele>36.1</ele><time>2021-03-19T09:44:41Z</time><name>PT1401</name></trkpt>
<trkpt lat="52.957267" lon="05.977142"><ele>36.1</ele><time>2021-03-19T09:44:42Z</time><name>PT1402</name></trkpt>
<trkpt lat="52.957254" lon="05.977156"><ele>36.2</ele><time>2021-03-19T09:44:43Z</time><name>PT1403</name></trkpt>
<trkpt lat="52.957242" lon="05.977171"><ele>36.3</ele><time>2021-03-19T09:44:44Z</time><name>PT1404</name></trkpt>
<trkpt lat="52.957229" lon="05.977183"><ele>36.4</ele><time>2021-03-19T09:44:45Z</time><name>PT1405</name></trkpt>
<trkpt lat="52.957217" lon="05.977195"><ele>36.3</ele><time>2021-03-19T09:44:46Z</time><name>PT1406</name></trkpt>
<trkpt lat="52.957207" lon="05.977208"><ele>36.1</ele><time>2021-03-19T09:44:47Z</time><name>PT1407</name></trkpt>
<trkpt lat="52.957198" lon="05.977220"><ele>36</ele><time>2021-03-19T09:44:48Z</time><name>PT1408</name></trkpt>
<trkpt lat="52.957187" lon="05.977231"><ele>35.8</ele><time>2021-03-19T09:44:49Z</time><name>PT1409</name></trkpt>
<trkpt lat="52.957177" lon="05.977242"><ele>35.8</ele><time>2021-03-19T09:44:50Z</time><name>PT1410</name></trkpt>
<trkpt lat="52.957167" lon="05.977253"><ele>35.8</ele><time>2021-03-19T09:44:51Z</time><name>PT1411</name></trkpt>
<trkpt lat="52.957154" lon="05.977264"><ele>36</ele><time>2021-03-19T09:44:52Z</time><name>PT1412</name></trkpt>
<trkpt lat="52.957142" lon="05.977275"><ele>36.3</ele><time>2021-03-19T09:44:53Z</time><name>PT1413</name></trkpt>
<trkpt lat="52.957132" lon="05.977283"><ele>36.3</ele><time>2021-03-19T09:44:54Z</time><name>PT1414</name></trkpt>
<trkpt lat="52.957121" lon="05.977294"><ele>36.4</ele><time>2021-03-19T09:44:55Z</time><name>PT1415</name></trkpt>
<trkpt lat="52.957110" lon="05.977303"><ele>36.4</ele><time>2021-03-19T09:44:56Z</time><name>PT1416</name></trkpt>
<trkpt lat="52.957098" lon="05.977313"><ele>36.3</ele><time>2021-03-19T09:44:57Z</time><name>PT1417</name></trkpt>
<trkpt lat="52.957088" lon="05.977323"><ele>36.3</ele><time>2021-03-19T09:44:58Z</time><name>PT1418</name></trkpt>
<trkpt lat="52.957078" lon="05.977333"><ele>36.3</ele><time>2021-03-19T09:44:59Z</time><name>PT1419</name></trkpt>
<trkpt lat="52.957067" lon="05.977343"><ele>36.3</ele><time>2021-03-19T09:45:00Z</time><name>PT1420</name></trkpt>
<trkpt lat="52.957057" lon="05.977356"><ele>36.4</ele><time>2021-03-19T09:45:01Z</time><name>PT1421</name></trkpt>
<trkpt lat="52.957046" lon="05.977369"><ele>36.3</ele><time>2021-03-19T09:45:02Z</time><name>PT1422</name></trkpt>
<trkpt lat="52.957037" lon="05.977380"><ele>36.3</ele><time>2021-03-19T09:45:03Z</time><name>PT1423</name></trkpt>
<trkpt lat="52.957027" lon="05.977392"><ele>36.3</ele><time>2021-03-19T09:45:04Z</time><name>PT1424</name></trkpt>
<trkpt lat="52.957017" lon="05.977404"><ele>36.2</ele><time>2021-03-19T09:45:05Z</time><name>PT1425</name></trkpt>
<trkpt lat="52.957008" lon="05.977417"><ele>36.1</ele><time>2021-03-19T09:45:06Z</time><name>PT1426</name></trkpt>
<trkpt lat="52.956998" lon="05.977428"><ele>36.3</ele><time>2021-03-19T09:45:07Z</time><name>PT1427</name></trkpt>
<trkpt lat="52.956988" lon="05.977437"><ele>36.2</ele><time>2021-03-19T09:45:08Z</time><name>PT1428</name></trkpt>
<trkpt lat="52.956979" lon="05.977444"><ele>36.3</ele><time>2021-03-19T09:45:09Z</time><name>PT1429</name></trkpt>
<trkpt lat="52.956971" lon="05.977454"><ele>36.1</ele><time>2021-03-19T09:45:10Z</time><name>PT1430</name></trkpt>
<trkpt lat="52.956960" lon="05.977462"><ele>36.1</ele><time>2021-03-19T09:45:11Z</time><name>PT1431</name></trkpt>
<trkpt lat="52.956947" lon="05.977472"><ele>36.1</ele><time>2021-03-19T09:45:12Z</time><name>PT1432</name></trkpt>
<trkpt lat="52.956937" lon="05.977484"><ele>36.2</ele><time>2021-03-19T09:45:13Z</time><name>PT1433</name></trkpt>
<trkpt lat="52.956928" lon="05.977494"><ele>36.3</ele><time>2021-03-19T09:45:14Z</time><name>PT1434</name></trkpt>
<trkpt lat="52.956918" lon="05.977504"><ele>36.4</ele><time>2021-03-19T09:45:15Z</time><name>PT1435</name></trkpt>
<trkpt lat="52.956909" lon="05.977516"><ele>36.4</ele><time>2021-03-19T09:45:16Z</time><name>PT1436</name></trkpt>
<trkpt lat="52.956898" lon="05.977529"><ele>36.3</ele><time>2021-03-19T09:45:17Z</time><name>PT1437</name></trkpt>
<trkpt lat="52.956887" lon="05.977540"><ele>36.3</ele><time>2021-03-19T09:45:18Z</time><name>PT1438</name></trkpt>
<trkpt lat="52.956874" lon="05.977553"><ele>36.3</ele><time>2021-03-19T09:45:19Z</time><name>PT1439</name></trkpt>
<trkpt lat="52.956862" lon="05.977564"><ele>36.3</ele><time>2021-03-19T09:45:20Z</time><name>PT1440</name></trkpt>
<trkpt lat="52.956850" lon="05.977574"><ele>36.2</ele><time>2021-03-19T09:45:21Z</time><name>PT1441</name></trkpt>
<trkpt lat="52.956842" lon="05.977584"><ele>36</ele><time>2021-03-19T09:45:22Z</time><name>PT1442</name></trkpt>
<trkpt lat="52.956833" lon="05.977592"><ele>36.1</ele><time>2021-03-19T09:45:23Z</time><name>PT1443</name></trkpt>
<trkpt lat="52.956820" lon="05.977605"><ele>36.1</ele><time>2021-03-19T09:45:24Z</time><name>PT1444</name></trkpt>
<trkpt lat="52.956809" lon="05.977618"><ele>36.2</ele><time>2021-03-19T09:45:25Z</time><name>PT1445</name></trkpt>
<trkpt lat="52.956797" lon="05.977629"><ele>36.3</ele><time>2021-03-19T09:45:26Z</time><name>PT1446</name></trkpt>
<trkpt lat="52.956785" lon="05.977638"><ele>36.3</ele><time>2021-03-19T09:45:27Z</time><name>PT1447</name></trkpt>
<trkpt lat="52.956775" lon="05.977648"><ele>36</ele><time>2021-03-19T09:45:28Z</time><name>PT1448</name></trkpt>
<trkpt lat="52.956765" lon="05.977657"><ele>35.8</ele><time>2021-03-19T09:45:29Z</time><name>PT1449</name></trkpt>
<trkpt lat="52.956753" lon="05.977669"><ele>35.9</ele><time>2021-03-19T09:45:30Z</time><name>PT1450</name></trkpt>
<trkpt lat="52.956743" lon="05.977683"><ele>35.8</ele><time>2021-03-19T09:45:31Z</time><name>PT1451</name></trkpt>
<trkpt lat="52.956731" lon="05.977700"><ele>35.9</ele><time>2021-03-19T09:45:32Z</time><name>PT1452</name></trkpt>
<trkpt lat="52.956721" lon="05.977711"><ele>35.9</ele><time>2021-03-19T09:45:33Z</time><name>PT1453</name></trkpt>
<trkpt lat="52.956710" lon="05.977722"><ele>35.8</ele><time>2021-03-19T09:45:34Z</time><name>PT1454</name></trkpt>
<trkpt lat="52.956702" lon="05.977733"><ele>35.9</ele><time>2021-03-19T09:45:35Z</time><name>PT1455</name></trkpt>
<trkpt lat="52.956693" lon="05.977743"><ele>35.8</ele><time>2021-03-19T09:45:36Z</time><name>PT1456</name></trkpt>
<trkpt lat="52.956682" lon="05.977756"><ele>36</ele><time>2021-03-19T09:45:37Z</time><name>PT1457</name></trkpt>
<trkpt lat="52.956672" lon="05.977765"><ele>35.9</ele><time>2021-03-19T09:45:38Z</time><name>PT1458</name></trkpt>
<trkpt lat="52.956659" lon="05.977774"><ele>36.1</ele><time>2021-03-19T09:45:39Z</time><name>PT1459</name></trkpt>
<trkpt lat="52.956645" lon="05.977785"><ele>36.1</ele><time>2021-03-19T09:45:40Z</time><name>PT1460</name></trkpt>
<trkpt lat="52.956634" lon="05.977798"><ele>36.1</ele><time>2021-03-19T09:45:41Z</time><name>PT1461</name></trkpt>
<trkpt lat="52.956623" lon="05.977808"><ele>36</ele><time>2021-03-19T09:45:42Z</time><name>PT1462</name></trkpt>
<trkpt lat="52.956613" lon="05.977819"><ele>36</ele><time>2021-03-19T09:45:43Z</time><name>PT1463</name></trkpt>
<trkpt lat="52.956601" lon="05.977833"><ele>35.8</ele><time>2021-03-19T09:45:44Z</time><name>PT1464</name></trkpt>
<trkpt lat="52.956592" lon="05.977845"><ele>36</ele><time>2021-03-19T09:45:45Z</time><name>PT1465</name></trkpt>
<trkpt lat="52.956582" lon="05.977860"><ele>35.9</ele><time>2021-03-19T09:45:46Z</time><name>PT1466</name></trkpt>
<trkpt lat="52.956573" lon="05.977869"><ele>36</ele><time>2021-03-19T09:45:47Z</time><name>PT1467</name></trkpt>
<trkpt lat="52.956561" lon="05.977881"><ele>36</ele><time>2021-03-19T09:45:48Z</time><name>PT1468</name></trkpt>
<trkpt lat="52.956549" lon="05.977894"><ele>35.9</ele><time>2021-03-19T09:45:49Z</time><name>PT1469</name></trkpt>
<trkpt lat="52.956538" lon="05.977904"><ele>36.1</ele><time>2021-03-19T09:45:50Z</time><name>PT1470</name></trkpt>
<trkpt lat="52.956528" lon="05.977913"><ele>36.2</ele><time>2021-03-19T09:45:51Z</time><name>PT1471</name></trkpt>
<trkpt lat="52.956519" lon="05.977925"><ele>36.1</ele><time>2021-03-19T09:45:52Z</time><name>PT1472</name></trkpt>
<trkpt lat="52.956515" lon="05.977934"><ele>36.2</ele><time>2021-03-19T09:45:53Z</time><name>PT1473</name></trkpt>
<trkpt lat="52.956506" lon="05.977946"><ele>36.2</ele><time>2021-03-19T09:45:54Z</time><name>PT1474</name></trkpt>
<trkpt lat="52.956497" lon="05.977954"><ele>35.9</ele><time>2021-03-19T09:45:55Z</time><name>PT1475</name></trkpt>
<trkpt lat="52.956487" lon="05.977961"><ele>35.9</ele><time>2021-03-19T09:45:56Z</time><name>PT1476</name></trkpt>
<trkpt lat="52.956475" lon="05.977971"><ele>35.9</ele><time>2021-03-19T09:45:57Z</time><name>PT1477</name></trkpt>
<trkpt lat="52.956464" lon="05.977981"><ele>35.9</ele><time>2021-03-19T09:45:58Z</time><name>PT1478</name></trkpt>
<trkpt lat="52.956451" lon="05.977990"><ele>36</ele><time>2021-03-19T09:45:59Z</time><name>PT1479</name></trkpt>
<trkpt lat="52.956441" lon="05.977998"><ele>36</ele><time>2021-03-19T09:46:00Z</time><name>PT1480</name></trkpt>
<trkpt lat="52.956430" lon="05.978005"><ele>36</ele><time>2021-03-19T09:46:01Z</time><name>PT1481</name></trkpt>
<trkpt lat="52.956417" lon="05.978018"><ele>36.1</ele><time>2021-03-19T09:46:02Z</time><name>PT1482</name></trkpt>
<trkpt lat="52.956405" lon="05.978030"><ele>35.9</ele><time>2021-03-19T09:46:03Z</time><name>PT1483</name></trkpt>
<trkpt lat="52.956395" lon="05.978041"><ele>36</ele><time>2021-03-19T09:46:04Z</time><name>PT1484</name></trkpt>
<trkpt lat="52.956383" lon="05.978052"><ele>36.1</ele><time>2021-03-19T09:46:05Z</time><name>PT1485</name></trkpt>
<trkpt lat="52.956372" lon="05.978065"><ele>36.1</ele><time>2021-03-19T09:46:06Z</time><name>PT1486</name></trkpt>
<trkpt lat="52.956361" lon="05.978077"><ele>36.2</ele><time>2021-03-19T09:46:07Z</time><name>PT1487</name></trkpt>
<trkpt lat="52.956348" lon="05.978089"><ele>36.2</ele><time>2021-03-19T09:46:08Z</time><name>PT1488</name></trkpt>
<trkpt lat="52.956336" lon="05.978101"><ele>36.2</ele><time>2021-03-19T09:46:09Z</time><name>PT1489</name></trkpt>
<trkpt lat="52.956327" lon="05.978116"><ele>36.4</ele><time>2021-03-19T09:46:10Z</time><name>PT1490</name></trkpt>
<trkpt lat="52.956317" lon="05.978126"><ele>36.3</ele><time>2021-03-19T09:46:11Z</time><name>PT1491</name></trkpt>
<trkpt lat="52.956306" lon="05.978135"><ele>36.3</ele><time>2021-03-19T09:46:12Z</time><name>PT1492</name></trkpt>
<trkpt lat="52.956295" lon="05.978145"><ele>36.3</ele><time>2021-03-19T09:46:13Z</time><name>PT1493</name></trkpt>
<trkpt lat="52.956285" lon="05.978155"><ele>36.1</ele><time>2021-03-19T09:46:14Z</time><name>PT1494</name></trkpt>
<trkpt lat="52.956274" lon="05.978165"><ele>36.1</ele><time>2021-03-19T09:46:15Z</time><name>PT1495</name></trkpt>
<trkpt lat="52.956263" lon="05.978175"><ele>36.3</ele><time>2021-03-19T09:46:16Z</time><name>PT1496</name></trkpt>
<trkpt lat="52.956252" lon="05.978183"><ele>36.5</ele><time>2021-03-19T09:46:17Z</time><name>PT1497</name></trkpt>
<trkpt lat="52.956241" lon="05.978191"><ele>36.4</ele><time>2021-03-19T09:46:18Z</time><name>PT1498</name></trkpt>
<trkpt lat="52.956230" lon="05.978203"><ele>36.4</ele><time>2021-03-19T09:46:19Z</time><name>PT1499</name></trkpt>
<trkpt lat="52.956218" lon="05.978216"><ele>36.3</ele><time>2021-03-19T09:46:20Z</time><name>PT1500</name></trkpt>
<trkpt lat="52.956205" lon="05.978228"><ele>36.1</ele><time>2021-03-19T09:46:21Z</time><name>PT1501</name></trkpt>
<trkpt lat="52.956195" lon="05.978241"><ele>36.1</ele><time>2021-03-19T09:46:22Z</time><name>PT1502</name></trkpt>
<trkpt lat="52.956186" lon="05.978250"><ele>36.1</ele><time>2021-03-19T09:46:23Z</time><name>PT1503</name></trkpt>
<trkpt lat="52.956175" lon="05.978261"><ele>36.2</ele><time>2021-03-19T09:46:24Z</time><name>PT1504</name></trkpt>
<trkpt lat="52.956169" lon="05.978264"><ele>36.3</ele><time>2021-03-19T09:46:25Z</time><name>PT1505</name></trkpt>
<trkpt lat="52.956160" lon="05.978275"><ele>36.4</ele><time>2021-03-19T09:46:26Z</time><name>PT1506</name></trkpt>
<trkpt lat="52.956148" lon="05.978287"><ele>36.3</ele><time>2021-03-19T09:46:27Z</time><name>PT1507</name></trkpt>
<trkpt lat="52.956138" lon="05.978293"><ele>36.4</ele><time>2021-03-19T09:46:28Z</time><name>PT1508</name></trkpt>
<trkpt lat="52.956127" lon="05.978301"><ele>36.3</ele><time>2021-03-19T09:46:29Z</time><name>PT1509</name></trkpt>
<trkpt lat="52.956118" lon="05.978312"><ele>36.3</ele><time>2021-03-19T09:46:30Z</time><name>PT1510</name></trkpt>
<trkpt lat="52.956107" lon="05.978324"><ele>36.2</ele><time>2021-03-19T09:46:31Z</time><name>PT1511</name></trkpt>
<trkpt lat="52.956095" lon="05.978335"><ele>36.2</ele><time>2021-03-19T09:46:32Z</time><name>PT1512</name></trkpt>
<trkpt lat="52.956084" lon="05.978347"><ele>36</ele><time>2021-03-19T09:46:33Z</time><name>PT1513</name></trkpt>
<trkpt lat="52.956074" lon="05.978362"><ele>36.1</ele><time>2021-03-19T09:46:34Z</time><name>PT1514</name></trkpt>
<trkpt lat="52.956062" lon="05.978379"><ele>36</ele><time>2021-03-19T09:46:35Z</time><name>PT1515</name></trkpt>
<trkpt lat="52.956050" lon="05.978392"><ele>36</ele><time>2021-03-19T09:46:36Z</time><name>PT1516</name></trkpt>
<trkpt lat="52.956041" lon="05.978398"><ele>36.1</ele><time>2021-03-19T09:46:37Z</time><name>PT1517</name></trkpt>
<trkpt lat="52.956032" lon="05.978408"><ele>36.3</ele><time>2021-03-19T09:46:38Z</time><name>PT1518</name></trkpt>
<trkpt lat="52.956021" lon="05.978418"><ele>36.3</ele><time>2021-03-19T09:46:39Z</time><name>PT1519</name></trkpt>
<trkpt lat="52.956014" lon="05.978421"><ele>36.2</ele><time>2021-03-19T09:46:40Z</time><name>PT1520</name></trkpt>
<trkpt lat="52.956006" lon="05.978430"><ele>36.1</ele><time>2021-03-19T09:46:41Z</time><name>PT1521</name></trkpt>
<trkpt lat="52.956005" lon="05.978430"><ele>36</ele><time>2021-03-19T09:46:42Z</time><name>PT1522</name></trkpt>
<trkpt lat="52.956004" lon="05.978430"><ele>35.8</ele><time>2021-03-19T09:46:43Z</time><name>PT1523</name></trkpt>
<trkpt lat="52.956005" lon="05.978441"><ele>35.8</ele><time>2021-03-19T09:46:45Z</time><name>PT1524</name></trkpt>
<trkpt lat="52.955997" lon="05.978446"><ele>35.7</ele><time>2021-03-19T09:46:46Z</time><name>PT1525</name></trkpt>
<trkpt lat="52.955991" lon="05.978456"><ele>35.8</ele><time>2021-03-19T09:46:47Z</time><name>PT1526</name></trkpt>
<trkpt lat="52.955978" lon="05.978463"><ele>35.8</ele><time>2021-03-19T09:46:48Z</time><name>PT1527</name></trkpt>
<trkpt lat="52.955968" lon="05.978467"><ele>35.8</ele><time>2021-03-19T09:46:49Z</time><name>PT1528</name></trkpt>
<trkpt lat="52.955954" lon="05.978480"><ele>35.8</ele><time>2021-03-19T09:46:50Z</time><name>PT1529</name></trkpt>
<trkpt lat="52.955944" lon="05.978492"><ele>35.7</ele><time>2021-03-19T09:46:51Z</time><name>PT1530</name></trkpt>
<trkpt lat="52.955932" lon="05.978503"><ele>35.8</ele><time>2021-03-19T09:46:52Z</time><name>PT1531</name></trkpt>
<trkpt lat="52.955922" lon="05.978514"><ele>35.8</ele><time>2021-03-19T09:46:53Z</time><name>PT1532</name></trkpt>
<trkpt lat="52.955908" lon="05.978524"><ele>35.8</ele><time>2021-03-19T09:46:54Z</time><name>PT1533</name></trkpt>
<trkpt lat="52.955894" lon="05.978534"><ele>35.8</ele><time>2021-03-19T09:46:55Z</time><name>PT1534</name></trkpt>
<trkpt lat="52.955880" lon="05.978547"><ele>35.7</ele><time>2021-03-19T09:46:56Z</time><name>PT1535</name></trkpt>
<trkpt lat="52.955869" lon="05.978561"><ele>35.7</ele><time>2021-03-19T09:46:57Z</time><name>PT1536</name></trkpt>
<trkpt lat="52.955862" lon="05.978573"><ele>35.6</ele><time>2021-03-19T09:46:58Z</time><name>PT1537</name></trkpt>
<trkpt lat="52.955853" lon="05.978585"><ele>35.7</ele><time>2021-03-19T09:46:59Z</time><name>PT1538</name></trkpt>
<trkpt lat="52.955846" lon="05.978594"><ele>35.6</ele><time>2021-03-19T09:47:00Z</time><name>PT1539</name></trkpt>
<trkpt lat="52.955838" lon="05.978606"><ele>35.7</ele><time>2021-03-19T09:47:01Z</time><name>PT1540</name></trkpt>
<trkpt lat="52.955830" lon="05.978614"><ele>35.8</ele><time>2021-03-19T09:47:02Z</time><name>PT1541</name></trkpt>
<trkpt lat="52.955818" lon="05.978625"><ele>35.8</ele><time>2021-03-19T09:47:03Z</time><name>PT1542</name></trkpt>
<trkpt lat="52.955812" lon="05.978633"><ele>35.8</ele><time>2021-03-19T09:47:04Z</time><name>PT1543</name></trkpt>
<trkpt lat="52.955808" lon="05.978644"><ele>35.8</ele><time>2021-03-19T09:47:05Z</time><name>PT1544</name></trkpt>
<trkpt lat="52.955806" lon="05.978647"><ele>35.7</ele><time>2021-03-19T09:47:06Z</time><name>PT1545</name></trkpt>
<trkpt lat="52.955805" lon="05.978649"><ele>35.5</ele><time>2021-03-19T09:47:07Z</time><name>PT1546</name></trkpt>
<trkpt lat="52.955801" lon="05.978655"><ele>35.6</ele><time>2021-03-19T09:47:08Z</time><name>PT1547</name></trkpt>
<trkpt lat="52.955796" lon="05.978661"><ele>35.6</ele><time>2021-03-19T09:47:09Z</time><name>PT1548</name></trkpt>
<trkpt lat="52.955788" lon="05.978669"><ele>35.7</ele><time>2021-03-19T09:47:10Z</time><name>PT1549</name></trkpt>
<trkpt lat="52.955781" lon="05.978682"><ele>35.9</ele><time>2021-03-19T09:47:11Z</time><name>PT1550</name></trkpt>
<trkpt lat="52.955778" lon="05.978694"><ele>35.9</ele><time>2021-03-19T09:47:12Z</time><name>PT1551</name></trkpt>
<trkpt lat="52.955779" lon="05.978706"><ele>36</ele><time>2021-03-19T09:47:13Z</time><name>PT1552</name></trkpt>
<trkpt lat="52.955780" lon="05.978719"><ele>36</ele><time>2021-03-19T09:47:14Z</time><name>PT1553</name></trkpt>
<trkpt lat="52.955781" lon="05.978735"><ele>35.8</ele><time>2021-03-19T09:47:15Z</time><name>PT1554</name></trkpt>
<trkpt lat="52.955782" lon="05.978743"><ele>35.5</ele><time>2021-03-19T09:47:16Z</time><name>PT1555</name></trkpt>
<trkpt lat="52.955782" lon="05.978747"><ele>35.2</ele><time>2021-03-19T09:47:17Z</time><name>PT1556</name></trkpt>
<trkpt lat="52.955785" lon="05.978754"><ele>35.2</ele><time>2021-03-19T09:47:18Z</time><name>PT1557</name></trkpt>
<trkpt lat="52.955789" lon="05.978764"><ele>35.1</ele><time>2021-03-19T09:47:19Z</time><name>PT1558</name></trkpt>
<trkpt lat="52.955791" lon="05.978776"><ele>35.2</ele><time>2021-03-19T09:47:20Z</time><name>PT1559</name></trkpt>
<trkpt lat="52.955796" lon="05.978790"><ele>35.2</ele><time>2021-03-19T09:47:21Z</time><name>PT1560</name></trkpt>
<trkpt lat="52.955802" lon="05.978804"><ele>34.9</ele><time>2021-03-19T09:47:22Z</time><name>PT1561</name></trkpt>
<trkpt lat="52.955807" lon="05.978816"><ele>34.9</ele><time>2021-03-19T09:47:23Z</time><name>PT1562</name></trkpt>
<trkpt lat="52.955813" lon="05.978834"><ele>34.8</ele><time>2021-03-19T09:47:24Z</time><name>PT1563</name></trkpt>
<trkpt lat="52.955816" lon="05.978848"><ele>34.9</ele><time>2021-03-19T09:47:25Z</time><name>PT1564</name></trkpt>
<trkpt lat="52.955817" lon="05.978861"><ele>35.2</ele><time>2021-03-19T09:47:26Z</time><name>PT1565</name></trkpt>
<trkpt lat="52.955816" lon="05.978876"><ele>35.2</ele><time>2021-03-19T09:47:27Z</time><name>PT1566</name></trkpt>
<trkpt lat="52.955817" lon="05.978892"><ele>35.2</ele><time>2021-03-19T09:47:28Z</time><name>PT1567</name></trkpt>
<trkpt lat="52.955819" lon="05.978910"><ele>35.1</ele><time>2021-03-19T09:47:29Z</time><name>PT1568</name></trkpt>
<trkpt lat="52.955824" lon="05.978927"><ele>35.2</ele><time>2021-03-19T09:47:30Z</time><name>PT1569</name></trkpt>
<trkpt lat="52.955829" lon="05.978941"><ele>35.1</ele><time>2021-03-19T09:47:31Z</time><name>PT1570</name></trkpt>
<trkpt lat="52.955832" lon="05.978956"><ele>35</ele><time>2021-03-19T09:47:32Z</time><name>PT1571</name></trkpt>
<trkpt lat="52.955834" lon="05.978978"><ele>35</ele><time>2021-03-19T09:47:33Z</time><name>PT1572</name></trkpt>
<trkpt lat="52.955838" lon="05.978995"><ele>35</ele><time>2021-03-19T09:47:34Z</time><name>PT1573</name></trkpt>
<trkpt lat="52.955843" lon="05.979015"><ele>34.9</ele><time>2021-03-19T09:47:35Z</time><name>PT1574</name></trkpt>
<trkpt lat="52.955848" lon="05.979031"><ele>34.8</ele><time>2021-03-19T09:47:36Z</time><name>PT1575</name></trkpt>
<trkpt lat="52.955858" lon="05.979045"><ele>34.6</ele><time>2021-03-19T09:47:37Z</time><name>PT1576</name></trkpt>
<trkpt lat="52.955865" lon="05.979056"><ele>34.6</ele><time>2021-03-19T09:47:38Z</time><name>PT1577</name></trkpt>
<trkpt lat="52.955870" lon="05.979071"><ele>34.6</ele><time>2021-03-19T09:47:39Z</time><name>PT1578</name></trkpt>
<trkpt lat="52.955875" lon="05.979083"><ele>34.8</ele><time>2021-03-19T09:47:40Z</time><name>PT1579</name></trkpt>
<trkpt lat="52.955876" lon="05.979098"><ele>35.2</ele><time>2021-03-19T09:47:41Z</time><name>PT1580</name></trkpt>
<trkpt lat="52.955877" lon="05.979112"><ele>35.4</ele><time>2021-03-19T09:47:42Z</time><name>PT1581</name></trkpt>
<trkpt lat="52.955878" lon="05.979130"><ele>35.5</ele><time>2021-03-19T09:47:43Z</time><name>PT1582</name></trkpt>
<trkpt lat="52.955872" lon="05.979139"><ele>35.4</ele><time>2021-03-19T09:47:44Z</time><name>PT1583</name></trkpt>
<trkpt lat="52.955865" lon="05.979147"><ele>35.4</ele><time>2021-03-19T09:47:45Z</time><name>PT1584</name></trkpt>
<trkpt lat="52.955859" lon="05.979174"><ele>35.4</ele><time>2021-03-19T09:47:46Z</time><name>PT1585</name></trkpt>
<trkpt lat="52.955851" lon="05.979188"><ele>35.4</ele><time>2021-03-19T09:47:47Z</time><name>PT1586</name></trkpt>
<trkpt lat="52.955839" lon="05.979209"><ele>35.5</ele><time>2021-03-19T09:47:48Z</time><name>PT1587</name></trkpt>
<trkpt lat="52.955827" lon="05.979219"><ele>35.7</ele><time>2021-03-19T09:47:49Z</time><name>PT1588</name></trkpt>
<trkpt lat="52.955820" lon="05.979223"><ele>35.7</ele><time>2021-03-19T09:47:50Z</time><name>PT1589</name></trkpt>
<trkpt lat="52.955811" lon="05.979232"><ele>35.6</ele><time>2021-03-19T09:47:51Z</time><name>PT1590</name></trkpt>
<trkpt lat="52.955803" lon="05.979245"><ele>35.4</ele><time>2021-03-19T09:47:52Z</time><name>PT1591</name></trkpt>
<trkpt lat="52.955797" lon="05.979257"><ele>35.2</ele><time>2021-03-19T09:47:53Z</time><name>PT1592</name></trkpt>
<trkpt lat="52.955792" lon="05.979262"><ele>35.2</ele><time>2021-03-19T09:47:54Z</time><name>PT1593</name></trkpt>
<trkpt lat="52.955786" lon="05.979272"><ele>35.3</ele><time>2021-03-19T09:47:55Z</time><name>PT1594</name></trkpt>
<trkpt lat="52.955774" lon="05.979287"><ele>35.4</ele><time>2021-03-19T09:47:56Z</time><name>PT1595</name></trkpt>
<trkpt lat="52.955764" lon="05.979304"><ele>35.4</ele><time>2021-03-19T09:47:57Z</time><name>PT1596</name></trkpt>
<trkpt lat="52.955756" lon="05.979318"><ele>35.4</ele><time>2021-03-19T09:47:58Z</time><name>PT1597</name></trkpt>
<trkpt lat="52.955749" lon="05.979325"><ele>35</ele><time>2021-03-19T09:47:59Z</time><name>PT1598</name></trkpt>
<trkpt lat="52.955744" lon="05.979339"><ele>35</ele><time>2021-03-19T09:48:00Z</time><name>PT1599</name></trkpt>
<trkpt lat="52.955735" lon="05.979350"><ele>34.9</ele><time>2021-03-19T09:48:01Z</time><name>PT1600</name></trkpt>
<trkpt lat="52.955726" lon="05.979359"><ele>34.9</ele><time>2021-03-19T09:48:02Z</time><name>PT1601</name></trkpt>
<trkpt lat="52.955715" lon="05.979371"><ele>34.9</ele><time>2021-03-19T09:48:03Z</time><name>PT1602</name></trkpt>
<trkpt lat="52.955707" lon="05.979387"><ele>35.1</ele><time>2021-03-19T09:48:04Z</time><name>PT1603</name></trkpt>
<trkpt lat="52.955700" lon="05.979396"><ele>35.2</ele><time>2021-03-19T09:48:05Z</time><name>PT1604</name></trkpt>
<trkpt lat="52.955690" lon="05.979403"><ele>35.1</ele><time>2021-03-19T09:48:06Z</time><name>PT1605</name></trkpt>
<trkpt lat="52.955685" lon="05.979413"><ele>35.4</ele><time>2021-03-19T09:48:07Z</time><name>PT1606</name></trkpt>
<trkpt lat="52.955678" lon="05.979431"><ele>35.3</ele><time>2021-03-19T09:48:08Z</time><name>PT1607</name></trkpt>
<trkpt lat="52.955668" lon="05.979441"><ele>35.2</ele><time>2021-03-19T09:48:09Z</time><name>PT1608</name></trkpt>
<trkpt lat="52.955650" lon="05.979456"><ele>35.2</ele><time>2021-03-19T09:48:10Z</time><name>PT1609</name></trkpt>
<trkpt lat="52.955636" lon="05.979466"><ele>35.1</ele><time>2021-03-19T09:48:11Z</time><name>PT1610</name></trkpt>
<trkpt lat="52.955625" lon="05.979474"><ele>35</ele><time>2021-03-19T09:48:12Z</time><name>PT1611</name></trkpt>
<trkpt lat="52.955614" lon="05.979483"><ele>35.1</ele><time>2021-03-19T09:48:13Z</time><name>PT1612</name></trkpt>
<trkpt lat="52.955603" lon="05.979491"><ele>35</ele><time>2021-03-19T09:48:14Z</time><name>PT1613</name></trkpt>
<trkpt lat="52.955587" lon="05.979505"><ele>35</ele><time>2021-03-19T09:48:15Z</time><name>PT1614</name></trkpt>
<trkpt lat="52.955575" lon="05.979517"><ele>35.1</ele><time>2021-03-19T09:48:16Z</time><name>PT1615</name></trkpt>
<trkpt lat="52.955559" lon="05.979525"><ele>35</ele><time>2021-03-19T09:48:17Z</time><name>PT1616</name></trkpt>
<trkpt lat="52.955547" lon="05.979537"><ele>34.9</ele><time>2021-03-19T09:48:18Z</time><name>PT1617</name></trkpt>
<trkpt lat="52.955536" lon="05.979550"><ele>34.9</ele><time>2021-03-19T09:48:19Z</time><name>PT1618</name></trkpt>
<trkpt lat="52.955533" lon="05.979554"><ele>34.9</ele><time>2021-03-19T09:48:20Z</time><name>PT1619</name></trkpt>
<trkpt lat="52.955524" lon="05.979565"><ele>34.9</ele><time>2021-03-19T09:48:21Z</time><name>PT1620</name></trkpt>
<trkpt lat="52.955513" lon="05.979576"><ele>35.1</ele><time>2021-03-19T09:48:22Z</time><name>PT1621</name></trkpt>
<trkpt lat="52.955503" lon="05.979586"><ele>35.3</ele><time>2021-03-19T09:48:23Z</time><name>PT1622</name></trkpt>
<trkpt lat="52.955493" lon="05.979596"><ele>35.1</ele><time>2021-03-19T09:48:24Z</time><name>PT1623</name></trkpt>
<trkpt lat="52.955481" lon="05.979602"><ele>35.1</ele><time>2021-03-19T09:48:25Z</time><name>PT1624</name></trkpt>
<trkpt lat="52.955468" lon="05.979613"><ele>35.2</ele><time>2021-03-19T09:48:26Z</time><name>PT1625</name></trkpt>
<trkpt lat="52.955457" lon="05.979622"><ele>35.2</ele><time>2021-03-19T09:48:27Z</time><name>PT1626</name></trkpt>
<trkpt lat="52.955443" lon="05.979629"><ele>35.1</ele><time>2021-03-19T09:48:28Z</time><name>PT1627</name></trkpt>
<trkpt lat="52.955430" lon="05.979644"><ele>35.2</ele><time>2021-03-19T09:48:29Z</time><name>PT1628</name></trkpt>
<trkpt lat="52.955421" lon="05.979650"><ele>35.1</ele><time>2021-03-19T09:48:30Z</time><name>PT1629</name></trkpt>
<trkpt lat="52.955413" lon="05.979657"><ele>35</ele><time>2021-03-19T09:48:31Z</time><name>PT1630</name></trkpt>
<trkpt lat="52.955402" lon="05.979667"><ele>34.9</ele><time>2021-03-19T09:48:32Z</time><name>PT1631</name></trkpt>
<trkpt lat="52.955393" lon="05.979676"><ele>35</ele><time>2021-03-19T09:48:33Z</time><name>PT1632</name></trkpt>
<trkpt lat="52.955383" lon="05.979686"><ele>34.9</ele><time>2021-03-19T09:48:34Z</time><name>PT1633</name></trkpt>
<trkpt lat="52.955375" lon="05.979695"><ele>34.9</ele><time>2021-03-19T09:48:35Z</time><name>PT1634</name></trkpt>
<trkpt lat="52.955363" lon="05.979709"><ele>34.9</ele><time>2021-03-19T09:48:36Z</time><name>PT1635</name></trkpt>
<trkpt lat="52.955354" lon="05.979717"><ele>34.8</ele><time>2021-03-19T09:48:37Z</time><name>PT1636</name></trkpt>
<trkpt lat="52.955344" lon="05.979721"><ele>34.8</ele><time>2021-03-19T09:48:38Z</time><name>PT1637</name></trkpt>
<trkpt lat="52.955334" lon="05.979730"><ele>34.9</ele><time>2021-03-19T09:48:39Z</time><name>PT1638</name></trkpt>
<trkpt lat="52.955325" lon="05.979743"><ele>35.1</ele><time>2021-03-19T09:48:40Z</time><name>PT1639</name></trkpt>
<trkpt lat="52.955313" lon="05.979753"><ele>35.2</ele><time>2021-03-19T09:48:41Z</time><name>PT1640</name></trkpt>
<trkpt lat="52.955301" lon="05.979763"><ele>35.1</ele><time>2021-03-19T09:48:42Z</time><name>PT1641</name></trkpt>
<trkpt lat="52.955291" lon="05.979779"><ele>35.1</ele><time>2021-03-19T09:48:43Z</time><name>PT1642</name></trkpt>
<trkpt lat="52.955291" lon="05.979783"><ele>35</ele><time>2021-03-19T09:48:44Z</time><name>PT1643</name></trkpt>
<trkpt lat="52.955282" lon="05.979794"><ele>35.1</ele><time>2021-03-19T09:48:45Z</time><name>PT1644</name></trkpt>
<trkpt lat="52.955273" lon="05.979800"><ele>35.1</ele><time>2021-03-19T09:48:46Z</time><name>PT1645</name></trkpt>
<trkpt lat="52.955265" lon="05.979806"><ele>35</ele><time>2021-03-19T09:48:47Z</time><name>PT1646</name></trkpt>
<trkpt lat="52.955255" lon="05.979824"><ele>35</ele><time>2021-03-19T09:48:48Z</time><name>PT1647</name></trkpt>
<trkpt lat="52.955243" lon="05.979840"><ele>35.1</ele><time>2021-03-19T09:48:49Z</time><name>PT1648</name></trkpt>
<trkpt lat="52.955232" lon="05.979851"><ele>35</ele><time>2021-03-19T09:48:50Z</time><name>PT1649</name></trkpt>
<trkpt lat="52.955226" lon="05.979857"><ele>35.1</ele><time>2021-03-19T09:48:51Z</time><name>PT1650</name></trkpt>
<trkpt lat="52.955216" lon="05.979867"><ele>35.3</ele><time>2021-03-19T09:48:52Z</time><name>PT1651</name></trkpt>
<trkpt lat="52.955203" lon="05.979879"><ele>35.1</ele><time>2021-03-19T09:48:53Z</time><name>PT1652</name></trkpt>
<trkpt lat="52.955190" lon="05.979888"><ele>35.2</ele><time>2021-03-19T09:48:54Z</time><name>PT1653</name></trkpt>
<trkpt lat="52.955182" lon="05.979898"><ele>35.4</ele><time>2021-03-19T09:48:55Z</time><name>PT1654</name></trkpt>
<trkpt lat="52.955170" lon="05.979911"><ele>35.3</ele><time>2021-03-19T09:48:56Z</time><name>PT1655</name></trkpt>
<trkpt lat="52.955158" lon="05.979919"><ele>35.2</ele><time>2021-03-19T09:48:57Z</time><name>PT1656</name></trkpt>
<trkpt lat="52.955149" lon="05.979927"><ele>35.1</ele><time>2021-03-19T09:48:58Z</time><name>PT1657</name></trkpt>
<trkpt lat="52.955136" lon="05.979944"><ele>35.1</ele><time>2021-03-19T09:48:59Z</time><name>PT1658</name></trkpt>
<trkpt lat="52.955123" lon="05.979959"><ele>34.9</ele><time>2021-03-19T09:49:00Z</time><name>PT1659</name></trkpt>
<trkpt lat="52.955112" lon="05.979972"><ele>35</ele><time>2021-03-19T09:49:01Z</time><name>PT1660</name></trkpt>
<trkpt lat="52.955098" lon="05.979982"><ele>35.2</ele><time>2021-03-19T09:49:02Z</time><name>PT1661</name></trkpt>
<trkpt lat="52.955089" lon="05.979995"><ele>35.1</ele><time>2021-03-19T09:49:03Z</time><name>PT1662</name></trkpt>
<trkpt lat="52.955078" lon="05.980008"><ele>35</ele><time>2021-03-19T09:49:04Z</time><name>PT1663</name></trkpt>
<trkpt lat="52.955073" lon="05.980018"><ele>35.1</ele><time>2021-03-19T09:49:05Z</time><name>PT1664</name></trkpt>
<trkpt lat="52.955076" lon="05.980016"><ele>35.1</ele><time>2021-03-19T09:49:06Z</time><name>PT1665</name></trkpt>
<trkpt lat="52.955068" lon="05.980019"><ele>35.1</ele><time>2021-03-19T09:49:07Z</time><name>PT1666</name></trkpt>
<trkpt lat="52.955061" lon="05.980025"><ele>35.2</ele><time>2021-03-19T09:49:08Z</time><name>PT1667</name></trkpt>
<trkpt lat="52.955052" lon="05.980033"><ele>35.2</ele><time>2021-03-19T09:49:09Z</time><name>PT1668</name></trkpt>
<trkpt lat="52.955043" lon="05.980042"><ele>35.1</ele><time>2021-03-19T09:49:10Z</time><name>PT1669</name></trkpt>
<trkpt lat="52.955031" lon="05.980054"><ele>35.2</ele><time>2021-03-19T09:49:11Z</time><name>PT1670</name></trkpt>
<trkpt lat="52.955019" lon="05.980060"><ele>35.1</ele><time>2021-03-19T09:49:12Z</time><name>PT1671</name></trkpt>
<trkpt lat="52.955001" lon="05.980070"><ele>35</ele><time>2021-03-19T09:49:13Z</time><name>PT1672</name></trkpt>
<trkpt lat="52.954990" lon="05.980083"><ele>35.1</ele><time>2021-03-19T09:49:14Z</time><name>PT1673</name></trkpt>
<trkpt lat="52.954976" lon="05.980093"><ele>35.1</ele><time>2021-03-19T09:49:15Z</time><name>PT1674</name></trkpt>
<trkpt lat="52.954968" lon="05.980108"><ele>35</ele><time>2021-03-19T09:49:16Z</time><name>PT1675</name></trkpt>
<trkpt lat="52.954958" lon="05.980116"><ele>35</ele><time>2021-03-19T09:49:17Z</time><name>PT1676</name></trkpt>
<trkpt lat="52.954949" lon="05.980129"><ele>34.9</ele><time>2021-03-19T09:49:18Z</time><name>PT1677</name></trkpt>
<trkpt lat="52.954942" lon="05.980146"><ele>35</ele><time>2021-03-19T09:49:19Z</time><name>PT1678</name></trkpt>
<trkpt lat="52.954931" lon="05.980163"><ele>35.1</ele><time>2021-03-19T09:49:20Z</time><name>PT1679</name></trkpt>
<trkpt lat="52.954921" lon="05.980175"><ele>35.2</ele><time>2021-03-19T09:49:21Z</time><name>PT1680</name></trkpt>
<trkpt lat="52.954912" lon="05.980187"><ele>35</ele><time>2021-03-19T09:49:22Z</time><name>PT1681</name></trkpt>
<trkpt lat="52.954900" lon="05.980197"><ele>34.9</ele><time>2021-03-19T09:49:23Z</time><name>PT1682</name></trkpt>
<trkpt lat="52.954890" lon="05.980213"><ele>34.8</ele><time>2021-03-19T09:49:24Z</time><name>PT1683</name></trkpt>
<trkpt lat="52.954882" lon="05.980221"><ele>34.9</ele><time>2021-03-19T09:49:25Z</time><name>PT1684</name></trkpt>
<trkpt lat="52.954878" lon="05.980226"><ele>34.9</ele><time>2021-03-19T09:49:26Z</time><name>PT1685</name></trkpt>
<trkpt lat="52.954866" lon="05.980241"><ele>35.1</ele><time>2021-03-19T09:49:27Z</time><name>PT1686</name></trkpt>
<trkpt lat="52.954853" lon="05.980257"><ele>35.2</ele><time>2021-03-19T09:49:28Z</time><name>PT1687</name></trkpt>
<trkpt lat="52.954845" lon="05.980266"><ele>35</ele><time>2021-03-19T09:49:29Z</time><name>PT1688</name></trkpt>
<trkpt lat="52.954835" lon="05.980277"><ele>35</ele><time>2021-03-19T09:49:30Z</time><name>PT1689</name></trkpt>
<trkpt lat="52.954825" lon="05.980290"><ele>34.9</ele><time>2021-03-19T09:49:31Z</time><name>PT1690</name></trkpt>
<trkpt lat="52.954816" lon="05.980303"><ele>35</ele><time>2021-03-19T09:49:32Z</time><name>PT1691</name></trkpt>
<trkpt lat="52.954809" lon="05.980309"><ele>35</ele><time>2021-03-19T09:49:33Z</time><name>PT1692</name></trkpt>
<trkpt lat="52.954802" lon="05.980310"><ele>35.2</ele><time>2021-03-19T09:49:34Z</time><name>PT1693</name></trkpt>
<trkpt lat="52.954790" lon="05.980319"><ele>35.4</ele><time>2021-03-19T09:49:35Z</time><name>PT1694</name></trkpt>
<trkpt lat="52.954775" lon="05.980333"><ele>35.3</ele><time>2021-03-19T09:49:36Z</time><name>PT1695</name></trkpt>
<trkpt lat="52.954760" lon="05.980346"><ele>35.2</ele><time>2021-03-19T09:49:37Z</time><name>PT1696</name></trkpt>
<trkpt lat="52.954748" lon="05.980356"><ele>35.2</ele><time>2021-03-19T09:49:38Z</time><name>PT1697</name></trkpt>
<trkpt lat="52.954736" lon="05.980366"><ele>35.2</ele><time>2021-03-19T09:49:39Z</time><name>PT1698</name></trkpt>
<trkpt lat="52.954724" lon="05.980376"><ele>35.2</ele><time>2021-03-19T09:49:40Z</time><name>PT1699</name></trkpt>
<trkpt lat="52.954713" lon="05.980388"><ele>35.1</ele><time>2021-03-19T09:49:41Z</time><name>PT1700</name></trkpt>
<trkpt lat="52.954701" lon="05.980400"><ele>35.1</ele><time>2021-03-19T09:49:42Z</time><name>PT1701</name></trkpt>
<trkpt lat="52.954691" lon="05.980417"><ele>35.2</ele><time>2021-03-19T09:49:43Z</time><name>PT1702</name></trkpt>
<trkpt lat="52.954682" lon="05.980425"><ele>35.1</ele><time>2021-03-19T09:49:44Z</time><name>PT1703</name></trkpt>
<trkpt lat="52.954674" lon="05.980431"><ele>35.1</ele><time>2021-03-19T09:49:45Z</time><name>PT1704</name></trkpt>
<trkpt lat="52.954664" lon="05.980442"><ele>35.1</ele><time>2021-03-19T09:49:46Z</time><name>PT1705</name></trkpt>
<trkpt lat="52.954653" lon="05.980454"><ele>35</ele><time>2021-03-19T09:49:47Z</time><name>PT1706</name></trkpt>
<trkpt lat="52.954644" lon="05.980459"><ele>34.9</ele><time>2021-03-19T09:49:48Z</time><name>PT1707</name></trkpt>
<trkpt lat="52.954629" lon="05.980478"><ele>34.9</ele><time>2021-03-19T09:49:49Z</time><name>PT1708</name></trkpt>
<trkpt lat="52.954619" lon="05.980486"><ele>35</ele><time>2021-03-19T09:49:50Z</time><name>PT1709</name></trkpt>
<trkpt lat="52.954607" lon="05.980495"><ele>35</ele><time>2021-03-19T09:49:51Z</time><name>PT1710</name></trkpt>
<trkpt lat="52.954593" lon="05.980508"><ele>35.1</ele><time>2021-03-19T09:49:52Z</time><name>PT1711</name></trkpt>
<trkpt lat="52.954588" lon="05.980513"><ele>35.2</ele><time>2021-03-19T09:49:53Z</time><name>PT1712</name></trkpt>
<trkpt lat="52.954577" lon="05.980529"><ele>35.3</ele><time>2021-03-19T09:49:54Z</time><name>PT1713</name></trkpt>
<trkpt lat="52.954565" lon="05.980540"><ele>35.1</ele><time>2021-03-19T09:49:55Z</time><name>PT1714</name></trkpt>
<trkpt lat="52.954554" lon="05.980549"><ele>35.1</ele><time>2021-03-19T09:49:56Z</time><name>PT1715</name></trkpt>
<trkpt lat="52.954544" lon="05.980558"><ele>35</ele><time>2021-03-19T09:49:57Z</time><name>PT1716</name></trkpt>
<trkpt lat="52.954533" lon="05.980567"><ele>35.1</ele><time>2021-03-19T09:49:58Z</time><name>PT1717</name></trkpt>
<trkpt lat="52.954525" lon="05.980573"><ele>34.9</ele><time>2021-03-19T09:49:59Z</time><name>PT1718</name></trkpt>
<trkpt lat="52.954508" lon="05.980579"><ele>34.9</ele><time>2021-03-19T09:50:00Z</time><name>PT1719</name></trkpt>
<trkpt lat="52.954496" lon="05.980592"><ele>34.9</ele><time>2021-03-19T09:50:01Z</time><name>PT1720</name></trkpt>
<trkpt lat="52.954485" lon="05.980601"><ele>34.9</ele><time>2021-03-19T09:50:02Z</time><name>PT1721</name></trkpt>
<trkpt lat="52.954479" lon="05.980612"><ele>34.8</ele><time>2021-03-19T09:50:03Z</time><name>PT1722</name></trkpt>
<trkpt lat="52.954464" lon="05.980628"><ele>34.9</ele><time>2021-03-19T09:50:04Z</time><name>PT1723</name></trkpt>
<trkpt lat="52.954453" lon="05.980638"><ele>35</ele><time>2021-03-19T09:50:05Z</time><name>PT1724</name></trkpt>
<trkpt lat="52.954443" lon="05.980651"><ele>34.9</ele><time>2021-03-19T09:50:06Z</time><name>PT1725</name></trkpt>
<trkpt lat="52.954430" lon="05.980666"><ele>34.8</ele><time>2021-03-19T09:50:07Z</time><name>PT1726</name></trkpt>
<trkpt lat="52.954421" lon="05.980673"><ele>34.9</ele><time>2021-03-19T09:50:08Z</time><name>PT1727</name></trkpt>
<trkpt lat="52.954413" lon="05.980689"><ele>34.9</ele><time>2021-03-19T09:50:09Z</time><name>PT1728</name></trkpt>
<trkpt lat="52.954407" lon="05.980694"><ele>34.9</ele><time>2021-03-19T09:50:10Z</time><name>PT1729</name></trkpt>
<trkpt lat="52.954395" lon="05.980707"><ele>35.2</ele><time>2021-03-19T09:50:11Z</time><name>PT1730</name></trkpt>
<trkpt lat="52.954383" lon="05.980712"><ele>35</ele><time>2021-03-19T09:50:12Z</time><name>PT1731</name></trkpt>
<trkpt lat="52.954372" lon="05.980717"><ele>34.9</ele><time>2021-03-19T09:50:13Z</time><name>PT1732</name></trkpt>
<trkpt lat="52.954361" lon="05.980734"><ele>34.9</ele><time>2021-03-19T09:50:14Z</time><name>PT1733</name></trkpt>
<trkpt lat="52.954352" lon="05.980740"><ele>34.7</ele><time>2021-03-19T09:50:15Z</time><name>PT1734</name></trkpt>
<trkpt lat="52.954343" lon="05.980748"><ele>34.7</ele><time>2021-03-19T09:50:16Z</time><name>PT1735</name></trkpt>
<trkpt lat="52.954338" lon="05.980752"><ele>34.9</ele><time>2021-03-19T09:50:17Z</time><name>PT1736</name></trkpt>
<trkpt lat="52.954330" lon="05.980760"><ele>35</ele><time>2021-03-19T09:50:18Z</time><name>PT1737</name></trkpt>
<trkpt lat="52.954317" lon="05.980777"><ele>35.1</ele><time>2021-03-19T09:50:19Z</time><name>PT1738</name></trkpt>
<trkpt lat="52.954312" lon="05.980782"><ele>35.1</ele><time>2021-03-19T09:50:20Z</time><name>PT1739</name></trkpt>
<trkpt lat="52.954301" lon="05.980789"><ele>35.3</ele><time>2021-03-19T09:50:21Z</time><name>PT1740</name></trkpt>
<trkpt lat="52.954296" lon="05.980798"><ele>35.3</ele><time>2021-03-19T09:50:22Z</time><name>PT1741</name></trkpt>
<trkpt lat="52.954291" lon="05.980805"><ele>35.4</ele><time>2021-03-19T09:50:23Z</time><name>PT1742</name></trkpt>
<trkpt lat="52.954278" lon="05.980819"><ele>35.4</ele><time>2021-03-19T09:50:24Z</time><name>PT1743</name></trkpt>
<trkpt lat="52.954264" lon="05.980832"><ele>35.4</ele><time>2021-03-19T09:50:25Z</time><name>PT1744</name></trkpt>
<trkpt lat="52.954244" lon="05.980847"><ele>35.4</ele><time>2021-03-19T09:50:26Z</time><name>PT1745</name></trkpt>
<trkpt lat="52.954230" lon="05.980856"><ele>35.4</ele><time>2021-03-19T09:50:27Z</time><name>PT1746</name></trkpt>
<trkpt lat="52.954218" lon="05.980864"><ele>35.4</ele><time>2021-03-19T09:50:28Z</time><name>PT1747</name></trkpt>
<trkpt lat="52.954206" lon="05.980872"><ele>35.4</ele><time>2021-03-19T09:50:29Z</time><name>PT1748</name></trkpt>
<trkpt lat="52.954194" lon="05.980881"><ele>35.4</ele><time>2021-03-19T09:50:30Z</time><name>PT1749</name></trkpt>
<trkpt lat="52.954180" lon="05.980892"><ele>35.4</ele><time>2021-03-19T09:50:31Z</time><name>PT1750</name></trkpt>
<trkpt lat="52.954171" lon="05.980901"><ele>35.4</ele><time>2021-03-19T09:50:32Z</time><name>PT1751</name></trkpt>
<trkpt lat="52.954162" lon="05.980907"><ele>35.3</ele><time>2021-03-19T09:50:33Z</time><name>PT1752</name></trkpt>
<trkpt lat="52.954152" lon="05.980916"><ele>35.2</ele><time>2021-03-19T09:50:34Z</time><name>PT1753</name></trkpt>
<trkpt lat="52.954145" lon="05.980927"><ele>34.9</ele><time>2021-03-19T09:50:35Z</time><name>PT1754</name></trkpt>
<trkpt lat="52.954134" lon="05.980942"><ele>34.9</ele><time>2021-03-19T09:50:36Z</time><name>PT1755</name></trkpt>
<trkpt lat="52.954119" lon="05.980959"><ele>34.9</ele><time>2021-03-19T09:50:37Z</time><name>PT1756</name></trkpt>
<trkpt lat="52.954105" lon="05.980976"><ele>35</ele><time>2021-03-19T09:50:38Z</time><name>PT1757</name></trkpt>
<trkpt lat="52.954095" lon="05.980987"><ele>34.8</ele><time>2021-03-19T09:50:39Z</time><name>PT1758</name></trkpt>
<trkpt lat="52.954084" lon="05.980996"><ele>34.9</ele><time>2021-03-19T09:50:40Z</time><name>PT1759</name></trkpt>
<trkpt lat="52.954073" lon="05.981005"><ele>34.9</ele><time>2021-03-19T09:50:41Z</time><name>PT1760</name></trkpt>
<trkpt lat="52.954062" lon="05.981014"><ele>35</ele><time>2021-03-19T09:50:42Z</time><name>PT1761</name></trkpt>
<trkpt lat="52.954053" lon="05.981034"><ele>34.9</ele><time>2021-03-19T09:50:43Z</time><name>PT1762</name></trkpt>
<trkpt lat="52.954046" lon="05.981047"><ele>35.1</ele><time>2021-03-19T09:50:44Z</time><name>PT1763</name></trkpt>
<trkpt lat="52.954039" lon="05.981059"><ele>35.2</ele><time>2021-03-19T09:50:45Z</time><name>PT1764</name></trkpt>
<trkpt lat="52.954034" lon="05.981064"><ele>35</ele><time>2021-03-19T09:50:46Z</time><name>PT1765</name></trkpt>
<trkpt lat="52.954025" lon="05.981072"><ele>34.9</ele><time>2021-03-19T09:50:47Z</time><name>PT1766</name></trkpt>
<trkpt lat="52.954013" lon="05.981086"><ele>34.9</ele><time>2021-03-19T09:50:48Z</time><name>PT1767</name></trkpt>
<trkpt lat="52.953999" lon="05.981101"><ele>34.9</ele><time>2021-03-19T09:50:49Z</time><name>PT1768</name></trkpt>
<trkpt lat="52.953988" lon="05.981113"><ele>35</ele><time>2021-03-19T09:50:50Z</time><name>PT1769</name></trkpt>
<trkpt lat="52.953976" lon="05.981124"><ele>34.9</ele><time>2021-03-19T09:50:51Z</time><name>PT1770</name></trkpt>
<trkpt lat="52.953964" lon="05.981139"><ele>34.9</ele><time>2021-03-19T09:50:52Z</time><name>PT1771</name></trkpt>
<trkpt lat="52.953955" lon="05.981150"><ele>34.9</ele><time>2021-03-19T09:50:53Z</time><name>PT1772</name></trkpt>
<trkpt lat="52.953946" lon="05.981155"><ele>35</ele><time>2021-03-19T09:50:54Z</time><name>PT1773</name></trkpt>
<trkpt lat="52.953938" lon="05.981166"><ele>34.9</ele><time>2021-03-19T09:50:55Z</time><name>PT1774</name></trkpt>
<trkpt lat="52.953929" lon="05.981178"><ele>35</ele><time>2021-03-19T09:50:56Z</time><name>PT1775</name></trkpt>
<trkpt lat="52.953920" lon="05.981191"><ele>35.1</ele><time>2021-03-19T09:50:57Z</time><name>PT1776</name></trkpt>
<trkpt lat="52.953906" lon="05.981204"><ele>35.2</ele><time>2021-03-19T09:50:58Z</time><name>PT1777</name></trkpt>
<trkpt lat="52.953896" lon="05.981215"><ele>35</ele><time>2021-03-19T09:50:59Z</time><name>PT1778</name></trkpt>
<trkpt lat="52.953890" lon="05.981220"><ele>35</ele><time>2021-03-19T09:51:00Z</time><name>PT1779</name></trkpt>
<trkpt lat="52.953884" lon="05.981228"><ele>35.1</ele><time>2021-03-19T09:51:01Z</time><name>PT1780</name></trkpt>
<trkpt lat="52.953873" lon="05.981240"><ele>35.1</ele><time>2021-03-19T09:51:02Z</time><name>PT1781</name></trkpt>
<trkpt lat="52.953866" lon="05.981246"><ele>35</ele><time>2021-03-19T09:51:03Z</time><name>PT1782</name></trkpt>
<trkpt lat="52.953857" lon="05.981258"><ele>35.1</ele><time>2021-03-19T09:51:04Z</time><name>PT1783</name></trkpt>
<trkpt lat="52.953847" lon="05.981272"><ele>35</ele><time>2021-03-19T09:51:05Z</time><name>PT1784</name></trkpt>
<trkpt lat="52.953839" lon="05.981284"><ele>35</ele><time>2021-03-19T09:51:06Z</time><name>PT1785</name></trkpt>
<trkpt lat="52.953827" lon="05.981294"><ele>35</ele><time>2021-03-19T09:51:07Z</time><name>PT1786</name></trkpt>
<trkpt lat="52.953819" lon="05.981304"><ele>34.9</ele><time>2021-03-19T09:51:08Z</time><name>PT1787</name></trkpt>
<trkpt lat="52.953811" lon="05.981316"><ele>34.9</ele><time>2021-03-19T09:51:09Z</time><name>PT1788</name></trkpt>
<trkpt lat="52.953801" lon="05.981329"><ele>34.9</ele><time>2021-03-19T09:51:10Z</time><name>PT1789</name></trkpt>
<trkpt lat="52.953784" lon="05.981338"><ele>34.7</ele><time>2021-03-19T09:51:11Z</time><name>PT1790</name></trkpt>
<trkpt lat="52.953772" lon="05.981345"><ele>34.8</ele><time>2021-03-19T09:51:12Z</time><name>PT1791</name></trkpt>
<trkpt lat="52.953758" lon="05.981355"><ele>34.9</ele><time>2021-03-19T09:51:13Z</time><name>PT1792</name></trkpt>
<trkpt lat="52.953744" lon="05.981368"><ele>35</ele><time>2021-03-19T09:51:14Z</time><name>PT1793</name></trkpt>
<trkpt lat="52.953733" lon="05.981383"><ele>35.2</ele><time>2021-03-19T09:51:15Z</time><name>PT1794</name></trkpt>
<trkpt lat="52.953724" lon="05.981399"><ele>35.1</ele><time>2021-03-19T09:51:16Z</time><name>PT1795</name></trkpt>
<trkpt lat="52.953712" lon="05.981414"><ele>35.3</ele><time>2021-03-19T09:51:17Z</time><name>PT1796</name></trkpt>
<trkpt lat="52.953704" lon="05.981423"><ele>35.2</ele><time>2021-03-19T09:51:18Z</time><name>PT1797</name></trkpt>
<trkpt lat="52.953697" lon="05.981429"><ele>34.9</ele><time>2021-03-19T09:51:19Z</time><name>PT1798</name></trkpt>
<trkpt lat="52.953688" lon="05.981438"><ele>35</ele><time>2021-03-19T09:51:20Z</time><name>PT1799</name></trkpt>
<trkpt lat="52.953675" lon="05.981451"><ele>34.9</ele><time>2021-03-19T09:51:21Z</time><name>PT1800</name></trkpt>
<trkpt lat="52.953669" lon="05.981457"><ele>34.9</ele><time>2021-03-19T09:51:22Z</time><name>PT1801</name></trkpt>
<trkpt lat="52.953663" lon="05.981462"><ele>35.2</ele><time>2021-03-19T09:51:23Z</time><name>PT1802</name></trkpt>
<trkpt lat="52.953654" lon="05.981469"><ele>35.2</ele><time>2021-03-19T09:51:24Z</time><name>PT1803</name></trkpt>
<trkpt lat="52.953645" lon="05.981478"><ele>35.4</ele><time>2021-03-19T09:51:25Z</time><name>PT1804</name></trkpt>
<trkpt lat="52.953639" lon="05.981482"><ele>35.5</ele><time>2021-03-19T09:51:26Z</time><name>PT1805</name></trkpt>
<trkpt lat="52.953626" lon="05.981493"><ele>35.4</ele><time>2021-03-19T09:51:27Z</time><name>PT1806</name></trkpt>
<trkpt lat="52.953616" lon="05.981500"><ele>35.4</ele><time>2021-03-19T09:51:28Z</time><name>PT1807</name></trkpt>
<trkpt lat="52.953609" lon="05.981508"><ele>35.4</ele><time>2021-03-19T09:51:29Z</time><name>PT1808</name></trkpt>
<trkpt lat="52.953600" lon="05.981521"><ele>35.5</ele><time>2021-03-19T09:51:30Z</time><name>PT1809</name></trkpt>
<trkpt lat="52.953592" lon="05.981537"><ele>35.5</ele><time>2021-03-19T09:51:31Z</time><name>PT1810</name></trkpt>
<trkpt lat="52.953588" lon="05.981548"><ele>35.5</ele><time>2021-03-19T09:51:32Z</time><name>PT1811</name></trkpt>
<trkpt lat="52.953580" lon="05.981558"><ele>35.5</ele><time>2021-03-19T09:51:33Z</time><name>PT1812</name></trkpt>
<trkpt lat="52.953565" lon="05.981570"><ele>35.4</ele><time>2021-03-19T09:51:34Z</time><name>PT1813</name></trkpt>
<trkpt lat="52.953555" lon="05.981574"><ele>35.3</ele><time>2021-03-19T09:51:35Z</time><name>PT1814</name></trkpt>
<trkpt lat="52.953543" lon="05.981584"><ele>35.1</ele><time>2021-03-19T09:51:36Z</time><name>PT1815</name></trkpt>
<trkpt lat="52.953531" lon="05.981596"><ele>34.9</ele><time>2021-03-19T09:51:37Z</time><name>PT1816</name></trkpt>
<trkpt lat="52.953518" lon="05.981607"><ele>34.9</ele><time>2021-03-19T09:51:38Z</time><name>PT1817</name></trkpt>
<trkpt lat="52.953509" lon="05.981617"><ele>34.9</ele><time>2021-03-19T09:51:39Z</time><name>PT1818</name></trkpt>
<trkpt lat="52.953503" lon="05.981627"><ele>35.1</ele><time>2021-03-19T09:51:40Z</time><name>PT1819</name></trkpt>
<trkpt lat="52.953497" lon="05.981638"><ele>35.4</ele><time>2021-03-19T09:51:41Z</time><name>PT1820</name></trkpt>
<trkpt lat="52.953489" lon="05.981648"><ele>35.5</ele><time>2021-03-19T09:51:42Z</time><name>PT1821</name></trkpt>
<trkpt lat="52.953479" lon="05.981659"><ele>35.6</ele><time>2021-03-19T09:51:43Z</time><name>PT1822</name></trkpt>
<trkpt lat="52.953469" lon="05.981671"><ele>35.5</ele><time>2021-03-19T09:51:44Z</time><name>PT1823</name></trkpt>
<trkpt lat="52.953459" lon="05.981682"><ele>35.5</ele><time>2021-03-19T09:51:45Z</time><name>PT1824</name></trkpt>
<trkpt lat="52.953446" lon="05.981697"><ele>35.4</ele><time>2021-03-19T09:51:46Z</time><name>PT1825</name></trkpt>
<trkpt lat="52.953435" lon="05.981710"><ele>35.5</ele><time>2021-03-19T09:51:47Z</time><name>PT1826</name></trkpt>
<trkpt lat="52.953423" lon="05.981720"><ele>35.5</ele><time>2021-03-19T09:51:48Z</time><name>PT1827</name></trkpt>
<trkpt lat="52.953407" lon="05.981729"><ele>35.4</ele><time>2021-03-19T09:51:49Z</time><name>PT1828</name></trkpt>
<trkpt lat="52.953395" lon="05.981742"><ele>35.5</ele><time>2021-03-19T09:51:50Z</time><name>PT1829</name></trkpt>
<trkpt lat="52.953385" lon="05.981757"><ele>35.5</ele><time>2021-03-19T09:51:51Z</time><name>PT1830</name></trkpt>
<trkpt lat="52.953376" lon="05.981769"><ele>35.5</ele><time>2021-03-19T09:51:52Z</time><name>PT1831</name></trkpt>
<trkpt lat="52.953369" lon="05.981777"><ele>35.6</ele><time>2021-03-19T09:51:53Z</time><name>PT1832</name></trkpt>
<trkpt lat="52.953358" lon="05.981787"><ele>35.6</ele><time>2021-03-19T09:51:54Z</time><name>PT1833</name></trkpt>
<trkpt lat="52.953351" lon="05.981796"><ele>35.7</ele><time>2021-03-19T09:51:55Z</time><name>PT1834</name></trkpt>
<trkpt lat="52.953341" lon="05.981803"><ele>35.6</ele><time>2021-03-19T09:51:56Z</time><name>PT1835</name></trkpt>
<trkpt lat="52.953333" lon="05.981813"><ele>35.8</ele><time>2021-03-19T09:51:57Z</time><name>PT1836</name></trkpt>
<trkpt lat="52.953322" lon="05.981819"><ele>35.9</ele><time>2021-03-19T09:51:58Z</time><name>PT1837</name></trkpt>
<trkpt lat="52.953310" lon="05.981825"><ele>35.8</ele><time>2021-03-19T09:51:59Z</time><name>PT1838</name></trkpt>
<trkpt lat="52.953299" lon="05.981830"><ele>35.7</ele><time>2021-03-19T09:52:00Z</time><name>PT1839</name></trkpt>
<trkpt lat="52.953290" lon="05.981834"><ele>35.5</ele><time>2021-03-19T09:52:01Z</time><name>PT1840</name></trkpt>
<trkpt lat="52.953279" lon="05.981839"><ele>35.3</ele><time>2021-03-19T09:52:02Z</time><name>PT1841</name></trkpt>
<trkpt lat="52.953271" lon="05.981845"><ele>35.3</ele><time>2021-03-19T09:52:03Z</time><name>PT1842</name></trkpt>
<trkpt lat="52.953260" lon="05.981853"><ele>35.4</ele><time>2021-03-19T09:52:04Z</time><name>PT1843</name></trkpt>
<trkpt lat="52.953248" lon="05.981860"><ele>35.4</ele><time>2021-03-19T09:52:05Z</time><name>PT1844</name></trkpt>
<trkpt lat="52.953237" lon="05.981867"><ele>35.4</ele><time>2021-03-19T09:52:06Z</time><name>PT1845</name></trkpt>
<trkpt lat="52.953228" lon="05.981871"><ele>35.3</ele><time>2021-03-19T09:52:07Z</time><name>PT1846</name></trkpt>
<trkpt lat="52.953219" lon="05.981875"><ele>35.4</ele><time>2021-03-19T09:52:08Z</time><name>PT1847</name></trkpt>
<trkpt lat="52.953210" lon="05.981887"><ele>35.2</ele><time>2021-03-19T09:52:09Z</time><name>PT1848</name></trkpt>
<trkpt lat="52.953205" lon="05.981896"><ele>35.3</ele><time>2021-03-19T09:52:10Z</time><name>PT1849</name></trkpt>
<trkpt lat="52.953196" lon="05.981909"><ele>35.4</ele><time>2021-03-19T09:52:11Z</time><name>PT1850</name></trkpt>
<trkpt lat="52.953188" lon="05.981918"><ele>35.4</ele><time>2021-03-19T09:52:12Z</time><name>PT1851</name></trkpt>
<trkpt lat="52.953179" lon="05.981925"><ele>35.4</ele><time>2021-03-19T09:52:13Z</time><name>PT1852</name></trkpt>
<trkpt lat="52.953171" lon="05.981933"><ele>35.5</ele><time>2021-03-19T09:52:14Z</time><name>PT1853</name></trkpt>
<trkpt lat="52.953161" lon="05.981942"><ele>35.4</ele><time>2021-03-19T09:52:15Z</time><name>PT1854</name></trkpt>
<trkpt lat="52.953153" lon="05.981947"><ele>35.5</ele><time>2021-03-19T09:52:16Z</time><name>PT1855</name></trkpt>
<trkpt lat="52.953143" lon="05.981954"><ele>35.6</ele><time>2021-03-19T09:52:17Z</time><name>PT1856</name></trkpt>
<trkpt lat="52.953133" lon="05.981956"><ele>35.7</ele><time>2021-03-19T09:52:18Z</time><name>PT1857</name></trkpt>
<trkpt lat="52.953123" lon="05.981960"><ele>35.6</ele><time>2021-03-19T09:52:19Z</time><name>PT1858</name></trkpt>
<trkpt lat="52.953115" lon="05.981959"><ele>35.7</ele><time>2021-03-19T09:52:20Z</time><name>PT1859</name></trkpt>
<trkpt lat="52.953105" lon="05.981955"><ele>35.7</ele><time>2021-03-19T09:52:21Z</time><name>PT1860</name></trkpt>
<trkpt lat="52.953096" lon="05.981946"><ele>35.6</ele><time>2021-03-19T09:52:22Z</time><name>PT1861</name></trkpt>
<trkpt lat="52.953088" lon="05.981940"><ele>35.8</ele><time>2021-03-19T09:52:23Z</time><name>PT1862</name></trkpt>
<trkpt lat="52.953080" lon="05.981934"><ele>35.8</ele><time>2021-03-19T09:52:24Z</time><name>PT1863</name></trkpt>
<trkpt lat="52.953071" lon="05.981928"><ele>35.9</ele><time>2021-03-19T09:52:25Z</time><name>PT1864</name></trkpt>
<trkpt lat="52.953065" lon="05.981922"><ele>35.9</ele><time>2021-03-19T09:52:26Z</time><name>PT1865</name></trkpt>
<trkpt lat="52.953056" lon="05.981916"><ele>35.9</ele><time>2021-03-19T09:52:27Z</time><name>PT1866</name></trkpt>
<trkpt lat="52.953046" lon="05.981912"><ele>35.9</ele><time>2021-03-19T09:52:28Z</time><name>PT1867</name></trkpt>
<trkpt lat="52.953036" lon="05.981908"><ele>35.9</ele><time>2021-03-19T09:52:29Z</time><name>PT1868</name></trkpt>
<trkpt lat="52.953029" lon="05.981901"><ele>35.8</ele><time>2021-03-19T09:52:30Z</time><name>PT1869</name></trkpt>
<trkpt lat="52.953021" lon="05.981899"><ele>35.8</ele><time>2021-03-19T09:52:31Z</time><name>PT1870</name></trkpt>
<trkpt lat="52.953014" lon="05.981895"><ele>35.8</ele><time>2021-03-19T09:52:32Z</time><name>PT1871</name></trkpt>
<trkpt lat="52.953009" lon="05.981890"><ele>35.8</ele><time>2021-03-19T09:52:33Z</time><name>PT1872</name></trkpt>
<trkpt lat="52.953000" lon="05.981887"><ele>36</ele><time>2021-03-19T09:52:34Z</time><name>PT1873</name></trkpt>
<trkpt lat="52.952993" lon="05.981886"><ele>36.3</ele><time>2021-03-19T09:52:35Z</time><name>PT1874</name></trkpt>
<trkpt lat="52.952984" lon="05.981883"><ele>36.3</ele><time>2021-03-19T09:52:36Z</time><name>PT1875</name></trkpt>
<trkpt lat="52.952981" lon="05.981880"><ele>36.3</ele><time>2021-03-19T09:52:37Z</time><name>PT1876</name></trkpt>
<trkpt lat="52.952980" lon="05.981876"><ele>36.3</ele><time>2021-03-19T09:52:38Z</time><name>PT1877</name></trkpt>
<trkpt lat="52.952980" lon="05.981874"><ele>36.3</ele><time>2021-03-19T09:52:39Z</time><name>PT1878</name></trkpt>
<trkpt lat="52.952980" lon="05.981874"><ele>36.5</ele><time>2021-03-19T09:52:40Z</time><name>PT1879</name></trkpt>
<trkpt lat="52.952981" lon="05.981874"><ele>36.4</ele><time>2021-03-19T09:52:41Z</time><name>PT1880</name></trkpt>
<trkpt lat="52.952982" lon="05.981875"><ele>36.4</ele><time>2021-03-19T09:52:42Z</time><name>PT1881</name></trkpt>
<trkpt lat="52.952975" lon="05.981878"><ele>36.2</ele><time>2021-03-19T09:53:02Z</time><name>PT1882</name></trkpt>
<trkpt lat="52.952967" lon="05.981879"><ele>36</ele><time>2021-03-19T09:53:03Z</time><name>PT1883</name></trkpt>
<trkpt lat="52.952964" lon="05.981879"><ele>36</ele><time>2021-03-19T09:53:04Z</time><name>PT1884</name></trkpt>
<trkpt lat="52.952963" lon="05.981875"><ele>36.3</ele><time>2021-03-19T09:53:13Z</time><name>PT1885</name></trkpt>
<trkpt lat="52.952955" lon="05.981871"><ele>36.1</ele><time>2021-03-19T09:53:14Z</time><name>PT1886</name></trkpt>
<trkpt lat="52.952951" lon="05.981866"><ele>36.1</ele><time>2021-03-19T09:53:15Z</time><name>PT1887</name></trkpt>
<trkpt lat="52.952948" lon="05.981847"><ele>36.1</ele><time>2021-03-19T09:53:16Z</time><name>PT1888</name></trkpt>
<trkpt lat="52.952947" lon="05.981835"><ele>36</ele><time>2021-03-19T09:53:17Z</time><name>PT1889</name></trkpt>
<trkpt lat="52.952948" lon="05.981823"><ele>36.1</ele><time>2021-03-19T09:53:18Z</time><name>PT1890</name></trkpt>
<trkpt lat="52.952947" lon="05.981813"><ele>36.2</ele><time>2021-03-19T09:53:19Z</time><name>PT1891</name></trkpt>
<trkpt lat="52.952944" lon="05.981811"><ele>36.3</ele><time>2021-03-19T09:53:20Z</time><name>PT1892</name></trkpt>
<trkpt lat="52.952940" lon="05.981811"><ele>36.3</ele><time>2021-03-19T09:53:21Z</time><name>PT1893</name></trkpt>
<trkpt lat="52.952936" lon="05.981810"><ele>36.4</ele><time>2021-03-19T09:53:22Z</time><name>PT1894</name></trkpt>
<trkpt lat="52.952934" lon="05.981810"><ele>36.4</ele><time>2021-03-19T09:53:23Z</time><name>PT1895</name></trkpt>
<trkpt lat="52.952931" lon="05.981819"><ele>36.5</ele><time>2021-03-19T09:53:26Z</time><name>PT1896</name></trkpt>
<trkpt lat="52.952939" lon="05.981802"><ele>36.4</ele><time>2021-03-19T09:53:27Z</time><name>PT1897</name></trkpt>
<trkpt lat="52.952943" lon="05.981794"><ele>36.3</ele><time>2021-03-19T09:53:28Z</time><name>PT1898</name></trkpt>
<trkpt lat="52.952945" lon="05.981776"><ele>36</ele><time>2021-03-19T09:53:29Z</time><name>PT1899</name></trkpt>
<trkpt lat="52.952948" lon="05.981762"><ele>36</ele><time>2021-03-19T09:53:30Z</time><name>PT1900</name></trkpt>
<trkpt lat="52.952951" lon="05.981749"><ele>36.3</ele><time>2021-03-19T09:53:31Z</time><name>PT1901</name></trkpt>
<trkpt lat="52.952951" lon="05.981733"><ele>36.3</ele><time>2021-03-19T09:53:32Z</time><name>PT1902</name></trkpt>
<trkpt lat="52.952949" lon="05.981720"><ele>36.3</ele><time>2021-03-19T09:53:33Z</time><name>PT1903</name></trkpt>
<trkpt lat="52.952951" lon="05.981702"><ele>36.3</ele><time>2021-03-19T09:53:34Z</time><name>PT1904</name></trkpt>
<trkpt lat="52.952951" lon="05.981686"><ele>36.1</ele><time>2021-03-19T09:53:35Z</time><name>PT1905</name></trkpt>
<trkpt lat="52.952951" lon="05.981670"><ele>36.3</ele><time>2021-03-19T09:53:36Z</time><name>PT1906</name></trkpt>
<trkpt lat="52.952953" lon="05.981655"><ele>36.3</ele><time>2021-03-19T09:53:37Z</time><name>PT1907</name></trkpt>
<trkpt lat="52.952953" lon="05.981639"><ele>36.4</ele><time>2021-03-19T09:53:38Z</time><name>PT1908</name></trkpt>
<trkpt lat="52.952955" lon="05.981623"><ele>36.5</ele><time>2021-03-19T09:53:39Z</time><name>PT1909</name></trkpt>
<trkpt lat="52.952954" lon="05.981608"><ele>36.4</ele><time>2021-03-19T09:53:40Z</time><name>PT1910</name></trkpt>
<trkpt lat="52.952951" lon="05.981595"><ele>36.3</ele><time>2021-03-19T09:53:41Z</time><name>PT1911</name></trkpt>
<trkpt lat="52.952948" lon="05.981577"><ele>36.3</ele><time>2021-03-19T09:53:42Z</time><name>PT1912</name></trkpt>
<trkpt lat="52.952945" lon="05.981565"><ele>36.3</ele><time>2021-03-19T09:53:43Z</time><name>PT1913</name></trkpt>
<trkpt lat="52.952943" lon="05.981551"><ele>36.5</ele><time>2021-03-19T09:53:44Z</time><name>PT1914</name></trkpt>
<trkpt lat="52.952941" lon="05.981539"><ele>36.6</ele><time>2021-03-19T09:53:45Z</time><name>PT1915</name></trkpt>
<trkpt lat="52.952937" lon="05.981525"><ele>36.7</ele><time>2021-03-19T09:53:46Z</time><name>PT1916</name></trkpt>
<trkpt lat="52.952933" lon="05.981510"><ele>36.6</ele><time>2021-03-19T09:53:47Z</time><name>PT1917</name></trkpt>
<trkpt lat="52.952933" lon="05.981495"><ele>36.6</ele><time>2021-03-19T09:53:48Z</time><name>PT1918</name></trkpt>
<trkpt lat="52.952931" lon="05.981483"><ele>36.5</ele><time>2021-03-19T09:53:49Z</time><name>PT1919</name></trkpt>
<trkpt lat="52.952929" lon="05.981464"><ele>36.5</ele><time>2021-03-19T09:53:50Z</time><name>PT1920</name></trkpt>
<trkpt lat="52.952925" lon="05.981444"><ele>36.4</ele><time>2021-03-19T09:53:51Z</time><name>PT1921</name></trkpt>
<trkpt lat="52.952922" lon="05.981422"><ele>36.3</ele><time>2021-03-19T09:53:52Z</time><name>PT1922</name></trkpt>
<trkpt lat="52.952920" lon="05.981407"><ele>36.3</ele><time>2021-03-19T09:53:53Z</time><name>PT1923</name></trkpt>
<trkpt lat="52.952917" lon="05.981388"><ele>36.3</ele><time>2021-03-19T09:53:54Z</time><name>PT1924</name></trkpt>
<trkpt lat="52.952913" lon="05.981371"><ele>36.2</ele><time>2021-03-19T09:53:55Z</time><name>PT1925</name></trkpt>
<trkpt lat="52.952908" lon="05.981352"><ele>36.3</ele><time>2021-03-19T09:53:56Z</time><name>PT1926</name></trkpt>
<trkpt lat="52.952907" lon="05.981335"><ele>36.3</ele><time>2021-03-19T09:53:57Z</time><name>PT1927</name></trkpt>
<trkpt lat="52.952905" lon="05.981321"><ele>36.2</ele><time>2021-03-19T09:53:58Z</time><name>PT1928</name></trkpt>
<trkpt lat="52.952904" lon="05.981305"><ele>36.4</ele><time>2021-03-19T09:53:59Z</time><name>PT1929</name></trkpt>
<trkpt lat="52.952906" lon="05.981290"><ele>36.5</ele><time>2021-03-19T09:54:00Z</time><name>PT1930</name></trkpt>
<trkpt lat="52.952904" lon="05.981271"><ele>36.3</ele><time>2021-03-19T09:54:01Z</time><name>PT1931</name></trkpt>
<trkpt lat="52.952906" lon="05.981257"><ele>36.5</ele><time>2021-03-19T09:54:02Z</time><name>PT1932</name></trkpt>
<trkpt lat="52.952907" lon="05.981240"><ele>36.6</ele><time>2021-03-19T09:54:03Z</time><name>PT1933</name></trkpt>
<trkpt lat="52.952907" lon="05.981221"><ele>36.5</ele><time>2021-03-19T09:54:04Z</time><name>PT1934</name></trkpt>
<trkpt lat="52.952907" lon="05.981207"><ele>36.6</ele><time>2021-03-19T09:54:05Z</time><name>PT1935</name></trkpt>
<trkpt lat="52.952907" lon="05.981191"><ele>36.5</ele><time>2021-03-19T09:54:06Z</time><name>PT1936</name></trkpt>
<trkpt lat="52.952904" lon="05.981171"><ele>36.4</ele><time>2021-03-19T09:54:07Z</time><name>PT1937</name></trkpt>
<trkpt lat="52.952901" lon="05.981147"><ele>36.5</ele><time>2021-03-19T09:54:08Z</time><name>PT1938</name></trkpt>
<trkpt lat="52.952898" lon="05.981127"><ele>36.3</ele><time>2021-03-19T09:54:09Z</time><name>PT1939</name></trkpt>
<trkpt lat="52.952897" lon="05.981109"><ele>36.4</ele><time>2021-03-19T09:54:10Z</time><name>PT1940</name></trkpt>
<trkpt lat="52.952899" lon="05.981088"><ele>36.6</ele><time>2021-03-19T09:54:11Z</time><name>PT1941</name></trkpt>
<trkpt lat="52.952900" lon="05.981071"><ele>36.5</ele><time>2021-03-19T09:54:12Z</time><name>PT1942</name></trkpt>
<trkpt lat="52.952901" lon="05.981053"><ele>36.6</ele><time>2021-03-19T09:54:13Z</time><name>PT1943</name></trkpt>
<trkpt lat="52.952905" lon="05.981037"><ele>36.3</ele><time>2021-03-19T09:54:14Z</time><name>PT1944</name></trkpt>
<trkpt lat="52.952906" lon="05.981023"><ele>36.2</ele><time>2021-03-19T09:54:15Z</time><name>PT1945</name></trkpt>
<trkpt lat="52.952913" lon="05.981012"><ele>35.9</ele><time>2021-03-19T09:54:16Z</time><name>PT1946</name></trkpt>
<trkpt lat="52.952915" lon="05.981001"><ele>35.8</ele><time>2021-03-19T09:54:17Z</time><name>PT1947</name></trkpt>
<trkpt lat="52.952915" lon="05.980991"><ele>35.8</ele><time>2021-03-19T09:54:18Z</time><name>PT1948</name></trkpt>
<trkpt lat="52.952915" lon="05.980982"><ele>36</ele><time>2021-03-19T09:54:19Z</time><name>PT1949</name></trkpt>
<trkpt lat="52.952911" lon="05.980973"><ele>36.1</ele><time>2021-03-19T09:54:33Z</time><name>PT1950</name></trkpt>
<trkpt lat="52.952905" lon="05.980962"><ele>36.2</ele><time>2021-03-19T09:54:34Z</time><name>PT1951</name></trkpt>
<trkpt lat="52.952899" lon="05.980951"><ele>36.1</ele><time>2021-03-19T09:54:35Z</time><name>PT1952</name></trkpt>
<trkpt lat="52.952895" lon="05.980940"><ele>36.2</ele><time>2021-03-19T09:54:36Z</time><name>PT1953</name></trkpt>
<trkpt lat="52.952890" lon="05.980927"><ele>36.2</ele><time>2021-03-19T09:54:37Z</time><name>PT1954</name></trkpt>
<trkpt lat="52.952882" lon="05.980912"><ele>36.2</ele><time>2021-03-19T09:54:38Z</time><name>PT1955</name></trkpt>
<trkpt lat="52.952883" lon="05.980898"><ele>36.2</ele><time>2021-03-19T09:54:39Z</time><name>PT1956</name></trkpt>
<trkpt lat="52.952882" lon="05.980882"><ele>36.1</ele><time>2021-03-19T09:54:40Z</time><name>PT1957</name></trkpt>
<trkpt lat="52.952878" lon="05.980870"><ele>35.9</ele><time>2021-03-19T09:54:41Z</time><name>PT1958</name></trkpt>
<trkpt lat="52.952877" lon="05.980856"><ele>36.1</ele><time>2021-03-19T09:54:42Z</time><name>PT1959</name></trkpt>
<trkpt lat="52.952876" lon="05.980844"><ele>35.8</ele><time>2021-03-19T09:54:43Z</time><name>PT1960</name></trkpt>
<trkpt lat="52.952874" lon="05.980833"><ele>36</ele><time>2021-03-19T09:54:44Z</time><name>PT1961</name></trkpt>
<trkpt lat="52.952871" lon="05.980824"><ele>35.9</ele><time>2021-03-19T09:54:45Z</time><name>PT1962</name></trkpt>
<trkpt lat="52.952869" lon="05.980815"><ele>36.1</ele><time>2021-03-19T09:54:46Z</time><name>PT1963</name></trkpt>
<trkpt lat="52.952868" lon="05.980807"><ele>36.4</ele><time>2021-03-19T09:54:47Z</time><name>PT1964</name></trkpt>
<trkpt lat="52.952866" lon="05.980804"><ele>36.5</ele><time>2021-03-19T09:54:48Z</time><name>PT1965</name></trkpt>
<trkpt lat="52.952865" lon="05.980803"><ele>36.6</ele><time>2021-03-19T09:54:49Z</time><name>PT1966</name></trkpt>
<trkpt lat="52.952865" lon="05.980801"><ele>36.5</ele><time>2021-03-19T09:54:50Z</time><name>PT1967</name></trkpt>
<trkpt lat="52.952859" lon="05.980798"><ele>36.3</ele><time>2021-03-19T09:54:52Z</time><name>PT1968</name></trkpt>
<trkpt lat="52.952857" lon="05.980786"><ele>36.3</ele><time>2021-03-19T09:54:53Z</time><name>PT1969</name></trkpt>
<trkpt lat="52.952852" lon="05.980782"><ele>36.3</ele><time>2021-03-19T09:54:54Z</time><name>PT1970</name></trkpt>
<trkpt lat="52.952848" lon="05.980776"><ele>36.4</ele><time>2021-03-19T09:54:55Z</time><name>PT1971</name></trkpt>
<trkpt lat="52.952841" lon="05.980768"><ele>36.4</ele><time>2021-03-19T09:54:56Z</time><name>PT1972</name></trkpt>
<trkpt lat="52.952834" lon="05.980757"><ele>36.4</ele><time>2021-03-19T09:54:57Z</time><name>PT1973</name></trkpt>
<trkpt lat="52.952831" lon="05.980739"><ele>36.3</ele><time>2021-03-19T09:54:58Z</time><name>PT1974</name></trkpt>
<trkpt lat="52.952828" lon="05.980731"><ele>36.1</ele><time>2021-03-19T09:54:59Z</time><name>PT1975</name></trkpt>
<trkpt lat="52.952828" lon="05.980716"><ele>36.3</ele><time>2021-03-19T09:55:00Z</time><name>PT1976</name></trkpt>
<trkpt lat="52.952826" lon="05.980712"><ele>36.3</ele><time>2021-03-19T09:55:01Z</time><name>PT1977</name></trkpt>
<trkpt lat="52.952824" lon="05.980711"><ele>36.5</ele><time>2021-03-19T09:55:02Z</time><name>PT1978</name></trkpt>
<trkpt lat="52.952822" lon="05.980700"><ele>36.5</ele><time>2021-03-19T09:55:03Z</time><name>PT1979</name></trkpt>
<trkpt lat="52.952820" lon="05.980694"><ele>36.4</ele><time>2021-03-19T09:55:06Z</time><name>PT1980</name></trkpt>
<trkpt lat="52.952817" lon="05.980683"><ele>36.7</ele><time>2021-03-19T09:55:07Z</time><name>PT1981</name></trkpt>
<trkpt lat="52.952812" lon="05.980668"><ele>36.7</ele><time>2021-03-19T09:55:08Z</time><name>PT1982</name></trkpt>
<trkpt lat="52.952806" lon="05.980656"><ele>36.7</ele><time>2021-03-19T09:55:09Z</time><name>PT1983</name></trkpt>
<trkpt lat="52.952804" lon="05.980642"><ele>36.9</ele><time>2021-03-19T09:55:10Z</time><name>PT1984</name></trkpt>
<trkpt lat="52.952801" lon="05.980626"><ele>36.7</ele><time>2021-03-19T09:55:11Z</time><name>PT1985</name></trkpt>
<trkpt lat="52.952800" lon="05.980610"><ele>36.9</ele><time>2021-03-19T09:55:12Z</time><name>PT1986</name></trkpt>
<trkpt lat="52.952802" lon="05.980588"><ele>36.9</ele><time>2021-03-19T09:55:13Z</time><name>PT1987</name></trkpt>
<trkpt lat="52.952799" lon="05.980572"><ele>36.7</ele><time>2021-03-19T09:55:14Z</time><name>PT1988</name></trkpt>
<trkpt lat="52.952794" lon="05.980558"><ele>36.9</ele><time>2021-03-19T09:55:15Z</time><name>PT1989</name></trkpt>
<trkpt lat="52.952790" lon="05.980546"><ele>36.7</ele><time>2021-03-19T09:55:16Z</time><name>PT1990</name></trkpt>
<trkpt lat="52.952792" lon="05.980536"><ele>36.3</ele><time>2021-03-19T09:55:17Z</time><name>PT1991</name></trkpt>
<trkpt lat="52.952790" lon="05.980530"><ele>36.4</ele><time>2021-03-19T09:55:18Z</time><name>PT1992</name></trkpt>
<trkpt lat="52.952783" lon="05.980517"><ele>36.3</ele><time>2021-03-19T09:55:19Z</time><name>PT1993</name></trkpt>
<trkpt lat="52.952777" lon="05.980500"><ele>36.5</ele><time>2021-03-19T09:55:20Z</time><name>PT1994</name></trkpt>
<trkpt lat="52.952768" lon="05.980482"><ele>36.7</ele><time>2021-03-19T09:55:21Z</time><name>PT1995</name></trkpt>
<trkpt lat="52.952759" lon="05.980467"><ele>36.7</ele><time>2021-03-19T09:55:22Z</time><name>PT1996</name></trkpt>
<trkpt lat="52.952750" lon="05.980450"><ele>36.7</ele><time>2021-03-19T09:55:23Z</time><name>PT1997</name></trkpt>
<trkpt lat="52.952742" lon="05.980434"><ele>36.7</ele><time>2021-03-19T09:55:24Z</time><name>PT1998</name></trkpt>
<trkpt lat="52.952735" lon="05.980416"><ele>36.6</ele><time>2021-03-19T09:55:25Z</time><name>PT1999</name></trkpt>
<trkpt lat="52.952733" lon="05.980399"><ele>36.6</ele><time>2021-03-19T09:55:26Z</time><name>PT2000</name></trkpt>
<trkpt lat="52.952729" lon="05.980378"><ele>36.5</ele><time>2021-03-19T09:55:27Z</time><name>PT2001</name></trkpt>
<trkpt lat="52.952725" lon="05.980357"><ele>36.7</ele><time>2021-03-19T09:55:28Z</time><name>PT2002</name></trkpt>
<trkpt lat="52.952723" lon="05.980335"><ele>36.8</ele><time>2021-03-19T09:55:29Z</time><name>PT2003</name></trkpt>
<trkpt lat="52.952719" lon="05.980315"><ele>36.9</ele><time>2021-03-19T09:55:30Z</time><name>PT2004</name></trkpt>
<trkpt lat="52.952717" lon="05.980294"><ele>36.9</ele><time>2021-03-19T09:55:31Z</time><name>PT2005</name></trkpt>
<trkpt lat="52.952715" lon="05.980273"><ele>36.8</ele><time>2021-03-19T09:55:32Z</time><name>PT2006</name></trkpt>
<trkpt lat="52.952714" lon="05.980254"><ele>36.8</ele><time>2021-03-19T09:55:33Z</time><name>PT2007</name></trkpt>
<trkpt lat="52.952712" lon="05.980233"><ele>36.9</ele><time>2021-03-19T09:55:34Z</time><name>PT2008</name></trkpt>
<trkpt lat="52.952706" lon="05.980223"><ele>36.7</ele><time>2021-03-19T09:55:35Z</time><name>PT2009</name></trkpt>
<trkpt lat="52.952700" lon="05.980211"><ele>36.9</ele><time>2021-03-19T09:55:36Z</time><name>PT2010</name></trkpt>
<trkpt lat="52.952697" lon="05.980198"><ele>36.7</ele><time>2021-03-19T09:55:37Z</time><name>PT2011</name></trkpt>
<trkpt lat="52.952694" lon="05.980187"><ele>36.5</ele><time>2021-03-19T09:55:38Z</time><name>PT2012</name></trkpt>
<trkpt lat="52.952692" lon="05.980174"><ele>36.4</ele><time>2021-03-19T09:55:39Z</time><name>PT2013</name></trkpt>
<trkpt lat="52.952688" lon="05.980157"><ele>36.3</ele><time>2021-03-19T09:55:40Z</time><name>PT2014</name></trkpt>
<trkpt lat="52.952681" lon="05.980133"><ele>36.4</ele><time>2021-03-19T09:55:41Z</time><name>PT2015</name></trkpt>
<trkpt lat="52.952676" lon="05.980118"><ele>36.3</ele><time>2021-03-19T09:55:42Z</time><name>PT2016</name></trkpt>
<trkpt lat="52.952673" lon="05.980101"><ele>36.3</ele><time>2021-03-19T09:55:43Z</time><name>PT2017</name></trkpt>
<trkpt lat="52.952670" lon="05.980080"><ele>36.2</ele><time>2021-03-19T09:55:44Z</time><name>PT2018</name></trkpt>
<trkpt lat="52.952665" lon="05.980062"><ele>36.2</ele><time>2021-03-19T09:55:45Z</time><name>PT2019</name></trkpt>
<trkpt lat="52.952663" lon="05.980040"><ele>36.2</ele><time>2021-03-19T09:55:46Z</time><name>PT2020</name></trkpt>
<trkpt lat="52.952661" lon="05.980016"><ele>36.2</ele><time>2021-03-19T09:55:47Z</time><name>PT2021</name></trkpt>
<trkpt lat="52.952659" lon="05.979996"><ele>36.3</ele><time>2021-03-19T09:55:48Z</time><name>PT2022</name></trkpt>
<trkpt lat="52.952655" lon="05.979975"><ele>36.3</ele><time>2021-03-19T09:55:49Z</time><name>PT2023</name></trkpt>
<trkpt lat="52.952652" lon="05.979958"><ele>36.3</ele><time>2021-03-19T09:55:50Z</time><name>PT2024</name></trkpt>
<trkpt lat="52.952648" lon="05.979940"><ele>36.3</ele><time>2021-03-19T09:55:51Z</time><name>PT2025</name></trkpt>
<trkpt lat="52.952646" lon="05.979919"><ele>36.4</ele><time>2021-03-19T09:55:52Z</time><name>PT2026</name></trkpt>
<trkpt lat="52.952642" lon="05.979899"><ele>36.5</ele><time>2021-03-19T09:55:53Z</time><name>PT2027</name></trkpt>
<trkpt lat="52.952637" lon="05.979883"><ele>36.7</ele><time>2021-03-19T09:55:54Z</time><name>PT2028</name></trkpt>
<trkpt lat="52.952632" lon="05.979866"><ele>36.8</ele><time>2021-03-19T09:55:55Z</time><name>PT2029</name></trkpt>
<trkpt lat="52.952629" lon="05.979846"><ele>36.8</ele><time>2021-03-19T09:55:56Z</time><name>PT2030</name></trkpt>
<trkpt lat="52.952625" lon="05.979826"><ele>36.7</ele><time>2021-03-19T09:55:57Z</time><name>PT2031</name></trkpt>
<trkpt lat="52.952620" lon="05.979809"><ele>36.9</ele><time>2021-03-19T09:55:58Z</time><name>PT2032</name></trkpt>
<trkpt lat="52.952616" lon="05.979785"><ele>36.7</ele><time>2021-03-19T09:55:59Z</time><name>PT2033</name></trkpt>
<trkpt lat="52.952613" lon="05.979768"><ele>36.5</ele><time>2021-03-19T09:56:00Z</time><name>PT2034</name></trkpt>
<trkpt lat="52.952610" lon="05.979751"><ele>36.3</ele><time>2021-03-19T09:56:01Z</time><name>PT2035</name></trkpt>
<trkpt lat="52.952609" lon="05.979734"><ele>36.2</ele><time>2021-03-19T09:56:02Z</time><name>PT2036</name></trkpt>
<trkpt lat="52.952606" lon="05.979712"><ele>36.2</ele><time>2021-03-19T09:56:03Z</time><name>PT2037</name></trkpt>
<trkpt lat="52.952605" lon="05.979693"><ele>36.1</ele><time>2021-03-19T09:56:04Z</time><name>PT2038</name></trkpt>
<trkpt lat="52.952601" lon="05.979671"><ele>36.3</ele><time>2021-03-19T09:56:05Z</time><name>PT2039</name></trkpt>
<trkpt lat="52.952596" lon="05.979645"><ele>36.3</ele><time>2021-03-19T09:56:06Z</time><name>PT2040</name></trkpt>
<trkpt lat="52.952590" lon="05.979620"><ele>36.6</ele><time>2021-03-19T09:56:07Z</time><name>PT2041</name></trkpt>
<trkpt lat="52.952586" lon="05.979601"><ele>36.7</ele><time>2021-03-19T09:56:08Z</time><name>PT2042</name></trkpt>
<trkpt lat="52.952583" lon="05.979583"><ele>36.7</ele><time>2021-03-19T09:56:09Z</time><name>PT2043</name></trkpt>
<trkpt lat="52.952581" lon="05.979564"><ele>36.7</ele><time>2021-03-19T09:56:10Z</time><name>PT2044</name></trkpt>
<trkpt lat="52.952580" lon="05.979547"><ele>36.6</ele><time>2021-03-19T09:56:11Z</time><name>PT2045</name></trkpt>
<trkpt lat="52.952578" lon="05.979529"><ele>36.4</ele><time>2021-03-19T09:56:12Z</time><name>PT2046</name></trkpt>
<trkpt lat="52.952575" lon="05.979509"><ele>36.2</ele><time>2021-03-19T09:56:13Z</time><name>PT2047</name></trkpt>
<trkpt lat="52.952574" lon="05.979489"><ele>36.1</ele><time>2021-03-19T09:56:14Z</time><name>PT2048</name></trkpt>
<trkpt lat="52.952570" lon="05.979473"><ele>36.1</ele><time>2021-03-19T09:56:15Z</time><name>PT2049</name></trkpt>
<trkpt lat="52.952565" lon="05.979456"><ele>36.3</ele><time>2021-03-19T09:56:16Z</time><name>PT2050</name></trkpt>
<trkpt lat="52.952560" lon="05.979438"><ele>36.4</ele><time>2021-03-19T09:56:17Z</time><name>PT2051</name></trkpt>
<trkpt lat="52.952556" lon="05.979416"><ele>36.5</ele><time>2021-03-19T09:56:18Z</time><name>PT2052</name></trkpt>
<trkpt lat="52.952554" lon="05.979404"><ele>36.6</ele><time>2021-03-19T09:56:19Z</time><name>PT2053</name></trkpt>
<trkpt lat="52.952551" lon="05.979386"><ele>36.5</ele><time>2021-03-19T09:56:20Z</time><name>PT2054</name></trkpt>
<trkpt lat="52.952547" lon="05.979370"><ele>36.5</ele><time>2021-03-19T09:56:21Z</time><name>PT2055</name></trkpt>
<trkpt lat="52.952543" lon="05.979348"><ele>36.3</ele><time>2021-03-19T09:56:22Z</time><name>PT2056</name></trkpt>
<trkpt lat="52.952542" lon="05.979324"><ele>36.4</ele><time>2021-03-19T09:56:23Z</time><name>PT2057</name></trkpt>
<trkpt lat="52.952540" lon="05.979307"><ele>36.3</ele><time>2021-03-19T09:56:24Z</time><name>PT2058</name></trkpt>
<trkpt lat="52.952536" lon="05.979291"><ele>36.3</ele><time>2021-03-19T09:56:25Z</time><name>PT2059</name></trkpt>
<trkpt lat="52.952531" lon="05.979267"><ele>36.5</ele><time>2021-03-19T09:56:26Z</time><name>PT2060</name></trkpt>
<trkpt lat="52.952528" lon="05.979256"><ele>36.5</ele><time>2021-03-19T09:56:27Z</time><name>PT2061</name></trkpt>
<trkpt lat="52.952523" lon="05.979240"><ele>36.6</ele><time>2021-03-19T09:56:28Z</time><name>PT2062</name></trkpt>
<trkpt lat="52.952517" lon="05.979222"><ele>36.5</ele><time>2021-03-19T09:56:29Z</time><name>PT2063</name></trkpt>
<trkpt lat="52.952514" lon="05.979204"><ele>36.7</ele><time>2021-03-19T09:56:30Z</time><name>PT2064</name></trkpt>
<trkpt lat="52.952511" lon="05.979183"><ele>36.6</ele><time>2021-03-19T09:56:31Z</time><name>PT2065</name></trkpt>
<trkpt lat="52.952507" lon="05.979169"><ele>36.3</ele><time>2021-03-19T09:56:32Z</time><name>PT2066</name></trkpt>
<trkpt lat="52.952503" lon="05.979145"><ele>36.4</ele><time>2021-03-19T09:56:33Z</time><name>PT2067</name></trkpt>
<trkpt lat="52.952500" lon="05.979127"><ele>36.5</ele><time>2021-03-19T09:56:34Z</time><name>PT2068</name></trkpt>
<trkpt lat="52.952496" lon="05.979110"><ele>36.3</ele><time>2021-03-19T09:56:35Z</time><name>PT2069</name></trkpt>
<trkpt lat="52.952491" lon="05.979094"><ele>36.4</ele><time>2021-03-19T09:56:36Z</time><name>PT2070</name></trkpt>
<trkpt lat="52.952486" lon="05.979073"><ele>36.4</ele><time>2021-03-19T09:56:37Z</time><name>PT2071</name></trkpt>
<trkpt lat="52.952483" lon="05.979056"><ele>36.3</ele><time>2021-03-19T09:56:38Z</time><name>PT2072</name></trkpt>
<trkpt lat="52.952480" lon="05.979034"><ele>36.3</ele><time>2021-03-19T09:56:39Z</time><name>PT2073</name></trkpt>
<trkpt lat="52.952478" lon="05.979014"><ele>36.3</ele><time>2021-03-19T09:56:40Z</time><name>PT2074</name></trkpt>
<trkpt lat="52.952476" lon="05.978992"><ele>36.3</ele><time>2021-03-19T09:56:41Z</time><name>PT2075</name></trkpt>
<trkpt lat="52.952472" lon="05.978976"><ele>36.3</ele><time>2021-03-19T09:56:42Z</time><name>PT2076</name></trkpt>
<trkpt lat="52.952466" lon="05.978957"><ele>36.4</ele><time>2021-03-19T09:56:43Z</time><name>PT2077</name></trkpt>
<trkpt lat="52.952460" lon="05.978937"><ele>36.4</ele><time>2021-03-19T09:56:44Z</time><name>PT2078</name></trkpt>
<trkpt lat="52.952455" lon="05.978914"><ele>36.3</ele><time>2021-03-19T09:56:45Z</time><name>PT2079</name></trkpt>
<trkpt lat="52.952450" lon="05.978895"><ele>36.3</ele><time>2021-03-19T09:56:46Z</time><name>PT2080</name></trkpt>
<trkpt lat="52.952445" lon="05.978875"><ele>36.2</ele><time>2021-03-19T09:56:47Z</time><name>PT2081</name></trkpt>
<trkpt lat="52.952442" lon="05.978854"><ele>36.2</ele><time>2021-03-19T09:56:48Z</time><name>PT2082</name></trkpt>
<trkpt lat="52.952438" lon="05.978837"><ele>36.2</ele><time>2021-03-19T09:56:49Z</time><name>PT2083</name></trkpt>
<trkpt lat="52.952434" lon="05.978814"><ele>36.2</ele><time>2021-03-19T09:56:50Z</time><name>PT2084</name></trkpt>
<trkpt lat="52.952431" lon="05.978797"><ele>36.2</ele><time>2021-03-19T09:56:51Z</time><name>PT2085</name></trkpt>
<trkpt lat="52.952426" lon="05.978784"><ele>36.1</ele><time>2021-03-19T09:56:52Z</time><name>PT2086</name></trkpt>
<trkpt lat="52.952421" lon="05.978768"><ele>36.2</ele><time>2021-03-19T09:56:53Z</time><name>PT2087</name></trkpt>
<trkpt lat="52.952418" lon="05.978752"><ele>36.1</ele><time>2021-03-19T09:56:54Z</time><name>PT2088</name></trkpt>
<trkpt lat="52.952415" lon="05.978737"><ele>36.2</ele><time>2021-03-19T09:56:55Z</time><name>PT2089</name></trkpt>
<trkpt lat="52.952412" lon="05.978719"><ele>36.3</ele><time>2021-03-19T09:56:56Z</time><name>PT2090</name></trkpt>
<trkpt lat="52.952409" lon="05.978698"><ele>36.3</ele><time>2021-03-19T09:56:57Z</time><name>PT2091</name></trkpt>
<trkpt lat="52.952405" lon="05.978682"><ele>36.3</ele><time>2021-03-19T09:56:58Z</time><name>PT2092</name></trkpt>
<trkpt lat="52.952403" lon="05.978664"><ele>36.3</ele><time>2021-03-19T09:56:59Z</time><name>PT2093</name></trkpt>
<trkpt lat="52.952401" lon="05.978651"><ele>36.3</ele><time>2021-03-19T09:57:00Z</time><name>PT2094</name></trkpt>
<trkpt lat="52.952398" lon="05.978640"><ele>36.2</ele><time>2021-03-19T09:57:01Z</time><name>PT2095</name></trkpt>
<trkpt lat="52.952393" lon="05.978624"><ele>36.3</ele><time>2021-03-19T09:57:02Z</time><name>PT2096</name></trkpt>
<trkpt lat="52.952388" lon="05.978608"><ele>36.3</ele><time>2021-03-19T09:57:03Z</time><name>PT2097</name></trkpt>
<trkpt lat="52.952385" lon="05.978597"><ele>36.4</ele><time>2021-03-19T09:57:04Z</time><name>PT2098</name></trkpt>
<trkpt lat="52.952381" lon="05.978585"><ele>36.4</ele><time>2021-03-19T09:57:05Z</time><name>PT2099</name></trkpt>
<trkpt lat="52.952378" lon="05.978573"><ele>36.5</ele><time>2021-03-19T09:57:06Z</time><name>PT2100</name></trkpt>
<trkpt lat="52.952375" lon="05.978550"><ele>36.4</ele><time>2021-03-19T09:57:07Z</time><name>PT2101</name></trkpt>
<trkpt lat="52.952373" lon="05.978526"><ele>36.4</ele><time>2021-03-19T09:57:08Z</time><name>PT2102</name></trkpt>
<trkpt lat="52.952370" lon="05.978506"><ele>36.4</ele><time>2021-03-19T09:57:09Z</time><name>PT2103</name></trkpt>
<trkpt lat="52.952369" lon="05.978487"><ele>36.2</ele><time>2021-03-19T09:57:10Z</time><name>PT2104</name></trkpt>
<trkpt lat="52.952366" lon="05.978470"><ele>36.2</ele><time>2021-03-19T09:57:11Z</time><name>PT2105</name></trkpt>
<trkpt lat="52.952363" lon="05.978450"><ele>36.2</ele><time>2021-03-19T09:57:12Z</time><name>PT2106</name></trkpt>
<trkpt lat="52.952359" lon="05.978435"><ele>36.1</ele><time>2021-03-19T09:57:13Z</time><name>PT2107</name></trkpt>
<trkpt lat="52.952354" lon="05.978422"><ele>36.3</ele><time>2021-03-19T09:57:14Z</time><name>PT2108</name></trkpt>
<trkpt lat="52.952351" lon="05.978398"><ele>36.4</ele><time>2021-03-19T09:57:15Z</time><name>PT2109</name></trkpt>
<trkpt lat="52.952348" lon="05.978379"><ele>36.4</ele><time>2021-03-19T09:57:16Z</time><name>PT2110</name></trkpt>
<trkpt lat="52.952347" lon="05.978356"><ele>36.5</ele><time>2021-03-19T09:57:17Z</time><name>PT2111</name></trkpt>
<trkpt lat="52.952345" lon="05.978336"><ele>36.5</ele><time>2021-03-19T09:57:18Z</time><name>PT2112</name></trkpt>
<trkpt lat="52.952344" lon="05.978317"><ele>36.5</ele><time>2021-03-19T09:57:19Z</time><name>PT2113</name></trkpt>
<trkpt lat="52.952343" lon="05.978294"><ele>36.5</ele><time>2021-03-19T09:57:20Z</time><name>PT2114</name></trkpt>
<trkpt lat="52.952338" lon="05.978277"><ele>36.5</ele><time>2021-03-19T09:57:21Z</time><name>PT2115</name></trkpt>
<trkpt lat="52.952333" lon="05.978259"><ele>36.3</ele><time>2021-03-19T09:57:22Z</time><name>PT2116</name></trkpt>
<trkpt lat="52.952327" lon="05.978238"><ele>36.3</ele><time>2021-03-19T09:57:23Z</time><name>PT2117</name></trkpt>
<trkpt lat="52.952322" lon="05.978219"><ele>36.3</ele><time>2021-03-19T09:57:24Z</time><name>PT2118</name></trkpt>
<trkpt lat="52.952316" lon="05.978199"><ele>36.3</ele><time>2021-03-19T09:57:25Z</time><name>PT2119</name></trkpt>
<trkpt lat="52.952312" lon="05.978175"><ele>36.4</ele><time>2021-03-19T09:57:26Z</time><name>PT2120</name></trkpt>
<trkpt lat="52.952307" lon="05.978151"><ele>36.4</ele><time>2021-03-19T09:57:27Z</time><name>PT2121</name></trkpt>
<trkpt lat="52.952302" lon="05.978129"><ele>36.4</ele><time>2021-03-19T09:57:28Z</time><name>PT2122</name></trkpt>
<trkpt lat="52.952298" lon="05.978106"><ele>36.4</ele><time>2021-03-19T09:57:29Z</time><name>PT2123</name></trkpt>
<trkpt lat="52.952294" lon="05.978087"><ele>36.4</ele><time>2021-03-19T09:57:30Z</time><name>PT2124</name></trkpt>
<trkpt lat="52.952289" lon="05.978069"><ele>36.4</ele><time>2021-03-19T09:57:31Z</time><name>PT2125</name></trkpt>
<trkpt lat="52.952283" lon="05.978051"><ele>36.6</ele><time>2021-03-19T09:57:32Z</time><name>PT2126</name></trkpt>
<trkpt lat="52.952278" lon="05.978036"><ele>36.5</ele><time>2021-03-19T09:57:33Z</time><name>PT2127</name></trkpt>
<trkpt lat="52.952273" lon="05.978018"><ele>36.5</ele><time>2021-03-19T09:57:34Z</time><name>PT2128</name></trkpt>
<trkpt lat="52.952268" lon="05.978013"><ele>36.3</ele><time>2021-03-19T09:57:35Z</time><name>PT2129</name></trkpt>
<trkpt lat="52.952266" lon="05.977994"><ele>36.2</ele><time>2021-03-19T09:57:36Z</time><name>PT2130</name></trkpt>
<trkpt lat="52.952262" lon="05.977972"><ele>35.9</ele><time>2021-03-19T09:57:37Z</time><name>PT2131</name></trkpt>
<trkpt lat="52.952257" lon="05.977954"><ele>35.8</ele><time>2021-03-19T09:57:38Z</time><name>PT2132</name></trkpt>
<trkpt lat="52.952253" lon="05.977933"><ele>35.8</ele><time>2021-03-19T09:57:39Z</time><name>PT2133</name></trkpt>
<trkpt lat="52.952247" lon="05.977915"><ele>35.8</ele><time>2021-03-19T09:57:40Z</time><name>PT2134</name></trkpt>
<trkpt lat="52.952244" lon="05.977895"><ele>35.9</ele><time>2021-03-19T09:57:41Z</time><name>PT2135</name></trkpt>
<trkpt lat="52.952241" lon="05.977876"><ele>35.8</ele><time>2021-03-19T09:57:42Z</time><name>PT2136</name></trkpt>
<trkpt lat="52.952237" lon="05.977858"><ele>35.9</ele><time>2021-03-19T09:57:43Z</time><name>PT2137</name></trkpt>
<trkpt lat="52.952235" lon="05.977842"><ele>36.1</ele><time>2021-03-19T09:57:44Z</time><name>PT2138</name></trkpt>
<trkpt lat="52.952230" lon="05.977828"><ele>36.1</ele><time>2021-03-19T09:57:45Z</time><name>PT2139</name></trkpt>
<trkpt lat="52.952225" lon="05.977807"><ele>36</ele><time>2021-03-19T09:57:46Z</time><name>PT2140</name></trkpt>
<trkpt lat="52.952219" lon="05.977798"><ele>36</ele><time>2021-03-19T09:57:47Z</time><name>PT2141</name></trkpt>
<trkpt lat="52.952214" lon="05.977785"><ele>36.1</ele><time>2021-03-19T09:57:48Z</time><name>PT2142</name></trkpt>
<trkpt lat="52.952210" lon="05.977776"><ele>36.1</ele><time>2021-03-19T09:57:49Z</time><name>PT2143</name></trkpt>
<trkpt lat="52.952204" lon="05.977770"><ele>36.2</ele><time>2021-03-19T09:57:50Z</time><name>PT2144</name></trkpt>
<trkpt lat="52.952198" lon="05.977765"><ele>36.3</ele><time>2021-03-19T09:57:51Z</time><name>PT2145</name></trkpt>
<trkpt lat="52.952193" lon="05.977761"><ele>36.1</ele><time>2021-03-19T09:57:52Z</time><name>PT2146</name></trkpt>
<trkpt lat="52.952189" lon="05.977760"><ele>36</ele><time>2021-03-19T09:57:53Z</time><name>PT2147</name></trkpt>
<trkpt lat="52.952184" lon="05.977759"><ele>36.1</ele><time>2021-03-19T09:57:54Z</time><name>PT2148</name></trkpt>
<trkpt lat="52.952180" lon="05.977759"><ele>36</ele><time>2021-03-19T09:57:55Z</time><name>PT2149</name></trkpt>
<trkpt lat="52.952179" lon="05.977758"><ele>35.9</ele><time>2021-03-19T09:57:56Z</time><name>PT2150</name></trkpt>
<trkpt lat="52.952177" lon="05.977758"><ele>35.8</ele><time>2021-03-19T09:57:57Z</time><name>PT2151</name></trkpt>
<trkpt lat="52.952175" lon="05.977759"><ele>35.8</ele><time>2021-03-19T09:57:58Z</time><name>PT2152</name></trkpt>
<trkpt lat="52.952173" lon="05.977759"><ele>35.6</ele><time>2021-03-19T09:57:59Z</time><name>PT2153</name></trkpt>
<trkpt lat="52.952170" lon="05.977758"><ele>35.5</ele><time>2021-03-19T09:58:00Z</time><name>PT2154</name></trkpt>
<trkpt lat="52.952169" lon="05.977752"><ele>35.6</ele><time>2021-03-19T09:58:01Z</time><name>PT2155</name></trkpt>
<trkpt lat="52.952167" lon="05.977751"><ele>35.7</ele><time>2021-03-19T09:58:02Z</time><name>PT2156</name></trkpt>
<trkpt lat="52.952166" lon="05.977753"><ele>35.8</ele><time>2021-03-19T09:58:03Z</time><name>PT2157</name></trkpt>
<trkpt lat="52.952163" lon="05.977758"><ele>35.8</ele><time>2021-03-19T09:58:04Z</time><name>PT2158</name></trkpt>
<trkpt lat="52.952160" lon="05.977761"><ele>35.8</ele><time>2021-03-19T09:58:05Z</time><name>PT2159</name></trkpt>
<trkpt lat="52.952158" lon="05.977766"><ele>35.7</ele><time>2021-03-19T09:58:06Z</time><name>PT2160</name></trkpt>
<trkpt lat="52.952153" lon="05.977771"><ele>35.6</ele><time>2021-03-19T09:58:07Z</time><name>PT2161</name></trkpt>
<trkpt lat="52.952149" lon="05.977779"><ele>35.5</ele><time>2021-03-19T09:58:08Z</time><name>PT2162</name></trkpt>
<trkpt lat="52.952142" lon="05.977789"><ele>35.5</ele><time>2021-03-19T09:58:09Z</time><name>PT2163</name></trkpt>
<trkpt lat="52.952131" lon="05.977797"><ele>35.8</ele><time>2021-03-19T09:58:10Z</time><name>PT2164</name></trkpt>
<trkpt lat="52.952120" lon="05.977802"><ele>35.8</ele><time>2021-03-19T09:58:11Z</time><name>PT2165</name></trkpt>
<trkpt lat="52.952109" lon="05.977809"><ele>35.7</ele><time>2021-03-19T09:58:12Z</time><name>PT2166</name></trkpt>
<trkpt lat="52.952100" lon="05.977820"><ele>35.5</ele><time>2021-03-19T09:58:13Z</time><name>PT2167</name></trkpt>
<trkpt lat="52.952089" lon="05.977833"><ele>35.4</ele><time>2021-03-19T09:58:14Z</time><name>PT2168</name></trkpt>
<trkpt lat="52.952079" lon="05.977844"><ele>35.4</ele><time>2021-03-19T09:58:15Z</time><name>PT2169</name></trkpt>
<trkpt lat="52.952070" lon="05.977848"><ele>35.3</ele><time>2021-03-19T09:58:16Z</time><name>PT2170</name></trkpt>
<trkpt lat="52.952062" lon="05.977855"><ele>35.4</ele><time>2021-03-19T09:58:17Z</time><name>PT2171</name></trkpt>
<trkpt lat="52.952051" lon="05.977867"><ele>35.4</ele><time>2021-03-19T09:58:18Z</time><name>PT2172</name></trkpt>
<trkpt lat="52.952039" lon="05.977878"><ele>35.3</ele><time>2021-03-19T09:58:19Z</time><name>PT2173</name></trkpt>
<trkpt lat="52.952028" lon="05.977889"><ele>35.2</ele><time>2021-03-19T09:58:20Z</time><name>PT2174</name></trkpt>
<trkpt lat="52.952017" lon="05.977901"><ele>35</ele><time>2021-03-19T09:58:21Z</time><name>PT2175</name></trkpt>
<trkpt lat="52.952005" lon="05.977914"><ele>35</ele><time>2021-03-19T09:58:22Z</time><name>PT2176</name></trkpt>
<trkpt lat="52.951993" lon="05.977925"><ele>34.9</ele><time>2021-03-19T09:58:23Z</time><name>PT2177</name></trkpt>
<trkpt lat="52.951984" lon="05.977935"><ele>34.9</ele><time>2021-03-19T09:58:24Z</time><name>PT2178</name></trkpt>
<trkpt lat="52.951973" lon="05.977941"><ele>34.9</ele><time>2021-03-19T09:58:25Z</time><name>PT2179</name></trkpt>
<trkpt lat="52.951963" lon="05.977948"><ele>34.7</ele><time>2021-03-19T09:58:26Z</time><name>PT2180</name></trkpt>
<trkpt lat="52.951952" lon="05.977957"><ele>34.7</ele><time>2021-03-19T09:58:27Z</time><name>PT2181</name></trkpt>
<trkpt lat="52.951940" lon="05.977966"><ele>34.6</ele><time>2021-03-19T09:58:28Z</time><name>PT2182</name></trkpt>
<trkpt lat="52.951931" lon="05.977976"><ele>34.6</ele><time>2021-03-19T09:58:29Z</time><name>PT2183</name></trkpt>
<trkpt lat="52.951919" lon="05.977988"><ele>34.6</ele><time>2021-03-19T09:58:30Z</time><name>PT2184</name></trkpt>
<trkpt lat="52.951910" lon="05.978001"><ele>34.5</ele><time>2021-03-19T09:58:31Z</time><name>PT2185</name></trkpt>
<trkpt lat="52.951901" lon="05.978012"><ele>34.8</ele><time>2021-03-19T09:58:32Z</time><name>PT2186</name></trkpt>
<trkpt lat="52.951893" lon="05.978021"><ele>34.7</ele><time>2021-03-19T09:58:33Z</time><name>PT2187</name></trkpt>
<trkpt lat="52.951886" lon="05.978031"><ele>34.9</ele><time>2021-03-19T09:58:34Z</time><name>PT2188</name></trkpt>
<trkpt lat="52.951877" lon="05.978039"><ele>35.1</ele><time>2021-03-19T09:58:35Z</time><name>PT2189</name></trkpt>
<trkpt lat="52.951868" lon="05.978045"><ele>35.1</ele><time>2021-03-19T09:58:36Z</time><name>PT2190</name></trkpt>
<trkpt lat="52.951857" lon="05.978054"><ele>34.9</ele><time>2021-03-19T09:58:37Z</time><name>PT2191</name></trkpt>
<trkpt lat="52.951845" lon="05.978062"><ele>34.7</ele><time>2021-03-19T09:58:38Z</time><name>PT2192</name></trkpt>
<trkpt lat="52.951835" lon="05.978072"><ele>34.6</ele><time>2021-03-19T09:58:39Z</time><name>PT2193</name></trkpt>
<trkpt lat="52.951825" lon="05.978076"><ele>34.5</ele><time>2021-03-19T09:58:40Z</time><name>PT2194</name></trkpt>
<trkpt lat="52.951815" lon="05.978085"><ele>34.4</ele><time>2021-03-19T09:58:41Z</time><name>PT2195</name></trkpt>
<trkpt lat="52.951803" lon="05.978097"><ele>34.4</ele><time>2021-03-19T09:58:42Z</time><name>PT2196</name></trkpt>
<trkpt lat="52.951792" lon="05.978106"><ele>34.6</ele><time>2021-03-19T09:58:43Z</time><name>PT2197</name></trkpt>
<trkpt lat="52.951782" lon="05.978120"><ele>34.4</ele><time>2021-03-19T09:58:44Z</time><name>PT2198</name></trkpt>
<trkpt lat="52.951774" lon="05.978133"><ele>34.5</ele><time>2021-03-19T09:58:45Z</time><name>PT2199</name></trkpt>
<trkpt lat="52.951765" lon="05.978143"><ele>34.5</ele><time>2021-03-19T09:58:46Z</time><name>PT2200</name></trkpt>
<trkpt lat="52.951757" lon="05.978153"><ele>34.3</ele><time>2021-03-19T09:58:47Z</time><name>PT2201</name></trkpt>
<trkpt lat="52.951747" lon="05.978164"><ele>34.5</ele><time>2021-03-19T09:58:48Z</time><name>PT2202</name></trkpt>
<trkpt lat="52.951739" lon="05.978176"><ele>34.5</ele><time>2021-03-19T09:58:49Z</time><name>PT2203</name></trkpt>
<trkpt lat="52.951729" lon="05.978185"><ele>34.5</ele><time>2021-03-19T09:58:50Z</time><name>PT2204</name></trkpt>
<trkpt lat="52.951716" lon="05.978192"><ele>34.5</ele><time>2021-03-19T09:58:51Z</time><name>PT2205</name></trkpt>
<trkpt lat="52.951704" lon="05.978199"><ele>34.5</ele><time>2021-03-19T09:58:52Z</time><name>PT2206</name></trkpt>
<trkpt lat="52.951693" lon="05.978206"><ele>34.4</ele><time>2021-03-19T09:58:53Z</time><name>PT2207</name></trkpt>
<trkpt lat="52.951682" lon="05.978214"><ele>34.5</ele><time>2021-03-19T09:58:54Z</time><name>PT2208</name></trkpt>
<trkpt lat="52.951672" lon="05.978220"><ele>34.5</ele><time>2021-03-19T09:58:55Z</time><name>PT2209</name></trkpt>
<trkpt lat="52.951662" lon="05.978229"><ele>34.4</ele><time>2021-03-19T09:58:56Z</time><name>PT2210</name></trkpt>
<trkpt lat="52.951652" lon="05.978242"><ele>34.4</ele><time>2021-03-19T09:58:57Z</time><name>PT2211</name></trkpt>
<trkpt lat="52.951643" lon="05.978252"><ele>34.5</ele><time>2021-03-19T09:58:58Z</time><name>PT2212</name></trkpt>
<trkpt lat="52.951633" lon="05.978267"><ele>34.5</ele><time>2021-03-19T09:58:59Z</time><name>PT2213</name></trkpt>
<trkpt lat="52.951624" lon="05.978280"><ele>34.5</ele><time>2021-03-19T09:59:00Z</time><name>PT2214</name></trkpt>
<trkpt lat="52.951612" lon="05.978292"><ele>34.9</ele><time>2021-03-19T09:59:01Z</time><name>PT2215</name></trkpt>
<trkpt lat="52.951601" lon="05.978304"><ele>34.7</ele><time>2021-03-19T09:59:02Z</time><name>PT2216</name></trkpt>
<trkpt lat="52.951591" lon="05.978315"><ele>34.6</ele><time>2021-03-19T09:59:03Z</time><name>PT2217</name></trkpt>
<trkpt lat="52.951580" lon="05.978323"><ele>34.7</ele><time>2021-03-19T09:59:04Z</time><name>PT2218</name></trkpt>
<trkpt lat="52.951569" lon="05.978329"><ele>34.6</ele><time>2021-03-19T09:59:05Z</time><name>PT2219</name></trkpt>
<trkpt lat="52.951560" lon="05.978335"><ele>34.5</ele><time>2021-03-19T09:59:06Z</time><name>PT2220</name></trkpt>
<trkpt lat="52.951552" lon="05.978338"><ele>34.3</ele><time>2021-03-19T09:59:07Z</time><name>PT2221</name></trkpt>
<trkpt lat="52.951542" lon="05.978349"><ele>34.4</ele><time>2021-03-19T09:59:08Z</time><name>PT2222</name></trkpt>
<trkpt lat="52.951532" lon="05.978357"><ele>34.4</ele><time>2021-03-19T09:59:09Z</time><name>PT2223</name></trkpt>
<trkpt lat="52.951520" lon="05.978367"><ele>34.5</ele><time>2021-03-19T09:59:10Z</time><name>PT2224</name></trkpt>
<trkpt lat="52.951511" lon="05.978377"><ele>34.8</ele><time>2021-03-19T09:59:11Z</time><name>PT2225</name></trkpt>
<trkpt lat="52.951502" lon="05.978384"><ele>34.8</ele><time>2021-03-19T09:59:12Z</time><name>PT2226</name></trkpt>
<trkpt lat="52.951494" lon="05.978389"><ele>34.9</ele><time>2021-03-19T09:59:13Z</time><name>PT2227</name></trkpt>
<trkpt lat="52.951483" lon="05.978397"><ele>34.7</ele><time>2021-03-19T09:59:14Z</time><name>PT2228</name></trkpt>
<trkpt lat="52.951472" lon="05.978404"><ele>34.5</ele><time>2021-03-19T09:59:15Z</time><name>PT2229</name></trkpt>
<trkpt lat="52.951462" lon="05.978412"><ele>34.6</ele><time>2021-03-19T09:59:16Z</time><name>PT2230</name></trkpt>
<trkpt lat="52.951455" lon="05.978421"><ele>34.6</ele><time>2021-03-19T09:59:17Z</time><name>PT2231</name></trkpt>
<trkpt lat="52.951448" lon="05.978428"><ele>34.6</ele><time>2021-03-19T09:59:18Z</time><name>PT2232</name></trkpt>
<trkpt lat="52.951440" lon="05.978437"><ele>34.8</ele><time>2021-03-19T09:59:19Z</time><name>PT2233</name></trkpt>
<trkpt lat="52.951431" lon="05.978453"><ele>34.7</ele><time>2021-03-19T09:59:20Z</time><name>PT2234</name></trkpt>
<trkpt lat="52.951423" lon="05.978463"><ele>34.8</ele><time>2021-03-19T09:59:21Z</time><name>PT2235</name></trkpt>
<trkpt lat="52.951415" lon="05.978474"><ele>34.9</ele><time>2021-03-19T09:59:22Z</time><name>PT2236</name></trkpt>
<trkpt lat="52.951406" lon="05.978484"><ele>34.9</ele><time>2021-03-19T09:59:23Z</time><name>PT2237</name></trkpt>
<trkpt lat="52.951395" lon="05.978496"><ele>34.9</ele><time>2021-03-19T09:59:24Z</time><name>PT2238</name></trkpt>
<trkpt lat="52.951385" lon="05.978504"><ele>34.9</ele><time>2021-03-19T09:59:25Z</time><name>PT2239</name></trkpt>
<trkpt lat="52.951375" lon="05.978512"><ele>34.9</ele><time>2021-03-19T09:59:26Z</time><name>PT2240</name></trkpt>
<trkpt lat="52.951361" lon="05.978519"><ele>34.9</ele><time>2021-03-19T09:59:27Z</time><name>PT2241</name></trkpt>
<trkpt lat="52.951350" lon="05.978531"><ele>34.9</ele><time>2021-03-19T09:59:28Z</time><name>PT2242</name></trkpt>
<trkpt lat="52.951341" lon="05.978546"><ele>34.9</ele><time>2021-03-19T09:59:29Z</time><name>PT2243</name></trkpt>
<trkpt lat="52.951331" lon="05.978560"><ele>34.9</ele><time>2021-03-19T09:59:30Z</time><name>PT2244</name></trkpt>
<trkpt lat="52.951322" lon="05.978573"><ele>35</ele><time>2021-03-19T09:59:31Z</time><name>PT2245</name></trkpt>
<trkpt lat="52.951313" lon="05.978581"><ele>35</ele><time>2021-03-19T09:59:32Z</time><name>PT2246</name></trkpt>
<trkpt lat="52.951303" lon="05.978591"><ele>35.1</ele><time>2021-03-19T09:59:33Z</time><name>PT2247</name></trkpt>
<trkpt lat="52.951293" lon="05.978599"><ele>34.9</ele><time>2021-03-19T09:59:34Z</time><name>PT2248</name></trkpt>
<trkpt lat="52.951280" lon="05.978611"><ele>34.7</ele><time>2021-03-19T09:59:35Z</time><name>PT2249</name></trkpt>
<trkpt lat="52.951268" lon="05.978621"><ele>34.5</ele><time>2021-03-19T09:59:36Z</time><name>PT2250</name></trkpt>
<trkpt lat="52.951260" lon="05.978633"><ele>34.4</ele><time>2021-03-19T09:59:37Z</time><name>PT2251</name></trkpt>
<trkpt lat="52.951248" lon="05.978645"><ele>34.3</ele><time>2021-03-19T09:59:38Z</time><name>PT2252</name></trkpt>
<trkpt lat="52.951234" lon="05.978658"><ele>34.3</ele><time>2021-03-19T09:59:39Z</time><name>PT2253</name></trkpt>
<trkpt lat="52.951225" lon="05.978669"><ele>34.3</ele><time>2021-03-19T09:59:40Z</time><name>PT2254</name></trkpt>
<trkpt lat="52.951218" lon="05.978678"><ele>34.5</ele><time>2021-03-19T09:59:41Z</time><name>PT2255</name></trkpt>
<trkpt lat="52.951209" lon="05.978688"><ele>34.5</ele><time>2021-03-19T09:59:42Z</time><name>PT2256</name></trkpt>
<trkpt lat="52.951195" lon="05.978697"><ele>34.6</ele><time>2021-03-19T09:59:43Z</time><name>PT2257</name></trkpt>
<trkpt lat="52.951185" lon="05.978709"><ele>34.7</ele><time>2021-03-19T09:59:44Z</time><name>PT2258</name></trkpt>
<trkpt lat="52.951174" lon="05.978721"><ele>34.7</ele><time>2021-03-19T09:59:45Z</time><name>PT2259</name></trkpt>
<trkpt lat="52.951166" lon="05.978726"><ele>34.6</ele><time>2021-03-19T09:59:46Z</time><name>PT2260</name></trkpt>
<trkpt lat="52.951155" lon="05.978735"><ele>34.5</ele><time>2021-03-19T09:59:47Z</time><name>PT2261</name></trkpt>
<trkpt lat="52.951144" lon="05.978745"><ele>34.5</ele><time>2021-03-19T09:59:48Z</time><name>PT2262</name></trkpt>
<trkpt lat="52.951134" lon="05.978754"><ele>34.6</ele><time>2021-03-19T09:59:49Z</time><name>PT2263</name></trkpt>
<trkpt lat="52.951124" lon="05.978763"><ele>34.5</ele><time>2021-03-19T09:59:50Z</time><name>PT2264</name></trkpt>
<trkpt lat="52.951114" lon="05.978772"><ele>34.5</ele><time>2021-03-19T09:59:51Z</time><name>PT2265</name></trkpt>
<trkpt lat="52.951105" lon="05.978780"><ele>34.6</ele><time>2021-03-19T09:59:52Z</time><name>PT2266</name></trkpt>
<trkpt lat="52.951093" lon="05.978791"><ele>34.5</ele><time>2021-03-19T09:59:53Z</time><name>PT2267</name></trkpt>
<trkpt lat="52.951082" lon="05.978800"><ele>34.8</ele><time>2021-03-19T09:59:54Z</time><name>PT2268</name></trkpt>
<trkpt lat="52.951073" lon="05.978810"><ele>34.9</ele><time>2021-03-19T09:59:55Z</time><name>PT2269</name></trkpt>
<trkpt lat="52.951062" lon="05.978821"><ele>34.7</ele><time>2021-03-19T09:59:56Z</time><name>PT2270</name></trkpt>
<trkpt lat="52.951052" lon="05.978834"><ele>34.8</ele><time>2021-03-19T09:59:57Z</time><name>PT2271</name></trkpt>
<trkpt lat="52.951044" lon="05.978844"><ele>34.8</ele><time>2021-03-19T09:59:58Z</time><name>PT2272</name></trkpt>
<trkpt lat="52.951036" lon="05.978854"><ele>34.8</ele><time>2021-03-19T09:59:59Z</time><name>PT2273</name></trkpt>
<trkpt lat="52.951025" lon="05.978866"><ele>34.8</ele><time>2021-03-19T10:00:00Z</time><name>PT2274</name></trkpt>
<trkpt lat="52.951017" lon="05.978873"><ele>34.8</ele><time>2021-03-19T10:00:01Z</time><name>PT2275</name></trkpt>
<trkpt lat="52.951010" lon="05.978883"><ele>34.5</ele><time>2021-03-19T10:00:02Z</time><name>PT2276</name></trkpt>
<trkpt lat="52.951001" lon="05.978887"><ele>34.5</ele><time>2021-03-19T10:00:03Z</time><name>PT2277</name></trkpt>
<trkpt lat="52.950991" lon="05.978897"><ele>34.3</ele><time>2021-03-19T10:00:04Z</time><name>PT2278</name></trkpt>
<trkpt lat="52.950984" lon="05.978906"><ele>34.5</ele><time>2021-03-19T10:00:05Z</time><name>PT2279</name></trkpt>
<trkpt lat="52.950976" lon="05.978918"><ele>34.6</ele><time>2021-03-19T10:00:06Z</time><name>PT2280</name></trkpt>
<trkpt lat="52.950966" lon="05.978930"><ele>34.7</ele><time>2021-03-19T10:00:07Z</time><name>PT2281</name></trkpt>
<trkpt lat="52.950957" lon="05.978939"><ele>34.9</ele><time>2021-03-19T10:00:08Z</time><name>PT2282</name></trkpt>
<trkpt lat="52.950947" lon="05.978947"><ele>35</ele><time>2021-03-19T10:00:09Z</time><name>PT2283</name></trkpt>
<trkpt lat="52.950937" lon="05.978964"><ele>34.9</ele><time>2021-03-19T10:00:10Z</time><name>PT2284</name></trkpt>
<trkpt lat="52.950928" lon="05.978970"><ele>34.9</ele><time>2021-03-19T10:00:11Z</time><name>PT2285</name></trkpt>
<trkpt lat="52.950918" lon="05.978980"><ele>34.9</ele><time>2021-03-19T10:00:12Z</time><name>PT2286</name></trkpt>
<trkpt lat="52.950910" lon="05.978983"><ele>34.8</ele><time>2021-03-19T10:00:13Z</time><name>PT2287</name></trkpt>
<trkpt lat="52.950900" lon="05.978996"><ele>34.7</ele><time>2021-03-19T10:00:14Z</time><name>PT2288</name></trkpt>
<trkpt lat="52.950890" lon="05.979009"><ele>34.7</ele><time>2021-03-19T10:00:15Z</time><name>PT2289</name></trkpt>
<trkpt lat="52.950879" lon="05.979018"><ele>34.7</ele><time>2021-03-19T10:00:16Z</time><name>PT2290</name></trkpt>
<trkpt lat="52.950869" lon="05.979029"><ele>34.6</ele><time>2021-03-19T10:00:17Z</time><name>PT2291</name></trkpt>
<trkpt lat="52.950859" lon="05.979035"><ele>34.9</ele><time>2021-03-19T10:00:18Z</time><name>PT2292</name></trkpt>
<trkpt lat="52.950847" lon="05.979049"><ele>34.9</ele><time>2021-03-19T10:00:19Z</time><name>PT2293</name></trkpt>
<trkpt lat="52.950839" lon="05.979054"><ele>35</ele><time>2021-03-19T10:00:20Z</time><name>PT2294</name></trkpt>
<trkpt lat="52.950828" lon="05.979064"><ele>35.1</ele><time>2021-03-19T10:00:21Z</time><name>PT2295</name></trkpt>
<trkpt lat="52.950817" lon="05.979071"><ele>34.9</ele><time>2021-03-19T10:00:22Z</time><name>PT2296</name></trkpt>
<trkpt lat="52.950806" lon="05.979080"><ele>34.8</ele><time>2021-03-19T10:00:23Z</time><name>PT2297</name></trkpt>
<trkpt lat="52.950797" lon="05.979089"><ele>34.9</ele><time>2021-03-19T10:00:24Z</time><name>PT2298</name></trkpt>
<trkpt lat="52.950787" lon="05.979102"><ele>34.8</ele><time>2021-03-19T10:00:25Z</time><name>PT2299</name></trkpt>
<trkpt lat="52.950777" lon="05.979115"><ele>34.8</ele><time>2021-03-19T10:00:26Z</time><name>PT2300</name></trkpt>
<trkpt lat="52.950769" lon="05.979127"><ele>34.8</ele><time>2021-03-19T10:00:27Z</time><name>PT2301</name></trkpt>
<trkpt lat="52.950757" lon="05.979137"><ele>34.7</ele><time>2021-03-19T10:00:28Z</time><name>PT2302</name></trkpt>
<trkpt lat="52.950743" lon="05.979146"><ele>34.7</ele><time>2021-03-19T10:00:29Z</time><name>PT2303</name></trkpt>
<trkpt lat="52.950732" lon="05.979153"><ele>34.8</ele><time>2021-03-19T10:00:30Z</time><name>PT2304</name></trkpt>
<trkpt lat="52.950725" lon="05.979159"><ele>34.9</ele><time>2021-03-19T10:00:31Z</time><name>PT2305</name></trkpt>
<trkpt lat="52.950713" lon="05.979169"><ele>34.9</ele><time>2021-03-19T10:00:32Z</time><name>PT2306</name></trkpt>
<trkpt lat="52.950703" lon="05.979183"><ele>34.8</ele><time>2021-03-19T10:00:33Z</time><name>PT2307</name></trkpt>
<trkpt lat="52.950695" lon="05.979193"><ele>34.7</ele><time>2021-03-19T10:00:34Z</time><name>PT2308</name></trkpt>
<trkpt lat="52.950688" lon="05.979201"><ele>34.8</ele><time>2021-03-19T10:00:35Z</time><name>PT2309</name></trkpt>
<trkpt lat="52.950678" lon="05.979212"><ele>34.8</ele><time>2021-03-19T10:00:36Z</time><name>PT2310</name></trkpt>
<trkpt lat="52.950665" lon="05.979216"><ele>34.7</ele><time>2021-03-19T10:00:37Z</time><name>PT2311</name></trkpt>
<trkpt lat="52.950655" lon="05.979227"><ele>34.8</ele><time>2021-03-19T10:00:38Z</time><name>PT2312</name></trkpt>
<trkpt lat="52.950644" lon="05.979237"><ele>34.8</ele><time>2021-03-19T10:00:39Z</time><name>PT2313</name></trkpt>
<trkpt lat="52.950635" lon="05.979245"><ele>34.8</ele><time>2021-03-19T10:00:40Z</time><name>PT2314</name></trkpt>
<trkpt lat="52.950624" lon="05.979254"><ele>34.9</ele><time>2021-03-19T10:00:41Z</time><name>PT2315</name></trkpt>
<trkpt lat="52.950612" lon="05.979264"><ele>35</ele><time>2021-03-19T10:00:42Z</time><name>PT2316</name></trkpt>
<trkpt lat="52.950602" lon="05.979270"><ele>34.9</ele><time>2021-03-19T10:00:43Z</time><name>PT2317</name></trkpt>
<trkpt lat="52.950595" lon="05.979276"><ele>34.9</ele><time>2021-03-19T10:00:44Z</time><name>PT2318</name></trkpt>
<trkpt lat="52.950585" lon="05.979282"><ele>34.9</ele><time>2021-03-19T10:00:45Z</time><name>PT2319</name></trkpt>
<trkpt lat="52.950579" lon="05.979291"><ele>34.7</ele><time>2021-03-19T10:00:46Z</time><name>PT2320</name></trkpt>
<trkpt lat="52.950571" lon="05.979297"><ele>34.9</ele><time>2021-03-19T10:00:47Z</time><name>PT2321</name></trkpt>
<trkpt lat="52.950563" lon="05.979303"><ele>34.9</ele><time>2021-03-19T10:00:48Z</time><name>PT2322</name></trkpt>
<trkpt lat="52.950556" lon="05.979309"><ele>34.9</ele><time>2021-03-19T10:00:49Z</time><name>PT2323</name></trkpt>
<trkpt lat="52.950546" lon="05.979318"><ele>34.9</ele><time>2021-03-19T10:00:50Z</time><name>PT2324</name></trkpt>
<trkpt lat="52.950536" lon="05.979325"><ele>34.9</ele><time>2021-03-19T10:00:51Z</time><name>PT2325</name></trkpt>
<trkpt lat="52.950525" lon="05.979336"><ele>34.8</ele><time>2021-03-19T10:00:52Z</time><name>PT2326</name></trkpt>
<trkpt lat="52.950516" lon="05.979343"><ele>34.9</ele><time>2021-03-19T10:00:53Z</time><name>PT2327</name></trkpt>
<trkpt lat="52.950510" lon="05.979352"><ele>34.8</ele><time>2021-03-19T10:00:54Z</time><name>PT2328</name></trkpt>
<trkpt lat="52.950502" lon="05.979359"><ele>34.9</ele><time>2021-03-19T10:00:55Z</time><name>PT2329</name></trkpt>
<trkpt lat="52.950495" lon="05.979371"><ele>34.8</ele><time>2021-03-19T10:00:56Z</time><name>PT2330</name></trkpt>
<trkpt lat="52.950486" lon="05.979381"><ele>34.7</ele><time>2021-03-19T10:00:57Z</time><name>PT2331</name></trkpt>
<trkpt lat="52.950477" lon="05.979390"><ele>34.6</ele><time>2021-03-19T10:00:58Z</time><name>PT2332</name></trkpt>
<trkpt lat="52.950469" lon="05.979398"><ele>34.8</ele><time>2021-03-19T10:00:59Z</time><name>PT2333</name></trkpt>
<trkpt lat="52.950460" lon="05.979406"><ele>34.9</ele><time>2021-03-19T10:01:00Z</time><name>PT2334</name></trkpt>
<trkpt lat="52.950447" lon="05.979415"><ele>34.9</ele><time>2021-03-19T10:01:01Z</time><name>PT2335</name></trkpt>
<trkpt lat="52.950436" lon="05.979422"><ele>34.8</ele><time>2021-03-19T10:01:02Z</time><name>PT2336</name></trkpt>
<trkpt lat="52.950424" lon="05.979436"><ele>34.7</ele><time>2021-03-19T10:01:03Z</time><name>PT2337</name></trkpt>
<trkpt lat="52.950412" lon="05.979447"><ele>34.8</ele><time>2021-03-19T10:01:04Z</time><name>PT2338</name></trkpt>
<trkpt lat="52.950406" lon="05.979455"><ele>34.9</ele><time>2021-03-19T10:01:05Z</time><name>PT2339</name></trkpt>
<trkpt lat="52.950399" lon="05.979464"><ele>34.9</ele><time>2021-03-19T10:01:06Z</time><name>PT2340</name></trkpt>
<trkpt lat="52.950389" lon="05.979475"><ele>34.9</ele><time>2021-03-19T10:01:07Z</time><name>PT2341</name></trkpt>
<trkpt lat="52.950379" lon="05.979484"><ele>34.6</ele><time>2021-03-19T10:01:08Z</time><name>PT2342</name></trkpt>
<trkpt lat="52.950369" lon="05.979492"><ele>34.5</ele><time>2021-03-19T10:01:09Z</time><name>PT2343</name></trkpt>
<trkpt lat="52.950359" lon="05.979499"><ele>34.6</ele><time>2021-03-19T10:01:10Z</time><name>PT2344</name></trkpt>
<trkpt lat="52.950351" lon="05.979505"><ele>34.6</ele><time>2021-03-19T10:01:11Z</time><name>PT2345</name></trkpt>
<trkpt lat="52.950342" lon="05.979511"><ele>34.6</ele><time>2021-03-19T10:01:12Z</time><name>PT2346</name></trkpt>
<trkpt lat="52.950331" lon="05.979524"><ele>34.8</ele><time>2021-03-19T10:01:13Z</time><name>PT2347</name></trkpt>
<trkpt lat="52.950325" lon="05.979533"><ele>34.9</ele><time>2021-03-19T10:01:14Z</time><name>PT2348</name></trkpt>
<trkpt lat="52.950317" lon="05.979545"><ele>34.9</ele><time>2021-03-19T10:01:15Z</time><name>PT2349</name></trkpt>
<trkpt lat="52.950304" lon="05.979562"><ele>35</ele><time>2021-03-19T10:01:16Z</time><name>PT2350</name></trkpt>
<trkpt lat="52.950291" lon="05.979580"><ele>34.9</ele><time>2021-03-19T10:01:17Z</time><name>PT2351</name></trkpt>
<trkpt lat="52.950281" lon="05.979592"><ele>34.9</ele><time>2021-03-19T10:01:18Z</time><name>PT2352</name></trkpt>
<trkpt lat="52.950268" lon="05.979606"><ele>35</ele><time>2021-03-19T10:01:19Z</time><name>PT2353</name></trkpt>
<trkpt lat="52.950257" lon="05.979615"><ele>35.3</ele><time>2021-03-19T10:01:20Z</time><name>PT2354</name></trkpt>
<trkpt lat="52.950245" lon="05.979621"><ele>35.4</ele><time>2021-03-19T10:01:21Z</time><name>PT2355</name></trkpt>
<trkpt lat="52.950237" lon="05.979630"><ele>35.4</ele><time>2021-03-19T10:01:22Z</time><name>PT2356</name></trkpt>
<trkpt lat="52.950227" lon="05.979640"><ele>35.4</ele><time>2021-03-19T10:01:23Z</time><name>PT2357</name></trkpt>
<trkpt lat="52.950215" lon="05.979647"><ele>35.1</ele><time>2021-03-19T10:01:24Z</time><name>PT2358</name></trkpt>
<trkpt lat="52.950207" lon="05.979655"><ele>34.9</ele><time>2021-03-19T10:01:25Z</time><name>PT2359</name></trkpt>
<trkpt lat="52.950196" lon="05.979664"><ele>34.9</ele><time>2021-03-19T10:01:26Z</time><name>PT2360</name></trkpt>
<trkpt lat="52.950190" lon="05.979663"><ele>34.9</ele><time>2021-03-19T10:01:27Z</time><name>PT2361</name></trkpt>
<trkpt lat="52.950180" lon="05.979670"><ele>34.7</ele><time>2021-03-19T10:01:28Z</time><name>PT2362</name></trkpt>
<trkpt lat="52.950174" lon="05.979679"><ele>34.8</ele><time>2021-03-19T10:01:29Z</time><name>PT2363</name></trkpt>
<trkpt lat="52.950168" lon="05.979673"><ele>34.8</ele><time>2021-03-19T10:01:30Z</time><name>PT2364</name></trkpt>
<trkpt lat="52.950157" lon="05.979672"><ele>34.7</ele><time>2021-03-19T10:01:31Z</time><name>PT2365</name></trkpt>
<trkpt lat="52.950148" lon="05.979672"><ele>34.8</ele><time>2021-03-19T10:01:32Z</time><name>PT2366</name></trkpt>
<trkpt lat="52.950141" lon="05.979668"><ele>34.9</ele><time>2021-03-19T10:01:33Z</time><name>PT2367</name></trkpt>
<trkpt lat="52.950134" lon="05.979667"><ele>34.7</ele><time>2021-03-19T10:01:34Z</time><name>PT2368</name></trkpt>
<trkpt lat="52.950123" lon="05.979667"><ele>34.7</ele><time>2021-03-19T10:01:35Z</time><name>PT2369</name></trkpt>
<trkpt lat="52.950114" lon="05.979661"><ele>34.8</ele><time>2021-03-19T10:01:36Z</time><name>PT2370</name></trkpt>
<trkpt lat="52.950088" lon="05.979672"><ele>34.8</ele><time>2021-03-19T10:01:37Z</time><name>PT2371</name></trkpt>
<trkpt lat="52.950080" lon="05.979663"><ele>34.7</ele><time>2021-03-19T10:01:38Z</time><name>PT2372</name></trkpt>
<trkpt lat="52.950072" lon="05.979653"><ele>34.8</ele><time>2021-03-19T10:01:39Z</time><name>PT2373</name></trkpt>
<trkpt lat="52.950064" lon="05.979647"><ele>34.7</ele><time>2021-03-19T10:01:40Z</time><name>PT2374</name></trkpt>
<trkpt lat="52.950059" lon="05.979641"><ele>34.7</ele><time>2021-03-19T10:01:41Z</time><name>PT2375</name></trkpt>
<trkpt lat="52.950053" lon="05.979632"><ele>34.8</ele><time>2021-03-19T10:01:42Z</time><name>PT2376</name></trkpt>
<trkpt lat="52.950043" lon="05.979628"><ele>34.8</ele><time>2021-03-19T10:01:43Z</time><name>PT2377</name></trkpt>
<trkpt lat="52.950035" lon="05.979620"><ele>35</ele><time>2021-03-19T10:01:44Z</time><name>PT2378</name></trkpt>
<trkpt lat="52.950025" lon="05.979609"><ele>35.2</ele><time>2021-03-19T10:01:45Z</time><name>PT2379</name></trkpt>
<trkpt lat="52.950020" lon="05.979597"><ele>35.4</ele><time>2021-03-19T10:01:46Z</time><name>PT2380</name></trkpt>
<trkpt lat="52.950008" lon="05.979588"><ele>35.4</ele><time>2021-03-19T10:01:47Z</time><name>PT2381</name></trkpt>
<trkpt lat="52.949999" lon="05.979579"><ele>35.4</ele><time>2021-03-19T10:01:48Z</time><name>PT2382</name></trkpt>
<trkpt lat="52.949990" lon="05.979571"><ele>35.2</ele><time>2021-03-19T10:01:49Z</time><name>PT2383</name></trkpt>
<trkpt lat="52.949981" lon="05.979563"><ele>35.1</ele><time>2021-03-19T10:01:50Z</time><name>PT2384</name></trkpt>
<trkpt lat="52.949970" lon="05.979557"><ele>35.4</ele><time>2021-03-19T10:01:51Z</time><name>PT2385</name></trkpt>
<trkpt lat="52.949961" lon="05.979558"><ele>35.3</ele><time>2021-03-19T10:01:52Z</time><name>PT2386</name></trkpt>
<trkpt lat="52.949952" lon="05.979560"><ele>35.2</ele><time>2021-03-19T10:01:53Z</time><name>PT2387</name></trkpt>
<trkpt lat="52.949942" lon="05.979558"><ele>35.1</ele><time>2021-03-19T10:01:54Z</time><name>PT2388</name></trkpt>
<trkpt lat="52.949934" lon="05.979561"><ele>35</ele><time>2021-03-19T10:01:55Z</time><name>PT2389</name></trkpt>
<trkpt lat="52.949928" lon="05.979566"><ele>35.1</ele><time>2021-03-19T10:01:56Z</time><name>PT2390</name></trkpt>
<trkpt lat="52.949920" lon="05.979567"><ele>35</ele><time>2021-03-19T10:01:57Z</time><name>PT2391</name></trkpt>
<trkpt lat="52.949913" lon="05.979570"><ele>35.2</ele><time>2021-03-19T10:01:58Z</time><name>PT2392</name></trkpt>
<trkpt lat="52.949908" lon="05.979575"><ele>35</ele><time>2021-03-19T10:01:59Z</time><name>PT2393</name></trkpt>
<trkpt lat="52.949901" lon="05.979582"><ele>35.1</ele><time>2021-03-19T10:02:00Z</time><name>PT2394</name></trkpt>
<trkpt lat="52.949897" lon="05.979591"><ele>35.3</ele><time>2021-03-19T10:02:01Z</time><name>PT2395</name></trkpt>
<trkpt lat="52.949892" lon="05.979597"><ele>35.3</ele><time>2021-03-19T10:02:02Z</time><name>PT2396</name></trkpt>
<trkpt lat="52.949883" lon="05.979601"><ele>35.4</ele><time>2021-03-19T10:02:03Z</time><name>PT2397</name></trkpt>
<trkpt lat="52.949877" lon="05.979609"><ele>35.3</ele><time>2021-03-19T10:02:04Z</time><name>PT2398</name></trkpt>
<trkpt lat="52.949869" lon="05.979623"><ele>35.1</ele><time>2021-03-19T10:02:05Z</time><name>PT2399</name></trkpt>
<trkpt lat="52.949862" lon="05.979631"><ele>35.1</ele><time>2021-03-19T10:02:06Z</time><name>PT2400</name></trkpt>
<trkpt lat="52.949854" lon="05.979635"><ele>35.1</ele><time>2021-03-19T10:02:07Z</time><name>PT2401</name></trkpt>
<trkpt lat="52.949847" lon="05.979635"><ele>35</ele><time>2021-03-19T10:02:08Z</time><name>PT2402</name></trkpt>
<trkpt lat="52.949838" lon="05.979640"><ele>35.2</ele><time>2021-03-19T10:02:09Z</time><name>PT2403</name></trkpt>
<trkpt lat="52.949828" lon="05.979643"><ele>35.3</ele><time>2021-03-19T10:02:10Z</time><name>PT2404</name></trkpt>
<trkpt lat="52.949820" lon="05.979655"><ele>35.4</ele><time>2021-03-19T10:02:11Z</time><name>PT2405</name></trkpt>
<trkpt lat="52.949809" lon="05.979664"><ele>35.4</ele><time>2021-03-19T10:02:12Z</time><name>PT2406</name></trkpt>
<trkpt lat="52.949800" lon="05.979673"><ele>35.4</ele><time>2021-03-19T10:02:13Z</time><name>PT2407</name></trkpt>
<trkpt lat="52.949789" lon="05.979679"><ele>35.4</ele><time>2021-03-19T10:02:14Z</time><name>PT2408</name></trkpt>
<trkpt lat="52.949777" lon="05.979681"><ele>35.4</ele><time>2021-03-19T10:02:15Z</time><name>PT2409</name></trkpt>
<trkpt lat="52.949767" lon="05.979687"><ele>35.3</ele><time>2021-03-19T10:02:16Z</time><name>PT2410</name></trkpt>
<trkpt lat="52.949755" lon="05.979695"><ele>35.2</ele><time>2021-03-19T10:02:17Z</time><name>PT2411</name></trkpt>
<trkpt lat="52.949739" lon="05.979693"><ele>35.1</ele><time>2021-03-19T10:02:18Z</time><name>PT2412</name></trkpt>
<trkpt lat="52.949725" lon="05.979698"><ele>35.1</ele><time>2021-03-19T10:02:19Z</time><name>PT2413</name></trkpt>
<trkpt lat="52.949714" lon="05.979705"><ele>35</ele><time>2021-03-19T10:02:20Z</time><name>PT2414</name></trkpt>
<trkpt lat="52.949703" lon="05.979712"><ele>35.1</ele><time>2021-03-19T10:02:21Z</time><name>PT2415</name></trkpt>
<trkpt lat="52.949691" lon="05.979724"><ele>35</ele><time>2021-03-19T10:02:22Z</time><name>PT2416</name></trkpt>
<trkpt lat="52.949671" lon="05.979732"><ele>35.1</ele><time>2021-03-19T10:02:23Z</time><name>PT2417</name></trkpt>
<trkpt lat="52.949661" lon="05.979742"><ele>35</ele><time>2021-03-19T10:02:24Z</time><name>PT2418</name></trkpt>
<trkpt lat="52.949648" lon="05.979748"><ele>35.2</ele><time>2021-03-19T10:02:25Z</time><name>PT2419</name></trkpt>
<trkpt lat="52.949640" lon="05.979758"><ele>35.4</ele><time>2021-03-19T10:02:26Z</time><name>PT2420</name></trkpt>
<trkpt lat="52.949631" lon="05.979762"><ele>35.4</ele><time>2021-03-19T10:02:27Z</time><name>PT2421</name></trkpt>
<trkpt lat="52.949620" lon="05.979766"><ele>35.4</ele><time>2021-03-19T10:02:28Z</time><name>PT2422</name></trkpt>
<trkpt lat="52.949612" lon="05.979775"><ele>35.4</ele><time>2021-03-19T10:02:29Z</time><name>PT2423</name></trkpt>
<trkpt lat="52.949601" lon="05.979787"><ele>35.5</ele><time>2021-03-19T10:02:30Z</time><name>PT2424</name></trkpt>
<trkpt lat="52.949595" lon="05.979792"><ele>35.4</ele><time>2021-03-19T10:02:31Z</time><name>PT2425</name></trkpt>
<trkpt lat="52.949587" lon="05.979796"><ele>35.6</ele><time>2021-03-19T10:02:32Z</time><name>PT2426</name></trkpt>
<trkpt lat="52.949580" lon="05.979801"><ele>35.6</ele><time>2021-03-19T10:02:33Z</time><name>PT2427</name></trkpt>
<trkpt lat="52.949571" lon="05.979804"><ele>35.7</ele><time>2021-03-19T10:02:34Z</time><name>PT2428</name></trkpt>
<trkpt lat="52.949563" lon="05.979810"><ele>35.7</ele><time>2021-03-19T10:02:35Z</time><name>PT2429</name></trkpt>
<trkpt lat="52.949552" lon="05.979819"><ele>35.7</ele><time>2021-03-19T10:02:36Z</time><name>PT2430</name></trkpt>
<trkpt lat="52.949542" lon="05.979834"><ele>35.6</ele><time>2021-03-19T10:02:37Z</time><name>PT2431</name></trkpt>
<trkpt lat="52.949533" lon="05.979845"><ele>35.6</ele><time>2021-03-19T10:02:38Z</time><name>PT2432</name></trkpt>
<trkpt lat="52.949524" lon="05.979853"><ele>35.6</ele><time>2021-03-19T10:02:39Z</time><name>PT2433</name></trkpt>
<trkpt lat="52.949515" lon="05.979863"><ele>35.6</ele><time>2021-03-19T10:02:40Z</time><name>PT2434</name></trkpt>
<trkpt lat="52.949506" lon="05.979872"><ele>35.7</ele><time>2021-03-19T10:02:41Z</time><name>PT2435</name></trkpt>
<trkpt lat="52.949499" lon="05.979880"><ele>35.6</ele><time>2021-03-19T10:02:42Z</time><name>PT2436</name></trkpt>
<trkpt lat="52.949493" lon="05.979890"><ele>35.3</ele><time>2021-03-19T10:02:43Z</time><name>PT2437</name></trkpt>
<trkpt lat="52.949489" lon="05.979894"><ele>34.9</ele><time>2021-03-19T10:02:44Z</time><name>PT2438</name></trkpt>
<trkpt lat="52.949485" lon="05.979903"><ele>34.8</ele><time>2021-03-19T10:02:45Z</time><name>PT2439</name></trkpt>
<trkpt lat="52.949480" lon="05.979911"><ele>34.8</ele><time>2021-03-19T10:02:46Z</time><name>PT2440</name></trkpt>
<trkpt lat="52.949477" lon="05.979917"><ele>35</ele><time>2021-03-19T10:02:47Z</time><name>PT2441</name></trkpt>
<trkpt lat="52.949476" lon="05.979925"><ele>35.1</ele><time>2021-03-19T10:02:48Z</time><name>PT2442</name></trkpt>
<trkpt lat="52.949475" lon="05.979932"><ele>35.4</ele><time>2021-03-19T10:02:49Z</time><name>PT2443</name></trkpt>
<trkpt lat="52.949473" lon="05.979934"><ele>35.4</ele><time>2021-03-19T10:02:50Z</time><name>PT2444</name></trkpt>
<trkpt lat="52.949468" lon="05.979939"><ele>35.4</ele><time>2021-03-19T10:02:51Z</time><name>PT2445</name></trkpt>
<trkpt lat="52.949470" lon="05.979951"><ele>35.3</ele><time>2021-03-19T10:02:52Z</time><name>PT2446</name></trkpt>
<trkpt lat="52.949474" lon="05.979964"><ele>35.2</ele><time>2021-03-19T10:02:53Z</time><name>PT2447</name></trkpt>
<trkpt lat="52.949474" lon="05.979972"><ele>35.3</ele><time>2021-03-19T10:02:54Z</time><name>PT2448</name></trkpt>
<trkpt lat="52.949474" lon="05.979982"><ele>35.4</ele><time>2021-03-19T10:02:55Z</time><name>PT2449</name></trkpt>
<trkpt lat="52.949475" lon="05.979992"><ele>35.4</ele><time>2021-03-19T10:02:56Z</time><name>PT2450</name></trkpt>
<trkpt lat="52.949474" lon="05.979997"><ele>35.4</ele><time>2021-03-19T10:03:03Z</time><name>PT2451</name></trkpt>
<trkpt lat="52.949485" lon="05.980010"><ele>35.4</ele><time>2021-03-19T10:03:04Z</time><name>PT2452</name></trkpt>
<trkpt lat="52.949495" lon="05.980010"><ele>35.5</ele><time>2021-03-19T10:03:05Z</time><name>PT2453</name></trkpt>
<trkpt lat="52.949506" lon="05.980009"><ele>35.4</ele><time>2021-03-19T10:03:06Z</time><name>PT2454</name></trkpt>
<trkpt lat="52.949519" lon="05.979999"><ele>35.6</ele><time>2021-03-19T10:03:07Z</time><name>PT2455</name></trkpt>
<trkpt lat="52.949529" lon="05.980000"><ele>35.6</ele><time>2021-03-19T10:03:08Z</time><name>PT2456</name></trkpt>
<trkpt lat="52.949535" lon="05.979998"><ele>35.6</ele><time>2021-03-19T10:03:09Z</time><name>PT2457</name></trkpt>
<trkpt lat="52.949543" lon="05.979994"><ele>35.8</ele><time>2021-03-19T10:03:10Z</time><name>PT2458</name></trkpt>
<trkpt lat="52.949546" lon="05.979994"><ele>35.9</ele><time>2021-03-19T10:03:11Z</time><name>PT2459</name></trkpt>
<trkpt lat="52.949553" lon="05.979989"><ele>36</ele><time>2021-03-19T10:03:12Z</time><name>PT2460</name></trkpt>
<trkpt lat="52.949554" lon="05.979988"><ele>36.3</ele><time>2021-03-19T10:03:13Z</time><name>PT2461</name></trkpt>
<trkpt lat="52.949561" lon="05.979985"><ele>36.5</ele><time>2021-03-19T10:03:14Z</time><name>PT2462</name></trkpt>
<trkpt lat="52.949564" lon="05.979983"><ele>36.6</ele><time>2021-03-19T10:03:15Z</time><name>PT2463</name></trkpt>
<trkpt lat="52.949568" lon="05.979980"><ele>36.7</ele><time>2021-03-19T10:03:16Z</time><name>PT2464</name></trkpt>
<trkpt lat="52.949576" lon="05.979978"><ele>36.7</ele><time>2021-03-19T10:03:17Z</time><name>PT2465</name></trkpt>
<trkpt lat="52.949584" lon="05.979974"><ele>36.8</ele><time>2021-03-19T10:03:18Z</time><name>PT2466</name></trkpt>
<trkpt lat="52.949597" lon="05.979964"><ele>37</ele><time>2021-03-19T10:03:19Z</time><name>PT2467</name></trkpt>
<trkpt lat="52.949607" lon="05.979960"><ele>37.3</ele><time>2021-03-19T10:03:20Z</time><name>PT2468</name></trkpt>
<trkpt lat="52.949618" lon="05.979955"><ele>37.5</ele><time>2021-03-19T10:03:21Z</time><name>PT2469</name></trkpt>
<trkpt lat="52.949625" lon="05.979949"><ele>37.7</ele><time>2021-03-19T10:03:22Z</time><name>PT2470</name></trkpt>
<trkpt lat="52.949633" lon="05.979944"><ele>38.1</ele><time>2021-03-19T10:03:23Z</time><name>PT2471</name></trkpt>
<trkpt lat="52.949644" lon="05.979944"><ele>38.1</ele><time>2021-03-19T10:03:24Z</time><name>PT2472</name></trkpt>
<trkpt lat="52.949653" lon="05.979940"><ele>38.1</ele><time>2021-03-19T10:03:25Z</time><name>PT2473</name></trkpt>
<trkpt lat="52.949660" lon="05.979936"><ele>38.3</ele><time>2021-03-19T10:03:26Z</time><name>PT2474</name></trkpt>
<trkpt lat="52.949669" lon="05.979930"><ele>38.3</ele><time>2021-03-19T10:03:27Z</time><name>PT2475</name></trkpt>
<trkpt lat="52.949680" lon="05.979921"><ele>38.6</ele><time>2021-03-19T10:03:28Z</time><name>PT2476</name></trkpt>
<trkpt lat="52.949687" lon="05.979915"><ele>39</ele><time>2021-03-19T10:03:29Z</time><name>PT2477</name></trkpt>
<trkpt lat="52.949699" lon="05.979905"><ele>39.2</ele><time>2021-03-19T10:03:30Z</time><name>PT2478</name></trkpt>
<trkpt lat="52.949705" lon="05.979902"><ele>39.6</ele><time>2021-03-19T10:03:31Z</time><name>PT2479</name></trkpt>
<trkpt lat="52.949714" lon="05.979895"><ele>39.9</ele><time>2021-03-19T10:03:32Z</time><name>PT2480</name></trkpt>
<trkpt lat="52.949723" lon="05.979887"><ele>40</ele><time>2021-03-19T10:03:33Z</time><name>PT2481</name></trkpt>
<trkpt lat="52.949728" lon="05.979880"><ele>40.2</ele><time>2021-03-19T10:03:34Z</time><name>PT2482</name></trkpt>
<trkpt lat="52.949734" lon="05.979874"><ele>40.4</ele><time>2021-03-19T10:03:35Z</time><name>PT2483</name></trkpt>
<trkpt lat="52.949739" lon="05.979868"><ele>40.4</ele><time>2021-03-19T10:03:36Z</time><name>PT2484</name></trkpt>
<trkpt lat="52.949745" lon="05.979863"><ele>40.8</ele><time>2021-03-19T10:03:37Z</time><name>PT2485</name></trkpt>
<trkpt lat="52.949749" lon="05.979856"><ele>40.9</ele><time>2021-03-19T10:03:38Z</time><name>PT2486</name></trkpt>
<trkpt lat="52.949756" lon="05.979850"><ele>41</ele><time>2021-03-19T10:03:39Z</time><name>PT2487</name></trkpt>
<trkpt lat="52.949762" lon="05.979840"><ele>41.1</ele><time>2021-03-19T10:03:40Z</time><name>PT2488</name></trkpt>
<trkpt lat="52.949772" lon="05.979833"><ele>41.1</ele><time>2021-03-19T10:03:41Z</time><name>PT2489</name></trkpt>
<trkpt lat="52.949777" lon="05.979827"><ele>41.2</ele><time>2021-03-19T10:03:42Z</time><name>PT2490</name></trkpt>
<trkpt lat="52.949782" lon="05.979819"><ele>41.4</ele><time>2021-03-19T10:03:43Z</time><name>PT2491</name></trkpt>
<trkpt lat="52.949784" lon="05.979812"><ele>41.5</ele><time>2021-03-19T10:03:44Z</time><name>PT2492</name></trkpt>
<trkpt lat="52.949786" lon="05.979809"><ele>41.4</ele><time>2021-03-19T10:03:45Z</time><name>PT2493</name></trkpt>
<trkpt lat="52.949787" lon="05.979809"><ele>41.5</ele><time>2021-03-19T10:03:46Z</time><name>PT2494</name></trkpt>
<trkpt lat="52.949787" lon="05.979807"><ele>41.5</ele><time>2021-03-19T10:03:47Z</time><name>PT2495</name></trkpt>
<trkpt lat="52.949792" lon="05.979801"><ele>41.5</ele><time>2021-03-19T10:03:48Z</time><name>PT2496</name></trkpt>
<trkpt lat="52.949794" lon="05.979802"><ele>41.8</ele><time>2021-03-19T10:03:49Z</time><name>PT2497</name></trkpt>
<trkpt lat="52.949800" lon="05.979802"><ele>42.1</ele><time>2021-03-19T10:03:50Z</time><name>PT2498</name></trkpt>
<trkpt lat="52.949804" lon="05.979798"><ele>42.4</ele><time>2021-03-19T10:03:51Z</time><name>PT2499</name></trkpt>
<trkpt lat="52.949811" lon="05.979793"><ele>42.6</ele><time>2021-03-19T10:03:52Z</time><name>PT2500</name></trkpt>
<trkpt lat="52.949816" lon="05.979789"><ele>43</ele><time>2021-03-19T10:03:53Z</time><name>PT2501</name></trkpt>
<trkpt lat="52.949819" lon="05.979791"><ele>43.1</ele><time>2021-03-19T10:03:54Z</time><name>PT2502</name></trkpt>
<trkpt lat="52.949823" lon="05.979793"><ele>43.1</ele><time>2021-03-19T10:03:55Z</time><name>PT2503</name></trkpt>
<trkpt lat="52.949828" lon="05.979794"><ele>43.3</ele><time>2021-03-19T10:03:56Z</time><name>PT2504</name></trkpt>
<trkpt lat="52.949829" lon="05.979789"><ele>43.3</ele><time>2021-03-19T10:03:57Z</time><name>PT2505</name></trkpt>
<trkpt lat="52.949828" lon="05.979786"><ele>43.5</ele><time>2021-03-19T10:03:58Z</time><name>PT2506</name></trkpt>
<trkpt lat="52.949829" lon="05.979781"><ele>43.7</ele><time>2021-03-19T10:03:59Z</time><name>PT2507</name></trkpt>
<trkpt lat="52.949840" lon="05.979770"><ele>43.9</ele><time>2021-03-19T10:04:00Z</time><name>PT2508</name></trkpt>
<trkpt lat="52.949837" lon="05.979768"><ele>44.2</ele><time>2021-03-19T10:04:01Z</time><name>PT2509</name></trkpt>
<trkpt lat="52.949833" lon="05.979771"><ele>44.2</ele><time>2021-03-19T10:04:02Z</time><name>PT2510</name></trkpt>
<trkpt lat="52.949833" lon="05.979773"><ele>44.2</ele><time>2021-03-19T10:04:03Z</time><name>PT2511</name></trkpt>
<trkpt lat="52.949832" lon="05.979776"><ele>44.2</ele><time>2021-03-19T10:04:04Z</time><name>PT2512</name></trkpt>
<trkpt lat="52.949831" lon="05.979777"><ele>44.3</ele><time>2021-03-19T10:04:05Z</time><name>PT2513</name></trkpt>
<trkpt lat="52.949830" lon="05.979775"><ele>44.2</ele><time>2021-03-19T10:04:06Z</time><name>PT2514</name></trkpt>
<trkpt lat="52.949834" lon="05.979775"><ele>44.1</ele><time>2021-03-19T10:04:07Z</time><name>PT2515</name></trkpt>
<trkpt lat="52.949835" lon="05.979780"><ele>44</ele><time>2021-03-19T10:04:08Z</time><name>PT2516</name></trkpt>
<trkpt lat="52.949834" lon="05.979778"><ele>43.7</ele><time>2021-03-19T10:04:09Z</time><name>PT2517</name></trkpt>
<trkpt lat="52.949831" lon="05.979780"><ele>43.4</ele><time>2021-03-19T10:04:10Z</time><name>PT2518</name></trkpt>
<trkpt lat="52.949828" lon="05.979783"><ele>43.2</ele><time>2021-03-19T10:04:11Z</time><name>PT2519</name></trkpt>
<trkpt lat="52.949826" lon="05.979785"><ele>43.1</ele><time>2021-03-19T10:04:12Z</time><name>PT2520</name></trkpt>
<trkpt lat="52.949807" lon="05.979812"><ele>40.9</ele><time>2021-03-19T10:04:37Z</time><name>PT2521</name></trkpt>
<trkpt lat="52.949800" lon="05.979817"><ele>40.6</ele><time>2021-03-19T10:04:38Z</time><name>PT2522</name></trkpt>
<trkpt lat="52.949793" lon="05.979822"><ele>40.6</ele><time>2021-03-19T10:04:39Z</time><name>PT2523</name></trkpt>
<trkpt lat="52.949789" lon="05.979840"><ele>40.6</ele><time>2021-03-19T10:04:40Z</time><name>PT2524</name></trkpt>
<trkpt lat="52.949790" lon="05.979844"><ele>40.5</ele><time>2021-03-19T10:04:41Z</time><name>PT2525</name></trkpt>
<trkpt lat="52.949786" lon="05.979863"><ele>40.4</ele><time>2021-03-19T10:04:42Z</time><name>PT2526</name></trkpt>
<trkpt lat="52.949783" lon="05.979866"><ele>40.3</ele><time>2021-03-19T10:04:43Z</time><name>PT2527</name></trkpt>
<trkpt lat="52.949777" lon="05.979870"><ele>40.1</ele><time>2021-03-19T10:04:44Z</time><name>PT2528</name></trkpt>
<trkpt lat="52.949772" lon="05.979876"><ele>39.9</ele><time>2021-03-19T10:04:45Z</time><name>PT2529</name></trkpt>
<trkpt lat="52.949770" lon="05.979880"><ele>39.9</ele><time>2021-03-19T10:04:46Z</time><name>PT2530</name></trkpt>
<trkpt lat="52.949764" lon="05.979886"><ele>39.7</ele><time>2021-03-19T10:04:47Z</time><name>PT2531</name></trkpt>
<trkpt lat="52.949760" lon="05.979888"><ele>39.5</ele><time>2021-03-19T10:04:48Z</time><name>PT2532</name></trkpt>
<trkpt lat="52.949755" lon="05.979887"><ele>39.5</ele><time>2021-03-19T10:04:49Z</time><name>PT2533</name></trkpt>
<trkpt lat="52.949752" lon="05.979891"><ele>39.3</ele><time>2021-03-19T10:04:50Z</time><name>PT2534</name></trkpt>
<trkpt lat="52.949749" lon="05.979895"><ele>39.3</ele><time>2021-03-19T10:04:51Z</time><name>PT2535</name></trkpt>
<trkpt lat="52.949745" lon="05.979898"><ele>39.1</ele><time>2021-03-19T10:04:52Z</time><name>PT2536</name></trkpt>
<trkpt lat="52.949738" lon="05.979912"><ele>38.7</ele><time>2021-03-19T10:04:54Z</time><name>PT2537</name></trkpt>
<trkpt lat="52.949735" lon="05.979913"><ele>38.7</ele><time>2021-03-19T10:04:55Z</time><name>PT2538</name></trkpt>
<trkpt lat="52.949729" lon="05.979923"><ele>38.5</ele><time>2021-03-19T10:04:56Z</time><name>PT2539</name></trkpt>
<trkpt lat="52.949725" lon="05.979924"><ele>38.4</ele><time>2021-03-19T10:04:57Z</time><name>PT2540</name></trkpt>
<trkpt lat="52.949719" lon="05.979924"><ele>38.2</ele><time>2021-03-19T10:04:58Z</time><name>PT2541</name></trkpt>
<trkpt lat="52.949710" lon="05.979924"><ele>38.1</ele><time>2021-03-19T10:04:59Z</time><name>PT2542</name></trkpt>
<trkpt lat="52.949698" lon="05.979930"><ele>38.1</ele><time>2021-03-19T10:05:00Z</time><name>PT2543</name></trkpt>
<trkpt lat="52.949691" lon="05.979940"><ele>38.1</ele><time>2021-03-19T10:05:01Z</time><name>PT2544</name></trkpt>
<trkpt lat="52.949681" lon="05.979955"><ele>37.8</ele><time>2021-03-19T10:05:02Z</time><name>PT2545</name></trkpt>
<trkpt lat="52.949672" lon="05.979957"><ele>37.8</ele><time>2021-03-19T10:05:03Z</time><name>PT2546</name></trkpt>
<trkpt lat="52.949664" lon="05.979969"><ele>37.7</ele><time>2021-03-19T10:05:04Z</time><name>PT2547</name></trkpt>
<trkpt lat="52.949656" lon="05.979981"><ele>37.3</ele><time>2021-03-19T10:05:05Z</time><name>PT2548</name></trkpt>
<trkpt lat="52.949648" lon="05.979990"><ele>37.3</ele><time>2021-03-19T10:05:06Z</time><name>PT2549</name></trkpt>
<trkpt lat="52.949641" lon="05.979997"><ele>36.9</ele><time>2021-03-19T10:05:07Z</time><name>PT2550</name></trkpt>
<trkpt lat="52.949635" lon="05.980003"><ele>36.7</ele><time>2021-03-19T10:05:08Z</time><name>PT2551</name></trkpt>
<trkpt lat="52.949628" lon="05.980010"><ele>36.5</ele><time>2021-03-19T10:05:09Z</time><name>PT2552</name></trkpt>
<trkpt lat="52.949622" lon="05.980014"><ele>36.5</ele><time>2021-03-19T10:05:10Z</time><name>PT2553</name></trkpt>
<trkpt lat="52.949614" lon="05.980023"><ele>36.7</ele><time>2021-03-19T10:05:11Z</time><name>PT2554</name></trkpt>
<trkpt lat="52.949606" lon="05.980028"><ele>36.6</ele><time>2021-03-19T10:05:12Z</time><name>PT2555</name></trkpt>
<trkpt lat="52.949599" lon="05.980031"><ele>36.5</ele><time>2021-03-19T10:05:13Z</time><name>PT2556</name></trkpt>
<trkpt lat="52.949591" lon="05.980033"><ele>36.3</ele><time>2021-03-19T10:05:14Z</time><name>PT2557</name></trkpt>
<trkpt lat="52.949583" lon="05.980036"><ele>36.2</ele><time>2021-03-19T10:05:15Z</time><name>PT2558</name></trkpt>
<trkpt lat="52.949574" lon="05.980041"><ele>36.1</ele><time>2021-03-19T10:05:16Z</time><name>PT2559</name></trkpt>
<trkpt lat="52.949567" lon="05.980049"><ele>36.1</ele><time>2021-03-19T10:05:17Z</time><name>PT2560</name></trkpt>
<trkpt lat="52.949562" lon="05.980063"><ele>36.1</ele><time>2021-03-19T10:05:18Z</time><name>PT2561</name></trkpt>
<trkpt lat="52.949553" lon="05.980060"><ele>36.1</ele><time>2021-03-19T10:05:19Z</time><name>PT2562</name></trkpt>
<trkpt lat="52.949553" lon="05.980054"><ele>35.8</ele><time>2021-03-19T10:05:20Z</time><name>PT2563</name></trkpt>
<trkpt lat="52.949552" lon="05.980044"><ele>35.7</ele><time>2021-03-19T10:05:21Z</time><name>PT2564</name></trkpt>
<trkpt lat="52.949552" lon="05.980032"><ele>35.5</ele><time>2021-03-19T10:05:22Z</time><name>PT2565</name></trkpt>
<trkpt lat="52.949550" lon="05.980024"><ele>35.4</ele><time>2021-03-19T10:05:23Z</time><name>PT2566</name></trkpt>
<trkpt lat="52.949546" lon="05.980013"><ele>35.3</ele><time>2021-03-19T10:05:24Z</time><name>PT2567</name></trkpt>
<trkpt lat="52.949543" lon="05.980006"><ele>35.3</ele><time>2021-03-19T10:05:25Z</time><name>PT2568</name></trkpt>
<trkpt lat="52.949541" lon="05.979989"><ele>35.2</ele><time>2021-03-19T10:05:26Z</time><name>PT2569</name></trkpt>
<trkpt lat="52.949543" lon="05.979980"><ele>35.2</ele><time>2021-03-19T10:05:27Z</time><name>PT2570</name></trkpt>
<trkpt lat="52.949546" lon="05.979969"><ele>35.1</ele><time>2021-03-19T10:05:28Z</time><name>PT2571</name></trkpt>
<trkpt lat="52.949550" lon="05.979959"><ele>34.9</ele><time>2021-03-19T10:05:29Z</time><name>PT2572</name></trkpt>
<trkpt lat="52.949550" lon="05.979956"><ele>34.9</ele><time>2021-03-19T10:05:30Z</time><name>PT2573</name></trkpt>
<trkpt lat="52.949554" lon="05.979952"><ele>34.9</ele><time>2021-03-19T10:05:31Z</time><name>PT2574</name></trkpt>
<trkpt lat="52.949555" lon="05.979945"><ele>34.9</ele><time>2021-03-19T10:05:32Z</time><name>PT2575</name></trkpt>
<trkpt lat="52.949556" lon="05.979935"><ele>34.9</ele><time>2021-03-19T10:05:33Z</time><name>PT2576</name></trkpt>
<trkpt lat="52.949560" lon="05.979921"><ele>34.9</ele><time>2021-03-19T10:05:34Z</time><name>PT2577</name></trkpt>
<trkpt lat="52.949561" lon="05.979910"><ele>34.8</ele><time>2021-03-19T10:05:35Z</time><name>PT2578</name></trkpt>
<trkpt lat="52.949563" lon="05.979902"><ele>34.8</ele><time>2021-03-19T10:05:36Z</time><name>PT2579</name></trkpt>
<trkpt lat="52.949565" lon="05.979886"><ele>34.8</ele><time>2021-03-19T10:05:37Z</time><name>PT2580</name></trkpt>
<trkpt lat="52.949569" lon="05.979874"><ele>34.6</ele><time>2021-03-19T10:05:38Z</time><name>PT2581</name></trkpt>
<trkpt lat="52.949571" lon="05.979860"><ele>34.7</ele><time>2021-03-19T10:05:39Z</time><name>PT2582</name></trkpt>
<trkpt lat="52.949574" lon="05.979849"><ele>34.7</ele><time>2021-03-19T10:05:40Z</time><name>PT2583</name></trkpt>
<trkpt lat="52.949581" lon="05.979841"><ele>34.7</ele><time>2021-03-19T10:05:41Z</time><name>PT2584</name></trkpt>
<trkpt lat="52.949587" lon="05.979832"><ele>34.7</ele><time>2021-03-19T10:05:42Z</time><name>PT2585</name></trkpt>
<trkpt lat="52.949593" lon="05.979827"><ele>34.8</ele><time>2021-03-19T10:05:43Z</time><name>PT2586</name></trkpt>
<trkpt lat="52.949598" lon="05.979820"><ele>34.9</ele><time>2021-03-19T10:05:44Z</time><name>PT2587</name></trkpt>
<trkpt lat="52.949600" lon="05.979815"><ele>35</ele><time>2021-03-19T10:05:45Z</time><name>PT2588</name></trkpt>
<trkpt lat="52.949606" lon="05.979807"><ele>34.9</ele><time>2021-03-19T10:05:46Z</time><name>PT2589</name></trkpt>
<trkpt lat="52.949616" lon="05.979799"><ele>34.9</ele><time>2021-03-19T10:05:47Z</time><name>PT2590</name></trkpt>
<trkpt lat="52.949624" lon="05.979796"><ele>34.9</ele><time>2021-03-19T10:05:48Z</time><name>PT2591</name></trkpt>
<trkpt lat="52.949629" lon="05.979791"><ele>34.9</ele><time>2021-03-19T10:05:49Z</time><name>PT2592</name></trkpt>
<trkpt lat="52.949630" lon="05.979782"><ele>34.9</ele><time>2021-03-19T10:05:50Z</time><name>PT2593</name></trkpt>
<trkpt lat="52.949638" lon="05.979771"><ele>35</ele><time>2021-03-19T10:05:51Z</time><name>PT2594</name></trkpt>
<trkpt lat="52.949647" lon="05.979760"><ele>35</ele><time>2021-03-19T10:05:52Z</time><name>PT2595</name></trkpt>
<trkpt lat="52.949657" lon="05.979746"><ele>35</ele><time>2021-03-19T10:05:53Z</time><name>PT2596</name></trkpt>
<trkpt lat="52.949664" lon="05.979742"><ele>35</ele><time>2021-03-19T10:05:54Z</time><name>PT2597</name></trkpt>
<trkpt lat="52.949671" lon="05.979731"><ele>34.8</ele><time>2021-03-19T10:05:55Z</time><name>PT2598</name></trkpt>
<trkpt lat="52.949680" lon="05.979723"><ele>34.9</ele><time>2021-03-19T10:05:56Z</time><name>PT2599</name></trkpt>
<trkpt lat="52.949686" lon="05.979713"><ele>34.8</ele><time>2021-03-19T10:05:57Z</time><name>PT2600</name></trkpt>
<trkpt lat="52.949690" lon="05.979703"><ele>34.6</ele><time>2021-03-19T10:05:58Z</time><name>PT2601</name></trkpt>
<trkpt lat="52.949699" lon="05.979698"><ele>34.7</ele><time>2021-03-19T10:05:59Z</time><name>PT2602</name></trkpt>
<trkpt lat="52.949708" lon="05.979693"><ele>34.5</ele><time>2021-03-19T10:06:00Z</time><name>PT2603</name></trkpt>
<trkpt lat="52.949718" lon="05.979687"><ele>34.6</ele><time>2021-03-19T10:06:01Z</time><name>PT2604</name></trkpt>
<trkpt lat="52.949722" lon="05.979674"><ele>34.6</ele><time>2021-03-19T10:06:02Z</time><name>PT2605</name></trkpt>
<trkpt lat="52.949730" lon="05.979669"><ele>34.7</ele><time>2021-03-19T10:06:03Z</time><name>PT2606</name></trkpt>
<trkpt lat="52.949736" lon="05.979657"><ele>34.7</ele><time>2021-03-19T10:06:04Z</time><name>PT2607</name></trkpt>
<trkpt lat="52.949748" lon="05.979647"><ele>34.7</ele><time>2021-03-19T10:06:05Z</time><name>PT2608</name></trkpt>
<trkpt lat="52.949756" lon="05.979638"><ele>34.8</ele><time>2021-03-19T10:06:06Z</time><name>PT2609</name></trkpt>
<trkpt lat="52.949767" lon="05.979633"><ele>34.7</ele><time>2021-03-19T10:06:07Z</time><name>PT2610</name></trkpt>
<trkpt lat="52.949778" lon="05.979636"><ele>34.5</ele><time>2021-03-19T10:06:08Z</time><name>PT2611</name></trkpt>
<trkpt lat="52.949787" lon="05.979636"><ele>34.5</ele><time>2021-03-19T10:06:09Z</time><name>PT2612</name></trkpt>
<trkpt lat="52.949793" lon="05.979636"><ele>34.5</ele><time>2021-03-19T10:06:10Z</time><name>PT2613</name></trkpt>
<trkpt lat="52.949803" lon="05.979623"><ele>34.4</ele><time>2021-03-19T10:06:11Z</time><name>PT2614</name></trkpt>
<trkpt lat="52.949811" lon="05.979618"><ele>34.4</ele><time>2021-03-19T10:06:12Z</time><name>PT2615</name></trkpt>
<trkpt lat="52.949821" lon="05.979605"><ele>34.5</ele><time>2021-03-19T10:06:13Z</time><name>PT2616</name></trkpt>
<trkpt lat="52.949830" lon="05.979603"><ele>34.4</ele><time>2021-03-19T10:06:14Z</time><name>PT2617</name></trkpt>
<trkpt lat="52.949839" lon="05.979596"><ele>34.4</ele><time>2021-03-19T10:06:15Z</time><name>PT2618</name></trkpt>
<trkpt lat="52.949847" lon="05.979589"><ele>34.4</ele><time>2021-03-19T10:06:16Z</time><name>PT2619</name></trkpt>
<trkpt lat="52.949849" lon="05.979590"><ele>34.2</ele><time>2021-03-19T10:06:17Z</time><name>PT2620</name></trkpt>
<trkpt lat="52.949851" lon="05.979586"><ele>34.2</ele><time>2021-03-19T10:06:18Z</time><name>PT2621</name></trkpt>
<trkpt lat="52.949856" lon="05.979573"><ele>34.2</ele><time>2021-03-19T10:06:19Z</time><name>PT2622</name></trkpt>
<trkpt lat="52.949858" lon="05.979564"><ele>34.4</ele><time>2021-03-19T10:06:20Z</time><name>PT2623</name></trkpt>
<trkpt lat="52.949859" lon="05.979537"><ele>34.4</ele><time>2021-03-19T10:06:21Z</time><name>PT2624</name></trkpt>
<trkpt lat="52.949874" lon="05.979544"><ele>34.5</ele><time>2021-03-19T10:06:22Z</time><name>PT2625</name></trkpt>
<trkpt lat="52.949884" lon="05.979551"><ele>34.5</ele><time>2021-03-19T10:06:23Z</time><name>PT2626</name></trkpt>
<trkpt lat="52.949891" lon="05.979551"><ele>34.5</ele><time>2021-03-19T10:06:24Z</time><name>PT2627</name></trkpt>
<trkpt lat="52.949902" lon="05.979548"><ele>34.4</ele><time>2021-03-19T10:06:25Z</time><name>PT2628</name></trkpt>
<trkpt lat="52.949912" lon="05.979554"><ele>34.5</ele><time>2021-03-19T10:06:26Z</time><name>PT2629</name></trkpt>
<trkpt lat="52.949923" lon="05.979561"><ele>34.5</ele><time>2021-03-19T10:06:27Z</time><name>PT2630</name></trkpt>
<trkpt lat="52.949928" lon="05.979570"><ele>34.5</ele><time>2021-03-19T10:06:28Z</time><name>PT2631</name></trkpt>
<trkpt lat="52.949934" lon="05.979577"><ele>34.4</ele><time>2021-03-19T10:06:29Z</time><name>PT2632</name></trkpt>
<trkpt lat="52.949940" lon="05.979590"><ele>34.4</ele><time>2021-03-19T10:06:30Z</time><name>PT2633</name></trkpt>
<trkpt lat="52.949948" lon="05.979603"><ele>34.1</ele><time>2021-03-19T10:06:31Z</time><name>PT2634</name></trkpt>
<trkpt lat="52.949957" lon="05.979619"><ele>34</ele><time>2021-03-19T10:06:32Z</time><name>PT2635</name></trkpt>
<trkpt lat="52.949968" lon="05.979634"><ele>34</ele><time>2021-03-19T10:06:33Z</time><name>PT2636</name></trkpt>
<trkpt lat="52.949980" lon="05.979649"><ele>34</ele><time>2021-03-19T10:06:34Z</time><name>PT2637</name></trkpt>
<trkpt lat="52.949994" lon="05.979660"><ele>34.1</ele><time>2021-03-19T10:06:35Z</time><name>PT2638</name></trkpt>
<trkpt lat="52.950002" lon="05.979668"><ele>34</ele><time>2021-03-19T10:06:36Z</time><name>PT2639</name></trkpt>
<trkpt lat="52.950014" lon="05.979676"><ele>34</ele><time>2021-03-19T10:06:37Z</time><name>PT2640</name></trkpt>
<trkpt lat="52.950027" lon="05.979680"><ele>33.9</ele><time>2021-03-19T10:06:38Z</time><name>PT2641</name></trkpt>
<trkpt lat="52.950039" lon="05.979680"><ele>34</ele><time>2021-03-19T10:06:39Z</time><name>PT2642</name></trkpt>
<trkpt lat="52.950048" lon="05.979681"><ele>33.9</ele><time>2021-03-19T10:06:40Z</time><name>PT2643</name></trkpt>
<trkpt lat="52.950056" lon="05.979680"><ele>34</ele><time>2021-03-19T10:06:41Z</time><name>PT2644</name></trkpt>
<trkpt lat="52.950067" lon="05.979679"><ele>34</ele><time>2021-03-19T10:06:42Z</time><name>PT2645</name></trkpt>
<trkpt lat="52.950076" lon="05.979674"><ele>34.1</ele><time>2021-03-19T10:06:43Z</time><name>PT2646</name></trkpt>
<trkpt lat="52.950083" lon="05.979668"><ele>34.3</ele><time>2021-03-19T10:06:44Z</time><name>PT2647</name></trkpt>
<trkpt lat="52.950091" lon="05.979662"><ele>34.3</ele><time>2021-03-19T10:06:45Z</time><name>PT2648</name></trkpt>
<trkpt lat="52.950093" lon="05.979660"><ele>34.4</ele><time>2021-03-19T10:06:46Z</time><name>PT2649</name></trkpt>
<trkpt lat="52.950097" lon="05.979667"><ele>34.4</ele><time>2021-03-19T10:06:47Z</time><name>PT2650</name></trkpt>
<trkpt lat="52.950101" lon="05.979666"><ele>34.4</ele><time>2021-03-19T10:06:48Z</time><name>PT2651</name></trkpt>
<trkpt lat="52.950110" lon="05.979660"><ele>34.5</ele><time>2021-03-19T10:06:49Z</time><name>PT2652</name></trkpt>
<trkpt lat="52.950122" lon="05.979654"><ele>34.4</ele><time>2021-03-19T10:06:50Z</time><name>PT2653</name></trkpt>
<trkpt lat="52.950134" lon="05.979649"><ele>34.4</ele><time>2021-03-19T10:06:51Z</time><name>PT2654</name></trkpt>
<trkpt lat="52.950143" lon="05.979645"><ele>34.3</ele><time>2021-03-19T10:06:52Z</time><name>PT2655</name></trkpt>
<trkpt lat="52.950151" lon="05.979637"><ele>34.3</ele><time>2021-03-19T10:06:53Z</time><name>PT2656</name></trkpt>
<trkpt lat="52.950156" lon="05.979628"><ele>34.4</ele><time>2021-03-19T10:06:54Z</time><name>PT2657</name></trkpt>
<trkpt lat="52.950164" lon="05.979622"><ele>34.3</ele><time>2021-03-19T10:06:55Z</time><name>PT2658</name></trkpt>
<trkpt lat="52.950173" lon="05.979615"><ele>34.4</ele><time>2021-03-19T10:06:56Z</time><name>PT2659</name></trkpt>
<trkpt lat="52.950180" lon="05.979607"><ele>34.5</ele><time>2021-03-19T10:06:57Z</time><name>PT2660</name></trkpt>
<trkpt lat="52.950191" lon="05.979600"><ele>34.3</ele><time>2021-03-19T10:06:58Z</time><name>PT2661</name></trkpt>
<trkpt lat="52.950201" lon="05.979593"><ele>34.3</ele><time>2021-03-19T10:06:59Z</time><name>PT2662</name></trkpt>
<trkpt lat="52.950207" lon="05.979578"><ele>34.2</ele><time>2021-03-19T10:07:00Z</time><name>PT2663</name></trkpt>
<trkpt lat="52.950217" lon="05.979571"><ele>34.1</ele><time>2021-03-19T10:07:01Z</time><name>PT2664</name></trkpt>
<trkpt lat="52.950222" lon="05.979564"><ele>34.1</ele><time>2021-03-19T10:07:02Z</time><name>PT2665</name></trkpt>
<trkpt lat="52.950227" lon="05.979561"><ele>34.1</ele><time>2021-03-19T10:07:03Z</time><name>PT2666</name></trkpt>
<trkpt lat="52.950238" lon="05.979553"><ele>34</ele><time>2021-03-19T10:07:04Z</time><name>PT2667</name></trkpt>
<trkpt lat="52.950245" lon="05.979546"><ele>33.9</ele><time>2021-03-19T10:07:05Z</time><name>PT2668</name></trkpt>
<trkpt lat="52.950254" lon="05.979540"><ele>34</ele><time>2021-03-19T10:07:06Z</time><name>PT2669</name></trkpt>
<trkpt lat="52.950265" lon="05.979536"><ele>33.8</ele><time>2021-03-19T10:07:07Z</time><name>PT2670</name></trkpt>
<trkpt lat="52.950274" lon="05.979528"><ele>33.9</ele><time>2021-03-19T10:07:08Z</time><name>PT2671</name></trkpt>
<trkpt lat="52.950280" lon="05.979521"><ele>34</ele><time>2021-03-19T10:07:09Z</time><name>PT2672</name></trkpt>
<trkpt lat="52.950285" lon="05.979516"><ele>34</ele><time>2021-03-19T10:07:10Z</time><name>PT2673</name></trkpt>
<trkpt lat="52.950294" lon="05.979509"><ele>33.9</ele><time>2021-03-19T10:07:11Z</time><name>PT2674</name></trkpt>
<trkpt lat="52.950305" lon="05.979502"><ele>34</ele><time>2021-03-19T10:07:12Z</time><name>PT2675</name></trkpt>
<trkpt lat="52.950312" lon="05.979497"><ele>33.9</ele><time>2021-03-19T10:07:13Z</time><name>PT2676</name></trkpt>
<trkpt lat="52.950318" lon="05.979489"><ele>33.9</ele><time>2021-03-19T10:07:14Z</time><name>PT2677</name></trkpt>
<trkpt lat="52.950326" lon="05.979480"><ele>33.9</ele><time>2021-03-19T10:07:15Z</time><name>PT2678</name></trkpt>
<trkpt lat="52.950335" lon="05.979473"><ele>33.9</ele><time>2021-03-19T10:07:16Z</time><name>PT2679</name></trkpt>
<trkpt lat="52.950345" lon="05.979464"><ele>33.9</ele><time>2021-03-19T10:07:17Z</time><name>PT2680</name></trkpt>
<trkpt lat="52.950359" lon="05.979451"><ele>34</ele><time>2021-03-19T10:07:18Z</time><name>PT2681</name></trkpt>
<trkpt lat="52.950372" lon="05.979442"><ele>33.7</ele><time>2021-03-19T10:07:19Z</time><name>PT2682</name></trkpt>
<trkpt lat="52.950384" lon="05.979434"><ele>33.9</ele><time>2021-03-19T10:07:20Z</time><name>PT2683</name></trkpt>
<trkpt lat="52.950393" lon="05.979426"><ele>33.8</ele><time>2021-03-19T10:07:21Z</time><name>PT2684</name></trkpt>
<trkpt lat="52.950401" lon="05.979414"><ele>33.7</ele><time>2021-03-19T10:07:22Z</time><name>PT2685</name></trkpt>
<trkpt lat="52.950413" lon="05.979404"><ele>34</ele><time>2021-03-19T10:07:23Z</time><name>PT2686</name></trkpt>
<trkpt lat="52.950425" lon="05.979390"><ele>34</ele><time>2021-03-19T10:07:24Z</time><name>PT2687</name></trkpt>
<trkpt lat="52.950431" lon="05.979375"><ele>34</ele><time>2021-03-19T10:07:25Z</time><name>PT2688</name></trkpt>
<trkpt lat="52.950437" lon="05.979367"><ele>34</ele><time>2021-03-19T10:07:26Z</time><name>PT2689</name></trkpt>
<trkpt lat="52.950445" lon="05.979358"><ele>34.2</ele><time>2021-03-19T10:07:27Z</time><name>PT2690</name></trkpt>
<trkpt lat="52.950454" lon="05.979344"><ele>34.2</ele><time>2021-03-19T10:07:28Z</time><name>PT2691</name></trkpt>
<trkpt lat="52.950461" lon="05.979336"><ele>34.1</ele><time>2021-03-19T10:07:29Z</time><name>PT2692</name></trkpt>
<trkpt lat="52.950473" lon="05.979327"><ele>34</ele><time>2021-03-19T10:07:30Z</time><name>PT2693</name></trkpt>
<trkpt lat="52.950486" lon="05.979320"><ele>34</ele><time>2021-03-19T10:07:31Z</time><name>PT2694</name></trkpt>
<trkpt lat="52.950498" lon="05.979312"><ele>34.1</ele><time>2021-03-19T10:07:32Z</time><name>PT2695</name></trkpt>
<trkpt lat="52.950506" lon="05.979302"><ele>34</ele><time>2021-03-19T10:07:33Z</time><name>PT2696</name></trkpt>
<trkpt lat="52.950519" lon="05.979292"><ele>34.3</ele><time>2021-03-19T10:07:34Z</time><name>PT2697</name></trkpt>
<trkpt lat="52.950532" lon="05.979283"><ele>34.3</ele><time>2021-03-19T10:07:35Z</time><name>PT2698</name></trkpt>
<trkpt lat="52.950540" lon="05.979271"><ele>34.3</ele><time>2021-03-19T10:07:36Z</time><name>PT2699</name></trkpt>
<trkpt lat="52.950549" lon="05.979261"><ele>34.1</ele><time>2021-03-19T10:07:37Z</time><name>PT2700</name></trkpt>
<trkpt lat="52.950560" lon="05.979249"><ele>34</ele><time>2021-03-19T10:07:38Z</time><name>PT2701</name></trkpt>
<trkpt lat="52.950570" lon="05.979242"><ele>34</ele><time>2021-03-19T10:07:39Z</time><name>PT2702</name></trkpt>
<trkpt lat="52.950581" lon="05.979233"><ele>34</ele><time>2021-03-19T10:07:40Z</time><name>PT2703</name></trkpt>
<trkpt lat="52.950592" lon="05.979225"><ele>33.9</ele><time>2021-03-19T10:07:41Z</time><name>PT2704</name></trkpt>
<trkpt lat="52.950604" lon="05.979214"><ele>34</ele><time>2021-03-19T10:07:42Z</time><name>PT2705</name></trkpt>
<trkpt lat="52.950617" lon="05.979205"><ele>34</ele><time>2021-03-19T10:07:43Z</time><name>PT2706</name></trkpt>
<trkpt lat="52.950626" lon="05.979197"><ele>34</ele><time>2021-03-19T10:07:44Z</time><name>PT2707</name></trkpt>
<trkpt lat="52.950637" lon="05.979188"><ele>34</ele><time>2021-03-19T10:07:45Z</time><name>PT2708</name></trkpt>
<trkpt lat="52.950648" lon="05.979175"><ele>34</ele><time>2021-03-19T10:07:46Z</time><name>PT2709</name></trkpt>
<trkpt lat="52.950660" lon="05.979166"><ele>34.1</ele><time>2021-03-19T10:07:47Z</time><name>PT2710</name></trkpt>
<trkpt lat="52.950671" lon="05.979154"><ele>34.1</ele><time>2021-03-19T10:07:48Z</time><name>PT2711</name></trkpt>
<trkpt lat="52.950680" lon="05.979141"><ele>34.2</ele><time>2021-03-19T10:07:49Z</time><name>PT2712</name></trkpt>
<trkpt lat="52.950690" lon="05.979126"><ele>34.1</ele><time>2021-03-19T10:07:50Z</time><name>PT2713</name></trkpt>
<trkpt lat="52.950697" lon="05.979119"><ele>34.1</ele><time>2021-03-19T10:07:51Z</time><name>PT2714</name></trkpt>
<trkpt lat="52.950705" lon="05.979110"><ele>34.1</ele><time>2021-03-19T10:07:52Z</time><name>PT2715</name></trkpt>
<trkpt lat="52.950718" lon="05.979099"><ele>34</ele><time>2021-03-19T10:07:53Z</time><name>PT2716</name></trkpt>
<trkpt lat="52.950728" lon="05.979091"><ele>34.1</ele><time>2021-03-19T10:07:54Z</time><name>PT2717</name></trkpt>
<trkpt lat="52.950741" lon="05.979081"><ele>34.2</ele><time>2021-03-19T10:07:55Z</time><name>PT2718</name></trkpt>
<trkpt lat="52.950752" lon="05.979067"><ele>34</ele><time>2021-03-19T10:07:56Z</time><name>PT2719</name></trkpt>
<trkpt lat="52.950762" lon="05.979057"><ele>34.1</ele><time>2021-03-19T10:07:57Z</time><name>PT2720</name></trkpt>
<trkpt lat="52.950772" lon="05.979046"><ele>33.9</ele><time>2021-03-19T10:07:58Z</time><name>PT2721</name></trkpt>
<trkpt lat="52.950784" lon="05.979042"><ele>33.6</ele><time>2021-03-19T10:07:59Z</time><name>PT2722</name></trkpt>
<trkpt lat="52.950793" lon="05.979028"><ele>33.7</ele><time>2021-03-19T10:08:00Z</time><name>PT2723</name></trkpt>
<trkpt lat="52.950806" lon="05.979019"><ele>33.7</ele><time>2021-03-19T10:08:01Z</time><name>PT2724</name></trkpt>
<trkpt lat="52.950815" lon="05.979010"><ele>33.9</ele><time>2021-03-19T10:08:02Z</time><name>PT2725</name></trkpt>
<trkpt lat="52.950826" lon="05.978998"><ele>34</ele><time>2021-03-19T10:08:03Z</time><name>PT2726</name></trkpt>
<trkpt lat="52.950837" lon="05.978989"><ele>34</ele><time>2021-03-19T10:08:04Z</time><name>PT2727</name></trkpt>
<trkpt lat="52.950846" lon="05.978983"><ele>34</ele><time>2021-03-19T10:08:05Z</time><name>PT2728</name></trkpt>
<trkpt lat="52.950852" lon="05.978975"><ele>34</ele><time>2021-03-19T10:08:06Z</time><name>PT2729</name></trkpt>
<trkpt lat="52.950861" lon="05.978965"><ele>33.9</ele><time>2021-03-19T10:08:07Z</time><name>PT2730</name></trkpt>
<trkpt lat="52.950865" lon="05.978960"><ele>33.9</ele><time>2021-03-19T10:08:08Z</time><name>PT2731</name></trkpt>
<trkpt lat="52.950872" lon="05.978955"><ele>34</ele><time>2021-03-19T10:08:09Z</time><name>PT2732</name></trkpt>
<trkpt lat="52.950880" lon="05.978944"><ele>33.9</ele><time>2021-03-19T10:08:10Z</time><name>PT2733</name></trkpt>
<trkpt lat="52.950888" lon="05.978935"><ele>34</ele><time>2021-03-19T10:08:11Z</time><name>PT2734</name></trkpt>
<trkpt lat="52.950897" lon="05.978927"><ele>34</ele><time>2021-03-19T10:08:12Z</time><name>PT2735</name></trkpt>
<trkpt lat="52.950908" lon="05.978920"><ele>33.9</ele><time>2021-03-19T10:08:13Z</time><name>PT2736</name></trkpt>
<trkpt lat="52.950916" lon="05.978914"><ele>33.8</ele><time>2021-03-19T10:08:14Z</time><name>PT2737</name></trkpt>
<trkpt lat="52.950928" lon="05.978906"><ele>33.7</ele><time>2021-03-19T10:08:15Z</time><name>PT2738</name></trkpt>
<trkpt lat="52.950938" lon="05.978895"><ele>33.7</ele><time>2021-03-19T10:08:16Z</time><name>PT2739</name></trkpt>
<trkpt lat="52.950952" lon="05.978883"><ele>33.8</ele><time>2021-03-19T10:08:17Z</time><name>PT2740</name></trkpt>
<trkpt lat="52.950966" lon="05.978866"><ele>33.9</ele><time>2021-03-19T10:08:18Z</time><name>PT2741</name></trkpt>
<trkpt lat="52.950977" lon="05.978855"><ele>33.8</ele><time>2021-03-19T10:08:19Z</time><name>PT2742</name></trkpt>
<trkpt lat="52.950987" lon="05.978843"><ele>33.8</ele><time>2021-03-19T10:08:20Z</time><name>PT2743</name></trkpt>
<trkpt lat="52.950997" lon="05.978832"><ele>33.8</ele><time>2021-03-19T10:08:21Z</time><name>PT2744</name></trkpt>
<trkpt lat="52.951010" lon="05.978815"><ele>33.7</ele><time>2021-03-19T10:08:22Z</time><name>PT2745</name></trkpt>
<trkpt lat="52.951022" lon="05.978803"><ele>33.8</ele><time>2021-03-19T10:08:23Z</time><name>PT2746</name></trkpt>
<trkpt lat="52.951030" lon="05.978794"><ele>33.8</ele><time>2021-03-19T10:08:24Z</time><name>PT2747</name></trkpt>
<trkpt lat="52.951042" lon="05.978785"><ele>33.9</ele><time>2021-03-19T10:08:25Z</time><name>PT2748</name></trkpt>
<trkpt lat="52.951053" lon="05.978769"><ele>33.9</ele><time>2021-03-19T10:08:26Z</time><name>PT2749</name></trkpt>
<trkpt lat="52.951066" lon="05.978758"><ele>33.7</ele><time>2021-03-19T10:08:27Z</time><name>PT2750</name></trkpt>
<trkpt lat="52.951080" lon="05.978746"><ele>33.6</ele><time>2021-03-19T10:08:28Z</time><name>PT2751</name></trkpt>
<trkpt lat="52.951089" lon="05.978735"><ele>33.6</ele><time>2021-03-19T10:08:29Z</time><name>PT2752</name></trkpt>
<trkpt lat="52.951103" lon="05.978729"><ele>33.4</ele><time>2021-03-19T10:08:30Z</time><name>PT2753</name></trkpt>
<trkpt lat="52.951113" lon="05.978721"><ele>33.5</ele><time>2021-03-19T10:08:31Z</time><name>PT2754</name></trkpt>
<trkpt lat="52.951124" lon="05.978711"><ele>33.6</ele><time>2021-03-19T10:08:32Z</time><name>PT2755</name></trkpt>
<trkpt lat="52.951134" lon="05.978705"><ele>33.6</ele><time>2021-03-19T10:08:33Z</time><name>PT2756</name></trkpt>
<trkpt lat="52.951145" lon="05.978694"><ele>33.7</ele><time>2021-03-19T10:08:34Z</time><name>PT2757</name></trkpt>
<trkpt lat="52.951155" lon="05.978685"><ele>33.7</ele><time>2021-03-19T10:08:35Z</time><name>PT2758</name></trkpt>
<trkpt lat="52.951162" lon="05.978677"><ele>33.8</ele><time>2021-03-19T10:08:36Z</time><name>PT2759</name></trkpt>
<trkpt lat="52.951173" lon="05.978666"><ele>33.9</ele><time>2021-03-19T10:08:37Z</time><name>PT2760</name></trkpt>
<trkpt lat="52.951182" lon="05.978657"><ele>33.7</ele><time>2021-03-19T10:08:38Z</time><name>PT2761</name></trkpt>
<trkpt lat="52.951192" lon="05.978646"><ele>33.7</ele><time>2021-03-19T10:08:39Z</time><name>PT2762</name></trkpt>
<trkpt lat="52.951200" lon="05.978636"><ele>34</ele><time>2021-03-19T10:08:40Z</time><name>PT2763</name></trkpt>
<trkpt lat="52.951213" lon="05.978623"><ele>34</ele><time>2021-03-19T10:08:41Z</time><name>PT2764</name></trkpt>
<trkpt lat="52.951227" lon="05.978613"><ele>34.1</ele><time>2021-03-19T10:08:42Z</time><name>PT2765</name></trkpt>
<trkpt lat="52.951239" lon="05.978604"><ele>34.2</ele><time>2021-03-19T10:08:43Z</time><name>PT2766</name></trkpt>
<trkpt lat="52.951250" lon="05.978593"><ele>34.4</ele><time>2021-03-19T10:08:44Z</time><name>PT2767</name></trkpt>
<trkpt lat="52.951260" lon="05.978577"><ele>34.5</ele><time>2021-03-19T10:08:45Z</time><name>PT2768</name></trkpt>
<trkpt lat="52.951272" lon="05.978564"><ele>34.5</ele><time>2021-03-19T10:08:46Z</time><name>PT2769</name></trkpt>
<trkpt lat="52.951283" lon="05.978553"><ele>34.5</ele><time>2021-03-19T10:08:47Z</time><name>PT2770</name></trkpt>
<trkpt lat="52.951294" lon="05.978541"><ele>34.5</ele><time>2021-03-19T10:08:48Z</time><name>PT2771</name></trkpt>
<trkpt lat="52.951302" lon="05.978532"><ele>34.4</ele><time>2021-03-19T10:08:49Z</time><name>PT2772</name></trkpt>
<trkpt lat="52.951314" lon="05.978519"><ele>34.3</ele><time>2021-03-19T10:08:50Z</time><name>PT2773</name></trkpt>
<trkpt lat="52.951326" lon="05.978506"><ele>34.4</ele><time>2021-03-19T10:08:51Z</time><name>PT2774</name></trkpt>
<trkpt lat="52.951338" lon="05.978496"><ele>34.5</ele><time>2021-03-19T10:08:52Z</time><name>PT2775</name></trkpt>
<trkpt lat="52.951347" lon="05.978487"><ele>34.3</ele><time>2021-03-19T10:08:53Z</time><name>PT2776</name></trkpt>
<trkpt lat="52.951353" lon="05.978478"><ele>34.4</ele><time>2021-03-19T10:08:54Z</time><name>PT2777</name></trkpt>
<trkpt lat="52.951361" lon="05.978471"><ele>34.4</ele><time>2021-03-19T10:08:55Z</time><name>PT2778</name></trkpt>
<trkpt lat="52.951369" lon="05.978468"><ele>34.5</ele><time>2021-03-19T10:08:56Z</time><name>PT2779</name></trkpt>
<trkpt lat="52.951378" lon="05.978462"><ele>34.5</ele><time>2021-03-19T10:08:57Z</time><name>PT2780</name></trkpt>
<trkpt lat="52.951388" lon="05.978452"><ele>34.6</ele><time>2021-03-19T10:08:58Z</time><name>PT2781</name></trkpt>
<trkpt lat="52.951398" lon="05.978445"><ele>34.8</ele><time>2021-03-19T10:08:59Z</time><name>PT2782</name></trkpt>
<trkpt lat="52.951409" lon="05.978436"><ele>34.6</ele><time>2021-03-19T10:09:00Z</time><name>PT2783</name></trkpt>
<trkpt lat="52.951422" lon="05.978425"><ele>34.5</ele><time>2021-03-19T10:09:01Z</time><name>PT2784</name></trkpt>
<trkpt lat="52.951432" lon="05.978413"><ele>34.5</ele><time>2021-03-19T10:09:02Z</time><name>PT2785</name></trkpt>
<trkpt lat="52.951443" lon="05.978402"><ele>34.5</ele><time>2021-03-19T10:09:03Z</time><name>PT2786</name></trkpt>
<trkpt lat="52.951455" lon="05.978391"><ele>34.5</ele><time>2021-03-19T10:09:04Z</time><name>PT2787</name></trkpt>
<trkpt lat="52.951470" lon="05.978377"><ele>34.4</ele><time>2021-03-19T10:09:05Z</time><name>PT2788</name></trkpt>
<trkpt lat="52.951486" lon="05.978364"><ele>34.3</ele><time>2021-03-19T10:09:06Z</time><name>PT2789</name></trkpt>
<trkpt lat="52.951496" lon="05.978356"><ele>34</ele><time>2021-03-19T10:09:07Z</time><name>PT2790</name></trkpt>
<trkpt lat="52.951508" lon="05.978347"><ele>34</ele><time>2021-03-19T10:09:08Z</time><name>PT2791</name></trkpt>
<trkpt lat="52.951520" lon="05.978337"><ele>33.9</ele><time>2021-03-19T10:09:09Z</time><name>PT2792</name></trkpt>
<trkpt lat="52.951528" lon="05.978328"><ele>34</ele><time>2021-03-19T10:09:10Z</time><name>PT2793</name></trkpt>
<trkpt lat="52.951539" lon="05.978318"><ele>34</ele><time>2021-03-19T10:09:11Z</time><name>PT2794</name></trkpt>
<trkpt lat="52.951548" lon="05.978305"><ele>34</ele><time>2021-03-19T10:09:12Z</time><name>PT2795</name></trkpt>
<trkpt lat="52.951555" lon="05.978293"><ele>34</ele><time>2021-03-19T10:09:13Z</time><name>PT2796</name></trkpt>
<trkpt lat="52.951563" lon="05.978286"><ele>34.3</ele><time>2021-03-19T10:09:14Z</time><name>PT2797</name></trkpt>
<trkpt lat="52.951574" lon="05.978277"><ele>34.1</ele><time>2021-03-19T10:09:15Z</time><name>PT2798</name></trkpt>
<trkpt lat="52.951584" lon="05.978266"><ele>34.1</ele><time>2021-03-19T10:09:16Z</time><name>PT2799</name></trkpt>
<trkpt lat="52.951595" lon="05.978256"><ele>34.1</ele><time>2021-03-19T10:09:17Z</time><name>PT2800</name></trkpt>
<trkpt lat="52.951606" lon="05.978240"><ele>34</ele><time>2021-03-19T10:09:18Z</time><name>PT2801</name></trkpt>
<trkpt lat="52.951617" lon="05.978227"><ele>33.9</ele><time>2021-03-19T10:09:19Z</time><name>PT2802</name></trkpt>
<trkpt lat="52.951628" lon="05.978216"><ele>33.9</ele><time>2021-03-19T10:09:20Z</time><name>PT2803</name></trkpt>
<trkpt lat="52.951636" lon="05.978204"><ele>34</ele><time>2021-03-19T10:09:21Z</time><name>PT2804</name></trkpt>
<trkpt lat="52.951647" lon="05.978195"><ele>34</ele><time>2021-03-19T10:09:22Z</time><name>PT2805</name></trkpt>
<trkpt lat="52.951659" lon="05.978187"><ele>34.3</ele><time>2021-03-19T10:09:23Z</time><name>PT2806</name></trkpt>
<trkpt lat="52.951667" lon="05.978179"><ele>34.2</ele><time>2021-03-19T10:09:24Z</time><name>PT2807</name></trkpt>
<trkpt lat="52.951677" lon="05.978171"><ele>34.2</ele><time>2021-03-19T10:09:25Z</time><name>PT2808</name></trkpt>
<trkpt lat="52.951683" lon="05.978157"><ele>34.3</ele><time>2021-03-19T10:09:26Z</time><name>PT2809</name></trkpt>
<trkpt lat="52.951691" lon="05.978144"><ele>34.4</ele><time>2021-03-19T10:09:27Z</time><name>PT2810</name></trkpt>
<trkpt lat="52.951700" lon="05.978134"><ele>34.4</ele><time>2021-03-19T10:09:28Z</time><name>PT2811</name></trkpt>
<trkpt lat="52.951709" lon="05.978125"><ele>34.4</ele><time>2021-03-19T10:09:29Z</time><name>PT2812</name></trkpt>
<trkpt lat="52.951720" lon="05.978118"><ele>34.3</ele><time>2021-03-19T10:09:30Z</time><name>PT2813</name></trkpt>
<trkpt lat="52.951731" lon="05.978110"><ele>34.1</ele><time>2021-03-19T10:09:31Z</time><name>PT2814</name></trkpt>
<trkpt lat="52.951740" lon="05.978103"><ele>34</ele><time>2021-03-19T10:09:32Z</time><name>PT2815</name></trkpt>
<trkpt lat="52.951750" lon="05.978096"><ele>33.8</ele><time>2021-03-19T10:09:33Z</time><name>PT2816</name></trkpt>
<trkpt lat="52.951758" lon="05.978091"><ele>33.8</ele><time>2021-03-19T10:09:34Z</time><name>PT2817</name></trkpt>
<trkpt lat="52.951765" lon="05.978085"><ele>34</ele><time>2021-03-19T10:09:35Z</time><name>PT2818</name></trkpt>
<trkpt lat="52.951767" lon="05.978084"><ele>33.9</ele><time>2021-03-19T10:09:36Z</time><name>PT2819</name></trkpt>
<trkpt lat="52.951770" lon="05.978081"><ele>34.1</ele><time>2021-03-19T10:09:37Z</time><name>PT2820</name></trkpt>
<trkpt lat="52.951774" lon="05.978078"><ele>34.3</ele><time>2021-03-19T10:09:38Z</time><name>PT2821</name></trkpt>
<trkpt lat="52.951781" lon="05.978074"><ele>34.2</ele><time>2021-03-19T10:09:39Z</time><name>PT2822</name></trkpt>
<trkpt lat="52.951782" lon="05.978071"><ele>34.2</ele><time>2021-03-19T10:09:40Z</time><name>PT2823</name></trkpt>
<trkpt lat="52.951785" lon="05.978071"><ele>34.2</ele><time>2021-03-19T10:09:41Z</time><name>PT2824</name></trkpt>
<trkpt lat="52.951790" lon="05.978067"><ele>34.2</ele><time>2021-03-19T10:09:46Z</time><name>PT2825</name></trkpt>
<trkpt lat="52.951798" lon="05.978063"><ele>34.1</ele><time>2021-03-19T10:09:47Z</time><name>PT2826</name></trkpt>
<trkpt lat="52.951805" lon="05.978057"><ele>34.3</ele><time>2021-03-19T10:09:48Z</time><name>PT2827</name></trkpt>
<trkpt lat="52.951812" lon="05.978045"><ele>34.4</ele><time>2021-03-19T10:09:49Z</time><name>PT2828</name></trkpt>
<trkpt lat="52.951822" lon="05.978036"><ele>34.4</ele><time>2021-03-19T10:09:50Z</time><name>PT2829</name></trkpt>
<trkpt lat="52.951831" lon="05.978030"><ele>34.3</ele><time>2021-03-19T10:09:51Z</time><name>PT2830</name></trkpt>
<trkpt lat="52.951837" lon="05.978022"><ele>34.2</ele><time>2021-03-19T10:09:52Z</time><name>PT2831</name></trkpt>
<trkpt lat="52.951843" lon="05.978012"><ele>34.2</ele><time>2021-03-19T10:09:53Z</time><name>PT2832</name></trkpt>
<trkpt lat="52.951850" lon="05.978005"><ele>34</ele><time>2021-03-19T10:09:54Z</time><name>PT2833</name></trkpt>
<trkpt lat="52.951859" lon="05.978001"><ele>34.1</ele><time>2021-03-19T10:09:55Z</time><name>PT2834</name></trkpt>
<trkpt lat="52.951866" lon="05.977993"><ele>34.1</ele><time>2021-03-19T10:09:56Z</time><name>PT2835</name></trkpt>
<trkpt lat="52.951874" lon="05.977984"><ele>34.2</ele><time>2021-03-19T10:09:57Z</time><name>PT2836</name></trkpt>
<trkpt lat="52.951882" lon="05.977975"><ele>34.2</ele><time>2021-03-19T10:09:58Z</time><name>PT2837</name></trkpt>
<trkpt lat="52.951891" lon="05.977960"><ele>34.4</ele><time>2021-03-19T10:09:59Z</time><name>PT2838</name></trkpt>
<trkpt lat="52.951896" lon="05.977952"><ele>34.5</ele><time>2021-03-19T10:10:00Z</time><name>PT2839</name></trkpt>
<trkpt lat="52.951905" lon="05.977944"><ele>34.5</ele><time>2021-03-19T10:10:01Z</time><name>PT2840</name></trkpt>
<trkpt lat="52.951914" lon="05.977935"><ele>34.6</ele><time>2021-03-19T10:10:02Z</time><name>PT2841</name></trkpt>
<trkpt lat="52.951923" lon="05.977926"><ele>34.5</ele><time>2021-03-19T10:10:03Z</time><name>PT2842</name></trkpt>
<trkpt lat="52.951933" lon="05.977912"><ele>34.2</ele><time>2021-03-19T10:10:04Z</time><name>PT2843</name></trkpt>
<trkpt lat="52.951941" lon="05.977908"><ele>34.3</ele><time>2021-03-19T10:10:05Z</time><name>PT2844</name></trkpt>
<trkpt lat="52.951948" lon="05.977904"><ele>34.2</ele><time>2021-03-19T10:10:06Z</time><name>PT2845</name></trkpt>
<trkpt lat="52.951954" lon="05.977899"><ele>34</ele><time>2021-03-19T10:10:07Z</time><name>PT2846</name></trkpt>
<trkpt lat="52.951958" lon="05.977893"><ele>34.1</ele><time>2021-03-19T10:10:08Z</time><name>PT2847</name></trkpt>
<trkpt lat="52.951963" lon="05.977888"><ele>34</ele><time>2021-03-19T10:10:09Z</time><name>PT2848</name></trkpt>
<trkpt lat="52.951971" lon="05.977878"><ele>34.1</ele><time>2021-03-19T10:10:10Z</time><name>PT2849</name></trkpt>
<trkpt lat="52.951973" lon="05.977875"><ele>34.4</ele><time>2021-03-19T10:10:11Z</time><name>PT2850</name></trkpt>
<trkpt lat="52.951976" lon="05.977869"><ele>34.5</ele><time>2021-03-19T10:10:12Z</time><name>PT2851</name></trkpt>
<trkpt lat="52.951979" lon="05.977868"><ele>34.8</ele><time>2021-03-19T10:10:13Z</time><name>PT2852</name></trkpt>
<trkpt lat="52.951984" lon="05.977865"><ele>34.9</ele><time>2021-03-19T10:10:14Z</time><name>PT2853</name></trkpt>
<trkpt lat="52.951990" lon="05.977864"><ele>35</ele><time>2021-03-19T10:10:15Z</time><name>PT2854</name></trkpt>
<trkpt lat="52.951998" lon="05.977865"><ele>35.1</ele><time>2021-03-19T10:10:16Z</time><name>PT2855</name></trkpt>
<trkpt lat="52.952004" lon="05.977864"><ele>34.9</ele><time>2021-03-19T10:10:17Z</time><name>PT2856</name></trkpt>
<trkpt lat="52.952009" lon="05.977864"><ele>34.8</ele><time>2021-03-19T10:10:18Z</time><name>PT2857</name></trkpt>
<trkpt lat="52.952013" lon="05.977863"><ele>34.7</ele><time>2021-03-19T10:10:19Z</time><name>PT2858</name></trkpt>
<trkpt lat="52.952014" lon="05.977861"><ele>34.7</ele><time>2021-03-19T10:10:20Z</time><name>PT2859</name></trkpt>
<trkpt lat="52.952015" lon="05.977860"><ele>34.6</ele><time>2021-03-19T10:10:21Z</time><name>PT2860</name></trkpt>
<trkpt lat="52.952016" lon="05.977861"><ele>34.7</ele><time>2021-03-19T10:10:22Z</time><name>PT2861</name></trkpt>
<trkpt lat="52.952018" lon="05.977858"><ele>34.8</ele><time>2021-03-19T10:10:28Z</time><name>PT2862</name></trkpt>
<trkpt lat="52.952024" lon="05.977851"><ele>34.8</ele><time>2021-03-19T10:10:29Z</time><name>PT2863</name></trkpt>
<trkpt lat="52.952031" lon="05.977837"><ele>34.6</ele><time>2021-03-19T10:10:30Z</time><name>PT2864</name></trkpt>
<trkpt lat="52.952035" lon="05.977823"><ele>34.6</ele><time>2021-03-19T10:10:31Z</time><name>PT2865</name></trkpt>
<trkpt lat="52.952040" lon="05.977816"><ele>34.5</ele><time>2021-03-19T10:10:32Z</time><name>PT2866</name></trkpt>
<trkpt lat="52.952050" lon="05.977808"><ele>34.5</ele><time>2021-03-19T10:10:33Z</time><name>PT2867</name></trkpt>
<trkpt lat="52.952058" lon="05.977803"><ele>34.4</ele><time>2021-03-19T10:10:34Z</time><name>PT2868</name></trkpt>
<trkpt lat="52.952062" lon="05.977793"><ele>34.2</ele><time>2021-03-19T10:10:35Z</time><name>PT2869</name></trkpt>
<trkpt lat="52.952069" lon="05.977787"><ele>34.1</ele><time>2021-03-19T10:10:36Z</time><name>PT2870</name></trkpt>
<trkpt lat="52.952075" lon="05.977779"><ele>34.2</ele><time>2021-03-19T10:10:37Z</time><name>PT2871</name></trkpt>
<trkpt lat="52.952079" lon="05.977773"><ele>34.2</ele><time>2021-03-19T10:10:38Z</time><name>PT2872</name></trkpt>
<trkpt lat="52.952089" lon="05.977760"><ele>34.4</ele><time>2021-03-19T10:10:39Z</time><name>PT2873</name></trkpt>
<trkpt lat="52.952094" lon="05.977752"><ele>34.5</ele><time>2021-03-19T10:10:40Z</time><name>PT2874</name></trkpt>
<trkpt lat="52.952098" lon="05.977743"><ele>34.6</ele><time>2021-03-19T10:10:41Z</time><name>PT2875</name></trkpt>
<trkpt lat="52.952100" lon="05.977742"><ele>34.6</ele><time>2021-03-19T10:10:42Z</time><name>PT2876</name></trkpt>
<trkpt lat="52.952102" lon="05.977739"><ele>34.6</ele><time>2021-03-19T10:10:43Z</time><name>PT2877</name></trkpt>
<trkpt lat="52.952114" lon="05.977707"><ele>34.7</ele><time>2021-03-19T10:10:46Z</time><name>PT2878</name></trkpt>
<trkpt lat="52.952118" lon="05.977715"><ele>34.7</ele><time>2021-03-19T10:10:47Z</time><name>PT2879</name></trkpt>
<trkpt lat="52.952118" lon="05.977718"><ele>34.7</ele><time>2021-03-19T10:10:48Z</time><name>PT2880</name></trkpt>
<trkpt lat="52.952119" lon="05.977720"><ele>34.7</ele><time>2021-03-19T10:10:49Z</time><name>PT2881</name></trkpt>
<trkpt lat="52.952120" lon="05.977720"><ele>34.5</ele><time>2021-03-19T10:10:50Z</time><name>PT2882</name></trkpt>
<trkpt lat="52.952127" lon="05.977710"><ele>34.6</ele><time>2021-03-19T10:10:51Z</time><name>PT2883</name></trkpt>
<trkpt lat="52.952136" lon="05.977704"><ele>34.5</ele><time>2021-03-19T10:10:52Z</time><name>PT2884</name></trkpt>
<trkpt lat="52.952143" lon="05.977692"><ele>34.6</ele><time>2021-03-19T10:10:53Z</time><name>PT2885</name></trkpt>
<trkpt lat="52.952152" lon="05.977681"><ele>34.6</ele><time>2021-03-19T10:10:54Z</time><name>PT2886</name></trkpt>
<trkpt lat="52.952159" lon="05.977667"><ele>34.6</ele><time>2021-03-19T10:10:55Z</time><name>PT2887</name></trkpt>
<trkpt lat="52.952165" lon="05.977657"><ele>34.6</ele><time>2021-03-19T10:10:56Z</time><name>PT2888</name></trkpt>
<trkpt lat="52.952170" lon="05.977644"><ele>34.5</ele><time>2021-03-19T10:10:57Z</time><name>PT2889</name></trkpt>
<trkpt lat="52.952173" lon="05.977630"><ele>34.7</ele><time>2021-03-19T10:10:58Z</time><name>PT2890</name></trkpt>
<trkpt lat="52.952173" lon="05.977614"><ele>34.7</ele><time>2021-03-19T10:10:59Z</time><name>PT2891</name></trkpt>
<trkpt lat="52.952171" lon="05.977599"><ele>34.8</ele><time>2021-03-19T10:11:00Z</time><name>PT2892</name></trkpt>
<trkpt lat="52.952171" lon="05.977584"><ele>35</ele><time>2021-03-19T10:11:01Z</time><name>PT2893</name></trkpt>
<trkpt lat="52.952171" lon="05.977570"><ele>34.9</ele><time>2021-03-19T10:11:02Z</time><name>PT2894</name></trkpt>
<trkpt lat="52.952171" lon="05.977553"><ele>34.9</ele><time>2021-03-19T10:11:03Z</time><name>PT2895</name></trkpt>
<trkpt lat="52.952169" lon="05.977540"><ele>35</ele><time>2021-03-19T10:11:04Z</time><name>PT2896</name></trkpt>
<trkpt lat="52.952167" lon="05.977526"><ele>34.9</ele><time>2021-03-19T10:11:05Z</time><name>PT2897</name></trkpt>
<trkpt lat="52.952164" lon="05.977509"><ele>35</ele><time>2021-03-19T10:11:06Z</time><name>PT2898</name></trkpt>
<trkpt lat="52.952166" lon="05.977498"><ele>34.9</ele><time>2021-03-19T10:11:07Z</time><name>PT2899</name></trkpt>
<trkpt lat="52.952163" lon="05.977488"><ele>34.9</ele><time>2021-03-19T10:11:08Z</time><name>PT2900</name></trkpt>
<trkpt lat="52.952161" lon="05.977472"><ele>34.9</ele><time>2021-03-19T10:11:09Z</time><name>PT2901</name></trkpt>
<trkpt lat="52.952158" lon="05.977454"><ele>34.9</ele><time>2021-03-19T10:11:10Z</time><name>PT2902</name></trkpt>
<trkpt lat="52.952157" lon="05.977436"><ele>35.2</ele><time>2021-03-19T10:11:11Z</time><name>PT2903</name></trkpt>
<trkpt lat="52.952154" lon="05.977417"><ele>35.3</ele><time>2021-03-19T10:11:12Z</time><name>PT2904</name></trkpt>
<trkpt lat="52.952151" lon="05.977401"><ele>35.4</ele><time>2021-03-19T10:11:13Z</time><name>PT2905</name></trkpt>
<trkpt lat="52.952150" lon="05.977392"><ele>35.4</ele><time>2021-03-19T10:11:14Z</time><name>PT2906</name></trkpt>
<trkpt lat="52.952149" lon="05.977390"><ele>35.2</ele><time>2021-03-19T10:11:15Z</time><name>PT2907</name></trkpt>
<trkpt lat="52.952150" lon="05.977391"><ele>35</ele><time>2021-03-19T10:11:16Z</time><name>PT2908</name></trkpt>
<trkpt lat="52.952149" lon="05.977385"><ele>35.1</ele><time>2021-03-19T10:11:17Z</time><name>PT2909</name></trkpt>
<trkpt lat="52.952148" lon="05.977372"><ele>35</ele><time>2021-03-19T10:11:18Z</time><name>PT2910</name></trkpt>
<trkpt lat="52.952145" lon="05.977356"><ele>35.1</ele><time>2021-03-19T10:11:19Z</time><name>PT2911</name></trkpt>
<trkpt lat="52.952141" lon="05.977340"><ele>35.2</ele><time>2021-03-19T10:11:20Z</time><name>PT2912</name></trkpt>
<trkpt lat="52.952140" lon="05.977324"><ele>35.2</ele><time>2021-03-19T10:11:21Z</time><name>PT2913</name></trkpt>
<trkpt lat="52.952138" lon="05.977309"><ele>35.3</ele><time>2021-03-19T10:11:22Z</time><name>PT2914</name></trkpt>
<trkpt lat="52.952137" lon="05.977296"><ele>35.2</ele><time>2021-03-19T10:11:23Z</time><name>PT2915</name></trkpt>
<trkpt lat="52.952136" lon="05.977284"><ele>35.2</ele><time>2021-03-19T10:11:24Z</time><name>PT2916</name></trkpt>
<trkpt lat="52.952136" lon="05.977271"><ele>35.1</ele><time>2021-03-19T10:11:25Z</time><name>PT2917</name></trkpt>
<trkpt lat="52.952134" lon="05.977257"><ele>35</ele><time>2021-03-19T10:11:26Z</time><name>PT2918</name></trkpt>
<trkpt lat="52.952132" lon="05.977245"><ele>35.2</ele><time>2021-03-19T10:11:27Z</time><name>PT2919</name></trkpt>
<trkpt lat="52.952128" lon="05.977231"><ele>35.1</ele><time>2021-03-19T10:11:28Z</time><name>PT2920</name></trkpt>
<trkpt lat="52.952126" lon="05.977217"><ele>35.1</ele><time>2021-03-19T10:11:29Z</time><name>PT2921</name></trkpt>
<trkpt lat="52.952124" lon="05.977200"><ele>35.1</ele><time>2021-03-19T10:11:30Z</time><name>PT2922</name></trkpt>
<trkpt lat="52.952121" lon="05.977183"><ele>35.2</ele><time>2021-03-19T10:11:31Z</time><name>PT2923</name></trkpt>
<trkpt lat="52.952115" lon="05.977161"><ele>35.4</ele><time>2021-03-19T10:11:32Z</time><name>PT2924</name></trkpt>
<trkpt lat="52.952117" lon="05.977138"><ele>35.4</ele><time>2021-03-19T10:11:33Z</time><name>PT2925</name></trkpt>
<trkpt lat="52.952112" lon="05.977116"><ele>35.3</ele><time>2021-03-19T10:11:34Z</time><name>PT2926</name></trkpt>
<trkpt lat="52.952106" lon="05.977091"><ele>35.1</ele><time>2021-03-19T10:11:35Z</time><name>PT2927</name></trkpt>
<trkpt lat="52.952101" lon="05.977071"><ele>34.9</ele><time>2021-03-19T10:11:36Z</time><name>PT2928</name></trkpt>
<trkpt lat="52.952096" lon="05.977054"><ele>34.9</ele><time>2021-03-19T10:11:37Z</time><name>PT2929</name></trkpt>
<trkpt lat="52.952092" lon="05.977034"><ele>34.8</ele><time>2021-03-19T10:11:38Z</time><name>PT2930</name></trkpt>
<trkpt lat="52.952088" lon="05.977016"><ele>34.8</ele><time>2021-03-19T10:11:39Z</time><name>PT2931</name></trkpt>
<trkpt lat="52.952082" lon="05.976999"><ele>35</ele><time>2021-03-19T10:11:40Z</time><name>PT2932</name></trkpt>
<trkpt lat="52.952075" lon="05.976977"><ele>34.9</ele><time>2021-03-19T10:11:41Z</time><name>PT2933</name></trkpt>
<trkpt lat="52.952070" lon="05.976956"><ele>34.9</ele><time>2021-03-19T10:11:42Z</time><name>PT2934</name></trkpt>
<trkpt lat="52.952066" lon="05.976934"><ele>34.9</ele><time>2021-03-19T10:11:43Z</time><name>PT2935</name></trkpt>
<trkpt lat="52.952062" lon="05.976914"><ele>34.8</ele><time>2021-03-19T10:11:44Z</time><name>PT2936</name></trkpt>
<trkpt lat="52.952059" lon="05.976896"><ele>34.5</ele><time>2021-03-19T10:11:45Z</time><name>PT2937</name></trkpt>
<trkpt lat="52.952055" lon="05.976878"><ele>34.6</ele><time>2021-03-19T10:11:46Z</time><name>PT2938</name></trkpt>
<trkpt lat="52.952052" lon="05.976857"><ele>34.7</ele><time>2021-03-19T10:11:47Z</time><name>PT2939</name></trkpt>
<trkpt lat="52.952050" lon="05.976835"><ele>34.7</ele><time>2021-03-19T10:11:48Z</time><name>PT2940</name></trkpt>
<trkpt lat="52.952047" lon="05.976815"><ele>34.9</ele><time>2021-03-19T10:11:49Z</time><name>PT2941</name></trkpt>
<trkpt lat="52.952045" lon="05.976790"><ele>34.8</ele><time>2021-03-19T10:11:50Z</time><name>PT2942</name></trkpt>
<trkpt lat="52.952042" lon="05.976768"><ele>35</ele><time>2021-03-19T10:11:51Z</time><name>PT2943</name></trkpt>
<trkpt lat="52.952036" lon="05.976745"><ele>34.9</ele><time>2021-03-19T10:11:52Z</time><name>PT2944</name></trkpt>
<trkpt lat="52.952031" lon="05.976723"><ele>34.9</ele><time>2021-03-19T10:11:53Z</time><name>PT2945</name></trkpt>
<trkpt lat="52.952027" lon="05.976702"><ele>35</ele><time>2021-03-19T10:11:54Z</time><name>PT2946</name></trkpt>
<trkpt lat="52.952021" lon="05.976682"><ele>35</ele><time>2021-03-19T10:11:55Z</time><name>PT2947</name></trkpt>
<trkpt lat="52.952018" lon="05.976661"><ele>35.2</ele><time>2021-03-19T10:11:56Z</time><name>PT2948</name></trkpt>
<trkpt lat="52.952014" lon="05.976642"><ele>35.2</ele><time>2021-03-19T10:11:57Z</time><name>PT2949</name></trkpt>
<trkpt lat="52.952011" lon="05.976624"><ele>35.3</ele><time>2021-03-19T10:11:58Z</time><name>PT2950</name></trkpt>
<trkpt lat="52.952009" lon="05.976604"><ele>35.1</ele><time>2021-03-19T10:11:59Z</time><name>PT2951</name></trkpt>
<trkpt lat="52.952008" lon="05.976584"><ele>34.9</ele><time>2021-03-19T10:12:00Z</time><name>PT2952</name></trkpt>
<trkpt lat="52.952006" lon="05.976562"><ele>35</ele><time>2021-03-19T10:12:01Z</time><name>PT2953</name></trkpt>
<trkpt lat="52.952004" lon="05.976541"><ele>34.9</ele><time>2021-03-19T10:12:02Z</time><name>PT2954</name></trkpt>
<trkpt lat="52.952003" lon="05.976523"><ele>34.9</ele><time>2021-03-19T10:12:03Z</time><name>PT2955</name></trkpt>
<trkpt lat="52.952000" lon="05.976503"><ele>34.9</ele><time>2021-03-19T10:12:04Z</time><name>PT2956</name></trkpt>
<trkpt lat="52.951997" lon="05.976485"><ele>34.9</ele><time>2021-03-19T10:12:05Z</time><name>PT2957</name></trkpt>
<trkpt lat="52.951994" lon="05.976465"><ele>35</ele><time>2021-03-19T10:12:06Z</time><name>PT2958</name></trkpt>
<trkpt lat="52.951988" lon="05.976449"><ele>34.9</ele><time>2021-03-19T10:12:07Z</time><name>PT2959</name></trkpt>
<trkpt lat="52.951984" lon="05.976427"><ele>34.9</ele><time>2021-03-19T10:12:08Z</time><name>PT2960</name></trkpt>
<trkpt lat="52.951979" lon="05.976416"><ele>34.9</ele><time>2021-03-19T10:12:09Z</time><name>PT2961</name></trkpt>
<trkpt lat="52.951976" lon="05.976404"><ele>34.7</ele><time>2021-03-19T10:12:10Z</time><name>PT2962</name></trkpt>
<trkpt lat="52.951974" lon="05.976388"><ele>34.6</ele><time>2021-03-19T10:12:11Z</time><name>PT2963</name></trkpt>
<trkpt lat="52.951971" lon="05.976371"><ele>34.7</ele><time>2021-03-19T10:12:12Z</time><name>PT2964</name></trkpt>
<trkpt lat="52.951966" lon="05.976357"><ele>34.8</ele><time>2021-03-19T10:12:13Z</time><name>PT2965</name></trkpt>
<trkpt lat="52.951964" lon="05.976339"><ele>34.7</ele><time>2021-03-19T10:12:14Z</time><name>PT2966</name></trkpt>
<trkpt lat="52.951963" lon="05.976318"><ele>34.6</ele><time>2021-03-19T10:12:15Z</time><name>PT2967</name></trkpt>
<trkpt lat="52.951962" lon="05.976297"><ele>34.7</ele><time>2021-03-19T10:12:16Z</time><name>PT2968</name></trkpt>
<trkpt lat="52.951960" lon="05.976278"><ele>34.7</ele><time>2021-03-19T10:12:17Z</time><name>PT2969</name></trkpt>
<trkpt lat="52.951959" lon="05.976259"><ele>34.8</ele><time>2021-03-19T10:12:18Z</time><name>PT2970</name></trkpt>
<trkpt lat="52.951955" lon="05.976242"><ele>34.8</ele><time>2021-03-19T10:12:19Z</time><name>PT2971</name></trkpt>
<trkpt lat="52.951954" lon="05.976224"><ele>34.8</ele><time>2021-03-19T10:12:20Z</time><name>PT2972</name></trkpt>
<trkpt lat="52.951955" lon="05.976206"><ele>34.7</ele><time>2021-03-19T10:12:21Z</time><name>PT2973</name></trkpt>
<trkpt lat="52.951956" lon="05.976193"><ele>34.5</ele><time>2021-03-19T10:12:22Z</time><name>PT2974</name></trkpt>
<trkpt lat="52.951956" lon="05.976176"><ele>34.4</ele><time>2021-03-19T10:12:23Z</time><name>PT2975</name></trkpt>
<trkpt lat="52.951955" lon="05.976158"><ele>34.4</ele><time>2021-03-19T10:12:24Z</time><name>PT2976</name></trkpt>
<trkpt lat="52.951955" lon="05.976139"><ele>34.4</ele><time>2021-03-19T10:12:25Z</time><name>PT2977</name></trkpt>
<trkpt lat="52.951955" lon="05.976117"><ele>34.5</ele><time>2021-03-19T10:12:26Z</time><name>PT2978</name></trkpt>
<trkpt lat="52.951955" lon="05.976099"><ele>34.7</ele><time>2021-03-19T10:12:27Z</time><name>PT2979</name></trkpt>
<trkpt lat="52.951952" lon="05.976082"><ele>34.8</ele><time>2021-03-19T10:12:28Z</time><name>PT2980</name></trkpt>
<trkpt lat="52.951954" lon="05.976061"><ele>34.7</ele><time>2021-03-19T10:12:29Z</time><name>PT2981</name></trkpt>
<trkpt lat="52.951954" lon="05.976045"><ele>34.7</ele><time>2021-03-19T10:12:30Z</time><name>PT2982</name></trkpt>
<trkpt lat="52.951954" lon="05.976029"><ele>34.6</ele><time>2021-03-19T10:12:31Z</time><name>PT2983</name></trkpt>
<trkpt lat="52.951953" lon="05.976013"><ele>34.5</ele><time>2021-03-19T10:12:32Z</time><name>PT2984</name></trkpt>
<trkpt lat="52.951953" lon="05.975997"><ele>34.5</ele><time>2021-03-19T10:12:33Z</time><name>PT2985</name></trkpt>
<trkpt lat="52.951956" lon="05.975977"><ele>34.5</ele><time>2021-03-19T10:12:34Z</time><name>PT2986</name></trkpt>
<trkpt lat="52.951953" lon="05.975965"><ele>34.4</ele><time>2021-03-19T10:12:35Z</time><name>PT2987</name></trkpt>
<trkpt lat="52.951951" lon="05.975952"><ele>34.5</ele><time>2021-03-19T10:12:36Z</time><name>PT2988</name></trkpt>
<trkpt lat="52.951951" lon="05.975940"><ele>34.5</ele><time>2021-03-19T10:12:37Z</time><name>PT2989</name></trkpt>
<trkpt lat="52.951952" lon="05.975924"><ele>34.8</ele><time>2021-03-19T10:12:38Z</time><name>PT2990</name></trkpt>
<trkpt lat="52.951953" lon="05.975910"><ele>34.8</ele><time>2021-03-19T10:12:39Z</time><name>PT2991</name></trkpt>
<trkpt lat="52.951949" lon="05.975893"><ele>34.7</ele><time>2021-03-19T10:12:40Z</time><name>PT2992</name></trkpt>
<trkpt lat="52.951947" lon="05.975874"><ele>34.6</ele><time>2021-03-19T10:12:41Z</time><name>PT2993</name></trkpt>
<trkpt lat="52.951942" lon="05.975861"><ele>34.5</ele><time>2021-03-19T10:12:42Z</time><name>PT2994</name></trkpt>
<trkpt lat="52.951939" lon="05.975844"><ele>34.5</ele><time>2021-03-19T10:12:43Z</time><name>PT2995</name></trkpt>
<trkpt lat="52.951937" lon="05.975819"><ele>34.5</ele><time>2021-03-19T10:12:44Z</time><name>PT2996</name></trkpt>
<trkpt lat="52.951937" lon="05.975799"><ele>34.5</ele><time>2021-03-19T10:12:45Z</time><name>PT2997</name></trkpt>
<trkpt lat="52.951937" lon="05.975780"><ele>34.5</ele><time>2021-03-19T10:12:46Z</time><name>PT2998</name></trkpt>
<trkpt lat="52.951935" lon="05.975768"><ele>34.5</ele><time>2021-03-19T10:12:47Z</time><name>PT2999</name></trkpt>
<trkpt lat="52.951933" lon="05.975746"><ele>34.6</ele><time>2021-03-19T10:12:48Z</time><name>PT3000</name></trkpt>
<trkpt lat="52.951932" lon="05.975725"><ele>34.6</ele><time>2021-03-19T10:12:49Z</time><name>PT3001</name></trkpt>
<trkpt lat="52.951932" lon="05.975695"><ele>34.7</ele><time>2021-03-19T10:12:50Z</time><name>PT3002</name></trkpt>
<trkpt lat="52.951932" lon="05.975674"><ele>34.6</ele><time>2021-03-19T10:12:51Z</time><name>PT3003</name></trkpt>
<trkpt lat="52.951931" lon="05.975653"><ele>34.8</ele><time>2021-03-19T10:12:52Z</time><name>PT3004</name></trkpt>
<trkpt lat="52.951930" lon="05.975630"><ele>34.8</ele><time>2021-03-19T10:12:53Z</time><name>PT3005</name></trkpt>
<trkpt lat="52.951928" lon="05.975607"><ele>34.9</ele><time>2021-03-19T10:12:54Z</time><name>PT3006</name></trkpt>
<trkpt lat="52.951927" lon="05.975582"><ele>34.9</ele><time>2021-03-19T10:12:55Z</time><name>PT3007</name></trkpt>
<trkpt lat="52.951925" lon="05.975561"><ele>34.9</ele><time>2021-03-19T10:12:56Z</time><name>PT3008</name></trkpt>
<trkpt lat="52.951922" lon="05.975540"><ele>34.9</ele><time>2021-03-19T10:12:57Z</time><name>PT3009</name></trkpt>
<trkpt lat="52.951920" lon="05.975521"><ele>34.7</ele><time>2021-03-19T10:12:58Z</time><name>PT3010</name></trkpt>
<trkpt lat="52.951914" lon="05.975499"><ele>34.6</ele><time>2021-03-19T10:12:59Z</time><name>PT3011</name></trkpt>
<trkpt lat="52.951912" lon="05.975477"><ele>34.6</ele><time>2021-03-19T10:13:00Z</time><name>PT3012</name></trkpt>
<trkpt lat="52.951911" lon="05.975460"><ele>34.5</ele><time>2021-03-19T10:13:01Z</time><name>PT3013</name></trkpt>
<trkpt lat="52.951909" lon="05.975442"><ele>34.7</ele><time>2021-03-19T10:13:02Z</time><name>PT3014</name></trkpt>
<trkpt lat="52.951909" lon="05.975422"><ele>34.7</ele><time>2021-03-19T10:13:03Z</time><name>PT3015</name></trkpt>
<trkpt lat="52.951908" lon="05.975416"><ele>34.7</ele><time>2021-03-19T10:13:04Z</time><name>PT3016</name></trkpt>
<trkpt lat="52.951912" lon="05.975399"><ele>34.9</ele><time>2021-03-19T10:13:05Z</time><name>PT3017</name></trkpt>
<trkpt lat="52.951909" lon="05.975383"><ele>34.9</ele><time>2021-03-19T10:13:06Z</time><name>PT3018</name></trkpt>
<trkpt lat="52.951911" lon="05.975374"><ele>34.9</ele><time>2021-03-19T10:13:09Z</time><name>PT3019</name></trkpt>
<trkpt lat="52.951910" lon="05.975349"><ele>34.7</ele><time>2021-03-19T10:13:10Z</time><name>PT3020</name></trkpt>
<trkpt lat="52.951916" lon="05.975338"><ele>34.6</ele><time>2021-03-19T10:13:11Z</time><name>PT3021</name></trkpt>
<trkpt lat="52.951921" lon="05.975298"><ele>34.7</ele><time>2021-03-19T10:13:12Z</time><name>PT3022</name></trkpt>
<trkpt lat="52.951922" lon="05.975282"><ele>34.5</ele><time>2021-03-19T10:13:13Z</time><name>PT3023</name></trkpt>
<trkpt lat="52.951918" lon="05.975266"><ele>34.6</ele><time>2021-03-19T10:13:14Z</time><name>PT3024</name></trkpt>
<trkpt lat="52.951913" lon="05.975253"><ele>34.7</ele><time>2021-03-19T10:13:15Z</time><name>PT3025</name></trkpt>
<trkpt lat="52.951907" lon="05.975232"><ele>34.5</ele><time>2021-03-19T10:13:16Z</time><name>PT3026</name></trkpt>
<trkpt lat="52.951905" lon="05.975220"><ele>34.5</ele><time>2021-03-19T10:13:17Z</time><name>PT3027</name></trkpt>
<trkpt lat="52.951901" lon="05.975211"><ele>34.5</ele><time>2021-03-19T10:13:18Z</time><name>PT3028</name></trkpt>
<trkpt lat="52.951894" lon="05.975198"><ele>34.5</ele><time>2021-03-19T10:13:19Z</time><name>PT3029</name></trkpt>
<trkpt lat="52.951890" lon="05.975183"><ele>34.6</ele><time>2021-03-19T10:13:20Z</time><name>PT3030</name></trkpt>
<trkpt lat="52.951887" lon="05.975171"><ele>34.7</ele><time>2021-03-19T10:13:21Z</time><name>PT3031</name></trkpt>
<trkpt lat="52.951885" lon="05.975154"><ele>34.8</ele><time>2021-03-19T10:13:22Z</time><name>PT3032</name></trkpt>
<trkpt lat="52.951884" lon="05.975142"><ele>34.7</ele><time>2021-03-19T10:13:23Z</time><name>PT3033</name></trkpt>
<trkpt lat="52.951883" lon="05.975137"><ele>34.6</ele><time>2021-03-19T10:13:24Z</time><name>PT3034</name></trkpt>
<trkpt lat="52.951879" lon="05.975118"><ele>34.7</ele><time>2021-03-19T10:13:25Z</time><name>PT3035</name></trkpt>
<trkpt lat="52.951876" lon="05.975103"><ele>34.6</ele><time>2021-03-19T10:13:26Z</time><name>PT3036</name></trkpt>
<trkpt lat="52.951875" lon="05.975092"><ele>34.8</ele><time>2021-03-19T10:13:27Z</time><name>PT3037</name></trkpt>
<trkpt lat="52.951871" lon="05.975074"><ele>34.9</ele><time>2021-03-19T10:13:28Z</time><name>PT3038</name></trkpt>
<trkpt lat="52.951865" lon="05.975061"><ele>34.7</ele><time>2021-03-19T10:13:29Z</time><name>PT3039</name></trkpt>
<trkpt lat="52.951856" lon="05.975041"><ele>34.7</ele><time>2021-03-19T10:13:30Z</time><name>PT3040</name></trkpt>
<trkpt lat="52.951848" lon="05.975002"><ele>34.8</ele><time>2021-03-19T10:13:31Z</time><name>PT3041</name></trkpt>
<trkpt lat="52.951845" lon="05.974975"><ele>34.7</ele><time>2021-03-19T10:13:32Z</time><name>PT3042</name></trkpt>
<trkpt lat="52.951841" lon="05.974959"><ele>34.6</ele><time>2021-03-19T10:13:33Z</time><name>PT3043</name></trkpt>
<trkpt lat="52.951841" lon="05.974947"><ele>34.5</ele><time>2021-03-19T10:13:36Z</time><name>PT3044</name></trkpt>
<trkpt lat="52.951836" lon="05.974943"><ele>34.3</ele><time>2021-03-19T10:13:37Z</time><name>PT3045</name></trkpt>
<trkpt lat="52.951835" lon="05.974936"><ele>34.4</ele><time>2021-03-19T10:13:38Z</time><name>PT3046</name></trkpt>
<trkpt lat="52.951832" lon="05.974925"><ele>34.3</ele><time>2021-03-19T10:13:39Z</time><name>PT3047</name></trkpt>
<trkpt lat="52.951837" lon="05.974911"><ele>34.3</ele><time>2021-03-19T10:13:40Z</time><name>PT3048</name></trkpt>
<trkpt lat="52.951828" lon="05.974887"><ele>34.4</ele><time>2021-03-19T10:13:41Z</time><name>PT3049</name></trkpt>
<trkpt lat="52.951826" lon="05.974884"><ele>34.5</ele><time>2021-03-19T10:13:42Z</time><name>PT3050</name></trkpt>
<trkpt lat="52.951825" lon="05.974889"><ele>34.9</ele><time>2021-03-19T10:13:51Z</time><name>PT3051</name></trkpt>
<trkpt lat="52.951825" lon="05.974894"><ele>35</ele><time>2021-03-19T10:13:52Z</time><name>PT3052</name></trkpt>
<trkpt lat="52.951828" lon="05.974897"><ele>34.6</ele><time>2021-03-19T10:13:53Z</time><name>PT3053</name></trkpt>
<trkpt lat="52.951832" lon="05.974901"><ele>34.6</ele><time>2021-03-19T10:13:54Z</time><name>PT3054</name></trkpt>
<trkpt lat="52.951831" lon="05.974904"><ele>34.5</ele><time>2021-03-19T10:14:15Z</time><name>PT3055</name></trkpt>
<trkpt lat="52.951829" lon="05.974913"><ele>34.5</ele><time>2021-03-19T10:14:16Z</time><name>PT3056</name></trkpt>
<trkpt lat="52.951828" lon="05.974911"><ele>34.5</ele><time>2021-03-19T10:14:17Z</time><name>PT3057</name></trkpt>
<trkpt lat="52.951827" lon="05.974913"><ele>34.5</ele><time>2021-03-19T10:14:18Z</time><name>PT3058</name></trkpt>
<trkpt lat="52.951826" lon="05.974926"><ele>34.2</ele><time>2021-03-19T10:14:34Z</time><name>PT3059</name></trkpt>
<trkpt lat="52.951824" lon="05.974935"><ele>34.3</ele><time>2021-03-19T10:14:35Z</time><name>PT3060</name></trkpt>
<trkpt lat="52.951821" lon="05.974941"><ele>34.3</ele><time>2021-03-19T10:14:36Z</time><name>PT3061</name></trkpt>
<trkpt lat="52.951817" lon="05.974944"><ele>34.3</ele><time>2021-03-19T10:14:37Z</time><name>PT3062</name></trkpt>
<trkpt lat="52.951814" lon="05.974947"><ele>34.3</ele><time>2021-03-19T10:14:38Z</time><name>PT3063</name></trkpt>
<trkpt lat="52.951812" lon="05.974951"><ele>34.2</ele><time>2021-03-19T10:14:39Z</time><name>PT3064</name></trkpt>
<trkpt lat="52.951809" lon="05.974951"><ele>34</ele><time>2021-03-19T10:14:48Z</time><name>PT3065</name></trkpt>
<trkpt lat="52.951806" lon="05.974932"><ele>34</ele><time>2021-03-19T10:14:49Z</time><name>PT3066</name></trkpt>
<trkpt lat="52.951809" lon="05.974912"><ele>34.1</ele><time>2021-03-19T10:14:50Z</time><name>PT3067</name></trkpt>
<trkpt lat="52.951812" lon="05.974900"><ele>34.1</ele><time>2021-03-19T10:14:51Z</time><name>PT3068</name></trkpt>
<trkpt lat="52.951810" lon="05.974889"><ele>34.1</ele><time>2021-03-19T10:14:52Z</time><name>PT3069</name></trkpt>
<trkpt lat="52.951810" lon="05.974875"><ele>34</ele><time>2021-03-19T10:14:53Z</time><name>PT3070</name></trkpt>
<trkpt lat="52.951809" lon="05.974861"><ele>34.2</ele><time>2021-03-19T10:14:54Z</time><name>PT3071</name></trkpt>
<trkpt lat="52.951808" lon="05.974848"><ele>34.3</ele><time>2021-03-19T10:14:55Z</time><name>PT3072</name></trkpt>
<trkpt lat="52.951808" lon="05.974833"><ele>34.4</ele><time>2021-03-19T10:14:56Z</time><name>PT3073</name></trkpt>
<trkpt lat="52.951804" lon="05.974821"><ele>34.5</ele><time>2021-03-19T10:14:57Z</time><name>PT3074</name></trkpt>
<trkpt lat="52.951798" lon="05.974808"><ele>34.5</ele><time>2021-03-19T10:14:58Z</time><name>PT3075</name></trkpt>
<trkpt lat="52.951794" lon="05.974795"><ele>34.4</ele><time>2021-03-19T10:14:59Z</time><name>PT3076</name></trkpt>
<trkpt lat="52.951791" lon="05.974784"><ele>34.4</ele><time>2021-03-19T10:15:00Z</time><name>PT3077</name></trkpt>
<trkpt lat="52.951788" lon="05.974771"><ele>34.4</ele><time>2021-03-19T10:15:01Z</time><name>PT3078</name></trkpt>
<trkpt lat="52.951788" lon="05.974749"><ele>34.5</ele><time>2021-03-19T10:15:02Z</time><name>PT3079</name></trkpt>
<trkpt lat="52.951790" lon="05.974731"><ele>34.5</ele><time>2021-03-19T10:15:03Z</time><name>PT3080</name></trkpt>
<trkpt lat="52.951788" lon="05.974713"><ele>34.6</ele><time>2021-03-19T10:15:04Z</time><name>PT3081</name></trkpt>
<trkpt lat="52.951789" lon="05.974702"><ele>34.5</ele><time>2021-03-19T10:15:05Z</time><name>PT3082</name></trkpt>
<trkpt lat="52.951787" lon="05.974691"><ele>34.4</ele><time>2021-03-19T10:15:06Z</time><name>PT3083</name></trkpt>
<trkpt lat="52.951781" lon="05.974678"><ele>34.2</ele><time>2021-03-19T10:15:07Z</time><name>PT3084</name></trkpt>
<trkpt lat="52.951774" lon="05.974656"><ele>34.1</ele><time>2021-03-19T10:15:08Z</time><name>PT3085</name></trkpt>
<trkpt lat="52.951772" lon="05.974642"><ele>34.1</ele><time>2021-03-19T10:15:09Z</time><name>PT3086</name></trkpt>
<trkpt lat="52.951769" lon="05.974623"><ele>34.1</ele><time>2021-03-19T10:15:10Z</time><name>PT3087</name></trkpt>
<trkpt lat="52.951764" lon="05.974599"><ele>34</ele><time>2021-03-19T10:15:11Z</time><name>PT3088</name></trkpt>
<trkpt lat="52.951759" lon="05.974576"><ele>34</ele><time>2021-03-19T10:15:12Z</time><name>PT3089</name></trkpt>
<trkpt lat="52.951758" lon="05.974557"><ele>34.1</ele><time>2021-03-19T10:15:13Z</time><name>PT3090</name></trkpt>
<trkpt lat="52.951755" lon="05.974540"><ele>34.2</ele><time>2021-03-19T10:15:14Z</time><name>PT3091</name></trkpt>
<trkpt lat="52.951746" lon="05.974524"><ele>34.3</ele><time>2021-03-19T10:15:15Z</time><name>PT3092</name></trkpt>
<trkpt lat="52.951743" lon="05.974509"><ele>34.4</ele><time>2021-03-19T10:15:16Z</time><name>PT3093</name></trkpt>
<trkpt lat="52.951742" lon="05.974493"><ele>34.4</ele><time>2021-03-19T10:15:17Z</time><name>PT3094</name></trkpt>
<trkpt lat="52.951737" lon="05.974477"><ele>34.4</ele><time>2021-03-19T10:15:18Z</time><name>PT3095</name></trkpt>
<trkpt lat="52.951733" lon="05.974457"><ele>34.5</ele><time>2021-03-19T10:15:19Z</time><name>PT3096</name></trkpt>
<trkpt lat="52.951732" lon="05.974441"><ele>34.5</ele><time>2021-03-19T10:15:20Z</time><name>PT3097</name></trkpt>
<trkpt lat="52.951729" lon="05.974420"><ele>34.6</ele><time>2021-03-19T10:15:21Z</time><name>PT3098</name></trkpt>
<trkpt lat="52.951729" lon="05.974409"><ele>34.7</ele><time>2021-03-19T10:15:22Z</time><name>PT3099</name></trkpt>
<trkpt lat="52.951725" lon="05.974390"><ele>34.8</ele><time>2021-03-19T10:15:23Z</time><name>PT3100</name></trkpt>
<trkpt lat="52.951722" lon="05.974369"><ele>34.9</ele><time>2021-03-19T10:15:24Z</time><name>PT3101</name></trkpt>
<trkpt lat="52.951717" lon="05.974352"><ele>34.9</ele><time>2021-03-19T10:15:25Z</time><name>PT3102</name></trkpt>
<trkpt lat="52.951714" lon="05.974335"><ele>35</ele><time>2021-03-19T10:15:26Z</time><name>PT3103</name></trkpt>
<trkpt lat="52.951712" lon="05.974319"><ele>35</ele><time>2021-03-19T10:15:27Z</time><name>PT3104</name></trkpt>
<trkpt lat="52.951708" lon="05.974302"><ele>34.9</ele><time>2021-03-19T10:15:28Z</time><name>PT3105</name></trkpt>
<trkpt lat="52.951701" lon="05.974283"><ele>35</ele><time>2021-03-19T10:15:29Z</time><name>PT3106</name></trkpt>
<trkpt lat="52.951695" lon="05.974265"><ele>34.9</ele><time>2021-03-19T10:15:30Z</time><name>PT3107</name></trkpt>
<trkpt lat="52.951688" lon="05.974247"><ele>34.9</ele><time>2021-03-19T10:15:31Z</time><name>PT3108</name></trkpt>
<trkpt lat="52.951683" lon="05.974234"><ele>34.8</ele><time>2021-03-19T10:15:32Z</time><name>PT3109</name></trkpt>
<trkpt lat="52.951678" lon="05.974222"><ele>34.7</ele><time>2021-03-19T10:15:33Z</time><name>PT3110</name></trkpt>
<trkpt lat="52.951676" lon="05.974211"><ele>34.8</ele><time>2021-03-19T10:15:34Z</time><name>PT3111</name></trkpt>
<trkpt lat="52.951670" lon="05.974193"><ele>34.8</ele><time>2021-03-19T10:15:35Z</time><name>PT3112</name></trkpt>
<trkpt lat="52.951666" lon="05.974175"><ele>34.9</ele><time>2021-03-19T10:15:36Z</time><name>PT3113</name></trkpt>
<trkpt lat="52.951667" lon="05.974157"><ele>34.8</ele><time>2021-03-19T10:15:37Z</time><name>PT3114</name></trkpt>
<trkpt lat="52.951666" lon="05.974131"><ele>34.9</ele><time>2021-03-19T10:15:38Z</time><name>PT3115</name></trkpt>
<trkpt lat="52.951663" lon="05.974116"><ele>34.6</ele><time>2021-03-19T10:15:39Z</time><name>PT3116</name></trkpt>
<trkpt lat="52.951656" lon="05.974091"><ele>34.6</ele><time>2021-03-19T10:15:40Z</time><name>PT3117</name></trkpt>
<trkpt lat="52.951654" lon="05.974078"><ele>34.3</ele><time>2021-03-19T10:15:41Z</time><name>PT3118</name></trkpt>
<trkpt lat="52.951649" lon="05.974060"><ele>34.3</ele><time>2021-03-19T10:15:42Z</time><name>PT3119</name></trkpt>
<trkpt lat="52.951640" lon="05.974035"><ele>34.5</ele><time>2021-03-19T10:15:43Z</time><name>PT3120</name></trkpt>
<trkpt lat="52.951635" lon="05.974017"><ele>34.5</ele><time>2021-03-19T10:15:44Z</time><name>PT3121</name></trkpt>
<trkpt lat="52.951630" lon="05.973997"><ele>34.4</ele><time>2021-03-19T10:15:45Z</time><name>PT3122</name></trkpt>
<trkpt lat="52.951627" lon="05.973980"><ele>34.4</ele><time>2021-03-19T10:15:46Z</time><name>PT3123</name></trkpt>
<trkpt lat="52.951624" lon="05.973963"><ele>34.3</ele><time>2021-03-19T10:15:47Z</time><name>PT3124</name></trkpt>
<trkpt lat="52.951622" lon="05.973949"><ele>34.5</ele><time>2021-03-19T10:15:48Z</time><name>PT3125</name></trkpt>
<trkpt lat="52.951618" lon="05.973935"><ele>34.6</ele><time>2021-03-19T10:15:49Z</time><name>PT3126</name></trkpt>
<trkpt lat="52.951612" lon="05.973915"><ele>34.7</ele><time>2021-03-19T10:15:50Z</time><name>PT3127</name></trkpt>
<trkpt lat="52.951604" lon="05.973884"><ele>34.6</ele><time>2021-03-19T10:15:51Z</time><name>PT3128</name></trkpt>
<trkpt lat="52.951599" lon="05.973867"><ele>34.7</ele><time>2021-03-19T10:15:52Z</time><name>PT3129</name></trkpt>
<trkpt lat="52.951594" lon="05.973851"><ele>34.7</ele><time>2021-03-19T10:15:53Z</time><name>PT3130</name></trkpt>
<trkpt lat="52.951588" lon="05.973834"><ele>34.7</ele><time>2021-03-19T10:15:54Z</time><name>PT3131</name></trkpt>
<trkpt lat="52.951585" lon="05.973815"><ele>34.7</ele><time>2021-03-19T10:15:55Z</time><name>PT3132</name></trkpt>
<trkpt lat="52.951582" lon="05.973797"><ele>34.5</ele><time>2021-03-19T10:15:56Z</time><name>PT3133</name></trkpt>
<trkpt lat="52.951580" lon="05.973773"><ele>34.6</ele><time>2021-03-19T10:15:57Z</time><name>PT3134</name></trkpt>
<trkpt lat="52.951579" lon="05.973748"><ele>34.6</ele><time>2021-03-19T10:15:58Z</time><name>PT3135</name></trkpt>
<trkpt lat="52.951577" lon="05.973730"><ele>34.5</ele><time>2021-03-19T10:15:59Z</time><name>PT3136</name></trkpt>
<trkpt lat="52.951572" lon="05.973712"><ele>34.5</ele><time>2021-03-19T10:16:00Z</time><name>PT3137</name></trkpt>
<trkpt lat="52.951567" lon="05.973692"><ele>34.7</ele><time>2021-03-19T10:16:01Z</time><name>PT3138</name></trkpt>
<trkpt lat="52.951563" lon="05.973679"><ele>34.8</ele><time>2021-03-19T10:16:02Z</time><name>PT3139</name></trkpt>
<trkpt lat="52.951561" lon="05.973669"><ele>34.9</ele><time>2021-03-19T10:16:03Z</time><name>PT3140</name></trkpt>
<trkpt lat="52.951554" lon="05.973654"><ele>34.9</ele><time>2021-03-19T10:16:04Z</time><name>PT3141</name></trkpt>
<trkpt lat="52.951550" lon="05.973645"><ele>34.9</ele><time>2021-03-19T10:16:05Z</time><name>PT3142</name></trkpt>
<trkpt lat="52.951548" lon="05.973638"><ele>34.8</ele><time>2021-03-19T10:16:06Z</time><name>PT3143</name></trkpt>
<trkpt lat="52.951541" lon="05.973623"><ele>34.9</ele><time>2021-03-19T10:16:07Z</time><name>PT3144</name></trkpt>
<trkpt lat="52.951539" lon="05.973610"><ele>34.9</ele><time>2021-03-19T10:16:08Z</time><name>PT3145</name></trkpt>
<trkpt lat="52.951536" lon="05.973597"><ele>34.9</ele><time>2021-03-19T10:16:09Z</time><name>PT3146</name></trkpt>
<trkpt lat="52.951532" lon="05.973576"><ele>34.9</ele><time>2021-03-19T10:16:10Z</time><name>PT3147</name></trkpt>
<trkpt lat="52.951533" lon="05.973564"><ele>34.7</ele><time>2021-03-19T10:16:11Z</time><name>PT3148</name></trkpt>
<trkpt lat="52.951527" lon="05.973537"><ele>34.8</ele><time>2021-03-19T10:16:12Z</time><name>PT3149</name></trkpt>
<trkpt lat="52.951515" lon="05.973507"><ele>34.6</ele><time>2021-03-19T10:16:13Z</time><name>PT3150</name></trkpt>
<trkpt lat="52.951507" lon="05.973484"><ele>34.8</ele><time>2021-03-19T10:16:14Z</time><name>PT3151</name></trkpt>
<trkpt lat="52.951500" lon="05.973466"><ele>34.7</ele><time>2021-03-19T10:16:15Z</time><name>PT3152</name></trkpt>
<trkpt lat="52.951493" lon="05.973448"><ele>34.6</ele><time>2021-03-19T10:16:16Z</time><name>PT3153</name></trkpt>
<trkpt lat="52.951486" lon="05.973432"><ele>34.7</ele><time>2021-03-19T10:16:17Z</time><name>PT3154</name></trkpt>
<trkpt lat="52.951480" lon="05.973413"><ele>34.7</ele><time>2021-03-19T10:16:18Z</time><name>PT3155</name></trkpt>
<trkpt lat="52.951470" lon="05.973388"><ele>34.7</ele><time>2021-03-19T10:16:19Z</time><name>PT3156</name></trkpt>
<trkpt lat="52.951466" lon="05.973365"><ele>34.8</ele><time>2021-03-19T10:16:20Z</time><name>PT3157</name></trkpt>
<trkpt lat="52.951457" lon="05.973325"><ele>34.8</ele><time>2021-03-19T10:16:21Z</time><name>PT3158</name></trkpt>
<trkpt lat="52.951454" lon="05.973300"><ele>34.7</ele><time>2021-03-19T10:16:22Z</time><name>PT3159</name></trkpt>
<trkpt lat="52.951448" lon="05.973277"><ele>34.5</ele><time>2021-03-19T10:16:23Z</time><name>PT3160</name></trkpt>
<trkpt lat="52.951443" lon="05.973271"><ele>34.6</ele><time>2021-03-19T10:16:24Z</time><name>PT3161</name></trkpt>
<trkpt lat="52.951442" lon="05.973256"><ele>34.4</ele><time>2021-03-19T10:16:25Z</time><name>PT3162</name></trkpt>
<trkpt lat="52.951441" lon="05.973235"><ele>34.5</ele><time>2021-03-19T10:16:26Z</time><name>PT3163</name></trkpt>
<trkpt lat="52.951440" lon="05.973210"><ele>34.5</ele><time>2021-03-19T10:16:27Z</time><name>PT3164</name></trkpt>
<trkpt lat="52.951436" lon="05.973184"><ele>34.6</ele><time>2021-03-19T10:16:28Z</time><name>PT3165</name></trkpt>
<trkpt lat="52.951427" lon="05.973157"><ele>34.5</ele><time>2021-03-19T10:16:29Z</time><name>PT3166</name></trkpt>
<trkpt lat="52.951421" lon="05.973132"><ele>34.5</ele><time>2021-03-19T10:16:30Z</time><name>PT3167</name></trkpt>
<trkpt lat="52.951416" lon="05.973105"><ele>34.5</ele><time>2021-03-19T10:16:31Z</time><name>PT3168</name></trkpt>
<trkpt lat="52.951409" lon="05.973082"><ele>34.5</ele><time>2021-03-19T10:16:32Z</time><name>PT3169</name></trkpt>
<trkpt lat="52.951405" lon="05.973059"><ele>34.6</ele><time>2021-03-19T10:16:33Z</time><name>PT3170</name></trkpt>
<trkpt lat="52.951398" lon="05.973043"><ele>34.6</ele><time>2021-03-19T10:16:34Z</time><name>PT3171</name></trkpt>
<trkpt lat="52.951395" lon="05.973027"><ele>34.5</ele><time>2021-03-19T10:16:35Z</time><name>PT3172</name></trkpt>
<trkpt lat="52.951391" lon="05.973008"><ele>34.5</ele><time>2021-03-19T10:16:36Z</time><name>PT3173</name></trkpt>
<trkpt lat="52.951389" lon="05.972989"><ele>34.5</ele><time>2021-03-19T10:16:37Z</time><name>PT3174</name></trkpt>
<trkpt lat="52.951388" lon="05.972973"><ele>34.5</ele><time>2021-03-19T10:16:38Z</time><name>PT3175</name></trkpt>
<trkpt lat="52.951385" lon="05.972948"><ele>34.5</ele><time>2021-03-19T10:16:39Z</time><name>PT3176</name></trkpt>
<trkpt lat="52.951384" lon="05.972928"><ele>34.3</ele><time>2021-03-19T10:16:40Z</time><name>PT3177</name></trkpt>
<trkpt lat="52.951379" lon="05.972909"><ele>34.4</ele><time>2021-03-19T10:16:41Z</time><name>PT3178</name></trkpt>
<trkpt lat="52.951372" lon="05.972890"><ele>34.2</ele><time>2021-03-19T10:16:42Z</time><name>PT3179</name></trkpt>
<trkpt lat="52.951366" lon="05.972869"><ele>34.2</ele><time>2021-03-19T10:16:43Z</time><name>PT3180</name></trkpt>
<trkpt lat="52.951361" lon="05.972842"><ele>34.3</ele><time>2021-03-19T10:16:44Z</time><name>PT3181</name></trkpt>
<trkpt lat="52.951356" lon="05.972826"><ele>34.3</ele><time>2021-03-19T10:16:45Z</time><name>PT3182</name></trkpt>
<trkpt lat="52.951351" lon="05.972808"><ele>34.3</ele><time>2021-03-19T10:16:46Z</time><name>PT3183</name></trkpt>
<trkpt lat="52.951349" lon="05.972784"><ele>34.4</ele><time>2021-03-19T10:16:47Z</time><name>PT3184</name></trkpt>
<trkpt lat="52.951345" lon="05.972761"><ele>34.5</ele><time>2021-03-19T10:16:48Z</time><name>PT3185</name></trkpt>
<trkpt lat="52.951343" lon="05.972736"><ele>34.5</ele><time>2021-03-19T10:16:49Z</time><name>PT3186</name></trkpt>
<trkpt lat="52.951340" lon="05.972721"><ele>34.6</ele><time>2021-03-19T10:16:50Z</time><name>PT3187</name></trkpt>
<trkpt lat="52.951330" lon="05.972700"><ele>34.5</ele><time>2021-03-19T10:16:51Z</time><name>PT3188</name></trkpt>
<trkpt lat="52.951321" lon="05.972680"><ele>34.6</ele><time>2021-03-19T10:16:52Z</time><name>PT3189</name></trkpt>
<trkpt lat="52.951312" lon="05.972653"><ele>34.6</ele><time>2021-03-19T10:16:53Z</time><name>PT3190</name></trkpt>
<trkpt lat="52.951307" lon="05.972638"><ele>34.6</ele><time>2021-03-19T10:16:54Z</time><name>PT3191</name></trkpt>
<trkpt lat="52.951301" lon="05.972615"><ele>34.5</ele><time>2021-03-19T10:16:55Z</time><name>PT3192</name></trkpt>
<trkpt lat="52.951297" lon="05.972597"><ele>34.5</ele><time>2021-03-19T10:16:56Z</time><name>PT3193</name></trkpt>
<trkpt lat="52.951293" lon="05.972575"><ele>34.5</ele><time>2021-03-19T10:16:57Z</time><name>PT3194</name></trkpt>
<trkpt lat="52.951293" lon="05.972563"><ele>34.5</ele><time>2021-03-19T10:16:58Z</time><name>PT3195</name></trkpt>
<trkpt lat="52.951290" lon="05.972542"><ele>34.5</ele><time>2021-03-19T10:16:59Z</time><name>PT3196</name></trkpt>
<trkpt lat="52.951290" lon="05.972525"><ele>34.5</ele><time>2021-03-19T10:17:00Z</time><name>PT3197</name></trkpt>
<trkpt lat="52.951287" lon="05.972509"><ele>34.4</ele><time>2021-03-19T10:17:01Z</time><name>PT3198</name></trkpt>
<trkpt lat="52.951286" lon="05.972493"><ele>34.2</ele><time>2021-03-19T10:17:02Z</time><name>PT3199</name></trkpt>
<trkpt lat="52.951280" lon="05.972486"><ele>34.3</ele><time>2021-03-19T10:17:03Z</time><name>PT3200</name></trkpt>
<trkpt lat="52.951276" lon="05.972473"><ele>34.2</ele><time>2021-03-19T10:17:04Z</time><name>PT3201</name></trkpt>
<trkpt lat="52.951272" lon="05.972460"><ele>34.3</ele><time>2021-03-19T10:17:05Z</time><name>PT3202</name></trkpt>
<trkpt lat="52.951269" lon="05.972451"><ele>34.4</ele><time>2021-03-19T10:17:06Z</time><name>PT3203</name></trkpt>
<trkpt lat="52.951266" lon="05.972438"><ele>34.5</ele><time>2021-03-19T10:17:07Z</time><name>PT3204</name></trkpt>
<trkpt lat="52.951264" lon="05.972421"><ele>34.5</ele><time>2021-03-19T10:17:08Z</time><name>PT3205</name></trkpt>
<trkpt lat="52.951262" lon="05.972405"><ele>34.6</ele><time>2021-03-19T10:17:09Z</time><name>PT3206</name></trkpt>
<trkpt lat="52.951259" lon="05.972389"><ele>34.4</ele><time>2021-03-19T10:17:10Z</time><name>PT3207</name></trkpt>
<trkpt lat="52.951252" lon="05.972379"><ele>34.5</ele><time>2021-03-19T10:17:11Z</time><name>PT3208</name></trkpt>
<trkpt lat="52.951248" lon="05.972363"><ele>34.5</ele><time>2021-03-19T10:17:12Z</time><name>PT3209</name></trkpt>
<trkpt lat="52.951246" lon="05.972353"><ele>34.4</ele><time>2021-03-19T10:17:13Z</time><name>PT3210</name></trkpt>
<trkpt lat="52.951243" lon="05.972329"><ele>34.5</ele><time>2021-03-19T10:17:14Z</time><name>PT3211</name></trkpt>
<trkpt lat="52.951240" lon="05.972306"><ele>34.5</ele><time>2021-03-19T10:17:15Z</time><name>PT3212</name></trkpt>
<trkpt lat="52.951237" lon="05.972285"><ele>34.5</ele><time>2021-03-19T10:17:16Z</time><name>PT3213</name></trkpt>
<trkpt lat="52.951233" lon="05.972261"><ele>34.7</ele><time>2021-03-19T10:17:17Z</time><name>PT3214</name></trkpt>
<trkpt lat="52.951231" lon="05.972243"><ele>34.9</ele><time>2021-03-19T10:17:18Z</time><name>PT3215</name></trkpt>
<trkpt lat="52.951223" lon="05.972230"><ele>34.6</ele><time>2021-03-19T10:17:19Z</time><name>PT3216</name></trkpt>
<trkpt lat="52.951219" lon="05.972209"><ele>34.5</ele><time>2021-03-19T10:17:20Z</time><name>PT3217</name></trkpt>
<trkpt lat="52.951211" lon="05.972194"><ele>34.5</ele><time>2021-03-19T10:17:21Z</time><name>PT3218</name></trkpt>
<trkpt lat="52.951206" lon="05.972172"><ele>34.4</ele><time>2021-03-19T10:17:22Z</time><name>PT3219</name></trkpt>
<trkpt lat="52.951203" lon="05.972154"><ele>34.5</ele><time>2021-03-19T10:17:23Z</time><name>PT3220</name></trkpt>
<trkpt lat="52.951201" lon="05.972136"><ele>34.5</ele><time>2021-03-19T10:17:24Z</time><name>PT3221</name></trkpt>
<trkpt lat="52.951199" lon="05.972122"><ele>34.5</ele><time>2021-03-19T10:17:25Z</time><name>PT3222</name></trkpt>
<trkpt lat="52.951198" lon="05.972109"><ele>34.3</ele><time>2021-03-19T10:17:26Z</time><name>PT3223</name></trkpt>
<trkpt lat="52.951194" lon="05.972085"><ele>34.4</ele><time>2021-03-19T10:17:27Z</time><name>PT3224</name></trkpt>
<trkpt lat="52.951194" lon="05.972067"><ele>34.4</ele><time>2021-03-19T10:17:28Z</time><name>PT3225</name></trkpt>
<trkpt lat="52.951185" lon="05.972048"><ele>34.3</ele><time>2021-03-19T10:17:29Z</time><name>PT3226</name></trkpt>
<trkpt lat="52.951180" lon="05.972027"><ele>34.4</ele><time>2021-03-19T10:17:30Z</time><name>PT3227</name></trkpt>
<trkpt lat="52.951174" lon="05.972009"><ele>34.3</ele><time>2021-03-19T10:17:31Z</time><name>PT3228</name></trkpt>
<trkpt lat="52.951170" lon="05.971987"><ele>34.1</ele><time>2021-03-19T10:17:32Z</time><name>PT3229</name></trkpt>
<trkpt lat="52.951163" lon="05.971967"><ele>34.1</ele><time>2021-03-19T10:17:33Z</time><name>PT3230</name></trkpt>
<trkpt lat="52.951160" lon="05.971947"><ele>34.1</ele><time>2021-03-19T10:17:34Z</time><name>PT3231</name></trkpt>
<trkpt lat="52.951158" lon="05.971936"><ele>34</ele><time>2021-03-19T10:17:35Z</time><name>PT3232</name></trkpt>
<trkpt lat="52.951153" lon="05.971919"><ele>34.2</ele><time>2021-03-19T10:17:36Z</time><name>PT3233</name></trkpt>
<trkpt lat="52.951150" lon="05.971895"><ele>34.3</ele><time>2021-03-19T10:17:37Z</time><name>PT3234</name></trkpt>
<trkpt lat="52.951148" lon="05.971876"><ele>34.5</ele><time>2021-03-19T10:17:38Z</time><name>PT3235</name></trkpt>
<trkpt lat="52.951143" lon="05.971856"><ele>34.5</ele><time>2021-03-19T10:17:39Z</time><name>PT3236</name></trkpt>
<trkpt lat="52.951144" lon="05.971846"><ele>34.4</ele><time>2021-03-19T10:17:40Z</time><name>PT3237</name></trkpt>
<trkpt lat="52.951140" lon="05.971836"><ele>34.3</ele><time>2021-03-19T10:17:41Z</time><name>PT3238</name></trkpt>
<trkpt lat="52.951134" lon="05.971812"><ele>34.1</ele><time>2021-03-19T10:17:42Z</time><name>PT3239</name></trkpt>
<trkpt lat="52.951129" lon="05.971795"><ele>34</ele><time>2021-03-19T10:17:43Z</time><name>PT3240</name></trkpt>
<trkpt lat="52.951128" lon="05.971781"><ele>34</ele><time>2021-03-19T10:17:44Z</time><name>PT3241</name></trkpt>
<trkpt lat="52.951126" lon="05.971759"><ele>34</ele><time>2021-03-19T10:17:45Z</time><name>PT3242</name></trkpt>
<trkpt lat="52.951123" lon="05.971737"><ele>34.1</ele><time>2021-03-19T10:17:46Z</time><name>PT3243</name></trkpt>
<trkpt lat="52.951121" lon="05.971714"><ele>34.2</ele><time>2021-03-19T10:17:47Z</time><name>PT3244</name></trkpt>
<trkpt lat="52.951115" lon="05.971693"><ele>34.1</ele><time>2021-03-19T10:17:48Z</time><name>PT3245</name></trkpt>
<trkpt lat="52.951109" lon="05.971674"><ele>34</ele><time>2021-03-19T10:17:49Z</time><name>PT3246</name></trkpt>
<trkpt lat="52.951102" lon="05.971655"><ele>34</ele><time>2021-03-19T10:17:50Z</time><name>PT3247</name></trkpt>
<trkpt lat="52.951097" lon="05.971636"><ele>34</ele><time>2021-03-19T10:17:51Z</time><name>PT3248</name></trkpt>
<trkpt lat="52.951094" lon="05.971619"><ele>34</ele><time>2021-03-19T10:17:52Z</time><name>PT3249</name></trkpt>
<trkpt lat="52.951091" lon="05.971604"><ele>34.2</ele><time>2021-03-19T10:17:53Z</time><name>PT3250</name></trkpt>
<trkpt lat="52.951087" lon="05.971587"><ele>34.2</ele><time>2021-03-19T10:17:54Z</time><name>PT3251</name></trkpt>
<trkpt lat="52.951082" lon="05.971572"><ele>34.5</ele><time>2021-03-19T10:17:55Z</time><name>PT3252</name></trkpt>
<trkpt lat="52.951080" lon="05.971555"><ele>34.5</ele><time>2021-03-19T10:17:56Z</time><name>PT3253</name></trkpt>
<trkpt lat="52.951074" lon="05.971538"><ele>34.5</ele><time>2021-03-19T10:17:57Z</time><name>PT3254</name></trkpt>
<trkpt lat="52.951072" lon="05.971526"><ele>34.4</ele><time>2021-03-19T10:17:58Z</time><name>PT3255</name></trkpt>
<trkpt lat="52.951069" lon="05.971512"><ele>34.1</ele><time>2021-03-19T10:17:59Z</time><name>PT3256</name></trkpt>
<trkpt lat="52.951061" lon="05.971490"><ele>34</ele><time>2021-03-19T10:18:00Z</time><name>PT3257</name></trkpt>
<trkpt lat="52.951055" lon="05.971468"><ele>34.1</ele><time>2021-03-19T10:18:01Z</time><name>PT3258</name></trkpt>
<trkpt lat="52.951049" lon="05.971452"><ele>34.1</ele><time>2021-03-19T10:18:02Z</time><name>PT3259</name></trkpt>
<trkpt lat="52.951044" lon="05.971437"><ele>34</ele><time>2021-03-19T10:18:03Z</time><name>PT3260</name></trkpt>
<trkpt lat="52.951033" lon="05.971424"><ele>34.3</ele><time>2021-03-19T10:18:04Z</time><name>PT3261</name></trkpt>
<trkpt lat="52.951024" lon="05.971403"><ele>34.3</ele><time>2021-03-19T10:18:05Z</time><name>PT3262</name></trkpt>
<trkpt lat="52.951019" lon="05.971384"><ele>34.4</ele><time>2021-03-19T10:18:06Z</time><name>PT3263</name></trkpt>
<trkpt lat="52.951014" lon="05.971365"><ele>34.6</ele><time>2021-03-19T10:18:07Z</time><name>PT3264</name></trkpt>
<trkpt lat="52.951011" lon="05.971346"><ele>34.5</ele><time>2021-03-19T10:18:08Z</time><name>PT3265</name></trkpt>
<trkpt lat="52.951008" lon="05.971327"><ele>34.6</ele><time>2021-03-19T10:18:09Z</time><name>PT3266</name></trkpt>
<trkpt lat="52.951007" lon="05.971305"><ele>34.5</ele><time>2021-03-19T10:18:10Z</time><name>PT3267</name></trkpt>
<trkpt lat="52.951001" lon="05.971288"><ele>34.5</ele><time>2021-03-19T10:18:11Z</time><name>PT3268</name></trkpt>
<trkpt lat="52.950998" lon="05.971267"><ele>34.5</ele><time>2021-03-19T10:18:12Z</time><name>PT3269</name></trkpt>
<trkpt lat="52.950993" lon="05.971248"><ele>34.4</ele><time>2021-03-19T10:18:13Z</time><name>PT3270</name></trkpt>
<trkpt lat="52.950989" lon="05.971234"><ele>34.3</ele><time>2021-03-19T10:18:14Z</time><name>PT3271</name></trkpt>
<trkpt lat="52.950985" lon="05.971220"><ele>34.3</ele><time>2021-03-19T10:18:15Z</time><name>PT3272</name></trkpt>
<trkpt lat="52.950981" lon="05.971204"><ele>34.3</ele><time>2021-03-19T10:18:16Z</time><name>PT3273</name></trkpt>
<trkpt lat="52.950976" lon="05.971185"><ele>34.4</ele><time>2021-03-19T10:18:17Z</time><name>PT3274</name></trkpt>
<trkpt lat="52.950972" lon="05.971166"><ele>34.3</ele><time>2021-03-19T10:18:18Z</time><name>PT3275</name></trkpt>
<trkpt lat="52.950966" lon="05.971149"><ele>34.1</ele><time>2021-03-19T10:18:19Z</time><name>PT3276</name></trkpt>
<trkpt lat="52.950957" lon="05.971129"><ele>34</ele><time>2021-03-19T10:18:20Z</time><name>PT3277</name></trkpt>
<trkpt lat="52.950953" lon="05.971107"><ele>34</ele><time>2021-03-19T10:18:21Z</time><name>PT3278</name></trkpt>
<trkpt lat="52.950952" lon="05.971087"><ele>34</ele><time>2021-03-19T10:18:22Z</time><name>PT3279</name></trkpt>
<trkpt lat="52.950949" lon="05.971067"><ele>34.1</ele><time>2021-03-19T10:18:23Z</time><name>PT3280</name></trkpt>
<trkpt lat="52.950946" lon="05.971047"><ele>34.1</ele><time>2021-03-19T10:18:24Z</time><name>PT3281</name></trkpt>
<trkpt lat="52.950944" lon="05.971021"><ele>33.9</ele><time>2021-03-19T10:18:25Z</time><name>PT3282</name></trkpt>
<trkpt lat="52.950940" lon="05.971003"><ele>34</ele><time>2021-03-19T10:18:26Z</time><name>PT3283</name></trkpt>
<trkpt lat="52.950933" lon="05.970985"><ele>34.2</ele><time>2021-03-19T10:18:27Z</time><name>PT3284</name></trkpt>
<trkpt lat="52.950932" lon="05.970972"><ele>34.1</ele><time>2021-03-19T10:18:28Z</time><name>PT3285</name></trkpt>
<trkpt lat="52.950929" lon="05.970958"><ele>34.4</ele><time>2021-03-19T10:18:29Z</time><name>PT3286</name></trkpt>
<trkpt lat="52.950925" lon="05.970947"><ele>34.5</ele><time>2021-03-19T10:18:30Z</time><name>PT3287</name></trkpt>
<trkpt lat="52.950920" lon="05.970937"><ele>34.3</ele><time>2021-03-19T10:18:31Z</time><name>PT3288</name></trkpt>
<trkpt lat="52.950916" lon="05.970913"><ele>34.3</ele><time>2021-03-19T10:18:32Z</time><name>PT3289</name></trkpt>
<trkpt lat="52.950912" lon="05.970888"><ele>34.3</ele><time>2021-03-19T10:18:33Z</time><name>PT3290</name></trkpt>
<trkpt lat="52.950909" lon="05.970873"><ele>34.1</ele><time>2021-03-19T10:18:34Z</time><name>PT3291</name></trkpt>
<trkpt lat="52.950906" lon="05.970852"><ele>34.2</ele><time>2021-03-19T10:18:35Z</time><name>PT3292</name></trkpt>
<trkpt lat="52.950899" lon="05.970833"><ele>34.2</ele><time>2021-03-19T10:18:36Z</time><name>PT3293</name></trkpt>
<trkpt lat="52.950894" lon="05.970801"><ele>34</ele><time>2021-03-19T10:18:37Z</time><name>PT3294</name></trkpt>
<trkpt lat="52.950891" lon="05.970786"><ele>34</ele><time>2021-03-19T10:18:38Z</time><name>PT3295</name></trkpt>
<trkpt lat="52.950890" lon="05.970770"><ele>34.1</ele><time>2021-03-19T10:18:39Z</time><name>PT3296</name></trkpt>
<trkpt lat="52.950887" lon="05.970746"><ele>34.1</ele><time>2021-03-19T10:18:40Z</time><name>PT3297</name></trkpt>
<trkpt lat="52.950885" lon="05.970726"><ele>34.1</ele><time>2021-03-19T10:18:41Z</time><name>PT3298</name></trkpt>
<trkpt lat="52.950885" lon="05.970708"><ele>34</ele><time>2021-03-19T10:18:42Z</time><name>PT3299</name></trkpt>
<trkpt lat="52.950880" lon="05.970689"><ele>33.8</ele><time>2021-03-19T10:18:43Z</time><name>PT3300</name></trkpt>
<trkpt lat="52.950873" lon="05.970666"><ele>33.9</ele><time>2021-03-19T10:18:44Z</time><name>PT3301</name></trkpt>
<trkpt lat="52.950866" lon="05.970642"><ele>33.9</ele><time>2021-03-19T10:18:45Z</time><name>PT3302</name></trkpt>
<trkpt lat="52.950860" lon="05.970625"><ele>34</ele><time>2021-03-19T10:18:46Z</time><name>PT3303</name></trkpt>
<trkpt lat="52.950856" lon="05.970610"><ele>34.2</ele><time>2021-03-19T10:18:47Z</time><name>PT3304</name></trkpt>
<trkpt lat="52.950852" lon="05.970588"><ele>34</ele><time>2021-03-19T10:18:48Z</time><name>PT3305</name></trkpt>
<trkpt lat="52.950850" lon="05.970571"><ele>34</ele><time>2021-03-19T10:18:49Z</time><name>PT3306</name></trkpt>
<trkpt lat="52.950846" lon="05.970555"><ele>34</ele><time>2021-03-19T10:18:50Z</time><name>PT3307</name></trkpt>
<trkpt lat="52.950839" lon="05.970538"><ele>33.9</ele><time>2021-03-19T10:18:51Z</time><name>PT3308</name></trkpt>
<trkpt lat="52.950835" lon="05.970518"><ele>33.7</ele><time>2021-03-19T10:18:52Z</time><name>PT3309</name></trkpt>
<trkpt lat="52.950832" lon="05.970505"><ele>33.8</ele><time>2021-03-19T10:18:53Z</time><name>PT3310</name></trkpt>
<trkpt lat="52.950826" lon="05.970489"><ele>34</ele><time>2021-03-19T10:18:54Z</time><name>PT3311</name></trkpt>
<trkpt lat="52.950822" lon="05.970474"><ele>33.9</ele><time>2021-03-19T10:18:55Z</time><name>PT3312</name></trkpt>
<trkpt lat="52.950819" lon="05.970453"><ele>34</ele><time>2021-03-19T10:18:56Z</time><name>PT3313</name></trkpt>
<trkpt lat="52.950811" lon="05.970434"><ele>34</ele><time>2021-03-19T10:18:57Z</time><name>PT3314</name></trkpt>
<trkpt lat="52.950806" lon="05.970419"><ele>34.1</ele><time>2021-03-19T10:18:58Z</time><name>PT3315</name></trkpt>
<trkpt lat="52.950802" lon="05.970398"><ele>34.1</ele><time>2021-03-19T10:18:59Z</time><name>PT3316</name></trkpt>
<trkpt lat="52.950796" lon="05.970383"><ele>34.2</ele><time>2021-03-19T10:19:00Z</time><name>PT3317</name></trkpt>
<trkpt lat="52.950791" lon="05.970368"><ele>34.2</ele><time>2021-03-19T10:19:01Z</time><name>PT3318</name></trkpt>
<trkpt lat="52.950787" lon="05.970357"><ele>34</ele><time>2021-03-19T10:19:02Z</time><name>PT3319</name></trkpt>
<trkpt lat="52.950780" lon="05.970344"><ele>34.2</ele><time>2021-03-19T10:19:03Z</time><name>PT3320</name></trkpt>
<trkpt lat="52.950771" lon="05.970331"><ele>34</ele><time>2021-03-19T10:19:04Z</time><name>PT3321</name></trkpt>
<trkpt lat="52.950764" lon="05.970321"><ele>34</ele><time>2021-03-19T10:19:05Z</time><name>PT3322</name></trkpt>
<trkpt lat="52.950758" lon="05.970315"><ele>33.9</ele><time>2021-03-19T10:19:06Z</time><name>PT3323</name></trkpt>
<trkpt lat="52.950753" lon="05.970305"><ele>33.9</ele><time>2021-03-19T10:19:07Z</time><name>PT3324</name></trkpt>
<trkpt lat="52.950750" lon="05.970296"><ele>34</ele><time>2021-03-19T10:19:08Z</time><name>PT3325</name></trkpt>
<trkpt lat="52.950741" lon="05.970290"><ele>34</ele><time>2021-03-19T10:19:09Z</time><name>PT3326</name></trkpt>
<trkpt lat="52.950738" lon="05.970282"><ele>34.1</ele><time>2021-03-19T10:19:10Z</time><name>PT3327</name></trkpt>
<trkpt lat="52.950728" lon="05.970280"><ele>34.1</ele><time>2021-03-19T10:19:11Z</time><name>PT3328</name></trkpt>
<trkpt lat="52.950719" lon="05.970271"><ele>34.2</ele><time>2021-03-19T10:19:12Z</time><name>PT3329</name></trkpt>
<trkpt lat="52.950711" lon="05.970271"><ele>34</ele><time>2021-03-19T10:19:13Z</time><name>PT3330</name></trkpt>
<trkpt lat="52.950703" lon="05.970254"><ele>34</ele><time>2021-03-19T10:19:14Z</time><name>PT3331</name></trkpt>
<trkpt lat="52.950692" lon="05.970235"><ele>34</ele><time>2021-03-19T10:19:15Z</time><name>PT3332</name></trkpt>
<trkpt lat="52.950685" lon="05.970226"><ele>33.9</ele><time>2021-03-19T10:19:16Z</time><name>PT3333</name></trkpt>
<trkpt lat="52.950675" lon="05.970221"><ele>33.9</ele><time>2021-03-19T10:19:17Z</time><name>PT3334</name></trkpt>
<trkpt lat="52.950665" lon="05.970218"><ele>33.9</ele><time>2021-03-19T10:19:18Z</time><name>PT3335</name></trkpt>
<trkpt lat="52.950652" lon="05.970211"><ele>33.8</ele><time>2021-03-19T10:19:19Z</time><name>PT3336</name></trkpt>
<trkpt lat="52.950639" lon="05.970206"><ele>34</ele><time>2021-03-19T10:19:20Z</time><name>PT3337</name></trkpt>
<trkpt lat="52.950626" lon="05.970204"><ele>34</ele><time>2021-03-19T10:19:21Z</time><name>PT3338</name></trkpt>
<trkpt lat="52.950617" lon="05.970207"><ele>34</ele><time>2021-03-19T10:19:22Z</time><name>PT3339</name></trkpt>
<trkpt lat="52.950607" lon="05.970208"><ele>34.1</ele><time>2021-03-19T10:19:23Z</time><name>PT3340</name></trkpt>
<trkpt lat="52.950597" lon="05.970208"><ele>34.1</ele><time>2021-03-19T10:19:24Z</time><name>PT3341</name></trkpt>
<trkpt lat="52.950589" lon="05.970208"><ele>34</ele><time>2021-03-19T10:19:25Z</time><name>PT3342</name></trkpt>
<trkpt lat="52.950577" lon="05.970209"><ele>34</ele><time>2021-03-19T10:19:26Z</time><name>PT3343</name></trkpt>
<trkpt lat="52.950566" lon="05.970208"><ele>33.9</ele><time>2021-03-19T10:19:27Z</time><name>PT3344</name></trkpt>
<trkpt lat="52.950559" lon="05.970210"><ele>33.7</ele><time>2021-03-19T10:19:28Z</time><name>PT3345</name></trkpt>
<trkpt lat="52.950552" lon="05.970214"><ele>33.8</ele><time>2021-03-19T10:19:29Z</time><name>PT3346</name></trkpt>
<trkpt lat="52.950544" lon="05.970210"><ele>33.9</ele><time>2021-03-19T10:19:30Z</time><name>PT3347</name></trkpt>
<trkpt lat="52.950536" lon="05.970214"><ele>33.9</ele><time>2021-03-19T10:19:31Z</time><name>PT3348</name></trkpt>
<trkpt lat="52.950524" lon="05.970219"><ele>33.9</ele><time>2021-03-19T10:19:32Z</time><name>PT3349</name></trkpt>
<trkpt lat="52.950512" lon="05.970224"><ele>33.8</ele><time>2021-03-19T10:19:33Z</time><name>PT3350</name></trkpt>
<trkpt lat="52.950501" lon="05.970230"><ele>33.6</ele><time>2021-03-19T10:19:34Z</time><name>PT3351</name></trkpt>
<trkpt lat="52.950488" lon="05.970231"><ele>33.6</ele><time>2021-03-19T10:19:35Z</time><name>PT3352</name></trkpt>
<trkpt lat="52.950479" lon="05.970232"><ele>33.6</ele><time>2021-03-19T10:19:36Z</time><name>PT3353</name></trkpt>
<trkpt lat="52.950469" lon="05.970231"><ele>33.7</ele><time>2021-03-19T10:19:37Z</time><name>PT3354</name></trkpt>
<trkpt lat="52.950456" lon="05.970233"><ele>34</ele><time>2021-03-19T10:19:38Z</time><name>PT3355</name></trkpt>
<trkpt lat="52.950446" lon="05.970229"><ele>34</ele><time>2021-03-19T10:19:39Z</time><name>PT3356</name></trkpt>
<trkpt lat="52.950432" lon="05.970225"><ele>34</ele><time>2021-03-19T10:19:40Z</time><name>PT3357</name></trkpt>
<trkpt lat="52.950421" lon="05.970218"><ele>34</ele><time>2021-03-19T10:19:41Z</time><name>PT3358</name></trkpt>
<trkpt lat="52.950412" lon="05.970208"><ele>33.9</ele><time>2021-03-19T10:19:42Z</time><name>PT3359</name></trkpt>
<trkpt lat="52.950401" lon="05.970200"><ele>33.9</ele><time>2021-03-19T10:19:43Z</time><name>PT3360</name></trkpt>
<trkpt lat="52.950392" lon="05.970191"><ele>33.9</ele><time>2021-03-19T10:19:44Z</time><name>PT3361</name></trkpt>
<trkpt lat="52.950386" lon="05.970189"><ele>34</ele><time>2021-03-19T10:19:45Z</time><name>PT3362</name></trkpt>
<trkpt lat="52.950380" lon="05.970182"><ele>34.1</ele><time>2021-03-19T10:19:46Z</time><name>PT3363</name></trkpt>
<trkpt lat="52.950372" lon="05.970174"><ele>34.2</ele><time>2021-03-19T10:19:47Z</time><name>PT3364</name></trkpt>
<trkpt lat="52.950365" lon="05.970161"><ele>34.2</ele><time>2021-03-19T10:19:48Z</time><name>PT3365</name></trkpt>
<trkpt lat="52.950359" lon="05.970150"><ele>34</ele><time>2021-03-19T10:19:49Z</time><name>PT3366</name></trkpt>
<trkpt lat="52.950354" lon="05.970139"><ele>34</ele><time>2021-03-19T10:19:50Z</time><name>PT3367</name></trkpt>
<trkpt lat="52.950351" lon="05.970136"><ele>33.9</ele><time>2021-03-19T10:19:51Z</time><name>PT3368</name></trkpt>
<trkpt lat="52.950347" lon="05.970124"><ele>33.9</ele><time>2021-03-19T10:19:52Z</time><name>PT3369</name></trkpt>
<trkpt lat="52.950338" lon="05.970111"><ele>33.9</ele><time>2021-03-19T10:19:53Z</time><name>PT3370</name></trkpt>
<trkpt lat="52.950333" lon="05.970092"><ele>33.8</ele><time>2021-03-19T10:19:54Z</time><name>PT3371</name></trkpt>
<trkpt lat="52.950329" lon="05.970077"><ele>33.8</ele><time>2021-03-19T10:19:55Z</time><name>PT3372</name></trkpt>
<trkpt lat="52.950327" lon="05.970063"><ele>33.9</ele><time>2021-03-19T10:19:56Z</time><name>PT3373</name></trkpt>
<trkpt lat="52.950324" lon="05.970047"><ele>33.9</ele><time>2021-03-19T10:19:57Z</time><name>PT3374</name></trkpt>
<trkpt lat="52.950319" lon="05.970031"><ele>34</ele><time>2021-03-19T10:19:58Z</time><name>PT3375</name></trkpt>
<trkpt lat="52.950315" lon="05.970018"><ele>34.2</ele><time>2021-03-19T10:19:59Z</time><name>PT3376</name></trkpt>
<trkpt lat="52.950313" lon="05.970005"><ele>34.1</ele><time>2021-03-19T10:20:00Z</time><name>PT3377</name></trkpt>
<trkpt lat="52.950309" lon="05.969986"><ele>34</ele><time>2021-03-19T10:20:01Z</time><name>PT3378</name></trkpt>
<trkpt lat="52.950305" lon="05.969969"><ele>34.1</ele><time>2021-03-19T10:20:02Z</time><name>PT3379</name></trkpt>
<trkpt lat="52.950301" lon="05.969950"><ele>34.2</ele><time>2021-03-19T10:20:03Z</time><name>PT3380</name></trkpt>
<trkpt lat="52.950297" lon="05.969925"><ele>34</ele><time>2021-03-19T10:20:04Z</time><name>PT3381</name></trkpt>
<trkpt lat="52.950295" lon="05.969908"><ele>34.1</ele><time>2021-03-19T10:20:05Z</time><name>PT3382</name></trkpt>
<trkpt lat="52.950293" lon="05.969891"><ele>34.1</ele><time>2021-03-19T10:20:06Z</time><name>PT3383</name></trkpt>
<trkpt lat="52.950291" lon="05.969877"><ele>34</ele><time>2021-03-19T10:20:07Z</time><name>PT3384</name></trkpt>
<trkpt lat="52.950288" lon="05.969863"><ele>34.2</ele><time>2021-03-19T10:20:08Z</time><name>PT3385</name></trkpt>
<trkpt lat="52.950286" lon="05.969853"><ele>34.3</ele><time>2021-03-19T10:20:09Z</time><name>PT3386</name></trkpt>
<trkpt lat="52.950286" lon="05.969842"><ele>34.1</ele><time>2021-03-19T10:20:10Z</time><name>PT3387</name></trkpt>
<trkpt lat="52.950285" lon="05.969830"><ele>34.1</ele><time>2021-03-19T10:20:11Z</time><name>PT3388</name></trkpt>
<trkpt lat="52.950286" lon="05.969808"><ele>34.1</ele><time>2021-03-19T10:20:12Z</time><name>PT3389</name></trkpt>
<trkpt lat="52.950285" lon="05.969791"><ele>34</ele><time>2021-03-19T10:20:13Z</time><name>PT3390</name></trkpt>
<trkpt lat="52.950283" lon="05.969773"><ele>33.9</ele><time>2021-03-19T10:20:14Z</time><name>PT3391</name></trkpt>
<trkpt lat="52.950274" lon="05.969757"><ele>34</ele><time>2021-03-19T10:20:15Z</time><name>PT3392</name></trkpt>
<trkpt lat="52.950273" lon="05.969743"><ele>33.7</ele><time>2021-03-19T10:20:16Z</time><name>PT3393</name></trkpt>
<trkpt lat="52.950266" lon="05.969728"><ele>33.6</ele><time>2021-03-19T10:20:17Z</time><name>PT3394</name></trkpt>
<trkpt lat="52.950263" lon="05.969714"><ele>33.7</ele><time>2021-03-19T10:20:18Z</time><name>PT3395</name></trkpt>
<trkpt lat="52.950260" lon="05.969698"><ele>33.9</ele><time>2021-03-19T10:20:19Z</time><name>PT3396</name></trkpt>
<trkpt lat="52.950260" lon="05.969682"><ele>34</ele><time>2021-03-19T10:20:20Z</time><name>PT3397</name></trkpt>
<trkpt lat="52.950254" lon="05.969666"><ele>34</ele><time>2021-03-19T10:20:21Z</time><name>PT3398</name></trkpt>
<trkpt lat="52.950250" lon="05.969642"><ele>33.8</ele><time>2021-03-19T10:20:22Z</time><name>PT3399</name></trkpt>
<trkpt lat="52.950245" lon="05.969631"><ele>33.6</ele><time>2021-03-19T10:20:23Z</time><name>PT3400</name></trkpt>
<trkpt lat="52.950238" lon="05.969614"><ele>33.6</ele><time>2021-03-19T10:20:24Z</time><name>PT3401</name></trkpt>
<trkpt lat="52.950232" lon="05.969593"><ele>33.6</ele><time>2021-03-19T10:20:25Z</time><name>PT3402</name></trkpt>
<trkpt lat="52.950226" lon="05.969576"><ele>33.9</ele><time>2021-03-19T10:20:26Z</time><name>PT3403</name></trkpt>
<trkpt lat="52.950225" lon="05.969555"><ele>33.9</ele><time>2021-03-19T10:20:27Z</time><name>PT3404</name></trkpt>
<trkpt lat="52.950218" lon="05.969534"><ele>33.9</ele><time>2021-03-19T10:20:28Z</time><name>PT3405</name></trkpt>
<trkpt lat="52.950215" lon="05.969518"><ele>33.9</ele><time>2021-03-19T10:20:29Z</time><name>PT3406</name></trkpt>
<trkpt lat="52.950205" lon="05.969522"><ele>34</ele><time>2021-03-19T10:20:30Z</time><name>PT3407</name></trkpt>
<trkpt lat="52.950197" lon="05.969499"><ele>33.8</ele><time>2021-03-19T10:20:31Z</time><name>PT3408</name></trkpt>
<trkpt lat="52.950193" lon="05.969480"><ele>34</ele><time>2021-03-19T10:20:32Z</time><name>PT3409</name></trkpt>
<trkpt lat="52.950189" lon="05.969463"><ele>34</ele><time>2021-03-19T10:20:33Z</time><name>PT3410</name></trkpt>
<trkpt lat="52.950188" lon="05.969440"><ele>34.1</ele><time>2021-03-19T10:20:34Z</time><name>PT3411</name></trkpt>
<trkpt lat="52.950185" lon="05.969419"><ele>34.1</ele><time>2021-03-19T10:20:35Z</time><name>PT3412</name></trkpt>
<trkpt lat="52.950179" lon="05.969396"><ele>34.2</ele><time>2021-03-19T10:20:36Z</time><name>PT3413</name></trkpt>
<trkpt lat="52.950174" lon="05.969372"><ele>34.1</ele><time>2021-03-19T10:20:37Z</time><name>PT3414</name></trkpt>
<trkpt lat="52.950170" lon="05.969353"><ele>33.9</ele><time>2021-03-19T10:20:38Z</time><name>PT3415</name></trkpt>
<trkpt lat="52.950164" lon="05.969330"><ele>33.8</ele><time>2021-03-19T10:20:39Z</time><name>PT3416</name></trkpt>
<trkpt lat="52.950161" lon="05.969308"><ele>33.7</ele><time>2021-03-19T10:20:40Z</time><name>PT3417</name></trkpt>
<trkpt lat="52.950157" lon="05.969294"><ele>33.7</ele><time>2021-03-19T10:20:41Z</time><name>PT3418</name></trkpt>
<trkpt lat="52.950149" lon="05.969279"><ele>33.7</ele><time>2021-03-19T10:20:42Z</time><name>PT3419</name></trkpt>
<trkpt lat="52.950144" lon="05.969257"><ele>33.8</ele><time>2021-03-19T10:20:43Z</time><name>PT3420</name></trkpt>
<trkpt lat="52.950139" lon="05.969240"><ele>33.8</ele><time>2021-03-19T10:20:44Z</time><name>PT3421</name></trkpt>
<trkpt lat="52.950136" lon="05.969223"><ele>33.9</ele><time>2021-03-19T10:20:45Z</time><name>PT3422</name></trkpt>
<trkpt lat="52.950132" lon="05.969203"><ele>33.9</ele><time>2021-03-19T10:20:46Z</time><name>PT3423</name></trkpt>
<trkpt lat="52.950132" lon="05.969184"><ele>33.9</ele><time>2021-03-19T10:20:47Z</time><name>PT3424</name></trkpt>
<trkpt lat="52.950128" lon="05.969160"><ele>34</ele><time>2021-03-19T10:20:48Z</time><name>PT3425</name></trkpt>
<trkpt lat="52.950122" lon="05.969139"><ele>34</ele><time>2021-03-19T10:20:49Z</time><name>PT3426</name></trkpt>
<trkpt lat="52.950117" lon="05.969118"><ele>34.1</ele><time>2021-03-19T10:20:50Z</time><name>PT3427</name></trkpt>
<trkpt lat="52.950110" lon="05.969095"><ele>34.2</ele><time>2021-03-19T10:20:51Z</time><name>PT3428</name></trkpt>
<trkpt lat="52.950103" lon="05.969073"><ele>34.3</ele><time>2021-03-19T10:20:52Z</time><name>PT3429</name></trkpt>
<trkpt lat="52.950099" lon="05.969044"><ele>34.3</ele><time>2021-03-19T10:20:53Z</time><name>PT3430</name></trkpt>
<trkpt lat="52.950094" lon="05.969018"><ele>34.2</ele><time>2021-03-19T10:20:54Z</time><name>PT3431</name></trkpt>
<trkpt lat="52.950090" lon="05.968994"><ele>34.2</ele><time>2021-03-19T10:20:55Z</time><name>PT3432</name></trkpt>
<trkpt lat="52.950086" lon="05.968978"><ele>34.1</ele><time>2021-03-19T10:20:56Z</time><name>PT3433</name></trkpt>
<trkpt lat="52.950081" lon="05.968951"><ele>34</ele><time>2021-03-19T10:20:57Z</time><name>PT3434</name></trkpt>
<trkpt lat="52.950076" lon="05.968934"><ele>34.1</ele><time>2021-03-19T10:20:58Z</time><name>PT3435</name></trkpt>
<trkpt lat="52.950071" lon="05.968919"><ele>34.2</ele><time>2021-03-19T10:20:59Z</time><name>PT3436</name></trkpt>
<trkpt lat="52.950069" lon="05.968903"><ele>34.3</ele><time>2021-03-19T10:21:00Z</time><name>PT3437</name></trkpt>
<trkpt lat="52.950066" lon="05.968888"><ele>34.5</ele><time>2021-03-19T10:21:01Z</time><name>PT3438</name></trkpt>
<trkpt lat="52.950063" lon="05.968875"><ele>34.4</ele><time>2021-03-19T10:21:02Z</time><name>PT3439</name></trkpt>
<trkpt lat="52.950058" lon="05.968866"><ele>34.2</ele><time>2021-03-19T10:21:03Z</time><name>PT3440</name></trkpt>
<trkpt lat="52.950055" lon="05.968854"><ele>34.2</ele><time>2021-03-19T10:21:04Z</time><name>PT3441</name></trkpt>
<trkpt lat="52.950052" lon="05.968844"><ele>34.3</ele><time>2021-03-19T10:21:05Z</time><name>PT3442</name></trkpt>
<trkpt lat="52.950051" lon="05.968832"><ele>34.3</ele><time>2021-03-19T10:21:06Z</time><name>PT3443</name></trkpt>
<trkpt lat="52.950049" lon="05.968813"><ele>34.1</ele><time>2021-03-19T10:21:07Z</time><name>PT3444</name></trkpt>
<trkpt lat="52.950046" lon="05.968798"><ele>34</ele><time>2021-03-19T10:21:08Z</time><name>PT3445</name></trkpt>
<trkpt lat="52.950043" lon="05.968780"><ele>34</ele><time>2021-03-19T10:21:09Z</time><name>PT3446</name></trkpt>
<trkpt lat="52.950036" lon="05.968756"><ele>34</ele><time>2021-03-19T10:21:10Z</time><name>PT3447</name></trkpt>
<trkpt lat="52.950031" lon="05.968740"><ele>34.1</ele><time>2021-03-19T10:21:11Z</time><name>PT3448</name></trkpt>
<trkpt lat="52.950029" lon="05.968723"><ele>34.2</ele><time>2021-03-19T10:21:12Z</time><name>PT3449</name></trkpt>
<trkpt lat="52.950027" lon="05.968708"><ele>34.1</ele><time>2021-03-19T10:21:13Z</time><name>PT3450</name></trkpt>
<trkpt lat="52.950022" lon="05.968693"><ele>34.1</ele><time>2021-03-19T10:21:14Z</time><name>PT3451</name></trkpt>
<trkpt lat="52.950018" lon="05.968682"><ele>34</ele><time>2021-03-19T10:21:15Z</time><name>PT3452</name></trkpt>
<trkpt lat="52.950018" lon="05.968664"><ele>34</ele><time>2021-03-19T10:21:16Z</time><name>PT3453</name></trkpt>
<trkpt lat="52.950017" lon="05.968651"><ele>34</ele><time>2021-03-19T10:21:17Z</time><name>PT3454</name></trkpt>
<trkpt lat="52.950015" lon="05.968637"><ele>34</ele><time>2021-03-19T10:21:18Z</time><name>PT3455</name></trkpt>
<trkpt lat="52.950013" lon="05.968615"><ele>34</ele><time>2021-03-19T10:21:19Z</time><name>PT3456</name></trkpt>
<trkpt lat="52.950009" lon="05.968595"><ele>34</ele><time>2021-03-19T10:21:20Z</time><name>PT3457</name></trkpt>
<trkpt lat="52.950004" lon="05.968573"><ele>34</ele><time>2021-03-19T10:21:21Z</time><name>PT3458</name></trkpt>
<trkpt lat="52.949999" lon="05.968557"><ele>33.9</ele><time>2021-03-19T10:21:22Z</time><name>PT3459</name></trkpt>
<trkpt lat="52.949997" lon="05.968541"><ele>33.9</ele><time>2021-03-19T10:21:23Z</time><name>PT3460</name></trkpt>
<trkpt lat="52.949992" lon="05.968520"><ele>34</ele><time>2021-03-19T10:21:24Z</time><name>PT3461</name></trkpt>
<trkpt lat="52.949989" lon="05.968501"><ele>34</ele><time>2021-03-19T10:21:25Z</time><name>PT3462</name></trkpt>
<trkpt lat="52.949986" lon="05.968480"><ele>34.2</ele><time>2021-03-19T10:21:26Z</time><name>PT3463</name></trkpt>
<trkpt lat="52.949984" lon="05.968462"><ele>34.4</ele><time>2021-03-19T10:21:27Z</time><name>PT3464</name></trkpt>
<trkpt lat="52.949982" lon="05.968443"><ele>34.4</ele><time>2021-03-19T10:21:28Z</time><name>PT3465</name></trkpt>
<trkpt lat="52.949977" lon="05.968430"><ele>34.1</ele><time>2021-03-19T10:21:29Z</time><name>PT3466</name></trkpt>
<trkpt lat="52.949972" lon="05.968413"><ele>34.1</ele><time>2021-03-19T10:21:30Z</time><name>PT3467</name></trkpt>
<trkpt lat="52.949969" lon="05.968399"><ele>34</ele><time>2021-03-19T10:21:31Z</time><name>PT3468</name></trkpt>
<trkpt lat="52.949967" lon="05.968378"><ele>33.9</ele><time>2021-03-19T10:21:32Z</time><name>PT3469</name></trkpt>
<trkpt lat="52.949965" lon="05.968366"><ele>33.8</ele><time>2021-03-19T10:21:33Z</time><name>PT3470</name></trkpt>
<trkpt lat="52.949959" lon="05.968348"><ele>33.9</ele><time>2021-03-19T10:21:34Z</time><name>PT3471</name></trkpt>
<trkpt lat="52.949956" lon="05.968326"><ele>33.7</ele><time>2021-03-19T10:21:35Z</time><name>PT3472</name></trkpt>
<trkpt lat="52.949952" lon="05.968306"><ele>33.7</ele><time>2021-03-19T10:21:36Z</time><name>PT3473</name></trkpt>
<trkpt lat="52.949948" lon="05.968281"><ele>33.6</ele><time>2021-03-19T10:21:37Z</time><name>PT3474</name></trkpt>
<trkpt lat="52.949946" lon="05.968267"><ele>33.6</ele><time>2021-03-19T10:21:38Z</time><name>PT3475</name></trkpt>
<trkpt lat="52.949943" lon="05.968250"><ele>33.6</ele><time>2021-03-19T10:21:39Z</time><name>PT3476</name></trkpt>
<trkpt lat="52.949939" lon="05.968233"><ele>33.6</ele><time>2021-03-19T10:21:40Z</time><name>PT3477</name></trkpt>
<trkpt lat="52.949934" lon="05.968222"><ele>33.7</ele><time>2021-03-19T10:21:41Z</time><name>PT3478</name></trkpt>
<trkpt lat="52.949928" lon="05.968205"><ele>33.6</ele><time>2021-03-19T10:21:42Z</time><name>PT3479</name></trkpt>
<trkpt lat="52.949922" lon="05.968182"><ele>33.7</ele><time>2021-03-19T10:21:43Z</time><name>PT3480</name></trkpt>
<trkpt lat="52.949916" lon="05.968163"><ele>33.7</ele><time>2021-03-19T10:21:44Z</time><name>PT3481</name></trkpt>
<trkpt lat="52.949913" lon="05.968137"><ele>33.6</ele><time>2021-03-19T10:21:45Z</time><name>PT3482</name></trkpt>
<trkpt lat="52.949910" lon="05.968121"><ele>33.6</ele><time>2021-03-19T10:21:46Z</time><name>PT3483</name></trkpt>
<trkpt lat="52.949906" lon="05.968105"><ele>33.6</ele><time>2021-03-19T10:21:47Z</time><name>PT3484</name></trkpt>
<trkpt lat="52.949903" lon="05.968086"><ele>33.6</ele><time>2021-03-19T10:21:48Z</time><name>PT3485</name></trkpt>
<trkpt lat="52.949899" lon="05.968069"><ele>33.6</ele><time>2021-03-19T10:21:49Z</time><name>PT3486</name></trkpt>
<trkpt lat="52.949893" lon="05.968050"><ele>33.7</ele><time>2021-03-19T10:21:50Z</time><name>PT3487</name></trkpt>
<trkpt lat="52.949889" lon="05.968031"><ele>33.8</ele><time>2021-03-19T10:21:51Z</time><name>PT3488</name></trkpt>
<trkpt lat="52.949885" lon="05.968015"><ele>33.7</ele><time>2021-03-19T10:21:52Z</time><name>PT3489</name></trkpt>
<trkpt lat="52.949881" lon="05.968001"><ele>33.7</ele><time>2021-03-19T10:21:53Z</time><name>PT3490</name></trkpt>
<trkpt lat="52.949874" lon="05.967981"><ele>33.7</ele><time>2021-03-19T10:21:54Z</time><name>PT3491</name></trkpt>
<trkpt lat="52.949870" lon="05.967960"><ele>33.5</ele><time>2021-03-19T10:21:55Z</time><name>PT3492</name></trkpt>
<trkpt lat="52.949867" lon="05.967944"><ele>33.5</ele><time>2021-03-19T10:21:56Z</time><name>PT3493</name></trkpt>
<trkpt lat="52.949864" lon="05.967930"><ele>33.6</ele><time>2021-03-19T10:21:57Z</time><name>PT3494</name></trkpt>
<trkpt lat="52.949858" lon="05.967910"><ele>33.6</ele><time>2021-03-19T10:21:58Z</time><name>PT3495</name></trkpt>
<trkpt lat="52.949852" lon="05.967882"><ele>33.6</ele><time>2021-03-19T10:21:59Z</time><name>PT3496</name></trkpt>
<trkpt lat="52.949847" lon="05.967859"><ele>33.8</ele><time>2021-03-19T10:22:00Z</time><name>PT3497</name></trkpt>
<trkpt lat="52.949844" lon="05.967842"><ele>33.7</ele><time>2021-03-19T10:22:01Z</time><name>PT3498</name></trkpt>
<trkpt lat="52.949839" lon="05.967828"><ele>33.6</ele><time>2021-03-19T10:22:02Z</time><name>PT3499</name></trkpt>
<trkpt lat="52.949832" lon="05.967804"><ele>33.6</ele><time>2021-03-19T10:22:03Z</time><name>PT3500</name></trkpt>
<trkpt lat="52.949824" lon="05.967776"><ele>33.6</ele><time>2021-03-19T10:22:04Z</time><name>PT3501</name></trkpt>
<trkpt lat="52.949819" lon="05.967760"><ele>33.6</ele><time>2021-03-19T10:22:05Z</time><name>PT3502</name></trkpt>
<trkpt lat="52.949815" lon="05.967741"><ele>33.6</ele><time>2021-03-19T10:22:06Z</time><name>PT3503</name></trkpt>
<trkpt lat="52.949811" lon="05.967720"><ele>33.7</ele><time>2021-03-19T10:22:07Z</time><name>PT3504</name></trkpt>
<trkpt lat="52.949808" lon="05.967699"><ele>33.7</ele><time>2021-03-19T10:22:08Z</time><name>PT3505</name></trkpt>
<trkpt lat="52.949804" lon="05.967680"><ele>33.6</ele><time>2021-03-19T10:22:09Z</time><name>PT3506</name></trkpt>
<trkpt lat="52.949805" lon="05.967662"><ele>33.5</ele><time>2021-03-19T10:22:10Z</time><name>PT3507</name></trkpt>
<trkpt lat="52.949804" lon="05.967642"><ele>33.3</ele><time>2021-03-19T10:22:11Z</time><name>PT3508</name></trkpt>
<trkpt lat="52.949800" lon="05.967625"><ele>33.2</ele><time>2021-03-19T10:22:12Z</time><name>PT3509</name></trkpt>
<trkpt lat="52.949793" lon="05.967610"><ele>33.2</ele><time>2021-03-19T10:22:13Z</time><name>PT3510</name></trkpt>
<trkpt lat="52.949786" lon="05.967593"><ele>33.2</ele><time>2021-03-19T10:22:14Z</time><name>PT3511</name></trkpt>
<trkpt lat="52.949783" lon="05.967579"><ele>33.3</ele><time>2021-03-19T10:22:15Z</time><name>PT3512</name></trkpt>
<trkpt lat="52.949781" lon="05.967567"><ele>33.4</ele><time>2021-03-19T10:22:16Z</time><name>PT3513</name></trkpt>
<trkpt lat="52.949776" lon="05.967555"><ele>33.3</ele><time>2021-03-19T10:22:17Z</time><name>PT3514</name></trkpt>
<trkpt lat="52.949769" lon="05.967538"><ele>33.4</ele><time>2021-03-19T10:22:18Z</time><name>PT3515</name></trkpt>
<trkpt lat="52.949765" lon="05.967527"><ele>33.4</ele><time>2021-03-19T10:22:19Z</time><name>PT3516</name></trkpt>
<trkpt lat="52.949758" lon="05.967518"><ele>33.5</ele><time>2021-03-19T10:22:20Z</time><name>PT3517</name></trkpt>
<trkpt lat="52.949746" lon="05.967514"><ele>33.5</ele><time>2021-03-19T10:22:21Z</time><name>PT3518</name></trkpt>
<trkpt lat="52.949735" lon="05.967508"><ele>33.4</ele><time>2021-03-19T10:22:22Z</time><name>PT3519</name></trkpt>
<trkpt lat="52.949723" lon="05.967502"><ele>33.5</ele><time>2021-03-19T10:22:23Z</time><name>PT3520</name></trkpt>
<trkpt lat="52.949713" lon="05.967493"><ele>33.4</ele><time>2021-03-19T10:22:24Z</time><name>PT3521</name></trkpt>
<trkpt lat="52.949704" lon="05.967487"><ele>33.5</ele><time>2021-03-19T10:22:25Z</time><name>PT3522</name></trkpt>
<trkpt lat="52.949695" lon="05.967486"><ele>33.4</ele><time>2021-03-19T10:22:26Z</time><name>PT3523</name></trkpt>
<trkpt lat="52.949684" lon="05.967488"><ele>33.5</ele><time>2021-03-19T10:22:27Z</time><name>PT3524</name></trkpt>
<trkpt lat="52.949673" lon="05.967489"><ele>33.5</ele><time>2021-03-19T10:22:28Z</time><name>PT3525</name></trkpt>
<trkpt lat="52.949664" lon="05.967488"><ele>33.5</ele><time>2021-03-19T10:22:29Z</time><name>PT3526</name></trkpt>
<trkpt lat="52.949654" lon="05.967493"><ele>33.4</ele><time>2021-03-19T10:22:30Z</time><name>PT3527</name></trkpt>
<trkpt lat="52.949642" lon="05.967498"><ele>33.5</ele><time>2021-03-19T10:22:31Z</time><name>PT3528</name></trkpt>
<trkpt lat="52.949634" lon="05.967505"><ele>33.4</ele><time>2021-03-19T10:22:32Z</time><name>PT3529</name></trkpt>
<trkpt lat="52.949624" lon="05.967514"><ele>33.4</ele><time>2021-03-19T10:22:33Z</time><name>PT3530</name></trkpt>
<trkpt lat="52.949614" lon="05.967521"><ele>33.5</ele><time>2021-03-19T10:22:34Z</time><name>PT3531</name></trkpt>
<trkpt lat="52.949601" lon="05.967527"><ele>33.4</ele><time>2021-03-19T10:22:35Z</time><name>PT3532</name></trkpt>
<trkpt lat="52.949588" lon="05.967532"><ele>33.4</ele><time>2021-03-19T10:22:36Z</time><name>PT3533</name></trkpt>
<trkpt lat="52.949575" lon="05.967539"><ele>33.3</ele><time>2021-03-19T10:22:37Z</time><name>PT3534</name></trkpt>
<trkpt lat="52.949559" lon="05.967543"><ele>33.1</ele><time>2021-03-19T10:22:38Z</time><name>PT3535</name></trkpt>
<trkpt lat="52.949546" lon="05.967549"><ele>33.2</ele><time>2021-03-19T10:22:39Z</time><name>PT3536</name></trkpt>
<trkpt lat="52.949537" lon="05.967554"><ele>33.2</ele><time>2021-03-19T10:22:40Z</time><name>PT3537</name></trkpt>
<trkpt lat="52.949527" lon="05.967561"><ele>33.2</ele><time>2021-03-19T10:22:41Z</time><name>PT3538</name></trkpt>
<trkpt lat="52.949517" lon="05.967565"><ele>33.1</ele><time>2021-03-19T10:22:42Z</time><name>PT3539</name></trkpt>
<trkpt lat="52.949506" lon="05.967573"><ele>33.1</ele><time>2021-03-19T10:22:43Z</time><name>PT3540</name></trkpt>
<trkpt lat="52.949495" lon="05.967582"><ele>33.2</ele><time>2021-03-19T10:22:44Z</time><name>PT3541</name></trkpt>
<trkpt lat="52.949483" lon="05.967584"><ele>33.2</ele><time>2021-03-19T10:22:45Z</time><name>PT3542</name></trkpt>
<trkpt lat="52.949469" lon="05.967588"><ele>33.2</ele><time>2021-03-19T10:22:46Z</time><name>PT3543</name></trkpt>
<trkpt lat="52.949459" lon="05.967591"><ele>33.1</ele><time>2021-03-19T10:22:47Z</time><name>PT3544</name></trkpt>
<trkpt lat="52.949448" lon="05.967601"><ele>33</ele><time>2021-03-19T10:22:48Z</time><name>PT3545</name></trkpt>
<trkpt lat="52.949439" lon="05.967608"><ele>33</ele><time>2021-03-19T10:22:49Z</time><name>PT3546</name></trkpt>
<trkpt lat="52.949432" lon="05.967614"><ele>33.1</ele><time>2021-03-19T10:22:50Z</time><name>PT3547</name></trkpt>
<trkpt lat="52.949421" lon="05.967617"><ele>33.3</ele><time>2021-03-19T10:22:51Z</time><name>PT3548</name></trkpt>
<trkpt lat="52.949410" lon="05.967622"><ele>33.4</ele><time>2021-03-19T10:22:52Z</time><name>PT3549</name></trkpt>
<trkpt lat="52.949400" lon="05.967628"><ele>33.5</ele><time>2021-03-19T10:22:53Z</time><name>PT3550</name></trkpt>
<trkpt lat="52.949392" lon="05.967632"><ele>33.6</ele><time>2021-03-19T10:22:54Z</time><name>PT3551</name></trkpt>
<trkpt lat="52.949382" lon="05.967640"><ele>33.3</ele><time>2021-03-19T10:22:55Z</time><name>PT3552</name></trkpt>
<trkpt lat="52.949373" lon="05.967647"><ele>33.2</ele><time>2021-03-19T10:22:56Z</time><name>PT3553</name></trkpt>
<trkpt lat="52.949361" lon="05.967657"><ele>33.2</ele><time>2021-03-19T10:22:57Z</time><name>PT3554</name></trkpt>
<trkpt lat="52.949348" lon="05.967666"><ele>33.1</ele><time>2021-03-19T10:22:58Z</time><name>PT3555</name></trkpt>
<trkpt lat="52.949337" lon="05.967674"><ele>33.3</ele><time>2021-03-19T10:22:59Z</time><name>PT3556</name></trkpt>
<trkpt lat="52.949326" lon="05.967681"><ele>33.2</ele><time>2021-03-19T10:23:00Z</time><name>PT3557</name></trkpt>
<trkpt lat="52.949315" lon="05.967692"><ele>33.2</ele><time>2021-03-19T10:23:01Z</time><name>PT3558</name></trkpt>
<trkpt lat="52.949302" lon="05.967699"><ele>33.1</ele><time>2021-03-19T10:23:02Z</time><name>PT3559</name></trkpt>
<trkpt lat="52.949288" lon="05.967710"><ele>33</ele><time>2021-03-19T10:23:03Z</time><name>PT3560</name></trkpt>
<trkpt lat="52.949274" lon="05.967715"><ele>33</ele><time>2021-03-19T10:23:04Z</time><name>PT3561</name></trkpt>
<trkpt lat="52.949261" lon="05.967717"><ele>33.1</ele><time>2021-03-19T10:23:05Z</time><name>PT3562</name></trkpt>
<trkpt lat="52.949251" lon="05.967722"><ele>33.1</ele><time>2021-03-19T10:23:06Z</time><name>PT3563</name></trkpt>
<trkpt lat="52.949237" lon="05.967730"><ele>33.3</ele><time>2021-03-19T10:23:07Z</time><name>PT3564</name></trkpt>
<trkpt lat="52.949225" lon="05.967733"><ele>33.3</ele><time>2021-03-19T10:23:08Z</time><name>PT3565</name></trkpt>
<trkpt lat="52.949214" lon="05.967741"><ele>33.3</ele><time>2021-03-19T10:23:09Z</time><name>PT3566</name></trkpt>
<trkpt lat="52.949205" lon="05.967746"><ele>33.2</ele><time>2021-03-19T10:23:10Z</time><name>PT3567</name></trkpt>
<trkpt lat="52.949197" lon="05.967755"><ele>33.2</ele><time>2021-03-19T10:23:11Z</time><name>PT3568</name></trkpt>
<trkpt lat="52.949189" lon="05.967763"><ele>33.3</ele><time>2021-03-19T10:23:12Z</time><name>PT3569</name></trkpt>
<trkpt lat="52.949180" lon="05.967768"><ele>33.2</ele><time>2021-03-19T10:23:13Z</time><name>PT3570</name></trkpt>
<trkpt lat="52.949163" lon="05.967775"><ele>33.1</ele><time>2021-03-19T10:23:14Z</time><name>PT3571</name></trkpt>
<trkpt lat="52.949148" lon="05.967784"><ele>33.1</ele><time>2021-03-19T10:23:15Z</time><name>PT3572</name></trkpt>
<trkpt lat="52.949140" lon="05.967794"><ele>33.1</ele><time>2021-03-19T10:23:16Z</time><name>PT3573</name></trkpt>
<trkpt lat="52.949132" lon="05.967800"><ele>33.1</ele><time>2021-03-19T10:23:17Z</time><name>PT3574</name></trkpt>
<trkpt lat="52.949120" lon="05.967804"><ele>33.1</ele><time>2021-03-19T10:23:18Z</time><name>PT3575</name></trkpt>
<trkpt lat="52.949110" lon="05.967809"><ele>33</ele><time>2021-03-19T10:23:19Z</time><name>PT3576</name></trkpt>
<trkpt lat="52.949102" lon="05.967818"><ele>33.1</ele><time>2021-03-19T10:23:20Z</time><name>PT3577</name></trkpt>
<trkpt lat="52.949093" lon="05.967824"><ele>33.1</ele><time>2021-03-19T10:23:21Z</time><name>PT3578</name></trkpt>
<trkpt lat="52.949084" lon="05.967827"><ele>33.1</ele><time>2021-03-19T10:23:22Z</time><name>PT3579</name></trkpt>
<trkpt lat="52.949074" lon="05.967834"><ele>33.4</ele><time>2021-03-19T10:23:23Z</time><name>PT3580</name></trkpt>
<trkpt lat="52.949065" lon="05.967841"><ele>33.4</ele><time>2021-03-19T10:23:24Z</time><name>PT3581</name></trkpt>
<trkpt lat="52.949060" lon="05.967847"><ele>33.4</ele><time>2021-03-19T10:23:25Z</time><name>PT3582</name></trkpt>
<trkpt lat="52.949050" lon="05.967853"><ele>33.5</ele><time>2021-03-19T10:23:26Z</time><name>PT3583</name></trkpt>
<trkpt lat="52.949036" lon="05.967861"><ele>33.5</ele><time>2021-03-19T10:23:27Z</time><name>PT3584</name></trkpt>
<trkpt lat="52.949020" lon="05.967866"><ele>33.5</ele><time>2021-03-19T10:23:28Z</time><name>PT3585</name></trkpt>
<trkpt lat="52.949009" lon="05.967871"><ele>33.3</ele><time>2021-03-19T10:23:29Z</time><name>PT3586</name></trkpt>
<trkpt lat="52.948997" lon="05.967877"><ele>33.3</ele><time>2021-03-19T10:23:30Z</time><name>PT3587</name></trkpt>
<trkpt lat="52.948986" lon="05.967879"><ele>33.4</ele><time>2021-03-19T10:23:31Z</time><name>PT3588</name></trkpt>
<trkpt lat="52.948975" lon="05.967885"><ele>33.4</ele><time>2021-03-19T10:23:32Z</time><name>PT3589</name></trkpt>
<trkpt lat="52.948965" lon="05.967892"><ele>33.5</ele><time>2021-03-19T10:23:33Z</time><name>PT3590</name></trkpt>
<trkpt lat="52.948954" lon="05.967900"><ele>33.6</ele><time>2021-03-19T10:23:34Z</time><name>PT3591</name></trkpt>
<trkpt lat="52.948946" lon="05.967908"><ele>33.7</ele><time>2021-03-19T10:23:35Z</time><name>PT3592</name></trkpt>
<trkpt lat="52.948937" lon="05.967912"><ele>33.7</ele><time>2021-03-19T10:23:36Z</time><name>PT3593</name></trkpt>
<trkpt lat="52.948924" lon="05.967919"><ele>33.6</ele><time>2021-03-19T10:23:37Z</time><name>PT3594</name></trkpt>
<trkpt lat="52.948911" lon="05.967922"><ele>33.4</ele><time>2021-03-19T10:23:38Z</time><name>PT3595</name></trkpt>
<trkpt lat="52.948897" lon="05.967928"><ele>33.2</ele><time>2021-03-19T10:23:39Z</time><name>PT3596</name></trkpt>
<trkpt lat="52.948890" lon="05.967922"><ele>33.2</ele><time>2021-03-19T10:23:40Z</time><name>PT3597</name></trkpt>
<trkpt lat="52.948879" lon="05.967920"><ele>33.2</ele><time>2021-03-19T10:23:41Z</time><name>PT3598</name></trkpt>
<trkpt lat="52.948869" lon="05.967925"><ele>33.1</ele><time>2021-03-19T10:23:42Z</time><name>PT3599</name></trkpt>
<trkpt lat="52.948856" lon="05.967932"><ele>33.3</ele><time>2021-03-19T10:23:43Z</time><name>PT3600</name></trkpt>
<trkpt lat="52.948845" lon="05.967942"><ele>33.3</ele><time>2021-03-19T10:23:44Z</time><name>PT3601</name></trkpt>
<trkpt lat="52.948835" lon="05.967952"><ele>33.4</ele><time>2021-03-19T10:23:45Z</time><name>PT3602</name></trkpt>
<trkpt lat="52.948827" lon="05.967959"><ele>33.3</ele><time>2021-03-19T10:23:46Z</time><name>PT3603</name></trkpt>
<trkpt lat="52.948813" lon="05.967968"><ele>33.1</ele><time>2021-03-19T10:23:47Z</time><name>PT3604</name></trkpt>
<trkpt lat="52.948802" lon="05.967974"><ele>33.2</ele><time>2021-03-19T10:23:48Z</time><name>PT3605</name></trkpt>
<trkpt lat="52.948788" lon="05.967981"><ele>33.1</ele><time>2021-03-19T10:23:49Z</time><name>PT3606</name></trkpt>
<trkpt lat="52.948777" lon="05.967981"><ele>32.9</ele><time>2021-03-19T10:23:50Z</time><name>PT3607</name></trkpt>
<trkpt lat="52.948767" lon="05.967983"><ele>33.1</ele><time>2021-03-19T10:23:51Z</time><name>PT3608</name></trkpt>
<trkpt lat="52.948755" lon="05.967992"><ele>33.1</ele><time>2021-03-19T10:23:52Z</time><name>PT3609</name></trkpt>
<trkpt lat="52.948742" lon="05.967998"><ele>33.2</ele><time>2021-03-19T10:23:53Z</time><name>PT3610</name></trkpt>
<trkpt lat="52.948731" lon="05.968002"><ele>33.4</ele><time>2021-03-19T10:23:54Z</time><name>PT3611</name></trkpt>
<trkpt lat="52.948722" lon="05.968006"><ele>33.6</ele><time>2021-03-19T10:23:55Z</time><name>PT3612</name></trkpt>
<trkpt lat="52.948712" lon="05.968012"><ele>33.6</ele><time>2021-03-19T10:23:56Z</time><name>PT3613</name></trkpt>
<trkpt lat="52.948699" lon="05.968021"><ele>33.7</ele><time>2021-03-19T10:23:57Z</time><name>PT3614</name></trkpt>
<trkpt lat="52.948690" lon="05.968028"><ele>33.6</ele><time>2021-03-19T10:23:58Z</time><name>PT3615</name></trkpt>
<trkpt lat="52.948679" lon="05.968034"><ele>33.4</ele><time>2021-03-19T10:23:59Z</time><name>PT3616</name></trkpt>
<trkpt lat="52.948666" lon="05.968040"><ele>33.5</ele><time>2021-03-19T10:24:00Z</time><name>PT3617</name></trkpt>
<trkpt lat="52.948651" lon="05.968049"><ele>33.5</ele><time>2021-03-19T10:24:01Z</time><name>PT3618</name></trkpt>
<trkpt lat="52.948641" lon="05.968056"><ele>33.6</ele><time>2021-03-19T10:24:02Z</time><name>PT3619</name></trkpt>
<trkpt lat="52.948629" lon="05.968063"><ele>33.6</ele><time>2021-03-19T10:24:03Z</time><name>PT3620</name></trkpt>
<trkpt lat="52.948616" lon="05.968075"><ele>33.6</ele><time>2021-03-19T10:24:04Z</time><name>PT3621</name></trkpt>
<trkpt lat="52.948605" lon="05.968086"><ele>33.6</ele><time>2021-03-19T10:24:05Z</time><name>PT3622</name></trkpt>
<trkpt lat="52.948593" lon="05.968094"><ele>33.5</ele><time>2021-03-19T10:24:06Z</time><name>PT3623</name></trkpt>
<trkpt lat="52.948581" lon="05.968101"><ele>33.4</ele><time>2021-03-19T10:24:07Z</time><name>PT3624</name></trkpt>
<trkpt lat="52.948569" lon="05.968105"><ele>33.2</ele><time>2021-03-19T10:24:08Z</time><name>PT3625</name></trkpt>
<trkpt lat="52.948557" lon="05.968110"><ele>33.4</ele><time>2021-03-19T10:24:09Z</time><name>PT3626</name></trkpt>
<trkpt lat="52.948546" lon="05.968121"><ele>33.6</ele><time>2021-03-19T10:24:10Z</time><name>PT3627</name></trkpt>
<trkpt lat="52.948534" lon="05.968129"><ele>33.6</ele><time>2021-03-19T10:24:11Z</time><name>PT3628</name></trkpt>
<trkpt lat="52.948520" lon="05.968135"><ele>33.8</ele><time>2021-03-19T10:24:12Z</time><name>PT3629</name></trkpt>
<trkpt lat="52.948507" lon="05.968147"><ele>33.8</ele><time>2021-03-19T10:24:13Z</time><name>PT3630</name></trkpt>
<trkpt lat="52.948499" lon="05.968153"><ele>33.6</ele><time>2021-03-19T10:24:14Z</time><name>PT3631</name></trkpt>
<trkpt lat="52.948488" lon="05.968163"><ele>33.6</ele><time>2021-03-19T10:24:15Z</time><name>PT3632</name></trkpt>
<trkpt lat="52.948475" lon="05.968175"><ele>33.6</ele><time>2021-03-19T10:24:16Z</time><name>PT3633</name></trkpt>
<trkpt lat="52.948463" lon="05.968186"><ele>33.6</ele><time>2021-03-19T10:24:17Z</time><name>PT3634</name></trkpt>
<trkpt lat="52.948452" lon="05.968193"><ele>33.8</ele><time>2021-03-19T10:24:18Z</time><name>PT3635</name></trkpt>
<trkpt lat="52.948441" lon="05.968199"><ele>33.8</ele><time>2021-03-19T10:24:19Z</time><name>PT3636</name></trkpt>
<trkpt lat="52.948430" lon="05.968206"><ele>33.8</ele><time>2021-03-19T10:24:20Z</time><name>PT3637</name></trkpt>
<trkpt lat="52.948419" lon="05.968214"><ele>33.8</ele><time>2021-03-19T10:24:21Z</time><name>PT3638</name></trkpt>
<trkpt lat="52.948411" lon="05.968220"><ele>33.6</ele><time>2021-03-19T10:24:22Z</time><name>PT3639</name></trkpt>
<trkpt lat="52.948403" lon="05.968224"><ele>33.4</ele><time>2021-03-19T10:24:23Z</time><name>PT3640</name></trkpt>
<trkpt lat="52.948392" lon="05.968229"><ele>33.4</ele><time>2021-03-19T10:24:24Z</time><name>PT3641</name></trkpt>
<trkpt lat="52.948381" lon="05.968237"><ele>33.3</ele><time>2021-03-19T10:24:25Z</time><name>PT3642</name></trkpt>
<trkpt lat="52.948364" lon="05.968249"><ele>33.3</ele><time>2021-03-19T10:24:26Z</time><name>PT3643</name></trkpt>
<trkpt lat="52.948355" lon="05.968257"><ele>33.4</ele><time>2021-03-19T10:24:27Z</time><name>PT3644</name></trkpt>
<trkpt lat="52.948346" lon="05.968266"><ele>33.2</ele><time>2021-03-19T10:24:28Z</time><name>PT3645</name></trkpt>
<trkpt lat="52.948335" lon="05.968270"><ele>33.4</ele><time>2021-03-19T10:24:29Z</time><name>PT3646</name></trkpt>
<trkpt lat="52.948324" lon="05.968278"><ele>33.4</ele><time>2021-03-19T10:24:30Z</time><name>PT3647</name></trkpt>
<trkpt lat="52.948314" lon="05.968287"><ele>33.6</ele><time>2021-03-19T10:24:31Z</time><name>PT3648</name></trkpt>
<trkpt lat="52.948303" lon="05.968295"><ele>33.5</ele><time>2021-03-19T10:24:32Z</time><name>PT3649</name></trkpt>
<trkpt lat="52.948295" lon="05.968300"><ele>33.4</ele><time>2021-03-19T10:24:33Z</time><name>PT3650</name></trkpt>
<trkpt lat="52.948288" lon="05.968304"><ele>33.4</ele><time>2021-03-19T10:24:34Z</time><name>PT3651</name></trkpt>
<trkpt lat="52.948277" lon="05.968312"><ele>33.3</ele><time>2021-03-19T10:24:35Z</time><name>PT3652</name></trkpt>
<trkpt lat="52.948265" lon="05.968321"><ele>33.3</ele><time>2021-03-19T10:24:36Z</time><name>PT3653</name></trkpt>
<trkpt lat="52.948253" lon="05.968325"><ele>33.5</ele><time>2021-03-19T10:24:37Z</time><name>PT3654</name></trkpt>
<trkpt lat="52.948243" lon="05.968330"><ele>33.5</ele><time>2021-03-19T10:24:38Z</time><name>PT3655</name></trkpt>
<trkpt lat="52.948229" lon="05.968337"><ele>33.6</ele><time>2021-03-19T10:24:39Z</time><name>PT3656</name></trkpt>
<trkpt lat="52.948218" lon="05.968343"><ele>33.7</ele><time>2021-03-19T10:24:40Z</time><name>PT3657</name></trkpt>
<trkpt lat="52.948205" lon="05.968350"><ele>33.6</ele><time>2021-03-19T10:24:41Z</time><name>PT3658</name></trkpt>
<trkpt lat="52.948200" lon="05.968353"><ele>33.8</ele><time>2021-03-19T10:24:42Z</time><name>PT3659</name></trkpt>
<trkpt lat="52.948186" lon="05.968370"><ele>33.7</ele><time>2021-03-19T10:24:43Z</time><name>PT3660</name></trkpt>
<trkpt lat="52.948184" lon="05.968369"><ele>33.9</ele><time>2021-03-19T10:24:44Z</time><name>PT3661</name></trkpt>
<trkpt lat="52.948178" lon="05.968369"><ele>33.8</ele><time>2021-03-19T10:24:45Z</time><name>PT3662</name></trkpt>
<trkpt lat="52.948173" lon="05.968371"><ele>33.7</ele><time>2021-03-19T10:24:47Z</time><name>PT3663</name></trkpt>
<trkpt lat="52.948162" lon="05.968375"><ele>33.6</ele><time>2021-03-19T10:24:48Z</time><name>PT3664</name></trkpt>
<trkpt lat="52.948147" lon="05.968387"><ele>33.6</ele><time>2021-03-19T10:24:49Z</time><name>PT3665</name></trkpt>
<trkpt lat="52.948133" lon="05.968384"><ele>33.6</ele><time>2021-03-19T10:24:50Z</time><name>PT3666</name></trkpt>
<trkpt lat="52.948118" lon="05.968386"><ele>33.6</ele><time>2021-03-19T10:24:51Z</time><name>PT3667</name></trkpt>
<trkpt lat="52.948107" lon="05.968394"><ele>33.6</ele><time>2021-03-19T10:24:52Z</time><name>PT3668</name></trkpt>
<trkpt lat="52.948095" lon="05.968407"><ele>33.6</ele><time>2021-03-19T10:24:53Z</time><name>PT3669</name></trkpt>
<trkpt lat="52.948084" lon="05.968415"><ele>33.6</ele><time>2021-03-19T10:24:54Z</time><name>PT3670</name></trkpt>
<trkpt lat="52.948074" lon="05.968419"><ele>33.6</ele><time>2021-03-19T10:24:55Z</time><name>PT3671</name></trkpt>
<trkpt lat="52.948064" lon="05.968424"><ele>33.6</ele><time>2021-03-19T10:24:56Z</time><name>PT3672</name></trkpt>
<trkpt lat="52.948052" lon="05.968430"><ele>33.6</ele><time>2021-03-19T10:24:57Z</time><name>PT3673</name></trkpt>
<trkpt lat="52.948040" lon="05.968432"><ele>33.6</ele><time>2021-03-19T10:24:58Z</time><name>PT3674</name></trkpt>
<trkpt lat="52.948029" lon="05.968438"><ele>33.5</ele><time>2021-03-19T10:24:59Z</time><name>PT3675</name></trkpt>
<trkpt lat="52.948021" lon="05.968440"><ele>33.6</ele><time>2021-03-19T10:25:00Z</time><name>PT3676</name></trkpt>
<trkpt lat="52.948010" lon="05.968438"><ele>33.5</ele><time>2021-03-19T10:25:01Z</time><name>PT3677</name></trkpt>
<trkpt lat="52.947995" lon="05.968437"><ele>33.7</ele><time>2021-03-19T10:25:02Z</time><name>PT3678</name></trkpt>
<trkpt lat="52.947985" lon="05.968434"><ele>33.7</ele><time>2021-03-19T10:25:03Z</time><name>PT3679</name></trkpt>
<trkpt lat="52.947973" lon="05.968428"><ele>33.7</ele><time>2021-03-19T10:25:04Z</time><name>PT3680</name></trkpt>
<trkpt lat="52.947963" lon="05.968425"><ele>33.8</ele><time>2021-03-19T10:25:05Z</time><name>PT3681</name></trkpt>
<trkpt lat="52.947956" lon="05.968422"><ele>33.8</ele><time>2021-03-19T10:25:06Z</time><name>PT3682</name></trkpt>
<trkpt lat="52.947947" lon="05.968416"><ele>33.7</ele><time>2021-03-19T10:25:07Z</time><name>PT3683</name></trkpt>
<trkpt lat="52.947938" lon="05.968412"><ele>33.6</ele><time>2021-03-19T10:25:08Z</time><name>PT3684</name></trkpt>
<trkpt lat="52.947928" lon="05.968413"><ele>33.6</ele><time>2021-03-19T10:25:09Z</time><name>PT3685</name></trkpt>
<trkpt lat="52.947918" lon="05.968407"><ele>33.6</ele><time>2021-03-19T10:25:10Z</time><name>PT3686</name></trkpt>
<trkpt lat="52.947908" lon="05.968404"><ele>33.6</ele><time>2021-03-19T10:25:11Z</time><name>PT3687</name></trkpt>
<trkpt lat="52.947900" lon="05.968401"><ele>33.6</ele><time>2021-03-19T10:25:12Z</time><name>PT3688</name></trkpt>
<trkpt lat="52.947894" lon="05.968397"><ele>33.6</ele><time>2021-03-19T10:25:13Z</time><name>PT3689</name></trkpt>
<trkpt lat="52.947891" lon="05.968396"><ele>33.6</ele><time>2021-03-19T10:25:14Z</time><name>PT3690</name></trkpt>
<trkpt lat="52.947889" lon="05.968393"><ele>33.6</ele><time>2021-03-19T10:25:15Z</time><name>PT3691</name></trkpt>
<trkpt lat="52.947887" lon="05.968391"><ele>33.5</ele><time>2021-03-19T10:25:16Z</time><name>PT3692</name></trkpt>
<trkpt lat="52.947880" lon="05.968388"><ele>33.7</ele><time>2021-03-19T10:25:20Z</time><name>PT3693</name></trkpt>
<trkpt lat="52.947871" lon="05.968381"><ele>33.6</ele><time>2021-03-19T10:25:21Z</time><name>PT3694</name></trkpt>
<trkpt lat="52.947866" lon="05.968377"><ele>33.6</ele><time>2021-03-19T10:25:22Z</time><name>PT3695</name></trkpt>
<trkpt lat="52.947858" lon="05.968375"><ele>33.3</ele><time>2021-03-19T10:25:23Z</time><name>PT3696</name></trkpt>
<trkpt lat="52.947849" lon="05.968371"><ele>33.3</ele><time>2021-03-19T10:25:24Z</time><name>PT3697</name></trkpt>
<trkpt lat="52.947838" lon="05.968362"><ele>33.2</ele><time>2021-03-19T10:25:25Z</time><name>PT3698</name></trkpt>
<trkpt lat="52.947831" lon="05.968352"><ele>33.4</ele><time>2021-03-19T10:25:26Z</time><name>PT3699</name></trkpt>
<trkpt lat="52.947819" lon="05.968346"><ele>33.4</ele><time>2021-03-19T10:25:27Z</time><name>PT3700</name></trkpt>
<trkpt lat="52.947808" lon="05.968341"><ele>33.5</ele><time>2021-03-19T10:25:28Z</time><name>PT3701</name></trkpt>
<trkpt lat="52.947799" lon="05.968332"><ele>33.4</ele><time>2021-03-19T10:25:29Z</time><name>PT3702</name></trkpt>
<trkpt lat="52.947792" lon="05.968325"><ele>33.4</ele><time>2021-03-19T10:25:30Z</time><name>PT3703</name></trkpt>
<trkpt lat="52.947787" lon="05.968310"><ele>33.3</ele><time>2021-03-19T10:25:31Z</time><name>PT3704</name></trkpt>
<trkpt lat="52.947777" lon="05.968304"><ele>33.2</ele><time>2021-03-19T10:25:32Z</time><name>PT3705</name></trkpt>
<trkpt lat="52.947767" lon="05.968298"><ele>33.3</ele><time>2021-03-19T10:25:33Z</time><name>PT3706</name></trkpt>
<trkpt lat="52.947762" lon="05.968289"><ele>33.4</ele><time>2021-03-19T10:25:34Z</time><name>PT3707</name></trkpt>
<trkpt lat="52.947753" lon="05.968282"><ele>33.4</ele><time>2021-03-19T10:25:35Z</time><name>PT3708</name></trkpt>
<trkpt lat="52.947742" lon="05.968280"><ele>33.4</ele><time>2021-03-19T10:25:36Z</time><name>PT3709</name></trkpt>
<trkpt lat="52.947734" lon="05.968276"><ele>33.4</ele><time>2021-03-19T10:25:37Z</time><name>PT3710</name></trkpt>
<trkpt lat="52.947724" lon="05.968274"><ele>33.4</ele><time>2021-03-19T10:25:38Z</time><name>PT3711</name></trkpt>
<trkpt lat="52.947715" lon="05.968272"><ele>33.2</ele><time>2021-03-19T10:25:39Z</time><name>PT3712</name></trkpt>
<trkpt lat="52.947704" lon="05.968269"><ele>33.5</ele><time>2021-03-19T10:25:40Z</time><name>PT3713</name></trkpt>
<trkpt lat="52.947695" lon="05.968264"><ele>33.4</ele><time>2021-03-19T10:25:41Z</time><name>PT3714</name></trkpt>
<trkpt lat="52.947686" lon="05.968259"><ele>33.3</ele><time>2021-03-19T10:25:42Z</time><name>PT3715</name></trkpt>
<trkpt lat="52.947676" lon="05.968252"><ele>33.1</ele><time>2021-03-19T10:25:43Z</time><name>PT3716</name></trkpt>
<trkpt lat="52.947664" lon="05.968244"><ele>33.1</ele><time>2021-03-19T10:25:44Z</time><name>PT3717</name></trkpt>
<trkpt lat="52.947654" lon="05.968239"><ele>33.2</ele><time>2021-03-19T10:25:45Z</time><name>PT3718</name></trkpt>
<trkpt lat="52.947645" lon="05.968234"><ele>33.3</ele><time>2021-03-19T10:25:46Z</time><name>PT3719</name></trkpt>
<trkpt lat="52.947636" lon="05.968224"><ele>33.6</ele><time>2021-03-19T10:25:47Z</time><name>PT3720</name></trkpt>
<trkpt lat="52.947627" lon="05.968220"><ele>33.4</ele><time>2021-03-19T10:25:48Z</time><name>PT3721</name></trkpt>
<trkpt lat="52.947616" lon="05.968214"><ele>33.4</ele><time>2021-03-19T10:25:49Z</time><name>PT3722</name></trkpt>
<trkpt lat="52.947607" lon="05.968207"><ele>33.2</ele><time>2021-03-19T10:25:50Z</time><name>PT3723</name></trkpt>
<trkpt lat="52.947592" lon="05.968202"><ele>33.3</ele><time>2021-03-19T10:25:51Z</time><name>PT3724</name></trkpt>
<trkpt lat="52.947580" lon="05.968195"><ele>33.3</ele><time>2021-03-19T10:25:52Z</time><name>PT3725</name></trkpt>
<trkpt lat="52.947568" lon="05.968190"><ele>33.4</ele><time>2021-03-19T10:25:53Z</time><name>PT3726</name></trkpt>
<trkpt lat="52.947556" lon="05.968187"><ele>33.4</ele><time>2021-03-19T10:25:54Z</time><name>PT3727</name></trkpt>
<trkpt lat="52.947546" lon="05.968177"><ele>33.2</ele><time>2021-03-19T10:25:55Z</time><name>PT3728</name></trkpt>
<trkpt lat="52.947535" lon="05.968169"><ele>33.2</ele><time>2021-03-19T10:25:56Z</time><name>PT3729</name></trkpt>
<trkpt lat="52.947527" lon="05.968169"><ele>33.1</ele><time>2021-03-19T10:25:57Z</time><name>PT3730</name></trkpt>
<trkpt lat="52.947517" lon="05.968166"><ele>33.1</ele><time>2021-03-19T10:25:58Z</time><name>PT3731</name></trkpt>
<trkpt lat="52.947507" lon="05.968155"><ele>33.3</ele><time>2021-03-19T10:25:59Z</time><name>PT3732</name></trkpt>
<trkpt lat="52.947498" lon="05.968148"><ele>33.3</ele><time>2021-03-19T10:26:00Z</time><name>PT3733</name></trkpt>
<trkpt lat="52.947484" lon="05.968141"><ele>33.2</ele><time>2021-03-19T10:26:01Z</time><name>PT3734</name></trkpt>
<trkpt lat="52.947470" lon="05.968135"><ele>33.1</ele><time>2021-03-19T10:26:02Z</time><name>PT3735</name></trkpt>
<trkpt lat="52.947460" lon="05.968131"><ele>33.1</ele><time>2021-03-19T10:26:03Z</time><name>PT3736</name></trkpt>
<trkpt lat="52.947449" lon="05.968128"><ele>33.1</ele><time>2021-03-19T10:26:04Z</time><name>PT3737</name></trkpt>
<trkpt lat="52.947438" lon="05.968123"><ele>33.3</ele><time>2021-03-19T10:26:05Z</time><name>PT3738</name></trkpt>
<trkpt lat="52.947426" lon="05.968116"><ele>33.4</ele><time>2021-03-19T10:26:06Z</time><name>PT3739</name></trkpt>
<trkpt lat="52.947415" lon="05.968107"><ele>33.4</ele><time>2021-03-19T10:26:07Z</time><name>PT3740</name></trkpt>
<trkpt lat="52.947405" lon="05.968100"><ele>33.3</ele><time>2021-03-19T10:26:08Z</time><name>PT3741</name></trkpt>
<trkpt lat="52.947394" lon="05.968093"><ele>33.3</ele><time>2021-03-19T10:26:09Z</time><name>PT3742</name></trkpt>
<trkpt lat="52.947380" lon="05.968090"><ele>33.3</ele><time>2021-03-19T10:26:10Z</time><name>PT3743</name></trkpt>
<trkpt lat="52.947369" lon="05.968086"><ele>33.4</ele><time>2021-03-19T10:26:11Z</time><name>PT3744</name></trkpt>
<trkpt lat="52.947358" lon="05.968081"><ele>33.4</ele><time>2021-03-19T10:26:12Z</time><name>PT3745</name></trkpt>
<trkpt lat="52.947348" lon="05.968073"><ele>33.4</ele><time>2021-03-19T10:26:13Z</time><name>PT3746</name></trkpt>
<trkpt lat="52.947339" lon="05.968069"><ele>33.3</ele><time>2021-03-19T10:26:14Z</time><name>PT3747</name></trkpt>
<trkpt lat="52.947326" lon="05.968051"><ele>33.3</ele><time>2021-03-19T10:26:15Z</time><name>PT3748</name></trkpt>
<trkpt lat="52.947313" lon="05.968049"><ele>33.3</ele><time>2021-03-19T10:26:16Z</time><name>PT3749</name></trkpt>
<trkpt lat="52.947303" lon="05.968043"><ele>33.3</ele><time>2021-03-19T10:26:17Z</time><name>PT3750</name></trkpt>
<trkpt lat="52.947291" lon="05.968037"><ele>33.3</ele><time>2021-03-19T10:26:18Z</time><name>PT3751</name></trkpt>
<trkpt lat="52.947280" lon="05.968030"><ele>33.2</ele><time>2021-03-19T10:26:19Z</time><name>PT3752</name></trkpt>
<trkpt lat="52.947269" lon="05.968027"><ele>33.2</ele><time>2021-03-19T10:26:20Z</time><name>PT3753</name></trkpt>
<trkpt lat="52.947259" lon="05.968021"><ele>33.2</ele><time>2021-03-19T10:26:21Z</time><name>PT3754</name></trkpt>
<trkpt lat="52.947248" lon="05.968019"><ele>33.1</ele><time>2021-03-19T10:26:22Z</time><name>PT3755</name></trkpt>
<trkpt lat="52.947235" lon="05.968013"><ele>33.2</ele><time>2021-03-19T10:26:23Z</time><name>PT3756</name></trkpt>
<trkpt lat="52.947225" lon="05.968004"><ele>33.1</ele><time>2021-03-19T10:26:24Z</time><name>PT3757</name></trkpt>
<trkpt lat="52.947218" lon="05.967997"><ele>33.4</ele><time>2021-03-19T10:26:25Z</time><name>PT3758</name></trkpt>
<trkpt lat="52.947209" lon="05.967985"><ele>33.6</ele><time>2021-03-19T10:26:26Z</time><name>PT3759</name></trkpt>
<trkpt lat="52.947200" lon="05.967982"><ele>33.5</ele><time>2021-03-19T10:26:27Z</time><name>PT3760</name></trkpt>
<trkpt lat="52.947190" lon="05.967976"><ele>33.7</ele><time>2021-03-19T10:26:28Z</time><name>PT3761</name></trkpt>
<trkpt lat="52.947176" lon="05.967972"><ele>33.7</ele><time>2021-03-19T10:26:29Z</time><name>PT3762</name></trkpt>
<trkpt lat="52.947166" lon="05.967972"><ele>33.7</ele><time>2021-03-19T10:26:30Z</time><name>PT3763</name></trkpt>
<trkpt lat="52.947158" lon="05.967972"><ele>33.8</ele><time>2021-03-19T10:26:31Z</time><name>PT3764</name></trkpt>
<trkpt lat="52.947149" lon="05.967969"><ele>33.8</ele><time>2021-03-19T10:26:32Z</time><name>PT3765</name></trkpt>
<trkpt lat="52.947142" lon="05.967966"><ele>33.6</ele><time>2021-03-19T10:26:33Z</time><name>PT3766</name></trkpt>
<trkpt lat="52.947134" lon="05.967965"><ele>33.5</ele><time>2021-03-19T10:26:34Z</time><name>PT3767</name></trkpt>
<trkpt lat="52.947125" lon="05.967957"><ele>33.6</ele><time>2021-03-19T10:26:35Z</time><name>PT3768</name></trkpt>
<trkpt lat="52.947116" lon="05.967947"><ele>33.6</ele><time>2021-03-19T10:26:36Z</time><name>PT3769</name></trkpt>
<trkpt lat="52.947107" lon="05.967941"><ele>33.6</ele><time>2021-03-19T10:26:37Z</time><name>PT3770</name></trkpt>
<trkpt lat="52.947090" lon="05.967927"><ele>33.6</ele><time>2021-03-19T10:26:38Z</time><name>PT3771</name></trkpt>
<trkpt lat="52.947081" lon="05.967923"><ele>33.8</ele><time>2021-03-19T10:26:39Z</time><name>PT3772</name></trkpt>
<trkpt lat="52.947074" lon="05.967918"><ele>33.8</ele><time>2021-03-19T10:26:40Z</time><name>PT3773</name></trkpt>
<trkpt lat="52.947067" lon="05.967913"><ele>33.8</ele><time>2021-03-19T10:26:41Z</time><name>PT3774</name></trkpt>
<trkpt lat="52.947057" lon="05.967908"><ele>33.8</ele><time>2021-03-19T10:26:42Z</time><name>PT3775</name></trkpt>
<trkpt lat="52.947048" lon="05.967902"><ele>33.6</ele><time>2021-03-19T10:26:43Z</time><name>PT3776</name></trkpt>
<trkpt lat="52.947040" lon="05.967899"><ele>33.4</ele><time>2021-03-19T10:26:44Z</time><name>PT3777</name></trkpt>
<trkpt lat="52.947029" lon="05.967891"><ele>33.4</ele><time>2021-03-19T10:26:45Z</time><name>PT3778</name></trkpt>
<trkpt lat="52.947018" lon="05.967891"><ele>33.2</ele><time>2021-03-19T10:26:46Z</time><name>PT3779</name></trkpt>
<trkpt lat="52.947006" lon="05.967880"><ele>33.5</ele><time>2021-03-19T10:26:47Z</time><name>PT3780</name></trkpt>
<trkpt lat="52.946995" lon="05.967876"><ele>33.5</ele><time>2021-03-19T10:26:48Z</time><name>PT3781</name></trkpt>
<trkpt lat="52.946986" lon="05.967868"><ele>33.7</ele><time>2021-03-19T10:26:49Z</time><name>PT3782</name></trkpt>
<trkpt lat="52.946977" lon="05.967862"><ele>33.9</ele><time>2021-03-19T10:26:50Z</time><name>PT3783</name></trkpt>
<trkpt lat="52.946968" lon="05.967853"><ele>33.9</ele><time>2021-03-19T10:26:51Z</time><name>PT3784</name></trkpt>
<trkpt lat="52.946960" lon="05.967843"><ele>33.8</ele><time>2021-03-19T10:26:52Z</time><name>PT3785</name></trkpt>
<trkpt lat="52.946949" lon="05.967837"><ele>33.6</ele><time>2021-03-19T10:26:53Z</time><name>PT3786</name></trkpt>
<trkpt lat="52.946936" lon="05.967831"><ele>33.6</ele><time>2021-03-19T10:26:54Z</time><name>PT3787</name></trkpt>
<trkpt lat="52.946924" lon="05.967826"><ele>33.6</ele><time>2021-03-19T10:26:55Z</time><name>PT3788</name></trkpt>
<trkpt lat="52.946915" lon="05.967822"><ele>33.6</ele><time>2021-03-19T10:26:56Z</time><name>PT3789</name></trkpt>
<trkpt lat="52.946900" lon="05.967807"><ele>33.6</ele><time>2021-03-19T10:26:57Z</time><name>PT3790</name></trkpt>
<trkpt lat="52.946890" lon="05.967797"><ele>33.6</ele><time>2021-03-19T10:26:58Z</time><name>PT3791</name></trkpt>
<trkpt lat="52.946880" lon="05.967789"><ele>33.4</ele><time>2021-03-19T10:26:59Z</time><name>PT3792</name></trkpt>
<trkpt lat="52.946868" lon="05.967780"><ele>33.6</ele><time>2021-03-19T10:27:00Z</time><name>PT3793</name></trkpt>
<trkpt lat="52.946857" lon="05.967772"><ele>33.6</ele><time>2021-03-19T10:27:01Z</time><name>PT3794</name></trkpt>
<trkpt lat="52.946845" lon="05.967768"><ele>33.6</ele><time>2021-03-19T10:27:02Z</time><name>PT3795</name></trkpt>
<trkpt lat="52.946834" lon="05.967759"><ele>33.6</ele><time>2021-03-19T10:27:03Z</time><name>PT3796</name></trkpt>
<trkpt lat="52.946824" lon="05.967749"><ele>33.5</ele><time>2021-03-19T10:27:04Z</time><name>PT3797</name></trkpt>
<trkpt lat="52.946813" lon="05.967741"><ele>33.3</ele><time>2021-03-19T10:27:05Z</time><name>PT3798</name></trkpt>
<trkpt lat="52.946802" lon="05.967733"><ele>33.3</ele><time>2021-03-19T10:27:06Z</time><name>PT3799</name></trkpt>
<trkpt lat="52.946792" lon="05.967724"><ele>33.2</ele><time>2021-03-19T10:27:07Z</time><name>PT3800</name></trkpt>
<trkpt lat="52.946782" lon="05.967717"><ele>33.2</ele><time>2021-03-19T10:27:08Z</time><name>PT3801</name></trkpt>
<trkpt lat="52.946769" lon="05.967712"><ele>33.1</ele><time>2021-03-19T10:27:09Z</time><name>PT3802</name></trkpt>
<trkpt lat="52.946758" lon="05.967703"><ele>33.2</ele><time>2021-03-19T10:27:10Z</time><name>PT3803</name></trkpt>
<trkpt lat="52.946745" lon="05.967698"><ele>33.1</ele><time>2021-03-19T10:27:11Z</time><name>PT3804</name></trkpt>
<trkpt lat="52.946735" lon="05.967697"><ele>33.2</ele><time>2021-03-19T10:27:12Z</time><name>PT3805</name></trkpt>
<trkpt lat="52.946723" lon="05.967691"><ele>33.4</ele><time>2021-03-19T10:27:13Z</time><name>PT3806</name></trkpt>
<trkpt lat="52.946711" lon="05.967681"><ele>33.3</ele><time>2021-03-19T10:27:14Z</time><name>PT3807</name></trkpt>
<trkpt lat="52.946700" lon="05.967673"><ele>33.3</ele><time>2021-03-19T10:27:15Z</time><name>PT3808</name></trkpt>
<trkpt lat="52.946690" lon="05.967668"><ele>33.2</ele><time>2021-03-19T10:27:16Z</time><name>PT3809</name></trkpt>
<trkpt lat="52.946684" lon="05.967668"><ele>33.2</ele><time>2021-03-19T10:27:17Z</time><name>PT3810</name></trkpt>
<trkpt lat="52.946676" lon="05.967669"><ele>33.2</ele><time>2021-03-19T10:27:18Z</time><name>PT3811</name></trkpt>
<trkpt lat="52.946671" lon="05.967669"><ele>33.2</ele><time>2021-03-19T10:27:19Z</time><name>PT3812</name></trkpt>
<trkpt lat="52.946664" lon="05.967662"><ele>33.4</ele><time>2021-03-19T10:27:20Z</time><name>PT3813</name></trkpt>
<trkpt lat="52.946654" lon="05.967654"><ele>33.5</ele><time>2021-03-19T10:27:21Z</time><name>PT3814</name></trkpt>
<trkpt lat="52.946641" lon="05.967639"><ele>33.5</ele><time>2021-03-19T10:27:22Z</time><name>PT3815</name></trkpt>
<trkpt lat="52.946621" lon="05.967632"><ele>33.6</ele><time>2021-03-19T10:27:23Z</time><name>PT3816</name></trkpt>
<trkpt lat="52.946604" lon="05.967621"><ele>33.5</ele><time>2021-03-19T10:27:24Z</time><name>PT3817</name></trkpt>
<trkpt lat="52.946590" lon="05.967616"><ele>33.4</ele><time>2021-03-19T10:27:25Z</time><name>PT3818</name></trkpt>
<trkpt lat="52.946577" lon="05.967610"><ele>33.6</ele><time>2021-03-19T10:27:26Z</time><name>PT3819</name></trkpt>
<trkpt lat="52.946568" lon="05.967604"><ele>33.5</ele><time>2021-03-19T10:27:27Z</time><name>PT3820</name></trkpt>
<trkpt lat="52.946558" lon="05.967597"><ele>33.5</ele><time>2021-03-19T10:27:28Z</time><name>PT3821</name></trkpt>
<trkpt lat="52.946548" lon="05.967590"><ele>33.6</ele><time>2021-03-19T10:27:29Z</time><name>PT3822</name></trkpt>
<trkpt lat="52.946538" lon="05.967583"><ele>33.4</ele><time>2021-03-19T10:27:30Z</time><name>PT3823</name></trkpt>
<trkpt lat="52.946528" lon="05.967572"><ele>33.6</ele><time>2021-03-19T10:27:31Z</time><name>PT3824</name></trkpt>
<trkpt lat="52.946519" lon="05.967566"><ele>33.6</ele><time>2021-03-19T10:27:32Z</time><name>PT3825</name></trkpt>
<trkpt lat="52.946511" lon="05.967562"><ele>33.7</ele><time>2021-03-19T10:27:33Z</time><name>PT3826</name></trkpt>
<trkpt lat="52.946501" lon="05.967558"><ele>33.7</ele><time>2021-03-19T10:27:34Z</time><name>PT3827</name></trkpt>
<trkpt lat="52.946490" lon="05.967551"><ele>33.6</ele><time>2021-03-19T10:27:35Z</time><name>PT3828</name></trkpt>
<trkpt lat="52.946480" lon="05.967546"><ele>33.6</ele><time>2021-03-19T10:27:36Z</time><name>PT3829</name></trkpt>
<trkpt lat="52.946469" lon="05.967538"><ele>33.6</ele><time>2021-03-19T10:27:37Z</time><name>PT3830</name></trkpt>
<trkpt lat="52.946458" lon="05.967528"><ele>33.5</ele><time>2021-03-19T10:27:38Z</time><name>PT3831</name></trkpt>
<trkpt lat="52.946448" lon="05.967521"><ele>33.5</ele><time>2021-03-19T10:27:39Z</time><name>PT3832</name></trkpt>
<trkpt lat="52.946438" lon="05.967521"><ele>33.5</ele><time>2021-03-19T10:27:40Z</time><name>PT3833</name></trkpt>
<trkpt lat="52.946428" lon="05.967520"><ele>33.5</ele><time>2021-03-19T10:27:41Z</time><name>PT3834</name></trkpt>
<trkpt lat="52.946419" lon="05.967514"><ele>33.5</ele><time>2021-03-19T10:27:42Z</time><name>PT3835</name></trkpt>
<trkpt lat="52.946408" lon="05.967509"><ele>33.4</ele><time>2021-03-19T10:27:43Z</time><name>PT3836</name></trkpt>
<trkpt lat="52.946397" lon="05.967500"><ele>33.5</ele><time>2021-03-19T10:27:44Z</time><name>PT3837</name></trkpt>
<trkpt lat="52.946387" lon="05.967493"><ele>33.4</ele><time>2021-03-19T10:27:45Z</time><name>PT3838</name></trkpt>
<trkpt lat="52.946379" lon="05.967489"><ele>33.4</ele><time>2021-03-19T10:27:46Z</time><name>PT3839</name></trkpt>
<trkpt lat="52.946378" lon="05.967487"><ele>33.4</ele><time>2021-03-19T10:27:47Z</time><name>PT3840</name></trkpt>
<trkpt lat="52.946378" lon="05.967488"><ele>33.4</ele><time>2021-03-19T10:27:48Z</time><name>PT3841</name></trkpt>
<trkpt lat="52.946369" lon="05.967485"><ele>33.4</ele><time>2021-03-19T10:27:49Z</time><name>PT3842</name></trkpt>
<trkpt lat="52.946360" lon="05.967481"><ele>33.5</ele><time>2021-03-19T10:27:50Z</time><name>PT3843</name></trkpt>
<trkpt lat="52.946349" lon="05.967480"><ele>33.3</ele><time>2021-03-19T10:27:51Z</time><name>PT3844</name></trkpt>
<trkpt lat="52.946337" lon="05.967475"><ele>33.3</ele><time>2021-03-19T10:27:52Z</time><name>PT3845</name></trkpt>
<trkpt lat="52.946324" lon="05.967471"><ele>33.3</ele><time>2021-03-19T10:27:53Z</time><name>PT3846</name></trkpt>
<trkpt lat="52.946312" lon="05.967462"><ele>33.4</ele><time>2021-03-19T10:27:54Z</time><name>PT3847</name></trkpt>
<trkpt lat="52.946298" lon="05.967452"><ele>33.5</ele><time>2021-03-19T10:27:55Z</time><name>PT3848</name></trkpt>
<trkpt lat="52.946283" lon="05.967442"><ele>33.5</ele><time>2021-03-19T10:27:56Z</time><name>PT3849</name></trkpt>
<trkpt lat="52.946271" lon="05.967431"><ele>33.4</ele><time>2021-03-19T10:27:57Z</time><name>PT3850</name></trkpt>
<trkpt lat="52.946260" lon="05.967421"><ele>33.6</ele><time>2021-03-19T10:27:58Z</time><name>PT3851</name></trkpt>
<trkpt lat="52.946251" lon="05.967415"><ele>33.7</ele><time>2021-03-19T10:27:59Z</time><name>PT3852</name></trkpt>
<trkpt lat="52.946242" lon="05.967407"><ele>33.8</ele><time>2021-03-19T10:28:00Z</time><name>PT3853</name></trkpt>
<trkpt lat="52.946233" lon="05.967400"><ele>33.8</ele><time>2021-03-19T10:28:01Z</time><name>PT3854</name></trkpt>
<trkpt lat="52.946223" lon="05.967398"><ele>33.7</ele><time>2021-03-19T10:28:02Z</time><name>PT3855</name></trkpt>
<trkpt lat="52.946213" lon="05.967399"><ele>33.6</ele><time>2021-03-19T10:28:03Z</time><name>PT3856</name></trkpt>
<trkpt lat="52.946202" lon="05.967391"><ele>33.6</ele><time>2021-03-19T10:28:04Z</time><name>PT3857</name></trkpt>
<trkpt lat="52.946191" lon="05.967385"><ele>33.6</ele><time>2021-03-19T10:28:05Z</time><name>PT3858</name></trkpt>
<trkpt lat="52.946183" lon="05.967382"><ele>33.6</ele><time>2021-03-19T10:28:06Z</time><name>PT3859</name></trkpt>
<trkpt lat="52.946169" lon="05.967377"><ele>33.6</ele><time>2021-03-19T10:28:07Z</time><name>PT3860</name></trkpt>
<trkpt lat="52.946156" lon="05.967371"><ele>33.7</ele><time>2021-03-19T10:28:08Z</time><name>PT3861</name></trkpt>
<trkpt lat="52.946145" lon="05.967362"><ele>33.7</ele><time>2021-03-19T10:28:09Z</time><name>PT3862</name></trkpt>
<trkpt lat="52.946134" lon="05.967354"><ele>33.8</ele><time>2021-03-19T10:28:10Z</time><name>PT3863</name></trkpt>
<trkpt lat="52.946126" lon="05.967350"><ele>33.9</ele><time>2021-03-19T10:28:11Z</time><name>PT3864</name></trkpt>
<trkpt lat="52.946116" lon="05.967347"><ele>33.9</ele><time>2021-03-19T10:28:12Z</time><name>PT3865</name></trkpt>
<trkpt lat="52.946109" lon="05.967346"><ele>34</ele><time>2021-03-19T10:28:13Z</time><name>PT3866</name></trkpt>
<trkpt lat="52.946096" lon="05.967339"><ele>34</ele><time>2021-03-19T10:28:14Z</time><name>PT3867</name></trkpt>
<trkpt lat="52.946089" lon="05.967335"><ele>34</ele><time>2021-03-19T10:28:15Z</time><name>PT3868</name></trkpt>
<trkpt lat="52.946078" lon="05.967329"><ele>34</ele><time>2021-03-19T10:28:16Z</time><name>PT3869</name></trkpt>
<trkpt lat="52.946067" lon="05.967320"><ele>33.8</ele><time>2021-03-19T10:28:17Z</time><name>PT3870</name></trkpt>
<trkpt lat="52.946057" lon="05.967311"><ele>33.8</ele><time>2021-03-19T10:28:18Z</time><name>PT3871</name></trkpt>
<trkpt lat="52.946046" lon="05.967304"><ele>33.8</ele><time>2021-03-19T10:28:19Z</time><name>PT3872</name></trkpt>
<trkpt lat="52.946034" lon="05.967295"><ele>33.9</ele><time>2021-03-19T10:28:20Z</time><name>PT3873</name></trkpt>
<trkpt lat="52.946024" lon="05.967288"><ele>33.9</ele><time>2021-03-19T10:28:21Z</time><name>PT3874</name></trkpt>
<trkpt lat="52.946015" lon="05.967281"><ele>33.8</ele><time>2021-03-19T10:28:22Z</time><name>PT3875</name></trkpt>
<trkpt lat="52.946004" lon="05.967273"><ele>33.7</ele><time>2021-03-19T10:28:23Z</time><name>PT3876</name></trkpt>
<trkpt lat="52.945993" lon="05.967261"><ele>33.7</ele><time>2021-03-19T10:28:24Z</time><name>PT3877</name></trkpt>
<trkpt lat="52.945981" lon="05.967247"><ele>33.7</ele><time>2021-03-19T10:28:25Z</time><name>PT3878</name></trkpt>
<trkpt lat="52.945971" lon="05.967241"><ele>33.7</ele><time>2021-03-19T10:28:26Z</time><name>PT3879</name></trkpt>
<trkpt lat="52.945961" lon="05.967234"><ele>33.7</ele><time>2021-03-19T10:28:27Z</time><name>PT3880</name></trkpt>
<trkpt lat="52.945950" lon="05.967230"><ele>33.7</ele><time>2021-03-19T10:28:28Z</time><name>PT3881</name></trkpt>
<trkpt lat="52.945940" lon="05.967226"><ele>33.7</ele><time>2021-03-19T10:28:29Z</time><name>PT3882</name></trkpt>
<trkpt lat="52.945926" lon="05.967221"><ele>33.6</ele><time>2021-03-19T10:28:30Z</time><name>PT3883</name></trkpt>
<trkpt lat="52.945920" lon="05.967217"><ele>33.7</ele><time>2021-03-19T10:28:31Z</time><name>PT3884</name></trkpt>
<trkpt lat="52.945912" lon="05.967215"><ele>33.8</ele><time>2021-03-19T10:28:32Z</time><name>PT3885</name></trkpt>
<trkpt lat="52.945902" lon="05.967212"><ele>33.7</ele><time>2021-03-19T10:28:33Z</time><name>PT3886</name></trkpt>
<trkpt lat="52.945893" lon="05.967205"><ele>33.7</ele><time>2021-03-19T10:28:34Z</time><name>PT3887</name></trkpt>
<trkpt lat="52.945881" lon="05.967198"><ele>33.7</ele><time>2021-03-19T10:28:35Z</time><name>PT3888</name></trkpt>
<trkpt lat="52.945869" lon="05.967195"><ele>33.8</ele><time>2021-03-19T10:28:36Z</time><name>PT3889</name></trkpt>
<trkpt lat="52.945856" lon="05.967188"><ele>33.8</ele><time>2021-03-19T10:28:37Z</time><name>PT3890</name></trkpt>
<trkpt lat="52.945844" lon="05.967180"><ele>33.9</ele><time>2021-03-19T10:28:38Z</time><name>PT3891</name></trkpt>
<trkpt lat="52.945827" lon="05.967171"><ele>33.8</ele><time>2021-03-19T10:28:39Z</time><name>PT3892</name></trkpt>
<trkpt lat="52.945818" lon="05.967165"><ele>33.8</ele><time>2021-03-19T10:28:40Z</time><name>PT3893</name></trkpt>
<trkpt lat="52.945805" lon="05.967159"><ele>33.8</ele><time>2021-03-19T10:28:41Z</time><name>PT3894</name></trkpt>
<trkpt lat="52.945798" lon="05.967153"><ele>33.8</ele><time>2021-03-19T10:28:42Z</time><name>PT3895</name></trkpt>
<trkpt lat="52.945786" lon="05.967144"><ele>33.9</ele><time>2021-03-19T10:28:43Z</time><name>PT3896</name></trkpt>
<trkpt lat="52.945778" lon="05.967139"><ele>34</ele><time>2021-03-19T10:28:44Z</time><name>PT3897</name></trkpt>
<trkpt lat="52.945768" lon="05.967141"><ele>34</ele><time>2021-03-19T10:28:45Z</time><name>PT3898</name></trkpt>
<trkpt lat="52.945755" lon="05.967140"><ele>34</ele><time>2021-03-19T10:28:46Z</time><name>PT3899</name></trkpt>
<trkpt lat="52.945741" lon="05.967134"><ele>34.1</ele><time>2021-03-19T10:28:47Z</time><name>PT3900</name></trkpt>
<trkpt lat="52.945731" lon="05.967129"><ele>34.2</ele><time>2021-03-19T10:28:48Z</time><name>PT3901</name></trkpt>
<trkpt lat="52.945717" lon="05.967124"><ele>34.1</ele><time>2021-03-19T10:28:49Z</time><name>PT3902</name></trkpt>
<trkpt lat="52.945701" lon="05.967116"><ele>34.2</ele><time>2021-03-19T10:28:50Z</time><name>PT3903</name></trkpt>
<trkpt lat="52.945691" lon="05.967108"><ele>34.2</ele><time>2021-03-19T10:28:51Z</time><name>PT3904</name></trkpt>
<trkpt lat="52.945680" lon="05.967099"><ele>34.3</ele><time>2021-03-19T10:28:52Z</time><name>PT3905</name></trkpt>
<trkpt lat="52.945669" lon="05.967089"><ele>34.2</ele><time>2021-03-19T10:28:53Z</time><name>PT3906</name></trkpt>
<trkpt lat="52.945655" lon="05.967080"><ele>34.3</ele><time>2021-03-19T10:28:54Z</time><name>PT3907</name></trkpt>
<trkpt lat="52.945644" lon="05.967075"><ele>34.2</ele><time>2021-03-19T10:28:55Z</time><name>PT3908</name></trkpt>
<trkpt lat="52.945633" lon="05.967068"><ele>34.1</ele><time>2021-03-19T10:28:56Z</time><name>PT3909</name></trkpt>
<trkpt lat="52.945628" lon="05.967068"><ele>34.1</ele><time>2021-03-19T10:28:57Z</time><name>PT3910</name></trkpt>
<trkpt lat="52.945617" lon="05.967062"><ele>34.4</ele><time>2021-03-19T10:28:58Z</time><name>PT3911</name></trkpt>
<trkpt lat="52.945607" lon="05.967053"><ele>34.4</ele><time>2021-03-19T10:28:59Z</time><name>PT3912</name></trkpt>
<trkpt lat="52.945597" lon="05.967047"><ele>34.4</ele><time>2021-03-19T10:29:00Z</time><name>PT3913</name></trkpt>
<trkpt lat="52.945586" lon="05.967039"><ele>34.3</ele><time>2021-03-19T10:29:01Z</time><name>PT3914</name></trkpt>
<trkpt lat="52.945576" lon="05.967033"><ele>34.1</ele><time>2021-03-19T10:29:02Z</time><name>PT3915</name></trkpt>
<trkpt lat="52.945565" lon="05.967028"><ele>34.1</ele><time>2021-03-19T10:29:03Z</time><name>PT3916</name></trkpt>
<trkpt lat="52.945554" lon="05.967018"><ele>34.1</ele><time>2021-03-19T10:29:04Z</time><name>PT3917</name></trkpt>
<trkpt lat="52.945541" lon="05.967009"><ele>34.1</ele><time>2021-03-19T10:29:05Z</time><name>PT3918</name></trkpt>
<trkpt lat="52.945531" lon="05.966999"><ele>34.2</ele><time>2021-03-19T10:29:06Z</time><name>PT3919</name></trkpt>
<trkpt lat="52.945522" lon="05.966989"><ele>34.1</ele><time>2021-03-19T10:29:07Z</time><name>PT3920</name></trkpt>
<trkpt lat="52.945511" lon="05.966988"><ele>34</ele><time>2021-03-19T10:29:08Z</time><name>PT3921</name></trkpt>
<trkpt lat="52.945500" lon="05.966986"><ele>34.1</ele><time>2021-03-19T10:29:09Z</time><name>PT3922</name></trkpt>
<trkpt lat="52.945488" lon="05.966983"><ele>34.3</ele><time>2021-03-19T10:29:10Z</time><name>PT3923</name></trkpt>
<trkpt lat="52.945477" lon="05.966977"><ele>34.5</ele><time>2021-03-19T10:29:11Z</time><name>PT3924</name></trkpt>
<trkpt lat="52.945466" lon="05.966970"><ele>34.5</ele><time>2021-03-19T10:29:12Z</time><name>PT3925</name></trkpt>
<trkpt lat="52.945459" lon="05.966960"><ele>34.6</ele><time>2021-03-19T10:29:13Z</time><name>PT3926</name></trkpt>
<trkpt lat="52.945447" lon="05.966959"><ele>34.5</ele><time>2021-03-19T10:29:14Z</time><name>PT3927</name></trkpt>
<trkpt lat="52.945438" lon="05.966950"><ele>34.4</ele><time>2021-03-19T10:29:15Z</time><name>PT3928</name></trkpt>
<trkpt lat="52.945429" lon="05.966944"><ele>34.2</ele><time>2021-03-19T10:29:16Z</time><name>PT3929</name></trkpt>
<trkpt lat="52.945421" lon="05.966942"><ele>34.3</ele><time>2021-03-19T10:29:17Z</time><name>PT3930</name></trkpt>
<trkpt lat="52.945410" lon="05.966939"><ele>34.3</ele><time>2021-03-19T10:29:18Z</time><name>PT3931</name></trkpt>
<trkpt lat="52.945402" lon="05.966931"><ele>34.3</ele><time>2021-03-19T10:29:19Z</time><name>PT3932</name></trkpt>
<trkpt lat="52.945394" lon="05.966923"><ele>34.3</ele><time>2021-03-19T10:29:20Z</time><name>PT3933</name></trkpt>
<trkpt lat="52.945384" lon="05.966921"><ele>34.2</ele><time>2021-03-19T10:29:21Z</time><name>PT3934</name></trkpt>
<trkpt lat="52.945373" lon="05.966915"><ele>34.4</ele><time>2021-03-19T10:29:22Z</time><name>PT3935</name></trkpt>
<trkpt lat="52.945362" lon="05.966910"><ele>34.5</ele><time>2021-03-19T10:29:23Z</time><name>PT3936</name></trkpt>
<trkpt lat="52.945353" lon="05.966912"><ele>34.5</ele><time>2021-03-19T10:29:24Z</time><name>PT3937</name></trkpt>
<trkpt lat="52.945343" lon="05.966906"><ele>34.5</ele><time>2021-03-19T10:29:25Z</time><name>PT3938</name></trkpt>
<trkpt lat="52.945331" lon="05.966897"><ele>34.5</ele><time>2021-03-19T10:29:26Z</time><name>PT3939</name></trkpt>
<trkpt lat="52.945320" lon="05.966885"><ele>34.4</ele><time>2021-03-19T10:29:27Z</time><name>PT3940</name></trkpt>
<trkpt lat="52.945313" lon="05.966877"><ele>34.3</ele><time>2021-03-19T10:29:28Z</time><name>PT3941</name></trkpt>
<trkpt lat="52.945306" lon="05.966873"><ele>34.5</ele><time>2021-03-19T10:29:29Z</time><name>PT3942</name></trkpt>
<trkpt lat="52.945303" lon="05.966873"><ele>34.5</ele><time>2021-03-19T10:29:30Z</time><name>PT3943</name></trkpt>
<trkpt lat="52.945295" lon="05.966869"><ele>34.5</ele><time>2021-03-19T10:29:31Z</time><name>PT3944</name></trkpt>
<trkpt lat="52.945285" lon="05.966859"><ele>34.5</ele><time>2021-03-19T10:29:32Z</time><name>PT3945</name></trkpt>
<trkpt lat="52.945275" lon="05.966850"><ele>34.6</ele><time>2021-03-19T10:29:33Z</time><name>PT3946</name></trkpt>
<trkpt lat="52.945265" lon="05.966844"><ele>34.6</ele><time>2021-03-19T10:29:34Z</time><name>PT3947</name></trkpt>
<trkpt lat="52.945254" lon="05.966838"><ele>34.5</ele><time>2021-03-19T10:29:35Z</time><name>PT3948</name></trkpt>
<trkpt lat="52.945244" lon="05.966832"><ele>34.6</ele><time>2021-03-19T10:29:36Z</time><name>PT3949</name></trkpt>
<trkpt lat="52.945234" lon="05.966827"><ele>34.6</ele><time>2021-03-19T10:29:37Z</time><name>PT3950</name></trkpt>
<trkpt lat="52.945225" lon="05.966823"><ele>34.3</ele><time>2021-03-19T10:29:38Z</time><name>PT3951</name></trkpt>
<trkpt lat="52.945213" lon="05.966821"><ele>34.3</ele><time>2021-03-19T10:29:39Z</time><name>PT3952</name></trkpt>
<trkpt lat="52.945203" lon="05.966822"><ele>34.3</ele><time>2021-03-19T10:29:40Z</time><name>PT3953</name></trkpt>
<trkpt lat="52.945193" lon="05.966820"><ele>34.2</ele><time>2021-03-19T10:29:41Z</time><name>PT3954</name></trkpt>
<trkpt lat="52.945182" lon="05.966816"><ele>34.5</ele><time>2021-03-19T10:29:42Z</time><name>PT3955</name></trkpt>
<trkpt lat="52.945171" lon="05.966813"><ele>34.7</ele><time>2021-03-19T10:29:43Z</time><name>PT3956</name></trkpt>
<trkpt lat="52.945161" lon="05.966815"><ele>34.6</ele><time>2021-03-19T10:29:44Z</time><name>PT3957</name></trkpt>
<trkpt lat="52.945152" lon="05.966816"><ele>34.6</ele><time>2021-03-19T10:29:45Z</time><name>PT3958</name></trkpt>
<trkpt lat="52.945143" lon="05.966813"><ele>34.6</ele><time>2021-03-19T10:29:46Z</time><name>PT3959</name></trkpt>
<trkpt lat="52.945134" lon="05.966810"><ele>34.6</ele><time>2021-03-19T10:29:47Z</time><name>PT3960</name></trkpt>
<trkpt lat="52.945124" lon="05.966806"><ele>34.5</ele><time>2021-03-19T10:29:48Z</time><name>PT3961</name></trkpt>
<trkpt lat="52.945114" lon="05.966808"><ele>34.7</ele><time>2021-03-19T10:29:49Z</time><name>PT3962</name></trkpt>
<trkpt lat="52.945107" lon="05.966815"><ele>34.8</ele><time>2021-03-19T10:29:50Z</time><name>PT3963</name></trkpt>
<trkpt lat="52.945099" lon="05.966824"><ele>34.7</ele><time>2021-03-19T10:29:51Z</time><name>PT3964</name></trkpt>
<trkpt lat="52.945090" lon="05.966832"><ele>34.6</ele><time>2021-03-19T10:29:52Z</time><name>PT3965</name></trkpt>
<trkpt lat="52.945079" lon="05.966839"><ele>34.5</ele><time>2021-03-19T10:29:53Z</time><name>PT3966</name></trkpt>
<trkpt lat="52.945065" lon="05.966847"><ele>34.4</ele><time>2021-03-19T10:29:54Z</time><name>PT3967</name></trkpt>
<trkpt lat="52.945053" lon="05.966848"><ele>34.3</ele><time>2021-03-19T10:29:55Z</time><name>PT3968</name></trkpt>
<trkpt lat="52.945044" lon="05.966853"><ele>34.4</ele><time>2021-03-19T10:29:56Z</time><name>PT3969</name></trkpt>
<trkpt lat="52.945031" lon="05.966856"><ele>34.4</ele><time>2021-03-19T10:29:57Z</time><name>PT3970</name></trkpt>
<trkpt lat="52.945023" lon="05.966862"><ele>34.5</ele><time>2021-03-19T10:29:58Z</time><name>PT3971</name></trkpt>
<trkpt lat="52.945016" lon="05.966863"><ele>34.5</ele><time>2021-03-19T10:29:59Z</time><name>PT3972</name></trkpt>
<trkpt lat="52.945010" lon="05.966867"><ele>34.4</ele><time>2021-03-19T10:30:00Z</time><name>PT3973</name></trkpt>
<trkpt lat="52.945005" lon="05.966869"><ele>34.4</ele><time>2021-03-19T10:30:01Z</time><name>PT3974</name></trkpt>
<trkpt lat="52.945002" lon="05.966871"><ele>34.3</ele><time>2021-03-19T10:30:02Z</time><name>PT3975</name></trkpt>
<trkpt lat="52.945001" lon="05.966871"><ele>34.4</ele><time>2021-03-19T10:30:03Z</time><name>PT3976</name></trkpt>
<trkpt lat="52.944993" lon="05.966871"><ele>34.3</ele><time>2021-03-19T10:30:14Z</time><name>PT3977</name></trkpt>
<trkpt lat="52.944987" lon="05.966873"><ele>34.3</ele><time>2021-03-19T10:30:15Z</time><name>PT3978</name></trkpt>
<trkpt lat="52.944983" lon="05.966878"><ele>34.3</ele><time>2021-03-19T10:30:16Z</time><name>PT3979</name></trkpt>
<trkpt lat="52.944977" lon="05.966882"><ele>34</ele><time>2021-03-19T10:30:17Z</time><name>PT3980</name></trkpt>
<trkpt lat="52.944977" lon="05.966881"><ele>34</ele><time>2021-03-19T10:30:18Z</time><name>PT3981</name></trkpt>
<trkpt lat="52.944975" lon="05.966880"><ele>34</ele><time>2021-03-19T10:30:19Z</time><name>PT3982</name></trkpt>
<trkpt lat="52.944973" lon="05.966878"><ele>33.9</ele><time>2021-03-19T10:30:20Z</time><name>PT3983</name></trkpt>
<trkpt lat="52.944972" lon="05.966879"><ele>33.9</ele><time>2021-03-19T10:30:21Z</time><name>PT3984</name></trkpt>
<trkpt lat="52.944970" lon="05.966881"><ele>34</ele><time>2021-03-19T10:30:22Z</time><name>PT3985</name></trkpt>
<trkpt lat="52.944969" lon="05.966883"><ele>34</ele><time>2021-03-19T10:30:23Z</time><name>PT3986</name></trkpt>
<trkpt lat="52.944967" lon="05.966886"><ele>34</ele><time>2021-03-19T10:30:24Z</time><name>PT3987</name></trkpt>
<trkpt lat="52.944967" lon="05.966887"><ele>34</ele><time>2021-03-19T10:30:25Z</time><name>PT3988</name></trkpt>
<trkpt lat="52.944961" lon="05.966890"><ele>34.6</ele><time>2021-03-19T10:31:07Z</time><name>PT3989</name></trkpt>
<trkpt lat="52.944952" lon="05.966900"><ele>34.7</ele><time>2021-03-19T10:31:08Z</time><name>PT3990</name></trkpt>
<trkpt lat="52.944944" lon="05.966902"><ele>34.5</ele><time>2021-03-19T10:31:09Z</time><name>PT3991</name></trkpt>
<trkpt lat="52.944939" lon="05.966906"><ele>34.4</ele><time>2021-03-19T10:31:10Z</time><name>PT3992</name></trkpt>
<trkpt lat="52.944932" lon="05.966907"><ele>34.5</ele><time>2021-03-19T10:31:11Z</time><name>PT3993</name></trkpt>
<trkpt lat="52.944926" lon="05.966910"><ele>34.5</ele><time>2021-03-19T10:31:12Z</time><name>PT3994</name></trkpt>
<trkpt lat="52.944922" lon="05.966908"><ele>34.5</ele><time>2021-03-19T10:31:13Z</time><name>PT3995</name></trkpt>
<trkpt lat="52.944913" lon="05.966911"><ele>34.5</ele><time>2021-03-19T10:31:14Z</time><name>PT3996</name></trkpt>
<trkpt lat="52.944909" lon="05.966916"><ele>34.4</ele><time>2021-03-19T10:31:15Z</time><name>PT3997</name></trkpt>
<trkpt lat="52.944905" lon="05.966918"><ele>34.5</ele><time>2021-03-19T10:31:16Z</time><name>PT3998</name></trkpt>
<trkpt lat="52.944901" lon="05.966921"><ele>34.5</ele><time>2021-03-19T10:31:17Z</time><name>PT3999</name></trkpt>
<trkpt lat="52.944905" lon="05.966915"><ele>34</ele><time>2021-03-19T10:31:49Z</time><name>PT4000</name></trkpt>
<trkpt lat="52.944911" lon="05.966917"><ele>34.2</ele><time>2021-03-19T10:31:50Z</time><name>PT4001</name></trkpt>
<trkpt lat="52.944916" lon="05.966927"><ele>34.1</ele><time>2021-03-19T10:31:51Z</time><name>PT4002</name></trkpt>
<trkpt lat="52.944917" lon="05.966934"><ele>34</ele><time>2021-03-19T10:31:52Z</time><name>PT4003</name></trkpt>
<trkpt lat="52.944918" lon="05.966934"><ele>34.2</ele><time>2021-03-19T10:31:53Z</time><name>PT4004</name></trkpt>
<trkpt lat="52.944917" lon="05.966928"><ele>34.3</ele><time>2021-03-19T10:32:13Z</time><name>PT4005</name></trkpt>
<trkpt lat="52.944905" lon="05.966915"><ele>34.5</ele><time>2021-03-19T10:32:14Z</time><name>PT4006</name></trkpt>
<trkpt lat="52.944893" lon="05.966912"><ele>34.5</ele><time>2021-03-19T10:32:15Z</time><name>PT4007</name></trkpt>
<trkpt lat="52.944889" lon="05.966908"><ele>34.7</ele><time>2021-03-19T10:32:16Z</time><name>PT4008</name></trkpt>
<trkpt lat="52.944882" lon="05.966912"><ele>34.2</ele><time>2021-03-19T10:32:23Z</time><name>PT4009</name></trkpt>
<trkpt lat="52.944880" lon="05.966915"><ele>34.3</ele><time>2021-03-19T10:32:24Z</time><name>PT4010</name></trkpt>
<trkpt lat="52.944875" lon="05.966919"><ele>34.4</ele><time>2021-03-19T10:32:25Z</time><name>PT4011</name></trkpt>
<trkpt lat="52.944870" lon="05.966916"><ele>34.5</ele><time>2021-03-19T10:32:26Z</time><name>PT4012</name></trkpt>
<trkpt lat="52.944866" lon="05.966921"><ele>34.1</ele><time>2021-03-19T10:32:38Z</time><name>PT4013</name></trkpt>
<trkpt lat="52.944860" lon="05.966926"><ele>34.2</ele><time>2021-03-19T10:32:39Z</time><name>PT4014</name></trkpt>
<trkpt lat="52.944861" lon="05.966931"><ele>34.2</ele><time>2021-03-19T10:32:40Z</time><name>PT4015</name></trkpt>
<trkpt lat="52.944859" lon="05.966937"><ele>34.2</ele><time>2021-03-19T10:32:41Z</time><name>PT4016</name></trkpt>
<trkpt lat="52.944856" lon="05.966937"><ele>34.2</ele><time>2021-03-19T10:32:42Z</time><name>PT4017</name></trkpt>
<trkpt lat="52.944858" lon="05.966932"><ele>34.1</ele><time>2021-03-19T10:32:43Z</time><name>PT4018</name></trkpt>
<trkpt lat="52.944855" lon="05.966938"><ele>34</ele><time>2021-03-19T10:32:44Z</time><name>PT4019</name></trkpt>
<trkpt lat="52.944851" lon="05.966936"><ele>34.1</ele><time>2021-03-19T10:32:55Z</time><name>PT4020</name></trkpt>
<trkpt lat="52.944843" lon="05.966941"><ele>34.1</ele><time>2021-03-19T10:32:56Z</time><name>PT4021</name></trkpt>
<trkpt lat="52.944836" lon="05.966947"><ele>34</ele><time>2021-03-19T10:32:57Z</time><name>PT4022</name></trkpt>
<trkpt lat="52.944831" lon="05.966957"><ele>34</ele><time>2021-03-19T10:32:58Z</time><name>PT4023</name></trkpt>
<trkpt lat="52.944822" lon="05.966965"><ele>34</ele><time>2021-03-19T10:32:59Z</time><name>PT4024</name></trkpt>
<trkpt lat="52.944819" lon="05.966972"><ele>34.1</ele><time>2021-03-19T10:33:00Z</time><name>PT4025</name></trkpt>
<trkpt lat="52.944823" lon="05.966981"><ele>34.1</ele><time>2021-03-19T10:33:01Z</time><name>PT4026</name></trkpt>
<trkpt lat="52.944821" lon="05.966986"><ele>34.1</ele><time>2021-03-19T10:33:02Z</time><name>PT4027</name></trkpt>
<trkpt lat="52.944821" lon="05.966991"><ele>34.1</ele><time>2021-03-19T10:33:03Z</time><name>PT4028</name></trkpt>
<trkpt lat="52.944821" lon="05.966993"><ele>34.2</ele><time>2021-03-19T10:33:04Z</time><name>PT4029</name></trkpt>
<trkpt lat="52.944821" lon="05.967005"><ele>34</ele><time>2021-03-19T10:33:13Z</time><name>PT4030</name></trkpt>
<trkpt lat="52.944822" lon="05.967012"><ele>33.8</ele><time>2021-03-19T10:33:14Z</time><name>PT4031</name></trkpt>
<trkpt lat="52.944824" lon="05.967015"><ele>33.9</ele><time>2021-03-19T10:33:15Z</time><name>PT4032</name></trkpt>
<trkpt lat="52.944817" lon="05.967016"><ele>33.7</ele><time>2021-03-19T10:33:24Z</time><name>PT4033</name></trkpt>
<trkpt lat="52.944816" lon="05.967022"><ele>33.6</ele><time>2021-03-19T10:33:25Z</time><name>PT4034</name></trkpt>
<trkpt lat="52.944810" lon="05.967034"><ele>33.6</ele><time>2021-03-19T10:33:26Z</time><name>PT4035</name></trkpt>
<trkpt lat="52.944802" lon="05.967045"><ele>33.6</ele><time>2021-03-19T10:33:27Z</time><name>PT4036</name></trkpt>
<trkpt lat="52.944797" lon="05.967060"><ele>33.4</ele><time>2021-03-19T10:33:28Z</time><name>PT4037</name></trkpt>
<trkpt lat="52.944795" lon="05.967074"><ele>33.5</ele><time>2021-03-19T10:33:29Z</time><name>PT4038</name></trkpt>
<trkpt lat="52.944792" lon="05.967087"><ele>33.4</ele><time>2021-03-19T10:33:30Z</time><name>PT4039</name></trkpt>
<trkpt lat="52.944786" lon="05.967103"><ele>33.4</ele><time>2021-03-19T10:33:31Z</time><name>PT4040</name></trkpt>
<trkpt lat="52.944781" lon="05.967114"><ele>33.1</ele><time>2021-03-19T10:33:32Z</time><name>PT4041</name></trkpt>
<trkpt lat="52.944775" lon="05.967128"><ele>33.1</ele><time>2021-03-19T10:33:33Z</time><name>PT4042</name></trkpt>
<trkpt lat="52.944769" lon="05.967140"><ele>33.1</ele><time>2021-03-19T10:33:34Z</time><name>PT4043</name></trkpt>
<trkpt lat="52.944767" lon="05.967144"><ele>33.1</ele><time>2021-03-19T10:33:35Z</time><name>PT4044</name></trkpt>
<trkpt lat="52.944771" lon="05.967137"><ele>33.2</ele><time>2021-03-19T10:33:36Z</time><name>PT4045</name></trkpt>
<trkpt lat="52.944772" lon="05.967134"><ele>33.4</ele><time>2021-03-19T10:33:37Z</time><name>PT4046</name></trkpt>
<trkpt lat="52.944774" lon="05.967128"><ele>33.5</ele><time>2021-03-19T10:33:38Z</time><name>PT4047</name></trkpt>
<trkpt lat="52.944775" lon="05.967139"><ele>33.5</ele><time>2021-03-19T10:33:42Z</time><name>PT4048</name></trkpt>
<trkpt lat="52.944774" lon="05.967160"><ele>33.2</ele><time>2021-03-19T10:33:43Z</time><name>PT4049</name></trkpt>
<trkpt lat="52.944771" lon="05.967186"><ele>33.1</ele><time>2021-03-19T10:33:44Z</time><name>PT4050</name></trkpt>
<trkpt lat="52.944767" lon="05.967203"><ele>33</ele><time>2021-03-19T10:33:45Z</time><name>PT4051</name></trkpt>
<trkpt lat="52.944762" lon="05.967210"><ele>32.9</ele><time>2021-03-19T10:33:46Z</time><name>PT4052</name></trkpt>
<trkpt lat="52.944764" lon="05.967216"><ele>33</ele><time>2021-03-19T10:33:47Z</time><name>PT4053</name></trkpt>
<trkpt lat="52.944762" lon="05.967226"><ele>32.9</ele><time>2021-03-19T10:33:48Z</time><name>PT4054</name></trkpt>
<trkpt lat="52.944756" lon="05.967244"><ele>33.1</ele><time>2021-03-19T10:33:49Z</time><name>PT4055</name></trkpt>
<trkpt lat="52.944751" lon="05.967260"><ele>33.1</ele><time>2021-03-19T10:33:50Z</time><name>PT4056</name></trkpt>
<trkpt lat="52.944744" lon="05.967276"><ele>33.2</ele><time>2021-03-19T10:33:51Z</time><name>PT4057</name></trkpt>
<trkpt lat="52.944740" lon="05.967288"><ele>33.3</ele><time>2021-03-19T10:33:52Z</time><name>PT4058</name></trkpt>
<trkpt lat="52.944735" lon="05.967304"><ele>33.3</ele><time>2021-03-19T10:33:53Z</time><name>PT4059</name></trkpt>
<trkpt lat="52.944728" lon="05.967322"><ele>33.1</ele><time>2021-03-19T10:33:54Z</time><name>PT4060</name></trkpt>
<trkpt lat="52.944723" lon="05.967331"><ele>33.1</ele><time>2021-03-19T10:33:55Z</time><name>PT4061</name></trkpt>
<trkpt lat="52.944717" lon="05.967342"><ele>33.3</ele><time>2021-03-19T10:33:56Z</time><name>PT4062</name></trkpt>
<trkpt lat="52.944708" lon="05.967349"><ele>33.2</ele><time>2021-03-19T10:33:57Z</time><name>PT4063</name></trkpt>
<trkpt lat="52.944708" lon="05.967359"><ele>33.4</ele><time>2021-03-19T10:33:58Z</time><name>PT4064</name></trkpt>
<trkpt lat="52.944704" lon="05.967369"><ele>33.6</ele><time>2021-03-19T10:33:59Z</time><name>PT4065</name></trkpt>
<trkpt lat="52.944700" lon="05.967376"><ele>33.6</ele><time>2021-03-19T10:34:00Z</time><name>PT4066</name></trkpt>
<trkpt lat="52.944697" lon="05.967378"><ele>33.6</ele><time>2021-03-19T10:34:01Z</time><name>PT4067</name></trkpt>
<trkpt lat="52.944694" lon="05.967387"><ele>33.6</ele><time>2021-03-19T10:34:02Z</time><name>PT4068</name></trkpt>
<trkpt lat="52.944686" lon="05.967399"><ele>33.6</ele><time>2021-03-19T10:34:03Z</time><name>PT4069</name></trkpt>
<trkpt lat="52.944683" lon="05.967405"><ele>33.6</ele><time>2021-03-19T10:34:04Z</time><name>PT4070</name></trkpt>
<trkpt lat="52.944681" lon="05.967410"><ele>33.5</ele><time>2021-03-19T10:34:05Z</time><name>PT4071</name></trkpt>
<trkpt lat="52.944678" lon="05.967418"><ele>33.5</ele><time>2021-03-19T10:34:06Z</time><name>PT4072</name></trkpt>
<trkpt lat="52.944674" lon="05.967420"><ele>33.4</ele><time>2021-03-19T10:34:07Z</time><name>PT4073</name></trkpt>
<trkpt lat="52.944673" lon="05.967423"><ele>33.2</ele><time>2021-03-19T10:34:08Z</time><name>PT4074</name></trkpt>
<trkpt lat="52.944672" lon="05.967426"><ele>33.4</ele><time>2021-03-19T10:34:09Z</time><name>PT4075</name></trkpt>
<trkpt lat="52.944637" lon="05.967422"><ele>33.5</ele><time>2021-03-19T10:34:57Z</time><name>PT4076</name></trkpt>
<trkpt lat="52.944625" lon="05.967431"><ele>33.4</ele><time>2021-03-19T10:34:58Z</time><name>PT4077</name></trkpt>
<trkpt lat="52.944617" lon="05.967442"><ele>33.5</ele><time>2021-03-19T10:34:59Z</time><name>PT4078</name></trkpt>
<trkpt lat="52.944612" lon="05.967448"><ele>33.3</ele><time>2021-03-19T10:35:00Z</time><name>PT4079</name></trkpt>
<trkpt lat="52.944610" lon="05.967463"><ele>33.6</ele><time>2021-03-19T10:35:05Z</time><name>PT4080</name></trkpt>
<trkpt lat="52.944608" lon="05.967475"><ele>33.7</ele><time>2021-03-19T10:35:06Z</time><name>PT4081</name></trkpt>
<trkpt lat="52.944609" lon="05.967487"><ele>34</ele><time>2021-03-19T10:35:07Z</time><name>PT4082</name></trkpt>
<trkpt lat="52.944605" lon="05.967499"><ele>33.8</ele><time>2021-03-19T10:35:08Z</time><name>PT4083</name></trkpt>
<trkpt lat="52.944591" lon="05.967515"><ele>33.9</ele><time>2021-03-19T10:35:29Z</time><name>PT4084</name></trkpt>
<trkpt lat="52.944587" lon="05.967518"><ele>33.9</ele><time>2021-03-19T10:35:30Z</time><name>PT4085</name></trkpt>
<trkpt lat="52.944584" lon="05.967520"><ele>33.8</ele><time>2021-03-19T10:35:31Z</time><name>PT4086</name></trkpt>
<trkpt lat="52.944579" lon="05.967518"><ele>33.7</ele><time>2021-03-19T10:35:32Z</time><name>PT4087</name></trkpt>
<trkpt lat="52.944580" lon="05.967516"><ele>33.7</ele><time>2021-03-19T10:35:33Z</time><name>PT4088</name></trkpt>
<trkpt lat="52.944578" lon="05.967520"><ele>33.6</ele><time>2021-03-19T10:35:34Z</time><name>PT4089</name></trkpt>
<trkpt lat="52.944575" lon="05.967519"><ele>33.6</ele><time>2021-03-19T10:37:16Z</time><name>PT4090</name></trkpt>
<trkpt lat="52.944567" lon="05.967515"><ele>33.5</ele><time>2021-03-19T10:37:17Z</time><name>PT4091</name></trkpt>
<trkpt lat="52.944562" lon="05.967514"><ele>33.4</ele><time>2021-03-19T10:37:18Z</time><name>PT4092</name></trkpt>
<trkpt lat="52.944560" lon="05.967522"><ele>33.4</ele><time>2021-03-19T10:37:19Z</time><name>PT4093</name></trkpt>
<trkpt lat="52.944558" lon="05.967528"><ele>33.4</ele><time>2021-03-19T10:37:20Z</time><name>PT4094</name></trkpt>
<trkpt lat="52.944551" lon="05.967525"><ele>33.6</ele><time>2021-03-19T10:37:31Z</time><name>PT4095</name></trkpt>
<trkpt lat="52.944540" lon="05.967540"><ele>33.6</ele><time>2021-03-19T10:37:32Z</time><name>PT4096</name></trkpt>
<trkpt lat="52.944530" lon="05.967549"><ele>33.6</ele><time>2021-03-19T10:37:33Z</time><name>PT4097</name></trkpt>
<trkpt lat="52.944519" lon="05.967561"><ele>33.8</ele><time>2021-03-19T10:37:34Z</time><name>PT4098</name></trkpt>
<trkpt lat="52.944512" lon="05.967569"><ele>33.8</ele><time>2021-03-19T10:37:35Z</time><name>PT4099</name></trkpt>
<trkpt lat="52.944503" lon="05.967579"><ele>33.7</ele><time>2021-03-19T10:37:36Z</time><name>PT4100</name></trkpt>
<trkpt lat="52.944495" lon="05.967584"><ele>33.6</ele><time>2021-03-19T10:37:37Z</time><name>PT4101</name></trkpt>
<trkpt lat="52.944492" lon="05.967589"><ele>33.3</ele><time>2021-03-19T10:37:38Z</time><name>PT4102</name></trkpt>
<trkpt lat="52.944490" lon="05.967600"><ele>33.1</ele><time>2021-03-19T10:37:39Z</time><name>PT4103</name></trkpt>
<trkpt lat="52.944487" lon="05.967611"><ele>33</ele><time>2021-03-19T10:37:40Z</time><name>PT4104</name></trkpt>
<trkpt lat="52.944482" lon="05.967620"><ele>33.1</ele><time>2021-03-19T10:37:41Z</time><name>PT4105</name></trkpt>
<trkpt lat="52.944477" lon="05.967630"><ele>33.2</ele><time>2021-03-19T10:37:42Z</time><name>PT4106</name></trkpt>
<trkpt lat="52.944470" lon="05.967639"><ele>33.4</ele><time>2021-03-19T10:37:43Z</time><name>PT4107</name></trkpt>
<trkpt lat="52.944463" lon="05.967651"><ele>33.4</ele><time>2021-03-19T10:37:44Z</time><name>PT4108</name></trkpt>
<trkpt lat="52.944456" lon="05.967660"><ele>33.4</ele><time>2021-03-19T10:37:45Z</time><name>PT4109</name></trkpt>
<trkpt lat="52.944453" lon="05.967670"><ele>33.2</ele><time>2021-03-19T10:37:46Z</time><name>PT4110</name></trkpt>
<trkpt lat="52.944443" lon="05.967676"><ele>33.1</ele><time>2021-03-19T10:37:47Z</time><name>PT4111</name></trkpt>
<trkpt lat="52.944434" lon="05.967687"><ele>33</ele><time>2021-03-19T10:37:48Z</time><name>PT4112</name></trkpt>
<trkpt lat="52.944427" lon="05.967697"><ele>33.1</ele><time>2021-03-19T10:37:49Z</time><name>PT4113</name></trkpt>
<trkpt lat="52.944422" lon="05.967705"><ele>33.4</ele><time>2021-03-19T10:37:50Z</time><name>PT4114</name></trkpt>
<trkpt lat="52.944417" lon="05.967715"><ele>33.4</ele><time>2021-03-19T10:37:51Z</time><name>PT4115</name></trkpt>
<trkpt lat="52.944407" lon="05.967731"><ele>33.5</ele><time>2021-03-19T10:37:52Z</time><name>PT4116</name></trkpt>
<trkpt lat="52.944394" lon="05.967751"><ele>33.5</ele><time>2021-03-19T10:37:53Z</time><name>PT4117</name></trkpt>
<trkpt lat="52.944391" lon="05.967772"><ele>33.4</ele><time>2021-03-19T10:37:54Z</time><name>PT4118</name></trkpt>
<trkpt lat="52.944380" lon="05.967795"><ele>33.3</ele><time>2021-03-19T10:37:55Z</time><name>PT4119</name></trkpt>
<trkpt lat="52.944377" lon="05.967822"><ele>33.4</ele><time>2021-03-19T10:37:56Z</time><name>PT4120</name></trkpt>
<trkpt lat="52.944375" lon="05.967842"><ele>33.6</ele><time>2021-03-19T10:37:57Z</time><name>PT4121</name></trkpt>
<trkpt lat="52.944370" lon="05.967857"><ele>33.6</ele><time>2021-03-19T10:37:58Z</time><name>PT4122</name></trkpt>
<trkpt lat="52.944361" lon="05.967879"><ele>33.8</ele><time>2021-03-19T10:37:59Z</time><name>PT4123</name></trkpt>
<trkpt lat="52.944353" lon="05.967896"><ele>33.7</ele><time>2021-03-19T10:38:00Z</time><name>PT4124</name></trkpt>
<trkpt lat="52.944340" lon="05.967915"><ele>33.6</ele><time>2021-03-19T10:38:01Z</time><name>PT4125</name></trkpt>
<trkpt lat="52.944334" lon="05.967930"><ele>33.3</ele><time>2021-03-19T10:38:02Z</time><name>PT4126</name></trkpt>
<trkpt lat="52.944326" lon="05.967940"><ele>33.3</ele><time>2021-03-19T10:38:03Z</time><name>PT4127</name></trkpt>
<trkpt lat="52.944314" lon="05.967949"><ele>33.2</ele><time>2021-03-19T10:38:04Z</time><name>PT4128</name></trkpt>
<trkpt lat="52.944303" lon="05.967967"><ele>33.2</ele><time>2021-03-19T10:38:05Z</time><name>PT4129</name></trkpt>
<trkpt lat="52.944298" lon="05.967978"><ele>33.2</ele><time>2021-03-19T10:38:06Z</time><name>PT4130</name></trkpt>
<trkpt lat="52.944291" lon="05.967993"><ele>33.2</ele><time>2021-03-19T10:38:07Z</time><name>PT4131</name></trkpt>
<trkpt lat="52.944287" lon="05.967999"><ele>33.3</ele><time>2021-03-19T10:38:08Z</time><name>PT4132</name></trkpt>
<trkpt lat="52.944281" lon="05.968009"><ele>33.4</ele><time>2021-03-19T10:38:09Z</time><name>PT4133</name></trkpt>
<trkpt lat="52.944269" lon="05.968019"><ele>33.6</ele><time>2021-03-19T10:38:10Z</time><name>PT4134</name></trkpt>
<trkpt lat="52.944256" lon="05.968031"><ele>33.8</ele><time>2021-03-19T10:38:11Z</time><name>PT4135</name></trkpt>
<trkpt lat="52.944245" lon="05.968041"><ele>33.9</ele><time>2021-03-19T10:38:12Z</time><name>PT4136</name></trkpt>
<trkpt lat="52.944235" lon="05.968053"><ele>33.9</ele><time>2021-03-19T10:38:13Z</time><name>PT4137</name></trkpt>
<trkpt lat="52.944227" lon="05.968062"><ele>33.8</ele><time>2021-03-19T10:38:14Z</time><name>PT4138</name></trkpt>
<trkpt lat="52.944218" lon="05.968071"><ele>33.8</ele><time>2021-03-19T10:38:15Z</time><name>PT4139</name></trkpt>
<trkpt lat="52.944212" lon="05.968082"><ele>33.8</ele><time>2021-03-19T10:38:16Z</time><name>PT4140</name></trkpt>
<trkpt lat="52.944206" lon="05.968093"><ele>33.8</ele><time>2021-03-19T10:38:17Z</time><name>PT4141</name></trkpt>
<trkpt lat="52.944202" lon="05.968105"><ele>33.8</ele><time>2021-03-19T10:38:18Z</time><name>PT4142</name></trkpt>
<trkpt lat="52.944195" lon="05.968120"><ele>33.8</ele><time>2021-03-19T10:38:19Z</time><name>PT4143</name></trkpt>
<trkpt lat="52.944189" lon="05.968136"><ele>34</ele><time>2021-03-19T10:38:20Z</time><name>PT4144</name></trkpt>
<trkpt lat="52.944184" lon="05.968151"><ele>33.9</ele><time>2021-03-19T10:38:21Z</time><name>PT4145</name></trkpt>
<trkpt lat="52.944177" lon="05.968161"><ele>33.8</ele><time>2021-03-19T10:38:22Z</time><name>PT4146</name></trkpt>
<trkpt lat="52.944172" lon="05.968172"><ele>33.8</ele><time>2021-03-19T10:38:23Z</time><name>PT4147</name></trkpt>
<trkpt lat="52.944164" lon="05.968184"><ele>33.7</ele><time>2021-03-19T10:38:24Z</time><name>PT4148</name></trkpt>
<trkpt lat="52.944157" lon="05.968197"><ele>33.4</ele><time>2021-03-19T10:38:25Z</time><name>PT4149</name></trkpt>
<trkpt lat="52.944152" lon="05.968205"><ele>33.5</ele><time>2021-03-19T10:38:26Z</time><name>PT4150</name></trkpt>
<trkpt lat="52.944145" lon="05.968221"><ele>33.5</ele><time>2021-03-19T10:38:27Z</time><name>PT4151</name></trkpt>
<trkpt lat="52.944139" lon="05.968233"><ele>33.3</ele><time>2021-03-19T10:38:28Z</time><name>PT4152</name></trkpt>
<trkpt lat="52.944133" lon="05.968251"><ele>33.4</ele><time>2021-03-19T10:38:29Z</time><name>PT4153</name></trkpt>
<trkpt lat="52.944130" lon="05.968265"><ele>33.5</ele><time>2021-03-19T10:38:30Z</time><name>PT4154</name></trkpt>
<trkpt lat="52.944135" lon="05.968281"><ele>33.6</ele><time>2021-03-19T10:38:31Z</time><name>PT4155</name></trkpt>
<trkpt lat="52.944141" lon="05.968294"><ele>33.5</ele><time>2021-03-19T10:38:32Z</time><name>PT4156</name></trkpt>
<trkpt lat="52.944146" lon="05.968309"><ele>33.5</ele><time>2021-03-19T10:38:33Z</time><name>PT4157</name></trkpt>
<trkpt lat="52.944149" lon="05.968321"><ele>33.4</ele><time>2021-03-19T10:38:34Z</time><name>PT4158</name></trkpt>
<trkpt lat="52.944153" lon="05.968335"><ele>33.4</ele><time>2021-03-19T10:38:35Z</time><name>PT4159</name></trkpt>
<trkpt lat="52.944158" lon="05.968349"><ele>33.5</ele><time>2021-03-19T10:38:36Z</time><name>PT4160</name></trkpt>
<trkpt lat="52.944162" lon="05.968363"><ele>33.6</ele><time>2021-03-19T10:38:37Z</time><name>PT4161</name></trkpt>
<trkpt lat="52.944166" lon="05.968376"><ele>33.6</ele><time>2021-03-19T10:38:38Z</time><name>PT4162</name></trkpt>
<trkpt lat="52.944167" lon="05.968389"><ele>33.7</ele><time>2021-03-19T10:38:39Z</time><name>PT4163</name></trkpt>
<trkpt lat="52.944166" lon="05.968406"><ele>33.7</ele><time>2021-03-19T10:38:40Z</time><name>PT4164</name></trkpt>
<trkpt lat="52.944165" lon="05.968421"><ele>33.7</ele><time>2021-03-19T10:38:41Z</time><name>PT4165</name></trkpt>
<trkpt lat="52.944166" lon="05.968438"><ele>33.8</ele><time>2021-03-19T10:38:42Z</time><name>PT4166</name></trkpt>
<trkpt lat="52.944168" lon="05.968450"><ele>33.9</ele><time>2021-03-19T10:38:43Z</time><name>PT4167</name></trkpt>
<trkpt lat="52.944164" lon="05.968470"><ele>33.8</ele><time>2021-03-19T10:38:44Z</time><name>PT4168</name></trkpt>
<trkpt lat="52.944158" lon="05.968492"><ele>33.8</ele><time>2021-03-19T10:38:45Z</time><name>PT4169</name></trkpt>
<trkpt lat="52.944158" lon="05.968510"><ele>33.8</ele><time>2021-03-19T10:38:46Z</time><name>PT4170</name></trkpt>
<trkpt lat="52.944158" lon="05.968524"><ele>33.7</ele><time>2021-03-19T10:38:47Z</time><name>PT4171</name></trkpt>
<trkpt lat="52.944154" lon="05.968540"><ele>33.7</ele><time>2021-03-19T10:38:48Z</time><name>PT4172</name></trkpt>
<trkpt lat="52.944152" lon="05.968559"><ele>33.9</ele><time>2021-03-19T10:38:49Z</time><name>PT4173</name></trkpt>
<trkpt lat="52.944149" lon="05.968575"><ele>34</ele><time>2021-03-19T10:38:50Z</time><name>PT4174</name></trkpt>
<trkpt lat="52.944148" lon="05.968594"><ele>33.9</ele><time>2021-03-19T10:38:51Z</time><name>PT4175</name></trkpt>
<trkpt lat="52.944147" lon="05.968607"><ele>33.9</ele><time>2021-03-19T10:38:52Z</time><name>PT4176</name></trkpt>
<trkpt lat="52.944142" lon="05.968621"><ele>33.9</ele><time>2021-03-19T10:38:53Z</time><name>PT4177</name></trkpt>
<trkpt lat="52.944143" lon="05.968633"><ele>33.9</ele><time>2021-03-19T10:38:54Z</time><name>PT4178</name></trkpt>
<trkpt lat="52.944142" lon="05.968649"><ele>33.6</ele><time>2021-03-19T10:38:55Z</time><name>PT4179</name></trkpt>
<trkpt lat="52.944143" lon="05.968666"><ele>33.8</ele><time>2021-03-19T10:38:56Z</time><name>PT4180</name></trkpt>
<trkpt lat="52.944141" lon="05.968684"><ele>33.7</ele><time>2021-03-19T10:38:57Z</time><name>PT4181</name></trkpt>
<trkpt lat="52.944139" lon="05.968698"><ele>33.6</ele><time>2021-03-19T10:38:58Z</time><name>PT4182</name></trkpt>
<trkpt lat="52.944139" lon="05.968714"><ele>33.7</ele><time>2021-03-19T10:38:59Z</time><name>PT4183</name></trkpt>
<trkpt lat="52.944140" lon="05.968729"><ele>33.6</ele><time>2021-03-19T10:39:00Z</time><name>PT4184</name></trkpt>
<trkpt lat="52.944142" lon="05.968743"><ele>33.6</ele><time>2021-03-19T10:39:01Z</time><name>PT4185</name></trkpt>
<trkpt lat="52.944142" lon="05.968753"><ele>33.5</ele><time>2021-03-19T10:39:02Z</time><name>PT4186</name></trkpt>
<trkpt lat="52.944145" lon="05.968764"><ele>33.6</ele><time>2021-03-19T10:39:03Z</time><name>PT4187</name></trkpt>
<trkpt lat="52.944145" lon="05.968779"><ele>33.6</ele><time>2021-03-19T10:39:04Z</time><name>PT4188</name></trkpt>
<trkpt lat="52.944149" lon="05.968789"><ele>33.6</ele><time>2021-03-19T10:39:05Z</time><name>PT4189</name></trkpt>
<trkpt lat="52.944151" lon="05.968794"><ele>33.7</ele><time>2021-03-19T10:39:06Z</time><name>PT4190</name></trkpt>
<trkpt lat="52.944149" lon="05.968804"><ele>33.6</ele><time>2021-03-19T10:39:07Z</time><name>PT4191</name></trkpt>
<trkpt lat="52.944149" lon="05.968813"><ele>33.6</ele><time>2021-03-19T10:39:08Z</time><name>PT4192</name></trkpt>
<trkpt lat="52.944141" lon="05.968818"><ele>33.5</ele><time>2021-03-19T10:40:48Z</time><name>PT4193</name></trkpt>
<trkpt lat="52.944137" lon="05.968818"><ele>33.4</ele><time>2021-03-19T10:40:49Z</time><name>PT4194</name></trkpt>
<trkpt lat="52.944132" lon="05.968819"><ele>33.5</ele><time>2021-03-19T10:40:50Z</time><name>PT4195</name></trkpt>
<trkpt lat="52.944125" lon="05.968829"><ele>33.6</ele><time>2021-03-19T10:40:56Z</time><name>PT4196</name></trkpt>
<trkpt lat="52.944120" lon="05.968838"><ele>33.5</ele><time>2021-03-19T10:40:57Z</time><name>PT4197</name></trkpt>
<trkpt lat="52.944119" lon="05.968848"><ele>33.6</ele><time>2021-03-19T10:40:58Z</time><name>PT4198</name></trkpt>
<trkpt lat="52.944115" lon="05.968863"><ele>33.4</ele><time>2021-03-19T10:40:59Z</time><name>PT4199</name></trkpt>
<trkpt lat="52.944114" lon="05.968878"><ele>33.4</ele><time>2021-03-19T10:41:00Z</time><name>PT4200</name></trkpt>
<trkpt lat="52.944113" lon="05.968888"><ele>33.5</ele><time>2021-03-19T10:41:01Z</time><name>PT4201</name></trkpt>
<trkpt lat="52.944114" lon="05.968897"><ele>33.3</ele><time>2021-03-19T10:41:05Z</time><name>PT4202</name></trkpt>
<trkpt lat="52.944110" lon="05.968915"><ele>33.3</ele><time>2021-03-19T10:41:06Z</time><name>PT4203</name></trkpt>
<trkpt lat="52.944108" lon="05.968931"><ele>33.4</ele><time>2021-03-19T10:41:07Z</time><name>PT4204</name></trkpt>
<trkpt lat="52.944107" lon="05.968946"><ele>33.3</ele><time>2021-03-19T10:41:08Z</time><name>PT4205</name></trkpt>
<trkpt lat="52.944107" lon="05.968958"><ele>33.3</ele><time>2021-03-19T10:41:09Z</time><name>PT4206</name></trkpt>
<trkpt lat="52.944106" lon="05.968966"><ele>33.4</ele><time>2021-03-19T10:41:10Z</time><name>PT4207</name></trkpt>
<trkpt lat="52.944106" lon="05.968969"><ele>33.5</ele><time>2021-03-19T10:41:11Z</time><name>PT4208</name></trkpt>
<trkpt lat="52.944107" lon="05.968969"><ele>33.5</ele><time>2021-03-19T10:41:12Z</time><name>PT4209</name></trkpt>
<trkpt lat="52.944110" lon="05.968973"><ele>33.4</ele><time>2021-03-19T10:41:13Z</time><name>PT4210</name></trkpt>
<trkpt lat="52.944112" lon="05.968979"><ele>33.3</ele><time>2021-03-19T10:41:18Z</time><name>PT4211</name></trkpt>
<trkpt lat="52.944119" lon="05.968992"><ele>33.1</ele><time>2021-03-19T10:41:19Z</time><name>PT4212</name></trkpt>
<trkpt lat="52.944128" lon="05.969003"><ele>33.1</ele><time>2021-03-19T10:41:20Z</time><name>PT4213</name></trkpt>
<trkpt lat="52.944135" lon="05.969015"><ele>33.1</ele><time>2021-03-19T10:41:21Z</time><name>PT4214</name></trkpt>
<trkpt lat="52.944141" lon="05.969026"><ele>33.1</ele><time>2021-03-19T10:41:22Z</time><name>PT4215</name></trkpt>
<trkpt lat="52.944143" lon="05.969037"><ele>33.3</ele><time>2021-03-19T10:41:23Z</time><name>PT4216</name></trkpt>
<trkpt lat="52.944145" lon="05.969049"><ele>33.3</ele><time>2021-03-19T10:41:24Z</time><name>PT4217</name></trkpt>
<trkpt lat="52.944154" lon="05.969058"><ele>33.1</ele><time>2021-03-19T10:41:25Z</time><name>PT4218</name></trkpt>
<trkpt lat="52.944161" lon="05.969063"><ele>33.1</ele><time>2021-03-19T10:41:26Z</time><name>PT4219</name></trkpt>
<trkpt lat="52.944166" lon="05.969069"><ele>33.1</ele><time>2021-03-19T10:41:27Z</time><name>PT4220</name></trkpt>
<trkpt lat="52.944174" lon="05.969077"><ele>33.1</ele><time>2021-03-19T10:41:28Z</time><name>PT4221</name></trkpt>
<trkpt lat="52.944186" lon="05.969084"><ele>33.4</ele><time>2021-03-19T10:41:29Z</time><name>PT4222</name></trkpt>
<trkpt lat="52.944191" lon="05.969092"><ele>33.6</ele><time>2021-03-19T10:41:30Z</time><name>PT4223</name></trkpt>
<trkpt lat="52.944203" lon="05.969101"><ele>33.3</ele><time>2021-03-19T10:41:31Z</time><name>PT4224</name></trkpt>
<trkpt lat="52.944213" lon="05.969112"><ele>33.3</ele><time>2021-03-19T10:41:32Z</time><name>PT4225</name></trkpt>
<trkpt lat="52.944222" lon="05.969122"><ele>33.3</ele><time>2021-03-19T10:41:33Z</time><name>PT4226</name></trkpt>
<trkpt lat="52.944231" lon="05.969131"><ele>33.2</ele><time>2021-03-19T10:41:34Z</time><name>PT4227</name></trkpt>
<trkpt lat="52.944238" lon="05.969141"><ele>33.2</ele><time>2021-03-19T10:41:35Z</time><name>PT4228</name></trkpt>
<trkpt lat="52.944248" lon="05.969154"><ele>33.2</ele><time>2021-03-19T10:41:36Z</time><name>PT4229</name></trkpt>
<trkpt lat="52.944254" lon="05.969166"><ele>33.2</ele><time>2021-03-19T10:41:37Z</time><name>PT4230</name></trkpt>
<trkpt lat="52.944255" lon="05.969181"><ele>33.1</ele><time>2021-03-19T10:41:38Z</time><name>PT4231</name></trkpt>
<trkpt lat="52.944256" lon="05.969199"><ele>33.1</ele><time>2021-03-19T10:41:39Z</time><name>PT4232</name></trkpt>
<trkpt lat="52.944263" lon="05.969210"><ele>33.1</ele><time>2021-03-19T10:41:40Z</time><name>PT4233</name></trkpt>
<trkpt lat="52.944269" lon="05.969224"><ele>33.1</ele><time>2021-03-19T10:41:41Z</time><name>PT4234</name></trkpt>
<trkpt lat="52.944273" lon="05.969238"><ele>33.1</ele><time>2021-03-19T10:41:42Z</time><name>PT4235</name></trkpt>
<trkpt lat="52.944278" lon="05.969256"><ele>33.2</ele><time>2021-03-19T10:41:43Z</time><name>PT4236</name></trkpt>
<trkpt lat="52.944286" lon="05.969277"><ele>33.1</ele><time>2021-03-19T10:41:44Z</time><name>PT4237</name></trkpt>
<trkpt lat="52.944291" lon="05.969293"><ele>33</ele><time>2021-03-19T10:41:45Z</time><name>PT4238</name></trkpt>
<trkpt lat="52.944293" lon="05.969304"><ele>32.7</ele><time>2021-03-19T10:41:46Z</time><name>PT4239</name></trkpt>
<trkpt lat="52.944298" lon="05.969318"><ele>32.6</ele><time>2021-03-19T10:41:47Z</time><name>PT4240</name></trkpt>
<trkpt lat="52.944301" lon="05.969331"><ele>32.6</ele><time>2021-03-19T10:41:48Z</time><name>PT4241</name></trkpt>
<trkpt lat="52.944305" lon="05.969345"><ele>32.7</ele><time>2021-03-19T10:41:49Z</time><name>PT4242</name></trkpt>
<trkpt lat="52.944312" lon="05.969358"><ele>32.9</ele><time>2021-03-19T10:41:50Z</time><name>PT4243</name></trkpt>
<trkpt lat="52.944315" lon="05.969379"><ele>32.9</ele><time>2021-03-19T10:41:51Z</time><name>PT4244</name></trkpt>
<trkpt lat="52.944318" lon="05.969398"><ele>32.7</ele><time>2021-03-19T10:41:52Z</time><name>PT4245</name></trkpt>
<trkpt lat="52.944317" lon="05.969411"><ele>32.8</ele><time>2021-03-19T10:41:53Z</time><name>PT4246</name></trkpt>
<trkpt lat="52.944319" lon="05.969420"><ele>32.8</ele><time>2021-03-19T10:41:54Z</time><name>PT4247</name></trkpt>
<trkpt lat="52.944321" lon="05.969430"><ele>32.7</ele><time>2021-03-19T10:41:55Z</time><name>PT4248</name></trkpt>
<trkpt lat="52.944326" lon="05.969443"><ele>32.7</ele><time>2021-03-19T10:41:56Z</time><name>PT4249</name></trkpt>
<trkpt lat="52.944332" lon="05.969454"><ele>32.8</ele><time>2021-03-19T10:41:57Z</time><name>PT4250</name></trkpt>
<trkpt lat="52.944334" lon="05.969466"><ele>32.5</ele><time>2021-03-19T10:41:58Z</time><name>PT4251</name></trkpt>
<trkpt lat="52.944340" lon="05.969478"><ele>32.4</ele><time>2021-03-19T10:41:59Z</time><name>PT4252</name></trkpt>
<trkpt lat="52.944344" lon="05.969489"><ele>32.4</ele><time>2021-03-19T10:42:00Z</time><name>PT4253</name></trkpt>
<trkpt lat="52.944349" lon="05.969502"><ele>32.4</ele><time>2021-03-19T10:42:01Z</time><name>PT4254</name></trkpt>
<trkpt lat="52.944356" lon="05.969514"><ele>32.7</ele><time>2021-03-19T10:42:02Z</time><name>PT4255</name></trkpt>
<trkpt lat="52.944362" lon="05.969525"><ele>32.7</ele><time>2021-03-19T10:42:03Z</time><name>PT4256</name></trkpt>
<trkpt lat="52.944367" lon="05.969538"><ele>32.9</ele><time>2021-03-19T10:42:04Z</time><name>PT4257</name></trkpt>
<trkpt lat="52.944371" lon="05.969551"><ele>33</ele><time>2021-03-19T10:42:05Z</time><name>PT4258</name></trkpt>
<trkpt lat="52.944374" lon="05.969565"><ele>33.1</ele><time>2021-03-19T10:42:06Z</time><name>PT4259</name></trkpt>
<trkpt lat="52.944375" lon="05.969579"><ele>32.9</ele><time>2021-03-19T10:42:07Z</time><name>PT4260</name></trkpt>
<trkpt lat="52.944379" lon="05.969591"><ele>32.8</ele><time>2021-03-19T10:42:08Z</time><name>PT4261</name></trkpt>
<trkpt lat="52.944389" lon="05.969606"><ele>32.7</ele><time>2021-03-19T10:42:09Z</time><name>PT4262</name></trkpt>
<trkpt lat="52.944394" lon="05.969610"><ele>32.6</ele><time>2021-03-19T10:42:10Z</time><name>PT4263</name></trkpt>
<trkpt lat="52.944396" lon="05.969615"><ele>32.7</ele><time>2021-03-19T10:42:11Z</time><name>PT4264</name></trkpt>
<trkpt lat="52.944396" lon="05.969624"><ele>32.7</ele><time>2021-03-19T10:42:12Z</time><name>PT4265</name></trkpt>
<trkpt lat="52.944399" lon="05.969636"><ele>32.9</ele><time>2021-03-19T10:42:13Z</time><name>PT4266</name></trkpt>
<trkpt lat="52.944402" lon="05.969645"><ele>33.1</ele><time>2021-03-19T10:42:14Z</time><name>PT4267</name></trkpt>
<trkpt lat="52.944404" lon="05.969655"><ele>33.1</ele><time>2021-03-19T10:42:15Z</time><name>PT4268</name></trkpt>
<trkpt lat="52.944405" lon="05.969667"><ele>33.1</ele><time>2021-03-19T10:42:16Z</time><name>PT4269</name></trkpt>
<trkpt lat="52.944409" lon="05.969684"><ele>32.9</ele><time>2021-03-19T10:42:17Z</time><name>PT4270</name></trkpt>
<trkpt lat="52.944411" lon="05.969697"><ele>32.9</ele><time>2021-03-19T10:42:18Z</time><name>PT4271</name></trkpt>
<trkpt lat="52.944413" lon="05.969708"><ele>32.8</ele><time>2021-03-19T10:42:19Z</time><name>PT4272</name></trkpt>
<trkpt lat="52.944413" lon="05.969721"><ele>33.1</ele><time>2021-03-19T10:42:20Z</time><name>PT4273</name></trkpt>
<trkpt lat="52.944410" lon="05.969731"><ele>33.1</ele><time>2021-03-19T10:42:21Z</time><name>PT4274</name></trkpt>
<trkpt lat="52.944410" lon="05.969738"><ele>33.1</ele><time>2021-03-19T10:42:22Z</time><name>PT4275</name></trkpt>
<trkpt lat="52.944410" lon="05.969740"><ele>33.1</ele><time>2021-03-19T10:42:23Z</time><name>PT4276</name></trkpt>
<trkpt lat="52.944410" lon="05.969742"><ele>32.8</ele><time>2021-03-19T10:42:24Z</time><name>PT4277</name></trkpt>
<trkpt lat="52.944410" lon="05.969747"><ele>32.9</ele><time>2021-03-19T10:42:25Z</time><name>PT4278</name></trkpt>
<trkpt lat="52.944409" lon="05.969753"><ele>33</ele><time>2021-03-19T10:42:26Z</time><name>PT4279</name></trkpt>
<trkpt lat="52.944399" lon="05.969740"><ele>32.7</ele><time>2021-03-19T10:42:52Z</time><name>PT4280</name></trkpt>
<trkpt lat="52.944390" lon="05.969748"><ele>32.7</ele><time>2021-03-19T10:42:53Z</time><name>PT4281</name></trkpt>
<trkpt lat="52.944372" lon="05.969754"><ele>32.7</ele><time>2021-03-19T10:42:54Z</time><name>PT4282</name></trkpt>
<trkpt lat="52.944358" lon="05.969754"><ele>32.7</ele><time>2021-03-19T10:42:55Z</time><name>PT4283</name></trkpt>
<trkpt lat="52.944341" lon="05.969755"><ele>32.6</ele><time>2021-03-19T10:42:56Z</time><name>PT4284</name></trkpt>
<trkpt lat="52.944324" lon="05.969759"><ele>32.5</ele><time>2021-03-19T10:42:57Z</time><name>PT4285</name></trkpt>
<trkpt lat="52.944316" lon="05.969762"><ele>32.3</ele><time>2021-03-19T10:42:58Z</time><name>PT4286</name></trkpt>
<trkpt lat="52.944305" lon="05.969765"><ele>32.4</ele><time>2021-03-19T10:42:59Z</time><name>PT4287</name></trkpt>
<trkpt lat="52.944300" lon="05.969767"><ele>32.4</ele><time>2021-03-19T10:43:00Z</time><name>PT4288</name></trkpt>
<trkpt lat="52.944288" lon="05.969776"><ele>32.7</ele><time>2021-03-19T10:43:01Z</time><name>PT4289</name></trkpt>
<trkpt lat="52.944280" lon="05.969779"><ele>32.9</ele><time>2021-03-19T10:43:02Z</time><name>PT4290</name></trkpt>
<trkpt lat="52.944269" lon="05.969776"><ele>32.9</ele><time>2021-03-19T10:43:03Z</time><name>PT4291</name></trkpt>
<trkpt lat="52.944261" lon="05.969782"><ele>32.7</ele><time>2021-03-19T10:43:04Z</time><name>PT4292</name></trkpt>
<trkpt lat="52.944249" lon="05.969782"><ele>32.7</ele><time>2021-03-19T10:43:05Z</time><name>PT4293</name></trkpt>
<trkpt lat="52.944234" lon="05.969781"><ele>32.6</ele><time>2021-03-19T10:43:06Z</time><name>PT4294</name></trkpt>
<trkpt lat="52.944221" lon="05.969783"><ele>32.5</ele><time>2021-03-19T10:43:07Z</time><name>PT4295</name></trkpt>
<trkpt lat="52.944206" lon="05.969787"><ele>32.7</ele><time>2021-03-19T10:43:08Z</time><name>PT4296</name></trkpt>
<trkpt lat="52.944190" lon="05.969789"><ele>32.7</ele><time>2021-03-19T10:43:09Z</time><name>PT4297</name></trkpt>
<trkpt lat="52.944174" lon="05.969788"><ele>32.7</ele><time>2021-03-19T10:43:10Z</time><name>PT4298</name></trkpt>
<trkpt lat="52.944162" lon="05.969784"><ele>32.7</ele><time>2021-03-19T10:43:11Z</time><name>PT4299</name></trkpt>
<trkpt lat="52.944152" lon="05.969786"><ele>32.7</ele><time>2021-03-19T10:43:12Z</time><name>PT4300</name></trkpt>
<trkpt lat="52.944141" lon="05.969789"><ele>32.3</ele><time>2021-03-19T10:43:13Z</time><name>PT4301</name></trkpt>
<trkpt lat="52.944130" lon="05.969791"><ele>32.2</ele><time>2021-03-19T10:43:14Z</time><name>PT4302</name></trkpt>
<trkpt lat="52.944116" lon="05.969793"><ele>32.1</ele><time>2021-03-19T10:43:15Z</time><name>PT4303</name></trkpt>
<trkpt lat="52.944103" lon="05.969797"><ele>31.9</ele><time>2021-03-19T10:43:16Z</time><name>PT4304</name></trkpt>
<trkpt lat="52.944093" lon="05.969801"><ele>31.9</ele><time>2021-03-19T10:43:17Z</time><name>PT4305</name></trkpt>
<trkpt lat="52.944081" lon="05.969802"><ele>32</ele><time>2021-03-19T10:43:18Z</time><name>PT4306</name></trkpt>
<trkpt lat="52.944068" lon="05.969807"><ele>32</ele><time>2021-03-19T10:43:19Z</time><name>PT4307</name></trkpt>
<trkpt lat="52.944055" lon="05.969805"><ele>32.1</ele><time>2021-03-19T10:43:20Z</time><name>PT4308</name></trkpt>
<trkpt lat="52.944045" lon="05.969805"><ele>32.2</ele><time>2021-03-19T10:43:21Z</time><name>PT4309</name></trkpt>
<trkpt lat="52.944038" lon="05.969804"><ele>32.2</ele><time>2021-03-19T10:43:22Z</time><name>PT4310</name></trkpt>
<trkpt lat="52.944032" lon="05.969797"><ele>32.2</ele><time>2021-03-19T10:43:23Z</time><name>PT4311</name></trkpt>
<trkpt lat="52.944023" lon="05.969795"><ele>32.1</ele><time>2021-03-19T10:43:24Z</time><name>PT4312</name></trkpt>
<trkpt lat="52.944015" lon="05.969797"><ele>32.1</ele><time>2021-03-19T10:43:25Z</time><name>PT4313</name></trkpt>
<trkpt lat="52.944010" lon="05.969796"><ele>31.8</ele><time>2021-03-19T10:43:26Z</time><name>PT4314</name></trkpt>
<trkpt lat="52.943997" lon="05.969799"><ele>31.7</ele><time>2021-03-19T10:43:27Z</time><name>PT4315</name></trkpt>
<trkpt lat="52.943983" lon="05.969800"><ele>31.8</ele><time>2021-03-19T10:43:28Z</time><name>PT4316</name></trkpt>
<trkpt lat="52.943972" lon="05.969793"><ele>31.8</ele><time>2021-03-19T10:43:29Z</time><name>PT4317</name></trkpt>
<trkpt lat="52.943961" lon="05.969791"><ele>31.9</ele><time>2021-03-19T10:43:30Z</time><name>PT4318</name></trkpt>
<trkpt lat="52.943950" lon="05.969793"><ele>32.1</ele><time>2021-03-19T10:43:31Z</time><name>PT4319</name></trkpt>
<trkpt lat="52.943940" lon="05.969790"><ele>32.3</ele><time>2021-03-19T10:43:32Z</time><name>PT4320</name></trkpt>
<trkpt lat="52.943930" lon="05.969789"><ele>32.4</ele><time>2021-03-19T10:43:33Z</time><name>PT4321</name></trkpt>
<trkpt lat="52.943921" lon="05.969792"><ele>32.3</ele><time>2021-03-19T10:43:34Z</time><name>PT4322</name></trkpt>
<trkpt lat="52.943910" lon="05.969793"><ele>32.3</ele><time>2021-03-19T10:43:35Z</time><name>PT4323</name></trkpt>
<trkpt lat="52.943898" lon="05.969796"><ele>32.1</ele><time>2021-03-19T10:43:36Z</time><name>PT4324</name></trkpt>
<trkpt lat="52.943887" lon="05.969798"><ele>32.1</ele><time>2021-03-19T10:43:37Z</time><name>PT4325</name></trkpt>
<trkpt lat="52.943872" lon="05.969803"><ele>32</ele><time>2021-03-19T10:43:38Z</time><name>PT4326</name></trkpt>
<trkpt lat="52.943860" lon="05.969803"><ele>32.1</ele><time>2021-03-19T10:43:39Z</time><name>PT4327</name></trkpt>
<trkpt lat="52.943850" lon="05.969806"><ele>32</ele><time>2021-03-19T10:43:40Z</time><name>PT4328</name></trkpt>
<trkpt lat="52.943840" lon="05.969812"><ele>32</ele><time>2021-03-19T10:43:41Z</time><name>PT4329</name></trkpt>
<trkpt lat="52.943829" lon="05.969819"><ele>32.1</ele><time>2021-03-19T10:43:42Z</time><name>PT4330</name></trkpt>
<trkpt lat="52.943821" lon="05.969824"><ele>32</ele><time>2021-03-19T10:43:43Z</time><name>PT4331</name></trkpt>
<trkpt lat="52.943806" lon="05.969830"><ele>32</ele><time>2021-03-19T10:43:44Z</time><name>PT4332</name></trkpt>
<trkpt lat="52.943792" lon="05.969835"><ele>32</ele><time>2021-03-19T10:43:45Z</time><name>PT4333</name></trkpt>
<trkpt lat="52.943774" lon="05.969840"><ele>32</ele><time>2021-03-19T10:43:46Z</time><name>PT4334</name></trkpt>
<trkpt lat="52.943759" lon="05.969844"><ele>32</ele><time>2021-03-19T10:43:47Z</time><name>PT4335</name></trkpt>
<trkpt lat="52.943750" lon="05.969843"><ele>32</ele><time>2021-03-19T10:43:48Z</time><name>PT4336</name></trkpt>
<trkpt lat="52.943739" lon="05.969846"><ele>31.8</ele><time>2021-03-19T10:43:49Z</time><name>PT4337</name></trkpt>
<trkpt lat="52.943727" lon="05.969852"><ele>32.1</ele><time>2021-03-19T10:43:50Z</time><name>PT4338</name></trkpt>
<trkpt lat="52.943717" lon="05.969857"><ele>32.1</ele><time>2021-03-19T10:43:51Z</time><name>PT4339</name></trkpt>
<trkpt lat="52.943706" lon="05.969865"><ele>32.1</ele><time>2021-03-19T10:43:52Z</time><name>PT4340</name></trkpt>
<trkpt lat="52.943693" lon="05.969871"><ele>32.2</ele><time>2021-03-19T10:43:53Z</time><name>PT4341</name></trkpt>
<trkpt lat="52.943680" lon="05.969874"><ele>32.1</ele><time>2021-03-19T10:43:54Z</time><name>PT4342</name></trkpt>
<trkpt lat="52.943672" lon="05.969871"><ele>31.8</ele><time>2021-03-19T10:43:55Z</time><name>PT4343</name></trkpt>
<trkpt lat="52.943662" lon="05.969871"><ele>31.7</ele><time>2021-03-19T10:43:56Z</time><name>PT4344</name></trkpt>
<trkpt lat="52.943654" lon="05.969872"><ele>31.7</ele><time>2021-03-19T10:43:57Z</time><name>PT4345</name></trkpt>
<trkpt lat="52.943645" lon="05.969873"><ele>31.7</ele><time>2021-03-19T10:43:58Z</time><name>PT4346</name></trkpt>
<trkpt lat="52.943635" lon="05.969879"><ele>31.7</ele><time>2021-03-19T10:43:59Z</time><name>PT4347</name></trkpt>
<trkpt lat="52.943623" lon="05.969886"><ele>31.9</ele><time>2021-03-19T10:44:00Z</time><name>PT4348</name></trkpt>
<trkpt lat="52.943611" lon="05.969886"><ele>32.1</ele><time>2021-03-19T10:44:01Z</time><name>PT4349</name></trkpt>
<trkpt lat="52.943600" lon="05.969887"><ele>32.1</ele><time>2021-03-19T10:44:02Z</time><name>PT4350</name></trkpt>
<trkpt lat="52.943588" lon="05.969884"><ele>31.9</ele><time>2021-03-19T10:44:03Z</time><name>PT4351</name></trkpt>
<trkpt lat="52.943576" lon="05.969885"><ele>32</ele><time>2021-03-19T10:44:04Z</time><name>PT4352</name></trkpt>
<trkpt lat="52.943565" lon="05.969885"><ele>31.8</ele><time>2021-03-19T10:44:05Z</time><name>PT4353</name></trkpt>
<trkpt lat="52.943556" lon="05.969883"><ele>31.7</ele><time>2021-03-19T10:44:06Z</time><name>PT4354</name></trkpt>
<trkpt lat="52.943543" lon="05.969881"><ele>31.8</ele><time>2021-03-19T10:44:07Z</time><name>PT4355</name></trkpt>
<trkpt lat="52.943531" lon="05.969876"><ele>32</ele><time>2021-03-19T10:44:08Z</time><name>PT4356</name></trkpt>
<trkpt lat="52.943521" lon="05.969871"><ele>31.9</ele><time>2021-03-19T10:44:09Z</time><name>PT4357</name></trkpt>
<trkpt lat="52.943512" lon="05.969865"><ele>32</ele><time>2021-03-19T10:44:10Z</time><name>PT4358</name></trkpt>
<trkpt lat="52.943501" lon="05.969865"><ele>32.1</ele><time>2021-03-19T10:44:11Z</time><name>PT4359</name></trkpt>
<trkpt lat="52.943494" lon="05.969865"><ele>32</ele><time>2021-03-19T10:44:12Z</time><name>PT4360</name></trkpt>
<trkpt lat="52.943489" lon="05.969861"><ele>32</ele><time>2021-03-19T10:44:13Z</time><name>PT4361</name></trkpt>
<trkpt lat="52.943487" lon="05.969859"><ele>32</ele><time>2021-03-19T10:44:14Z</time><name>PT4362</name></trkpt>
<trkpt lat="52.943484" lon="05.969858"><ele>31.9</ele><time>2021-03-19T10:44:15Z</time><name>PT4363</name></trkpt>
<trkpt lat="52.943482" lon="05.969857"><ele>31.8</ele><time>2021-03-19T10:44:16Z</time><name>PT4364</name></trkpt>
<trkpt lat="52.943482" lon="05.969859"><ele>32</ele><time>2021-03-19T10:44:43Z</time><name>PT4365</name></trkpt>
<trkpt lat="52.943478" lon="05.969860"><ele>32.3</ele><time>2021-03-19T10:44:44Z</time><name>PT4366</name></trkpt>
<trkpt lat="52.943473" lon="05.969865"><ele>32.2</ele><time>2021-03-19T10:44:45Z</time><name>PT4367</name></trkpt>
<trkpt lat="52.943465" lon="05.969876"><ele>32.2</ele><time>2021-03-19T10:44:46Z</time><name>PT4368</name></trkpt>
<trkpt lat="52.943457" lon="05.969884"><ele>32.1</ele><time>2021-03-19T10:44:47Z</time><name>PT4369</name></trkpt>
<trkpt lat="52.943450" lon="05.969887"><ele>32</ele><time>2021-03-19T10:44:48Z</time><name>PT4370</name></trkpt>
<trkpt lat="52.943446" lon="05.969895"><ele>31.7</ele><time>2021-03-19T10:44:49Z</time><name>PT4371</name></trkpt>
<trkpt lat="52.943441" lon="05.969903"><ele>31.7</ele><time>2021-03-19T10:44:50Z</time><name>PT4372</name></trkpt>
<trkpt lat="52.943436" lon="05.969909"><ele>31.7</ele><time>2021-03-19T10:44:51Z</time><name>PT4373</name></trkpt>
<trkpt lat="52.943426" lon="05.969910"><ele>31.8</ele><time>2021-03-19T10:44:52Z</time><name>PT4374</name></trkpt>
<trkpt lat="52.943421" lon="05.969919"><ele>31.9</ele><time>2021-03-19T10:44:53Z</time><name>PT4375</name></trkpt>
<trkpt lat="52.943414" lon="05.969923"><ele>31.9</ele><time>2021-03-19T10:44:54Z</time><name>PT4376</name></trkpt>
<trkpt lat="52.943407" lon="05.969921"><ele>32.1</ele><time>2021-03-19T10:44:55Z</time><name>PT4377</name></trkpt>
<trkpt lat="52.943399" lon="05.969925"><ele>32.1</ele><time>2021-03-19T10:44:56Z</time><name>PT4378</name></trkpt>
<trkpt lat="52.943395" lon="05.969931"><ele>32</ele><time>2021-03-19T10:44:57Z</time><name>PT4379</name></trkpt>
<trkpt lat="52.943392" lon="05.969934"><ele>32.2</ele><time>2021-03-19T10:44:58Z</time><name>PT4380</name></trkpt>
<trkpt lat="52.943390" lon="05.969937"><ele>32.2</ele><time>2021-03-19T10:44:59Z</time><name>PT4381</name></trkpt>
<trkpt lat="52.943384" lon="05.969927"><ele>32</ele><time>2021-03-19T10:45:09Z</time><name>PT4382</name></trkpt>
<trkpt lat="52.943382" lon="05.969926"><ele>32.2</ele><time>2021-03-19T10:45:10Z</time><name>PT4383</name></trkpt>
<trkpt lat="52.943381" lon="05.969918"><ele>32.2</ele><time>2021-03-19T10:46:14Z</time><name>PT4384</name></trkpt>
<trkpt lat="52.943377" lon="05.969914"><ele>32.1</ele><time>2021-03-19T10:46:15Z</time><name>PT4385</name></trkpt>
<trkpt lat="52.943376" lon="05.969911"><ele>32.1</ele><time>2021-03-19T10:46:16Z</time><name>PT4386</name></trkpt>
<trkpt lat="52.943376" lon="05.969908"><ele>31.7</ele><time>2021-03-19T10:46:31Z</time><name>PT4387</name></trkpt>
<trkpt lat="52.943373" lon="05.969913"><ele>31.8</ele><time>2021-03-19T10:46:32Z</time><name>PT4388</name></trkpt>
<trkpt lat="52.943371" lon="05.969913"><ele>31.9</ele><time>2021-03-19T10:46:33Z</time><name>PT4389</name></trkpt>
<trkpt lat="52.943368" lon="05.969913"><ele>32.1</ele><time>2021-03-19T10:46:34Z</time><name>PT4390</name></trkpt>
<trkpt lat="52.943362" lon="05.969917"><ele>32.1</ele><time>2021-03-19T10:46:35Z</time><name>PT4391</name></trkpt>
<trkpt lat="52.943356" lon="05.969927"><ele>32.2</ele><time>2021-03-19T10:46:36Z</time><name>PT4392</name></trkpt>
<trkpt lat="52.943351" lon="05.969938"><ele>32.1</ele><time>2021-03-19T10:46:37Z</time><name>PT4393</name></trkpt>
<trkpt lat="52.943348" lon="05.969941"><ele>32.2</ele><time>2021-03-19T10:46:38Z</time><name>PT4394</name></trkpt>
<trkpt lat="52.943343" lon="05.969947"><ele>32.2</ele><time>2021-03-19T10:46:39Z</time><name>PT4395</name></trkpt>
<trkpt lat="52.943339" lon="05.969953"><ele>32.3</ele><time>2021-03-19T10:46:40Z</time><name>PT4396</name></trkpt>
<trkpt lat="52.943332" lon="05.969957"><ele>32.1</ele><time>2021-03-19T10:46:41Z</time><name>PT4397</name></trkpt>
<trkpt lat="52.943323" lon="05.969961"><ele>32.2</ele><time>2021-03-19T10:46:42Z</time><name>PT4398</name></trkpt>
<trkpt lat="52.943316" lon="05.969965"><ele>32.1</ele><time>2021-03-19T10:46:43Z</time><name>PT4399</name></trkpt>
<trkpt lat="52.943309" lon="05.969967"><ele>32</ele><time>2021-03-19T10:46:44Z</time><name>PT4400</name></trkpt>
<trkpt lat="52.943309" lon="05.969966"><ele>32</ele><time>2021-03-19T10:46:45Z</time><name>PT4401</name></trkpt>
<trkpt lat="52.943311" lon="05.969965"><ele>32.1</ele><time>2021-03-19T10:46:46Z</time><name>PT4402</name></trkpt>
<trkpt lat="52.943309" lon="05.969964"><ele>32</ele><time>2021-03-19T10:46:47Z</time><name>PT4403</name></trkpt>
<trkpt lat="52.943308" lon="05.969964"><ele>32.1</ele><time>2021-03-19T10:46:48Z</time><name>PT4404</name></trkpt>
<trkpt lat="52.943304" lon="05.969965"><ele>32.2</ele><time>2021-03-19T10:46:49Z</time><name>PT4405</name></trkpt>
<trkpt lat="52.943299" lon="05.969968"><ele>32.2</ele><time>2021-03-19T10:46:50Z</time><name>PT4406</name></trkpt>
<trkpt lat="52.943292" lon="05.969976"><ele>32.1</ele><time>2021-03-19T10:46:51Z</time><name>PT4407</name></trkpt>
<trkpt lat="52.943283" lon="05.969989"><ele>32.1</ele><time>2021-03-19T10:46:52Z</time><name>PT4408</name></trkpt>
<trkpt lat="52.943278" lon="05.970003"><ele>31.9</ele><time>2021-03-19T10:46:53Z</time><name>PT4409</name></trkpt>
<trkpt lat="52.943274" lon="05.970012"><ele>32</ele><time>2021-03-19T10:46:54Z</time><name>PT4410</name></trkpt>
<trkpt lat="52.943270" lon="05.970019"><ele>32</ele><time>2021-03-19T10:46:55Z</time><name>PT4411</name></trkpt>
<trkpt lat="52.943260" lon="05.970024"><ele>32</ele><time>2021-03-19T10:46:56Z</time><name>PT4412</name></trkpt>
<trkpt lat="52.943249" lon="05.970030"><ele>32</ele><time>2021-03-19T10:46:57Z</time><name>PT4413</name></trkpt>
<trkpt lat="52.943242" lon="05.970035"><ele>32.2</ele><time>2021-03-19T10:46:58Z</time><name>PT4414</name></trkpt>
<trkpt lat="52.943234" lon="05.970043"><ele>32.1</ele><time>2021-03-19T10:46:59Z</time><name>PT4415</name></trkpt>
<trkpt lat="52.943226" lon="05.970053"><ele>32</ele><time>2021-03-19T10:47:00Z</time><name>PT4416</name></trkpt>
<trkpt lat="52.943219" lon="05.970060"><ele>32.2</ele><time>2021-03-19T10:47:01Z</time><name>PT4417</name></trkpt>
<trkpt lat="52.943208" lon="05.970066"><ele>32.2</ele><time>2021-03-19T10:47:02Z</time><name>PT4418</name></trkpt>
<trkpt lat="52.943200" lon="05.970066"><ele>32.2</ele><time>2021-03-19T10:47:03Z</time><name>PT4419</name></trkpt>
<trkpt lat="52.943195" lon="05.970066"><ele>32.2</ele><time>2021-03-19T10:47:04Z</time><name>PT4420</name></trkpt>
<trkpt lat="52.943186" lon="05.970072"><ele>32.2</ele><time>2021-03-19T10:47:05Z</time><name>PT4421</name></trkpt>
<trkpt lat="52.943178" lon="05.970079"><ele>32.2</ele><time>2021-03-19T10:47:06Z</time><name>PT4422</name></trkpt>
<trkpt lat="52.943166" lon="05.970089"><ele>32.2</ele><time>2021-03-19T10:47:07Z</time><name>PT4423</name></trkpt>
<trkpt lat="52.943158" lon="05.970096"><ele>32.1</ele><time>2021-03-19T10:47:08Z</time><name>PT4424</name></trkpt>
<trkpt lat="52.943148" lon="05.970105"><ele>32.2</ele><time>2021-03-19T10:47:09Z</time><name>PT4425</name></trkpt>
<trkpt lat="52.943139" lon="05.970114"><ele>32.2</ele><time>2021-03-19T10:47:10Z</time><name>PT4426</name></trkpt>
<trkpt lat="52.943128" lon="05.970123"><ele>32.2</ele><time>2021-03-19T10:47:11Z</time><name>PT4427</name></trkpt>
<trkpt lat="52.943119" lon="05.970126"><ele>32.2</ele><time>2021-03-19T10:47:12Z</time><name>PT4428</name></trkpt>
<trkpt lat="52.943107" lon="05.970131"><ele>32.4</ele><time>2021-03-19T10:47:13Z</time><name>PT4429</name></trkpt>
<trkpt lat="52.943095" lon="05.970134"><ele>32.3</ele><time>2021-03-19T10:47:14Z</time><name>PT4430</name></trkpt>
<trkpt lat="52.943084" lon="05.970139"><ele>32.4</ele><time>2021-03-19T10:47:15Z</time><name>PT4431</name></trkpt>
<trkpt lat="52.943072" lon="05.970147"><ele>32.3</ele><time>2021-03-19T10:47:16Z</time><name>PT4432</name></trkpt>
<trkpt lat="52.943059" lon="05.970152"><ele>32.4</ele><time>2021-03-19T10:47:17Z</time><name>PT4433</name></trkpt>
<trkpt lat="52.943049" lon="05.970158"><ele>32.4</ele><time>2021-03-19T10:47:18Z</time><name>PT4434</name></trkpt>
<trkpt lat="52.943039" lon="05.970163"><ele>32.3</ele><time>2021-03-19T10:47:19Z</time><name>PT4435</name></trkpt>
<trkpt lat="52.943031" lon="05.970164"><ele>32.2</ele><time>2021-03-19T10:47:20Z</time><name>PT4436</name></trkpt>
<trkpt lat="52.943024" lon="05.970165"><ele>32.2</ele><time>2021-03-19T10:47:21Z</time><name>PT4437</name></trkpt>
<trkpt lat="52.943012" lon="05.970170"><ele>32.1</ele><time>2021-03-19T10:47:22Z</time><name>PT4438</name></trkpt>
<trkpt lat="52.943003" lon="05.970173"><ele>32</ele><time>2021-03-19T10:47:23Z</time><name>PT4439</name></trkpt>
<trkpt lat="52.942994" lon="05.970176"><ele>31.9</ele><time>2021-03-19T10:47:24Z</time><name>PT4440</name></trkpt>
<trkpt lat="52.942985" lon="05.970178"><ele>31.8</ele><time>2021-03-19T10:47:25Z</time><name>PT4441</name></trkpt>
<trkpt lat="52.942974" lon="05.970181"><ele>31.7</ele><time>2021-03-19T10:47:26Z</time><name>PT4442</name></trkpt>
<trkpt lat="52.942961" lon="05.970187"><ele>31.7</ele><time>2021-03-19T10:47:27Z</time><name>PT4443</name></trkpt>
<trkpt lat="52.942951" lon="05.970195"><ele>31.7</ele><time>2021-03-19T10:47:28Z</time><name>PT4444</name></trkpt>
<trkpt lat="52.942935" lon="05.970208"><ele>31.7</ele><time>2021-03-19T10:47:29Z</time><name>PT4445</name></trkpt>
<trkpt lat="52.942920" lon="05.970219"><ele>31.8</ele><time>2021-03-19T10:47:30Z</time><name>PT4446</name></trkpt>
<trkpt lat="52.942910" lon="05.970228"><ele>31.9</ele><time>2021-03-19T10:47:31Z</time><name>PT4447</name></trkpt>
<trkpt lat="52.942902" lon="05.970238"><ele>32.1</ele><time>2021-03-19T10:47:32Z</time><name>PT4448</name></trkpt>
<trkpt lat="52.942889" lon="05.970253"><ele>32</ele><time>2021-03-19T10:47:33Z</time><name>PT4449</name></trkpt>
<trkpt lat="52.942874" lon="05.970265"><ele>32.2</ele><time>2021-03-19T10:47:34Z</time><name>PT4450</name></trkpt>
<trkpt lat="52.942862" lon="05.970275"><ele>32.1</ele><time>2021-03-19T10:47:35Z</time><name>PT4451</name></trkpt>
<trkpt lat="52.942853" lon="05.970282"><ele>32</ele><time>2021-03-19T10:47:36Z</time><name>PT4452</name></trkpt>
<trkpt lat="52.942842" lon="05.970291"><ele>31.9</ele><time>2021-03-19T10:47:37Z</time><name>PT4453</name></trkpt>
<trkpt lat="52.942828" lon="05.970307"><ele>31.8</ele><time>2021-03-19T10:47:38Z</time><name>PT4454</name></trkpt>
<trkpt lat="52.942817" lon="05.970318"><ele>31.8</ele><time>2021-03-19T10:47:39Z</time><name>PT4455</name></trkpt>
<trkpt lat="52.942805" lon="05.970328"><ele>31.9</ele><time>2021-03-19T10:47:40Z</time><name>PT4456</name></trkpt>
<trkpt lat="52.942794" lon="05.970342"><ele>32</ele><time>2021-03-19T10:47:41Z</time><name>PT4457</name></trkpt>
<trkpt lat="52.942787" lon="05.970354"><ele>32</ele><time>2021-03-19T10:47:42Z</time><name>PT4458</name></trkpt>
<trkpt lat="52.942778" lon="05.970367"><ele>32.1</ele><time>2021-03-19T10:47:43Z</time><name>PT4459</name></trkpt>
<trkpt lat="52.942771" lon="05.970375"><ele>32.1</ele><time>2021-03-19T10:47:44Z</time><name>PT4460</name></trkpt>
<trkpt lat="52.942760" lon="05.970382"><ele>32.2</ele><time>2021-03-19T10:47:45Z</time><name>PT4461</name></trkpt>
<trkpt lat="52.942748" lon="05.970391"><ele>32.3</ele><time>2021-03-19T10:47:46Z</time><name>PT4462</name></trkpt>
<trkpt lat="52.942736" lon="05.970402"><ele>32.6</ele><time>2021-03-19T10:47:47Z</time><name>PT4463</name></trkpt>
<trkpt lat="52.942728" lon="05.970415"><ele>32.7</ele><time>2021-03-19T10:47:48Z</time><name>PT4464</name></trkpt>
<trkpt lat="52.942719" lon="05.970428"><ele>32.6</ele><time>2021-03-19T10:47:49Z</time><name>PT4465</name></trkpt>
<trkpt lat="52.942709" lon="05.970436"><ele>32.3</ele><time>2021-03-19T10:47:50Z</time><name>PT4466</name></trkpt>
<trkpt lat="52.942696" lon="05.970446"><ele>32.3</ele><time>2021-03-19T10:47:51Z</time><name>PT4467</name></trkpt>
<trkpt lat="52.942688" lon="05.970450"><ele>32.2</ele><time>2021-03-19T10:47:52Z</time><name>PT4468</name></trkpt>
<trkpt lat="52.942681" lon="05.970459"><ele>32.3</ele><time>2021-03-19T10:47:53Z</time><name>PT4469</name></trkpt>
<trkpt lat="52.942673" lon="05.970469"><ele>32.2</ele><time>2021-03-19T10:47:54Z</time><name>PT4470</name></trkpt>
<trkpt lat="52.942667" lon="05.970471"><ele>32.3</ele><time>2021-03-19T10:47:55Z</time><name>PT4471</name></trkpt>
<trkpt lat="52.942660" lon="05.970479"><ele>32.3</ele><time>2021-03-19T10:47:56Z</time><name>PT4472</name></trkpt>
<trkpt lat="52.942653" lon="05.970483"><ele>32.5</ele><time>2021-03-19T10:47:57Z</time><name>PT4473</name></trkpt>
<trkpt lat="52.942644" lon="05.970485"><ele>32.4</ele><time>2021-03-19T10:47:58Z</time><name>PT4474</name></trkpt>
<trkpt lat="52.942637" lon="05.970490"><ele>32.6</ele><time>2021-03-19T10:47:59Z</time><name>PT4475</name></trkpt>
<trkpt lat="52.942629" lon="05.970498"><ele>32.6</ele><time>2021-03-19T10:48:00Z</time><name>PT4476</name></trkpt>
<trkpt lat="52.942623" lon="05.970502"><ele>32.7</ele><time>2021-03-19T10:48:01Z</time><name>PT4477</name></trkpt>
<trkpt lat="52.942613" lon="05.970505"><ele>32.5</ele><time>2021-03-19T10:48:02Z</time><name>PT4478</name></trkpt>
<trkpt lat="52.942605" lon="05.970512"><ele>32.5</ele><time>2021-03-19T10:48:03Z</time><name>PT4479</name></trkpt>
<trkpt lat="52.942599" lon="05.970517"><ele>32.3</ele><time>2021-03-19T10:48:04Z</time><name>PT4480</name></trkpt>
<trkpt lat="52.942591" lon="05.970524"><ele>32.2</ele><time>2021-03-19T10:48:05Z</time><name>PT4481</name></trkpt>
<trkpt lat="52.942584" lon="05.970530"><ele>32.3</ele><time>2021-03-19T10:48:06Z</time><name>PT4482</name></trkpt>
<trkpt lat="52.942575" lon="05.970534"><ele>32.3</ele><time>2021-03-19T10:48:07Z</time><name>PT4483</name></trkpt>
<trkpt lat="52.942567" lon="05.970538"><ele>32.5</ele><time>2021-03-19T10:48:08Z</time><name>PT4484</name></trkpt>
<trkpt lat="52.942559" lon="05.970550"><ele>32.6</ele><time>2021-03-19T10:48:09Z</time><name>PT4485</name></trkpt>
<trkpt lat="52.942550" lon="05.970561"><ele>32.7</ele><time>2021-03-19T10:48:10Z</time><name>PT4486</name></trkpt>
<trkpt lat="52.942541" lon="05.970572"><ele>32.7</ele><time>2021-03-19T10:48:11Z</time><name>PT4487</name></trkpt>
<trkpt lat="52.942536" lon="05.970589"><ele>32.7</ele><time>2021-03-19T10:48:12Z</time><name>PT4488</name></trkpt>
<trkpt lat="52.942532" lon="05.970606"><ele>32.7</ele><time>2021-03-19T10:48:13Z</time><name>PT4489</name></trkpt>
<trkpt lat="52.942530" lon="05.970622"><ele>32.7</ele><time>2021-03-19T10:48:14Z</time><name>PT4490</name></trkpt>
<trkpt lat="52.942532" lon="05.970640"><ele>32.7</ele><time>2021-03-19T10:48:15Z</time><name>PT4491</name></trkpt>
<trkpt lat="52.942531" lon="05.970656"><ele>32.7</ele><time>2021-03-19T10:48:16Z</time><name>PT4492</name></trkpt>
<trkpt lat="52.942530" lon="05.970670"><ele>32.7</ele><time>2021-03-19T10:48:17Z</time><name>PT4493</name></trkpt>
<trkpt lat="52.942529" lon="05.970688"><ele>32.7</ele><time>2021-03-19T10:48:18Z</time><name>PT4494</name></trkpt>
<trkpt lat="52.942530" lon="05.970702"><ele>32.7</ele><time>2021-03-19T10:48:19Z</time><name>PT4495</name></trkpt>
<trkpt lat="52.942530" lon="05.970722"><ele>32.9</ele><time>2021-03-19T10:48:20Z</time><name>PT4496</name></trkpt>
<trkpt lat="52.942538" lon="05.970736"><ele>33</ele><time>2021-03-19T10:48:21Z</time><name>PT4497</name></trkpt>
<trkpt lat="52.942541" lon="05.970757"><ele>33</ele><time>2021-03-19T10:48:22Z</time><name>PT4498</name></trkpt>
<trkpt lat="52.942547" lon="05.970771"><ele>33.1</ele><time>2021-03-19T10:48:23Z</time><name>PT4499</name></trkpt>
<trkpt lat="52.942549" lon="05.970785"><ele>33.1</ele><time>2021-03-19T10:48:24Z</time><name>PT4500</name></trkpt>
<trkpt lat="52.942552" lon="05.970797"><ele>33</ele><time>2021-03-19T10:48:25Z</time><name>PT4501</name></trkpt>
<trkpt lat="52.942553" lon="05.970813"><ele>32.9</ele><time>2021-03-19T10:48:26Z</time><name>PT4502</name></trkpt>
<trkpt lat="52.942557" lon="05.970828"><ele>33</ele><time>2021-03-19T10:48:27Z</time><name>PT4503</name></trkpt>
<trkpt lat="52.942562" lon="05.970837"><ele>32.8</ele><time>2021-03-19T10:48:28Z</time><name>PT4504</name></trkpt>
<trkpt lat="52.942565" lon="05.970848"><ele>33</ele><time>2021-03-19T10:48:29Z</time><name>PT4505</name></trkpt>
<trkpt lat="52.942565" lon="05.970863"><ele>32.9</ele><time>2021-03-19T10:48:30Z</time><name>PT4506</name></trkpt>
<trkpt lat="52.942573" lon="05.970875"><ele>32.9</ele><time>2021-03-19T10:48:31Z</time><name>PT4507</name></trkpt>
<trkpt lat="52.942571" lon="05.970884"><ele>32.9</ele><time>2021-03-19T10:48:32Z</time><name>PT4508</name></trkpt>
<trkpt lat="52.942572" lon="05.970897"><ele>33</ele><time>2021-03-19T10:48:33Z</time><name>PT4509</name></trkpt>
<trkpt lat="52.942578" lon="05.970909"><ele>32.9</ele><time>2021-03-19T10:48:34Z</time><name>PT4510</name></trkpt>
<trkpt lat="52.942585" lon="05.970918"><ele>33.1</ele><time>2021-03-19T10:48:35Z</time><name>PT4511</name></trkpt>
<trkpt lat="52.942595" lon="05.970924"><ele>33</ele><time>2021-03-19T10:48:36Z</time><name>PT4512</name></trkpt>
<trkpt lat="52.942604" lon="05.970936"><ele>33.1</ele><time>2021-03-19T10:48:37Z</time><name>PT4513</name></trkpt>
<trkpt lat="52.942610" lon="05.970944"><ele>33.1</ele><time>2021-03-19T10:48:38Z</time><name>PT4514</name></trkpt>
<trkpt lat="52.942616" lon="05.970955"><ele>33</ele><time>2021-03-19T10:48:39Z</time><name>PT4515</name></trkpt>
<trkpt lat="52.942621" lon="05.970967"><ele>33.1</ele><time>2021-03-19T10:48:40Z</time><name>PT4516</name></trkpt>
<trkpt lat="52.942628" lon="05.970978"><ele>33.1</ele><time>2021-03-19T10:48:41Z</time><name>PT4517</name></trkpt>
<trkpt lat="52.942632" lon="05.970994"><ele>33.1</ele><time>2021-03-19T10:48:42Z</time><name>PT4518</name></trkpt>
<trkpt lat="52.942642" lon="05.971004"><ele>33.3</ele><time>2021-03-19T10:48:43Z</time><name>PT4519</name></trkpt>
<trkpt lat="52.942647" lon="05.971021"><ele>33.2</ele><time>2021-03-19T10:48:44Z</time><name>PT4520</name></trkpt>
<trkpt lat="52.942651" lon="05.971035"><ele>33.3</ele><time>2021-03-19T10:48:45Z</time><name>PT4521</name></trkpt>
<trkpt lat="52.942660" lon="05.971044"><ele>33.2</ele><time>2021-03-19T10:48:46Z</time><name>PT4522</name></trkpt>
<trkpt lat="52.942668" lon="05.971052"><ele>33.1</ele><time>2021-03-19T10:48:47Z</time><name>PT4523</name></trkpt>
<trkpt lat="52.942677" lon="05.971059"><ele>33.1</ele><time>2021-03-19T10:48:48Z</time><name>PT4524</name></trkpt>
<trkpt lat="52.942684" lon="05.971070"><ele>33.1</ele><time>2021-03-19T10:48:49Z</time><name>PT4525</name></trkpt>
<trkpt lat="52.942687" lon="05.971078"><ele>33.1</ele><time>2021-03-19T10:48:50Z</time><name>PT4526</name></trkpt>
<trkpt lat="52.942694" lon="05.971090"><ele>33.1</ele><time>2021-03-19T10:48:51Z</time><name>PT4527</name></trkpt>
<trkpt lat="52.942699" lon="05.971103"><ele>33.1</ele><time>2021-03-19T10:48:52Z</time><name>PT4528</name></trkpt>
<trkpt lat="52.942704" lon="05.971113"><ele>33.1</ele><time>2021-03-19T10:48:53Z</time><name>PT4529</name></trkpt>
<trkpt lat="52.942708" lon="05.971122"><ele>33.1</ele><time>2021-03-19T10:48:54Z</time><name>PT4530</name></trkpt>
<trkpt lat="52.942716" lon="05.971128"><ele>33</ele><time>2021-03-19T10:48:55Z</time><name>PT4531</name></trkpt>
<trkpt lat="52.942723" lon="05.971140"><ele>33.2</ele><time>2021-03-19T10:48:56Z</time><name>PT4532</name></trkpt>
<trkpt lat="52.942735" lon="05.971146"><ele>33.1</ele><time>2021-03-19T10:48:57Z</time><name>PT4533</name></trkpt>
<trkpt lat="52.942743" lon="05.971157"><ele>33.2</ele><time>2021-03-19T10:48:58Z</time><name>PT4534</name></trkpt>
<trkpt lat="52.942749" lon="05.971169"><ele>33.1</ele><time>2021-03-19T10:48:59Z</time><name>PT4535</name></trkpt>
<trkpt lat="52.942753" lon="05.971187"><ele>33.1</ele><time>2021-03-19T10:49:00Z</time><name>PT4536</name></trkpt>
<trkpt lat="52.942757" lon="05.971202"><ele>33.1</ele><time>2021-03-19T10:49:01Z</time><name>PT4537</name></trkpt>
<trkpt lat="52.942765" lon="05.971221"><ele>32.9</ele><time>2021-03-19T10:49:02Z</time><name>PT4538</name></trkpt>
<trkpt lat="52.942780" lon="05.971233"><ele>32.9</ele><time>2021-03-19T10:49:03Z</time><name>PT4539</name></trkpt>
<trkpt lat="52.942788" lon="05.971254"><ele>32.7</ele><time>2021-03-19T10:49:04Z</time><name>PT4540</name></trkpt>
<trkpt lat="52.942796" lon="05.971273"><ele>32.8</ele><time>2021-03-19T10:49:05Z</time><name>PT4541</name></trkpt>
<trkpt lat="52.942803" lon="05.971286"><ele>32.9</ele><time>2021-03-19T10:49:06Z</time><name>PT4542</name></trkpt>
<trkpt lat="52.942808" lon="05.971302"><ele>33.1</ele><time>2021-03-19T10:49:07Z</time><name>PT4543</name></trkpt>
<trkpt lat="52.942811" lon="05.971315"><ele>33.1</ele><time>2021-03-19T10:49:08Z</time><name>PT4544</name></trkpt>
<trkpt lat="52.942813" lon="05.971330"><ele>33.1</ele><time>2021-03-19T10:49:09Z</time><name>PT4545</name></trkpt>
<trkpt lat="52.942817" lon="05.971348"><ele>33</ele><time>2021-03-19T10:49:10Z</time><name>PT4546</name></trkpt>
<trkpt lat="52.942821" lon="05.971369"><ele>33</ele><time>2021-03-19T10:49:11Z</time><name>PT4547</name></trkpt>
<trkpt lat="52.942827" lon="05.971379"><ele>32.9</ele><time>2021-03-19T10:49:12Z</time><name>PT4548</name></trkpt>
<trkpt lat="52.942828" lon="05.971393"><ele>32.8</ele><time>2021-03-19T10:49:13Z</time><name>PT4549</name></trkpt>
<trkpt lat="52.942829" lon="05.971414"><ele>32.9</ele><time>2021-03-19T10:49:14Z</time><name>PT4550</name></trkpt>
<trkpt lat="52.942832" lon="05.971441"><ele>32.9</ele><time>2021-03-19T10:49:15Z</time><name>PT4551</name></trkpt>
<trkpt lat="52.942834" lon="05.971460"><ele>33</ele><time>2021-03-19T10:49:16Z</time><name>PT4552</name></trkpt>
<trkpt lat="52.942836" lon="05.971478"><ele>32.8</ele><time>2021-03-19T10:49:17Z</time><name>PT4553</name></trkpt>
<trkpt lat="52.942837" lon="05.971494"><ele>32.9</ele><time>2021-03-19T10:49:18Z</time><name>PT4554</name></trkpt>
<trkpt lat="52.942838" lon="05.971514"><ele>32.9</ele><time>2021-03-19T10:49:19Z</time><name>PT4555</name></trkpt>
<trkpt lat="52.942842" lon="05.971533"><ele>32.9</ele><time>2021-03-19T10:49:20Z</time><name>PT4556</name></trkpt>
<trkpt lat="52.942851" lon="05.971552"><ele>32.8</ele><time>2021-03-19T10:49:21Z</time><name>PT4557</name></trkpt>
<trkpt lat="52.942855" lon="05.971562"><ele>33.1</ele><time>2021-03-19T10:49:22Z</time><name>PT4558</name></trkpt>
<trkpt lat="52.942857" lon="05.971570"><ele>33</ele><time>2021-03-19T10:49:23Z</time><name>PT4559</name></trkpt>
<trkpt lat="52.942863" lon="05.971581"><ele>33</ele><time>2021-03-19T10:49:24Z</time><name>PT4560</name></trkpt>
<trkpt lat="52.942871" lon="05.971592"><ele>33.1</ele><time>2021-03-19T10:49:25Z</time><name>PT4561</name></trkpt>
<trkpt lat="52.942874" lon="05.971606"><ele>33</ele><time>2021-03-19T10:49:26Z</time><name>PT4562</name></trkpt>
<trkpt lat="52.942876" lon="05.971623"><ele>32.9</ele><time>2021-03-19T10:49:27Z</time><name>PT4563</name></trkpt>
<trkpt lat="52.942877" lon="05.971640"><ele>32.9</ele><time>2021-03-19T10:49:28Z</time><name>PT4564</name></trkpt>
<trkpt lat="52.942880" lon="05.971652"><ele>32.8</ele><time>2021-03-19T10:49:29Z</time><name>PT4565</name></trkpt>
<trkpt lat="52.942882" lon="05.971667"><ele>32.8</ele><time>2021-03-19T10:49:30Z</time><name>PT4566</name></trkpt>
<trkpt lat="52.942881" lon="05.971686"><ele>32.9</ele><time>2021-03-19T10:49:31Z</time><name>PT4567</name></trkpt>
<trkpt lat="52.942885" lon="05.971696"><ele>33</ele><time>2021-03-19T10:49:32Z</time><name>PT4568</name></trkpt>
<trkpt lat="52.942887" lon="05.971714"><ele>33.1</ele><time>2021-03-19T10:49:33Z</time><name>PT4569</name></trkpt>
<trkpt lat="52.942887" lon="05.971732"><ele>33.1</ele><time>2021-03-19T10:49:34Z</time><name>PT4570</name></trkpt>
<trkpt lat="52.942887" lon="05.971747"><ele>32.8</ele><time>2021-03-19T10:49:35Z</time><name>PT4571</name></trkpt>
<trkpt lat="52.942891" lon="05.971761"><ele>32.7</ele><time>2021-03-19T10:49:36Z</time><name>PT4572</name></trkpt>
<trkpt lat="52.942893" lon="05.971781"><ele>32.5</ele><time>2021-03-19T10:49:37Z</time><name>PT4573</name></trkpt>
<trkpt lat="52.942897" lon="05.971793"><ele>32.5</ele><time>2021-03-19T10:49:38Z</time><name>PT4574</name></trkpt>
<trkpt lat="52.942900" lon="05.971809"><ele>32.4</ele><time>2021-03-19T10:49:39Z</time><name>PT4575</name></trkpt>
<trkpt lat="52.942904" lon="05.971829"><ele>32.2</ele><time>2021-03-19T10:49:40Z</time><name>PT4576</name></trkpt>
<trkpt lat="52.942907" lon="05.971841"><ele>32.4</ele><time>2021-03-19T10:49:41Z</time><name>PT4577</name></trkpt>
<trkpt lat="52.942914" lon="05.971852"><ele>32.5</ele><time>2021-03-19T10:49:42Z</time><name>PT4578</name></trkpt>
<trkpt lat="52.942924" lon="05.971871"><ele>32.5</ele><time>2021-03-19T10:49:43Z</time><name>PT4579</name></trkpt>
<trkpt lat="52.942930" lon="05.971888"><ele>32.5</ele><time>2021-03-19T10:49:44Z</time><name>PT4580</name></trkpt>
<trkpt lat="52.942933" lon="05.971910"><ele>32.5</ele><time>2021-03-19T10:49:45Z</time><name>PT4581</name></trkpt>
<trkpt lat="52.942939" lon="05.971925"><ele>32.6</ele><time>2021-03-19T10:49:46Z</time><name>PT4582</name></trkpt>
<trkpt lat="52.942947" lon="05.971940"><ele>32.7</ele><time>2021-03-19T10:49:47Z</time><name>PT4583</name></trkpt>
<trkpt lat="52.942954" lon="05.971955"><ele>32.7</ele><time>2021-03-19T10:49:48Z</time><name>PT4584</name></trkpt>
<trkpt lat="52.942957" lon="05.971972"><ele>32.7</ele><time>2021-03-19T10:49:49Z</time><name>PT4585</name></trkpt>
<trkpt lat="52.942961" lon="05.971989"><ele>32.7</ele><time>2021-03-19T10:49:50Z</time><name>PT4586</name></trkpt>
<trkpt lat="52.942968" lon="05.972002"><ele>32.7</ele><time>2021-03-19T10:49:51Z</time><name>PT4587</name></trkpt>
<trkpt lat="52.942974" lon="05.972017"><ele>32.6</ele><time>2021-03-19T10:49:52Z</time><name>PT4588</name></trkpt>
<trkpt lat="52.942984" lon="05.972030"><ele>32.4</ele><time>2021-03-19T10:49:53Z</time><name>PT4589</name></trkpt>
<trkpt lat="52.942992" lon="05.972041"><ele>32.4</ele><time>2021-03-19T10:49:54Z</time><name>PT4590</name></trkpt>
<trkpt lat="52.943003" lon="05.972051"><ele>32.6</ele><time>2021-03-19T10:49:55Z</time><name>PT4591</name></trkpt>
<trkpt lat="52.943013" lon="05.972062"><ele>32.4</ele><time>2021-03-19T10:49:56Z</time><name>PT4592</name></trkpt>
<trkpt lat="52.943024" lon="05.972069"><ele>32.5</ele><time>2021-03-19T10:49:57Z</time><name>PT4593</name></trkpt>
<trkpt lat="52.943032" lon="05.972080"><ele>32.7</ele><time>2021-03-19T10:49:58Z</time><name>PT4594</name></trkpt>
<trkpt lat="52.943039" lon="05.972089"><ele>32.7</ele><time>2021-03-19T10:49:59Z</time><name>PT4595</name></trkpt>
<trkpt lat="52.943049" lon="05.972100"><ele>32.7</ele><time>2021-03-19T10:50:00Z</time><name>PT4596</name></trkpt>
<trkpt lat="52.943058" lon="05.972111"><ele>32.8</ele><time>2021-03-19T10:50:01Z</time><name>PT4597</name></trkpt>
<trkpt lat="52.943067" lon="05.972121"><ele>32.7</ele><time>2021-03-19T10:50:02Z</time><name>PT4598</name></trkpt>
<trkpt lat="52.943079" lon="05.972129"><ele>32.6</ele><time>2021-03-19T10:50:03Z</time><name>PT4599</name></trkpt>
<trkpt lat="52.943093" lon="05.972137"><ele>32.6</ele><time>2021-03-19T10:50:04Z</time><name>PT4600</name></trkpt>
<trkpt lat="52.943103" lon="05.972142"><ele>32.6</ele><time>2021-03-19T10:50:05Z</time><name>PT4601</name></trkpt>
<trkpt lat="52.943109" lon="05.972147"><ele>32.5</ele><time>2021-03-19T10:50:06Z</time><name>PT4602</name></trkpt>
<trkpt lat="52.943116" lon="05.972155"><ele>32.4</ele><time>2021-03-19T10:50:07Z</time><name>PT4603</name></trkpt>
<trkpt lat="52.943123" lon="05.972167"><ele>32.5</ele><time>2021-03-19T10:50:08Z</time><name>PT4604</name></trkpt>
<trkpt lat="52.943133" lon="05.972175"><ele>32.5</ele><time>2021-03-19T10:50:09Z</time><name>PT4605</name></trkpt>
<trkpt lat="52.943141" lon="05.972180"><ele>32.6</ele><time>2021-03-19T10:50:10Z</time><name>PT4606</name></trkpt>
<trkpt lat="52.943152" lon="05.972188"><ele>32.7</ele><time>2021-03-19T10:50:11Z</time><name>PT4607</name></trkpt>
<trkpt lat="52.943162" lon="05.972200"><ele>32.7</ele><time>2021-03-19T10:50:12Z</time><name>PT4608</name></trkpt>
<trkpt lat="52.943169" lon="05.972210"><ele>32.7</ele><time>2021-03-19T10:50:13Z</time><name>PT4609</name></trkpt>
<trkpt lat="52.943177" lon="05.972217"><ele>32.7</ele><time>2021-03-19T10:50:14Z</time><name>PT4610</name></trkpt>
<trkpt lat="52.943181" lon="05.972223"><ele>32.6</ele><time>2021-03-19T10:50:15Z</time><name>PT4611</name></trkpt>
<trkpt lat="52.943185" lon="05.972226"><ele>32.7</ele><time>2021-03-19T10:50:16Z</time><name>PT4612</name></trkpt>
<trkpt lat="52.943190" lon="05.972231"><ele>32.8</ele><time>2021-03-19T10:50:17Z</time><name>PT4613</name></trkpt>
<trkpt lat="52.943196" lon="05.972241"><ele>32.8</ele><time>2021-03-19T10:50:18Z</time><name>PT4614</name></trkpt>
<trkpt lat="52.943207" lon="05.972251"><ele>32.7</ele><time>2021-03-19T10:50:19Z</time><name>PT4615</name></trkpt>
<trkpt lat="52.943217" lon="05.972262"><ele>32.7</ele><time>2021-03-19T10:50:20Z</time><name>PT4616</name></trkpt>
<trkpt lat="52.943223" lon="05.972274"><ele>32.5</ele><time>2021-03-19T10:50:21Z</time><name>PT4617</name></trkpt>
<trkpt lat="52.943230" lon="05.972282"><ele>32.4</ele><time>2021-03-19T10:50:22Z</time><name>PT4618</name></trkpt>
<trkpt lat="52.943238" lon="05.972289"><ele>32.4</ele><time>2021-03-19T10:50:23Z</time><name>PT4619</name></trkpt>
<trkpt lat="52.943246" lon="05.972298"><ele>32.5</ele><time>2021-03-19T10:50:24Z</time><name>PT4620</name></trkpt>
<trkpt lat="52.943247" lon="05.972308"><ele>32.6</ele><time>2021-03-19T10:50:25Z</time><name>PT4621</name></trkpt>
<trkpt lat="52.943248" lon="05.972315"><ele>32.5</ele><time>2021-03-19T10:50:26Z</time><name>PT4622</name></trkpt>
<trkpt lat="52.943250" lon="05.972324"><ele>32.4</ele><time>2021-03-19T10:50:27Z</time><name>PT4623</name></trkpt>
<trkpt lat="52.943255" lon="05.972334"><ele>32.3</ele><time>2021-03-19T10:50:28Z</time><name>PT4624</name></trkpt>
<trkpt lat="52.943257" lon="05.972343"><ele>32.4</ele><time>2021-03-19T10:50:29Z</time><name>PT4625</name></trkpt>
<trkpt lat="52.943259" lon="05.972353"><ele>32.4</ele><time>2021-03-19T10:50:30Z</time><name>PT4626</name></trkpt>
<trkpt lat="52.943262" lon="05.972361"><ele>32.3</ele><time>2021-03-19T10:50:31Z</time><name>PT4627</name></trkpt>
<trkpt lat="52.943263" lon="05.972370"><ele>32.2</ele><time>2021-03-19T10:50:32Z</time><name>PT4628</name></trkpt>
<trkpt lat="52.943268" lon="05.972391"><ele>32.2</ele><time>2021-03-19T10:50:33Z</time><name>PT4629</name></trkpt>
<trkpt lat="52.943271" lon="05.972406"><ele>32.2</ele><time>2021-03-19T10:50:34Z</time><name>PT4630</name></trkpt>
<trkpt lat="52.943276" lon="05.972418"><ele>32.1</ele><time>2021-03-19T10:50:35Z</time><name>PT4631</name></trkpt>
<trkpt lat="52.943281" lon="05.972431"><ele>32.1</ele><time>2021-03-19T10:50:36Z</time><name>PT4632</name></trkpt>
<trkpt lat="52.943284" lon="05.972447"><ele>32.3</ele><time>2021-03-19T10:50:37Z</time><name>PT4633</name></trkpt>
<trkpt lat="52.943287" lon="05.972462"><ele>32.3</ele><time>2021-03-19T10:50:38Z</time><name>PT4634</name></trkpt>
<trkpt lat="52.943289" lon="05.972471"><ele>32.2</ele><time>2021-03-19T10:50:39Z</time><name>PT4635</name></trkpt>
<trkpt lat="52.943292" lon="05.972479"><ele>32.3</ele><time>2021-03-19T10:50:40Z</time><name>PT4636</name></trkpt>
<trkpt lat="52.943299" lon="05.972487"><ele>32.2</ele><time>2021-03-19T10:50:41Z</time><name>PT4637</name></trkpt>
<trkpt lat="52.943301" lon="05.972493"><ele>32.2</ele><time>2021-03-19T10:50:42Z</time><name>PT4638</name></trkpt>
<trkpt lat="52.943305" lon="05.972503"><ele>32.4</ele><time>2021-03-19T10:50:43Z</time><name>PT4639</name></trkpt>
<trkpt lat="52.943310" lon="05.972513"><ele>32.7</ele><time>2021-03-19T10:50:44Z</time><name>PT4640</name></trkpt>
<trkpt lat="52.943313" lon="05.972529"><ele>32.6</ele><time>2021-03-19T10:50:45Z</time><name>PT4641</name></trkpt>
<trkpt lat="52.943321" lon="05.972543"><ele>32.7</ele><time>2021-03-19T10:50:46Z</time><name>PT4642</name></trkpt>
<trkpt lat="52.943325" lon="05.972553"><ele>32.7</ele><time>2021-03-19T10:50:47Z</time><name>PT4643</name></trkpt>
<trkpt lat="52.943328" lon="05.972564"><ele>32.7</ele><time>2021-03-19T10:50:48Z</time><name>PT4644</name></trkpt>
<trkpt lat="52.943330" lon="05.972575"><ele>32.6</ele><time>2021-03-19T10:50:49Z</time><name>PT4645</name></trkpt>
<trkpt lat="52.943331" lon="05.972588"><ele>32.6</ele><time>2021-03-19T10:50:50Z</time><name>PT4646</name></trkpt>
<trkpt lat="52.943335" lon="05.972602"><ele>32.5</ele><time>2021-03-19T10:50:51Z</time><name>PT4647</name></trkpt>
<trkpt lat="52.943338" lon="05.972614"><ele>32.5</ele><time>2021-03-19T10:50:52Z</time><name>PT4648</name></trkpt>
<trkpt lat="52.943344" lon="05.972628"><ele>32.4</ele><time>2021-03-19T10:50:53Z</time><name>PT4649</name></trkpt>
<trkpt lat="52.943349" lon="05.972642"><ele>32.4</ele><time>2021-03-19T10:50:54Z</time><name>PT4650</name></trkpt>
<trkpt lat="52.943355" lon="05.972657"><ele>32.5</ele><time>2021-03-19T10:50:55Z</time><name>PT4651</name></trkpt>
<trkpt lat="52.943356" lon="05.972674"><ele>32.4</ele><time>2021-03-19T10:50:56Z</time><name>PT4652</name></trkpt>
<trkpt lat="52.943360" lon="05.972693"><ele>32.3</ele><time>2021-03-19T10:50:57Z</time><name>PT4653</name></trkpt>
<trkpt lat="52.943363" lon="05.972706"><ele>32.4</ele><time>2021-03-19T10:50:58Z</time><name>PT4654</name></trkpt>
<trkpt lat="52.943370" lon="05.972717"><ele>32.4</ele><time>2021-03-19T10:50:59Z</time><name>PT4655</name></trkpt>
<trkpt lat="52.943375" lon="05.972729"><ele>32.5</ele><time>2021-03-19T10:51:00Z</time><name>PT4656</name></trkpt>
<trkpt lat="52.943379" lon="05.972740"><ele>32.5</ele><time>2021-03-19T10:51:01Z</time><name>PT4657</name></trkpt>
<trkpt lat="52.943382" lon="05.972750"><ele>32.6</ele><time>2021-03-19T10:51:02Z</time><name>PT4658</name></trkpt>
<trkpt lat="52.943386" lon="05.972759"><ele>32.6</ele><time>2021-03-19T10:51:03Z</time><name>PT4659</name></trkpt>
<trkpt lat="52.943388" lon="05.972766"><ele>32.5</ele><time>2021-03-19T10:51:04Z</time><name>PT4660</name></trkpt>
<trkpt lat="52.943402" lon="05.972790"><ele>32.9</ele><time>2021-03-19T10:51:39Z</time><name>PT4661</name></trkpt>
<trkpt lat="52.943407" lon="05.972812"><ele>32.8</ele><time>2021-03-19T10:51:40Z</time><name>PT4662</name></trkpt>
<trkpt lat="52.943418" lon="05.972819"><ele>33</ele><time>2021-03-19T10:51:41Z</time><name>PT4663</name></trkpt>
<trkpt lat="52.943425" lon="05.972829"><ele>32.9</ele><time>2021-03-19T10:51:42Z</time><name>PT4664</name></trkpt>
<trkpt lat="52.943429" lon="05.972845"><ele>32.7</ele><time>2021-03-19T10:51:47Z</time><name>PT4665</name></trkpt>
<trkpt lat="52.943432" lon="05.972844"><ele>32.6</ele><time>2021-03-19T10:51:48Z</time><name>PT4666</name></trkpt>
<trkpt lat="52.943434" lon="05.972852"><ele>32.9</ele><time>2021-03-19T10:52:01Z</time><name>PT4667</name></trkpt>
<trkpt lat="52.943437" lon="05.972861"><ele>33.1</ele><time>2021-03-19T10:52:02Z</time><name>PT4668</name></trkpt>
<trkpt lat="52.943439" lon="05.972868"><ele>33.2</ele><time>2021-03-19T10:52:03Z</time><name>PT4669</name></trkpt>
<trkpt lat="52.943439" lon="05.972867"><ele>33.3</ele><time>2021-03-19T10:52:13Z</time><name>PT4670</name></trkpt>
<trkpt lat="52.943439" lon="05.972866"><ele>33.1</ele><time>2021-03-19T10:52:14Z</time><name>PT4671</name></trkpt>
<trkpt lat="52.943442" lon="05.972867"><ele>33.1</ele><time>2021-03-19T10:52:21Z</time><name>PT4672</name></trkpt>
<trkpt lat="52.943451" lon="05.972854"><ele>33</ele><time>2021-03-19T10:52:22Z</time><name>PT4673</name></trkpt>
<trkpt lat="52.943461" lon="05.972855"><ele>33</ele><time>2021-03-19T10:52:23Z</time><name>PT4674</name></trkpt>
<trkpt lat="52.943468" lon="05.972854"><ele>32.9</ele><time>2021-03-19T10:52:24Z</time><name>PT4675</name></trkpt>
<trkpt lat="52.943475" lon="05.972850"><ele>32.8</ele><time>2021-03-19T10:52:25Z</time><name>PT4676</name></trkpt>
<trkpt lat="52.943482" lon="05.972847"><ele>32.8</ele><time>2021-03-19T10:52:26Z</time><name>PT4677</name></trkpt>
<trkpt lat="52.943488" lon="05.972835"><ele>32.7</ele><time>2021-03-19T10:52:27Z</time><name>PT4678</name></trkpt>
<trkpt lat="52.943495" lon="05.972832"><ele>32.7</ele><time>2021-03-19T10:52:28Z</time><name>PT4679</name></trkpt>
<trkpt lat="52.943502" lon="05.972831"><ele>32.7</ele><time>2021-03-19T10:52:29Z</time><name>PT4680</name></trkpt>
<trkpt lat="52.943510" lon="05.972824"><ele>32.7</ele><time>2021-03-19T10:52:30Z</time><name>PT4681</name></trkpt>
<trkpt lat="52.943521" lon="05.972817"><ele>32.7</ele><time>2021-03-19T10:52:31Z</time><name>PT4682</name></trkpt>
<trkpt lat="52.943529" lon="05.972819"><ele>32.8</ele><time>2021-03-19T10:52:32Z</time><name>PT4683</name></trkpt>
<trkpt lat="52.943539" lon="05.972821"><ele>32.8</ele><time>2021-03-19T10:52:33Z</time><name>PT4684</name></trkpt>
<trkpt lat="52.943546" lon="05.972824"><ele>33</ele><time>2021-03-19T10:52:34Z</time><name>PT4685</name></trkpt>
<trkpt lat="52.943553" lon="05.972825"><ele>33.1</ele><time>2021-03-19T10:52:35Z</time><name>PT4686</name></trkpt>
<trkpt lat="52.943559" lon="05.972826"><ele>33.1</ele><time>2021-03-19T10:52:36Z</time><name>PT4687</name></trkpt>
<trkpt lat="52.943566" lon="05.972826"><ele>33.2</ele><time>2021-03-19T10:52:37Z</time><name>PT4688</name></trkpt>
<trkpt lat="52.943572" lon="05.972831"><ele>33.1</ele><time>2021-03-19T10:52:38Z</time><name>PT4689</name></trkpt>
<trkpt lat="52.943580" lon="05.972838"><ele>32.9</ele><time>2021-03-19T10:52:39Z</time><name>PT4690</name></trkpt>
<trkpt lat="52.943586" lon="05.972853"><ele>32.8</ele><time>2021-03-19T10:52:40Z</time><name>PT4691</name></trkpt>
<trkpt lat="52.943589" lon="05.972868"><ele>33</ele><time>2021-03-19T10:52:41Z</time><name>PT4692</name></trkpt>
<trkpt lat="52.943594" lon="05.972880"><ele>33</ele><time>2021-03-19T10:52:42Z</time><name>PT4693</name></trkpt>
<trkpt lat="52.943600" lon="05.972895"><ele>33.2</ele><time>2021-03-19T10:52:43Z</time><name>PT4694</name></trkpt>
<trkpt lat="52.943608" lon="05.972910"><ele>33.2</ele><time>2021-03-19T10:52:44Z</time><name>PT4695</name></trkpt>
<trkpt lat="52.943614" lon="05.972925"><ele>33.1</ele><time>2021-03-19T10:52:45Z</time><name>PT4696</name></trkpt>
<trkpt lat="52.943620" lon="05.972942"><ele>33</ele><time>2021-03-19T10:52:46Z</time><name>PT4697</name></trkpt>
<trkpt lat="52.943624" lon="05.972957"><ele>32.8</ele><time>2021-03-19T10:52:47Z</time><name>PT4698</name></trkpt>
<trkpt lat="52.943627" lon="05.972975"><ele>32.8</ele><time>2021-03-19T10:52:48Z</time><name>PT4699</name></trkpt>
<trkpt lat="52.943629" lon="05.972990"><ele>32.9</ele><time>2021-03-19T10:52:49Z</time><name>PT4700</name></trkpt>
<trkpt lat="52.943632" lon="05.973004"><ele>33</ele><time>2021-03-19T10:52:50Z</time><name>PT4701</name></trkpt>
<trkpt lat="52.943637" lon="05.973020"><ele>33</ele><time>2021-03-19T10:52:51Z</time><name>PT4702</name></trkpt>
<trkpt lat="52.943643" lon="05.973039"><ele>32.9</ele><time>2021-03-19T10:52:52Z</time><name>PT4703</name></trkpt>
<trkpt lat="52.943650" lon="05.973055"><ele>32.7</ele><time>2021-03-19T10:52:53Z</time><name>PT4704</name></trkpt>
<trkpt lat="52.943658" lon="05.973075"><ele>32.8</ele><time>2021-03-19T10:52:54Z</time><name>PT4705</name></trkpt>
<trkpt lat="52.943665" lon="05.973095"><ele>32.7</ele><time>2021-03-19T10:52:55Z</time><name>PT4706</name></trkpt>
<trkpt lat="52.943671" lon="05.973109"><ele>32.8</ele><time>2021-03-19T10:52:56Z</time><name>PT4707</name></trkpt>
<trkpt lat="52.943674" lon="05.973119"><ele>32.8</ele><time>2021-03-19T10:52:57Z</time><name>PT4708</name></trkpt>
<trkpt lat="52.943678" lon="05.973132"><ele>32.7</ele><time>2021-03-19T10:52:58Z</time><name>PT4709</name></trkpt>
<trkpt lat="52.943682" lon="05.973145"><ele>32.7</ele><time>2021-03-19T10:52:59Z</time><name>PT4710</name></trkpt>
<trkpt lat="52.943681" lon="05.973146"><ele>32.6</ele><time>2021-03-19T10:53:00Z</time><name>PT4711</name></trkpt>
<trkpt lat="52.943682" lon="05.973151"><ele>32.6</ele><time>2021-03-19T10:53:01Z</time><name>PT4712</name></trkpt>
<trkpt lat="52.943683" lon="05.973158"><ele>32.7</ele><time>2021-03-19T10:53:02Z</time><name>PT4713</name></trkpt>
<trkpt lat="52.943686" lon="05.973168"><ele>32.7</ele><time>2021-03-19T10:53:03Z</time><name>PT4714</name></trkpt>
<trkpt lat="52.943690" lon="05.973181"><ele>32.7</ele><time>2021-03-19T10:53:04Z</time><name>PT4715</name></trkpt>
<trkpt lat="52.943692" lon="05.973198"><ele>32.7</ele><time>2021-03-19T10:53:05Z</time><name>PT4716</name></trkpt>
<trkpt lat="52.943693" lon="05.973215"><ele>32.6</ele><time>2021-03-19T10:53:06Z</time><name>PT4717</name></trkpt>
<trkpt lat="52.943695" lon="05.973232"><ele>32.7</ele><time>2021-03-19T10:53:07Z</time><name>PT4718</name></trkpt>
<trkpt lat="52.943695" lon="05.973250"><ele>32.7</ele><time>2021-03-19T10:53:08Z</time><name>PT4719</name></trkpt>
<trkpt lat="52.943699" lon="05.973266"><ele>32.7</ele><time>2021-03-19T10:53:09Z</time><name>PT4720</name></trkpt>
<trkpt lat="52.943704" lon="05.973282"><ele>32.7</ele><time>2021-03-19T10:53:10Z</time><name>PT4721</name></trkpt>
<trkpt lat="52.943709" lon="05.973301"><ele>32.7</ele><time>2021-03-19T10:53:11Z</time><name>PT4722</name></trkpt>
<trkpt lat="52.943717" lon="05.973317"><ele>32.7</ele><time>2021-03-19T10:53:12Z</time><name>PT4723</name></trkpt>
<trkpt lat="52.943723" lon="05.973332"><ele>32.7</ele><time>2021-03-19T10:53:13Z</time><name>PT4724</name></trkpt>
<trkpt lat="52.943725" lon="05.973347"><ele>32.7</ele><time>2021-03-19T10:53:14Z</time><name>PT4725</name></trkpt>
<trkpt lat="52.943727" lon="05.973363"><ele>32.8</ele><time>2021-03-19T10:53:15Z</time><name>PT4726</name></trkpt>
<trkpt lat="52.943730" lon="05.973378"><ele>32.8</ele><time>2021-03-19T10:53:16Z</time><name>PT4727</name></trkpt>
<trkpt lat="52.943737" lon="05.973393"><ele>32.7</ele><time>2021-03-19T10:53:17Z</time><name>PT4728</name></trkpt>
<trkpt lat="52.943740" lon="05.973409"><ele>32.7</ele><time>2021-03-19T10:53:18Z</time><name>PT4729</name></trkpt>
<trkpt lat="52.943747" lon="05.973425"><ele>32.7</ele><time>2021-03-19T10:53:19Z</time><name>PT4730</name></trkpt>
<trkpt lat="52.943751" lon="05.973441"><ele>32.4</ele><time>2021-03-19T10:53:20Z</time><name>PT4731</name></trkpt>
<trkpt lat="52.943755" lon="05.973455"><ele>32.4</ele><time>2021-03-19T10:53:21Z</time><name>PT4732</name></trkpt>
<trkpt lat="52.943759" lon="05.973464"><ele>32.5</ele><time>2021-03-19T10:53:22Z</time><name>PT4733</name></trkpt>
<trkpt lat="52.943764" lon="05.973477"><ele>32.2</ele><time>2021-03-19T10:53:23Z</time><name>PT4734</name></trkpt>
<trkpt lat="52.943766" lon="05.973492"><ele>32.2</ele><time>2021-03-19T10:53:24Z</time><name>PT4735</name></trkpt>
<trkpt lat="52.943768" lon="05.973509"><ele>32.5</ele><time>2021-03-19T10:53:25Z</time><name>PT4736</name></trkpt>
<trkpt lat="52.943767" lon="05.973527"><ele>32.6</ele><time>2021-03-19T10:53:26Z</time><name>PT4737</name></trkpt>
<trkpt lat="52.943769" lon="05.973543"><ele>32.6</ele><time>2021-03-19T10:53:27Z</time><name>PT4738</name></trkpt>
<trkpt lat="52.943772" lon="05.973557"><ele>32.7</ele><time>2021-03-19T10:53:28Z</time><name>PT4739</name></trkpt>
<trkpt lat="52.943777" lon="05.973572"><ele>32.5</ele><time>2021-03-19T10:53:29Z</time><name>PT4740</name></trkpt>
<trkpt lat="52.943782" lon="05.973586"><ele>32.5</ele><time>2021-03-19T10:53:30Z</time><name>PT4741</name></trkpt>
<trkpt lat="52.943786" lon="05.973601"><ele>32.3</ele><time>2021-03-19T10:53:31Z</time><name>PT4742</name></trkpt>
<trkpt lat="52.943787" lon="05.973618"><ele>32.3</ele><time>2021-03-19T10:53:32Z</time><name>PT4743</name></trkpt>
<trkpt lat="52.943792" lon="05.973632"><ele>32.2</ele><time>2021-03-19T10:53:33Z</time><name>PT4744</name></trkpt>
<trkpt lat="52.943797" lon="05.973647"><ele>32.3</ele><time>2021-03-19T10:53:34Z</time><name>PT4745</name></trkpt>
<trkpt lat="52.943801" lon="05.973665"><ele>32.5</ele><time>2021-03-19T10:53:35Z</time><name>PT4746</name></trkpt>
<trkpt lat="52.943804" lon="05.973681"><ele>32.5</ele><time>2021-03-19T10:53:36Z</time><name>PT4747</name></trkpt>
<trkpt lat="52.943806" lon="05.973695"><ele>32.6</ele><time>2021-03-19T10:53:37Z</time><name>PT4748</name></trkpt>
<trkpt lat="52.943809" lon="05.973708"><ele>32.8</ele><time>2021-03-19T10:53:38Z</time><name>PT4749</name></trkpt>
<trkpt lat="52.943812" lon="05.973724"><ele>32.7</ele><time>2021-03-19T10:53:39Z</time><name>PT4750</name></trkpt>
<trkpt lat="52.943817" lon="05.973739"><ele>32.6</ele><time>2021-03-19T10:53:40Z</time><name>PT4751</name></trkpt>
<trkpt lat="52.943822" lon="05.973753"><ele>32.4</ele><time>2021-03-19T10:53:41Z</time><name>PT4752</name></trkpt>
<trkpt lat="52.943827" lon="05.973763"><ele>32.3</ele><time>2021-03-19T10:53:42Z</time><name>PT4753</name></trkpt>
<trkpt lat="52.943831" lon="05.973775"><ele>32.2</ele><time>2021-03-19T10:53:43Z</time><name>PT4754</name></trkpt>
<trkpt lat="52.943833" lon="05.973788"><ele>32.2</ele><time>2021-03-19T10:53:44Z</time><name>PT4755</name></trkpt>
<trkpt lat="52.943835" lon="05.973800"><ele>32.4</ele><time>2021-03-19T10:53:45Z</time><name>PT4756</name></trkpt>
<trkpt lat="52.943838" lon="05.973816"><ele>32.2</ele><time>2021-03-19T10:53:46Z</time><name>PT4757</name></trkpt>
<trkpt lat="52.943844" lon="05.973831"><ele>32.1</ele><time>2021-03-19T10:53:47Z</time><name>PT4758</name></trkpt>
<trkpt lat="52.943847" lon="05.973847"><ele>32.1</ele><time>2021-03-19T10:53:48Z</time><name>PT4759</name></trkpt>
<trkpt lat="52.943851" lon="05.973861"><ele>31.8</ele><time>2021-03-19T10:53:49Z</time><name>PT4760</name></trkpt>
<trkpt lat="52.943857" lon="05.973876"><ele>31.7</ele><time>2021-03-19T10:53:50Z</time><name>PT4761</name></trkpt>
<trkpt lat="52.943862" lon="05.973890"><ele>31.7</ele><time>2021-03-19T10:53:51Z</time><name>PT4762</name></trkpt>
<trkpt lat="52.943867" lon="05.973905"><ele>31.7</ele><time>2021-03-19T10:53:52Z</time><name>PT4763</name></trkpt>
<trkpt lat="52.943872" lon="05.973919"><ele>31.7</ele><time>2021-03-19T10:53:53Z</time><name>PT4764</name></trkpt>
<trkpt lat="52.943875" lon="05.973931"><ele>31.7</ele><time>2021-03-19T10:53:54Z</time><name>PT4765</name></trkpt>
<trkpt lat="52.943879" lon="05.973940"><ele>31.7</ele><time>2021-03-19T10:53:55Z</time><name>PT4766</name></trkpt>
<trkpt lat="52.943881" lon="05.973954"><ele>31.7</ele><time>2021-03-19T10:53:56Z</time><name>PT4767</name></trkpt>
<trkpt lat="52.943886" lon="05.973969"><ele>31.8</ele><time>2021-03-19T10:53:57Z</time><name>PT4768</name></trkpt>
<trkpt lat="52.943889" lon="05.973984"><ele>31.7</ele><time>2021-03-19T10:53:58Z</time><name>PT4769</name></trkpt>
<trkpt lat="52.943894" lon="05.973999"><ele>31.8</ele><time>2021-03-19T10:53:59Z</time><name>PT4770</name></trkpt>
<trkpt lat="52.943897" lon="05.974019"><ele>31.8</ele><time>2021-03-19T10:54:00Z</time><name>PT4771</name></trkpt>
<trkpt lat="52.943899" lon="05.974037"><ele>31.9</ele><time>2021-03-19T10:54:01Z</time><name>PT4772</name></trkpt>
<trkpt lat="52.943901" lon="05.974050"><ele>32</ele><time>2021-03-19T10:54:02Z</time><name>PT4773</name></trkpt>
<trkpt lat="52.943903" lon="05.974062"><ele>31.9</ele><time>2021-03-19T10:54:03Z</time><name>PT4774</name></trkpt>
<trkpt lat="52.943905" lon="05.974074"><ele>32</ele><time>2021-03-19T10:54:04Z</time><name>PT4775</name></trkpt>
<trkpt lat="52.943905" lon="05.974085"><ele>31.7</ele><time>2021-03-19T10:54:05Z</time><name>PT4776</name></trkpt>
<trkpt lat="52.943906" lon="05.974093"><ele>31.7</ele><time>2021-03-19T10:54:06Z</time><name>PT4777</name></trkpt>
<trkpt lat="52.943907" lon="05.974101"><ele>31.4</ele><time>2021-03-19T10:54:07Z</time><name>PT4778</name></trkpt>
<trkpt lat="52.943908" lon="05.974105"><ele>31.5</ele><time>2021-03-19T10:54:08Z</time><name>PT4779</name></trkpt>
<trkpt lat="52.943910" lon="05.974113"><ele>31.4</ele><time>2021-03-19T10:54:09Z</time><name>PT4780</name></trkpt>
<trkpt lat="52.943916" lon="05.974122"><ele>31.4</ele><time>2021-03-19T10:54:10Z</time><name>PT4781</name></trkpt>
<trkpt lat="52.943920" lon="05.974134"><ele>31.4</ele><time>2021-03-19T10:54:11Z</time><name>PT4782</name></trkpt>
<trkpt lat="52.943925" lon="05.974146"><ele>31.5</ele><time>2021-03-19T10:54:12Z</time><name>PT4783</name></trkpt>
<trkpt lat="52.943929" lon="05.974159"><ele>31.5</ele><time>2021-03-19T10:54:13Z</time><name>PT4784</name></trkpt>
<trkpt lat="52.943932" lon="05.974175"><ele>31.4</ele><time>2021-03-19T10:54:14Z</time><name>PT4785</name></trkpt>
<trkpt lat="52.943932" lon="05.974191"><ele>31.4</ele><time>2021-03-19T10:54:15Z</time><name>PT4786</name></trkpt>
<trkpt lat="52.943935" lon="05.974206"><ele>31.7</ele><time>2021-03-19T10:54:16Z</time><name>PT4787</name></trkpt>
<trkpt lat="52.943943" lon="05.974220"><ele>31.6</ele><time>2021-03-19T10:54:17Z</time><name>PT4788</name></trkpt>
<trkpt lat="52.943949" lon="05.974238"><ele>31.6</ele><time>2021-03-19T10:54:18Z</time><name>PT4789</name></trkpt>
<trkpt lat="52.943954" lon="05.974255"><ele>31.7</ele><time>2021-03-19T10:54:19Z</time><name>PT4790</name></trkpt>
<trkpt lat="52.943958" lon="05.974271"><ele>31.6</ele><time>2021-03-19T10:54:20Z</time><name>PT4791</name></trkpt>
<trkpt lat="52.943961" lon="05.974288"><ele>31.6</ele><time>2021-03-19T10:54:21Z</time><name>PT4792</name></trkpt>
<trkpt lat="52.943964" lon="05.974305"><ele>31.7</ele><time>2021-03-19T10:54:22Z</time><name>PT4793</name></trkpt>
<trkpt lat="52.943969" lon="05.974323"><ele>31.7</ele><time>2021-03-19T10:54:23Z</time><name>PT4794</name></trkpt>
<trkpt lat="52.943975" lon="05.974343"><ele>31.6</ele><time>2021-03-19T10:54:24Z</time><name>PT4795</name></trkpt>
<trkpt lat="52.943979" lon="05.974362"><ele>31.7</ele><time>2021-03-19T10:54:25Z</time><name>PT4796</name></trkpt>
<trkpt lat="52.943981" lon="05.974379"><ele>31.8</ele><time>2021-03-19T10:54:26Z</time><name>PT4797</name></trkpt>
<trkpt lat="52.943984" lon="05.974396"><ele>31.8</ele><time>2021-03-19T10:54:27Z</time><name>PT4798</name></trkpt>
<trkpt lat="52.943988" lon="05.974413"><ele>31.7</ele><time>2021-03-19T10:54:28Z</time><name>PT4799</name></trkpt>
<trkpt lat="52.943994" lon="05.974425"><ele>32</ele><time>2021-03-19T10:54:29Z</time><name>PT4800</name></trkpt>
<trkpt lat="52.943999" lon="05.974441"><ele>32</ele><time>2021-03-19T10:54:30Z</time><name>PT4801</name></trkpt>
<trkpt lat="52.944004" lon="05.974458"><ele>31.8</ele><time>2021-03-19T10:54:31Z</time><name>PT4802</name></trkpt>
<trkpt lat="52.944008" lon="05.974478"><ele>32</ele><time>2021-03-19T10:54:32Z</time><name>PT4803</name></trkpt>
<trkpt lat="52.944011" lon="05.974494"><ele>32</ele><time>2021-03-19T10:54:33Z</time><name>PT4804</name></trkpt>
<trkpt lat="52.944013" lon="05.974507"><ele>32.1</ele><time>2021-03-19T10:54:34Z</time><name>PT4805</name></trkpt>
<trkpt lat="52.944017" lon="05.974524"><ele>32.1</ele><time>2021-03-19T10:54:35Z</time><name>PT4806</name></trkpt>
<trkpt lat="52.944020" lon="05.974537"><ele>32.2</ele><time>2021-03-19T10:54:36Z</time><name>PT4807</name></trkpt>
<trkpt lat="52.944024" lon="05.974551"><ele>32.3</ele><time>2021-03-19T10:54:37Z</time><name>PT4808</name></trkpt>
<trkpt lat="52.944025" lon="05.974564"><ele>32.2</ele><time>2021-03-19T10:54:38Z</time><name>PT4809</name></trkpt>
<trkpt lat="52.944027" lon="05.974581"><ele>32.1</ele><time>2021-03-19T10:54:39Z</time><name>PT4810</name></trkpt>
<trkpt lat="52.944030" lon="05.974597"><ele>32.1</ele><time>2021-03-19T10:54:40Z</time><name>PT4811</name></trkpt>
<trkpt lat="52.944035" lon="05.974610"><ele>31.8</ele><time>2021-03-19T10:54:41Z</time><name>PT4812</name></trkpt>
<trkpt lat="52.944038" lon="05.974624"><ele>31.7</ele><time>2021-03-19T10:54:42Z</time><name>PT4813</name></trkpt>
<trkpt lat="52.944041" lon="05.974636"><ele>31.6</ele><time>2021-03-19T10:54:43Z</time><name>PT4814</name></trkpt>
<trkpt lat="52.944046" lon="05.974651"><ele>31.6</ele><time>2021-03-19T10:54:44Z</time><name>PT4815</name></trkpt>
<trkpt lat="52.944051" lon="05.974667"><ele>31.7</ele><time>2021-03-19T10:54:45Z</time><name>PT4816</name></trkpt>
<trkpt lat="52.944055" lon="05.974683"><ele>31.7</ele><time>2021-03-19T10:54:46Z</time><name>PT4817</name></trkpt>
<trkpt lat="52.944060" lon="05.974700"><ele>31.7</ele><time>2021-03-19T10:54:47Z</time><name>PT4818</name></trkpt>
<trkpt lat="52.944063" lon="05.974718"><ele>31.8</ele><time>2021-03-19T10:54:48Z</time><name>PT4819</name></trkpt>
<trkpt lat="52.944067" lon="05.974733"><ele>31.7</ele><time>2021-03-19T10:54:49Z</time><name>PT4820</name></trkpt>
<trkpt lat="52.944074" lon="05.974749"><ele>31.5</ele><time>2021-03-19T10:54:50Z</time><name>PT4821</name></trkpt>
<trkpt lat="52.944081" lon="05.974760"><ele>31.3</ele><time>2021-03-19T10:54:51Z</time><name>PT4822</name></trkpt>
<trkpt lat="52.944086" lon="05.974775"><ele>31.4</ele><time>2021-03-19T10:54:52Z</time><name>PT4823</name></trkpt>
<trkpt lat="52.944090" lon="05.974793"><ele>31.7</ele><time>2021-03-19T10:54:53Z</time><name>PT4824</name></trkpt>
<trkpt lat="52.944095" lon="05.974806"><ele>31.8</ele><time>2021-03-19T10:54:54Z</time><name>PT4825</name></trkpt>
<trkpt lat="52.944100" lon="05.974820"><ele>31.8</ele><time>2021-03-19T10:54:55Z</time><name>PT4826</name></trkpt>
<trkpt lat="52.944105" lon="05.974836"><ele>31.8</ele><time>2021-03-19T10:54:56Z</time><name>PT4827</name></trkpt>
<trkpt lat="52.944109" lon="05.974850"><ele>31.8</ele><time>2021-03-19T10:54:57Z</time><name>PT4828</name></trkpt>
<trkpt lat="52.944112" lon="05.974864"><ele>32</ele><time>2021-03-19T10:54:58Z</time><name>PT4829</name></trkpt>
<trkpt lat="52.944115" lon="05.974878"><ele>32</ele><time>2021-03-19T10:54:59Z</time><name>PT4830</name></trkpt>
<trkpt lat="52.944118" lon="05.974892"><ele>32</ele><time>2021-03-19T10:55:00Z</time><name>PT4831</name></trkpt>
<trkpt lat="52.944124" lon="05.974909"><ele>32.1</ele><time>2021-03-19T10:55:01Z</time><name>PT4832</name></trkpt>
<trkpt lat="52.944129" lon="05.974923"><ele>32.2</ele><time>2021-03-19T10:55:02Z</time><name>PT4833</name></trkpt>
<trkpt lat="52.944131" lon="05.974936"><ele>32.1</ele><time>2021-03-19T10:55:03Z</time><name>PT4834</name></trkpt>
<trkpt lat="52.944136" lon="05.974950"><ele>32.1</ele><time>2021-03-19T10:55:04Z</time><name>PT4835</name></trkpt>
<trkpt lat="52.944140" lon="05.974961"><ele>31.9</ele><time>2021-03-19T10:55:05Z</time><name>PT4836</name></trkpt>
<trkpt lat="52.944145" lon="05.974978"><ele>32</ele><time>2021-03-19T10:55:06Z</time><name>PT4837</name></trkpt>
<trkpt lat="52.944146" lon="05.974993"><ele>32.1</ele><time>2021-03-19T10:55:07Z</time><name>PT4838</name></trkpt>
<trkpt lat="52.944149" lon="05.975006"><ele>32</ele><time>2021-03-19T10:55:08Z</time><name>PT4839</name></trkpt>
<trkpt lat="52.944152" lon="05.975021"><ele>32.1</ele><time>2021-03-19T10:55:09Z</time><name>PT4840</name></trkpt>
<trkpt lat="52.944160" lon="05.975036"><ele>32.2</ele><time>2021-03-19T10:55:10Z</time><name>PT4841</name></trkpt>
<trkpt lat="52.944164" lon="05.975052"><ele>32.2</ele><time>2021-03-19T10:55:11Z</time><name>PT4842</name></trkpt>
<trkpt lat="52.944166" lon="05.975071"><ele>32.2</ele><time>2021-03-19T10:55:12Z</time><name>PT4843</name></trkpt>
<trkpt lat="52.944166" lon="05.975084"><ele>32.2</ele><time>2021-03-19T10:55:13Z</time><name>PT4844</name></trkpt>
<trkpt lat="52.944169" lon="05.975098"><ele>32.2</ele><time>2021-03-19T10:55:14Z</time><name>PT4845</name></trkpt>
<trkpt lat="52.944174" lon="05.975110"><ele>32.3</ele><time>2021-03-19T10:55:15Z</time><name>PT4846</name></trkpt>
<trkpt lat="52.944179" lon="05.975124"><ele>32.2</ele><time>2021-03-19T10:55:16Z</time><name>PT4847</name></trkpt>
<trkpt lat="52.944183" lon="05.975139"><ele>32.3</ele><time>2021-03-19T10:55:17Z</time><name>PT4848</name></trkpt>
<trkpt lat="52.944184" lon="05.975154"><ele>32.3</ele><time>2021-03-19T10:55:18Z</time><name>PT4849</name></trkpt>
<trkpt lat="52.944190" lon="05.975167"><ele>32.3</ele><time>2021-03-19T10:55:19Z</time><name>PT4850</name></trkpt>
<trkpt lat="52.944194" lon="05.975181"><ele>32.4</ele><time>2021-03-19T10:55:20Z</time><name>PT4851</name></trkpt>
<trkpt lat="52.944198" lon="05.975192"><ele>32.5</ele><time>2021-03-19T10:55:21Z</time><name>PT4852</name></trkpt>
<trkpt lat="52.944202" lon="05.975202"><ele>32.4</ele><time>2021-03-19T10:55:22Z</time><name>PT4853</name></trkpt>
<trkpt lat="52.944205" lon="05.975209"><ele>32.4</ele><time>2021-03-19T10:55:23Z</time><name>PT4854</name></trkpt>
<trkpt lat="52.944207" lon="05.975222"><ele>32.5</ele><time>2021-03-19T10:55:24Z</time><name>PT4855</name></trkpt>
<trkpt lat="52.944212" lon="05.975236"><ele>32.5</ele><time>2021-03-19T10:55:25Z</time><name>PT4856</name></trkpt>
<trkpt lat="52.944212" lon="05.975256"><ele>32.7</ele><time>2021-03-19T10:55:26Z</time><name>PT4857</name></trkpt>
<trkpt lat="52.944214" lon="05.975266"><ele>32.8</ele><time>2021-03-19T10:55:27Z</time><name>PT4858</name></trkpt>
<trkpt lat="52.944219" lon="05.975280"><ele>33</ele><time>2021-03-19T10:55:28Z</time><name>PT4859</name></trkpt>
<trkpt lat="52.944220" lon="05.975290"><ele>32.8</ele><time>2021-03-19T10:55:29Z</time><name>PT4860</name></trkpt>
<trkpt lat="52.944220" lon="05.975290"><ele>32.8</ele><time>2021-03-19T10:55:30Z</time><name>PT4861</name></trkpt>
<trkpt lat="52.944223" lon="05.975292"><ele>32.7</ele><time>2021-03-19T10:55:31Z</time><name>PT4862</name></trkpt>
<trkpt lat="52.944225" lon="05.975299"><ele>32.6</ele><time>2021-03-19T10:55:32Z</time><name>PT4863</name></trkpt>
<trkpt lat="52.944225" lon="05.975307"><ele>32.7</ele><time>2021-03-19T10:55:33Z</time><name>PT4864</name></trkpt>
<trkpt lat="52.944228" lon="05.975316"><ele>32.7</ele><time>2021-03-19T10:55:34Z</time><name>PT4865</name></trkpt>
<trkpt lat="52.944230" lon="05.975326"><ele>32.7</ele><time>2021-03-19T10:55:35Z</time><name>PT4866</name></trkpt>
<trkpt lat="52.944233" lon="05.975333"><ele>32.6</ele><time>2021-03-19T10:55:36Z</time><name>PT4867</name></trkpt>
<trkpt lat="52.944234" lon="05.975341"><ele>32.6</ele><time>2021-03-19T10:55:37Z</time><name>PT4868</name></trkpt>
<trkpt lat="52.944235" lon="05.975342"><ele>32.6</ele><time>2021-03-19T10:55:38Z</time><name>PT4869</name></trkpt>
<trkpt lat="52.944236" lon="05.975343"><ele>32.5</ele><time>2021-03-19T10:55:39Z</time><name>PT4870</name></trkpt>
<trkpt lat="52.944235" lon="05.975344"><ele>32.6</ele><time>2021-03-19T10:55:40Z</time><name>PT4871</name></trkpt>
<trkpt lat="52.944238" lon="05.975342"><ele>32.7</ele><time>2021-03-19T10:55:47Z</time><name>PT4872</name></trkpt>
<trkpt lat="52.944240" lon="05.975342"><ele>32.7</ele><time>2021-03-19T10:55:48Z</time><name>PT4873</name></trkpt>
<trkpt lat="52.944243" lon="05.975345"><ele>32</ele><time>2021-03-19T10:55:59Z</time><name>PT4874</name></trkpt>
<trkpt lat="52.944244" lon="05.975349"><ele>32</ele><time>2021-03-19T10:56:00Z</time><name>PT4875</name></trkpt>
<trkpt lat="52.944246" lon="05.975365"><ele>32.2</ele><time>2021-03-19T10:56:01Z</time><name>PT4876</name></trkpt>
<trkpt lat="52.944252" lon="05.975378"><ele>32.3</ele><time>2021-03-19T10:56:02Z</time><name>PT4877</name></trkpt>
<trkpt lat="52.944257" lon="05.975381"><ele>32.4</ele><time>2021-03-19T10:56:03Z</time><name>PT4878</name></trkpt>
<trkpt lat="52.944256" lon="05.975382"><ele>32.6</ele><time>2021-03-19T10:56:04Z</time><name>PT4879</name></trkpt>
<trkpt lat="52.944257" lon="05.975381"><ele>32.8</ele><time>2021-03-19T10:56:05Z</time><name>PT4880</name></trkpt>
<trkpt lat="52.944258" lon="05.975392"><ele>32.2</ele><time>2021-03-19T10:56:52Z</time><name>PT4881</name></trkpt>
<trkpt lat="52.944261" lon="05.975403"><ele>31.9</ele><time>2021-03-19T10:56:53Z</time><name>PT4882</name></trkpt>
<trkpt lat="52.944264" lon="05.975413"><ele>31.9</ele><time>2021-03-19T10:56:54Z</time><name>PT4883</name></trkpt>
<trkpt lat="52.944265" lon="05.975419"><ele>32</ele><time>2021-03-19T10:56:55Z</time><name>PT4884</name></trkpt>
<trkpt lat="52.944264" lon="05.975427"><ele>32.2</ele><time>2021-03-19T10:56:56Z</time><name>PT4885</name></trkpt>
<trkpt lat="52.944264" lon="05.975437"><ele>32</ele><time>2021-03-19T10:56:57Z</time><name>PT4886</name></trkpt>
<trkpt lat="52.944268" lon="05.975447"><ele>32.3</ele><time>2021-03-19T10:56:58Z</time><name>PT4887</name></trkpt>
<trkpt lat="52.944273" lon="05.975458"><ele>32.2</ele><time>2021-03-19T10:56:59Z</time><name>PT4888</name></trkpt>
<trkpt lat="52.944277" lon="05.975472"><ele>32.2</ele><time>2021-03-19T10:57:00Z</time><name>PT4889</name></trkpt>
<trkpt lat="52.944277" lon="05.975487"><ele>32.4</ele><time>2021-03-19T10:57:01Z</time><name>PT4890</name></trkpt>
<trkpt lat="52.944278" lon="05.975500"><ele>32.4</ele><time>2021-03-19T10:57:02Z</time><name>PT4891</name></trkpt>
<trkpt lat="52.944281" lon="05.975514"><ele>32.4</ele><time>2021-03-19T10:57:03Z</time><name>PT4892</name></trkpt>
<trkpt lat="52.944287" lon="05.975531"><ele>32.3</ele><time>2021-03-19T10:57:04Z</time><name>PT4893</name></trkpt>
<trkpt lat="52.944291" lon="05.975549"><ele>32.2</ele><time>2021-03-19T10:57:05Z</time><name>PT4894</name></trkpt>
<trkpt lat="52.944293" lon="05.975566"><ele>32</ele><time>2021-03-19T10:57:06Z</time><name>PT4895</name></trkpt>
<trkpt lat="52.944295" lon="05.975582"><ele>32</ele><time>2021-03-19T10:57:07Z</time><name>PT4896</name></trkpt>
<trkpt lat="52.944298" lon="05.975597"><ele>32.1</ele><time>2021-03-19T10:57:08Z</time><name>PT4897</name></trkpt>
<trkpt lat="52.944301" lon="05.975611"><ele>32.1</ele><time>2021-03-19T10:57:09Z</time><name>PT4898</name></trkpt>
<trkpt lat="52.944306" lon="05.975626"><ele>32.2</ele><time>2021-03-19T10:57:10Z</time><name>PT4899</name></trkpt>
<trkpt lat="52.944312" lon="05.975641"><ele>32.2</ele><time>2021-03-19T10:57:11Z</time><name>PT4900</name></trkpt>
<trkpt lat="52.944318" lon="05.975658"><ele>32.2</ele><time>2021-03-19T10:57:12Z</time><name>PT4901</name></trkpt>
<trkpt lat="52.944322" lon="05.975677"><ele>32.2</ele><time>2021-03-19T10:57:13Z</time><name>PT4902</name></trkpt>
<trkpt lat="52.944327" lon="05.975696"><ele>32.2</ele><time>2021-03-19T10:57:14Z</time><name>PT4903</name></trkpt>
<trkpt lat="52.944333" lon="05.975713"><ele>32.2</ele><time>2021-03-19T10:57:15Z</time><name>PT4904</name></trkpt>
<trkpt lat="52.944336" lon="05.975731"><ele>32.2</ele><time>2021-03-19T10:57:16Z</time><name>PT4905</name></trkpt>
<trkpt lat="52.944337" lon="05.975746"><ele>32.2</ele><time>2021-03-19T10:57:17Z</time><name>PT4906</name></trkpt>
<trkpt lat="52.944339" lon="05.975760"><ele>32.1</ele><time>2021-03-19T10:57:18Z</time><name>PT4907</name></trkpt>
<trkpt lat="52.944341" lon="05.975776"><ele>32</ele><time>2021-03-19T10:57:19Z</time><name>PT4908</name></trkpt>
<trkpt lat="52.944344" lon="05.975793"><ele>32</ele><time>2021-03-19T10:57:20Z</time><name>PT4909</name></trkpt>
<trkpt lat="52.944350" lon="05.975806"><ele>32.1</ele><time>2021-03-19T10:57:21Z</time><name>PT4910</name></trkpt>
<trkpt lat="52.944354" lon="05.975822"><ele>32</ele><time>2021-03-19T10:57:22Z</time><name>PT4911</name></trkpt>
<trkpt lat="52.944361" lon="05.975836"><ele>32.1</ele><time>2021-03-19T10:57:23Z</time><name>PT4912</name></trkpt>
<trkpt lat="52.944364" lon="05.975855"><ele>32.1</ele><time>2021-03-19T10:57:24Z</time><name>PT4913</name></trkpt>
<trkpt lat="52.944369" lon="05.975872"><ele>32.1</ele><time>2021-03-19T10:57:25Z</time><name>PT4914</name></trkpt>
<trkpt lat="52.944375" lon="05.975887"><ele>32</ele><time>2021-03-19T10:57:26Z</time><name>PT4915</name></trkpt>
<trkpt lat="52.944378" lon="05.975907"><ele>32</ele><time>2021-03-19T10:57:27Z</time><name>PT4916</name></trkpt>
<trkpt lat="52.944385" lon="05.975925"><ele>32</ele><time>2021-03-19T10:57:28Z</time><name>PT4917</name></trkpt>
<trkpt lat="52.944393" lon="05.975938"><ele>32</ele><time>2021-03-19T10:57:29Z</time><name>PT4918</name></trkpt>
<trkpt lat="52.944394" lon="05.975958"><ele>32</ele><time>2021-03-19T10:57:30Z</time><name>PT4919</name></trkpt>
<trkpt lat="52.944393" lon="05.975978"><ele>32.2</ele><time>2021-03-19T10:57:31Z</time><name>PT4920</name></trkpt>
<trkpt lat="52.944394" lon="05.975991"><ele>32.3</ele><time>2021-03-19T10:57:32Z</time><name>PT4921</name></trkpt>
<trkpt lat="52.944396" lon="05.976006"><ele>32.2</ele><time>2021-03-19T10:57:33Z</time><name>PT4922</name></trkpt>
<trkpt lat="52.944399" lon="05.976021"><ele>32.2</ele><time>2021-03-19T10:57:34Z</time><name>PT4923</name></trkpt>
<trkpt lat="52.944404" lon="05.976037"><ele>32.2</ele><time>2021-03-19T10:57:35Z</time><name>PT4924</name></trkpt>
<trkpt lat="52.944408" lon="05.976058"><ele>32.1</ele><time>2021-03-19T10:57:36Z</time><name>PT4925</name></trkpt>
<trkpt lat="52.944413" lon="05.976082"><ele>32.1</ele><time>2021-03-19T10:57:37Z</time><name>PT4926</name></trkpt>
<trkpt lat="52.944412" lon="05.976106"><ele>32.1</ele><time>2021-03-19T10:57:38Z</time><name>PT4927</name></trkpt>
<trkpt lat="52.944413" lon="05.976126"><ele>32.1</ele><time>2021-03-19T10:57:39Z</time><name>PT4928</name></trkpt>
<trkpt lat="52.944413" lon="05.976144"><ele>32.1</ele><time>2021-03-19T10:57:40Z</time><name>PT4929</name></trkpt>
<trkpt lat="52.944417" lon="05.976159"><ele>32.1</ele><time>2021-03-19T10:57:41Z</time><name>PT4930</name></trkpt>
<trkpt lat="52.944416" lon="05.976177"><ele>32.1</ele><time>2021-03-19T10:57:42Z</time><name>PT4931</name></trkpt>
<trkpt lat="52.944417" lon="05.976197"><ele>32</ele><time>2021-03-19T10:57:43Z</time><name>PT4932</name></trkpt>
<trkpt lat="52.944423" lon="05.976216"><ele>31.8</ele><time>2021-03-19T10:57:44Z</time><name>PT4933</name></trkpt>
<trkpt lat="52.944428" lon="05.976234"><ele>31.7</ele><time>2021-03-19T10:57:45Z</time><name>PT4934</name></trkpt>
<trkpt lat="52.944432" lon="05.976255"><ele>31.7</ele><time>2021-03-19T10:57:46Z</time><name>PT4935</name></trkpt>
<trkpt lat="52.944438" lon="05.976274"><ele>31.8</ele><time>2021-03-19T10:57:47Z</time><name>PT4936</name></trkpt>
<trkpt lat="52.944442" lon="05.976296"><ele>31.8</ele><time>2021-03-19T10:57:48Z</time><name>PT4937</name></trkpt>
<trkpt lat="52.944451" lon="05.976316"><ele>31.9</ele><time>2021-03-19T10:57:49Z</time><name>PT4938</name></trkpt>
<trkpt lat="52.944456" lon="05.976336"><ele>31.9</ele><time>2021-03-19T10:57:50Z</time><name>PT4939</name></trkpt>
<trkpt lat="52.944462" lon="05.976358"><ele>31.8</ele><time>2021-03-19T10:57:51Z</time><name>PT4940</name></trkpt>
<trkpt lat="52.944468" lon="05.976377"><ele>31.7</ele><time>2021-03-19T10:57:52Z</time><name>PT4941</name></trkpt>
<trkpt lat="52.944478" lon="05.976393"><ele>31.6</ele><time>2021-03-19T10:57:53Z</time><name>PT4942</name></trkpt>
<trkpt lat="52.944484" lon="05.976407"><ele>31.7</ele><time>2021-03-19T10:57:54Z</time><name>PT4943</name></trkpt>
<trkpt lat="52.944489" lon="05.976419"><ele>31.7</ele><time>2021-03-19T10:57:55Z</time><name>PT4944</name></trkpt>
<trkpt lat="52.944492" lon="05.976429"><ele>32</ele><time>2021-03-19T10:57:56Z</time><name>PT4945</name></trkpt>
<trkpt lat="52.944494" lon="05.976443"><ele>32.1</ele><time>2021-03-19T10:57:57Z</time><name>PT4946</name></trkpt>
<trkpt lat="52.944499" lon="05.976458"><ele>32</ele><time>2021-03-19T10:57:58Z</time><name>PT4947</name></trkpt>
<trkpt lat="52.944505" lon="05.976473"><ele>32</ele><time>2021-03-19T10:57:59Z</time><name>PT4948</name></trkpt>
<trkpt lat="52.944508" lon="05.976493"><ele>32</ele><time>2021-03-19T10:58:00Z</time><name>PT4949</name></trkpt>
<trkpt lat="52.944514" lon="05.976512"><ele>31.9</ele><time>2021-03-19T10:58:01Z</time><name>PT4950</name></trkpt>
<trkpt lat="52.944521" lon="05.976532"><ele>32</ele><time>2021-03-19T10:58:02Z</time><name>PT4951</name></trkpt>
<trkpt lat="52.944525" lon="05.976549"><ele>32</ele><time>2021-03-19T10:58:03Z</time><name>PT4952</name></trkpt>
<trkpt lat="52.944526" lon="05.976564"><ele>31.9</ele><time>2021-03-19T10:58:04Z</time><name>PT4953</name></trkpt>
<trkpt lat="52.944530" lon="05.976581"><ele>31.9</ele><time>2021-03-19T10:58:05Z</time><name>PT4954</name></trkpt>
<trkpt lat="52.944535" lon="05.976595"><ele>32.1</ele><time>2021-03-19T10:58:06Z</time><name>PT4955</name></trkpt>
<trkpt lat="52.944541" lon="05.976608"><ele>32.2</ele><time>2021-03-19T10:58:07Z</time><name>PT4956</name></trkpt>
<trkpt lat="52.944547" lon="05.976624"><ele>32.3</ele><time>2021-03-19T10:58:08Z</time><name>PT4957</name></trkpt>
<trkpt lat="52.944553" lon="05.976641"><ele>32.3</ele><time>2021-03-19T10:58:08Z</time><name>PT4958</name></trkpt>
<trkpt lat="52.944557" lon="05.976656"><ele>32.4</ele><time>2021-03-19T10:58:10Z</time><name>PT4959</name></trkpt>
<trkpt lat="52.944559" lon="05.976673"><ele>32.5</ele><time>2021-03-19T10:58:11Z</time><name>PT4960</name></trkpt>
<trkpt lat="52.944560" lon="05.976689"><ele>32.5</ele><time>2021-03-19T10:58:12Z</time><name>PT4961</name></trkpt>
<trkpt lat="52.944562" lon="05.976705"><ele>32.4</ele><time>2021-03-19T10:58:13Z</time><name>PT4962</name></trkpt>
<trkpt lat="52.944567" lon="05.976722"><ele>32.4</ele><time>2021-03-19T10:58:14Z</time><name>PT4963</name></trkpt>
<trkpt lat="52.944571" lon="05.976739"><ele>32.4</ele><time>2021-03-19T10:58:15Z</time><name>PT4964</name></trkpt>
<trkpt lat="52.944578" lon="05.976754"><ele>32.3</ele><time>2021-03-19T10:58:16Z</time><name>PT4965</name></trkpt>
<trkpt lat="52.944582" lon="05.976773"><ele>32.2</ele><time>2021-03-19T10:58:17Z</time><name>PT4966</name></trkpt>
<trkpt lat="52.944584" lon="05.976791"><ele>32.2</ele><time>2021-03-19T10:58:18Z</time><name>PT4967</name></trkpt>
<trkpt lat="52.944586" lon="05.976808"><ele>32.2</ele><time>2021-03-19T10:58:19Z</time><name>PT4968</name></trkpt>
<trkpt lat="52.944589" lon="05.976824"><ele>32.2</ele><time>2021-03-19T10:58:20Z</time><name>PT4969</name></trkpt>
<trkpt lat="52.944592" lon="05.976842"><ele>32.2</ele><time>2021-03-19T10:58:21Z</time><name>PT4970</name></trkpt>
<trkpt lat="52.944594" lon="05.976860"><ele>32.3</ele><time>2021-03-19T10:58:22Z</time><name>PT4971</name></trkpt>
<trkpt lat="52.944600" lon="05.976877"><ele>32.3</ele><time>2021-03-19T10:58:23Z</time><name>PT4972</name></trkpt>
<trkpt lat="52.944604" lon="05.976893"><ele>32.3</ele><time>2021-03-19T10:58:24Z</time><name>PT4973</name></trkpt>
<trkpt lat="52.944604" lon="05.976909"><ele>32.3</ele><time>2021-03-19T10:58:25Z</time><name>PT4974</name></trkpt>
<trkpt lat="52.944606" lon="05.976923"><ele>32.2</ele><time>2021-03-19T10:58:26Z</time><name>PT4975</name></trkpt>
<trkpt lat="52.944610" lon="05.976937"><ele>32.2</ele><time>2021-03-19T10:58:27Z</time><name>PT4976</name></trkpt>
<trkpt lat="52.944615" lon="05.976947"><ele>32.3</ele><time>2021-03-19T10:58:28Z</time><name>PT4977</name></trkpt>
<trkpt lat="52.944616" lon="05.976956"><ele>32.2</ele><time>2021-03-19T10:58:29Z</time><name>PT4978</name></trkpt>
<trkpt lat="52.944621" lon="05.976964"><ele>32.3</ele><time>2021-03-19T10:58:30Z</time><name>PT4979</name></trkpt>
<trkpt lat="52.944621" lon="05.976974"><ele>32.3</ele><time>2021-03-19T10:58:31Z</time><name>PT4980</name></trkpt>
<trkpt lat="52.944623" lon="05.976983"><ele>32.2</ele><time>2021-03-19T10:58:32Z</time><name>PT4981</name></trkpt>
<trkpt lat="52.944627" lon="05.976989"><ele>32.2</ele><time>2021-03-19T10:58:33Z</time><name>PT4982</name></trkpt>
<trkpt lat="52.944628" lon="05.977003"><ele>32.2</ele><time>2021-03-19T10:58:36Z</time><name>PT4983</name></trkpt>
<trkpt lat="52.944632" lon="05.977008"><ele>32.2</ele><time>2021-03-19T10:58:37Z</time><name>PT4984</name></trkpt>
<trkpt lat="52.944633" lon="05.977017"><ele>32.2</ele><time>2021-03-19T10:58:38Z</time><name>PT4985</name></trkpt>
<trkpt lat="52.944631" lon="05.977024"><ele>32.2</ele><time>2021-03-19T10:58:39Z</time><name>PT4986</name></trkpt>
<trkpt lat="52.944632" lon="05.977032"><ele>32.3</ele><time>2021-03-19T10:58:40Z</time><name>PT4987</name></trkpt>
<trkpt lat="52.944633" lon="05.977037"><ele>32.4</ele><time>2021-03-19T10:58:41Z</time><name>PT4988</name></trkpt>
<trkpt lat="52.944634" lon="05.977037"><ele>32.4</ele><time>2021-03-19T10:58:42Z</time><name>PT4989</name></trkpt>
<trkpt lat="52.944633" lon="05.977036"><ele>32.3</ele><time>2021-03-19T10:58:43Z</time><name>PT4990</name></trkpt>
<trkpt lat="52.944636" lon="05.977039"><ele>32.2</ele><time>2021-03-19T10:58:44Z</time><name>PT4991</name></trkpt>
<trkpt lat="52.944633" lon="05.977032"><ele>32.2</ele><time>2021-03-19T10:58:49Z</time><name>PT4992</name></trkpt>
<trkpt lat="52.944630" lon="05.977033"><ele>32.1</ele><time>2021-03-19T10:58:50Z</time><name>PT4993</name></trkpt>
<trkpt lat="52.944628" lon="05.977043"><ele>32.2</ele><time>2021-03-19T10:58:51Z</time><name>PT4994</name></trkpt>
<trkpt lat="52.944628" lon="05.977053"><ele>32.2</ele><time>2021-03-19T10:58:52Z</time><name>PT4995</name></trkpt>
<trkpt lat="52.944627" lon="05.977066"><ele>32</ele><time>2021-03-19T10:58:53Z</time><name>PT4996</name></trkpt>
<trkpt lat="52.944626" lon="05.977079"><ele>32.1</ele><time>2021-03-19T10:58:54Z</time><name>PT4997</name></trkpt>
<trkpt lat="52.944624" lon="05.977090"><ele>32.1</ele><time>2021-03-19T10:58:55Z</time><name>PT4998</name></trkpt>
<trkpt lat="52.944622" lon="05.977097"><ele>31.9</ele><time>2021-03-19T10:58:56Z</time><name>PT4999</name></trkpt>
<trkpt lat="52.944617" lon="05.977104"><ele>31.9</ele><time>2021-03-19T10:58:57Z</time><name>PT5000</name></trkpt>
<trkpt lat="52.944613" lon="05.977109"><ele>32.2</ele><time>2021-03-19T10:58:58Z</time><name>PT5001</name></trkpt>
<trkpt lat="52.944605" lon="05.977119"><ele>32.3</ele><time>2021-03-19T10:58:59Z</time><name>PT5002</name></trkpt>
<trkpt lat="52.944596" lon="05.977123"><ele>32.3</ele><time>2021-03-19T10:59:00Z</time><name>PT5003</name></trkpt>
<trkpt lat="52.944588" lon="05.977126"><ele>32.4</ele><time>2021-03-19T10:59:01Z</time><name>PT5004</name></trkpt>
<trkpt lat="52.944580" lon="05.977132"><ele>32.2</ele><time>2021-03-19T10:59:02Z</time><name>PT5005</name></trkpt>
<trkpt lat="52.944573" lon="05.977135"><ele>32.2</ele><time>2021-03-19T10:59:03Z</time><name>PT5006</name></trkpt>
<trkpt lat="52.944565" lon="05.977141"><ele>32.2</ele><time>2021-03-19T10:59:04Z</time><name>PT5007</name></trkpt>
<trkpt lat="52.944556" lon="05.977148"><ele>32</ele><time>2021-03-19T10:59:05Z</time><name>PT5008</name></trkpt>
<trkpt lat="52.944548" lon="05.977160"><ele>31.8</ele><time>2021-03-19T10:59:06Z</time><name>PT5009</name></trkpt>
<trkpt lat="52.944541" lon="05.977166"><ele>32.1</ele><time>2021-03-19T10:59:07Z</time><name>PT5010</name></trkpt>
<trkpt lat="52.944535" lon="05.977170"><ele>32.2</ele><time>2021-03-19T10:59:08Z</time><name>PT5011</name></trkpt>
<trkpt lat="52.944529" lon="05.977172"><ele>32.1</ele><time>2021-03-19T10:59:09Z</time><name>PT5012</name></trkpt>
<trkpt lat="52.944520" lon="05.977176"><ele>32.1</ele><time>2021-03-19T10:59:10Z</time><name>PT5013</name></trkpt>
<trkpt lat="52.944514" lon="05.977182"><ele>32</ele><time>2021-03-19T10:59:11Z</time><name>PT5014</name></trkpt>
<trkpt lat="52.944508" lon="05.977186"><ele>32</ele><time>2021-03-19T10:59:12Z</time><name>PT5015</name></trkpt>
<trkpt lat="52.944499" lon="05.977196"><ele>31.8</ele><time>2021-03-19T10:59:13Z</time><name>PT5016</name></trkpt>
<trkpt lat="52.944489" lon="05.977202"><ele>32</ele><time>2021-03-19T10:59:14Z</time><name>PT5017</name></trkpt>
<trkpt lat="52.944480" lon="05.977208"><ele>32.1</ele><time>2021-03-19T10:59:15Z</time><name>PT5018</name></trkpt>
<trkpt lat="52.944471" lon="05.977215"><ele>32.2</ele><time>2021-03-19T10:59:16Z</time><name>PT5019</name></trkpt>
<trkpt lat="52.944464" lon="05.977223"><ele>32.2</ele><time>2021-03-19T10:59:17Z</time><name>PT5020</name></trkpt>
<trkpt lat="52.944457" lon="05.977231"><ele>32.2</ele><time>2021-03-19T10:59:18Z</time><name>PT5021</name></trkpt>
<trkpt lat="52.944449" lon="05.977243"><ele>32.2</ele><time>2021-03-19T10:59:19Z</time><name>PT5022</name></trkpt>
<trkpt lat="52.944442" lon="05.977254"><ele>31.9</ele><time>2021-03-19T10:59:20Z</time><name>PT5023</name></trkpt>
<trkpt lat="52.944430" lon="05.977263"><ele>31.9</ele><time>2021-03-19T10:59:21Z</time><name>PT5024</name></trkpt>
<trkpt lat="52.944420" lon="05.977270"><ele>31.6</ele><time>2021-03-19T10:59:22Z</time><name>PT5025</name></trkpt>
<trkpt lat="52.944413" lon="05.977275"><ele>31.5</ele><time>2021-03-19T10:59:23Z</time><name>PT5026</name></trkpt>
<trkpt lat="52.944403" lon="05.977281"><ele>31.7</ele><time>2021-03-19T10:59:24Z</time><name>PT5027</name></trkpt>
<trkpt lat="52.944390" lon="05.977288"><ele>32.7</ele><time>2021-03-19T10:59:25Z</time><name>PT5028</name></trkpt>
<trkpt lat="52.944380" lon="05.977296"><ele>32.4</ele><time>2021-03-19T10:59:26Z</time><name>PT5029</name></trkpt>
<trkpt lat="52.944370" lon="05.977306"><ele>32.7</ele><time>2021-03-19T10:59:27Z</time><name>PT5030</name></trkpt>
<trkpt lat="52.944358" lon="05.977311"><ele>33.1</ele><time>2021-03-19T10:59:28Z</time><name>PT5031</name></trkpt>
<trkpt lat="52.944346" lon="05.977316"><ele>32.3</ele><time>2021-03-19T10:59:29Z</time><name>PT5032</name></trkpt>
<trkpt lat="52.944337" lon="05.977319"><ele>32.2</ele><time>2021-03-19T10:59:30Z</time><name>PT5033</name></trkpt>
<trkpt lat="52.944327" lon="05.977324"><ele>32.1</ele><time>2021-03-19T10:59:31Z</time><name>PT5034</name></trkpt>
<trkpt lat="52.944317" lon="05.977330"><ele>31.9</ele><time>2021-03-19T10:59:32Z</time><name>PT5035</name></trkpt>
<trkpt lat="52.944308" lon="05.977336"><ele>31.9</ele><time>2021-03-19T10:59:33Z</time><name>PT5036</name></trkpt>
<trkpt lat="52.944301" lon="05.977342"><ele>31.8</ele><time>2021-03-19T10:59:34Z</time><name>PT5037</name></trkpt>
<trkpt lat="52.944289" lon="05.977352"><ele>31.9</ele><time>2021-03-19T10:59:35Z</time><name>PT5038</name></trkpt>
<trkpt lat="52.944277" lon="05.977361"><ele>31.9</ele><time>2021-03-19T10:59:36Z</time><name>PT5039</name></trkpt>
<trkpt lat="52.944267" lon="05.977368"><ele>31.9</ele><time>2021-03-19T10:59:37Z</time><name>PT5040</name></trkpt>
<trkpt lat="52.944257" lon="05.977375"><ele>32</ele><time>2021-03-19T10:59:38Z</time><name>PT5041</name></trkpt>
<trkpt lat="52.944251" lon="05.977381"><ele>32</ele><time>2021-03-19T10:59:39Z</time><name>PT5042</name></trkpt>
<trkpt lat="52.944241" lon="05.977386"><ele>31.9</ele><time>2021-03-19T10:59:40Z</time><name>PT5043</name></trkpt>
<trkpt lat="52.944233" lon="05.977392"><ele>31.8</ele><time>2021-03-19T10:59:41Z</time><name>PT5044</name></trkpt>
<trkpt lat="52.944224" lon="05.977397"><ele>31.7</ele><time>2021-03-19T10:59:42Z</time><name>PT5045</name></trkpt>
<trkpt lat="52.944212" lon="05.977405"><ele>31.9</ele><time>2021-03-19T10:59:43Z</time><name>PT5046</name></trkpt>
<trkpt lat="52.944203" lon="05.977414"><ele>32</ele><time>2021-03-19T10:59:44Z</time><name>PT5047</name></trkpt>
<trkpt lat="52.944193" lon="05.977425"><ele>32.1</ele><time>2021-03-19T10:59:45Z</time><name>PT5048</name></trkpt>
<trkpt lat="52.944182" lon="05.977434"><ele>32</ele><time>2021-03-19T10:59:46Z</time><name>PT5049</name></trkpt>
<trkpt lat="52.944171" lon="05.977444"><ele>32.2</ele><time>2021-03-19T10:59:47Z</time><name>PT5050</name></trkpt>
<trkpt lat="52.944163" lon="05.977451"><ele>32.1</ele><time>2021-03-19T10:59:48Z</time><name>PT5051</name></trkpt>
<trkpt lat="52.944151" lon="05.977458"><ele>32.2</ele><time>2021-03-19T10:59:49Z</time><name>PT5052</name></trkpt>
<trkpt lat="52.944144" lon="05.977460"><ele>32.2</ele><time>2021-03-19T10:59:50Z</time><name>PT5053</name></trkpt>
<trkpt lat="52.944136" lon="05.977465"><ele>32.2</ele><time>2021-03-19T10:59:51Z</time><name>PT5054</name></trkpt>
<trkpt lat="52.944131" lon="05.977468"><ele>32.2</ele><time>2021-03-19T10:59:52Z</time><name>PT5055</name></trkpt>
<trkpt lat="52.944121" lon="05.977475"><ele>32.2</ele><time>2021-03-19T10:59:53Z</time><name>PT5056</name></trkpt>
<trkpt lat="52.944109" lon="05.977485"><ele>32.2</ele><time>2021-03-19T10:59:54Z</time><name>PT5057</name></trkpt>
<trkpt lat="52.944098" lon="05.977493"><ele>32.3</ele><time>2021-03-19T10:59:55Z</time><name>PT5058</name></trkpt>
<trkpt lat="52.944089" lon="05.977501"><ele>32.4</ele><time>2021-03-19T10:59:56Z</time><name>PT5059</name></trkpt>
<trkpt lat="52.944078" lon="05.977509"><ele>32.3</ele><time>2021-03-19T10:59:57Z</time><name>PT5060</name></trkpt>
<trkpt lat="52.944068" lon="05.977515"><ele>32.1</ele><time>2021-03-19T10:59:58Z</time><name>PT5061</name></trkpt>
<trkpt lat="52.944058" lon="05.977523"><ele>32</ele><time>2021-03-19T10:59:59Z</time><name>PT5062</name></trkpt>
<trkpt lat="52.944046" lon="05.977530"><ele>31.9</ele><time>2021-03-19T11:00:00Z</time><name>PT5063</name></trkpt>
<trkpt lat="52.944037" lon="05.977536"><ele>31.9</ele><time>2021-03-19T11:00:01Z</time><name>PT5064</name></trkpt>
<trkpt lat="52.944028" lon="05.977544"><ele>31.9</ele><time>2021-03-19T11:00:02Z</time><name>PT5065</name></trkpt>
<trkpt lat="52.944018" lon="05.977554"><ele>32</ele><time>2021-03-19T11:00:03Z</time><name>PT5066</name></trkpt>
<trkpt lat="52.944005" lon="05.977567"><ele>32</ele><time>2021-03-19T11:00:04Z</time><name>PT5067</name></trkpt>
<trkpt lat="52.943993" lon="05.977575"><ele>31.9</ele><time>2021-03-19T11:00:05Z</time><name>PT5068</name></trkpt>
<trkpt lat="52.943984" lon="05.977584"><ele>31.8</ele><time>2021-03-19T11:00:06Z</time><name>PT5069</name></trkpt>
<trkpt lat="52.943978" lon="05.977594"><ele>31.9</ele><time>2021-03-19T11:00:07Z</time><name>PT5070</name></trkpt>
<trkpt lat="52.943972" lon="05.977602"><ele>31.9</ele><time>2021-03-19T11:00:08Z</time><name>PT5071</name></trkpt>
<trkpt lat="52.943960" lon="05.977610"><ele>32</ele><time>2021-03-19T11:00:09Z</time><name>PT5072</name></trkpt>
<trkpt lat="52.943948" lon="05.977615"><ele>31.8</ele><time>2021-03-19T11:00:10Z</time><name>PT5073</name></trkpt>
<trkpt lat="52.943932" lon="05.977622"><ele>31.9</ele><time>2021-03-19T11:00:11Z</time><name>PT5074</name></trkpt>
<trkpt lat="52.943921" lon="05.977629"><ele>31.8</ele><time>2021-03-19T11:00:12Z</time><name>PT5075</name></trkpt>
<trkpt lat="52.943911" lon="05.977634"><ele>31.8</ele><time>2021-03-19T11:00:13Z</time><name>PT5076</name></trkpt>
<trkpt lat="52.943903" lon="05.977645"><ele>32</ele><time>2021-03-19T11:00:14Z</time><name>PT5077</name></trkpt>
<trkpt lat="52.943893" lon="05.977654"><ele>32.1</ele><time>2021-03-19T11:00:15Z</time><name>PT5078</name></trkpt>
<trkpt lat="52.943883" lon="05.977664"><ele>32</ele><time>2021-03-19T11:00:16Z</time><name>PT5079</name></trkpt>
<trkpt lat="52.943868" lon="05.977674"><ele>32.1</ele><time>2021-03-19T11:00:17Z</time><name>PT5080</name></trkpt>
<trkpt lat="52.943857" lon="05.977684"><ele>32.1</ele><time>2021-03-19T11:00:17Z</time><name>PT5081</name></trkpt>
<trkpt lat="52.943844" lon="05.977694"><ele>32.1</ele><time>2021-03-19T11:00:19Z</time><name>PT5082</name></trkpt>
<trkpt lat="52.943833" lon="05.977702"><ele>31.8</ele><time>2021-03-19T11:00:20Z</time><name>PT5083</name></trkpt>
<trkpt lat="52.943818" lon="05.977710"><ele>31.9</ele><time>2021-03-19T11:00:21Z</time><name>PT5084</name></trkpt>
<trkpt lat="52.943806" lon="05.977716"><ele>31.9</ele><time>2021-03-19T11:00:22Z</time><name>PT5085</name></trkpt>
<trkpt lat="52.943796" lon="05.977723"><ele>32.2</ele><time>2021-03-19T11:00:23Z</time><name>PT5086</name></trkpt>
<trkpt lat="52.943784" lon="05.977731"><ele>32.2</ele><time>2021-03-19T11:00:24Z</time><name>PT5087</name></trkpt>
<trkpt lat="52.943771" lon="05.977741"><ele>32.2</ele><time>2021-03-19T11:00:25Z</time><name>PT5088</name></trkpt>
<trkpt lat="52.943757" lon="05.977749"><ele>32.3</ele><time>2021-03-19T11:00:26Z</time><name>PT5089</name></trkpt>
<trkpt lat="52.943745" lon="05.977762"><ele>32.3</ele><time>2021-03-19T11:00:27Z</time><name>PT5090</name></trkpt>
<trkpt lat="52.943732" lon="05.977775"><ele>32.2</ele><time>2021-03-19T11:00:28Z</time><name>PT5091</name></trkpt>
<trkpt lat="52.943722" lon="05.977789"><ele>32.1</ele><time>2021-03-19T11:00:29Z</time><name>PT5092</name></trkpt>
<trkpt lat="52.943712" lon="05.977801"><ele>32.1</ele><time>2021-03-19T11:00:29Z</time><name>PT5093</name></trkpt>
<trkpt lat="52.943702" lon="05.977807"><ele>31.9</ele><time>2021-03-19T11:00:31Z</time><name>PT5094</name></trkpt>
<trkpt lat="52.943695" lon="05.977816"><ele>31.9</ele><time>2021-03-19T11:00:32Z</time><name>PT5095</name></trkpt>
<trkpt lat="52.943682" lon="05.977824"><ele>32</ele><time>2021-03-19T11:00:33Z</time><name>PT5096</name></trkpt>
<trkpt lat="52.943670" lon="05.977833"><ele>32.1</ele><time>2021-03-19T11:00:34Z</time><name>PT5097</name></trkpt>
<trkpt lat="52.943660" lon="05.977842"><ele>32.1</ele><time>2021-03-19T11:00:35Z</time><name>PT5098</name></trkpt>
<trkpt lat="52.943648" lon="05.977853"><ele>32.1</ele><time>2021-03-19T11:00:36Z</time><name>PT5099</name></trkpt>
<trkpt lat="52.943636" lon="05.977861"><ele>32</ele><time>2021-03-19T11:00:37Z</time><name>PT5100</name></trkpt>
<trkpt lat="52.943625" lon="05.977870"><ele>32.2</ele><time>2021-03-19T11:00:38Z</time><name>PT5101</name></trkpt>
<trkpt lat="52.943615" lon="05.977875"><ele>32.2</ele><time>2021-03-19T11:00:39Z</time><name>PT5102</name></trkpt>
<trkpt lat="52.943607" lon="05.977879"><ele>32.4</ele><time>2021-03-19T11:00:40Z</time><name>PT5103</name></trkpt>
<trkpt lat="52.943596" lon="05.977884"><ele>32.4</ele><time>2021-03-19T11:00:41Z</time><name>PT5104</name></trkpt>
<trkpt lat="52.943586" lon="05.977892"><ele>32.3</ele><time>2021-03-19T11:00:42Z</time><name>PT5105</name></trkpt>
<trkpt lat="52.943577" lon="05.977899"><ele>32.2</ele><time>2021-03-19T11:00:43Z</time><name>PT5106</name></trkpt>
<trkpt lat="52.943567" lon="05.977907"><ele>31.9</ele><time>2021-03-19T11:00:44Z</time><name>PT5107</name></trkpt>
<trkpt lat="52.943555" lon="05.977917"><ele>31.9</ele><time>2021-03-19T11:00:45Z</time><name>PT5108</name></trkpt>
<trkpt lat="52.943544" lon="05.977924"><ele>32</ele><time>2021-03-19T11:00:46Z</time><name>PT5109</name></trkpt>
<trkpt lat="52.943533" lon="05.977931"><ele>32.2</ele><time>2021-03-19T11:00:47Z</time><name>PT5110</name></trkpt>
<trkpt lat="52.943523" lon="05.977937"><ele>32.2</ele><time>2021-03-19T11:00:48Z</time><name>PT5111</name></trkpt>
<trkpt lat="52.943514" lon="05.977943"><ele>32.3</ele><time>2021-03-19T11:00:49Z</time><name>PT5112</name></trkpt>
<trkpt lat="52.943506" lon="05.977947"><ele>32.2</ele><time>2021-03-19T11:00:50Z</time><name>PT5113</name></trkpt>
<trkpt lat="52.943497" lon="05.977954"><ele>32.1</ele><time>2021-03-19T11:00:51Z</time><name>PT5114</name></trkpt>
<trkpt lat="52.943486" lon="05.977962"><ele>32.2</ele><time>2021-03-19T11:00:52Z</time><name>PT5115</name></trkpt>
<trkpt lat="52.943473" lon="05.977973"><ele>32.3</ele><time>2021-03-19T11:00:53Z</time><name>PT5116</name></trkpt>
<trkpt lat="52.943464" lon="05.977980"><ele>32.4</ele><time>2021-03-19T11:00:54Z</time><name>PT5117</name></trkpt>
<trkpt lat="52.943455" lon="05.977988"><ele>32.4</ele><time>2021-03-19T11:00:55Z</time><name>PT5118</name></trkpt>
<trkpt lat="52.943445" lon="05.977995"><ele>32.4</ele><time>2021-03-19T11:00:56Z</time><name>PT5119</name></trkpt>
<trkpt lat="52.943434" lon="05.977998"><ele>32.2</ele><time>2021-03-19T11:00:57Z</time><name>PT5120</name></trkpt>
<trkpt lat="52.943423" lon="05.978004"><ele>32.2</ele><time>2021-03-19T11:00:58Z</time><name>PT5121</name></trkpt>
<trkpt lat="52.943410" lon="05.978009"><ele>32.2</ele><time>2021-03-19T11:00:59Z</time><name>PT5122</name></trkpt>
<trkpt lat="52.943399" lon="05.978015"><ele>32.2</ele><time>2021-03-19T11:01:00Z</time><name>PT5123</name></trkpt>
<trkpt lat="52.943387" lon="05.978022"><ele>32.2</ele><time>2021-03-19T11:01:01Z</time><name>PT5124</name></trkpt>
<trkpt lat="52.943377" lon="05.978033"><ele>32.5</ele><time>2021-03-19T11:01:02Z</time><name>PT5125</name></trkpt>
<trkpt lat="52.943370" lon="05.978043"><ele>32.5</ele><time>2021-03-19T11:01:03Z</time><name>PT5126</name></trkpt>
<trkpt lat="52.943359" lon="05.978054"><ele>32.5</ele><time>2021-03-19T11:01:04Z</time><name>PT5127</name></trkpt>
<trkpt lat="52.943348" lon="05.978061"><ele>32.4</ele><time>2021-03-19T11:01:05Z</time><name>PT5128</name></trkpt>
<trkpt lat="52.943341" lon="05.978064"><ele>32.3</ele><time>2021-03-19T11:01:06Z</time><name>PT5129</name></trkpt>
<trkpt lat="52.943333" lon="05.978066"><ele>32.4</ele><time>2021-03-19T11:01:07Z</time><name>PT5130</name></trkpt>
<trkpt lat="52.943324" lon="05.978071"><ele>32.2</ele><time>2021-03-19T11:01:08Z</time><name>PT5131</name></trkpt>
<trkpt lat="52.943313" lon="05.978078"><ele>32.1</ele><time>2021-03-19T11:01:09Z</time><name>PT5132</name></trkpt>
<trkpt lat="52.943304" lon="05.978086"><ele>32</ele><time>2021-03-19T11:01:10Z</time><name>PT5133</name></trkpt>
<trkpt lat="52.943293" lon="05.978095"><ele>31.8</ele><time>2021-03-19T11:01:11Z</time><name>PT5134</name></trkpt>
<trkpt lat="52.943281" lon="05.978106"><ele>31.8</ele><time>2021-03-19T11:01:12Z</time><name>PT5135</name></trkpt>
<trkpt lat="52.943271" lon="05.978115"><ele>32</ele><time>2021-03-19T11:01:13Z</time><name>PT5136</name></trkpt>
<trkpt lat="52.943263" lon="05.978125"><ele>32</ele><time>2021-03-19T11:01:14Z</time><name>PT5137</name></trkpt>
<trkpt lat="52.943255" lon="05.978133"><ele>32.2</ele><time>2021-03-19T11:01:15Z</time><name>PT5138</name></trkpt>
<trkpt lat="52.943242" lon="05.978141"><ele>32.3</ele><time>2021-03-19T11:01:16Z</time><name>PT5139</name></trkpt>
<trkpt lat="52.943228" lon="05.978151"><ele>32.4</ele><time>2021-03-19T11:01:17Z</time><name>PT5140</name></trkpt>
<trkpt lat="52.943217" lon="05.978158"><ele>32.3</ele><time>2021-03-19T11:01:18Z</time><name>PT5141</name></trkpt>
<trkpt lat="52.943208" lon="05.978163"><ele>32.4</ele><time>2021-03-19T11:01:19Z</time><name>PT5142</name></trkpt>
<trkpt lat="52.943198" lon="05.978170"><ele>32.3</ele><time>2021-03-19T11:01:20Z</time><name>PT5143</name></trkpt>
<trkpt lat="52.943187" lon="05.978176"><ele>32.2</ele><time>2021-03-19T11:01:21Z</time><name>PT5144</name></trkpt>
<trkpt lat="52.943179" lon="05.978182"><ele>32.1</ele><time>2021-03-19T11:01:22Z</time><name>PT5145</name></trkpt>
<trkpt lat="52.943171" lon="05.978190"><ele>32.2</ele><time>2021-03-19T11:01:23Z</time><name>PT5146</name></trkpt>
<trkpt lat="52.943160" lon="05.978199"><ele>32.2</ele><time>2021-03-19T11:01:24Z</time><name>PT5147</name></trkpt>
<trkpt lat="52.943148" lon="05.978209"><ele>32.2</ele><time>2021-03-19T11:01:25Z</time><name>PT5148</name></trkpt>
<trkpt lat="52.943137" lon="05.978219"><ele>32.2</ele><time>2021-03-19T11:01:26Z</time><name>PT5149</name></trkpt>
<trkpt lat="52.943123" lon="05.978230"><ele>32.4</ele><time>2021-03-19T11:01:27Z</time><name>PT5150</name></trkpt>
<trkpt lat="52.943112" lon="05.978235"><ele>32.2</ele><time>2021-03-19T11:01:28Z</time><name>PT5151</name></trkpt>
<trkpt lat="52.943103" lon="05.978238"><ele>32.2</ele><time>2021-03-19T11:01:29Z</time><name>PT5152</name></trkpt>
<trkpt lat="52.943094" lon="05.978242"><ele>32.2</ele><time>2021-03-19T11:01:30Z</time><name>PT5153</name></trkpt>
<trkpt lat="52.943083" lon="05.978252"><ele>32.4</ele><time>2021-03-19T11:01:31Z</time><name>PT5154</name></trkpt>
<trkpt lat="52.943072" lon="05.978261"><ele>32.2</ele><time>2021-03-19T11:01:32Z</time><name>PT5155</name></trkpt>
<trkpt lat="52.943061" lon="05.978271"><ele>32.2</ele><time>2021-03-19T11:01:33Z</time><name>PT5156</name></trkpt>
<trkpt lat="52.943052" lon="05.978278"><ele>32.2</ele><time>2021-03-19T11:01:34Z</time><name>PT5157</name></trkpt>
<trkpt lat="52.943040" lon="05.978290"><ele>32.2</ele><time>2021-03-19T11:01:35Z</time><name>PT5158</name></trkpt>
<trkpt lat="52.943026" lon="05.978302"><ele>32.2</ele><time>2021-03-19T11:01:36Z</time><name>PT5159</name></trkpt>
<trkpt lat="52.943014" lon="05.978308"><ele>32.2</ele><time>2021-03-19T11:01:37Z</time><name>PT5160</name></trkpt>
<trkpt lat="52.943005" lon="05.978312"><ele>32.3</ele><time>2021-03-19T11:01:38Z</time><name>PT5161</name></trkpt>
<trkpt lat="52.942994" lon="05.978318"><ele>32.2</ele><time>2021-03-19T11:01:39Z</time><name>PT5162</name></trkpt>
<trkpt lat="52.942985" lon="05.978323"><ele>32.1</ele><time>2021-03-19T11:01:40Z</time><name>PT5163</name></trkpt>
<trkpt lat="52.942977" lon="05.978328"><ele>32.1</ele><time>2021-03-19T11:01:41Z</time><name>PT5164</name></trkpt>
<trkpt lat="52.942965" lon="05.978337"><ele>32</ele><time>2021-03-19T11:01:42Z</time><name>PT5165</name></trkpt>
<trkpt lat="52.942954" lon="05.978347"><ele>32.1</ele><time>2021-03-19T11:01:43Z</time><name>PT5166</name></trkpt>
<trkpt lat="52.942945" lon="05.978353"><ele>31.9</ele><time>2021-03-19T11:01:44Z</time><name>PT5167</name></trkpt>
<trkpt lat="52.942935" lon="05.978361"><ele>32.1</ele><time>2021-03-19T11:01:45Z</time><name>PT5168</name></trkpt>
<trkpt lat="52.942926" lon="05.978371"><ele>32</ele><time>2021-03-19T11:01:46Z</time><name>PT5169</name></trkpt>
<trkpt lat="52.942916" lon="05.978381"><ele>32.2</ele><time>2021-03-19T11:01:47Z</time><name>PT5170</name></trkpt>
<trkpt lat="52.942906" lon="05.978388"><ele>32.1</ele><time>2021-03-19T11:01:48Z</time><name>PT5171</name></trkpt>
<trkpt lat="52.942896" lon="05.978391"><ele>32.1</ele><time>2021-03-19T11:01:49Z</time><name>PT5172</name></trkpt>
<trkpt lat="52.942887" lon="05.978397"><ele>31.9</ele><time>2021-03-19T11:01:50Z</time><name>PT5173</name></trkpt>
<trkpt lat="52.942877" lon="05.978403"><ele>32</ele><time>2021-03-19T11:01:51Z</time><name>PT5174</name></trkpt>
<trkpt lat="52.942870" lon="05.978409"><ele>32</ele><time>2021-03-19T11:01:52Z</time><name>PT5175</name></trkpt>
<trkpt lat="52.942863" lon="05.978417"><ele>31.9</ele><time>2021-03-19T11:01:53Z</time><name>PT5176</name></trkpt>
<trkpt lat="52.942855" lon="05.978428"><ele>32.2</ele><time>2021-03-19T11:01:54Z</time><name>PT5177</name></trkpt>
<trkpt lat="52.942845" lon="05.978438"><ele>32.3</ele><time>2021-03-19T11:01:55Z</time><name>PT5178</name></trkpt>
<trkpt lat="52.942829" lon="05.978449"><ele>32.4</ele><time>2021-03-19T11:01:56Z</time><name>PT5179</name></trkpt>
<trkpt lat="52.942813" lon="05.978461"><ele>32.3</ele><time>2021-03-19T11:01:57Z</time><name>PT5180</name></trkpt>
<trkpt lat="52.942803" lon="05.978469"><ele>32.4</ele><time>2021-03-19T11:01:58Z</time><name>PT5181</name></trkpt>
<trkpt lat="52.942795" lon="05.978471"><ele>32.2</ele><time>2021-03-19T11:01:59Z</time><name>PT5182</name></trkpt>
<trkpt lat="52.942788" lon="05.978478"><ele>32.2</ele><time>2021-03-19T11:02:00Z</time><name>PT5183</name></trkpt>
<trkpt lat="52.942781" lon="05.978483"><ele>32.2</ele><time>2021-03-19T11:02:01Z</time><name>PT5184</name></trkpt>
<trkpt lat="52.942768" lon="05.978493"><ele>32.2</ele><time>2021-03-19T11:02:02Z</time><name>PT5185</name></trkpt>
<trkpt lat="52.942758" lon="05.978504"><ele>32.2</ele><time>2021-03-19T11:02:03Z</time><name>PT5186</name></trkpt>
<trkpt lat="52.942748" lon="05.978510"><ele>32.3</ele><time>2021-03-19T11:02:04Z</time><name>PT5187</name></trkpt>
<trkpt lat="52.942736" lon="05.978518"><ele>32.2</ele><time>2021-03-19T11:02:05Z</time><name>PT5188</name></trkpt>
<trkpt lat="52.942723" lon="05.978523"><ele>32.2</ele><time>2021-03-19T11:02:06Z</time><name>PT5189</name></trkpt>
<trkpt lat="52.942712" lon="05.978527"><ele>32.2</ele><time>2021-03-19T11:02:07Z</time><name>PT5190</name></trkpt>
<trkpt lat="52.942707" lon="05.978531"><ele>32.1</ele><time>2021-03-19T11:02:08Z</time><name>PT5191</name></trkpt>
<trkpt lat="52.942698" lon="05.978537"><ele>32.1</ele><time>2021-03-19T11:02:09Z</time><name>PT5192</name></trkpt>
<trkpt lat="52.942689" lon="05.978546"><ele>32.2</ele><time>2021-03-19T11:02:10Z</time><name>PT5193</name></trkpt>
<trkpt lat="52.942681" lon="05.978554"><ele>32.3</ele><time>2021-03-19T11:02:11Z</time><name>PT5194</name></trkpt>
<trkpt lat="52.942672" lon="05.978561"><ele>32.3</ele><time>2021-03-19T11:02:12Z</time><name>PT5195</name></trkpt>
<trkpt lat="52.942662" lon="05.978570"><ele>32.4</ele><time>2021-03-19T11:02:13Z</time><name>PT5196</name></trkpt>
<trkpt lat="52.942652" lon="05.978579"><ele>32.6</ele><time>2021-03-19T11:02:14Z</time><name>PT5197</name></trkpt>
<trkpt lat="52.942641" lon="05.978582"><ele>32.4</ele><time>2021-03-19T11:02:15Z</time><name>PT5198</name></trkpt>
<trkpt lat="52.942628" lon="05.978590"><ele>32.2</ele><time>2021-03-19T11:02:16Z</time><name>PT5199</name></trkpt>
<trkpt lat="52.942614" lon="05.978599"><ele>32.2</ele><time>2021-03-19T11:02:17Z</time><name>PT5200</name></trkpt>
<trkpt lat="52.942597" lon="05.978607"><ele>32.2</ele><time>2021-03-19T11:02:18Z</time><name>PT5201</name></trkpt>
<trkpt lat="52.942585" lon="05.978619"><ele>31.9</ele><time>2021-03-19T11:02:19Z</time><name>PT5202</name></trkpt>
<trkpt lat="52.942576" lon="05.978629"><ele>32.1</ele><time>2021-03-19T11:02:20Z</time><name>PT5203</name></trkpt>
<trkpt lat="52.942564" lon="05.978640"><ele>32.2</ele><time>2021-03-19T11:02:21Z</time><name>PT5204</name></trkpt>
<trkpt lat="52.942554" lon="05.978649"><ele>32.2</ele><time>2021-03-19T11:02:22Z</time><name>PT5205</name></trkpt>
<trkpt lat="52.942546" lon="05.978656"><ele>32.3</ele><time>2021-03-19T11:02:23Z</time><name>PT5206</name></trkpt>
<trkpt lat="52.942540" lon="05.978661"><ele>32.4</ele><time>2021-03-19T11:02:24Z</time><name>PT5207</name></trkpt>
<trkpt lat="52.942533" lon="05.978662"><ele>32.3</ele><time>2021-03-19T11:02:25Z</time><name>PT5208</name></trkpt>
<trkpt lat="52.942524" lon="05.978667"><ele>32.4</ele><time>2021-03-19T11:02:26Z</time><name>PT5209</name></trkpt>
<trkpt lat="52.942517" lon="05.978679"><ele>32.4</ele><time>2021-03-19T11:02:27Z</time><name>PT5210</name></trkpt>
<trkpt lat="52.942508" lon="05.978689"><ele>32.5</ele><time>2021-03-19T11:02:28Z</time><name>PT5211</name></trkpt>
<trkpt lat="52.942500" lon="05.978694"><ele>32.4</ele><time>2021-03-19T11:02:29Z</time><name>PT5212</name></trkpt>
<trkpt lat="52.942491" lon="05.978699"><ele>32.5</ele><time>2021-03-19T11:02:30Z</time><name>PT5213</name></trkpt>
<trkpt lat="52.942484" lon="05.978701"><ele>32.4</ele><time>2021-03-19T11:02:31Z</time><name>PT5214</name></trkpt>
<trkpt lat="52.942474" lon="05.978706"><ele>32.2</ele><time>2021-03-19T11:02:32Z</time><name>PT5215</name></trkpt>
<trkpt lat="52.942466" lon="05.978711"><ele>32.2</ele><time>2021-03-19T11:02:33Z</time><name>PT5216</name></trkpt>
<trkpt lat="52.942457" lon="05.978718"><ele>32.2</ele><time>2021-03-19T11:02:34Z</time><name>PT5217</name></trkpt>
<trkpt lat="52.942450" lon="05.978720"><ele>32.2</ele><time>2021-03-19T11:02:35Z</time><name>PT5218</name></trkpt>
<trkpt lat="52.942442" lon="05.978724"><ele>32.2</ele><time>2021-03-19T11:02:36Z</time><name>PT5219</name></trkpt>
<trkpt lat="52.942434" lon="05.978728"><ele>32.2</ele><time>2021-03-19T11:02:37Z</time><name>PT5220</name></trkpt>
<trkpt lat="52.942426" lon="05.978737"><ele>32.1</ele><time>2021-03-19T11:02:38Z</time><name>PT5221</name></trkpt>
<trkpt lat="52.942416" lon="05.978748"><ele>32.2</ele><time>2021-03-19T11:02:39Z</time><name>PT5222</name></trkpt>
<trkpt lat="52.942402" lon="05.978761"><ele>32.1</ele><time>2021-03-19T11:02:40Z</time><name>PT5223</name></trkpt>
<trkpt lat="52.942390" lon="05.978770"><ele>32.2</ele><time>2021-03-19T11:02:41Z</time><name>PT5224</name></trkpt>
<trkpt lat="52.942381" lon="05.978775"><ele>32.2</ele><time>2021-03-19T11:02:42Z</time><name>PT5225</name></trkpt>
<trkpt lat="52.942366" lon="05.978785"><ele>32.4</ele><time>2021-03-19T11:02:43Z</time><name>PT5226</name></trkpt>
<trkpt lat="52.942353" lon="05.978794"><ele>32.5</ele><time>2021-03-19T11:02:44Z</time><name>PT5227</name></trkpt>
<trkpt lat="52.942342" lon="05.978800"><ele>32.4</ele><time>2021-03-19T11:02:45Z</time><name>PT5228</name></trkpt>
<trkpt lat="52.942336" lon="05.978802"><ele>32.3</ele><time>2021-03-19T11:02:46Z</time><name>PT5229</name></trkpt>
<trkpt lat="52.942336" lon="05.978805"><ele>32.5</ele><time>2021-03-19T11:02:47Z</time><name>PT5230</name></trkpt>
<trkpt lat="52.942331" lon="05.978810"><ele>32.5</ele><time>2021-03-19T11:02:47Z</time><name>PT5231</name></trkpt>
<trkpt lat="52.942318" lon="05.978822"><ele>32.4</ele><time>2021-03-19T11:02:49Z</time><name>PT5232</name></trkpt>
<trkpt lat="52.942303" lon="05.978830"><ele>32.5</ele><time>2021-03-19T11:02:50Z</time><name>PT5233</name></trkpt>
<trkpt lat="52.942291" lon="05.978838"><ele>32.5</ele><time>2021-03-19T11:02:51Z</time><name>PT5234</name></trkpt>
<trkpt lat="52.942282" lon="05.978846"><ele>32.3</ele><time>2021-03-19T11:02:52Z</time><name>PT5235</name></trkpt>
<trkpt lat="52.942269" lon="05.978856"><ele>32.3</ele><time>2021-03-19T11:02:53Z</time><name>PT5236</name></trkpt>
<trkpt lat="52.942255" lon="05.978867"><ele>32.2</ele><time>2021-03-19T11:02:54Z</time><name>PT5237</name></trkpt>
<trkpt lat="52.942241" lon="05.978877"><ele>32.2</ele><time>2021-03-19T11:02:55Z</time><name>PT5238</name></trkpt>
<trkpt lat="52.942232" lon="05.978884"><ele>32.1</ele><time>2021-03-19T11:02:56Z</time><name>PT5239</name></trkpt>
<trkpt lat="52.942221" lon="05.978894"><ele>32</ele><time>2021-03-19T11:02:56Z</time><name>PT5240</name></trkpt>
<trkpt lat="52.942210" lon="05.978898"><ele>31.8</ele><time>2021-03-19T11:02:58Z</time><name>PT5241</name></trkpt>
<trkpt lat="52.942199" lon="05.978902"><ele>31.8</ele><time>2021-03-19T11:02:59Z</time><name>PT5242</name></trkpt>
<trkpt lat="52.942190" lon="05.978907"><ele>31.7</ele><time>2021-03-19T11:02:59Z</time><name>PT5243</name></trkpt>
<trkpt lat="52.942182" lon="05.978916"><ele>31.6</ele><time>2021-03-19T11:03:01Z</time><name>PT5244</name></trkpt>
<trkpt lat="52.942170" lon="05.978926"><ele>31.5</ele><time>2021-03-19T11:03:02Z</time><name>PT5245</name></trkpt>
<trkpt lat="52.942162" lon="05.978931"><ele>31.6</ele><time>2021-03-19T11:03:03Z</time><name>PT5246</name></trkpt>
<trkpt lat="52.942152" lon="05.978937"><ele>31.7</ele><time>2021-03-19T11:03:04Z</time><name>PT5247</name></trkpt>
<trkpt lat="52.942141" lon="05.978943"><ele>31.8</ele><time>2021-03-19T11:03:05Z</time><name>PT5248</name></trkpt>
<trkpt lat="52.942131" lon="05.978951"><ele>31.9</ele><time>2021-03-19T11:03:06Z</time><name>PT5249</name></trkpt>
<trkpt lat="52.942123" lon="05.978959"><ele>31.8</ele><time>2021-03-19T11:03:07Z</time><name>PT5250</name></trkpt>
<trkpt lat="52.942117" lon="05.978967"><ele>31.9</ele><time>2021-03-19T11:03:08Z</time><name>PT5251</name></trkpt>
<trkpt lat="52.942109" lon="05.978975"><ele>31.8</ele><time>2021-03-19T11:03:09Z</time><name>PT5252</name></trkpt>
<trkpt lat="52.942103" lon="05.978982"><ele>31.9</ele><time>2021-03-19T11:03:10Z</time><name>PT5253</name></trkpt>
<trkpt lat="52.942093" lon="05.978990"><ele>31.9</ele><time>2021-03-19T11:03:11Z</time><name>PT5254</name></trkpt>
<trkpt lat="52.942082" lon="05.978999"><ele>31.9</ele><time>2021-03-19T11:03:11Z</time><name>PT5255</name></trkpt>
<trkpt lat="52.942074" lon="05.979002"><ele>32</ele><time>2021-03-19T11:03:13Z</time><name>PT5256</name></trkpt>
<trkpt lat="52.942065" lon="05.979008"><ele>31.9</ele><time>2021-03-19T11:03:14Z</time><name>PT5257</name></trkpt>
<trkpt lat="52.942055" lon="05.979017"><ele>31.7</ele><time>2021-03-19T11:03:15Z</time><name>PT5258</name></trkpt>
<trkpt lat="52.942046" lon="05.979023"><ele>31.8</ele><time>2021-03-19T11:03:16Z</time><name>PT5259</name></trkpt>
<trkpt lat="52.942035" lon="05.979031"><ele>32</ele><time>2021-03-19T11:03:17Z</time><name>PT5260</name></trkpt>
<trkpt lat="52.942025" lon="05.979038"><ele>31.8</ele><time>2021-03-19T11:03:18Z</time><name>PT5261</name></trkpt>
<trkpt lat="52.942014" lon="05.979047"><ele>32</ele><time>2021-03-19T11:03:19Z</time><name>PT5262</name></trkpt>
<trkpt lat="52.942005" lon="05.979053"><ele>32.2</ele><time>2021-03-19T11:03:20Z</time><name>PT5263</name></trkpt>
<trkpt lat="52.941995" lon="05.979058"><ele>32.2</ele><time>2021-03-19T11:03:21Z</time><name>PT5264</name></trkpt>
<trkpt lat="52.941983" lon="05.979067"><ele>32</ele><time>2021-03-19T11:03:22Z</time><name>PT5265</name></trkpt>
<trkpt lat="52.941976" lon="05.979073"><ele>31.9</ele><time>2021-03-19T11:03:23Z</time><name>PT5266</name></trkpt>
<trkpt lat="52.941966" lon="05.979077"><ele>31.9</ele><time>2021-03-19T11:03:24Z</time><name>PT5267</name></trkpt>
<trkpt lat="52.941954" lon="05.979083"><ele>31.7</ele><time>2021-03-19T11:03:25Z</time><name>PT5268</name></trkpt>
<trkpt lat="52.941943" lon="05.979088"><ele>31.8</ele><time>2021-03-19T11:03:26Z</time><name>PT5269</name></trkpt>
<trkpt lat="52.941934" lon="05.979093"><ele>31.8</ele><time>2021-03-19T11:03:27Z</time><name>PT5270</name></trkpt>
<trkpt lat="52.941926" lon="05.979099"><ele>31.7</ele><time>2021-03-19T11:03:28Z</time><name>PT5271</name></trkpt>
<trkpt lat="52.941918" lon="05.979105"><ele>31.7</ele><time>2021-03-19T11:03:29Z</time><name>PT5272</name></trkpt>
<trkpt lat="52.941911" lon="05.979111"><ele>31.7</ele><time>2021-03-19T11:03:30Z</time><name>PT5273</name></trkpt>
<trkpt lat="52.941904" lon="05.979123"><ele>31.7</ele><time>2021-03-19T11:03:31Z</time><name>PT5274</name></trkpt>
<trkpt lat="52.941896" lon="05.979128"><ele>31.7</ele><time>2021-03-19T11:03:32Z</time><name>PT5275</name></trkpt>
<trkpt lat="52.941890" lon="05.979132"><ele>31.8</ele><time>2021-03-19T11:03:33Z</time><name>PT5276</name></trkpt>
<trkpt lat="52.941884" lon="05.979137"><ele>31.8</ele><time>2021-03-19T11:03:34Z</time><name>PT5277</name></trkpt>
<trkpt lat="52.941881" lon="05.979139"><ele>31.7</ele><time>2021-03-19T11:03:35Z</time><name>PT5278</name></trkpt>
<trkpt lat="52.941878" lon="05.979140"><ele>31.9</ele><time>2021-03-19T11:03:36Z</time><name>PT5279</name></trkpt>
<trkpt lat="52.941877" lon="05.979141"><ele>32</ele><time>2021-03-19T11:03:37Z</time><name>PT5280</name></trkpt>
<trkpt lat="52.941876" lon="05.979144"><ele>32</ele><time>2021-03-19T11:03:38Z</time><name>PT5281</name></trkpt>
<trkpt lat="52.941874" lon="05.979151"><ele>31.8</ele><time>2021-03-19T11:03:39Z</time><name>PT5282</name></trkpt>
<trkpt lat="52.941867" lon="05.979147"><ele>31.5</ele><time>2021-03-19T11:03:46Z</time><name>PT5283</name></trkpt>
<trkpt lat="52.941862" lon="05.979151"><ele>31.6</ele><time>2021-03-19T11:03:47Z</time><name>PT5284</name></trkpt>
<trkpt lat="52.941855" lon="05.979153"><ele>31.7</ele><time>2021-03-19T11:03:48Z</time><name>PT5285</name></trkpt>
<trkpt lat="52.941856" lon="05.979156"><ele>31.7</ele><time>2021-03-19T11:03:50Z</time><name>PT5286</name></trkpt>
<trkpt lat="52.941849" lon="05.979153"><ele>31.8</ele><time>2021-03-19T11:03:51Z</time><name>PT5287</name></trkpt>
<trkpt lat="52.941847" lon="05.979150"><ele>31.7</ele><time>2021-03-19T11:03:52Z</time><name>PT5288</name></trkpt>
<trkpt lat="52.941845" lon="05.979154"><ele>31.7</ele><time>2021-03-19T11:03:53Z</time><name>PT5289</name></trkpt>
<trkpt lat="52.941842" lon="05.979153"><ele>31.7</ele><time>2021-03-19T11:03:53Z</time><name>PT5290</name></trkpt>
<trkpt lat="52.941839" lon="05.979153"><ele>31.8</ele><time>2021-03-19T11:03:55Z</time><name>PT5291</name></trkpt>
<trkpt lat="52.941831" lon="05.979145"><ele>32.2</ele><time>2021-03-19T11:03:59Z</time><name>PT5292</name></trkpt>
<trkpt lat="52.941827" lon="05.979153"><ele>32</ele><time>2021-03-19T11:04:00Z</time><name>PT5293</name></trkpt>
<trkpt lat="52.941822" lon="05.979155"><ele>32</ele><time>2021-03-19T11:04:01Z</time><name>PT5294</name></trkpt>
<trkpt lat="52.941822" lon="05.979170"><ele>31.6</ele><time>2021-03-19T11:04:21Z</time><name>PT5295</name></trkpt>
<trkpt lat="52.941819" lon="05.979173"><ele>31.4</ele><time>2021-03-19T11:04:22Z</time><name>PT5296</name></trkpt>
<trkpt lat="52.941818" lon="05.979181"><ele>31.5</ele><time>2021-03-19T11:04:23Z</time><name>PT5297</name></trkpt>
<trkpt lat="52.941814" lon="05.979181"><ele>31.4</ele><time>2021-03-19T11:04:24Z</time><name>PT5298</name></trkpt>
<trkpt lat="52.941811" lon="05.979189"><ele>31.3</ele><time>2021-03-19T11:04:25Z</time><name>PT5299</name></trkpt>
<trkpt lat="52.941809" lon="05.979204"><ele>31.3</ele><time>2021-03-19T11:04:26Z</time><name>PT5300</name></trkpt>
<trkpt lat="52.941812" lon="05.979216"><ele>31.2</ele><time>2021-03-19T11:04:27Z</time><name>PT5301</name></trkpt>
<trkpt lat="52.941816" lon="05.979228"><ele>31.3</ele><time>2021-03-19T11:04:28Z</time><name>PT5302</name></trkpt>
<trkpt lat="52.941819" lon="05.979240"><ele>31.2</ele><time>2021-03-19T11:04:29Z</time><name>PT5303</name></trkpt>
<trkpt lat="52.941820" lon="05.979257"><ele>31.3</ele><time>2021-03-19T11:04:30Z</time><name>PT5304</name></trkpt>
<trkpt lat="52.941821" lon="05.979273"><ele>31.4</ele><time>2021-03-19T11:04:31Z</time><name>PT5305</name></trkpt>
<trkpt lat="52.941825" lon="05.979288"><ele>31.6</ele><time>2021-03-19T11:04:32Z</time><name>PT5306</name></trkpt>
<trkpt lat="52.941831" lon="05.979304"><ele>31.5</ele><time>2021-03-19T11:04:33Z</time><name>PT5307</name></trkpt>
<trkpt lat="52.941837" lon="05.979319"><ele>31.6</ele><time>2021-03-19T11:04:34Z</time><name>PT5308</name></trkpt>
<trkpt lat="52.941839" lon="05.979336"><ele>31.5</ele><time>2021-03-19T11:04:35Z</time><name>PT5309</name></trkpt>
<trkpt lat="52.941839" lon="05.979351"><ele>31.6</ele><time>2021-03-19T11:04:36Z</time><name>PT5310</name></trkpt>
<trkpt lat="52.941844" lon="05.979369"><ele>31.5</ele><time>2021-03-19T11:04:37Z</time><name>PT5311</name></trkpt>
<trkpt lat="52.941851" lon="05.979388"><ele>31.7</ele><time>2021-03-19T11:04:38Z</time><name>PT5312</name></trkpt>
<trkpt lat="52.941855" lon="05.979409"><ele>31.7</ele><time>2021-03-19T11:04:39Z</time><name>PT5313</name></trkpt>
<trkpt lat="52.941861" lon="05.979423"><ele>31.7</ele><time>2021-03-19T11:04:40Z</time><name>PT5314</name></trkpt>
<trkpt lat="52.941863" lon="05.979437"><ele>31.6</ele><time>2021-03-19T11:04:41Z</time><name>PT5315</name></trkpt>
<trkpt lat="52.941866" lon="05.979450"><ele>31.6</ele><time>2021-03-19T11:04:42Z</time><name>PT5316</name></trkpt>
<trkpt lat="52.941871" lon="05.979460"><ele>31.6</ele><time>2021-03-19T11:04:43Z</time><name>PT5317</name></trkpt>
<trkpt lat="52.941875" lon="05.979476"><ele>31.4</ele><time>2021-03-19T11:04:44Z</time><name>PT5318</name></trkpt>
<trkpt lat="52.941880" lon="05.979495"><ele>31.4</ele><time>2021-03-19T11:04:45Z</time><name>PT5319</name></trkpt>
<trkpt lat="52.941882" lon="05.979507"><ele>31.7</ele><time>2021-03-19T11:04:46Z</time><name>PT5320</name></trkpt>
<trkpt lat="52.941884" lon="05.979525"><ele>31.6</ele><time>2021-03-19T11:04:47Z</time><name>PT5321</name></trkpt>
<trkpt lat="52.941888" lon="05.979543"><ele>31.6</ele><time>2021-03-19T11:04:48Z</time><name>PT5322</name></trkpt>
<trkpt lat="52.941894" lon="05.979556"><ele>31.7</ele><time>2021-03-19T11:04:49Z</time><name>PT5323</name></trkpt>
<trkpt lat="52.941898" lon="05.979572"><ele>31.7</ele><time>2021-03-19T11:04:50Z</time><name>PT5324</name></trkpt>
<trkpt lat="52.941900" lon="05.979592"><ele>31.5</ele><time>2021-03-19T11:04:51Z</time><name>PT5325</name></trkpt>
<trkpt lat="52.941901" lon="05.979609"><ele>31.6</ele><time>2021-03-19T11:04:52Z</time><name>PT5326</name></trkpt>
<trkpt lat="52.941906" lon="05.979620"><ele>31.5</ele><time>2021-03-19T11:04:53Z</time><name>PT5327</name></trkpt>
<trkpt lat="52.941911" lon="05.979635"><ele>31.5</ele><time>2021-03-19T11:04:54Z</time><name>PT5328</name></trkpt>
<trkpt lat="52.941914" lon="05.979653"><ele>31.3</ele><time>2021-03-19T11:04:55Z</time><name>PT5329</name></trkpt>
<trkpt lat="52.941918" lon="05.979669"><ele>31.3</ele><time>2021-03-19T11:04:56Z</time><name>PT5330</name></trkpt>
<trkpt lat="52.941922" lon="05.979685"><ele>31.4</ele><time>2021-03-19T11:04:57Z</time><name>PT5331</name></trkpt>
<trkpt lat="52.941924" lon="05.979704"><ele>31.4</ele><time>2021-03-19T11:04:58Z</time><name>PT5332</name></trkpt>
<trkpt lat="52.941927" lon="05.979723"><ele>31.5</ele><time>2021-03-19T11:04:59Z</time><name>PT5333</name></trkpt>
<trkpt lat="52.941929" lon="05.979733"><ele>31.6</ele><time>2021-03-19T11:05:00Z</time><name>PT5334</name></trkpt>
<trkpt lat="52.941929" lon="05.979751"><ele>31.6</ele><time>2021-03-19T11:05:01Z</time><name>PT5335</name></trkpt>
<trkpt lat="52.941932" lon="05.979768"><ele>31.5</ele><time>2021-03-19T11:05:02Z</time><name>PT5336</name></trkpt>
<trkpt lat="52.941935" lon="05.979785"><ele>31.5</ele><time>2021-03-19T11:05:03Z</time><name>PT5337</name></trkpt>
<trkpt lat="52.941940" lon="05.979805"><ele>31.3</ele><time>2021-03-19T11:05:04Z</time><name>PT5338</name></trkpt>
<trkpt lat="52.941941" lon="05.979826"><ele>31.3</ele><time>2021-03-19T11:05:05Z</time><name>PT5339</name></trkpt>
<trkpt lat="52.941945" lon="05.979844"><ele>31.5</ele><time>2021-03-19T11:05:05Z</time><name>PT5340</name></trkpt>
<trkpt lat="52.941949" lon="05.979862"><ele>31.5</ele><time>2021-03-19T11:05:07Z</time><name>PT5341</name></trkpt>
<trkpt lat="52.941951" lon="05.979883"><ele>31.7</ele><time>2021-03-19T11:05:08Z</time><name>PT5342</name></trkpt>
<trkpt lat="52.941954" lon="05.979904"><ele>31.7</ele><time>2021-03-19T11:05:08Z</time><name>PT5343</name></trkpt>
<trkpt lat="52.941958" lon="05.979920"><ele>31.7</ele><time>2021-03-19T11:05:10Z</time><name>PT5344</name></trkpt>
<trkpt lat="52.941961" lon="05.979936"><ele>31.7</ele><time>2021-03-19T11:05:11Z</time><name>PT5345</name></trkpt>
<trkpt lat="52.941965" lon="05.979951"><ele>31.7</ele><time>2021-03-19T11:05:12Z</time><name>PT5346</name></trkpt>
<trkpt lat="52.941969" lon="05.979967"><ele>31.7</ele><time>2021-03-19T11:05:13Z</time><name>PT5347</name></trkpt>
<trkpt lat="52.941974" lon="05.979982"><ele>31.7</ele><time>2021-03-19T11:05:14Z</time><name>PT5348</name></trkpt>
<trkpt lat="52.941976" lon="05.979997"><ele>31.7</ele><time>2021-03-19T11:05:15Z</time><name>PT5349</name></trkpt>
<trkpt lat="52.941977" lon="05.980010"><ele>31.6</ele><time>2021-03-19T11:05:16Z</time><name>PT5350</name></trkpt>
<trkpt lat="52.941980" lon="05.980023"><ele>31.5</ele><time>2021-03-19T11:05:17Z</time><name>PT5351</name></trkpt>
<trkpt lat="52.941982" lon="05.980036"><ele>31.1</ele><time>2021-03-19T11:05:18Z</time><name>PT5352</name></trkpt>
<trkpt lat="52.941983" lon="05.980046"><ele>30.4</ele><time>2021-03-19T11:05:19Z</time><name>PT5353</name></trkpt>
<trkpt lat="52.941982" lon="05.980050"><ele>30.9</ele><time>2021-03-19T11:05:20Z</time><name>PT5354</name></trkpt>
<trkpt lat="52.941983" lon="05.980056"><ele>31.1</ele><time>2021-03-19T11:05:21Z</time><name>PT5355</name></trkpt>
<trkpt lat="52.941986" lon="05.980069"><ele>31.4</ele><time>2021-03-19T11:05:22Z</time><name>PT5356</name></trkpt>
<trkpt lat="52.941989" lon="05.980085"><ele>32.3</ele><time>2021-03-19T11:05:23Z</time><name>PT5357</name></trkpt>
<trkpt lat="52.941991" lon="05.980101"><ele>32.4</ele><time>2021-03-19T11:05:23Z</time><name>PT5358</name></trkpt>
<trkpt lat="52.941996" lon="05.980119"><ele>31.8</ele><time>2021-03-19T11:05:25Z</time><name>PT5359</name></trkpt>
<trkpt lat="52.942002" lon="05.980136"><ele>31.5</ele><time>2021-03-19T11:05:26Z</time><name>PT5360</name></trkpt>
<trkpt lat="52.942006" lon="05.980154"><ele>31.5</ele><time>2021-03-19T11:05:26Z</time><name>PT5361</name></trkpt>
<trkpt lat="52.942012" lon="05.980169"><ele>31.7</ele><time>2021-03-19T11:05:28Z</time><name>PT5362</name></trkpt>
<trkpt lat="52.942017" lon="05.980185"><ele>31.7</ele><time>2021-03-19T11:05:29Z</time><name>PT5363</name></trkpt>
<trkpt lat="52.942019" lon="05.980203"><ele>31.6</ele><time>2021-03-19T11:05:30Z</time><name>PT5364</name></trkpt>
<trkpt lat="52.942022" lon="05.980224"><ele>31.6</ele><time>2021-03-19T11:05:31Z</time><name>PT5365</name></trkpt>
<trkpt lat="52.942027" lon="05.980237"><ele>31.6</ele><time>2021-03-19T11:05:32Z</time><name>PT5366</name></trkpt>
<trkpt lat="52.942030" lon="05.980252"><ele>31.5</ele><time>2021-03-19T11:05:33Z</time><name>PT5367</name></trkpt>
<trkpt lat="52.942035" lon="05.980265"><ele>31.5</ele><time>2021-03-19T11:05:34Z</time><name>PT5368</name></trkpt>
<trkpt lat="52.942041" lon="05.980276"><ele>31.7</ele><time>2021-03-19T11:05:35Z</time><name>PT5369</name></trkpt>
<trkpt lat="52.942047" lon="05.980286"><ele>31.7</ele><time>2021-03-19T11:05:35Z</time><name>PT5370</name></trkpt>
<trkpt lat="52.942050" lon="05.980305"><ele>31.5</ele><time>2021-03-19T11:05:37Z</time><name>PT5371</name></trkpt>
<trkpt lat="52.942053" lon="05.980320"><ele>31.3</ele><time>2021-03-19T11:05:38Z</time><name>PT5372</name></trkpt>
<trkpt lat="52.942057" lon="05.980336"><ele>31.3</ele><time>2021-03-19T11:05:39Z</time><name>PT5373</name></trkpt>
<trkpt lat="52.942061" lon="05.980352"><ele>31.2</ele><time>2021-03-19T11:05:40Z</time><name>PT5374</name></trkpt>
<trkpt lat="52.942065" lon="05.980367"><ele>31.3</ele><time>2021-03-19T11:05:41Z</time><name>PT5375</name></trkpt>
<trkpt lat="52.942071" lon="05.980379"><ele>31.3</ele><time>2021-03-19T11:05:41Z</time><name>PT5376</name></trkpt>
<trkpt lat="52.942077" lon="05.980397"><ele>31.4</ele><time>2021-03-19T11:05:43Z</time><name>PT5377</name></trkpt>
<trkpt lat="52.942083" lon="05.980416"><ele>31.6</ele><time>2021-03-19T11:05:44Z</time><name>PT5378</name></trkpt>
<trkpt lat="52.942084" lon="05.980433"><ele>31.7</ele><time>2021-03-19T11:05:45Z</time><name>PT5379</name></trkpt>
<trkpt lat="52.942086" lon="05.980450"><ele>31.7</ele><time>2021-03-19T11:05:46Z</time><name>PT5380</name></trkpt>
<trkpt lat="52.942090" lon="05.980462"><ele>31.8</ele><time>2021-03-19T11:05:47Z</time><name>PT5381</name></trkpt>
<trkpt lat="52.942095" lon="05.980476"><ele>31.9</ele><time>2021-03-19T11:05:48Z</time><name>PT5382</name></trkpt>
<trkpt lat="52.942100" lon="05.980490"><ele>31.8</ele><time>2021-03-19T11:05:49Z</time><name>PT5383</name></trkpt>
<trkpt lat="52.942105" lon="05.980503"><ele>32</ele><time>2021-03-19T11:05:50Z</time><name>PT5384</name></trkpt>
<trkpt lat="52.942110" lon="05.980517"><ele>32</ele><time>2021-03-19T11:05:51Z</time><name>PT5385</name></trkpt>
<trkpt lat="52.942115" lon="05.980530"><ele>32.1</ele><time>2021-03-19T11:05:52Z</time><name>PT5386</name></trkpt>
<trkpt lat="52.942123" lon="05.980546"><ele>32.2</ele><time>2021-03-19T11:05:53Z</time><name>PT5387</name></trkpt>
<trkpt lat="52.942127" lon="05.980565"><ele>32.3</ele><time>2021-03-19T11:05:54Z</time><name>PT5388</name></trkpt>
<trkpt lat="52.942129" lon="05.980583"><ele>32.2</ele><time>2021-03-19T11:05:55Z</time><name>PT5389</name></trkpt>
<trkpt lat="52.942131" lon="05.980600"><ele>32.2</ele><time>2021-03-19T11:05:56Z</time><name>PT5390</name></trkpt>
<trkpt lat="52.942135" lon="05.980617"><ele>32.1</ele><time>2021-03-19T11:05:56Z</time><name>PT5391</name></trkpt>
<trkpt lat="52.942137" lon="05.980629"><ele>32</ele><time>2021-03-19T11:05:58Z</time><name>PT5392</name></trkpt>
<trkpt lat="52.942139" lon="05.980639"><ele>31.9</ele><time>2021-03-19T11:05:59Z</time><name>PT5393</name></trkpt>
<trkpt lat="52.942142" lon="05.980654"><ele>31.8</ele><time>2021-03-19T11:05:59Z</time><name>PT5394</name></trkpt>
<trkpt lat="52.942149" lon="05.980668"><ele>32</ele><time>2021-03-19T11:06:01Z</time><name>PT5395</name></trkpt>
<trkpt lat="52.942155" lon="05.980683"><ele>32</ele><time>2021-03-19T11:06:02Z</time><name>PT5396</name></trkpt>
<trkpt lat="52.942159" lon="05.980701"><ele>31.9</ele><time>2021-03-19T11:06:02Z</time><name>PT5397</name></trkpt>
<trkpt lat="52.942160" lon="05.980721"><ele>31.9</ele><time>2021-03-19T11:06:04Z</time><name>PT5398</name></trkpt>
<trkpt lat="52.942157" lon="05.980734"><ele>31.8</ele><time>2021-03-19T11:06:05Z</time><name>PT5399</name></trkpt>
<trkpt lat="52.942160" lon="05.980751"><ele>31.7</ele><time>2021-03-19T11:06:06Z</time><name>PT5400</name></trkpt>
<trkpt lat="52.942165" lon="05.980765"><ele>31.7</ele><time>2021-03-19T11:06:07Z</time><name>PT5401</name></trkpt>
<trkpt lat="52.942170" lon="05.980783"><ele>31.8</ele><time>2021-03-19T11:06:08Z</time><name>PT5402</name></trkpt>
<trkpt lat="52.942174" lon="05.980801"><ele>31.8</ele><time>2021-03-19T11:06:08Z</time><name>PT5403</name></trkpt>
<trkpt lat="52.942175" lon="05.980818"><ele>31.8</ele><time>2021-03-19T11:06:10Z</time><name>PT5404</name></trkpt>
<trkpt lat="52.942177" lon="05.980834"><ele>31.8</ele><time>2021-03-19T11:06:11Z</time><name>PT5405</name></trkpt>
<trkpt lat="52.942178" lon="05.980849"><ele>31.7</ele><time>2021-03-19T11:06:11Z</time><name>PT5406</name></trkpt>
<trkpt lat="52.942182" lon="05.980861"><ele>31.7</ele><time>2021-03-19T11:06:13Z</time><name>PT5407</name></trkpt>
<trkpt lat="52.942184" lon="05.980870"><ele>31.7</ele><time>2021-03-19T11:06:14Z</time><name>PT5408</name></trkpt>
<trkpt lat="52.942183" lon="05.980884"><ele>31.7</ele><time>2021-03-19T11:06:15Z</time><name>PT5409</name></trkpt>
<trkpt lat="52.942180" lon="05.980897"><ele>31.6</ele><time>2021-03-19T11:06:16Z</time><name>PT5410</name></trkpt>
<trkpt lat="52.942181" lon="05.980900"><ele>31.7</ele><time>2021-03-19T11:06:17Z</time><name>PT5411</name></trkpt>
<trkpt lat="52.942180" lon="05.980899"><ele>31.7</ele><time>2021-03-19T11:06:18Z</time><name>PT5412</name></trkpt>
<trkpt lat="52.942182" lon="05.980900"><ele>31.3</ele><time>2021-03-19T11:06:19Z</time><name>PT5413</name></trkpt>
<trkpt lat="52.942179" lon="05.980914"><ele>32.1</ele><time>2021-03-19T11:06:51Z</time><name>PT5414</name></trkpt>
<trkpt lat="52.942184" lon="05.980932"><ele>32</ele><time>2021-03-19T11:06:52Z</time><name>PT5415</name></trkpt>
<trkpt lat="52.942186" lon="05.980949"><ele>31.9</ele><time>2021-03-19T11:06:53Z</time><name>PT5416</name></trkpt>
<trkpt lat="52.942191" lon="05.980964"><ele>31.8</ele><time>2021-03-19T11:06:53Z</time><name>PT5417</name></trkpt>
<trkpt lat="52.942192" lon="05.980975"><ele>31.7</ele><time>2021-03-19T11:06:55Z</time><name>PT5418</name></trkpt>
<trkpt lat="52.942194" lon="05.980982"><ele>31.7</ele><time>2021-03-19T11:06:56Z</time><name>PT5419</name></trkpt>
<trkpt lat="52.942190" lon="05.980987"><ele>31.7</ele><time>2021-03-19T11:06:56Z</time><name>PT5420</name></trkpt>
<trkpt lat="52.942188" lon="05.980991"><ele>31.6</ele><time>2021-03-19T11:06:58Z</time><name>PT5421</name></trkpt>
<trkpt lat="52.942185" lon="05.980996"><ele>31.7</ele><time>2021-03-19T11:06:59Z</time><name>PT5422</name></trkpt>
<trkpt lat="52.942185" lon="05.981000"><ele>31.1</ele><time>2021-03-19T11:07:19Z</time><name>PT5423</name></trkpt>
<trkpt lat="52.942185" lon="05.981009"><ele>31.2</ele><time>2021-03-19T11:07:20Z</time><name>PT5424</name></trkpt>
<trkpt lat="52.942183" lon="05.981010"><ele>31.3</ele><time>2021-03-19T11:07:20Z</time><name>PT5425</name></trkpt>
<trkpt lat="52.942186" lon="05.981018"><ele>31.3</ele><time>2021-03-19T11:07:22Z</time><name>PT5426</name></trkpt>
<trkpt lat="52.942188" lon="05.981036"><ele>31.3</ele><time>2021-03-19T11:07:23Z</time><name>PT5427</name></trkpt>
<trkpt lat="52.942189" lon="05.981050"><ele>31.3</ele><time>2021-03-19T11:07:23Z</time><name>PT5428</name></trkpt>
<trkpt lat="52.942190" lon="05.981057"><ele>31.3</ele><time>2021-03-19T11:07:25Z</time><name>PT5429</name></trkpt>
<trkpt lat="52.942191" lon="05.981063"><ele>31.3</ele><time>2021-03-19T11:07:26Z</time><name>PT5430</name></trkpt>
<trkpt lat="52.942192" lon="05.981079"><ele>31.2</ele><time>2021-03-19T11:07:27Z</time><name>PT5431</name></trkpt>
<trkpt lat="52.942190" lon="05.981094"><ele>31.3</ele><time>2021-03-19T11:07:28Z</time><name>PT5432</name></trkpt>
<trkpt lat="52.942191" lon="05.981107"><ele>31.1</ele><time>2021-03-19T11:07:29Z</time><name>PT5433</name></trkpt>
<trkpt lat="52.942194" lon="05.981123"><ele>31.1</ele><time>2021-03-19T11:07:29Z</time><name>PT5434</name></trkpt>
<trkpt lat="52.942198" lon="05.981136"><ele>31.2</ele><time>2021-03-19T11:07:31Z</time><name>PT5435</name></trkpt>
<trkpt lat="52.942199" lon="05.981148"><ele>31.3</ele><time>2021-03-19T11:07:32Z</time><name>PT5436</name></trkpt>
<trkpt lat="52.942207" lon="05.981153"><ele>31.3</ele><time>2021-03-19T11:07:32Z</time><name>PT5437</name></trkpt>
<trkpt lat="52.942215" lon="05.981168"><ele>31.4</ele><time>2021-03-19T11:07:34Z</time><name>PT5438</name></trkpt>
<trkpt lat="52.942222" lon="05.981183"><ele>31.3</ele><time>2021-03-19T11:07:35Z</time><name>PT5439</name></trkpt>
<trkpt lat="52.942230" lon="05.981197"><ele>31.2</ele><time>2021-03-19T11:07:35Z</time><name>PT5440</name></trkpt>
<trkpt lat="52.942229" lon="05.981210"><ele>31.2</ele><time>2021-03-19T11:07:37Z</time><name>PT5441</name></trkpt>
<trkpt lat="52.942230" lon="05.981220"><ele>31.2</ele><time>2021-03-19T11:07:38Z</time><name>PT5442</name></trkpt>
<trkpt lat="52.942234" lon="05.981223"><ele>31.2</ele><time>2021-03-19T11:07:38Z</time><name>PT5443</name></trkpt>
<trkpt lat="52.942235" lon="05.981244"><ele>31.3</ele><time>2021-03-19T11:07:40Z</time><name>PT5444</name></trkpt>
<trkpt lat="52.942235" lon="05.981267"><ele>31.3</ele><time>2021-03-19T11:07:41Z</time><name>PT5445</name></trkpt>
<trkpt lat="52.942239" lon="05.981283"><ele>31.3</ele><time>2021-03-19T11:07:42Z</time><name>PT5446</name></trkpt>
<trkpt lat="52.942239" lon="05.981292"><ele>31.4</ele><time>2021-03-19T11:07:43Z</time><name>PT5447</name></trkpt>
<trkpt lat="52.942236" lon="05.981299"><ele>31.4</ele><time>2021-03-19T11:07:44Z</time><name>PT5448</name></trkpt>
<trkpt lat="52.942234" lon="05.981304"><ele>31.4</ele><time>2021-03-19T11:07:44Z</time><name>PT5449</name></trkpt>
<trkpt lat="52.942230" lon="05.981318"><ele>31.3</ele><time>2021-03-19T11:07:46Z</time><name>PT5450</name></trkpt>
<trkpt lat="52.942224" lon="05.981345"><ele>31.3</ele><time>2021-03-19T11:07:47Z</time><name>PT5451</name></trkpt>
<trkpt lat="52.942222" lon="05.981366"><ele>31.4</ele><time>2021-03-19T11:07:47Z</time><name>PT5452</name></trkpt>
<trkpt lat="52.942220" lon="05.981382"><ele>31.5</ele><time>2021-03-19T11:07:49Z</time><name>PT5453</name></trkpt>
<trkpt lat="52.942216" lon="05.981397"><ele>31.6</ele><time>2021-03-19T11:07:50Z</time><name>PT5454</name></trkpt>
<trkpt lat="52.942216" lon="05.981409"><ele>31.6</ele><time>2021-03-19T11:07:51Z</time><name>PT5455</name></trkpt>
<trkpt lat="52.942220" lon="05.981424"><ele>31.3</ele><time>2021-03-19T11:07:52Z</time><name>PT5456</name></trkpt>
<trkpt lat="52.942219" lon="05.981447"><ele>31.3</ele><time>2021-03-19T11:07:53Z</time><name>PT5457</name></trkpt>
<trkpt lat="52.942220" lon="05.981472"><ele>31.3</ele><time>2021-03-19T11:07:53Z</time><name>PT5458</name></trkpt>
<trkpt lat="52.942224" lon="05.981494"><ele>31.3</ele><time>2021-03-19T11:07:55Z</time><name>PT5459</name></trkpt>
<trkpt lat="52.942227" lon="05.981514"><ele>31.3</ele><time>2021-03-19T11:07:56Z</time><name>PT5460</name></trkpt>
<trkpt lat="52.942229" lon="05.981525"><ele>31.3</ele><time>2021-03-19T11:07:57Z</time><name>PT5461</name></trkpt>
<trkpt lat="52.942230" lon="05.981539"><ele>31.2</ele><time>2021-03-19T11:07:58Z</time><name>PT5462</name></trkpt>
<trkpt lat="52.942236" lon="05.981555"><ele>31</ele><time>2021-03-19T11:07:59Z</time><name>PT5463</name></trkpt>
<trkpt lat="52.942242" lon="05.981571"><ele>31</ele><time>2021-03-19T11:08:00Z</time><name>PT5464</name></trkpt>
<trkpt lat="52.942243" lon="05.981581"><ele>31</ele><time>2021-03-19T11:08:01Z</time><name>PT5465</name></trkpt>
<trkpt lat="52.942246" lon="05.981584"><ele>31</ele><time>2021-03-19T11:08:02Z</time><name>PT5466</name></trkpt>
<trkpt lat="52.942245" lon="05.981584"><ele>30.8</ele><time>2021-03-19T11:08:03Z</time><name>PT5467</name></trkpt>
<trkpt lat="52.942240" lon="05.981589"><ele>30.9</ele><time>2021-03-19T11:08:04Z</time><name>PT5468</name></trkpt>
<trkpt lat="52.942244" lon="05.981605"><ele>31.2</ele><time>2021-03-19T11:08:18Z</time><name>PT5469</name></trkpt>
<trkpt lat="52.942254" lon="05.981638"><ele>31</ele><time>2021-03-19T11:08:19Z</time><name>PT5470</name></trkpt>
<trkpt lat="52.942255" lon="05.981654"><ele>30.9</ele><time>2021-03-19T11:08:20Z</time><name>PT5471</name></trkpt>
<trkpt lat="52.942258" lon="05.981670"><ele>31.1</ele><time>2021-03-19T11:08:21Z</time><name>PT5472</name></trkpt>
<trkpt lat="52.942265" lon="05.981685"><ele>30.9</ele><time>2021-03-19T11:08:22Z</time><name>PT5473</name></trkpt>
<trkpt lat="52.942271" lon="05.981694"><ele>30.9</ele><time>2021-03-19T11:08:23Z</time><name>PT5474</name></trkpt>
<trkpt lat="52.942273" lon="05.981701"><ele>30.9</ele><time>2021-03-19T11:08:24Z</time><name>PT5475</name></trkpt>
<trkpt lat="52.942276" lon="05.981706"><ele>31</ele><time>2021-03-19T11:08:25Z</time><name>PT5476</name></trkpt>
<trkpt lat="52.942277" lon="05.981711"><ele>31</ele><time>2021-03-19T11:08:26Z</time><name>PT5477</name></trkpt>
<trkpt lat="52.942279" lon="05.981716"><ele>31.8</ele><time>2021-03-19T11:08:35Z</time><name>PT5478</name></trkpt>
<trkpt lat="52.942281" lon="05.981729"><ele>31.7</ele><time>2021-03-19T11:08:36Z</time><name>PT5479</name></trkpt>
<trkpt lat="52.942278" lon="05.981737"><ele>31.5</ele><time>2021-03-19T11:08:38Z</time><name>PT5480</name></trkpt>
<trkpt lat="52.942280" lon="05.981759"><ele>31.3</ele><time>2021-03-19T11:08:40Z</time><name>PT5481</name></trkpt>
<trkpt lat="52.942282" lon="05.981774"><ele>31.3</ele><time>2021-03-19T11:08:41Z</time><name>PT5482</name></trkpt>
<trkpt lat="52.942283" lon="05.981789"><ele>31.2</ele><time>2021-03-19T11:08:41Z</time><name>PT5483</name></trkpt>
<trkpt lat="52.942287" lon="05.981806"><ele>31.1</ele><time>2021-03-19T11:08:43Z</time><name>PT5484</name></trkpt>
<trkpt lat="52.942291" lon="05.981825"><ele>31.2</ele><time>2021-03-19T11:08:44Z</time><name>PT5485</name></trkpt>
<trkpt lat="52.942296" lon="05.981841"><ele>31.3</ele><time>2021-03-19T11:08:44Z</time><name>PT5486</name></trkpt>
<trkpt lat="52.942301" lon="05.981856"><ele>31.2</ele><time>2021-03-19T11:08:46Z</time><name>PT5487</name></trkpt>
<trkpt lat="52.942304" lon="05.981866"><ele>31.5</ele><time>2021-03-19T11:08:47Z</time><name>PT5488</name></trkpt>
<trkpt lat="52.942304" lon="05.981880"><ele>31.6</ele><time>2021-03-19T11:08:47Z</time><name>PT5489</name></trkpt>
<trkpt lat="52.942307" lon="05.981888"><ele>31.7</ele><time>2021-03-19T11:08:49Z</time><name>PT5490</name></trkpt>
<trkpt lat="52.942310" lon="05.981896"><ele>31.9</ele><time>2021-03-19T11:08:50Z</time><name>PT5491</name></trkpt>
<trkpt lat="52.942316" lon="05.981902"><ele>32</ele><time>2021-03-19T11:08:51Z</time><name>PT5492</name></trkpt>
<trkpt lat="52.942322" lon="05.981910"><ele>31.7</ele><time>2021-03-19T11:08:52Z</time><name>PT5493</name></trkpt>
<trkpt lat="52.942326" lon="05.981921"><ele>31.8</ele><time>2021-03-19T11:08:53Z</time><name>PT5494</name></trkpt>
<trkpt lat="52.942333" lon="05.981928"><ele>31.8</ele><time>2021-03-19T11:08:54Z</time><name>PT5495</name></trkpt>
<trkpt lat="52.942340" lon="05.981935"><ele>31.6</ele><time>2021-03-19T11:08:55Z</time><name>PT5496</name></trkpt>
<trkpt lat="52.942347" lon="05.981944"><ele>31.5</ele><time>2021-03-19T11:08:56Z</time><name>PT5497</name></trkpt>
<trkpt lat="52.942356" lon="05.981951"><ele>31.4</ele><time>2021-03-19T11:08:56Z</time><name>PT5498</name></trkpt>
<trkpt lat="52.942362" lon="05.981959"><ele>31.3</ele><time>2021-03-19T11:08:58Z</time><name>PT5499</name></trkpt>
<trkpt lat="52.942366" lon="05.981965"><ele>31.2</ele><time>2021-03-19T11:08:59Z</time><name>PT5500</name></trkpt>
<trkpt lat="52.942371" lon="05.981970"><ele>31</ele><time>2021-03-19T11:09:00Z</time><name>PT5501</name></trkpt>
<trkpt lat="52.942379" lon="05.981983"><ele>31.1</ele><time>2021-03-19T11:09:01Z</time><name>PT5502</name></trkpt>
<trkpt lat="52.942383" lon="05.981995"><ele>31</ele><time>2021-03-19T11:09:02Z</time><name>PT5503</name></trkpt>
<trkpt lat="52.942388" lon="05.982004"><ele>31.2</ele><time>2021-03-19T11:09:03Z</time><name>PT5504</name></trkpt>
<trkpt lat="52.942395" lon="05.982012"><ele>31.3</ele><time>2021-03-19T11:09:04Z</time><name>PT5505</name></trkpt>
<trkpt lat="52.942403" lon="05.982021"><ele>31.4</ele><time>2021-03-19T11:09:05Z</time><name>PT5506</name></trkpt>
<trkpt lat="52.942409" lon="05.982032"><ele>31.4</ele><time>2021-03-19T11:09:06Z</time><name>PT5507</name></trkpt>
<trkpt lat="52.942414" lon="05.982039"><ele>31.5</ele><time>2021-03-19T11:09:07Z</time><name>PT5508</name></trkpt>
<trkpt lat="52.942421" lon="05.982051"><ele>31.7</ele><time>2021-03-19T11:09:08Z</time><name>PT5509</name></trkpt>
<trkpt lat="52.942428" lon="05.982061"><ele>31.7</ele><time>2021-03-19T11:09:09Z</time><name>PT5510</name></trkpt>
<trkpt lat="52.942437" lon="05.982073"><ele>31.7</ele><time>2021-03-19T11:09:10Z</time><name>PT5511</name></trkpt>
<trkpt lat="52.942441" lon="05.982089"><ele>31.7</ele><time>2021-03-19T11:09:11Z</time><name>PT5512</name></trkpt>
<trkpt lat="52.942447" lon="05.982102"><ele>31.8</ele><time>2021-03-19T11:09:12Z</time><name>PT5513</name></trkpt>
<trkpt lat="52.942454" lon="05.982111"><ele>31.7</ele><time>2021-03-19T11:09:13Z</time><name>PT5514</name></trkpt>
<trkpt lat="52.942458" lon="05.982127"><ele>31.5</ele><time>2021-03-19T11:09:14Z</time><name>PT5515</name></trkpt>
<trkpt lat="52.942465" lon="05.982141"><ele>31.4</ele><time>2021-03-19T11:09:15Z</time><name>PT5516</name></trkpt>
<trkpt lat="52.942471" lon="05.982153"><ele>31.3</ele><time>2021-03-19T11:09:16Z</time><name>PT5517</name></trkpt>
<trkpt lat="52.942475" lon="05.982167"><ele>31.2</ele><time>2021-03-19T11:09:17Z</time><name>PT5518</name></trkpt>
<trkpt lat="52.942477" lon="05.982179"><ele>31.3</ele><time>2021-03-19T11:09:18Z</time><name>PT5519</name></trkpt>
<trkpt lat="52.942481" lon="05.982190"><ele>31.3</ele><time>2021-03-19T11:09:19Z</time><name>PT5520</name></trkpt>
<trkpt lat="52.942486" lon="05.982204"><ele>31.3</ele><time>2021-03-19T11:09:20Z</time><name>PT5521</name></trkpt>
<trkpt lat="52.942489" lon="05.982221"><ele>31.4</ele><time>2021-03-19T11:09:20Z</time><name>PT5522</name></trkpt>
<trkpt lat="52.942491" lon="05.982241"><ele>31.4</ele><time>2021-03-19T11:09:22Z</time><name>PT5523</name></trkpt>
<trkpt lat="52.942494" lon="05.982251"><ele>31.6</ele><time>2021-03-19T11:09:23Z</time><name>PT5524</name></trkpt>
<trkpt lat="52.942500" lon="05.982260"><ele>31.4</ele><time>2021-03-19T11:09:23Z</time><name>PT5525</name></trkpt>
<trkpt lat="52.942505" lon="05.982269"><ele>31.5</ele><time>2021-03-19T11:09:25Z</time><name>PT5526</name></trkpt>
<trkpt lat="52.942510" lon="05.982278"><ele>31.6</ele><time>2021-03-19T11:09:26Z</time><name>PT5527</name></trkpt>
<trkpt lat="52.942515" lon="05.982290"><ele>31.6</ele><time>2021-03-19T11:09:26Z</time><name>PT5528</name></trkpt>
<trkpt lat="52.942520" lon="05.982296"><ele>31.3</ele><time>2021-03-19T11:09:28Z</time><name>PT5529</name></trkpt>
<trkpt lat="52.942523" lon="05.982301"><ele>31.5</ele><time>2021-03-19T11:09:29Z</time><name>PT5530</name></trkpt>
<trkpt lat="52.942525" lon="05.982304"><ele>31.4</ele><time>2021-03-19T11:09:29Z</time><name>PT5531</name></trkpt>
<trkpt lat="52.942523" lon="05.982308"><ele>31.6</ele><time>2021-03-19T11:09:31Z</time><name>PT5532</name></trkpt>
<trkpt lat="52.942524" lon="05.982309"><ele>31.8</ele><time>2021-03-19T11:09:32Z</time><name>PT5533</name></trkpt>
<trkpt lat="52.942528" lon="05.982316"><ele>31.7</ele><time>2021-03-19T11:09:36Z</time><name>PT5534</name></trkpt>
<trkpt lat="52.942527" lon="05.982335"><ele>31.5</ele><time>2021-03-19T11:09:37Z</time><name>PT5535</name></trkpt>
<trkpt lat="52.942532" lon="05.982348"><ele>31.5</ele><time>2021-03-19T11:09:38Z</time><name>PT5536</name></trkpt>
<trkpt lat="52.942531" lon="05.982362"><ele>31.5</ele><time>2021-03-19T11:09:38Z</time><name>PT5537</name></trkpt>
<trkpt lat="52.942531" lon="05.982379"><ele>31.4</ele><time>2021-03-19T11:09:40Z</time><name>PT5538</name></trkpt>
<trkpt lat="52.942532" lon="05.982395"><ele>31.5</ele><time>2021-03-19T11:09:41Z</time><name>PT5539</name></trkpt>
<trkpt lat="52.942530" lon="05.982406"><ele>31.5</ele><time>2021-03-19T11:09:41Z</time><name>PT5540</name></trkpt>
<trkpt lat="52.942530" lon="05.982414"><ele>31.3</ele><time>2021-03-19T11:09:43Z</time><name>PT5541</name></trkpt>
<trkpt lat="52.942534" lon="05.982420"><ele>31.3</ele><time>2021-03-19T11:09:44Z</time><name>PT5542</name></trkpt>
<trkpt lat="52.942538" lon="05.982430"><ele>31.3</ele><time>2021-03-19T11:09:44Z</time><name>PT5543</name></trkpt>
<trkpt lat="52.942540" lon="05.982444"><ele>31</ele><time>2021-03-19T11:09:46Z</time><name>PT5544</name></trkpt>
<trkpt lat="52.942542" lon="05.982461"><ele>31</ele><time>2021-03-19T11:09:47Z</time><name>PT5545</name></trkpt>
<trkpt lat="52.942538" lon="05.982472"><ele>30.9</ele><time>2021-03-19T11:09:47Z</time><name>PT5546</name></trkpt>
<trkpt lat="52.942537" lon="05.982488"><ele>30.8</ele><time>2021-03-19T11:09:49Z</time><name>PT5547</name></trkpt>
<trkpt lat="52.942538" lon="05.982497"><ele>30.8</ele><time>2021-03-19T11:09:50Z</time><name>PT5548</name></trkpt>
<trkpt lat="52.942536" lon="05.982510"><ele>30.8</ele><time>2021-03-19T11:09:50Z</time><name>PT5549</name></trkpt>
<trkpt lat="52.942536" lon="05.982525"><ele>30.9</ele><time>2021-03-19T11:09:52Z</time><name>PT5550</name></trkpt>
<trkpt lat="52.942534" lon="05.982541"><ele>31.2</ele><time>2021-03-19T11:09:53Z</time><name>PT5551</name></trkpt>
<trkpt lat="52.942530" lon="05.982552"><ele>31.2</ele><time>2021-03-19T11:09:53Z</time><name>PT5552</name></trkpt>
<trkpt lat="52.942528" lon="05.982566"><ele>31.3</ele><time>2021-03-19T11:09:55Z</time><name>PT5553</name></trkpt>
<trkpt lat="52.942526" lon="05.982580"><ele>31.7</ele><time>2021-03-19T11:09:56Z</time><name>PT5554</name></trkpt>
<trkpt lat="52.942527" lon="05.982595"><ele>31.7</ele><time>2021-03-19T11:09:57Z</time><name>PT5555</name></trkpt>
<trkpt lat="52.942528" lon="05.982609"><ele>31.8</ele><time>2021-03-19T11:09:58Z</time><name>PT5556</name></trkpt>
<trkpt lat="52.942526" lon="05.982617"><ele>31.9</ele><time>2021-03-19T11:09:59Z</time><name>PT5557</name></trkpt>
<trkpt lat="52.942527" lon="05.982630"><ele>31.9</ele><time>2021-03-19T11:09:59Z</time><name>PT5558</name></trkpt>
<trkpt lat="52.942529" lon="05.982645"><ele>31.9</ele><time>2021-03-19T11:10:01Z</time><name>PT5559</name></trkpt>
<trkpt lat="52.942535" lon="05.982659"><ele>31.7</ele><time>2021-03-19T11:10:02Z</time><name>PT5560</name></trkpt>
<trkpt lat="52.942539" lon="05.982672"><ele>31.7</ele><time>2021-03-19T11:10:03Z</time><name>PT5561</name></trkpt>
<trkpt lat="52.942542" lon="05.982684"><ele>31.7</ele><time>2021-03-19T11:10:04Z</time><name>PT5562</name></trkpt>
<trkpt lat="52.942544" lon="05.982697"><ele>31.7</ele><time>2021-03-19T11:10:05Z</time><name>PT5563</name></trkpt>
<trkpt lat="52.942545" lon="05.982708"><ele>31.7</ele><time>2021-03-19T11:10:06Z</time><name>PT5564</name></trkpt>
<trkpt lat="52.942546" lon="05.982718"><ele>32</ele><time>2021-03-19T11:10:07Z</time><name>PT5565</name></trkpt>
<trkpt lat="52.942545" lon="05.982736"><ele>31.9</ele><time>2021-03-19T11:10:08Z</time><name>PT5566</name></trkpt>
<trkpt lat="52.942549" lon="05.982747"><ele>31.8</ele><time>2021-03-19T11:10:09Z</time><name>PT5567</name></trkpt>
<trkpt lat="52.942552" lon="05.982757"><ele>31.7</ele><time>2021-03-19T11:10:10Z</time><name>PT5568</name></trkpt>
<trkpt lat="52.942555" lon="05.982769"><ele>31.5</ele><time>2021-03-19T11:10:11Z</time><name>PT5569</name></trkpt>
<trkpt lat="52.942560" lon="05.982782"><ele>31.5</ele><time>2021-03-19T11:10:12Z</time><name>PT5570</name></trkpt>
<trkpt lat="52.942563" lon="05.982790"><ele>31.6</ele><time>2021-03-19T11:10:13Z</time><name>PT5571</name></trkpt>
<trkpt lat="52.942561" lon="05.982794"><ele>31.7</ele><time>2021-03-19T11:10:14Z</time><name>PT5572</name></trkpt>
<trkpt lat="52.942560" lon="05.982800"><ele>31.8</ele><time>2021-03-19T11:10:15Z</time><name>PT5573</name></trkpt>
<trkpt lat="52.942559" lon="05.982807"><ele>31.9</ele><time>2021-03-19T11:10:16Z</time><name>PT5574</name></trkpt>
<trkpt lat="52.942561" lon="05.982819"><ele>31.7</ele><time>2021-03-19T11:10:17Z</time><name>PT5575</name></trkpt>
<trkpt lat="52.942566" lon="05.982836"><ele>31.7</ele><time>2021-03-19T11:10:18Z</time><name>PT5576</name></trkpt>
<trkpt lat="52.942568" lon="05.982851"><ele>31.6</ele><time>2021-03-19T11:10:19Z</time><name>PT5577</name></trkpt>
<trkpt lat="52.942571" lon="05.982861"><ele>31.4</ele><time>2021-03-19T11:10:20Z</time><name>PT5578</name></trkpt>
<trkpt lat="52.942573" lon="05.982873"><ele>31.6</ele><time>2021-03-19T11:10:21Z</time><name>PT5579</name></trkpt>
<trkpt lat="52.942575" lon="05.982878"><ele>31.7</ele><time>2021-03-19T11:10:22Z</time><name>PT5580</name></trkpt>
<trkpt lat="52.942579" lon="05.982882"><ele>31.8</ele><time>2021-03-19T11:10:23Z</time><name>PT5581</name></trkpt>
<trkpt lat="52.942582" lon="05.982892"><ele>31.9</ele><time>2021-03-19T11:10:23Z</time><name>PT5582</name></trkpt>
<trkpt lat="52.942582" lon="05.982899"><ele>32</ele><time>2021-03-19T11:10:25Z</time><name>PT5583</name></trkpt>
<trkpt lat="52.942580" lon="05.982907"><ele>32</ele><time>2021-03-19T11:10:26Z</time><name>PT5584</name></trkpt>
<trkpt lat="52.942580" lon="05.982916"><ele>31.8</ele><time>2021-03-19T11:10:27Z</time><name>PT5585</name></trkpt>
<trkpt lat="52.942580" lon="05.982932"><ele>31.7</ele><time>2021-03-19T11:10:28Z</time><name>PT5586</name></trkpt>
<trkpt lat="52.942584" lon="05.982947"><ele>31.7</ele><time>2021-03-19T11:10:29Z</time><name>PT5587</name></trkpt>
<trkpt lat="52.942587" lon="05.982964"><ele>31.6</ele><time>2021-03-19T11:10:30Z</time><name>PT5588</name></trkpt>
<trkpt lat="52.942586" lon="05.982979"><ele>31.4</ele><time>2021-03-19T11:10:31Z</time><name>PT5589</name></trkpt>
<trkpt lat="52.942587" lon="05.982992"><ele>31.4</ele><time>2021-03-19T11:10:32Z</time><name>PT5590</name></trkpt>
<trkpt lat="52.942591" lon="05.983004"><ele>31.4</ele><time>2021-03-19T11:10:32Z</time><name>PT5591</name></trkpt>
<trkpt lat="52.942595" lon="05.983015"><ele>31.4</ele><time>2021-03-19T11:10:34Z</time><name>PT5592</name></trkpt>
<trkpt lat="52.942596" lon="05.983024"><ele>31.4</ele><time>2021-03-19T11:10:35Z</time><name>PT5593</name></trkpt>
<trkpt lat="52.942599" lon="05.983039"><ele>31.5</ele><time>2021-03-19T11:10:35Z</time><name>PT5594</name></trkpt>
<trkpt lat="52.942604" lon="05.983050"><ele>31.6</ele><time>2021-03-19T11:10:37Z</time><name>PT5595</name></trkpt>
<trkpt lat="52.942608" lon="05.983062"><ele>31.5</ele><time>2021-03-19T11:10:38Z</time><name>PT5596</name></trkpt>
<trkpt lat="52.942607" lon="05.983079"><ele>31.6</ele><time>2021-03-19T11:10:38Z</time><name>PT5597</name></trkpt>
<trkpt lat="52.942608" lon="05.983077"><ele>31.7</ele><time>2021-03-19T11:10:40Z</time><name>PT5598</name></trkpt>
<trkpt lat="52.942609" lon="05.983075"><ele>31.8</ele><time>2021-03-19T11:10:41Z</time><name>PT5599</name></trkpt>
<trkpt lat="52.942608" lon="05.983073"><ele>31.9</ele><time>2021-03-19T11:10:41Z</time><name>PT5600</name></trkpt>
<trkpt lat="52.942608" lon="05.983070"><ele>32</ele><time>2021-03-19T11:10:43Z</time><name>PT5601</name></trkpt>
<trkpt lat="52.942607" lon="05.983075"><ele>31.9</ele><time>2021-03-19T11:10:44Z</time><name>PT5602</name></trkpt>
<trkpt lat="52.942608" lon="05.983074"><ele>31.9</ele><time>2021-03-19T11:10:44Z</time><name>PT5603</name></trkpt>
<trkpt lat="52.942608" lon="05.983080"><ele>31.9</ele><time>2021-03-19T11:10:46Z</time><name>PT5604</name></trkpt>
<trkpt lat="52.942612" lon="05.983086"><ele>31.9</ele><time>2021-03-19T11:10:47Z</time><name>PT5605</name></trkpt>
<trkpt lat="52.942615" lon="05.983097"><ele>32</ele><time>2021-03-19T11:10:47Z</time><name>PT5606</name></trkpt>
<trkpt lat="52.942617" lon="05.983104"><ele>32</ele><time>2021-03-19T11:10:49Z</time><name>PT5607</name></trkpt>
<trkpt lat="52.942622" lon="05.983114"><ele>31.8</ele><time>2021-03-19T11:10:50Z</time><name>PT5608</name></trkpt>
<trkpt lat="52.942623" lon="05.983127"><ele>31.7</ele><time>2021-03-19T11:10:50Z</time><name>PT5609</name></trkpt>
<trkpt lat="52.942625" lon="05.983141"><ele>31.6</ele><time>2021-03-19T11:10:52Z</time><name>PT5610</name></trkpt>
<trkpt lat="52.942629" lon="05.983154"><ele>31.6</ele><time>2021-03-19T11:10:53Z</time><name>PT5611</name></trkpt>
<trkpt lat="52.942635" lon="05.983167"><ele>31.5</ele><time>2021-03-19T11:10:53Z</time><name>PT5612</name></trkpt>
<trkpt lat="52.942640" lon="05.983182"><ele>31.5</ele><time>2021-03-19T11:10:55Z</time><name>PT5613</name></trkpt>
<trkpt lat="52.942646" lon="05.983199"><ele>31.5</ele><time>2021-03-19T11:10:56Z</time><name>PT5614</name></trkpt>
<trkpt lat="52.942649" lon="05.983218"><ele>31.3</ele><time>2021-03-19T11:10:57Z</time><name>PT5615</name></trkpt>
<trkpt lat="52.942652" lon="05.983233"><ele>30.8</ele><time>2021-03-19T11:10:58Z</time><name>PT5616</name></trkpt>
<trkpt lat="52.942653" lon="05.983250"><ele>31.3</ele><time>2021-03-19T11:10:59Z</time><name>PT5617</name></trkpt>
<trkpt lat="52.942655" lon="05.983266"><ele>31</ele><time>2021-03-19T11:10:59Z</time><name>PT5618</name></trkpt>
<trkpt lat="52.942658" lon="05.983283"><ele>31.1</ele><time>2021-03-19T11:11:01Z</time><name>PT5619</name></trkpt>
<trkpt lat="52.942661" lon="05.983299"><ele>31.3</ele><time>2021-03-19T11:11:02Z</time><name>PT5620</name></trkpt>
<trkpt lat="52.942663" lon="05.983316"><ele>30.8</ele><time>2021-03-19T11:11:03Z</time><name>PT5621</name></trkpt>
<trkpt lat="52.942668" lon="05.983330"><ele>30.9</ele><time>2021-03-19T11:11:04Z</time><name>PT5622</name></trkpt>
<trkpt lat="52.942669" lon="05.983352"><ele>31.3</ele><time>2021-03-19T11:11:05Z</time><name>PT5623</name></trkpt>
<trkpt lat="52.942675" lon="05.983365"><ele>31.6</ele><time>2021-03-19T11:11:05Z</time><name>PT5624</name></trkpt>
<trkpt lat="52.942680" lon="05.983375"><ele>31.8</ele><time>2021-03-19T11:11:07Z</time><name>PT5625</name></trkpt>
<trkpt lat="52.942681" lon="05.983388"><ele>31.3</ele><time>2021-03-19T11:11:08Z</time><name>PT5626</name></trkpt>
<trkpt lat="52.942684" lon="05.983402"><ele>31.5</ele><time>2021-03-19T11:11:08Z</time><name>PT5627</name></trkpt>
<trkpt lat="52.942683" lon="05.983420"><ele>31.2</ele><time>2021-03-19T11:11:10Z</time><name>PT5628</name></trkpt>
<trkpt lat="52.942687" lon="05.983438"><ele>31.9</ele><time>2021-03-19T11:11:11Z</time><name>PT5629</name></trkpt>
<trkpt lat="52.942694" lon="05.983453"><ele>32.3</ele><time>2021-03-19T11:11:11Z</time><name>PT5630</name></trkpt>
<trkpt lat="52.942697" lon="05.983468"><ele>32.5</ele><time>2021-03-19T11:11:13Z</time><name>PT5631</name></trkpt>
<trkpt lat="52.942702" lon="05.983480"><ele>32.5</ele><time>2021-03-19T11:11:14Z</time><name>PT5632</name></trkpt>
<trkpt lat="52.942703" lon="05.983496"><ele>32.3</ele><time>2021-03-19T11:11:14Z</time><name>PT5633</name></trkpt>
<trkpt lat="52.942704" lon="05.983510"><ele>32.1</ele><time>2021-03-19T11:11:16Z</time><name>PT5634</name></trkpt>
<trkpt lat="52.942706" lon="05.983522"><ele>31.9</ele><time>2021-03-19T11:11:17Z</time><name>PT5635</name></trkpt>
<trkpt lat="52.942711" lon="05.983535"><ele>32</ele><time>2021-03-19T11:11:17Z</time><name>PT5636</name></trkpt>
<trkpt lat="52.942717" lon="05.983546"><ele>32.2</ele><time>2021-03-19T11:11:19Z</time><name>PT5637</name></trkpt>
<trkpt lat="52.942722" lon="05.983562"><ele>32.5</ele><time>2021-03-19T11:11:20Z</time><name>PT5638</name></trkpt>
<trkpt lat="52.942726" lon="05.983574"><ele>32.4</ele><time>2021-03-19T11:11:20Z</time><name>PT5639</name></trkpt>
<trkpt lat="52.942730" lon="05.983587"><ele>32.2</ele><time>2021-03-19T11:11:22Z</time><name>PT5640</name></trkpt>
<trkpt lat="52.942733" lon="05.983598"><ele>32.2</ele><time>2021-03-19T11:11:23Z</time><name>PT5641</name></trkpt>
<trkpt lat="52.942740" lon="05.983601"><ele>32.1</ele><time>2021-03-19T11:11:23Z</time><name>PT5642</name></trkpt>
<trkpt lat="52.942742" lon="05.983601"><ele>31.9</ele><time>2021-03-19T11:11:25Z</time><name>PT5643</name></trkpt>
<trkpt lat="52.942744" lon="05.983605"><ele>32</ele><time>2021-03-19T11:11:26Z</time><name>PT5644</name></trkpt>
<trkpt lat="52.942746" lon="05.983609"><ele>32.1</ele><time>2021-03-19T11:11:26Z</time><name>PT5645</name></trkpt>
<trkpt lat="52.942747" lon="05.983618"><ele>32.2</ele><time>2021-03-19T11:11:28Z</time><name>PT5646</name></trkpt>
<trkpt lat="52.942751" lon="05.983628"><ele>32.2</ele><time>2021-03-19T11:11:29Z</time><name>PT5647</name></trkpt>
<trkpt lat="52.942750" lon="05.983633"><ele>32.2</ele><time>2021-03-19T11:11:29Z</time><name>PT5648</name></trkpt>
<trkpt lat="52.942751" lon="05.983643"><ele>32.1</ele><time>2021-03-19T11:11:31Z</time><name>PT5649</name></trkpt>
<trkpt lat="52.942753" lon="05.983654"><ele>32</ele><time>2021-03-19T11:11:32Z</time><name>PT5650</name></trkpt>
<trkpt lat="52.942757" lon="05.983669"><ele>31.9</ele><time>2021-03-19T11:11:32Z</time><name>PT5651</name></trkpt>
<trkpt lat="52.942762" lon="05.983680"><ele>31.6</ele><time>2021-03-19T11:11:34Z</time><name>PT5652</name></trkpt>
<trkpt lat="52.942766" lon="05.983694"><ele>31.5</ele><time>2021-03-19T11:11:35Z</time><name>PT5653</name></trkpt>
<trkpt lat="52.942768" lon="05.983706"><ele>31.5</ele><time>2021-03-19T11:11:35Z</time><name>PT5654</name></trkpt>
<trkpt lat="52.942773" lon="05.983716"><ele>31.4</ele><time>2021-03-19T11:11:37Z</time><name>PT5655</name></trkpt>
<trkpt lat="52.942778" lon="05.983730"><ele>31.4</ele><time>2021-03-19T11:11:38Z</time><name>PT5656</name></trkpt>
<trkpt lat="52.942782" lon="05.983743"><ele>31.4</ele><time>2021-03-19T11:11:39Z</time><name>PT5657</name></trkpt>
<trkpt lat="52.942785" lon="05.983756"><ele>31.6</ele><time>2021-03-19T11:11:40Z</time><name>PT5658</name></trkpt>
<trkpt lat="52.942788" lon="05.983769"><ele>31.6</ele><time>2021-03-19T11:11:41Z</time><name>PT5659</name></trkpt>
<trkpt lat="52.942791" lon="05.983782"><ele>31.8</ele><time>2021-03-19T11:11:41Z</time><name>PT5660</name></trkpt>
<trkpt lat="52.942794" lon="05.983794"><ele>31.8</ele><time>2021-03-19T11:11:43Z</time><name>PT5661</name></trkpt>
<trkpt lat="52.942800" lon="05.983805"><ele>32</ele><time>2021-03-19T11:11:44Z</time><name>PT5662</name></trkpt>
<trkpt lat="52.942806" lon="05.983819"><ele>31.9</ele><time>2021-03-19T11:11:44Z</time><name>PT5663</name></trkpt>
<trkpt lat="52.942812" lon="05.983831"><ele>32.1</ele><time>2021-03-19T11:11:46Z</time><name>PT5664</name></trkpt>
<trkpt lat="52.942816" lon="05.983843"><ele>32.1</ele><time>2021-03-19T11:11:47Z</time><name>PT5665</name></trkpt>
<trkpt lat="52.942824" lon="05.983856"><ele>32.2</ele><time>2021-03-19T11:11:47Z</time><name>PT5666</name></trkpt>
<trkpt lat="52.942830" lon="05.983861"><ele>32.3</ele><time>2021-03-19T11:11:49Z</time><name>PT5667</name></trkpt>
<trkpt lat="52.942832" lon="05.983867"><ele>32.4</ele><time>2021-03-19T11:11:50Z</time><name>PT5668</name></trkpt>
<trkpt lat="52.942835" lon="05.983872"><ele>32.5</ele><time>2021-03-19T11:11:50Z</time><name>PT5669</name></trkpt>
<trkpt lat="52.942837" lon="05.983885"><ele>32.2</ele><time>2021-03-19T11:11:53Z</time><name>PT5670</name></trkpt>
<trkpt lat="52.942841" lon="05.983898"><ele>32</ele><time>2021-03-19T11:11:53Z</time><name>PT5671</name></trkpt>
<trkpt lat="52.942846" lon="05.983910"><ele>32</ele><time>2021-03-19T11:11:55Z</time><name>PT5672</name></trkpt>
<trkpt lat="52.942846" lon="05.983919"><ele>31.9</ele><time>2021-03-19T11:11:56Z</time><name>PT5673</name></trkpt>
<trkpt lat="52.942846" lon="05.983924"><ele>32</ele><time>2021-03-19T11:11:56Z</time><name>PT5674</name></trkpt>
<trkpt lat="52.942848" lon="05.983933"><ele>32.1</ele><time>2021-03-19T11:11:58Z</time><name>PT5675</name></trkpt>
<trkpt lat="52.942849" lon="05.983949"><ele>31.7</ele><time>2021-03-19T11:12:03Z</time><name>PT5676</name></trkpt>
<trkpt lat="52.942850" lon="05.983950"><ele>31.8</ele><time>2021-03-19T11:12:04Z</time><name>PT5677</name></trkpt>
<trkpt lat="52.942852" lon="05.983953"><ele>31.9</ele><time>2021-03-19T11:12:05Z</time><name>PT5678</name></trkpt>
<trkpt lat="52.942850" lon="05.983957"><ele>32</ele><time>2021-03-19T11:12:18Z</time><name>PT5679</name></trkpt>
<trkpt lat="52.942847" lon="05.983958"><ele>32.1</ele><time>2021-03-19T11:12:19Z</time><name>PT5680</name></trkpt>
<trkpt lat="52.942851" lon="05.983959"><ele>32.1</ele><time>2021-03-19T11:12:20Z</time><name>PT5681</name></trkpt>
<trkpt lat="52.942853" lon="05.983973"><ele>32</ele><time>2021-03-19T11:12:21Z</time><name>PT5682</name></trkpt>
<trkpt lat="52.942856" lon="05.983978"><ele>31.8</ele><time>2021-03-19T11:12:22Z</time><name>PT5683</name></trkpt>
<trkpt lat="52.942859" lon="05.983983"><ele>31.7</ele><time>2021-03-19T11:12:23Z</time><name>PT5684</name></trkpt>
<trkpt lat="52.942861" lon="05.983994"><ele>31.7</ele><time>2021-03-19T11:12:24Z</time><name>PT5685</name></trkpt>
<trkpt lat="52.942867" lon="05.983999"><ele>31.7</ele><time>2021-03-19T11:12:25Z</time><name>PT5686</name></trkpt>
<trkpt lat="52.942877" lon="05.984000"><ele>31.7</ele><time>2021-03-19T11:12:26Z</time><name>PT5687</name></trkpt>
<trkpt lat="52.942884" lon="05.984005"><ele>31.7</ele><time>2021-03-19T11:12:26Z</time><name>PT5688</name></trkpt>
<trkpt lat="52.942891" lon="05.984010"><ele>31.7</ele><time>2021-03-19T11:12:28Z</time><name>PT5689</name></trkpt>
<trkpt lat="52.942896" lon="05.984018"><ele>31.7</ele><time>2021-03-19T11:12:29Z</time><name>PT5690</name></trkpt>
<trkpt lat="52.942900" lon="05.984029"><ele>31.8</ele><time>2021-03-19T11:12:29Z</time><name>PT5691</name></trkpt>
<trkpt lat="52.942903" lon="05.984043"><ele>31.9</ele><time>2021-03-19T11:12:31Z</time><name>PT5692</name></trkpt>
<trkpt lat="52.942906" lon="05.984055"><ele>31.8</ele><time>2021-03-19T11:12:32Z</time><name>PT5693</name></trkpt>
<trkpt lat="52.942903" lon="05.984059"><ele>31.8</ele><time>2021-03-19T11:12:32Z</time><name>PT5694</name></trkpt>
<trkpt lat="52.942904" lon="05.984059"><ele>31.8</ele><time>2021-03-19T11:12:34Z</time><name>PT5695</name></trkpt>
<trkpt lat="52.942905" lon="05.984061"><ele>31.9</ele><time>2021-03-19T11:12:35Z</time><name>PT5696</name></trkpt>
<trkpt lat="52.942909" lon="05.984062"><ele>31.9</ele><time>2021-03-19T11:12:35Z</time><name>PT5697</name></trkpt>
<trkpt lat="52.942910" lon="05.984064"><ele>31.9</ele><time>2021-03-19T11:12:37Z</time><name>PT5698</name></trkpt>
<trkpt lat="52.942910" lon="05.984064"><ele>32</ele><time>2021-03-19T11:12:38Z</time><name>PT5699</name></trkpt>
<trkpt lat="52.942912" lon="05.984076"><ele>31.6</ele><time>2021-03-19T11:12:47Z</time><name>PT5700</name></trkpt>
<trkpt lat="52.942908" lon="05.984076"><ele>31.6</ele><time>2021-03-19T11:12:47Z</time><name>PT5701</name></trkpt>
<trkpt lat="52.942905" lon="05.984071"><ele>31.7</ele><time>2021-03-19T11:12:49Z</time><name>PT5702</name></trkpt>
<trkpt lat="52.942908" lon="05.984083"><ele>31.7</ele><time>2021-03-19T11:13:02Z</time><name>PT5703</name></trkpt>
<trkpt lat="52.942906" lon="05.984074"><ele>31.7</ele><time>2021-03-19T11:13:04Z</time><name>PT5704</name></trkpt>
<trkpt lat="52.942907" lon="05.984080"><ele>31.9</ele><time>2021-03-19T11:13:05Z</time><name>PT5705</name></trkpt>
<trkpt lat="52.942910" lon="05.984081"><ele>32</ele><time>2021-03-19T11:14:10Z</time><name>PT5706</name></trkpt>
<trkpt lat="52.942911" lon="05.984085"><ele>31.9</ele><time>2021-03-19T11:14:11Z</time><name>PT5707</name></trkpt>
<trkpt lat="52.942910" lon="05.984083"><ele>31.8</ele><time>2021-03-19T11:14:11Z</time><name>PT5708</name></trkpt>
<trkpt lat="52.942905" lon="05.984073"><ele>31.7</ele><time>2021-03-19T11:14:48Z</time><name>PT5709</name></trkpt>
<trkpt lat="52.942907" lon="05.984072"><ele>31.5</ele><time>2021-03-19T11:14:49Z</time><name>PT5710</name></trkpt>
<trkpt lat="52.942906" lon="05.984074"><ele>31.6</ele><time>2021-03-19T11:14:50Z</time><name>PT5711</name></trkpt>
<trkpt lat="52.942903" lon="05.984082"><ele>31.4</ele><time>2021-03-19T11:14:53Z</time><name>PT5712</name></trkpt>
<trkpt lat="52.942902" lon="05.984077"><ele>31.4</ele><time>2021-03-19T11:14:54Z</time><name>PT5713</name></trkpt>
<trkpt lat="52.942901" lon="05.984073"><ele>31.5</ele><time>2021-03-19T11:14:55Z</time><name>PT5714</name></trkpt>
<trkpt lat="52.942897" lon="05.984068"><ele>31.7</ele><time>2021-03-19T11:14:56Z</time><name>PT5715</name></trkpt>
<trkpt lat="52.942895" lon="05.984065"><ele>31.6</ele><time>2021-03-19T11:14:57Z</time><name>PT5716</name></trkpt>
<trkpt lat="52.942892" lon="05.984066"><ele>31.5</ele><time>2021-03-19T11:14:58Z</time><name>PT5717</name></trkpt>
<trkpt lat="52.942889" lon="05.984061"><ele>31.7</ele><time>2021-03-19T11:15:36Z</time><name>PT5718</name></trkpt>
<trkpt lat="52.942889" lon="05.984060"><ele>31.7</ele><time>2021-03-19T11:15:37Z</time><name>PT5719</name></trkpt>
<trkpt lat="52.942891" lon="05.984061"><ele>31.7</ele><time>2021-03-19T11:15:38Z</time><name>PT5720</name></trkpt>
<trkpt lat="52.942889" lon="05.984051"><ele>31.4</ele><time>2021-03-19T11:15:45Z</time><name>PT5721</name></trkpt>
<trkpt lat="52.942894" lon="05.984062"><ele>31.3</ele><time>2021-03-19T11:15:46Z</time><name>PT5722</name></trkpt>
<trkpt lat="52.942898" lon="05.984071"><ele>31.3</ele><time>2021-03-19T11:15:47Z</time><name>PT5723</name></trkpt>
<trkpt lat="52.942899" lon="05.984083"><ele>31.3</ele><time>2021-03-19T11:15:48Z</time><name>PT5724</name></trkpt>
<trkpt lat="52.942904" lon="05.984090"><ele>31.2</ele><time>2021-03-19T11:15:49Z</time><name>PT5725</name></trkpt>
<trkpt lat="52.942911" lon="05.984102"><ele>31.1</ele><time>2021-03-19T11:15:50Z</time><name>PT5726</name></trkpt>
<trkpt lat="52.942915" lon="05.984112"><ele>31.1</ele><time>2021-03-19T11:15:51Z</time><name>PT5727</name></trkpt>
<trkpt lat="52.942915" lon="05.984120"><ele>31</ele><time>2021-03-19T11:15:52Z</time><name>PT5728</name></trkpt>
<trkpt lat="52.942914" lon="05.984133"><ele>31</ele><time>2021-03-19T11:15:53Z</time><name>PT5729</name></trkpt>
<trkpt lat="52.942917" lon="05.984145"><ele>31</ele><time>2021-03-19T11:15:54Z</time><name>PT5730</name></trkpt>
<trkpt lat="52.942920" lon="05.984160"><ele>31</ele><time>2021-03-19T11:15:55Z</time><name>PT5731</name></trkpt>
<trkpt lat="52.942920" lon="05.984173"><ele>30.9</ele><time>2021-03-19T11:15:56Z</time><name>PT5732</name></trkpt>
<trkpt lat="52.942924" lon="05.984185"><ele>30.8</ele><time>2021-03-19T11:15:57Z</time><name>PT5733</name></trkpt>
<trkpt lat="52.942929" lon="05.984199"><ele>30.9</ele><time>2021-03-19T11:15:58Z</time><name>PT5734</name></trkpt>
<trkpt lat="52.942931" lon="05.984211"><ele>31</ele><time>2021-03-19T11:15:59Z</time><name>PT5735</name></trkpt>
<trkpt lat="52.942932" lon="05.984222"><ele>31</ele><time>2021-03-19T11:15:59Z</time><name>PT5736</name></trkpt>
<trkpt lat="52.942934" lon="05.984237"><ele>31</ele><time>2021-03-19T11:16:01Z</time><name>PT5737</name></trkpt>
<trkpt lat="52.942940" lon="05.984250"><ele>31.1</ele><time>2021-03-19T11:16:02Z</time><name>PT5738</name></trkpt>
<trkpt lat="52.942948" lon="05.984266"><ele>31</ele><time>2021-03-19T11:16:02Z</time><name>PT5739</name></trkpt>
<trkpt lat="52.942953" lon="05.984282"><ele>31.1</ele><time>2021-03-19T11:16:04Z</time><name>PT5740</name></trkpt>
<trkpt lat="52.942955" lon="05.984294"><ele>31.2</ele><time>2021-03-19T11:16:05Z</time><name>PT5741</name></trkpt>
<trkpt lat="52.942960" lon="05.984309"><ele>31.2</ele><time>2021-03-19T11:16:05Z</time><name>PT5742</name></trkpt>
<trkpt lat="52.942963" lon="05.984324"><ele>31.2</ele><time>2021-03-19T11:16:07Z</time><name>PT5743</name></trkpt>
<trkpt lat="52.942971" lon="05.984337"><ele>31.3</ele><time>2021-03-19T11:16:08Z</time><name>PT5744</name></trkpt>
<trkpt lat="52.942974" lon="05.984355"><ele>31.2</ele><time>2021-03-19T11:16:08Z</time><name>PT5745</name></trkpt>
<trkpt lat="52.942977" lon="05.984373"><ele>31</ele><time>2021-03-19T11:16:10Z</time><name>PT5746</name></trkpt>
<trkpt lat="52.942983" lon="05.984388"><ele>31</ele><time>2021-03-19T11:16:11Z</time><name>PT5747</name></trkpt>
<trkpt lat="52.942989" lon="05.984407"><ele>31.3</ele><time>2021-03-19T11:16:11Z</time><name>PT5748</name></trkpt>
<trkpt lat="52.942995" lon="05.984421"><ele>31.3</ele><time>2021-03-19T11:16:13Z</time><name>PT5749</name></trkpt>
<trkpt lat="52.943000" lon="05.984436"><ele>31.5</ele><time>2021-03-19T11:16:14Z</time><name>PT5750</name></trkpt>
<trkpt lat="52.943002" lon="05.984453"><ele>31.6</ele><time>2021-03-19T11:16:14Z</time><name>PT5751</name></trkpt>
<trkpt lat="52.943005" lon="05.984468"><ele>31.6</ele><time>2021-03-19T11:16:16Z</time><name>PT5752</name></trkpt>
<trkpt lat="52.943012" lon="05.984484"><ele>31.5</ele><time>2021-03-19T11:16:17Z</time><name>PT5753</name></trkpt>
<trkpt lat="52.943017" lon="05.984497"><ele>31.3</ele><time>2021-03-19T11:16:17Z</time><name>PT5754</name></trkpt>
<trkpt lat="52.943019" lon="05.984508"><ele>31.3</ele><time>2021-03-19T11:16:19Z</time><name>PT5755</name></trkpt>
<trkpt lat="52.943019" lon="05.984514"><ele>31.3</ele><time>2021-03-19T11:16:20Z</time><name>PT5756</name></trkpt>
<trkpt lat="52.943020" lon="05.984516"><ele>31.3</ele><time>2021-03-19T11:16:20Z</time><name>PT5757</name></trkpt>
<trkpt lat="52.943018" lon="05.984522"><ele>31.4</ele><time>2021-03-19T11:16:22Z</time><name>PT5758</name></trkpt>
<trkpt lat="52.943014" lon="05.984507"><ele>31.4</ele><time>2021-03-19T11:16:25Z</time><name>PT5759</name></trkpt>
<trkpt lat="52.943014" lon="05.984510"><ele>31.5</ele><time>2021-03-19T11:16:26Z</time><name>PT5760</name></trkpt>
<trkpt lat="52.943014" lon="05.984510"><ele>31.5</ele><time>2021-03-19T11:16:26Z</time><name>PT5761</name></trkpt>
<trkpt lat="52.943015" lon="05.984518"><ele>31.6</ele><time>2021-03-19T11:16:28Z</time><name>PT5762</name></trkpt>
<trkpt lat="52.943015" lon="05.984523"><ele>31.7</ele><time>2021-03-19T11:16:29Z</time><name>PT5763</name></trkpt>
<trkpt lat="52.943016" lon="05.984524"><ele>31.6</ele><time>2021-03-19T11:16:29Z</time><name>PT5764</name></trkpt>
<trkpt lat="52.943016" lon="05.984523"><ele>31.6</ele><time>2021-03-19T11:16:31Z</time><name>PT5765</name></trkpt>
<trkpt lat="52.943019" lon="05.984532"><ele>31.3</ele><time>2021-03-19T11:16:40Z</time><name>PT5766</name></trkpt>
<trkpt lat="52.943026" lon="05.984556"><ele>31.4</ele><time>2021-03-19T11:16:41Z</time><name>PT5767</name></trkpt>
<trkpt lat="52.943030" lon="05.984567"><ele>31.4</ele><time>2021-03-19T11:16:42Z</time><name>PT5768</name></trkpt>
<trkpt lat="52.943034" lon="05.984582"><ele>31.3</ele><time>2021-03-19T11:16:43Z</time><name>PT5769</name></trkpt>
<trkpt lat="52.943035" lon="05.984589"><ele>31.4</ele><time>2021-03-19T11:16:44Z</time><name>PT5770</name></trkpt>
<trkpt lat="52.943035" lon="05.984600"><ele>31.4</ele><time>2021-03-19T11:16:44Z</time><name>PT5771</name></trkpt>
<trkpt lat="52.943042" lon="05.984614"><ele>31.6</ele><time>2021-03-19T11:16:46Z</time><name>PT5772</name></trkpt>
<trkpt lat="52.943043" lon="05.984624"><ele>31.7</ele><time>2021-03-19T11:16:47Z</time><name>PT5773</name></trkpt>
<trkpt lat="52.943047" lon="05.984638"><ele>31.7</ele><time>2021-03-19T11:16:47Z</time><name>PT5774</name></trkpt>
<trkpt lat="52.943054" lon="05.984656"><ele>31.8</ele><time>2021-03-19T11:16:49Z</time><name>PT5775</name></trkpt>
<trkpt lat="52.943060" lon="05.984676"><ele>31.7</ele><time>2021-03-19T11:16:50Z</time><name>PT5776</name></trkpt>
<trkpt lat="52.943065" lon="05.984694"><ele>31.8</ele><time>2021-03-19T11:16:51Z</time><name>PT5777</name></trkpt>
<trkpt lat="52.943074" lon="05.984708"><ele>31.8</ele><time>2021-03-19T11:16:52Z</time><name>PT5778</name></trkpt>
<trkpt lat="52.943079" lon="05.984721"><ele>31.8</ele><time>2021-03-19T11:16:53Z</time><name>PT5779</name></trkpt>
<trkpt lat="52.943084" lon="05.984731"><ele>31.9</ele><time>2021-03-19T11:16:54Z</time><name>PT5780</name></trkpt>
<trkpt lat="52.943087" lon="05.984746"><ele>31.8</ele><time>2021-03-19T11:16:55Z</time><name>PT5781</name></trkpt>
<trkpt lat="52.943090" lon="05.984758"><ele>31.8</ele><time>2021-03-19T11:16:56Z</time><name>PT5782</name></trkpt>
<trkpt lat="52.943092" lon="05.984760"><ele>31.7</ele><time>2021-03-19T11:16:57Z</time><name>PT5783</name></trkpt>
<trkpt lat="52.943094" lon="05.984758"><ele>31.6</ele><time>2021-03-19T11:16:58Z</time><name>PT5784</name></trkpt>
<trkpt lat="52.943095" lon="05.984759"><ele>31.7</ele><time>2021-03-19T11:16:59Z</time><name>PT5785</name></trkpt>
<trkpt lat="52.943096" lon="05.984760"><ele>31.6</ele><time>2021-03-19T11:17:01Z</time><name>PT5786</name></trkpt>
<trkpt lat="52.943095" lon="05.984772"><ele>31.3</ele><time>2021-03-19T11:17:02Z</time><name>PT5787</name></trkpt>
<trkpt lat="52.943093" lon="05.984780"><ele>31.2</ele><time>2021-03-19T11:17:03Z</time><name>PT5788</name></trkpt>
<trkpt lat="52.943095" lon="05.984793"><ele>30.9</ele><time>2021-03-19T11:17:04Z</time><name>PT5789</name></trkpt>
<trkpt lat="52.943098" lon="05.984803"><ele>30.8</ele><time>2021-03-19T11:17:05Z</time><name>PT5790</name></trkpt>
<trkpt lat="52.943099" lon="05.984806"><ele>30.8</ele><time>2021-03-19T11:17:05Z</time><name>PT5791</name></trkpt>
<trkpt lat="52.943099" lon="05.984810"><ele>31.1</ele><time>2021-03-19T11:17:07Z</time><name>PT5792</name></trkpt>
<trkpt lat="52.943100" lon="05.984814"><ele>31.2</ele><time>2021-03-19T11:17:08Z</time><name>PT5793</name></trkpt>
<trkpt lat="52.943102" lon="05.984816"><ele>31.4</ele><time>2021-03-19T11:17:08Z</time><name>PT5794</name></trkpt>
<trkpt lat="52.943109" lon="05.984830"><ele>31.3</ele><time>2021-03-19T11:17:46Z</time><name>PT5795</name></trkpt>
<trkpt lat="52.943109" lon="05.984831"><ele>31.3</ele><time>2021-03-19T11:17:47Z</time><name>PT5796</name></trkpt>
<trkpt lat="52.943112" lon="05.984838"><ele>8</ele><time>2021-03-19T11:18:29Z</time><name>PT5797</name></trkpt>
<trkpt lat="52.943115" lon="05.984849"><ele>8</ele><time>2021-03-19T11:18:30Z</time><name>PT5798</name></trkpt>
<trkpt lat="52.943119" lon="05.984865"><ele>7.8</ele><time>2021-03-19T11:18:31Z</time><name>PT5799</name></trkpt>
<trkpt lat="52.943119" lon="05.984873"><ele>7.7</ele><time>2021-03-19T11:18:32Z</time><name>PT5800</name></trkpt>
<trkpt lat="52.943125" lon="05.984885"><ele>7.7</ele><time>2021-03-19T11:18:33Z</time><name>PT5801</name></trkpt>
<trkpt lat="52.943129" lon="05.984893"><ele>7.7</ele><time>2021-03-19T11:18:34Z</time><name>PT5802</name></trkpt>
<trkpt lat="52.943131" lon="05.984899"><ele>7.7</ele><time>2021-03-19T11:18:35Z</time><name>PT5803</name></trkpt>
<trkpt lat="52.943134" lon="05.984896"><ele>7.8</ele><time>2021-03-19T11:18:36Z</time><name>PT5804</name></trkpt>
<trkpt lat="52.943136" lon="05.984893"><ele>7.7</ele><time>2021-03-19T11:18:37Z</time><name>PT5805</name></trkpt>
<trkpt lat="52.943137" lon="05.984892"><ele>7.8</ele><time>2021-03-19T11:18:38Z</time><name>PT5806</name></trkpt>
<trkpt lat="52.943142" lon="05.984897"><ele>8.1</ele><time>2021-03-19T11:18:47Z</time><name>PT5807</name></trkpt>
<trkpt lat="52.943141" lon="05.984915"><ele>7.8</ele><time>2021-03-19T11:18:49Z</time><name>PT5808</name></trkpt>
<trkpt lat="52.943145" lon="05.984924"><ele>7.8</ele><time>2021-03-19T11:18:50Z</time><name>PT5809</name></trkpt>
<trkpt lat="52.943150" lon="05.984925"><ele>7.8</ele><time>2021-03-19T11:18:50Z</time><name>PT5810</name></trkpt>
<trkpt lat="52.943155" lon="05.984926"><ele>8.1</ele><time>2021-03-19T11:18:52Z</time><name>PT5811</name></trkpt>
<trkpt lat="52.943160" lon="05.984922"><ele>7.8</ele><time>2021-03-19T11:18:56Z</time><name>PT5812</name></trkpt>
<trkpt lat="52.943168" lon="05.984928"><ele>7.7</ele><time>2021-03-19T11:18:58Z</time><name>PT5813</name></trkpt>
<trkpt lat="52.943177" lon="05.984928"><ele>7.9</ele><time>2021-03-19T11:18:59Z</time><name>PT5814</name></trkpt>
<trkpt lat="52.943183" lon="05.984920"><ele>7.9</ele><time>2021-03-19T11:19:00Z</time><name>PT5815</name></trkpt>
<trkpt lat="52.943193" lon="05.984912"><ele>8</ele><time>2021-03-19T11:19:01Z</time><name>PT5816</name></trkpt>
<trkpt lat="52.943201" lon="05.984907"><ele>8</ele><time>2021-03-19T11:19:02Z</time><name>PT5817</name></trkpt>
<trkpt lat="52.943207" lon="05.984897"><ele>8</ele><time>2021-03-19T11:19:02Z</time><name>PT5818</name></trkpt>
<trkpt lat="52.943213" lon="05.984887"><ele>7.9</ele><time>2021-03-19T11:19:04Z</time><name>PT5819</name></trkpt>
<trkpt lat="52.943220" lon="05.984877"><ele>7.9</ele><time>2021-03-19T11:19:05Z</time><name>PT5820</name></trkpt>
<trkpt lat="52.943228" lon="05.984867"><ele>7.8</ele><time>2021-03-19T11:19:06Z</time><name>PT5821</name></trkpt>
<trkpt lat="52.943231" lon="05.984856"><ele>7.9</ele><time>2021-03-19T11:19:07Z</time><name>PT5822</name></trkpt>
<trkpt lat="52.943233" lon="05.984848"><ele>7.7</ele><time>2021-03-19T11:19:08Z</time><name>PT5823</name></trkpt>
<trkpt lat="52.943236" lon="05.984836"><ele>7.7</ele><time>2021-03-19T11:19:09Z</time><name>PT5824</name></trkpt>
<trkpt lat="52.943240" lon="05.984830"><ele>7.7</ele><time>2021-03-19T11:19:10Z</time><name>PT5825</name></trkpt>
<trkpt lat="52.943247" lon="05.984817"><ele>7.7</ele><time>2021-03-19T11:19:11Z</time><name>PT5826</name></trkpt>
<trkpt lat="52.943251" lon="05.984814"><ele>7.7</ele><time>2021-03-19T11:19:11Z</time><name>PT5827</name></trkpt>
<trkpt lat="52.943259" lon="05.984810"><ele>7.7</ele><time>2021-03-19T11:19:13Z</time><name>PT5828</name></trkpt>
<trkpt lat="52.943265" lon="05.984806"><ele>7.7</ele><time>2021-03-19T11:19:14Z</time><name>PT5829</name></trkpt>
<trkpt lat="52.943273" lon="05.984800"><ele>7.7</ele><time>2021-03-19T11:19:14Z</time><name>PT5830</name></trkpt>
<trkpt lat="52.943283" lon="05.984795"><ele>7.7</ele><time>2021-03-19T11:19:16Z</time><name>PT5831</name></trkpt>
<trkpt lat="52.943291" lon="05.984792"><ele>7.7</ele><time>2021-03-19T11:19:17Z</time><name>PT5832</name></trkpt>
<trkpt lat="52.943297" lon="05.984786"><ele>7.7</ele><time>2021-03-19T11:19:17Z</time><name>PT5833</name></trkpt>
<trkpt lat="52.943305" lon="05.984773"><ele>7.7</ele><time>2021-03-19T11:19:19Z</time><name>PT5834</name></trkpt>
<trkpt lat="52.943312" lon="05.984771"><ele>7.7</ele><time>2021-03-19T11:19:20Z</time><name>PT5835</name></trkpt>
<trkpt lat="52.943319" lon="05.984769"><ele>7.7</ele><time>2021-03-19T11:19:20Z</time><name>PT5836</name></trkpt>
<trkpt lat="52.943321" lon="05.984775"><ele>7.6</ele><time>2021-03-19T11:19:22Z</time><name>PT5837</name></trkpt>
<trkpt lat="52.943327" lon="05.984789"><ele>7.7</ele><time>2021-03-19T11:19:23Z</time><name>PT5838</name></trkpt>
<trkpt lat="52.943331" lon="05.984805"><ele>7.7</ele><time>2021-03-19T11:19:23Z</time><name>PT5839</name></trkpt>
<trkpt lat="52.943335" lon="05.984817"><ele>7.7</ele><time>2021-03-19T11:19:25Z</time><name>PT5840</name></trkpt>
<trkpt lat="52.943340" lon="05.984828"><ele>7.9</ele><time>2021-03-19T11:19:26Z</time><name>PT5841</name></trkpt>
<trkpt lat="52.943343" lon="05.984836"><ele>7.9</ele><time>2021-03-19T11:19:26Z</time><name>PT5842</name></trkpt>
<trkpt lat="52.943346" lon="05.984845"><ele>7.9</ele><time>2021-03-19T11:19:28Z</time><name>PT5843</name></trkpt>
<trkpt lat="52.943348" lon="05.984858"><ele>7.7</ele><time>2021-03-19T11:19:29Z</time><name>PT5844</name></trkpt>
<trkpt lat="52.943350" lon="05.984867"><ele>7.8</ele><time>2021-03-19T11:19:29Z</time><name>PT5845</name></trkpt>
<trkpt lat="52.943351" lon="05.984878"><ele>7.9</ele><time>2021-03-19T11:19:31Z</time><name>PT5846</name></trkpt>
<trkpt lat="52.943354" lon="05.984889"><ele>8</ele><time>2021-03-19T11:19:32Z</time><name>PT5847</name></trkpt>
<trkpt lat="52.943358" lon="05.984904"><ele>7.9</ele><time>2021-03-19T11:19:32Z</time><name>PT5848</name></trkpt>
<trkpt lat="52.943362" lon="05.984914"><ele>8.1</ele><time>2021-03-19T11:19:34Z</time><name>PT5849</name></trkpt>
<trkpt lat="52.943364" lon="05.984923"><ele>7.9</ele><time>2021-03-19T11:19:35Z</time><name>PT5850</name></trkpt>
<trkpt lat="52.943368" lon="05.984935"><ele>7.8</ele><time>2021-03-19T11:19:35Z</time><name>PT5851</name></trkpt>
<trkpt lat="52.943373" lon="05.984949"><ele>7.8</ele><time>2021-03-19T11:19:37Z</time><name>PT5852</name></trkpt>
<trkpt lat="52.943376" lon="05.984960"><ele>8</ele><time>2021-03-19T11:19:38Z</time><name>PT5853</name></trkpt>
<trkpt lat="52.943380" lon="05.984968"><ele>8</ele><time>2021-03-19T11:19:38Z</time><name>PT5854</name></trkpt>
<trkpt lat="52.943387" lon="05.984979"><ele>8.1</ele><time>2021-03-19T11:19:40Z</time><name>PT5855</name></trkpt>
<trkpt lat="52.943393" lon="05.984990"><ele>8.1</ele><time>2021-03-19T11:19:41Z</time><name>PT5856</name></trkpt>
<trkpt lat="52.943399" lon="05.985006"><ele>8.1</ele><time>2021-03-19T11:19:41Z</time><name>PT5857</name></trkpt>
<trkpt lat="52.943401" lon="05.985020"><ele>7.9</ele><time>2021-03-19T11:19:43Z</time><name>PT5858</name></trkpt>
<trkpt lat="52.943407" lon="05.985032"><ele>7.9</ele><time>2021-03-19T11:19:44Z</time><name>PT5859</name></trkpt>
<trkpt lat="52.943414" lon="05.985042"><ele>7.8</ele><time>2021-03-19T11:19:44Z</time><name>PT5860</name></trkpt>
<trkpt lat="52.943421" lon="05.985051"><ele>7.8</ele><time>2021-03-19T11:19:46Z</time><name>PT5861</name></trkpt>
<trkpt lat="52.943427" lon="05.985059"><ele>8</ele><time>2021-03-19T11:19:47Z</time><name>PT5862</name></trkpt>
<trkpt lat="52.943431" lon="05.985067"><ele>8</ele><time>2021-03-19T11:19:47Z</time><name>PT5863</name></trkpt>
<trkpt lat="52.943435" lon="05.985079"><ele>7.8</ele><time>2021-03-19T11:19:49Z</time><name>PT5864</name></trkpt>
<trkpt lat="52.943441" lon="05.985096"><ele>8</ele><time>2021-03-19T11:19:50Z</time><name>PT5865</name></trkpt>
<trkpt lat="52.943449" lon="05.985110"><ele>7.9</ele><time>2021-03-19T11:19:50Z</time><name>PT5866</name></trkpt>
<trkpt lat="52.943454" lon="05.985128"><ele>7.7</ele><time>2021-03-19T11:19:52Z</time><name>PT5867</name></trkpt>
<trkpt lat="52.943466" lon="05.985145"><ele>7.7</ele><time>2021-03-19T11:19:53Z</time><name>PT5868</name></trkpt>
<trkpt lat="52.943476" lon="05.985162"><ele>7.7</ele><time>2021-03-19T11:19:53Z</time><name>PT5869</name></trkpt>
<trkpt lat="52.943487" lon="05.985179"><ele>7.6</ele><time>2021-03-19T11:19:55Z</time><name>PT5870</name></trkpt>
<trkpt lat="52.943494" lon="05.985194"><ele>7.7</ele><time>2021-03-19T11:19:56Z</time><name>PT5871</name></trkpt>
<trkpt lat="52.943502" lon="05.985211"><ele>7.8</ele><time>2021-03-19T11:19:56Z</time><name>PT5872</name></trkpt>
<trkpt lat="52.943506" lon="05.985223"><ele>7.9</ele><time>2021-03-19T11:19:58Z</time><name>PT5873</name></trkpt>
<trkpt lat="52.943512" lon="05.985236"><ele>7.9</ele><time>2021-03-19T11:19:59Z</time><name>PT5874</name></trkpt>
<trkpt lat="52.943515" lon="05.985251"><ele>7.8</ele><time>2021-03-19T11:19:59Z</time><name>PT5875</name></trkpt>
<trkpt lat="52.943522" lon="05.985266"><ele>7.8</ele><time>2021-03-19T11:20:01Z</time><name>PT5876</name></trkpt>
<trkpt lat="52.943529" lon="05.985281"><ele>7.7</ele><time>2021-03-19T11:20:02Z</time><name>PT5877</name></trkpt>
<trkpt lat="52.943536" lon="05.985296"><ele>7.7</ele><time>2021-03-19T11:20:02Z</time><name>PT5878</name></trkpt>
<trkpt lat="52.943543" lon="05.985312"><ele>7.8</ele><time>2021-03-19T11:20:04Z</time><name>PT5879</name></trkpt>
<trkpt lat="52.943546" lon="05.985326"><ele>7.8</ele><time>2021-03-19T11:20:05Z</time><name>PT5880</name></trkpt>
<trkpt lat="52.943551" lon="05.985339"><ele>7.8</ele><time>2021-03-19T11:20:05Z</time><name>PT5881</name></trkpt>
<trkpt lat="52.943555" lon="05.985354"><ele>7.9</ele><time>2021-03-19T11:20:07Z</time><name>PT5882</name></trkpt>
<trkpt lat="52.943557" lon="05.985365"><ele>8.1</ele><time>2021-03-19T11:20:08Z</time><name>PT5883</name></trkpt>
<trkpt lat="52.943562" lon="05.985374"><ele>8.1</ele><time>2021-03-19T11:20:09Z</time><name>PT5884</name></trkpt>
<trkpt lat="52.943564" lon="05.985385"><ele>8.3</ele><time>2021-03-19T11:20:10Z</time><name>PT5885</name></trkpt>
<trkpt lat="52.943568" lon="05.985399"><ele>8.1</ele><time>2021-03-19T11:20:11Z</time><name>PT5886</name></trkpt>
<trkpt lat="52.943576" lon="05.985413"><ele>8.1</ele><time>2021-03-19T11:20:12Z</time><name>PT5887</name></trkpt>
<trkpt lat="52.943582" lon="05.985429"><ele>8.1</ele><time>2021-03-19T11:20:13Z</time><name>PT5888</name></trkpt>
<trkpt lat="52.943585" lon="05.985446"><ele>8</ele><time>2021-03-19T11:20:14Z</time><name>PT5889</name></trkpt>
<trkpt lat="52.943590" lon="05.985458"><ele>7.9</ele><time>2021-03-19T11:20:14Z</time><name>PT5890</name></trkpt>
<trkpt lat="52.943595" lon="05.985471"><ele>8</ele><time>2021-03-19T11:20:16Z</time><name>PT5891</name></trkpt>
<trkpt lat="52.943599" lon="05.985485"><ele>7.8</ele><time>2021-03-19T11:20:17Z</time><name>PT5892</name></trkpt>
<trkpt lat="52.943601" lon="05.985499"><ele>7.8</ele><time>2021-03-19T11:20:17Z</time><name>PT5893</name></trkpt>
<trkpt lat="52.943606" lon="05.985511"><ele>7.8</ele><time>2021-03-19T11:20:19Z</time><name>PT5894</name></trkpt>
<trkpt lat="52.943608" lon="05.985526"><ele>7.7</ele><time>2021-03-19T11:20:20Z</time><name>PT5895</name></trkpt>
<trkpt lat="52.943613" lon="05.985542"><ele>7.6</ele><time>2021-03-19T11:20:20Z</time><name>PT5896</name></trkpt>
<trkpt lat="52.943620" lon="05.985553"><ele>7.6</ele><time>2021-03-19T11:20:22Z</time><name>PT5897</name></trkpt>
<trkpt lat="52.943627" lon="05.985564"><ele>7.6</ele><time>2021-03-19T11:20:23Z</time><name>PT5898</name></trkpt>
<trkpt lat="52.943634" lon="05.985576"><ele>7.4</ele><time>2021-03-19T11:20:24Z</time><name>PT5899</name></trkpt>
<trkpt lat="52.943639" lon="05.985584"><ele>7.4</ele><time>2021-03-19T11:20:25Z</time><name>PT5900</name></trkpt>
<trkpt lat="52.943641" lon="05.985588"><ele>7.4</ele><time>2021-03-19T11:20:26Z</time><name>PT5901</name></trkpt>
<trkpt lat="52.943644" lon="05.985590"><ele>7.5</ele><time>2021-03-19T11:20:26Z</time><name>PT5902</name></trkpt>
<trkpt lat="52.943647" lon="05.985589"><ele>7.7</ele><time>2021-03-19T11:20:28Z</time><name>PT5903</name></trkpt>
<trkpt lat="52.943654" lon="05.985594"><ele>7.7</ele><time>2021-03-19T11:20:29Z</time><name>PT5904</name></trkpt>
<trkpt lat="52.943655" lon="05.985601"><ele>7.8</ele><time>2021-03-19T11:20:29Z</time><name>PT5905</name></trkpt>
<trkpt lat="52.943658" lon="05.985606"><ele>7.9</ele><time>2021-03-19T11:20:31Z</time><name>PT5906</name></trkpt>
<trkpt lat="52.943659" lon="05.985612"><ele>8</ele><time>2021-03-19T11:20:32Z</time><name>PT5907</name></trkpt>
<trkpt lat="52.943661" lon="05.985611"><ele>8</ele><time>2021-03-19T11:20:32Z</time><name>PT5908</name></trkpt>
<trkpt lat="52.943661" lon="05.985616"><ele>7.9</ele><time>2021-03-19T11:20:34Z</time><name>PT5909</name></trkpt>
<trkpt lat="52.943666" lon="05.985620"><ele>7.7</ele><time>2021-03-19T11:20:35Z</time><name>PT5910</name></trkpt>
<trkpt lat="52.943668" lon="05.985623"><ele>7.7</ele><time>2021-03-19T11:20:35Z</time><name>PT5911</name></trkpt>
<trkpt lat="52.943675" lon="05.985624"><ele>7.6</ele><time>2021-03-19T11:20:37Z</time><name>PT5912</name></trkpt>
<trkpt lat="52.943672" lon="05.985628"><ele>7.6</ele><time>2021-03-19T11:20:53Z</time><name>PT5913</name></trkpt>
<trkpt lat="52.943658" lon="05.985647"><ele>7.7</ele><time>2021-03-19T11:20:53Z</time><name>PT5914</name></trkpt>
<trkpt lat="52.943645" lon="05.985657"><ele>7.7</ele><time>2021-03-19T11:20:55Z</time><name>PT5915</name></trkpt>
<trkpt lat="52.943645" lon="05.985663"><ele>7.6</ele><time>2021-03-19T11:20:56Z</time><name>PT5916</name></trkpt>
<trkpt lat="52.943639" lon="05.985669"><ele>7.6</ele><time>2021-03-19T11:20:56Z</time><name>PT5917</name></trkpt>
<trkpt lat="52.943630" lon="05.985682"><ele>7.7</ele><time>2021-03-19T11:20:58Z</time><name>PT5918</name></trkpt>
<trkpt lat="52.943618" lon="05.985690"><ele>7.8</ele><time>2021-03-19T11:20:59Z</time><name>PT5919</name></trkpt>
<trkpt lat="52.943608" lon="05.985698"><ele>7.8</ele><time>2021-03-19T11:21:00Z</time><name>PT5920</name></trkpt>
<trkpt lat="52.943596" lon="05.985704"><ele>7.9</ele><time>2021-03-19T11:21:01Z</time><name>PT5921</name></trkpt>
<trkpt lat="52.943584" lon="05.985708"><ele>7.9</ele><time>2021-03-19T11:21:02Z</time><name>PT5922</name></trkpt>
<trkpt lat="52.943573" lon="05.985715"><ele>7.9</ele><time>2021-03-19T11:21:02Z</time><name>PT5923</name></trkpt>
<trkpt lat="52.943566" lon="05.985719"><ele>8</ele><time>2021-03-19T11:21:04Z</time><name>PT5924</name></trkpt>
<trkpt lat="52.943555" lon="05.985727"><ele>8</ele><time>2021-03-19T11:21:05Z</time><name>PT5925</name></trkpt>
<trkpt lat="52.943545" lon="05.985742"><ele>8.1</ele><time>2021-03-19T11:21:05Z</time><name>PT5926</name></trkpt>
<trkpt lat="52.943533" lon="05.985748"><ele>8.2</ele><time>2021-03-19T11:21:07Z</time><name>PT5927</name></trkpt>
<trkpt lat="52.943521" lon="05.985756"><ele>8.3</ele><time>2021-03-19T11:21:08Z</time><name>PT5928</name></trkpt>
<trkpt lat="52.943511" lon="05.985767"><ele>8.2</ele><time>2021-03-19T11:21:09Z</time><name>PT5929</name></trkpt>
<trkpt lat="52.943504" lon="05.985776"><ele>8.1</ele><time>2021-03-19T11:21:10Z</time><name>PT5930</name></trkpt>
<trkpt lat="52.943494" lon="05.985793"><ele>8.2</ele><time>2021-03-19T11:21:11Z</time><name>PT5931</name></trkpt>
<trkpt lat="52.943484" lon="05.985808"><ele>8.2</ele><time>2021-03-19T11:21:11Z</time><name>PT5932</name></trkpt>
<trkpt lat="52.943473" lon="05.985823"><ele>8.1</ele><time>2021-03-19T11:21:13Z</time><name>PT5933</name></trkpt>
<trkpt lat="52.943464" lon="05.985838"><ele>8.1</ele><time>2021-03-19T11:21:14Z</time><name>PT5934</name></trkpt>
<trkpt lat="52.943455" lon="05.985846"><ele>8.1</ele><time>2021-03-19T11:21:15Z</time><name>PT5935</name></trkpt>
<trkpt lat="52.943444" lon="05.985854"><ele>8.1</ele><time>2021-03-19T11:21:16Z</time><name>PT5936</name></trkpt>
<trkpt lat="52.943435" lon="05.985862"><ele>8.4</ele><time>2021-03-19T11:21:17Z</time><name>PT5937</name></trkpt>
<trkpt lat="52.943426" lon="05.985872"><ele>8.3</ele><time>2021-03-19T11:21:18Z</time><name>PT5938</name></trkpt>
<trkpt lat="52.943415" lon="05.985885"><ele>8.2</ele><time>2021-03-19T11:21:19Z</time><name>PT5939</name></trkpt>
<trkpt lat="52.943403" lon="05.985896"><ele>8.2</ele><time>2021-03-19T11:21:20Z</time><name>PT5940</name></trkpt>
<trkpt lat="52.943398" lon="05.985903"><ele>8.2</ele><time>2021-03-19T11:21:21Z</time><name>PT5941</name></trkpt>
<trkpt lat="52.943390" lon="05.985909"><ele>8.2</ele><time>2021-03-19T11:21:22Z</time><name>PT5942</name></trkpt>
<trkpt lat="52.943380" lon="05.985914"><ele>8.3</ele><time>2021-03-19T11:21:23Z</time><name>PT5943</name></trkpt>
<trkpt lat="52.943369" lon="05.985925"><ele>8.3</ele><time>2021-03-19T11:21:24Z</time><name>PT5944</name></trkpt>
<trkpt lat="52.943358" lon="05.985934"><ele>8.2</ele><time>2021-03-19T11:21:25Z</time><name>PT5945</name></trkpt>
<trkpt lat="52.943344" lon="05.985944"><ele>8.3</ele><time>2021-03-19T11:21:26Z</time><name>PT5946</name></trkpt>
<trkpt lat="52.943331" lon="05.985951"><ele>8.2</ele><time>2021-03-19T11:21:27Z</time><name>PT5947</name></trkpt>
<trkpt lat="52.943320" lon="05.985959"><ele>8.2</ele><time>2021-03-19T11:21:28Z</time><name>PT5948</name></trkpt>
<trkpt lat="52.943310" lon="05.985971"><ele>8.3</ele><time>2021-03-19T11:21:29Z</time><name>PT5949</name></trkpt>
<trkpt lat="52.943300" lon="05.985984"><ele>8.3</ele><time>2021-03-19T11:21:30Z</time><name>PT5950</name></trkpt>
<trkpt lat="52.943292" lon="05.985995"><ele>8.1</ele><time>2021-03-19T11:21:31Z</time><name>PT5951</name></trkpt>
<trkpt lat="52.943281" lon="05.986005"><ele>8.2</ele><time>2021-03-19T11:21:32Z</time><name>PT5952</name></trkpt>
<trkpt lat="52.943270" lon="05.986011"><ele>8.1</ele><time>2021-03-19T11:21:33Z</time><name>PT5953</name></trkpt>
<trkpt lat="52.943260" lon="05.986017"><ele>8.1</ele><time>2021-03-19T11:21:34Z</time><name>PT5954</name></trkpt>
<trkpt lat="52.943250" lon="05.986027"><ele>7.9</ele><time>2021-03-19T11:21:35Z</time><name>PT5955</name></trkpt>
<trkpt lat="52.943242" lon="05.986031"><ele>8</ele><time>2021-03-19T11:21:35Z</time><name>PT5956</name></trkpt>
<trkpt lat="52.943232" lon="05.986040"><ele>8.1</ele><time>2021-03-19T11:21:37Z</time><name>PT5957</name></trkpt>
<trkpt lat="52.943221" lon="05.986047"><ele>8.2</ele><time>2021-03-19T11:21:38Z</time><name>PT5958</name></trkpt>
<trkpt lat="52.943212" lon="05.986057"><ele>8.4</ele><time>2021-03-19T11:21:38Z</time><name>PT5959</name></trkpt>
<trkpt lat="52.943205" lon="05.986070"><ele>8.5</ele><time>2021-03-19T11:21:40Z</time><name>PT5960</name></trkpt>
<trkpt lat="52.943198" lon="05.986086"><ele>8.4</ele><time>2021-03-19T11:21:41Z</time><name>PT5961</name></trkpt>
<trkpt lat="52.943190" lon="05.986099"><ele>8.3</ele><time>2021-03-19T11:21:41Z</time><name>PT5962</name></trkpt>
<trkpt lat="52.943177" lon="05.986110"><ele>8.4</ele><time>2021-03-19T11:21:43Z</time><name>PT5963</name></trkpt>
<trkpt lat="52.943166" lon="05.986113"><ele>8.4</ele><time>2021-03-19T11:21:44Z</time><name>PT5964</name></trkpt>
<trkpt lat="52.943156" lon="05.986116"><ele>8.2</ele><time>2021-03-19T11:21:44Z</time><name>PT5965</name></trkpt>
<trkpt lat="52.943146" lon="05.986121"><ele>8.1</ele><time>2021-03-19T11:21:46Z</time><name>PT5966</name></trkpt>
<trkpt lat="52.943138" lon="05.986129"><ele>8</ele><time>2021-03-19T11:21:47Z</time><name>PT5967</name></trkpt>
<trkpt lat="52.943128" lon="05.986141"><ele>8</ele><time>2021-03-19T11:21:47Z</time><name>PT5968</name></trkpt>
<trkpt lat="52.943120" lon="05.986150"><ele>8</ele><time>2021-03-19T11:21:49Z</time><name>PT5969</name></trkpt>
<trkpt lat="52.943112" lon="05.986156"><ele>8.1</ele><time>2021-03-19T11:21:50Z</time><name>PT5970</name></trkpt>
<trkpt lat="52.943100" lon="05.986166"><ele>8.1</ele><time>2021-03-19T11:21:50Z</time><name>PT5971</name></trkpt>
<trkpt lat="52.943091" lon="05.986178"><ele>8.3</ele><time>2021-03-19T11:21:52Z</time><name>PT5972</name></trkpt>
<trkpt lat="52.943082" lon="05.986193"><ele>8.3</ele><time>2021-03-19T11:21:53Z</time><name>PT5973</name></trkpt>
<trkpt lat="52.943076" lon="05.986205"><ele>8.3</ele><time>2021-03-19T11:21:53Z</time><name>PT5974</name></trkpt>
<trkpt lat="52.943071" lon="05.986215"><ele>8.3</ele><time>2021-03-19T11:21:55Z</time><name>PT5975</name></trkpt>
<trkpt lat="52.943061" lon="05.986219"><ele>8.4</ele><time>2021-03-19T11:21:56Z</time><name>PT5976</name></trkpt>
<trkpt lat="52.943049" lon="05.986227"><ele>8.4</ele><time>2021-03-19T11:21:56Z</time><name>PT5977</name></trkpt>
<trkpt lat="52.943042" lon="05.986233"><ele>8.3</ele><time>2021-03-19T11:21:58Z</time><name>PT5978</name></trkpt>
<trkpt lat="52.943032" lon="05.986241"><ele>8.4</ele><time>2021-03-19T11:21:59Z</time><name>PT5979</name></trkpt>
<trkpt lat="52.943022" lon="05.986247"><ele>8.3</ele><time>2021-03-19T11:21:59Z</time><name>PT5980</name></trkpt>
<trkpt lat="52.943009" lon="05.986252"><ele>8.3</ele><time>2021-03-19T11:22:01Z</time><name>PT5981</name></trkpt>
<trkpt lat="52.942999" lon="05.986255"><ele>8.3</ele><time>2021-03-19T11:22:02Z</time><name>PT5982</name></trkpt>
<trkpt lat="52.942988" lon="05.986264"><ele>8.2</ele><time>2021-03-19T11:22:02Z</time><name>PT5983</name></trkpt>
<trkpt lat="52.942976" lon="05.986275"><ele>8.2</ele><time>2021-03-19T11:22:04Z</time><name>PT5984</name></trkpt>
<trkpt lat="52.942964" lon="05.986288"><ele>8.3</ele><time>2021-03-19T11:22:05Z</time><name>PT5985</name></trkpt>
<trkpt lat="52.942954" lon="05.986296"><ele>8.4</ele><time>2021-03-19T11:22:05Z</time><name>PT5986</name></trkpt>
<trkpt lat="52.942946" lon="05.986298"><ele>8.5</ele><time>2021-03-19T11:22:07Z</time><name>PT5987</name></trkpt>
<trkpt lat="52.942939" lon="05.986308"><ele>8.4</ele><time>2021-03-19T11:22:08Z</time><name>PT5988</name></trkpt>
<trkpt lat="52.942930" lon="05.986319"><ele>8.5</ele><time>2021-03-19T11:22:08Z</time><name>PT5989</name></trkpt>
<trkpt lat="52.942919" lon="05.986330"><ele>8.2</ele><time>2021-03-19T11:22:10Z</time><name>PT5990</name></trkpt>
<trkpt lat="52.942912" lon="05.986339"><ele>8.3</ele><time>2021-03-19T11:22:11Z</time><name>PT5991</name></trkpt>
<trkpt lat="52.942902" lon="05.986350"><ele>8.1</ele><time>2021-03-19T11:22:11Z</time><name>PT5992</name></trkpt>
<trkpt lat="52.942891" lon="05.986360"><ele>8.3</ele><time>2021-03-19T11:22:13Z</time><name>PT5993</name></trkpt>
<trkpt lat="52.942882" lon="05.986368"><ele>8.3</ele><time>2021-03-19T11:22:14Z</time><name>PT5994</name></trkpt>
<trkpt lat="52.942873" lon="05.986375"><ele>8.4</ele><time>2021-03-19T11:22:14Z</time><name>PT5995</name></trkpt>
<trkpt lat="52.942862" lon="05.986386"><ele>8.4</ele><time>2021-03-19T11:22:16Z</time><name>PT5996</name></trkpt>
<trkpt lat="52.942853" lon="05.986395"><ele>8.2</ele><time>2021-03-19T11:22:17Z</time><name>PT5997</name></trkpt>
<trkpt lat="52.942842" lon="05.986404"><ele>8.2</ele><time>2021-03-19T11:22:17Z</time><name>PT5998</name></trkpt>
<trkpt lat="52.942831" lon="05.986409"><ele>8.1</ele><time>2021-03-19T11:22:19Z</time><name>PT5999</name></trkpt>
<trkpt lat="52.942821" lon="05.986416"><ele>7.9</ele><time>2021-03-19T11:22:20Z</time><name>PT6000</name></trkpt>
<trkpt lat="52.942813" lon="05.986425"><ele>7.8</ele><time>2021-03-19T11:22:20Z</time><name>PT6001</name></trkpt>
<trkpt lat="52.942806" lon="05.986436"><ele>7.9</ele><time>2021-03-19T11:22:22Z</time><name>PT6002</name></trkpt>
<trkpt lat="52.942799" lon="05.986449"><ele>7.8</ele><time>2021-03-19T11:22:23Z</time><name>PT6003</name></trkpt>
<trkpt lat="52.942795" lon="05.986464"><ele>7.9</ele><time>2021-03-19T11:22:23Z</time><name>PT6004</name></trkpt>
<trkpt lat="52.942790" lon="05.986468"><ele>8.1</ele><time>2021-03-19T11:22:25Z</time><name>PT6005</name></trkpt>
<trkpt lat="52.942783" lon="05.986477"><ele>8.1</ele><time>2021-03-19T11:22:26Z</time><name>PT6006</name></trkpt>
<trkpt lat="52.942775" lon="05.986488"><ele>8.4</ele><time>2021-03-19T11:22:26Z</time><name>PT6007</name></trkpt>
<trkpt lat="52.942769" lon="05.986501"><ele>8.3</ele><time>2021-03-19T11:22:28Z</time><name>PT6008</name></trkpt>
<trkpt lat="52.942765" lon="05.986518"><ele>8.3</ele><time>2021-03-19T11:22:29Z</time><name>PT6009</name></trkpt>
<trkpt lat="52.942760" lon="05.986537"><ele>8.2</ele><time>2021-03-19T11:22:30Z</time><name>PT6010</name></trkpt>
<trkpt lat="52.942756" lon="05.986553"><ele>8.1</ele><time>2021-03-19T11:22:31Z</time><name>PT6011</name></trkpt>
<trkpt lat="52.942752" lon="05.986569"><ele>8.1</ele><time>2021-03-19T11:22:32Z</time><name>PT6012</name></trkpt>
<trkpt lat="52.942749" lon="05.986588"><ele>8.1</ele><time>2021-03-19T11:22:33Z</time><name>PT6013</name></trkpt>
<trkpt lat="52.942751" lon="05.986606"><ele>8</ele><time>2021-03-19T11:22:34Z</time><name>PT6014</name></trkpt>
<trkpt lat="52.942756" lon="05.986620"><ele>8.1</ele><time>2021-03-19T11:22:35Z</time><name>PT6015</name></trkpt>
<trkpt lat="52.942760" lon="05.986638"><ele>8.1</ele><time>2021-03-19T11:22:36Z</time><name>PT6016</name></trkpt>
<trkpt lat="52.942762" lon="05.986652"><ele>8.1</ele><time>2021-03-19T11:22:37Z</time><name>PT6017</name></trkpt>
<trkpt lat="52.942768" lon="05.986664"><ele>8</ele><time>2021-03-19T11:22:38Z</time><name>PT6018</name></trkpt>
<trkpt lat="52.942770" lon="05.986678"><ele>7.9</ele><time>2021-03-19T11:22:39Z</time><name>PT6019</name></trkpt>
<trkpt lat="52.942773" lon="05.986692"><ele>7.8</ele><time>2021-03-19T11:22:40Z</time><name>PT6020</name></trkpt>
<trkpt lat="52.942774" lon="05.986708"><ele>7.7</ele><time>2021-03-19T11:22:41Z</time><name>PT6021</name></trkpt>
<trkpt lat="52.942772" lon="05.986720"><ele>7.7</ele><time>2021-03-19T11:22:42Z</time><name>PT6022</name></trkpt>
<trkpt lat="52.942774" lon="05.986728"><ele>7.7</ele><time>2021-03-19T11:22:43Z</time><name>PT6023</name></trkpt>
<trkpt lat="52.942778" lon="05.986740"><ele>7.7</ele><time>2021-03-19T11:22:44Z</time><name>PT6024</name></trkpt>
<trkpt lat="52.942779" lon="05.986759"><ele>7.7</ele><time>2021-03-19T11:22:44Z</time><name>PT6025</name></trkpt>
<trkpt lat="52.942779" lon="05.986779"><ele>7.8</ele><time>2021-03-19T11:22:46Z</time><name>PT6026</name></trkpt>
<trkpt lat="52.942778" lon="05.986795"><ele>7.9</ele><time>2021-03-19T11:22:47Z</time><name>PT6027</name></trkpt>
<trkpt lat="52.942779" lon="05.986808"><ele>8.1</ele><time>2021-03-19T11:22:47Z</time><name>PT6028</name></trkpt>
<trkpt lat="52.942780" lon="05.986823"><ele>8.1</ele><time>2021-03-19T11:22:49Z</time><name>PT6029</name></trkpt>
<trkpt lat="52.942781" lon="05.986839"><ele>8.1</ele><time>2021-03-19T11:22:50Z</time><name>PT6030</name></trkpt>
<trkpt lat="52.942780" lon="05.986857"><ele>7.9</ele><time>2021-03-19T11:22:50Z</time><name>PT6031</name></trkpt>
<trkpt lat="52.942780" lon="05.986873"><ele>7.9</ele><time>2021-03-19T11:22:52Z</time><name>PT6032</name></trkpt>
<trkpt lat="52.942781" lon="05.986888"><ele>7.8</ele><time>2021-03-19T11:22:53Z</time><name>PT6033</name></trkpt>
<trkpt lat="52.942782" lon="05.986902"><ele>7.8</ele><time>2021-03-19T11:22:53Z</time><name>PT6034</name></trkpt>
<trkpt lat="52.942785" lon="05.986915"><ele>7.8</ele><time>2021-03-19T11:22:55Z</time><name>PT6035</name></trkpt>
<trkpt lat="52.942785" lon="05.986928"><ele>7.8</ele><time>2021-03-19T11:22:56Z</time><name>PT6036</name></trkpt>
<trkpt lat="52.942785" lon="05.986942"><ele>7.8</ele><time>2021-03-19T11:22:56Z</time><name>PT6037</name></trkpt>
<trkpt lat="52.942786" lon="05.986953"><ele>7.8</ele><time>2021-03-19T11:22:58Z</time><name>PT6038</name></trkpt>
<trkpt lat="52.942786" lon="05.986963"><ele>7.7</ele><time>2021-03-19T11:22:59Z</time><name>PT6039</name></trkpt>
<trkpt lat="52.942785" lon="05.986968"><ele>7.8</ele><time>2021-03-19T11:22:59Z</time><name>PT6040</name></trkpt>
<trkpt lat="52.942782" lon="05.986973"><ele>7.8</ele><time>2021-03-19T11:23:01Z</time><name>PT6041</name></trkpt>
<trkpt lat="52.942781" lon="05.986978"><ele>8</ele><time>2021-03-19T11:23:02Z</time><name>PT6042</name></trkpt>
<trkpt lat="52.942781" lon="05.986988"><ele>8</ele><time>2021-03-19T11:23:02Z</time><name>PT6043</name></trkpt>
<trkpt lat="52.942782" lon="05.986994"><ele>7.9</ele><time>2021-03-19T11:23:04Z</time><name>PT6044</name></trkpt>
<trkpt lat="52.942783" lon="05.987000"><ele>7.8</ele><time>2021-03-19T11:23:05Z</time><name>PT6045</name></trkpt>
<trkpt lat="52.942784" lon="05.987007"><ele>7.7</ele><time>2021-03-19T11:23:05Z</time><name>PT6046</name></trkpt>
<trkpt lat="52.942786" lon="05.987018"><ele>7.6</ele><time>2021-03-19T11:23:11Z</time><name>PT6047</name></trkpt>
<trkpt lat="52.942786" lon="05.987038"><ele>7.7</ele><time>2021-03-19T11:23:13Z</time><name>PT6048</name></trkpt>
<trkpt lat="52.942785" lon="05.987059"><ele>7.7</ele><time>2021-03-19T11:23:14Z</time><name>PT6049</name></trkpt>
<trkpt lat="52.942787" lon="05.987078"><ele>7.8</ele><time>2021-03-19T11:23:14Z</time><name>PT6050</name></trkpt>
<trkpt lat="52.942786" lon="05.987097"><ele>8.1</ele><time>2021-03-19T11:23:16Z</time><name>PT6051</name></trkpt>
<trkpt lat="52.942783" lon="05.987115"><ele>8.1</ele><time>2021-03-19T11:23:17Z</time><name>PT6052</name></trkpt>
<trkpt lat="52.942781" lon="05.987125"><ele>7.8</ele><time>2021-03-19T11:23:17Z</time><name>PT6053</name></trkpt>
<trkpt lat="52.942778" lon="05.987135"><ele>7.8</ele><time>2021-03-19T11:23:19Z</time><name>PT6054</name></trkpt>
<trkpt lat="52.942776" lon="05.987148"><ele>7.7</ele><time>2021-03-19T11:23:20Z</time><name>PT6055</name></trkpt>
<trkpt lat="52.942776" lon="05.987165"><ele>7.7</ele><time>2021-03-19T11:23:21Z</time><name>PT6056</name></trkpt>
<trkpt lat="52.942777" lon="05.987184"><ele>7.7</ele><time>2021-03-19T11:23:22Z</time><name>PT6057</name></trkpt>
<trkpt lat="52.942779" lon="05.987195"><ele>7.8</ele><time>2021-03-19T11:23:23Z</time><name>PT6058</name></trkpt>
<trkpt lat="52.942776" lon="05.987206"><ele>7.7</ele><time>2021-03-19T11:23:23Z</time><name>PT6059</name></trkpt>
<trkpt lat="52.942779" lon="05.987207"><ele>7.7</ele><time>2021-03-19T11:23:25Z</time><name>PT6060</name></trkpt>
<trkpt lat="52.942781" lon="05.987207"><ele>7.6</ele><time>2021-03-19T11:23:26Z</time><name>PT6061</name></trkpt>
<trkpt lat="52.942779" lon="05.987209"><ele>7.6</ele><time>2021-03-19T11:23:27Z</time><name>PT6062</name></trkpt>
<trkpt lat="52.942777" lon="05.987217"><ele>7.7</ele><time>2021-03-19T11:23:28Z</time><name>PT6063</name></trkpt>
<trkpt lat="52.942775" lon="05.987221"><ele>7.9</ele><time>2021-03-19T11:23:29Z</time><name>PT6064</name></trkpt>
<trkpt lat="52.942775" lon="05.987222"><ele>7.9</ele><time>2021-03-19T11:23:30Z</time><name>PT6065</name></trkpt>
<trkpt lat="52.942774" lon="05.987224"><ele>8.1</ele><time>2021-03-19T11:23:31Z</time><name>PT6066</name></trkpt>
<trkpt lat="52.942773" lon="05.987221"><ele>7.9</ele><time>2021-03-19T11:23:40Z</time><name>PT6067</name></trkpt>
<trkpt lat="52.942769" lon="05.987223"><ele>8.1</ele><time>2021-03-19T11:23:41Z</time><name>PT6068</name></trkpt>
<trkpt lat="52.942766" lon="05.987230"><ele>8.1</ele><time>2021-03-19T11:23:41Z</time><name>PT6069</name></trkpt>
<trkpt lat="52.942762" lon="05.987237"><ele>8.1</ele><time>2021-03-19T11:23:43Z</time><name>PT6070</name></trkpt>
<trkpt lat="52.942761" lon="05.987241"><ele>7.9</ele><time>2021-03-19T11:23:44Z</time><name>PT6071</name></trkpt>
<trkpt lat="52.942752" lon="05.987250"><ele>7.7</ele><time>2021-03-19T11:23:47Z</time><name>PT6072</name></trkpt>
<trkpt lat="52.942753" lon="05.987262"><ele>7.6</ele><time>2021-03-19T11:23:47Z</time><name>PT6073</name></trkpt>
<trkpt lat="52.942755" lon="05.987264"><ele>7.7</ele><time>2021-03-19T11:23:49Z</time><name>PT6074</name></trkpt>
<trkpt lat="52.942755" lon="05.987272"><ele>8</ele><time>2021-03-19T11:23:50Z</time><name>PT6075</name></trkpt>
<trkpt lat="52.942748" lon="05.987268"><ele>8.2</ele><time>2021-03-19T11:23:52Z</time><name>PT6076</name></trkpt>
<trkpt lat="52.942747" lon="05.987262"><ele>8.1</ele><time>2021-03-19T11:23:53Z</time><name>PT6077</name></trkpt>
<trkpt lat="52.942744" lon="05.987247"><ele>8.4</ele><time>2021-03-19T11:23:53Z</time><name>PT6078</name></trkpt>
<trkpt lat="52.942741" lon="05.987243"><ele>8.1</ele><time>2021-03-19T11:23:55Z</time><name>PT6079</name></trkpt>
<trkpt lat="52.942740" lon="05.987255"><ele>7.8</ele><time>2021-03-19T11:23:56Z</time><name>PT6080</name></trkpt>
<trkpt lat="52.942740" lon="05.987254"><ele>7.8</ele><time>2021-03-19T11:23:56Z</time><name>PT6081</name></trkpt>
<trkpt lat="52.942743" lon="05.987260"><ele>7.9</ele><time>2021-03-19T11:23:58Z</time><name>PT6082</name></trkpt>
<trkpt lat="52.942740" lon="05.987259"><ele>7.9</ele><time>2021-03-19T11:23:59Z</time><name>PT6083</name></trkpt>
<trkpt lat="52.942738" lon="05.987260"><ele>8.1</ele><time>2021-03-19T11:24:03Z</time><name>PT6084</name></trkpt>
<trkpt lat="52.942737" lon="05.987256"><ele>8.1</ele><time>2021-03-19T11:24:04Z</time><name>PT6085</name></trkpt>
<trkpt lat="52.942737" lon="05.987250"><ele>7.9</ele><time>2021-03-19T11:24:05Z</time><name>PT6086</name></trkpt>
<trkpt lat="52.942733" lon="05.987242"><ele>7.5</ele><time>2021-03-19T11:24:28Z</time><name>PT6087</name></trkpt>
<trkpt lat="52.942734" lon="05.987243"><ele>7.6</ele><time>2021-03-19T11:24:29Z</time><name>PT6088</name></trkpt>
<trkpt lat="52.942738" lon="05.987242"><ele>7.6</ele><time>2021-03-19T11:24:29Z</time><name>PT6089</name></trkpt>
<trkpt lat="52.942739" lon="05.987241"><ele>7.7</ele><time>2021-03-19T11:24:31Z</time><name>PT6090</name></trkpt>
<trkpt lat="52.942738" lon="05.987240"><ele>7.7</ele><time>2021-03-19T11:24:32Z</time><name>PT6091</name></trkpt>
<trkpt lat="52.942735" lon="05.987248"><ele>7.8</ele><time>2021-03-19T11:24:44Z</time><name>PT6092</name></trkpt>
<trkpt lat="52.942734" lon="05.987244"><ele>7.8</ele><time>2021-03-19T11:24:45Z</time><name>PT6093</name></trkpt>
<trkpt lat="52.942732" lon="05.987242"><ele>7.7</ele><time>2021-03-19T11:24:46Z</time><name>PT6094</name></trkpt>
<trkpt lat="52.942728" lon="05.987259"><ele>7.7</ele><time>2021-03-19T11:24:48Z</time><name>PT6095</name></trkpt>
<trkpt lat="52.942731" lon="05.987273"><ele>7.7</ele><time>2021-03-19T11:24:49Z</time><name>PT6096</name></trkpt>
<trkpt lat="52.942729" lon="05.987282"><ele>7.5</ele><time>2021-03-19T11:24:50Z</time><name>PT6097</name></trkpt>
<trkpt lat="52.942730" lon="05.987289"><ele>7.3</ele><time>2021-03-19T11:24:51Z</time><name>PT6098</name></trkpt>
<trkpt lat="52.942729" lon="05.987290"><ele>7.3</ele><time>2021-03-19T11:24:53Z</time><name>PT6099</name></trkpt>
<trkpt lat="52.942733" lon="05.987300"><ele>7.3</ele><time>2021-03-19T11:24:54Z</time><name>PT6100</name></trkpt>
<trkpt lat="52.942735" lon="05.987312"><ele>7.5</ele><time>2021-03-19T11:24:55Z</time><name>PT6101</name></trkpt>
<trkpt lat="52.942739" lon="05.987321"><ele>7.7</ele><time>2021-03-19T11:24:56Z</time><name>PT6102</name></trkpt>
<trkpt lat="52.942742" lon="05.987331"><ele>7.7</ele><time>2021-03-19T11:24:57Z</time><name>PT6103</name></trkpt>
<trkpt lat="52.942749" lon="05.987336"><ele>7.7</ele><time>2021-03-19T11:24:58Z</time><name>PT6104</name></trkpt>
<trkpt lat="52.942751" lon="05.987344"><ele>7.7</ele><time>2021-03-19T11:24:59Z</time><name>PT6105</name></trkpt>
<trkpt lat="52.942754" lon="05.987351"><ele>7.7</ele><time>2021-03-19T11:24:59Z</time><name>PT6106</name></trkpt>
<trkpt lat="52.942755" lon="05.987356"><ele>7.6</ele><time>2021-03-19T11:25:01Z</time><name>PT6107</name></trkpt>
<trkpt lat="52.942758" lon="05.987360"><ele>7.7</ele><time>2021-03-19T11:25:02Z</time><name>PT6108</name></trkpt>
<trkpt lat="52.942759" lon="05.987364"><ele>7.7</ele><time>2021-03-19T11:25:04Z</time><name>PT6109</name></trkpt>
<trkpt lat="52.942757" lon="05.987369"><ele>7.6</ele><time>2021-03-19T11:25:05Z</time><name>PT6110</name></trkpt>
<trkpt lat="52.942755" lon="05.987377"><ele>7.5</ele><time>2021-03-19T11:25:05Z</time><name>PT6111</name></trkpt>
<trkpt lat="52.942749" lon="05.987378"><ele>7.5</ele><time>2021-03-19T11:25:10Z</time><name>PT6112</name></trkpt>
<trkpt lat="52.942741" lon="05.987385"><ele>7.6</ele><time>2021-03-19T11:25:11Z</time><name>PT6113</name></trkpt>
<trkpt lat="52.942731" lon="05.987382"><ele>7.6</ele><time>2021-03-19T11:25:11Z</time><name>PT6114</name></trkpt>
<trkpt lat="52.942726" lon="05.987385"><ele>7.6</ele><time>2021-03-19T11:25:13Z</time><name>PT6115</name></trkpt>
<trkpt lat="52.942721" lon="05.987384"><ele>7.6</ele><time>2021-03-19T11:25:14Z</time><name>PT6116</name></trkpt>
<trkpt lat="52.942715" lon="05.987381"><ele>7.5</ele><time>2021-03-19T11:25:14Z</time><name>PT6117</name></trkpt>
<trkpt lat="52.942706" lon="05.987377"><ele>7.5</ele><time>2021-03-19T11:25:16Z</time><name>PT6118</name></trkpt>
<trkpt lat="52.942701" lon="05.987381"><ele>7.3</ele><time>2021-03-19T11:25:17Z</time><name>PT6119</name></trkpt>
<trkpt lat="52.942696" lon="05.987384"><ele>7.4</ele><time>2021-03-19T11:25:17Z</time><name>PT6120</name></trkpt>
<trkpt lat="52.942690" lon="05.987386"><ele>7.3</ele><time>2021-03-19T11:25:19Z</time><name>PT6121</name></trkpt>
<trkpt lat="52.942683" lon="05.987389"><ele>7.2</ele><time>2021-03-19T11:25:20Z</time><name>PT6122</name></trkpt>
<trkpt lat="52.942677" lon="05.987394"><ele>7.2</ele><time>2021-03-19T11:25:20Z</time><name>PT6123</name></trkpt>
<trkpt lat="52.942671" lon="05.987398"><ele>7.2</ele><time>2021-03-19T11:25:22Z</time><name>PT6124</name></trkpt>
<trkpt lat="52.942658" lon="05.987404"><ele>7.2</ele><time>2021-03-19T11:25:23Z</time><name>PT6125</name></trkpt>
<trkpt lat="52.942651" lon="05.987406"><ele>7.2</ele><time>2021-03-19T11:25:23Z</time><name>PT6126</name></trkpt>
<trkpt lat="52.942645" lon="05.987415"><ele>7.1</ele><time>2021-03-19T11:25:25Z</time><name>PT6127</name></trkpt>
<trkpt lat="52.942643" lon="05.987419"><ele>7</ele><time>2021-03-19T11:25:26Z</time><name>PT6128</name></trkpt>
<trkpt lat="52.942639" lon="05.987421"><ele>7</ele><time>2021-03-19T11:25:26Z</time><name>PT6129</name></trkpt>
<trkpt lat="52.942639" lon="05.987424"><ele>6.8</ele><time>2021-03-19T11:25:28Z</time><name>PT6130</name></trkpt>
<trkpt lat="52.942641" lon="05.987434"><ele>6.9</ele><time>2021-03-19T11:25:29Z</time><name>PT6131</name></trkpt>
<trkpt lat="52.942639" lon="05.987446"><ele>6.9</ele><time>2021-03-19T11:25:30Z</time><name>PT6132</name></trkpt>
<trkpt lat="52.942635" lon="05.987458"><ele>7.2</ele><time>2021-03-19T11:25:31Z</time><name>PT6133</name></trkpt>
<trkpt lat="52.942629" lon="05.987464"><ele>7.3</ele><time>2021-03-19T11:25:32Z</time><name>PT6134</name></trkpt>
<trkpt lat="52.942623" lon="05.987476"><ele>7.4</ele><time>2021-03-19T11:25:32Z</time><name>PT6135</name></trkpt>
<trkpt lat="52.942617" lon="05.987489"><ele>7.4</ele><time>2021-03-19T11:25:34Z</time><name>PT6136</name></trkpt>
<trkpt lat="52.942611" lon="05.987500"><ele>7.6</ele><time>2021-03-19T11:25:35Z</time><name>PT6137</name></trkpt>
<trkpt lat="52.942608" lon="05.987512"><ele>7.6</ele><time>2021-03-19T11:25:35Z</time><name>PT6138</name></trkpt>
<trkpt lat="52.942604" lon="05.987526"><ele>7.6</ele><time>2021-03-19T11:25:37Z</time><name>PT6139</name></trkpt>
<trkpt lat="52.942593" lon="05.987547"><ele>7.7</ele><time>2021-03-19T11:25:38Z</time><name>PT6140</name></trkpt>
<trkpt lat="52.942588" lon="05.987561"><ele>7.7</ele><time>2021-03-19T11:25:38Z</time><name>PT6141</name></trkpt>
<trkpt lat="52.942585" lon="05.987572"><ele>7.7</ele><time>2021-03-19T11:25:40Z</time><name>PT6142</name></trkpt>
<trkpt lat="52.942580" lon="05.987580"><ele>7.6</ele><time>2021-03-19T11:25:41Z</time><name>PT6143</name></trkpt>
<trkpt lat="52.942574" lon="05.987586"><ele>7.5</ele><time>2021-03-19T11:25:41Z</time><name>PT6144</name></trkpt>
<trkpt lat="52.942569" lon="05.987595"><ele>7.5</ele><time>2021-03-19T11:25:43Z</time><name>PT6145</name></trkpt>
<trkpt lat="52.942567" lon="05.987607"><ele>7.3</ele><time>2021-03-19T11:25:44Z</time><name>PT6146</name></trkpt>
<trkpt lat="52.942566" lon="05.987618"><ele>7.3</ele><time>2021-03-19T11:25:45Z</time><name>PT6147</name></trkpt>
<trkpt lat="52.942566" lon="05.987629"><ele>7.3</ele><time>2021-03-19T11:25:46Z</time><name>PT6148</name></trkpt>
<trkpt lat="52.942560" lon="05.987644"><ele>7.2</ele><time>2021-03-19T11:25:47Z</time><name>PT6149</name></trkpt>
<trkpt lat="52.942551" lon="05.987664"><ele>7.2</ele><time>2021-03-19T11:25:47Z</time><name>PT6150</name></trkpt>
<trkpt lat="52.942544" lon="05.987685"><ele>7.2</ele><time>2021-03-19T11:25:49Z</time><name>PT6151</name></trkpt>
<trkpt lat="52.942536" lon="05.987695"><ele>7.3</ele><time>2021-03-19T11:25:50Z</time><name>PT6152</name></trkpt>
<trkpt lat="52.942525" lon="05.987708"><ele>7.3</ele><time>2021-03-19T11:25:50Z</time><name>PT6153</name></trkpt>
<trkpt lat="52.942514" lon="05.987717"><ele>7.6</ele><time>2021-03-19T11:25:52Z</time><name>PT6154</name></trkpt>
<trkpt lat="52.942506" lon="05.987722"><ele>7.7</ele><time>2021-03-19T11:25:53Z</time><name>PT6155</name></trkpt>
<trkpt lat="52.942501" lon="05.987725"><ele>7.7</ele><time>2021-03-19T11:25:53Z</time><name>PT6156</name></trkpt>
<trkpt lat="52.942493" lon="05.987734"><ele>7.7</ele><time>2021-03-19T11:25:55Z</time><name>PT6157</name></trkpt>
<trkpt lat="52.942488" lon="05.987742"><ele>7.7</ele><time>2021-03-19T11:25:56Z</time><name>PT6158</name></trkpt>
<trkpt lat="52.942493" lon="05.987746"><ele>7.6</ele><time>2021-03-19T11:25:56Z</time><name>PT6159</name></trkpt>
<trkpt lat="52.942494" lon="05.987749"><ele>7.3</ele><time>2021-03-19T11:25:58Z</time><name>PT6160</name></trkpt>
<trkpt lat="52.942492" lon="05.987751"><ele>7.3</ele><time>2021-03-19T11:25:59Z</time><name>PT6161</name></trkpt>
<trkpt lat="52.942493" lon="05.987749"><ele>7.3</ele><time>2021-03-19T11:25:59Z</time><name>PT6162</name></trkpt>
<trkpt lat="52.942479" lon="05.987769"><ele>7.2</ele><time>2021-03-19T11:26:01Z</time><name>PT6163</name></trkpt>
<trkpt lat="52.942471" lon="05.987783"><ele>7.2</ele><time>2021-03-19T11:26:02Z</time><name>PT6164</name></trkpt>
<trkpt lat="52.942469" lon="05.987784"><ele>7.2</ele><time>2021-03-19T11:26:02Z</time><name>PT6165</name></trkpt>
<trkpt lat="52.942465" lon="05.987785"><ele>7.2</ele><time>2021-03-19T11:26:04Z</time><name>PT6166</name></trkpt>
<trkpt lat="52.942459" lon="05.987800"><ele>7.2</ele><time>2021-03-19T11:26:05Z</time><name>PT6167</name></trkpt>
<trkpt lat="52.942450" lon="05.987821"><ele>7.2</ele><time>2021-03-19T11:26:05Z</time><name>PT6168</name></trkpt>
<trkpt lat="52.942439" lon="05.987840"><ele>7.3</ele><time>2021-03-19T11:26:07Z</time><name>PT6169</name></trkpt>
<trkpt lat="52.942432" lon="05.987852"><ele>7.4</ele><time>2021-03-19T11:26:08Z</time><name>PT6170</name></trkpt>
<trkpt lat="52.942429" lon="05.987857"><ele>7.6</ele><time>2021-03-19T11:26:08Z</time><name>PT6171</name></trkpt>
<trkpt lat="52.942429" lon="05.987865"><ele>7.6</ele><time>2021-03-19T11:26:10Z</time><name>PT6172</name></trkpt>
<trkpt lat="52.942423" lon="05.987878"><ele>7.6</ele><time>2021-03-19T11:26:11Z</time><name>PT6173</name></trkpt>
<trkpt lat="52.942418" lon="05.987890"><ele>7.5</ele><time>2021-03-19T11:26:11Z</time><name>PT6174</name></trkpt>
<trkpt lat="52.942413" lon="05.987898"><ele>7.5</ele><time>2021-03-19T11:26:13Z</time><name>PT6175</name></trkpt>
<trkpt lat="52.942406" lon="05.987906"><ele>7.6</ele><time>2021-03-19T11:26:14Z</time><name>PT6176</name></trkpt>
<trkpt lat="52.942402" lon="05.987913"><ele>7.6</ele><time>2021-03-19T11:26:15Z</time><name>PT6177</name></trkpt>
<trkpt lat="52.942393" lon="05.987923"><ele>7.7</ele><time>2021-03-19T11:26:16Z</time><name>PT6178</name></trkpt>
<trkpt lat="52.942384" lon="05.987936"><ele>7.7</ele><time>2021-03-19T11:26:17Z</time><name>PT6179</name></trkpt>
<trkpt lat="52.942375" lon="05.987944"><ele>7.7</ele><time>2021-03-19T11:26:17Z</time><name>PT6180</name></trkpt>
<trkpt lat="52.942367" lon="05.987955"><ele>7.4</ele><time>2021-03-19T11:26:19Z</time><name>PT6181</name></trkpt>
<trkpt lat="52.942361" lon="05.987958"><ele>7.5</ele><time>2021-03-19T11:26:20Z</time><name>PT6182</name></trkpt>
<trkpt lat="52.942359" lon="05.987964"><ele>7.4</ele><time>2021-03-19T11:26:20Z</time><name>PT6183</name></trkpt>
<trkpt lat="52.942353" lon="05.987975"><ele>7.6</ele><time>2021-03-19T11:26:22Z</time><name>PT6184</name></trkpt>
<trkpt lat="52.942347" lon="05.987988"><ele>7.6</ele><time>2021-03-19T11:26:23Z</time><name>PT6185</name></trkpt>
<trkpt lat="52.942340" lon="05.988005"><ele>7.6</ele><time>2021-03-19T11:26:23Z</time><name>PT6186</name></trkpt>
<trkpt lat="52.942336" lon="05.988014"><ele>7.7</ele><time>2021-03-19T11:26:25Z</time><name>PT6187</name></trkpt>
<trkpt lat="52.942330" lon="05.988024"><ele>7.8</ele><time>2021-03-19T11:26:26Z</time><name>PT6188</name></trkpt>
<trkpt lat="52.942326" lon="05.988030"><ele>7.7</ele><time>2021-03-19T11:26:26Z</time><name>PT6189</name></trkpt>
<trkpt lat="52.942321" lon="05.988038"><ele>7.8</ele><time>2021-03-19T11:26:28Z</time><name>PT6190</name></trkpt>
<trkpt lat="52.942314" lon="05.988045"><ele>7.5</ele><time>2021-03-19T11:26:29Z</time><name>PT6191</name></trkpt>
<trkpt lat="52.942309" lon="05.988052"><ele>7.5</ele><time>2021-03-19T11:26:30Z</time><name>PT6192</name></trkpt>
<trkpt lat="52.942302" lon="05.988056"><ele>7.5</ele><time>2021-03-19T11:26:31Z</time><name>PT6193</name></trkpt>
<trkpt lat="52.942289" lon="05.988062"><ele>7.4</ele><time>2021-03-19T11:26:32Z</time><name>PT6194</name></trkpt>
<trkpt lat="52.942281" lon="05.988063"><ele>7.3</ele><time>2021-03-19T11:26:32Z</time><name>PT6195</name></trkpt>
<trkpt lat="52.942272" lon="05.988067"><ele>7.3</ele><time>2021-03-19T11:26:34Z</time><name>PT6196</name></trkpt>
<trkpt lat="52.942265" lon="05.988072"><ele>7.3</ele><time>2021-03-19T11:26:35Z</time><name>PT6197</name></trkpt>
<trkpt lat="52.942262" lon="05.988078"><ele>7.3</ele><time>2021-03-19T11:26:36Z</time><name>PT6198</name></trkpt>
<trkpt lat="52.942254" lon="05.988085"><ele>7.4</ele><time>2021-03-19T11:26:37Z</time><name>PT6199</name></trkpt>
<trkpt lat="52.942245" lon="05.988092"><ele>7.7</ele><time>2021-03-19T11:26:38Z</time><name>PT6200</name></trkpt>
<trkpt lat="52.942233" lon="05.988105"><ele>7.7</ele><time>2021-03-19T11:26:38Z</time><name>PT6201</name></trkpt>
<trkpt lat="52.942218" lon="05.988109"><ele>7.9</ele><time>2021-03-19T11:26:40Z</time><name>PT6202</name></trkpt>
<trkpt lat="52.942202" lon="05.988116"><ele>8</ele><time>2021-03-19T11:26:41Z</time><name>PT6203</name></trkpt>
<trkpt lat="52.942196" lon="05.988120"><ele>7.8</ele><time>2021-03-19T11:26:42Z</time><name>PT6204</name></trkpt>
<trkpt lat="52.942190" lon="05.988128"><ele>7.7</ele><time>2021-03-19T11:26:43Z</time><name>PT6205</name></trkpt>
<trkpt lat="52.942179" lon="05.988148"><ele>7.7</ele><time>2021-03-19T11:26:44Z</time><name>PT6206</name></trkpt>
<trkpt lat="52.942170" lon="05.988158"><ele>7.5</ele><time>2021-03-19T11:26:45Z</time><name>PT6207</name></trkpt>
<trkpt lat="52.942162" lon="05.988166"><ele>7.6</ele><time>2021-03-19T11:26:46Z</time><name>PT6208</name></trkpt>
<trkpt lat="52.942155" lon="05.988170"><ele>7.6</ele><time>2021-03-19T11:26:47Z</time><name>PT6209</name></trkpt>
<trkpt lat="52.942147" lon="05.988174"><ele>7.7</ele><time>2021-03-19T11:26:48Z</time><name>PT6210</name></trkpt>
<trkpt lat="52.942138" lon="05.988184"><ele>7.7</ele><time>2021-03-19T11:26:49Z</time><name>PT6211</name></trkpt>
<trkpt lat="52.942130" lon="05.988191"><ele>7.7</ele><time>2021-03-19T11:26:50Z</time><name>PT6212</name></trkpt>
<trkpt lat="52.942124" lon="05.988202"><ele>7.7</ele><time>2021-03-19T11:26:51Z</time><name>PT6213</name></trkpt>
<trkpt lat="52.942120" lon="05.988211"><ele>7.8</ele><time>2021-03-19T11:26:52Z</time><name>PT6214</name></trkpt>
<trkpt lat="52.942115" lon="05.988213"><ele>7.7</ele><time>2021-03-19T11:26:53Z</time><name>PT6215</name></trkpt>
<trkpt lat="52.942107" lon="05.988222"><ele>7.7</ele><time>2021-03-19T11:26:54Z</time><name>PT6216</name></trkpt>
<trkpt lat="52.942097" lon="05.988230"><ele>7.8</ele><time>2021-03-19T11:26:55Z</time><name>PT6217</name></trkpt>
<trkpt lat="52.942090" lon="05.988235"><ele>7.8</ele><time>2021-03-19T11:26:56Z</time><name>PT6218</name></trkpt>
<trkpt lat="52.942084" lon="05.988244"><ele>7.9</ele><time>2021-03-19T11:26:57Z</time><name>PT6219</name></trkpt>
<trkpt lat="52.942072" lon="05.988261"><ele>8</ele><time>2021-03-19T11:26:58Z</time><name>PT6220</name></trkpt>
<trkpt lat="52.942065" lon="05.988275"><ele>8.1</ele><time>2021-03-19T11:26:59Z</time><name>PT6221</name></trkpt>
<trkpt lat="52.942062" lon="05.988281"><ele>8.2</ele><time>2021-03-19T11:27:00Z</time><name>PT6222</name></trkpt>
<trkpt lat="52.942058" lon="05.988293"><ele>8.3</ele><time>2021-03-19T11:27:01Z</time><name>PT6223</name></trkpt>
<trkpt lat="52.942051" lon="05.988305"><ele>8.2</ele><time>2021-03-19T11:27:02Z</time><name>PT6224</name></trkpt>
<trkpt lat="52.942046" lon="05.988319"><ele>8.2</ele><time>2021-03-19T11:27:02Z</time><name>PT6225</name></trkpt>
<trkpt lat="52.942041" lon="05.988330"><ele>8.1</ele><time>2021-03-19T11:27:04Z</time><name>PT6226</name></trkpt>
<trkpt lat="52.942036" lon="05.988345"><ele>8.1</ele><time>2021-03-19T11:27:05Z</time><name>PT6227</name></trkpt>
<trkpt lat="52.942033" lon="05.988356"><ele>7.9</ele><time>2021-03-19T11:27:05Z</time><name>PT6228</name></trkpt>
<trkpt lat="52.942032" lon="05.988365"><ele>8</ele><time>2021-03-19T11:27:07Z</time><name>PT6229</name></trkpt>
<trkpt lat="52.942026" lon="05.988385"><ele>8</ele><time>2021-03-19T11:27:08Z</time><name>PT6230</name></trkpt>
<trkpt lat="52.942022" lon="05.988406"><ele>8</ele><time>2021-03-19T11:27:08Z</time><name>PT6231</name></trkpt>
<trkpt lat="52.942020" lon="05.988426"><ele>8.1</ele><time>2021-03-19T11:27:10Z</time><name>PT6232</name></trkpt>
<trkpt lat="52.942017" lon="05.988438"><ele>8.1</ele><time>2021-03-19T11:27:11Z</time><name>PT6233</name></trkpt>
<trkpt lat="52.942016" lon="05.988446"><ele>8</ele><time>2021-03-19T11:27:11Z</time><name>PT6234</name></trkpt>
<trkpt lat="52.942010" lon="05.988456"><ele>7.9</ele><time>2021-03-19T11:27:13Z</time><name>PT6235</name></trkpt>
<trkpt lat="52.942005" lon="05.988463"><ele>7.7</ele><time>2021-03-19T11:27:14Z</time><name>PT6236</name></trkpt>
<trkpt lat="52.942004" lon="05.988466"><ele>7.7</ele><time>2021-03-19T11:27:14Z</time><name>PT6237</name></trkpt>
<trkpt lat="52.942013" lon="05.988477"><ele>7.7</ele><time>2021-03-19T11:27:23Z</time><name>PT6238</name></trkpt>
<trkpt lat="52.942016" lon="05.988489"><ele>7.6</ele><time>2021-03-19T11:27:25Z</time><name>PT6239</name></trkpt>
<trkpt lat="52.942016" lon="05.988492"><ele>7.4</ele><time>2021-03-19T11:27:26Z</time><name>PT6240</name></trkpt>
<trkpt lat="52.942013" lon="05.988502"><ele>7.3</ele><time>2021-03-19T11:27:26Z</time><name>PT6241</name></trkpt>
<trkpt lat="52.942012" lon="05.988510"><ele>7.5</ele><time>2021-03-19T11:27:28Z</time><name>PT6242</name></trkpt>
<trkpt lat="52.942010" lon="05.988511"><ele>7.4</ele><time>2021-03-19T11:27:29Z</time><name>PT6243</name></trkpt>
<trkpt lat="52.942012" lon="05.988516"><ele>7.7</ele><time>2021-03-19T11:28:02Z</time><name>PT6244</name></trkpt>
<trkpt lat="52.942013" lon="05.988530"><ele>7.6</ele><time>2021-03-19T11:28:04Z</time><name>PT6245</name></trkpt>
<trkpt lat="52.942012" lon="05.988546"><ele>7.7</ele><time>2021-03-19T11:28:05Z</time><name>PT6246</name></trkpt>
<trkpt lat="52.942015" lon="05.988554"><ele>7.5</ele><time>2021-03-19T11:28:05Z</time><name>PT6247</name></trkpt>
<trkpt lat="52.942015" lon="05.988548"><ele>7.4</ele><time>2021-03-19T11:28:07Z</time><name>PT6248</name></trkpt>
<trkpt lat="52.942015" lon="05.988548"><ele>7.5</ele><time>2021-03-19T11:28:08Z</time><name>PT6249</name></trkpt>
<trkpt lat="52.942015" lon="05.988549"><ele>7.7</ele><time>2021-03-19T11:28:09Z</time><name>PT6250</name></trkpt>
<trkpt lat="52.942014" lon="05.988550"><ele>7.6</ele><time>2021-03-19T11:28:11Z</time><name>PT6251</name></trkpt>
<trkpt lat="52.942013" lon="05.988550"><ele>7.6</ele><time>2021-03-19T11:28:11Z</time><name>PT6252</name></trkpt>
<trkpt lat="52.942011" lon="05.988544"><ele>7.5</ele><time>2021-03-19T11:28:13Z</time><name>PT6253</name></trkpt>
<trkpt lat="52.942012" lon="05.988543"><ele>7.5</ele><time>2021-03-19T11:28:14Z</time><name>PT6254</name></trkpt>
<trkpt lat="52.942014" lon="05.988543"><ele>7.4</ele><time>2021-03-19T11:28:15Z</time><name>PT6255</name></trkpt>
<trkpt lat="52.942012" lon="05.988542"><ele>7.5</ele><time>2021-03-19T11:28:19Z</time><name>PT6256</name></trkpt>
<trkpt lat="52.942013" lon="05.988546"><ele>7.6</ele><time>2021-03-19T11:28:20Z</time><name>PT6257</name></trkpt>
<trkpt lat="52.942011" lon="05.988557"><ele>7.7</ele><time>2021-03-19T11:28:21Z</time><name>PT6258</name></trkpt>
<trkpt lat="52.942013" lon="05.988569"><ele>7.8</ele><time>2021-03-19T11:28:22Z</time><name>PT6259</name></trkpt>
<trkpt lat="52.942020" lon="05.988579"><ele>7.8</ele><time>2021-03-19T11:28:23Z</time><name>PT6260</name></trkpt>
<trkpt lat="52.942022" lon="05.988593"><ele>7.7</ele><time>2021-03-19T11:28:24Z</time><name>PT6261</name></trkpt>
<trkpt lat="52.942022" lon="05.988603"><ele>7.7</ele><time>2021-03-19T11:28:25Z</time><name>PT6262</name></trkpt>
<trkpt lat="52.942027" lon="05.988617"><ele>7.7</ele><time>2021-03-19T11:28:26Z</time><name>PT6263</name></trkpt>
<trkpt lat="52.942034" lon="05.988638"><ele>7.7</ele><time>2021-03-19T11:28:27Z</time><name>PT6264</name></trkpt>
<trkpt lat="52.942039" lon="05.988656"><ele>7.8</ele><time>2021-03-19T11:28:28Z</time><name>PT6265</name></trkpt>
<trkpt lat="52.942042" lon="05.988672"><ele>7.9</ele><time>2021-03-19T11:28:29Z</time><name>PT6266</name></trkpt>
<trkpt lat="52.942044" lon="05.988679"><ele>7.9</ele><time>2021-03-19T11:28:30Z</time><name>PT6267</name></trkpt>
<trkpt lat="52.942045" lon="05.988687"><ele>7.9</ele><time>2021-03-19T11:28:31Z</time><name>PT6268</name></trkpt>
<trkpt lat="52.942048" lon="05.988700"><ele>7.9</ele><time>2021-03-19T11:28:32Z</time><name>PT6269</name></trkpt>
<trkpt lat="52.942055" lon="05.988723"><ele>7.7</ele><time>2021-03-19T11:28:33Z</time><name>PT6270</name></trkpt>
<trkpt lat="52.942064" lon="05.988744"><ele>7.9</ele><time>2021-03-19T11:28:34Z</time><name>PT6271</name></trkpt>
<trkpt lat="52.942069" lon="05.988760"><ele>8</ele><time>2021-03-19T11:28:35Z</time><name>PT6272</name></trkpt>
<trkpt lat="52.942074" lon="05.988774"><ele>8.1</ele><time>2021-03-19T11:28:35Z</time><name>PT6273</name></trkpt>
<trkpt lat="52.942069" lon="05.988784"><ele>8.1</ele><time>2021-03-19T11:28:37Z</time><name>PT6274</name></trkpt>
<trkpt lat="52.942070" lon="05.988793"><ele>8.1</ele><time>2021-03-19T11:28:38Z</time><name>PT6275</name></trkpt>
<trkpt lat="52.942070" lon="05.988804"><ele>8</ele><time>2021-03-19T11:28:38Z</time><name>PT6276</name></trkpt>
<trkpt lat="52.942078" lon="05.988824"><ele>7.9</ele><time>2021-03-19T11:28:40Z</time><name>PT6277</name></trkpt>
<trkpt lat="52.942089" lon="05.988844"><ele>7.7</ele><time>2021-03-19T11:28:41Z</time><name>PT6278</name></trkpt>
<trkpt lat="52.942097" lon="05.988865"><ele>7.7</ele><time>2021-03-19T11:28:41Z</time><name>PT6279</name></trkpt>
<trkpt lat="52.942104" lon="05.988885"><ele>7.5</ele><time>2021-03-19T11:28:43Z</time><name>PT6280</name></trkpt>
<trkpt lat="52.942110" lon="05.988903"><ele>7.6</ele><time>2021-03-19T11:28:44Z</time><name>PT6281</name></trkpt>
<trkpt lat="52.942114" lon="05.988912"><ele>7.5</ele><time>2021-03-19T11:28:44Z</time><name>PT6282</name></trkpt>
<trkpt lat="52.942126" lon="05.988920"><ele>7.4</ele><time>2021-03-19T11:28:46Z</time><name>PT6283</name></trkpt>
<trkpt lat="52.942132" lon="05.988926"><ele>7.2</ele><time>2021-03-19T11:28:47Z</time><name>PT6284</name></trkpt>
<trkpt lat="52.942137" lon="05.988933"><ele>7.3</ele><time>2021-03-19T11:28:47Z</time><name>PT6285</name></trkpt>
<trkpt lat="52.942141" lon="05.988946"><ele>7.3</ele><time>2021-03-19T11:28:49Z</time><name>PT6286</name></trkpt>
<trkpt lat="52.942154" lon="05.988974"><ele>7.5</ele><time>2021-03-19T11:28:50Z</time><name>PT6287</name></trkpt>
<trkpt lat="52.942161" lon="05.989004"><ele>7.6</ele><time>2021-03-19T11:28:50Z</time><name>PT6288</name></trkpt>
<trkpt lat="52.942165" lon="05.989024"><ele>7.7</ele><time>2021-03-19T11:28:52Z</time><name>PT6289</name></trkpt>
<trkpt lat="52.942168" lon="05.989039"><ele>7.2</ele><time>2021-03-19T11:28:53Z</time><name>PT6290</name></trkpt>
<trkpt lat="52.942172" lon="05.989048"><ele>7.7</ele><time>2021-03-19T11:28:53Z</time><name>PT6291</name></trkpt>
<trkpt lat="52.942173" lon="05.989060"><ele>7.3</ele><time>2021-03-19T11:28:55Z</time><name>PT6292</name></trkpt>
<trkpt lat="52.942181" lon="05.989067"><ele>7</ele><time>2021-03-19T11:28:56Z</time><name>PT6293</name></trkpt>
<trkpt lat="52.942188" lon="05.989077"><ele>7.5</ele><time>2021-03-19T11:28:56Z</time><name>PT6294</name></trkpt>
<trkpt lat="52.942193" lon="05.989089"><ele>8.1</ele><time>2021-03-19T11:28:58Z</time><name>PT6295</name></trkpt>
<trkpt lat="52.942199" lon="05.989101"><ele>8.5</ele><time>2021-03-19T11:28:59Z</time><name>PT6296</name></trkpt>
<trkpt lat="52.942202" lon="05.989112"><ele>8.9</ele><time>2021-03-19T11:28:59Z</time><name>PT6297</name></trkpt>
<trkpt lat="52.942206" lon="05.989120"><ele>9</ele><time>2021-03-19T11:29:01Z</time><name>PT6298</name></trkpt>
<trkpt lat="52.942207" lon="05.989125"><ele>8.8</ele><time>2021-03-19T11:29:02Z</time><name>PT6299</name></trkpt>
<trkpt lat="52.942207" lon="05.989126"><ele>8.6</ele><time>2021-03-19T11:29:02Z</time><name>PT6300</name></trkpt>
<trkpt lat="52.942207" lon="05.989130"><ele>8.1</ele><time>2021-03-19T11:29:04Z</time><name>PT6301</name></trkpt>
<trkpt lat="52.942209" lon="05.989143"><ele>7.9</ele><time>2021-03-19T11:29:05Z</time><name>PT6302</name></trkpt>
<trkpt lat="52.942212" lon="05.989159"><ele>7.9</ele><time>2021-03-19T11:29:05Z</time><name>PT6303</name></trkpt>
<trkpt lat="52.942217" lon="05.989174"><ele>7.7</ele><time>2021-03-19T11:29:07Z</time><name>PT6304</name></trkpt>
<trkpt lat="52.942219" lon="05.989185"><ele>7.6</ele><time>2021-03-19T11:29:08Z</time><name>PT6305</name></trkpt>
<trkpt lat="52.942227" lon="05.989199"><ele>7.7</ele><time>2021-03-19T11:29:08Z</time><name>PT6306</name></trkpt>
<trkpt lat="52.942237" lon="05.989218"><ele>7.5</ele><time>2021-03-19T11:29:10Z</time><name>PT6307</name></trkpt>
<trkpt lat="52.942247" lon="05.989245"><ele>7.6</ele><time>2021-03-19T11:29:11Z</time><name>PT6308</name></trkpt>
<trkpt lat="52.942256" lon="05.989272"><ele>7.7</ele><time>2021-03-19T11:29:11Z</time><name>PT6309</name></trkpt>
<trkpt lat="52.942262" lon="05.989293"><ele>7.8</ele><time>2021-03-19T11:29:13Z</time><name>PT6310</name></trkpt>
<trkpt lat="52.942265" lon="05.989310"><ele>8</ele><time>2021-03-19T11:29:14Z</time><name>PT6311</name></trkpt>
<trkpt lat="52.942268" lon="05.989319"><ele>8.1</ele><time>2021-03-19T11:29:14Z</time><name>PT6312</name></trkpt>
<trkpt lat="52.942269" lon="05.989328"><ele>8.1</ele><time>2021-03-19T11:29:16Z</time><name>PT6313</name></trkpt>
<trkpt lat="52.942269" lon="05.989335"><ele>8.1</ele><time>2021-03-19T11:29:17Z</time><name>PT6314</name></trkpt>
<trkpt lat="52.942272" lon="05.989344"><ele>8.1</ele><time>2021-03-19T11:29:17Z</time><name>PT6315</name></trkpt>
<trkpt lat="52.942279" lon="05.989358"><ele>8</ele><time>2021-03-19T11:29:19Z</time><name>PT6316</name></trkpt>
<trkpt lat="52.942291" lon="05.989377"><ele>8</ele><time>2021-03-19T11:29:20Z</time><name>PT6317</name></trkpt>
<trkpt lat="52.942300" lon="05.989390"><ele>7.9</ele><time>2021-03-19T11:29:20Z</time><name>PT6318</name></trkpt>
<trkpt lat="52.942304" lon="05.989401"><ele>7.8</ele><time>2021-03-19T11:29:22Z</time><name>PT6319</name></trkpt>
<trkpt lat="52.942311" lon="05.989416"><ele>7.7</ele><time>2021-03-19T11:29:23Z</time><name>PT6320</name></trkpt>
<trkpt lat="52.942315" lon="05.989437"><ele>7.7</ele><time>2021-03-19T11:29:23Z</time><name>PT6321</name></trkpt>
<trkpt lat="52.942317" lon="05.989451"><ele>7.7</ele><time>2021-03-19T11:29:25Z</time><name>PT6322</name></trkpt>
<trkpt lat="52.942322" lon="05.989460"><ele>7.7</ele><time>2021-03-19T11:29:26Z</time><name>PT6323</name></trkpt>
<trkpt lat="52.942325" lon="05.989469"><ele>7.7</ele><time>2021-03-19T11:29:26Z</time><name>PT6324</name></trkpt>
<trkpt lat="52.942328" lon="05.989486"><ele>7.8</ele><time>2021-03-19T11:29:28Z</time><name>PT6325</name></trkpt>
<trkpt lat="52.942334" lon="05.989510"><ele>7.9</ele><time>2021-03-19T11:29:29Z</time><name>PT6326</name></trkpt>
<trkpt lat="52.942342" lon="05.989528"><ele>8</ele><time>2021-03-19T11:29:29Z</time><name>PT6327</name></trkpt>
<trkpt lat="52.942348" lon="05.989541"><ele>8.1</ele><time>2021-03-19T11:29:31Z</time><name>PT6328</name></trkpt>
<trkpt lat="52.942351" lon="05.989554"><ele>8</ele><time>2021-03-19T11:29:32Z</time><name>PT6329</name></trkpt>
<trkpt lat="52.942355" lon="05.989561"><ele>8.1</ele><time>2021-03-19T11:29:32Z</time><name>PT6330</name></trkpt>
<trkpt lat="52.942355" lon="05.989565"><ele>7.9</ele><time>2021-03-19T11:29:34Z</time><name>PT6331</name></trkpt>
<trkpt lat="52.942356" lon="05.989567"><ele>7.8</ele><time>2021-03-19T11:29:35Z</time><name>PT6332</name></trkpt>
<trkpt lat="52.942356" lon="05.989567"><ele>7.8</ele><time>2021-03-19T11:29:35Z</time><name>PT6333</name></trkpt>
<trkpt lat="52.942359" lon="05.989572"><ele>7.8</ele><time>2021-03-19T11:29:43Z</time><name>PT6334</name></trkpt>
<trkpt lat="52.942362" lon="05.989568"><ele>7.7</ele><time>2021-03-19T11:29:44Z</time><name>PT6335</name></trkpt>
<trkpt lat="52.942363" lon="05.989567"><ele>7.7</ele><time>2021-03-19T11:29:44Z</time><name>PT6336</name></trkpt>
<trkpt lat="52.942361" lon="05.989565"><ele>7.4</ele><time>2021-03-19T11:29:46Z</time><name>PT6337</name></trkpt>
<trkpt lat="52.942361" lon="05.989566"><ele>7.3</ele><time>2021-03-19T11:29:47Z</time><name>PT6338</name></trkpt>
<trkpt lat="52.942362" lon="05.989564"><ele>7.6</ele><time>2021-03-19T11:29:47Z</time><name>PT6339</name></trkpt>
<trkpt lat="52.942362" lon="05.989560"><ele>7.7</ele><time>2021-03-19T11:29:49Z</time><name>PT6340</name></trkpt>
<trkpt lat="52.942364" lon="05.989561"><ele>7.5</ele><time>2021-03-19T11:29:55Z</time><name>PT6341</name></trkpt>
<trkpt lat="52.942368" lon="05.989573"><ele>7.4</ele><time>2021-03-19T11:29:56Z</time><name>PT6342</name></trkpt>
<trkpt lat="52.942374" lon="05.989585"><ele>7.5</ele><time>2021-03-19T11:29:56Z</time><name>PT6343</name></trkpt>
<trkpt lat="52.942377" lon="05.989598"><ele>7.5</ele><time>2021-03-19T11:29:58Z</time><name>PT6344</name></trkpt>
<trkpt lat="52.942383" lon="05.989603"><ele>7.3</ele><time>2021-03-19T11:29:59Z</time><name>PT6345</name></trkpt>
<trkpt lat="52.942386" lon="05.989611"><ele>7.3</ele><time>2021-03-19T11:29:59Z</time><name>PT6346</name></trkpt>
<trkpt lat="52.942388" lon="05.989621"><ele>7.4</ele><time>2021-03-19T11:30:01Z</time><name>PT6347</name></trkpt>
<trkpt lat="52.942392" lon="05.989629"><ele>7.7</ele><time>2021-03-19T11:30:02Z</time><name>PT6348</name></trkpt>
<trkpt lat="52.942395" lon="05.989639"><ele>7.7</ele><time>2021-03-19T11:30:02Z</time><name>PT6349</name></trkpt>
<trkpt lat="52.942400" lon="05.989650"><ele>7.8</ele><time>2021-03-19T11:30:04Z</time><name>PT6350</name></trkpt>
<trkpt lat="52.942405" lon="05.989661"><ele>7.9</ele><time>2021-03-19T11:30:05Z</time><name>PT6351</name></trkpt>
<trkpt lat="52.942408" lon="05.989676"><ele>7.8</ele><time>2021-03-19T11:30:05Z</time><name>PT6352</name></trkpt>
<trkpt lat="52.942411" lon="05.989683"><ele>7.7</ele><time>2021-03-19T11:30:07Z</time><name>PT6353</name></trkpt>
<trkpt lat="52.942412" lon="05.989691"><ele>7.8</ele><time>2021-03-19T11:30:08Z</time><name>PT6354</name></trkpt>
<trkpt lat="52.942415" lon="05.989699"><ele>7.9</ele><time>2021-03-19T11:30:08Z</time><name>PT6355</name></trkpt>
<trkpt lat="52.942417" lon="05.989701"><ele>7.7</ele><time>2021-03-19T11:30:10Z</time><name>PT6356</name></trkpt>
<trkpt lat="52.942418" lon="05.989703"><ele>7.7</ele><time>2021-03-19T11:30:11Z</time><name>PT6357</name></trkpt>
<trkpt lat="52.942420" lon="05.989708"><ele>7.7</ele><time>2021-03-19T11:30:11Z</time><name>PT6358</name></trkpt>
<trkpt lat="52.942420" lon="05.989714"><ele>7.7</ele><time>2021-03-19T11:30:13Z</time><name>PT6359</name></trkpt>
<trkpt lat="52.942424" lon="05.989728"><ele>7.7</ele><time>2021-03-19T11:32:13Z</time><name>PT6360</name></trkpt>
<trkpt lat="52.942429" lon="05.989738"><ele>7.9</ele><time>2021-03-19T11:32:15Z</time><name>PT6361</name></trkpt>
<trkpt lat="52.942433" lon="05.989745"><ele>7.9</ele><time>2021-03-19T11:32:16Z</time><name>PT6362</name></trkpt>
<trkpt lat="52.942436" lon="05.989752"><ele>7.8</ele><time>2021-03-19T11:32:16Z</time><name>PT6363</name></trkpt>
<trkpt lat="52.942440" lon="05.989757"><ele>7.8</ele><time>2021-03-19T11:32:18Z</time><name>PT6364</name></trkpt>
<trkpt lat="52.942442" lon="05.989762"><ele>7.6</ele><time>2021-03-19T11:32:28Z</time><name>PT6365</name></trkpt>
<trkpt lat="52.942446" lon="05.989774"><ele>7.5</ele><time>2021-03-19T11:32:28Z</time><name>PT6366</name></trkpt>
<trkpt lat="52.942450" lon="05.989797"><ele>7.4</ele><time>2021-03-19T11:32:30Z</time><name>PT6367</name></trkpt>
<trkpt lat="52.942452" lon="05.989803"><ele>7.4</ele><time>2021-03-19T11:32:31Z</time><name>PT6368</name></trkpt>
<trkpt lat="52.942457" lon="05.989826"><ele>7.5</ele><time>2021-03-19T11:32:31Z</time><name>PT6369</name></trkpt>
<trkpt lat="52.942459" lon="05.989832"><ele>7.7</ele><time>2021-03-19T11:32:33Z</time><name>PT6370</name></trkpt>
<trkpt lat="52.942456" lon="05.989841"><ele>7.7</ele><time>2021-03-19T11:32:34Z</time><name>PT6371</name></trkpt>
<trkpt lat="52.942454" lon="05.989850"><ele>7.5</ele><time>2021-03-19T11:32:34Z</time><name>PT6372</name></trkpt>
<trkpt lat="52.942460" lon="05.989855"><ele>7.4</ele><time>2021-03-19T11:32:36Z</time><name>PT6373</name></trkpt>
<trkpt lat="52.942467" lon="05.989854"><ele>7.3</ele><time>2021-03-19T11:32:43Z</time><name>PT6374</name></trkpt>
<trkpt lat="52.942468" lon="05.989854"><ele>7.7</ele><time>2021-03-19T11:32:43Z</time><name>PT6375</name></trkpt>
<trkpt lat="52.942470" lon="05.989856"><ele>7.8</ele><time>2021-03-19T11:32:45Z</time><name>PT6376</name></trkpt>
<trkpt lat="52.942470" lon="05.989859"><ele>8.1</ele><time>2021-03-19T11:32:46Z</time><name>PT6377</name></trkpt>
<trkpt lat="52.942469" lon="05.989867"><ele>7.9</ele><time>2021-03-19T11:33:07Z</time><name>PT6378</name></trkpt>
<trkpt lat="52.942469" lon="05.989872"><ele>7.8</ele><time>2021-03-19T11:33:09Z</time><name>PT6379</name></trkpt>
<trkpt lat="52.942473" lon="05.989884"><ele>7.8</ele><time>2021-03-19T11:33:10Z</time><name>PT6380</name></trkpt>
<trkpt lat="52.942476" lon="05.989893"><ele>7.7</ele><time>2021-03-19T11:33:10Z</time><name>PT6381</name></trkpt>
<trkpt lat="52.942474" lon="05.989901"><ele>7.6</ele><time>2021-03-19T11:33:12Z</time><name>PT6382</name></trkpt>
<trkpt lat="52.942472" lon="05.989902"><ele>7.7</ele><time>2021-03-19T11:33:13Z</time><name>PT6383</name></trkpt>
<trkpt lat="52.942473" lon="05.989904"><ele>7.7</ele><time>2021-03-19T11:33:13Z</time><name>PT6384</name></trkpt>
<trkpt lat="52.942474" lon="05.989904"><ele>7.7</ele><time>2021-03-19T11:33:15Z</time><name>PT6385</name></trkpt>
<trkpt lat="52.942478" lon="05.989911"><ele>7.6</ele><time>2021-03-19T11:34:13Z</time><name>PT6386</name></trkpt>
<trkpt lat="52.942484" lon="05.989926"><ele>7.6</ele><time>2021-03-19T11:34:13Z</time><name>PT6387</name></trkpt>
<trkpt lat="52.942491" lon="05.989939"><ele>7.5</ele><time>2021-03-19T11:34:15Z</time><name>PT6388</name></trkpt>
<trkpt lat="52.942496" lon="05.989954"><ele>7.6</ele><time>2021-03-19T11:34:16Z</time><name>PT6389</name></trkpt>
<trkpt lat="52.942502" lon="05.989972"><ele>7.6</ele><time>2021-03-19T11:34:16Z</time><name>PT6390</name></trkpt>
<trkpt lat="52.942503" lon="05.989983"><ele>7.7</ele><time>2021-03-19T11:34:18Z</time><name>PT6391</name></trkpt>
<trkpt lat="52.942504" lon="05.989991"><ele>8</ele><time>2021-03-19T11:34:19Z</time><name>PT6392</name></trkpt>
<trkpt lat="52.942504" lon="05.989994"><ele>8.1</ele><time>2021-03-19T11:34:19Z</time><name>PT6393</name></trkpt>
<trkpt lat="52.942505" lon="05.989997"><ele>8.1</ele><time>2021-03-19T11:34:21Z</time><name>PT6394</name></trkpt>
<trkpt lat="52.942507" lon="05.989999"><ele>8</ele><time>2021-03-19T11:34:22Z</time><name>PT6395</name></trkpt>
<trkpt lat="52.942508" lon="05.990003"><ele>8</ele><time>2021-03-19T11:34:22Z</time><name>PT6396</name></trkpt>
<trkpt lat="52.942509" lon="05.990006"><ele>7.9</ele><time>2021-03-19T11:34:24Z</time><name>PT6397</name></trkpt>
<trkpt lat="52.942511" lon="05.990010"><ele>8</ele><time>2021-03-19T11:34:25Z</time><name>PT6398</name></trkpt>
<trkpt lat="52.942514" lon="05.990030"><ele>7.7</ele><time>2021-03-19T11:34:36Z</time><name>PT6399</name></trkpt>
<trkpt lat="52.942521" lon="05.990045"><ele>7.5</ele><time>2021-03-19T11:34:37Z</time><name>PT6400</name></trkpt>
<trkpt lat="52.942527" lon="05.990058"><ele>7.4</ele><time>2021-03-19T11:34:37Z</time><name>PT6401</name></trkpt>
<trkpt lat="52.942531" lon="05.990071"><ele>7.4</ele><time>2021-03-19T11:34:39Z</time><name>PT6402</name></trkpt>
<trkpt lat="52.942536" lon="05.990079"><ele>7.5</ele><time>2021-03-19T11:34:40Z</time><name>PT6403</name></trkpt>
<trkpt lat="52.942540" lon="05.990087"><ele>7.5</ele><time>2021-03-19T11:34:40Z</time><name>PT6404</name></trkpt>
<trkpt lat="52.942541" lon="05.990096"><ele>7.7</ele><time>2021-03-19T11:34:42Z</time><name>PT6405</name></trkpt>
<trkpt lat="52.942543" lon="05.990109"><ele>7.6</ele><time>2021-03-19T11:34:43Z</time><name>PT6406</name></trkpt>
<trkpt lat="52.942547" lon="05.990123"><ele>7.5</ele><time>2021-03-19T11:34:43Z</time><name>PT6407</name></trkpt>
<trkpt lat="52.942553" lon="05.990133"><ele>7.4</ele><time>2021-03-19T11:34:45Z</time><name>PT6408</name></trkpt>
<trkpt lat="52.942557" lon="05.990147"><ele>7.2</ele><time>2021-03-19T11:34:46Z</time><name>PT6409</name></trkpt>
<trkpt lat="52.942558" lon="05.990163"><ele>7.2</ele><time>2021-03-19T11:34:46Z</time><name>PT6410</name></trkpt>
<trkpt lat="52.942560" lon="05.990176"><ele>7</ele><time>2021-03-19T11:34:48Z</time><name>PT6411</name></trkpt>
<trkpt lat="52.942561" lon="05.990187"><ele>6.9</ele><time>2021-03-19T11:34:49Z</time><name>PT6412</name></trkpt>
<trkpt lat="52.942563" lon="05.990202"><ele>7</ele><time>2021-03-19T11:34:49Z</time><name>PT6413</name></trkpt>
<trkpt lat="52.942569" lon="05.990218"><ele>7.2</ele><time>2021-03-19T11:34:51Z</time><name>PT6414</name></trkpt>
<trkpt lat="52.942572" lon="05.990231"><ele>7.2</ele><time>2021-03-19T11:34:52Z</time><name>PT6415</name></trkpt>
<trkpt lat="52.942573" lon="05.990246"><ele>7.2</ele><time>2021-03-19T11:34:52Z</time><name>PT6416</name></trkpt>
<trkpt lat="52.942577" lon="05.990259"><ele>7.1</ele><time>2021-03-19T11:34:54Z</time><name>PT6417</name></trkpt>
<trkpt lat="52.942583" lon="05.990271"><ele>7</ele><time>2021-03-19T11:34:55Z</time><name>PT6418</name></trkpt>
<trkpt lat="52.942591" lon="05.990281"><ele>7.2</ele><time>2021-03-19T11:34:55Z</time><name>PT6419</name></trkpt>
<trkpt lat="52.942593" lon="05.990295"><ele>7.2</ele><time>2021-03-19T11:34:57Z</time><name>PT6420</name></trkpt>
<trkpt lat="52.942590" lon="05.990303"><ele>7.6</ele><time>2021-03-19T11:34:58Z</time><name>PT6421</name></trkpt>
<trkpt lat="52.942589" lon="05.990314"><ele>7.8</ele><time>2021-03-19T11:34:58Z</time><name>PT6422</name></trkpt>
<trkpt lat="52.942594" lon="05.990327"><ele>7.9</ele><time>2021-03-19T11:35:00Z</time><name>PT6423</name></trkpt>
<trkpt lat="52.942599" lon="05.990340"><ele>8.1</ele><time>2021-03-19T11:35:01Z</time><name>PT6424</name></trkpt>
<trkpt lat="52.942604" lon="05.990357"><ele>8.1</ele><time>2021-03-19T11:35:01Z</time><name>PT6425</name></trkpt>
<trkpt lat="52.942607" lon="05.990370"><ele>8</ele><time>2021-03-19T11:35:03Z</time><name>PT6426</name></trkpt>
<trkpt lat="52.942613" lon="05.990385"><ele>7.8</ele><time>2021-03-19T11:35:04Z</time><name>PT6427</name></trkpt>
<trkpt lat="52.942615" lon="05.990403"><ele>7.8</ele><time>2021-03-19T11:35:04Z</time><name>PT6428</name></trkpt>
<trkpt lat="52.942615" lon="05.990419"><ele>7.8</ele><time>2021-03-19T11:35:06Z</time><name>PT6429</name></trkpt>
<trkpt lat="52.942617" lon="05.990434"><ele>7.8</ele><time>2021-03-19T11:35:07Z</time><name>PT6430</name></trkpt>
<trkpt lat="52.942623" lon="05.990448"><ele>7.9</ele><time>2021-03-19T11:35:07Z</time><name>PT6431</name></trkpt>
<trkpt lat="52.942626" lon="05.990463"><ele>7.9</ele><time>2021-03-19T11:35:09Z</time><name>PT6432</name></trkpt>
<trkpt lat="52.942634" lon="05.990478"><ele>8.1</ele><time>2021-03-19T11:35:10Z</time><name>PT6433</name></trkpt>
<trkpt lat="52.942638" lon="05.990493"><ele>8.2</ele><time>2021-03-19T11:35:10Z</time><name>PT6434</name></trkpt>
<trkpt lat="52.942645" lon="05.990508"><ele>8.2</ele><time>2021-03-19T11:35:12Z</time><name>PT6435</name></trkpt>
<trkpt lat="52.942650" lon="05.990525"><ele>8.3</ele><time>2021-03-19T11:35:13Z</time><name>PT6436</name></trkpt>
<trkpt lat="52.942652" lon="05.990541"><ele>8.3</ele><time>2021-03-19T11:35:13Z</time><name>PT6437</name></trkpt>
<trkpt lat="52.942662" lon="05.990557"><ele>8.2</ele><time>2021-03-19T11:35:15Z</time><name>PT6438</name></trkpt>
<trkpt lat="52.942667" lon="05.990572"><ele>8.5</ele><time>2021-03-19T11:35:16Z</time><name>PT6439</name></trkpt>
<trkpt lat="52.942675" lon="05.990586"><ele>8.5</ele><time>2021-03-19T11:35:16Z</time><name>PT6440</name></trkpt>
<trkpt lat="52.942679" lon="05.990601"><ele>8.5</ele><time>2021-03-19T11:35:18Z</time><name>PT6441</name></trkpt>
<trkpt lat="52.942682" lon="05.990616"><ele>8.4</ele><time>2021-03-19T11:35:19Z</time><name>PT6442</name></trkpt>
<trkpt lat="52.942687" lon="05.990631"><ele>8.3</ele><time>2021-03-19T11:35:19Z</time><name>PT6443</name></trkpt>
<trkpt lat="52.942695" lon="05.990645"><ele>8</ele><time>2021-03-19T11:35:21Z</time><name>PT6444</name></trkpt>
<trkpt lat="52.942702" lon="05.990661"><ele>8</ele><time>2021-03-19T11:35:22Z</time><name>PT6445</name></trkpt>
<trkpt lat="52.942706" lon="05.990675"><ele>8.1</ele><time>2021-03-19T11:35:22Z</time><name>PT6446</name></trkpt>
<trkpt lat="52.942707" lon="05.990690"><ele>7.9</ele><time>2021-03-19T11:35:24Z</time><name>PT6447</name></trkpt>
<trkpt lat="52.942707" lon="05.990703"><ele>7.9</ele><time>2021-03-19T11:35:25Z</time><name>PT6448</name></trkpt>
<trkpt lat="52.942712" lon="05.990715"><ele>7.8</ele><time>2021-03-19T11:35:25Z</time><name>PT6449</name></trkpt>
<trkpt lat="52.942719" lon="05.990724"><ele>7.9</ele><time>2021-03-19T11:35:27Z</time><name>PT6450</name></trkpt>
<trkpt lat="52.942723" lon="05.990734"><ele>8.1</ele><time>2021-03-19T11:35:28Z</time><name>PT6451</name></trkpt>
<trkpt lat="52.942734" lon="05.990742"><ele>8.1</ele><time>2021-03-19T11:35:28Z</time><name>PT6452</name></trkpt>
<trkpt lat="52.942743" lon="05.990747"><ele>8.1</ele><time>2021-03-19T11:35:30Z</time><name>PT6453</name></trkpt>
<trkpt lat="52.942759" lon="05.990749"><ele>8.1</ele><time>2021-03-19T11:35:31Z</time><name>PT6454</name></trkpt>
<trkpt lat="52.942768" lon="05.990755"><ele>8</ele><time>2021-03-19T11:35:31Z</time><name>PT6455</name></trkpt>
<trkpt lat="52.942779" lon="05.990761"><ele>7.9</ele><time>2021-03-19T11:35:33Z</time><name>PT6456</name></trkpt>
<trkpt lat="52.942790" lon="05.990771"><ele>8.1</ele><time>2021-03-19T11:35:34Z</time><name>PT6457</name></trkpt>
<trkpt lat="52.942804" lon="05.990778"><ele>8.1</ele><time>2021-03-19T11:35:34Z</time><name>PT6458</name></trkpt>
<trkpt lat="52.942814" lon="05.990784"><ele>8.1</ele><time>2021-03-19T11:35:36Z</time><name>PT6459</name></trkpt>
<trkpt lat="52.942825" lon="05.990785"><ele>8.3</ele><time>2021-03-19T11:35:37Z</time><name>PT6460</name></trkpt>
<trkpt lat="52.942833" lon="05.990790"><ele>8.2</ele><time>2021-03-19T11:35:37Z</time><name>PT6461</name></trkpt>
<trkpt lat="52.942838" lon="05.990798"><ele>8.1</ele><time>2021-03-19T11:35:39Z</time><name>PT6462</name></trkpt>
<trkpt lat="52.942840" lon="05.990807"><ele>8</ele><time>2021-03-19T11:35:40Z</time><name>PT6463</name></trkpt>
<trkpt lat="52.942845" lon="05.990816"><ele>7.9</ele><time>2021-03-19T11:35:40Z</time><name>PT6464</name></trkpt>
<trkpt lat="52.942849" lon="05.990824"><ele>7.9</ele><time>2021-03-19T11:35:42Z</time><name>PT6465</name></trkpt>
<trkpt lat="52.942857" lon="05.990826"><ele>7.7</ele><time>2021-03-19T11:35:43Z</time><name>PT6466</name></trkpt>
<trkpt lat="52.942847" lon="05.990832"><ele>7.9</ele><time>2021-03-19T11:35:43Z</time><name>PT6467</name></trkpt>
<trkpt lat="52.942847" lon="05.990837"><ele>8</ele><time>2021-03-19T11:35:45Z</time><name>PT6468</name></trkpt>
<trkpt lat="52.942850" lon="05.990843"><ele>8</ele><time>2021-03-19T11:35:46Z</time><name>PT6469</name></trkpt>
<trkpt lat="52.942852" lon="05.990853"><ele>8.2</ele><time>2021-03-19T11:35:46Z</time><name>PT6470</name></trkpt>
<trkpt lat="52.942854" lon="05.990863"><ele>8.4</ele><time>2021-03-19T11:35:48Z</time><name>PT6471</name></trkpt>
<trkpt lat="52.942863" lon="05.990870"><ele>8.5</ele><time>2021-03-19T11:35:49Z</time><name>PT6472</name></trkpt>
<trkpt lat="52.942869" lon="05.990877"><ele>8.6</ele><time>2021-03-19T11:35:49Z</time><name>PT6473</name></trkpt>
<trkpt lat="52.942879" lon="05.990884"><ele>8.6</ele><time>2021-03-19T11:35:51Z</time><name>PT6474</name></trkpt>
<trkpt lat="52.942884" lon="05.990893"><ele>8.5</ele><time>2021-03-19T11:35:52Z</time><name>PT6475</name></trkpt>
<trkpt lat="52.942884" lon="05.990907"><ele>8.5</ele><time>2021-03-19T11:35:52Z</time><name>PT6476</name></trkpt>
<trkpt lat="52.942882" lon="05.990916"><ele>8.5</ele><time>2021-03-19T11:35:54Z</time><name>PT6477</name></trkpt>
<trkpt lat="52.942880" lon="05.990924"><ele>8.5</ele><time>2021-03-19T11:35:55Z</time><name>PT6478</name></trkpt>
<trkpt lat="52.942884" lon="05.990936"><ele>8.5</ele><time>2021-03-19T11:35:55Z</time><name>PT6479</name></trkpt>
<trkpt lat="52.942889" lon="05.990947"><ele>8.5</ele><time>2021-03-19T11:35:57Z</time><name>PT6480</name></trkpt>
<trkpt lat="52.942893" lon="05.990959"><ele>8.5</ele><time>2021-03-19T11:35:58Z</time><name>PT6481</name></trkpt>
<trkpt lat="52.942895" lon="05.990974"><ele>8.6</ele><time>2021-03-19T11:35:58Z</time><name>PT6482</name></trkpt>
<trkpt lat="52.942892" lon="05.990989"><ele>8.6</ele><time>2021-03-19T11:36:00Z</time><name>PT6483</name></trkpt>
<trkpt lat="52.942901" lon="05.991003"><ele>8.7</ele><time>2021-03-19T11:36:01Z</time><name>PT6484</name></trkpt>
<trkpt lat="52.942903" lon="05.991017"><ele>8.7</ele><time>2021-03-19T11:36:01Z</time><name>PT6485</name></trkpt>
<trkpt lat="52.942904" lon="05.991030"><ele>8.7</ele><time>2021-03-19T11:36:03Z</time><name>PT6486</name></trkpt>
<trkpt lat="52.942901" lon="05.991043"><ele>8.6</ele><time>2021-03-19T11:36:04Z</time><name>PT6487</name></trkpt>
<trkpt lat="52.942904" lon="05.991057"><ele>8.5</ele><time>2021-03-19T11:36:04Z</time><name>PT6488</name></trkpt>
<trkpt lat="52.942906" lon="05.991067"><ele>8.5</ele><time>2021-03-19T11:36:06Z</time><name>PT6489</name></trkpt>
<trkpt lat="52.942910" lon="05.991079"><ele>8.5</ele><time>2021-03-19T11:36:07Z</time><name>PT6490</name></trkpt>
<trkpt lat="52.942909" lon="05.991094"><ele>8.6</ele><time>2021-03-19T11:36:07Z</time><name>PT6491</name></trkpt>
<trkpt lat="52.942915" lon="05.991113"><ele>8.6</ele><time>2021-03-19T11:36:09Z</time><name>PT6492</name></trkpt>
<trkpt lat="52.942919" lon="05.991127"><ele>8.9</ele><time>2021-03-19T11:36:09Z</time><name>PT6493</name></trkpt>
<trkpt lat="52.942925" lon="05.991131"><ele>9.1</ele><time>2021-03-19T11:36:11Z</time><name>PT6494</name></trkpt>
<trkpt lat="52.942928" lon="05.991139"><ele>9.1</ele><time>2021-03-19T11:36:12Z</time><name>PT6495</name></trkpt>
<trkpt lat="52.942930" lon="05.991147"><ele>9</ele><time>2021-03-19T11:36:12Z</time><name>PT6496</name></trkpt>
<trkpt lat="52.942940" lon="05.991156"><ele>8.8</ele><time>2021-03-19T11:36:14Z</time><name>PT6497</name></trkpt>
<trkpt lat="52.942936" lon="05.991176"><ele>8.7</ele><time>2021-03-19T11:36:14Z</time><name>PT6498</name></trkpt>
<trkpt lat="52.942930" lon="05.991191"><ele>8.5</ele><time>2021-03-19T11:36:16Z</time><name>PT6499</name></trkpt>
<trkpt lat="52.942934" lon="05.991205"><ele>8.4</ele><time>2021-03-19T11:36:17Z</time><name>PT6500</name></trkpt>
<trkpt lat="52.942943" lon="05.991219"><ele>8.2</ele><time>2021-03-19T11:36:17Z</time><name>PT6501</name></trkpt>
<trkpt lat="52.942944" lon="05.991229"><ele>8.3</ele><time>2021-03-19T11:36:19Z</time><name>PT6502</name></trkpt>
<trkpt lat="52.942953" lon="05.991241"><ele>8.6</ele><time>2021-03-19T11:36:20Z</time><name>PT6503</name></trkpt>
<trkpt lat="52.942963" lon="05.991257"><ele>8.5</ele><time>2021-03-19T11:36:20Z</time><name>PT6504</name></trkpt>
<trkpt lat="52.942967" lon="05.991270"><ele>8.6</ele><time>2021-03-19T11:36:22Z</time><name>PT6505</name></trkpt>
<trkpt lat="52.942961" lon="05.991282"><ele>8.5</ele><time>2021-03-19T11:36:23Z</time><name>PT6506</name></trkpt>
<trkpt lat="52.942961" lon="05.991294"><ele>8.5</ele><time>2021-03-19T11:36:23Z</time><name>PT6507</name></trkpt>
<trkpt lat="52.942968" lon="05.991308"><ele>8.6</ele><time>2021-03-19T11:36:25Z</time><name>PT6508</name></trkpt>
<trkpt lat="52.942968" lon="05.991323"><ele>8.6</ele><time>2021-03-19T11:36:26Z</time><name>PT6509</name></trkpt>
<trkpt lat="52.942985" lon="05.991342"><ele>8.7</ele><time>2021-03-19T11:36:26Z</time><name>PT6510</name></trkpt>
<trkpt lat="52.942989" lon="05.991353"><ele>8.8</ele><time>2021-03-19T11:36:28Z</time><name>PT6511</name></trkpt>
<trkpt lat="52.942994" lon="05.991367"><ele>8.7</ele><time>2021-03-19T11:36:29Z</time><name>PT6512</name></trkpt>
<trkpt lat="52.943016" lon="05.991388"><ele>8.6</ele><time>2021-03-19T11:36:29Z</time><name>PT6513</name></trkpt>
<trkpt lat="52.943021" lon="05.991405"><ele>8.5</ele><time>2021-03-19T11:36:31Z</time><name>PT6514</name></trkpt>
<trkpt lat="52.943030" lon="05.991422"><ele>8.3</ele><time>2021-03-19T11:36:32Z</time><name>PT6515</name></trkpt>
<trkpt lat="52.943032" lon="05.991433"><ele>8.5</ele><time>2021-03-19T11:36:32Z</time><name>PT6516</name></trkpt>
<trkpt lat="52.943035" lon="05.991457"><ele>8.5</ele><time>2021-03-19T11:36:34Z</time><name>PT6517</name></trkpt>
<trkpt lat="52.943037" lon="05.991474"><ele>8.6</ele><time>2021-03-19T11:36:34Z</time><name>PT6518</name></trkpt>
<trkpt lat="52.943049" lon="05.991495"><ele>8.7</ele><time>2021-03-19T11:36:36Z</time><name>PT6519</name></trkpt>
<trkpt lat="52.943047" lon="05.991505"><ele>8.7</ele><time>2021-03-19T11:36:37Z</time><name>PT6520</name></trkpt>
<trkpt lat="52.943059" lon="05.991515"><ele>8.6</ele><time>2021-03-19T11:36:37Z</time><name>PT6521</name></trkpt>
<trkpt lat="52.943069" lon="05.991529"><ele>8.6</ele><time>2021-03-19T11:36:39Z</time><name>PT6522</name></trkpt>
<trkpt lat="52.943071" lon="05.991545"><ele>8.6</ele><time>2021-03-19T11:36:40Z</time><name>PT6523</name></trkpt>
<trkpt lat="52.943097" lon="05.991563"><ele>8.6</ele><time>2021-03-19T11:36:40Z</time><name>PT6524</name></trkpt>
<trkpt lat="52.943099" lon="05.991574"><ele>8.6</ele><time>2021-03-19T11:36:42Z</time><name>PT6525</name></trkpt>
<trkpt lat="52.943108" lon="05.991594"><ele>8.4</ele><time>2021-03-19T11:36:43Z</time><name>PT6526</name></trkpt>
<trkpt lat="52.943114" lon="05.991617"><ele>8.3</ele><time>2021-03-19T11:36:43Z</time><name>PT6527</name></trkpt>
<trkpt lat="52.943124" lon="05.991636"><ele>8.2</ele><time>2021-03-19T11:36:45Z</time><name>PT6528</name></trkpt>
<trkpt lat="52.943132" lon="05.991655"><ele>8.1</ele><time>2021-03-19T11:36:46Z</time><name>PT6529</name></trkpt>
<trkpt lat="52.943135" lon="05.991666"><ele>8.2</ele><time>2021-03-19T11:36:46Z</time><name>PT6530</name></trkpt>
<trkpt lat="52.943136" lon="05.991672"><ele>8.3</ele><time>2021-03-19T11:36:48Z</time><name>PT6531</name></trkpt>
<trkpt lat="52.943133" lon="05.991676"><ele>8.3</ele><time>2021-03-19T11:36:49Z</time><name>PT6532</name></trkpt>
<trkpt lat="52.943135" lon="05.991683"><ele>8.4</ele><time>2021-03-19T11:36:49Z</time><name>PT6533</name></trkpt>
<trkpt lat="52.943139" lon="05.991693"><ele>8.2</ele><time>2021-03-19T11:36:51Z</time><name>PT6534</name></trkpt>
<trkpt lat="52.943145" lon="05.991705"><ele>8</ele><time>2021-03-19T11:36:52Z</time><name>PT6535</name></trkpt>
<trkpt lat="52.943148" lon="05.991721"><ele>7.8</ele><time>2021-03-19T11:36:52Z</time><name>PT6536</name></trkpt>
<trkpt lat="52.943147" lon="05.991731"><ele>7.7</ele><time>2021-03-19T11:36:54Z</time><name>PT6537</name></trkpt>
<trkpt lat="52.943146" lon="05.991742"><ele>7.7</ele><time>2021-03-19T11:36:54Z</time><name>PT6538</name></trkpt>
<trkpt lat="52.943155" lon="05.991757"><ele>7.7</ele><time>2021-03-19T11:36:56Z</time><name>PT6539</name></trkpt>
<trkpt lat="52.943168" lon="05.991772"><ele>7.7</ele><time>2021-03-19T11:36:56Z</time><name>PT6540</name></trkpt>
<trkpt lat="52.943168" lon="05.991784"><ele>7.8</ele><time>2021-03-19T11:36:58Z</time><name>PT6541</name></trkpt>
<trkpt lat="52.943172" lon="05.991789"><ele>7.9</ele><time>2021-03-19T11:36:59Z</time><name>PT6542</name></trkpt>
<trkpt lat="52.943181" lon="05.991800"><ele>8</ele><time>2021-03-19T11:36:59Z</time><name>PT6543</name></trkpt>
<trkpt lat="52.943187" lon="05.991812"><ele>8.1</ele><time>2021-03-19T11:37:01Z</time><name>PT6544</name></trkpt>
<trkpt lat="52.943199" lon="05.991825"><ele>8</ele><time>2021-03-19T11:37:02Z</time><name>PT6545</name></trkpt>
<trkpt lat="52.943213" lon="05.991835"><ele>8.1</ele><time>2021-03-19T11:37:02Z</time><name>PT6546</name></trkpt>
<trkpt lat="52.943226" lon="05.991841"><ele>8.1</ele><time>2021-03-19T11:37:04Z</time><name>PT6547</name></trkpt>
<trkpt lat="52.943234" lon="05.991843"><ele>8.2</ele><time>2021-03-19T11:37:05Z</time><name>PT6548</name></trkpt>
<trkpt lat="52.943243" lon="05.991858"><ele>8.5</ele><time>2021-03-19T11:37:13Z</time><name>PT6549</name></trkpt>
<trkpt lat="52.943251" lon="05.991867"><ele>8.5</ele><time>2021-03-19T11:37:14Z</time><name>PT6550</name></trkpt>
<trkpt lat="52.943256" lon="05.991878"><ele>8.6</ele><time>2021-03-19T11:37:14Z</time><name>PT6551</name></trkpt>
<trkpt lat="52.943255" lon="05.991898"><ele>8.7</ele><time>2021-03-19T11:37:24Z</time><name>PT6552</name></trkpt>
<trkpt lat="52.943259" lon="05.991910"><ele>8.5</ele><time>2021-03-19T11:37:25Z</time><name>PT6553</name></trkpt>
<trkpt lat="52.943261" lon="05.991909"><ele>8.6</ele><time>2021-03-19T11:37:25Z</time><name>PT6554</name></trkpt>
<trkpt lat="52.943270" lon="05.991913"><ele>8.5</ele><time>2021-03-19T11:37:27Z</time><name>PT6555</name></trkpt>
<trkpt lat="52.943275" lon="05.991919"><ele>8.3</ele><time>2021-03-19T11:37:28Z</time><name>PT6556</name></trkpt>
<trkpt lat="52.943280" lon="05.991922"><ele>8.2</ele><time>2021-03-19T11:37:28Z</time><name>PT6557</name></trkpt>
<trkpt lat="52.943323" lon="05.992002"><ele>8.6</ele><time>2021-03-19T11:53:46Z</time><name>PT6558</name></trkpt>
<trkpt lat="52.943324" lon="05.992011"><ele>8.5</ele><time>2021-03-19T11:54:25Z</time><name>PT6559</name></trkpt>
<trkpt lat="52.943320" lon="05.992017"><ele>8.5</ele><time>2021-03-19T11:54:26Z</time><name>PT6560</name></trkpt>
<trkpt lat="52.943322" lon="05.992025"><ele>8.2</ele><time>2021-03-19T11:54:34Z</time><name>PT6561</name></trkpt>
<trkpt lat="52.943322" lon="05.992036"><ele>8.1</ele><time>2021-03-19T11:54:36Z</time><name>PT6562</name></trkpt>
<trkpt lat="52.943322" lon="05.992045"><ele>8.3</ele><time>2021-03-19T11:54:37Z</time><name>PT6563</name></trkpt>
<trkpt lat="52.943323" lon="05.992055"><ele>8.4</ele><time>2021-03-19T11:54:37Z</time><name>PT6564</name></trkpt>
<trkpt lat="52.943318" lon="05.992064"><ele>8.5</ele><time>2021-03-19T11:54:39Z</time><name>PT6565</name></trkpt>
<trkpt lat="52.943314" lon="05.992067"><ele>8.5</ele><time>2021-03-19T11:54:40Z</time><name>PT6566</name></trkpt>
<trkpt lat="52.943309" lon="05.992072"><ele>8.5</ele><time>2021-03-19T11:54:40Z</time><name>PT6567</name></trkpt>
<trkpt lat="52.943303" lon="05.992081"><ele>8.5</ele><time>2021-03-19T11:54:42Z</time><name>PT6568</name></trkpt>
<trkpt lat="52.943299" lon="05.992086"><ele>8.6</ele><time>2021-03-19T11:54:42Z</time><name>PT6569</name></trkpt>
<trkpt lat="52.943295" lon="05.992092"><ele>8.6</ele><time>2021-03-19T11:54:44Z</time><name>PT6570</name></trkpt>
<trkpt lat="52.943292" lon="05.992100"><ele>8.7</ele><time>2021-03-19T11:54:45Z</time><name>PT6571</name></trkpt>
<trkpt lat="52.943285" lon="05.992107"><ele>8.8</ele><time>2021-03-19T11:54:45Z</time><name>PT6572</name></trkpt>
<trkpt lat="52.943276" lon="05.992109"><ele>8.6</ele><time>2021-03-19T11:54:47Z</time><name>PT6573</name></trkpt>
<trkpt lat="52.943272" lon="05.992112"><ele>8.6</ele><time>2021-03-19T11:54:48Z</time><name>PT6574</name></trkpt>
<trkpt lat="52.943268" lon="05.992117"><ele>8.6</ele><time>2021-03-19T11:54:48Z</time><name>PT6575</name></trkpt>
<trkpt lat="52.943263" lon="05.992123"><ele>8.5</ele><time>2021-03-19T11:54:50Z</time><name>PT6576</name></trkpt>
<trkpt lat="52.943259" lon="05.992124"><ele>8.6</ele><time>2021-03-19T11:54:51Z</time><name>PT6577</name></trkpt>
<trkpt lat="52.943257" lon="05.992126"><ele>8.5</ele><time>2021-03-19T11:54:51Z</time><name>PT6578</name></trkpt>
<trkpt lat="52.943249" lon="05.992130"><ele>8.5</ele><time>2021-03-19T11:54:53Z</time><name>PT6579</name></trkpt>
<trkpt lat="52.943242" lon="05.992137"><ele>8.4</ele><time>2021-03-19T11:54:54Z</time><name>PT6580</name></trkpt>
<trkpt lat="52.943233" lon="05.992144"><ele>8.4</ele><time>2021-03-19T11:54:54Z</time><name>PT6581</name></trkpt>
<trkpt lat="52.943221" lon="05.992148"><ele>8.3</ele><time>2021-03-19T11:54:56Z</time><name>PT6582</name></trkpt>
<trkpt lat="52.943213" lon="05.992152"><ele>8.2</ele><time>2021-03-19T11:54:57Z</time><name>PT6583</name></trkpt>
<trkpt lat="52.943204" lon="05.992159"><ele>8.2</ele><time>2021-03-19T11:54:57Z</time><name>PT6584</name></trkpt>
<trkpt lat="52.943192" lon="05.992174"><ele>8.3</ele><time>2021-03-19T11:54:59Z</time><name>PT6585</name></trkpt>
<trkpt lat="52.943183" lon="05.992186"><ele>8.4</ele><time>2021-03-19T11:55:00Z</time><name>PT6586</name></trkpt>
<trkpt lat="52.943171" lon="05.992197"><ele>8.5</ele><time>2021-03-19T11:55:00Z</time><name>PT6587</name></trkpt>
<trkpt lat="52.943162" lon="05.992204"><ele>8.5</ele><time>2021-03-19T11:55:02Z</time><name>PT6588</name></trkpt>
<trkpt lat="52.943155" lon="05.992211"><ele>8.6</ele><time>2021-03-19T11:55:03Z</time><name>PT6589</name></trkpt>
<trkpt lat="52.943146" lon="05.992220"><ele>8.6</ele><time>2021-03-19T11:55:03Z</time><name>PT6590</name></trkpt>
<trkpt lat="52.943134" lon="05.992231"><ele>8.6</ele><time>2021-03-19T11:55:05Z</time><name>PT6591</name></trkpt>
<trkpt lat="52.943127" lon="05.992239"><ele>8.7</ele><time>2021-03-19T11:55:06Z</time><name>PT6592</name></trkpt>
<trkpt lat="52.943119" lon="05.992249"><ele>8.7</ele><time>2021-03-19T11:55:06Z</time><name>PT6593</name></trkpt>
<trkpt lat="52.943109" lon="05.992260"><ele>8.6</ele><time>2021-03-19T11:55:08Z</time><name>PT6594</name></trkpt>
<trkpt lat="52.943104" lon="05.992266"><ele>8.9</ele><time>2021-03-19T11:55:09Z</time><name>PT6595</name></trkpt>
<trkpt lat="52.943094" lon="05.992278"><ele>8.9</ele><time>2021-03-19T11:55:09Z</time><name>PT6596</name></trkpt>
<trkpt lat="52.943086" lon="05.992292"><ele>9</ele><time>2021-03-19T11:55:11Z</time><name>PT6597</name></trkpt>
<trkpt lat="52.943074" lon="05.992305"><ele>9</ele><time>2021-03-19T11:55:12Z</time><name>PT6598</name></trkpt>
<trkpt lat="52.943063" lon="05.992317"><ele>8.9</ele><time>2021-03-19T11:55:12Z</time><name>PT6599</name></trkpt>
<trkpt lat="52.943055" lon="05.992325"><ele>8.6</ele><time>2021-03-19T11:55:14Z</time><name>PT6600</name></trkpt>
<trkpt lat="52.943048" lon="05.992332"><ele>8.6</ele><time>2021-03-19T11:55:15Z</time><name>PT6601</name></trkpt>
<trkpt lat="52.943041" lon="05.992340"><ele>8.5</ele><time>2021-03-19T11:55:15Z</time><name>PT6602</name></trkpt>
<trkpt lat="52.943028" lon="05.992350"><ele>8.6</ele><time>2021-03-19T11:55:17Z</time><name>PT6603</name></trkpt>
<trkpt lat="52.943013" lon="05.992363"><ele>8.6</ele><time>2021-03-19T11:55:18Z</time><name>PT6604</name></trkpt>
<trkpt lat="52.943002" lon="05.992373"><ele>8.6</ele><time>2021-03-19T11:55:18Z</time><name>PT6605</name></trkpt>
<trkpt lat="52.942994" lon="05.992382"><ele>8.5</ele><time>2021-03-19T11:55:20Z</time><name>PT6606</name></trkpt>
<trkpt lat="52.942985" lon="05.992392"><ele>8.6</ele><time>2021-03-19T11:55:21Z</time><name>PT6607</name></trkpt>
<trkpt lat="52.942970" lon="05.992416"><ele>8.6</ele><time>2021-03-19T11:55:22Z</time><name>PT6608</name></trkpt>
<trkpt lat="52.942951" lon="05.992433"><ele>8.8</ele><time>2021-03-19T11:55:23Z</time><name>PT6609</name></trkpt>
<trkpt lat="52.942942" lon="05.992442"><ele>8.8</ele><time>2021-03-19T11:55:24Z</time><name>PT6610</name></trkpt>
<trkpt lat="52.942932" lon="05.992452"><ele>8.6</ele><time>2021-03-19T11:55:25Z</time><name>PT6611</name></trkpt>
<trkpt lat="52.942916" lon="05.992467"><ele>8.6</ele><time>2021-03-19T11:55:26Z</time><name>PT6612</name></trkpt>
<trkpt lat="52.942904" lon="05.992476"><ele>8.7</ele><time>2021-03-19T11:55:27Z</time><name>PT6613</name></trkpt>
<trkpt lat="52.942889" lon="05.992486"><ele>8.7</ele><time>2021-03-19T11:55:28Z</time><name>PT6614</name></trkpt>
<trkpt lat="52.942880" lon="05.992489"><ele>9.1</ele><time>2021-03-19T11:55:29Z</time><name>PT6615</name></trkpt>
<trkpt lat="52.942866" lon="05.992502"><ele>9.3</ele><time>2021-03-19T11:55:30Z</time><name>PT6616</name></trkpt>
<trkpt lat="52.942849" lon="05.992521"><ele>9.4</ele><time>2021-03-19T11:55:31Z</time><name>PT6617</name></trkpt>
<trkpt lat="52.942846" lon="05.992533"><ele>9.3</ele><time>2021-03-19T11:55:32Z</time><name>PT6618</name></trkpt>
<trkpt lat="52.942840" lon="05.992543"><ele>9.1</ele><time>2021-03-19T11:55:33Z</time><name>PT6619</name></trkpt>
<trkpt lat="52.942829" lon="05.992552"><ele>9</ele><time>2021-03-19T11:55:34Z</time><name>PT6620</name></trkpt>
<trkpt lat="52.942817" lon="05.992562"><ele>8.7</ele><time>2021-03-19T11:55:35Z</time><name>PT6621</name></trkpt>
<trkpt lat="52.942809" lon="05.992569"><ele>8.4</ele><time>2021-03-19T11:55:36Z</time><name>PT6622</name></trkpt>
<trkpt lat="52.942799" lon="05.992577"><ele>8.8</ele><time>2021-03-19T11:55:36Z</time><name>PT6623</name></trkpt>
<trkpt lat="52.942788" lon="05.992587"><ele>8.5</ele><time>2021-03-19T11:55:38Z</time><name>PT6624</name></trkpt>
<trkpt lat="52.942778" lon="05.992599"><ele>9.2</ele><time>2021-03-19T11:55:39Z</time><name>PT6625</name></trkpt>
<trkpt lat="52.942768" lon="05.992610"><ele>9.5</ele><time>2021-03-19T11:55:40Z</time><name>PT6626</name></trkpt>
<trkpt lat="52.942761" lon="05.992618"><ele>10</ele><time>2021-03-19T11:55:41Z</time><name>PT6627</name></trkpt>
<trkpt lat="52.942750" lon="05.992629"><ele>9.1</ele><time>2021-03-19T11:55:42Z</time><name>PT6628</name></trkpt>
<trkpt lat="52.942739" lon="05.992639"><ele>9.1</ele><time>2021-03-19T11:55:42Z</time><name>PT6629</name></trkpt>
<trkpt lat="52.942725" lon="05.992650"><ele>8.6</ele><time>2021-03-19T11:55:44Z</time><name>PT6630</name></trkpt>
<trkpt lat="52.942713" lon="05.992665"><ele>8.4</ele><time>2021-03-19T11:55:45Z</time><name>PT6631</name></trkpt>
<trkpt lat="52.942703" lon="05.992673"><ele>8.3</ele><time>2021-03-19T11:55:45Z</time><name>PT6632</name></trkpt>
<trkpt lat="52.942692" lon="05.992684"><ele>8.4</ele><time>2021-03-19T11:55:47Z</time><name>PT6633</name></trkpt>
<trkpt lat="52.942683" lon="05.992698"><ele>8.3</ele><time>2021-03-19T11:55:48Z</time><name>PT6634</name></trkpt>
<trkpt lat="52.942671" lon="05.992713"><ele>8.3</ele><time>2021-03-19T11:55:48Z</time><name>PT6635</name></trkpt>
<trkpt lat="52.942659" lon="05.992727"><ele>8.3</ele><time>2021-03-19T11:55:50Z</time><name>PT6636</name></trkpt>
<trkpt lat="52.942649" lon="05.992741"><ele>8.4</ele><time>2021-03-19T11:55:51Z</time><name>PT6637</name></trkpt>
<trkpt lat="52.942639" lon="05.992753"><ele>8.4</ele><time>2021-03-19T11:55:51Z</time><name>PT6638</name></trkpt>
<trkpt lat="52.942630" lon="05.992763"><ele>8.5</ele><time>2021-03-19T11:55:53Z</time><name>PT6639</name></trkpt>
<trkpt lat="52.942617" lon="05.992772"><ele>8.4</ele><time>2021-03-19T11:55:54Z</time><name>PT6640</name></trkpt>
<trkpt lat="52.942606" lon="05.992782"><ele>8.4</ele><time>2021-03-19T11:55:54Z</time><name>PT6641</name></trkpt>
<trkpt lat="52.942596" lon="05.992792"><ele>8.2</ele><time>2021-03-19T11:55:56Z</time><name>PT6642</name></trkpt>
<trkpt lat="52.942586" lon="05.992801"><ele>8.2</ele><time>2021-03-19T11:55:57Z</time><name>PT6643</name></trkpt>
<trkpt lat="52.942577" lon="05.992811"><ele>8</ele><time>2021-03-19T11:55:57Z</time><name>PT6644</name></trkpt>
<trkpt lat="52.942568" lon="05.992823"><ele>8</ele><time>2021-03-19T11:55:59Z</time><name>PT6645</name></trkpt>
<trkpt lat="52.942558" lon="05.992834"><ele>7.9</ele><time>2021-03-19T11:56:00Z</time><name>PT6646</name></trkpt>
<trkpt lat="52.942546" lon="05.992843"><ele>8</ele><time>2021-03-19T11:56:00Z</time><name>PT6647</name></trkpt>
<trkpt lat="52.942532" lon="05.992854"><ele>8.1</ele><time>2021-03-19T11:56:02Z</time><name>PT6648</name></trkpt>
<trkpt lat="52.942520" lon="05.992862"><ele>8.1</ele><time>2021-03-19T11:56:03Z</time><name>PT6649</name></trkpt>
<trkpt lat="52.942509" lon="05.992870"><ele>8.1</ele><time>2021-03-19T11:56:03Z</time><name>PT6650</name></trkpt>
<trkpt lat="52.942498" lon="05.992877"><ele>8.3</ele><time>2021-03-19T11:56:05Z</time><name>PT6651</name></trkpt>
<trkpt lat="52.942488" lon="05.992885"><ele>8.3</ele><time>2021-03-19T11:56:06Z</time><name>PT6652</name></trkpt>
<trkpt lat="52.942479" lon="05.992894"><ele>8.3</ele><time>2021-03-19T11:56:06Z</time><name>PT6653</name></trkpt>
<trkpt lat="52.942469" lon="05.992904"><ele>8.5</ele><time>2021-03-19T11:56:08Z</time><name>PT6654</name></trkpt>
<trkpt lat="52.942460" lon="05.992917"><ele>8.3</ele><time>2021-03-19T11:56:09Z</time><name>PT6655</name></trkpt>
<trkpt lat="52.942451" lon="05.992929"><ele>8.3</ele><time>2021-03-19T11:56:09Z</time><name>PT6656</name></trkpt>
<trkpt lat="52.942443" lon="05.992941"><ele>8.4</ele><time>2021-03-19T11:56:11Z</time><name>PT6657</name></trkpt>
<trkpt lat="52.942433" lon="05.992953"><ele>8.3</ele><time>2021-03-19T11:56:12Z</time><name>PT6658</name></trkpt>
<trkpt lat="52.942422" lon="05.992962"><ele>8.2</ele><time>2021-03-19T11:56:12Z</time><name>PT6659</name></trkpt>
<trkpt lat="52.942413" lon="05.992971"><ele>8.5</ele><time>2021-03-19T11:56:14Z</time><name>PT6660</name></trkpt>
<trkpt lat="52.942404" lon="05.992977"><ele>8.2</ele><time>2021-03-19T11:56:15Z</time><name>PT6661</name></trkpt>
<trkpt lat="52.942394" lon="05.992986"><ele>8.2</ele><time>2021-03-19T11:56:16Z</time><name>PT6662</name></trkpt>
<trkpt lat="52.942384" lon="05.992997"><ele>8.1</ele><time>2021-03-19T11:56:17Z</time><name>PT6663</name></trkpt>
<trkpt lat="52.942375" lon="05.993007"><ele>8.1</ele><time>2021-03-19T11:56:18Z</time><name>PT6664</name></trkpt>
<trkpt lat="52.942366" lon="05.993019"><ele>8.1</ele><time>2021-03-19T11:56:18Z</time><name>PT6665</name></trkpt>
<trkpt lat="52.942356" lon="05.993031"><ele>8.3</ele><time>2021-03-19T11:56:20Z</time><name>PT6666</name></trkpt>
<trkpt lat="52.942345" lon="05.993042"><ele>8.2</ele><time>2021-03-19T11:56:21Z</time><name>PT6667</name></trkpt>
<trkpt lat="52.942335" lon="05.993050"><ele>8.1</ele><time>2021-03-19T11:56:22Z</time><name>PT6668</name></trkpt>
<trkpt lat="52.942325" lon="05.993057"><ele>8.1</ele><time>2021-03-19T11:56:23Z</time><name>PT6669</name></trkpt>
<trkpt lat="52.942317" lon="05.993066"><ele>8.1</ele><time>2021-03-19T11:56:24Z</time><name>PT6670</name></trkpt>
<trkpt lat="52.942308" lon="05.993079"><ele>7.9</ele><time>2021-03-19T11:56:25Z</time><name>PT6671</name></trkpt>
<trkpt lat="52.942301" lon="05.993090"><ele>7.9</ele><time>2021-03-19T11:56:26Z</time><name>PT6672</name></trkpt>
<trkpt lat="52.942291" lon="05.993101"><ele>7.9</ele><time>2021-03-19T11:56:27Z</time><name>PT6673</name></trkpt>
<trkpt lat="52.942283" lon="05.993110"><ele>8.1</ele><time>2021-03-19T11:56:27Z</time><name>PT6674</name></trkpt>
<trkpt lat="52.942273" lon="05.993120"><ele>8.1</ele><time>2021-03-19T11:56:29Z</time><name>PT6675</name></trkpt>
<trkpt lat="52.942263" lon="05.993129"><ele>8.1</ele><time>2021-03-19T11:56:30Z</time><name>PT6676</name></trkpt>
<trkpt lat="52.942252" lon="05.993137"><ele>8</ele><time>2021-03-19T11:56:30Z</time><name>PT6677</name></trkpt>
<trkpt lat="52.942243" lon="05.993145"><ele>8.1</ele><time>2021-03-19T11:56:32Z</time><name>PT6678</name></trkpt>
<trkpt lat="52.942231" lon="05.993153"><ele>8.1</ele><time>2021-03-19T11:56:33Z</time><name>PT6679</name></trkpt>
<trkpt lat="52.942222" lon="05.993163"><ele>8.1</ele><time>2021-03-19T11:56:33Z</time><name>PT6680</name></trkpt>
<trkpt lat="52.942215" lon="05.993174"><ele>8.2</ele><time>2021-03-19T11:56:35Z</time><name>PT6681</name></trkpt>
<trkpt lat="52.942209" lon="05.993182"><ele>8.2</ele><time>2021-03-19T11:56:36Z</time><name>PT6682</name></trkpt>
<trkpt lat="52.942200" lon="05.993190"><ele>8.4</ele><time>2021-03-19T11:56:36Z</time><name>PT6683</name></trkpt>
<trkpt lat="52.942188" lon="05.993195"><ele>8.4</ele><time>2021-03-19T11:56:38Z</time><name>PT6684</name></trkpt>
<trkpt lat="52.942178" lon="05.993203"><ele>8.3</ele><time>2021-03-19T11:56:39Z</time><name>PT6685</name></trkpt>
<trkpt lat="52.942169" lon="05.993212"><ele>8.2</ele><time>2021-03-19T11:56:39Z</time><name>PT6686</name></trkpt>
<trkpt lat="52.942161" lon="05.993221"><ele>8.1</ele><time>2021-03-19T11:56:41Z</time><name>PT6687</name></trkpt>
<trkpt lat="52.942153" lon="05.993231"><ele>8.1</ele><time>2021-03-19T11:56:42Z</time><name>PT6688</name></trkpt>
<trkpt lat="52.942144" lon="05.993241"><ele>8.1</ele><time>2021-03-19T11:56:42Z</time><name>PT6689</name></trkpt>
<trkpt lat="52.942136" lon="05.993251"><ele>8</ele><time>2021-03-19T11:56:44Z</time><name>PT6690</name></trkpt>
<trkpt lat="52.942128" lon="05.993262"><ele>8</ele><time>2021-03-19T11:56:45Z</time><name>PT6691</name></trkpt>
<trkpt lat="52.942118" lon="05.993270"><ele>7.9</ele><time>2021-03-19T11:56:45Z</time><name>PT6692</name></trkpt>
<trkpt lat="52.942107" lon="05.993277"><ele>7.9</ele><time>2021-03-19T11:56:47Z</time><name>PT6693</name></trkpt>
<trkpt lat="52.942098" lon="05.993285"><ele>8</ele><time>2021-03-19T11:56:48Z</time><name>PT6694</name></trkpt>
<trkpt lat="52.942088" lon="05.993295"><ele>8.1</ele><time>2021-03-19T11:56:48Z</time><name>PT6695</name></trkpt>
<trkpt lat="52.942078" lon="05.993305"><ele>8.1</ele><time>2021-03-19T11:56:50Z</time><name>PT6696</name></trkpt>
<trkpt lat="52.942068" lon="05.993314"><ele>8.2</ele><time>2021-03-19T11:56:51Z</time><name>PT6697</name></trkpt>
<trkpt lat="52.942057" lon="05.993323"><ele>8.1</ele><time>2021-03-19T11:56:51Z</time><name>PT6698</name></trkpt>
<trkpt lat="52.942045" lon="05.993332"><ele>8</ele><time>2021-03-19T11:56:53Z</time><name>PT6699</name></trkpt>
<trkpt lat="52.942034" lon="05.993343"><ele>7.9</ele><time>2021-03-19T11:56:54Z</time><name>PT6700</name></trkpt>
<trkpt lat="52.942021" lon="05.993353"><ele>7.9</ele><time>2021-03-19T11:56:54Z</time><name>PT6701</name></trkpt>
<trkpt lat="52.942010" lon="05.993363"><ele>7.9</ele><time>2021-03-19T11:56:56Z</time><name>PT6702</name></trkpt>
<trkpt lat="52.941998" lon="05.993373"><ele>8.1</ele><time>2021-03-19T11:56:57Z</time><name>PT6703</name></trkpt>
<trkpt lat="52.941987" lon="05.993379"><ele>8.1</ele><time>2021-03-19T11:56:57Z</time><name>PT6704</name></trkpt>
<trkpt lat="52.941976" lon="05.993386"><ele>8.1</ele><time>2021-03-19T11:56:59Z</time><name>PT6705</name></trkpt>
<trkpt lat="52.941966" lon="05.993396"><ele>8.2</ele><time>2021-03-19T11:57:00Z</time><name>PT6706</name></trkpt>
<trkpt lat="52.941956" lon="05.993408"><ele>8.2</ele><time>2021-03-19T11:57:00Z</time><name>PT6707</name></trkpt>
<trkpt lat="52.941947" lon="05.993419"><ele>8.1</ele><time>2021-03-19T11:57:02Z</time><name>PT6708</name></trkpt>
<trkpt lat="52.941935" lon="05.993431"><ele>8.3</ele><time>2021-03-19T11:57:03Z</time><name>PT6709</name></trkpt>
<trkpt lat="52.941925" lon="05.993444"><ele>8.5</ele><time>2021-03-19T11:57:03Z</time><name>PT6710</name></trkpt>
<trkpt lat="52.941915" lon="05.993454"><ele>8.5</ele><time>2021-03-19T11:57:05Z</time><name>PT6711</name></trkpt>
<trkpt lat="52.941904" lon="05.993462"><ele>8.4</ele><time>2021-03-19T11:57:06Z</time><name>PT6712</name></trkpt>
<trkpt lat="52.941895" lon="05.993468"><ele>8.2</ele><time>2021-03-19T11:57:06Z</time><name>PT6713</name></trkpt>
<trkpt lat="52.941885" lon="05.993478"><ele>8</ele><time>2021-03-19T11:57:08Z</time><name>PT6714</name></trkpt>
<trkpt lat="52.941874" lon="05.993490"><ele>7.8</ele><time>2021-03-19T11:57:09Z</time><name>PT6715</name></trkpt>
<trkpt lat="52.941867" lon="05.993503"><ele>7.7</ele><time>2021-03-19T11:57:09Z</time><name>PT6716</name></trkpt>
<trkpt lat="52.941858" lon="05.993516"><ele>7.8</ele><time>2021-03-19T11:57:11Z</time><name>PT6717</name></trkpt>
<trkpt lat="52.941848" lon="05.993525"><ele>7.9</ele><time>2021-03-19T11:57:12Z</time><name>PT6718</name></trkpt>
<trkpt lat="52.941839" lon="05.993533"><ele>8.1</ele><time>2021-03-19T11:57:12Z</time><name>PT6719</name></trkpt>
<trkpt lat="52.941829" lon="05.993541"><ele>8.3</ele><time>2021-03-19T11:57:14Z</time><name>PT6720</name></trkpt>
<trkpt lat="52.941818" lon="05.993548"><ele>8.5</ele><time>2021-03-19T11:57:15Z</time><name>PT6721</name></trkpt>
<trkpt lat="52.941809" lon="05.993555"><ele>8.5</ele><time>2021-03-19T11:57:15Z</time><name>PT6722</name></trkpt>
<trkpt lat="52.941801" lon="05.993564"><ele>8.4</ele><time>2021-03-19T11:57:17Z</time><name>PT6723</name></trkpt>
<trkpt lat="52.941793" lon="05.993572"><ele>8.3</ele><time>2021-03-19T11:57:18Z</time><name>PT6724</name></trkpt>
<trkpt lat="52.941787" lon="05.993581"><ele>8.1</ele><time>2021-03-19T11:57:18Z</time><name>PT6725</name></trkpt>
<trkpt lat="52.941780" lon="05.993591"><ele>8</ele><time>2021-03-19T11:57:20Z</time><name>PT6726</name></trkpt>
<trkpt lat="52.941773" lon="05.993598"><ele>8.1</ele><time>2021-03-19T11:57:21Z</time><name>PT6727</name></trkpt>
<trkpt lat="52.941766" lon="05.993606"><ele>8.1</ele><time>2021-03-19T11:57:21Z</time><name>PT6728</name></trkpt>
<trkpt lat="52.941755" lon="05.993613"><ele>8.3</ele><time>2021-03-19T11:57:23Z</time><name>PT6729</name></trkpt>
<trkpt lat="52.941745" lon="05.993622"><ele>8.4</ele><time>2021-03-19T11:57:24Z</time><name>PT6730</name></trkpt>
<trkpt lat="52.941736" lon="05.993631"><ele>8.5</ele><time>2021-03-19T11:57:24Z</time><name>PT6731</name></trkpt>
<trkpt lat="52.941726" lon="05.993640"><ele>8.5</ele><time>2021-03-19T11:57:26Z</time><name>PT6732</name></trkpt>
<trkpt lat="52.941718" lon="05.993651"><ele>8.2</ele><time>2021-03-19T11:57:27Z</time><name>PT6733</name></trkpt>
<trkpt lat="52.941713" lon="05.993658"><ele>8.2</ele><time>2021-03-19T11:57:27Z</time><name>PT6734</name></trkpt>
<trkpt lat="52.941703" lon="05.993667"><ele>8.2</ele><time>2021-03-19T11:57:29Z</time><name>PT6735</name></trkpt>
<trkpt lat="52.941695" lon="05.993680"><ele>8.3</ele><time>2021-03-19T11:57:30Z</time><name>PT6736</name></trkpt>
<trkpt lat="52.941686" lon="05.993693"><ele>8.3</ele><time>2021-03-19T11:57:30Z</time><name>PT6737</name></trkpt>
<trkpt lat="52.941678" lon="05.993702"><ele>8.4</ele><time>2021-03-19T11:57:32Z</time><name>PT6738</name></trkpt>
<trkpt lat="52.941667" lon="05.993710"><ele>8.4</ele><time>2021-03-19T11:57:33Z</time><name>PT6739</name></trkpt>
<trkpt lat="52.941656" lon="05.993715"><ele>8.2</ele><time>2021-03-19T11:57:33Z</time><name>PT6740</name></trkpt>
<trkpt lat="52.941643" lon="05.993723"><ele>8.1</ele><time>2021-03-19T11:57:35Z</time><name>PT6741</name></trkpt>
<trkpt lat="52.941632" lon="05.993733"><ele>8.1</ele><time>2021-03-19T11:57:36Z</time><name>PT6742</name></trkpt>
<trkpt lat="52.941624" lon="05.993743"><ele>8.2</ele><time>2021-03-19T11:57:36Z</time><name>PT6743</name></trkpt>
<trkpt lat="52.941619" lon="05.993750"><ele>8.1</ele><time>2021-03-19T11:57:38Z</time><name>PT6744</name></trkpt>
<trkpt lat="52.941610" lon="05.993759"><ele>8.2</ele><time>2021-03-19T11:57:39Z</time><name>PT6745</name></trkpt>
<trkpt lat="52.941603" lon="05.993767"><ele>8.2</ele><time>2021-03-19T11:57:39Z</time><name>PT6746</name></trkpt>
<trkpt lat="52.941594" lon="05.993777"><ele>8.1</ele><time>2021-03-19T11:57:41Z</time><name>PT6747</name></trkpt>
<trkpt lat="52.941584" lon="05.993786"><ele>8.1</ele><time>2021-03-19T11:57:42Z</time><name>PT6748</name></trkpt>
<trkpt lat="52.941574" lon="05.993792"><ele>8.1</ele><time>2021-03-19T11:57:42Z</time><name>PT6749</name></trkpt>
<trkpt lat="52.941568" lon="05.993797"><ele>8.1</ele><time>2021-03-19T11:57:44Z</time><name>PT6750</name></trkpt>
<trkpt lat="52.941561" lon="05.993802"><ele>8.3</ele><time>2021-03-19T11:57:45Z</time><name>PT6751</name></trkpt>
<trkpt lat="52.941554" lon="05.993808"><ele>8.4</ele><time>2021-03-19T11:57:45Z</time><name>PT6752</name></trkpt>
<trkpt lat="52.941546" lon="05.993816"><ele>8.4</ele><time>2021-03-19T11:57:47Z</time><name>PT6753</name></trkpt>
<trkpt lat="52.941538" lon="05.993825"><ele>8.5</ele><time>2021-03-19T11:57:48Z</time><name>PT6754</name></trkpt>
<trkpt lat="52.941530" lon="05.993834"><ele>8.3</ele><time>2021-03-19T11:57:48Z</time><name>PT6755</name></trkpt>
<trkpt lat="52.941520" lon="05.993840"><ele>8.1</ele><time>2021-03-19T11:57:50Z</time><name>PT6756</name></trkpt>
<trkpt lat="52.941509" lon="05.993849"><ele>8.1</ele><time>2021-03-19T11:57:51Z</time><name>PT6757</name></trkpt>
<trkpt lat="52.941500" lon="05.993856"><ele>8.1</ele><time>2021-03-19T11:57:51Z</time><name>PT6758</name></trkpt>
<trkpt lat="52.941491" lon="05.993864"><ele>8.3</ele><time>2021-03-19T11:57:53Z</time><name>PT6759</name></trkpt>
<trkpt lat="52.941481" lon="05.993873"><ele>8.4</ele><time>2021-03-19T11:57:54Z</time><name>PT6760</name></trkpt>
<trkpt lat="52.941472" lon="05.993882"><ele>8.6</ele><time>2021-03-19T11:57:54Z</time><name>PT6761</name></trkpt>
<trkpt lat="52.941464" lon="05.993896"><ele>8.6</ele><time>2021-03-19T11:57:56Z</time><name>PT6762</name></trkpt>
<trkpt lat="52.941454" lon="05.993908"><ele>8.5</ele><time>2021-03-19T11:57:57Z</time><name>PT6763</name></trkpt>
<trkpt lat="52.941443" lon="05.993919"><ele>8.4</ele><time>2021-03-19T11:57:57Z</time><name>PT6764</name></trkpt>
<trkpt lat="52.941435" lon="05.993928"><ele>8.4</ele><time>2021-03-19T11:57:59Z</time><name>PT6765</name></trkpt>
<trkpt lat="52.941429" lon="05.993938"><ele>8.4</ele><time>2021-03-19T11:58:00Z</time><name>PT6766</name></trkpt>
<trkpt lat="52.941421" lon="05.993950"><ele>8.3</ele><time>2021-03-19T11:58:00Z</time><name>PT6767</name></trkpt>
<trkpt lat="52.941412" lon="05.993961"><ele>8.4</ele><time>2021-03-19T11:58:02Z</time><name>PT6768</name></trkpt>
<trkpt lat="52.941403" lon="05.993970"><ele>8.3</ele><time>2021-03-19T11:58:03Z</time><name>PT6769</name></trkpt>
<trkpt lat="52.941394" lon="05.993981"><ele>8.3</ele><time>2021-03-19T11:58:04Z</time><name>PT6770</name></trkpt>
<trkpt lat="52.941383" lon="05.993992"><ele>8.2</ele><time>2021-03-19T11:58:05Z</time><name>PT6771</name></trkpt>
<trkpt lat="52.941373" lon="05.993994"><ele>8.3</ele><time>2021-03-19T11:58:06Z</time><name>PT6772</name></trkpt>
<trkpt lat="52.941367" lon="05.994010"><ele>8.3</ele><time>2021-03-19T11:58:06Z</time><name>PT6773</name></trkpt>
<trkpt lat="52.941363" lon="05.994010"><ele>8.5</ele><time>2021-03-19T11:58:08Z</time><name>PT6774</name></trkpt>
<trkpt lat="52.941360" lon="05.994010"><ele>8.6</ele><time>2021-03-19T11:58:09Z</time><name>PT6775</name></trkpt>
<trkpt lat="52.941352" lon="05.994014"><ele>8.5</ele><time>2021-03-19T11:58:10Z</time><name>PT6776</name></trkpt>
<trkpt lat="52.941344" lon="05.994026"><ele>8.6</ele><time>2021-03-19T11:58:11Z</time><name>PT6777</name></trkpt>
<trkpt lat="52.941335" lon="05.994034"><ele>8.6</ele><time>2021-03-19T11:58:12Z</time><name>PT6778</name></trkpt>
<trkpt lat="52.941327" lon="05.994040"><ele>8.4</ele><time>2021-03-19T11:58:12Z</time><name>PT6779</name></trkpt>
<trkpt lat="52.941324" lon="05.994046"><ele>8.3</ele><time>2021-03-19T11:58:14Z</time><name>PT6780</name></trkpt>
<trkpt lat="52.941321" lon="05.994054"><ele>8.4</ele><time>2021-03-19T11:58:15Z</time><name>PT6781</name></trkpt>
<trkpt lat="52.941313" lon="05.994066"><ele>8.3</ele><time>2021-03-19T11:58:16Z</time><name>PT6782</name></trkpt>
<trkpt lat="52.941304" lon="05.994076"><ele>8.3</ele><time>2021-03-19T11:58:17Z</time><name>PT6783</name></trkpt>
<trkpt lat="52.941295" lon="05.994083"><ele>8.3</ele><time>2021-03-19T11:58:18Z</time><name>PT6784</name></trkpt>
<trkpt lat="52.941288" lon="05.994088"><ele>8.5</ele><time>2021-03-19T11:58:19Z</time><name>PT6785</name></trkpt>
<trkpt lat="52.941277" lon="05.994097"><ele>8.6</ele><time>2021-03-19T11:58:20Z</time><name>PT6786</name></trkpt>
<trkpt lat="52.941268" lon="05.994103"><ele>8.6</ele><time>2021-03-19T11:58:20Z</time><name>PT6787</name></trkpt>
<trkpt lat="52.941261" lon="05.994111"><ele>8.6</ele><time>2021-03-19T11:58:22Z</time><name>PT6788</name></trkpt>
<trkpt lat="52.941253" lon="05.994118"><ele>8.6</ele><time>2021-03-19T11:58:23Z</time><name>PT6789</name></trkpt>
<trkpt lat="52.941246" lon="05.994124"><ele>8.5</ele><time>2021-03-19T11:58:23Z</time><name>PT6790</name></trkpt>
<trkpt lat="52.941236" lon="05.994134"><ele>8.6</ele><time>2021-03-19T11:58:25Z</time><name>PT6791</name></trkpt>
<trkpt lat="52.941228" lon="05.994144"><ele>8.3</ele><time>2021-03-19T11:58:26Z</time><name>PT6792</name></trkpt>
<trkpt lat="52.941218" lon="05.994154"><ele>8.5</ele><time>2021-03-19T11:58:26Z</time><name>PT6793</name></trkpt>
<trkpt lat="52.941206" lon="05.994161"><ele>8.5</ele><time>2021-03-19T11:58:28Z</time><name>PT6794</name></trkpt>
<trkpt lat="52.941193" lon="05.994168"><ele>8.5</ele><time>2021-03-19T11:58:29Z</time><name>PT6795</name></trkpt>
<trkpt lat="52.941182" lon="05.994176"><ele>8.4</ele><time>2021-03-19T11:58:29Z</time><name>PT6796</name></trkpt>
<trkpt lat="52.941176" lon="05.994184"><ele>8.6</ele><time>2021-03-19T11:58:31Z</time><name>PT6797</name></trkpt>
<trkpt lat="52.941169" lon="05.994191"><ele>8.7</ele><time>2021-03-19T11:58:32Z</time><name>PT6798</name></trkpt>
<trkpt lat="52.941157" lon="05.994202"><ele>8.6</ele><time>2021-03-19T11:58:32Z</time><name>PT6799</name></trkpt>
<trkpt lat="52.941149" lon="05.994212"><ele>8.9</ele><time>2021-03-19T11:58:34Z</time><name>PT6800</name></trkpt>
<trkpt lat="52.941139" lon="05.994220"><ele>8.8</ele><time>2021-03-19T11:58:35Z</time><name>PT6801</name></trkpt>
<trkpt lat="52.941128" lon="05.994232"><ele>8.8</ele><time>2021-03-19T11:58:35Z</time><name>PT6802</name></trkpt>
<trkpt lat="52.941118" lon="05.994239"><ele>8.7</ele><time>2021-03-19T11:58:37Z</time><name>PT6803</name></trkpt>
<trkpt lat="52.941108" lon="05.994242"><ele>8.7</ele><time>2021-03-19T11:58:38Z</time><name>PT6804</name></trkpt>
<trkpt lat="52.941106" lon="05.994245"><ele>8.6</ele><time>2021-03-19T11:58:38Z</time><name>PT6805</name></trkpt>
<trkpt lat="52.941102" lon="05.994248"><ele>8.6</ele><time>2021-03-19T11:58:40Z</time><name>PT6806</name></trkpt>
<trkpt lat="52.941096" lon="05.994253"><ele>8.6</ele><time>2021-03-19T11:58:41Z</time><name>PT6807</name></trkpt>
<trkpt lat="52.941087" lon="05.994261"><ele>8.7</ele><time>2021-03-19T11:58:42Z</time><name>PT6808</name></trkpt>
<trkpt lat="52.941079" lon="05.994267"><ele>8.6</ele><time>2021-03-19T11:58:43Z</time><name>PT6809</name></trkpt>
<trkpt lat="52.941069" lon="05.994279"><ele>8.6</ele><time>2021-03-19T11:58:44Z</time><name>PT6810</name></trkpt>
<trkpt lat="52.941060" lon="05.994290"><ele>8.6</ele><time>2021-03-19T11:58:44Z</time><name>PT6811</name></trkpt>
<trkpt lat="52.941052" lon="05.994300"><ele>8.5</ele><time>2021-03-19T11:58:46Z</time><name>PT6812</name></trkpt>
<trkpt lat="52.941042" lon="05.994313"><ele>8.4</ele><time>2021-03-19T11:58:47Z</time><name>PT6813</name></trkpt>
<trkpt lat="52.941032" lon="05.994323"><ele>8.5</ele><time>2021-03-19T11:58:47Z</time><name>PT6814</name></trkpt>
<trkpt lat="52.941022" lon="05.994332"><ele>8.3</ele><time>2021-03-19T11:58:49Z</time><name>PT6815</name></trkpt>
<trkpt lat="52.941012" lon="05.994342"><ele>8.5</ele><time>2021-03-19T11:58:50Z</time><name>PT6816</name></trkpt>
<trkpt lat="52.940998" lon="05.994359"><ele>8.6</ele><time>2021-03-19T11:58:50Z</time><name>PT6817</name></trkpt>
<trkpt lat="52.940990" lon="05.994370"><ele>8.5</ele><time>2021-03-19T11:58:52Z</time><name>PT6818</name></trkpt>
<trkpt lat="52.940979" lon="05.994380"><ele>8.6</ele><time>2021-03-19T11:58:53Z</time><name>PT6819</name></trkpt>
<trkpt lat="52.940972" lon="05.994392"><ele>8.6</ele><time>2021-03-19T11:58:53Z</time><name>PT6820</name></trkpt>
<trkpt lat="52.940963" lon="05.994401"><ele>8.7</ele><time>2021-03-19T11:58:55Z</time><name>PT6821</name></trkpt>
<trkpt lat="52.940958" lon="05.994407"><ele>8.7</ele><time>2021-03-19T11:58:56Z</time><name>PT6822</name></trkpt>
<trkpt lat="52.940947" lon="05.994418"><ele>8.7</ele><time>2021-03-19T11:58:56Z</time><name>PT6823</name></trkpt>
<trkpt lat="52.940937" lon="05.994428"><ele>8.7</ele><time>2021-03-19T11:58:58Z</time><name>PT6824</name></trkpt>
<trkpt lat="52.940927" lon="05.994438"><ele>8.6</ele><time>2021-03-19T11:58:59Z</time><name>PT6825</name></trkpt>
<trkpt lat="52.940917" lon="05.994449"><ele>8.7</ele><time>2021-03-19T11:58:59Z</time><name>PT6826</name></trkpt>
<trkpt lat="52.940907" lon="05.994458"><ele>8.6</ele><time>2021-03-19T11:59:01Z</time><name>PT6827</name></trkpt>
<trkpt lat="52.940898" lon="05.994470"><ele>8.6</ele><time>2021-03-19T11:59:02Z</time><name>PT6828</name></trkpt>
<trkpt lat="52.940889" lon="05.994476"><ele>8.7</ele><time>2021-03-19T11:59:02Z</time><name>PT6829</name></trkpt>
<trkpt lat="52.940880" lon="05.994486"><ele>8.6</ele><time>2021-03-19T11:59:04Z</time><name>PT6830</name></trkpt>
<trkpt lat="52.940869" lon="05.994498"><ele>8.5</ele><time>2021-03-19T11:59:05Z</time><name>PT6831</name></trkpt>
<trkpt lat="52.940856" lon="05.994508"><ele>8.4</ele><time>2021-03-19T11:59:05Z</time><name>PT6832</name></trkpt>
<trkpt lat="52.940845" lon="05.994516"><ele>8.6</ele><time>2021-03-19T11:59:07Z</time><name>PT6833</name></trkpt>
<trkpt lat="52.940837" lon="05.994525"><ele>8.6</ele><time>2021-03-19T11:59:08Z</time><name>PT6834</name></trkpt>
<trkpt lat="52.940825" lon="05.994534"><ele>8.6</ele><time>2021-03-19T11:59:08Z</time><name>PT6835</name></trkpt>
<trkpt lat="52.940815" lon="05.994547"><ele>8.7</ele><time>2021-03-19T11:59:10Z</time><name>PT6836</name></trkpt>
<trkpt lat="52.940807" lon="05.994557"><ele>8.7</ele><time>2021-03-19T11:59:11Z</time><name>PT6837</name></trkpt>
<trkpt lat="52.940802" lon="05.994564"><ele>8.6</ele><time>2021-03-19T11:59:11Z</time><name>PT6838</name></trkpt>
<trkpt lat="52.940794" lon="05.994572"><ele>8.6</ele><time>2021-03-19T11:59:13Z</time><name>PT6839</name></trkpt>
<trkpt lat="52.940782" lon="05.994585"><ele>8.6</ele><time>2021-03-19T11:59:14Z</time><name>PT6840</name></trkpt>
<trkpt lat="52.940772" lon="05.994595"><ele>8.6</ele><time>2021-03-19T11:59:14Z</time><name>PT6841</name></trkpt>
<trkpt lat="52.940761" lon="05.994602"><ele>8.6</ele><time>2021-03-19T11:59:16Z</time><name>PT6842</name></trkpt>
<trkpt lat="52.940750" lon="05.994609"><ele>8.6</ele><time>2021-03-19T11:59:17Z</time><name>PT6843</name></trkpt>
<trkpt lat="52.940738" lon="05.994614"><ele>8.6</ele><time>2021-03-19T11:59:17Z</time><name>PT6844</name></trkpt>
<trkpt lat="52.940730" lon="05.994623"><ele>8.6</ele><time>2021-03-19T11:59:19Z</time><name>PT6845</name></trkpt>
<trkpt lat="52.940723" lon="05.994628"><ele>8.3</ele><time>2021-03-19T11:59:20Z</time><name>PT6846</name></trkpt>
<trkpt lat="52.940713" lon="05.994637"><ele>8.3</ele><time>2021-03-19T11:59:20Z</time><name>PT6847</name></trkpt>
<trkpt lat="52.940702" lon="05.994646"><ele>8.4</ele><time>2021-03-19T11:59:22Z</time><name>PT6848</name></trkpt>
<trkpt lat="52.940695" lon="05.994656"><ele>8.5</ele><time>2021-03-19T11:59:23Z</time><name>PT6849</name></trkpt>
<trkpt lat="52.940684" lon="05.994668"><ele>8.5</ele><time>2021-03-19T11:59:23Z</time><name>PT6850</name></trkpt>
<trkpt lat="52.940670" lon="05.994678"><ele>8.6</ele><time>2021-03-19T11:59:25Z</time><name>PT6851</name></trkpt>
<trkpt lat="52.940661" lon="05.994687"><ele>8.8</ele><time>2021-03-19T11:59:26Z</time><name>PT6852</name></trkpt>
<trkpt lat="52.940650" lon="05.994696"><ele>8.8</ele><time>2021-03-19T11:59:26Z</time><name>PT6853</name></trkpt>
<trkpt lat="52.940641" lon="05.994706"><ele>8.9</ele><time>2021-03-19T11:59:28Z</time><name>PT6854</name></trkpt>
<trkpt lat="52.940632" lon="05.994719"><ele>8.8</ele><time>2021-03-19T11:59:29Z</time><name>PT6855</name></trkpt>
<trkpt lat="52.940625" lon="05.994733"><ele>8.8</ele><time>2021-03-19T11:59:29Z</time><name>PT6856</name></trkpt>
<trkpt lat="52.940615" lon="05.994745"><ele>8.6</ele><time>2021-03-19T11:59:31Z</time><name>PT6857</name></trkpt>
<trkpt lat="52.940603" lon="05.994757"><ele>8.4</ele><time>2021-03-19T11:59:32Z</time><name>PT6858</name></trkpt>
<trkpt lat="52.940592" lon="05.994766"><ele>8.4</ele><time>2021-03-19T11:59:32Z</time><name>PT6859</name></trkpt>
<trkpt lat="52.940581" lon="05.994778"><ele>8.5</ele><time>2021-03-19T11:59:34Z</time><name>PT6860</name></trkpt>
<trkpt lat="52.940572" lon="05.994790"><ele>8.4</ele><time>2021-03-19T11:59:35Z</time><name>PT6861</name></trkpt>
<trkpt lat="52.940563" lon="05.994800"><ele>8.5</ele><time>2021-03-19T11:59:36Z</time><name>PT6862</name></trkpt>
<trkpt lat="52.940551" lon="05.994811"><ele>8.7</ele><time>2021-03-19T11:59:37Z</time><name>PT6863</name></trkpt>
<trkpt lat="52.940546" lon="05.994816"><ele>9</ele><time>2021-03-19T11:59:38Z</time><name>PT6864</name></trkpt>
<trkpt lat="52.940538" lon="05.994826"><ele>9</ele><time>2021-03-19T11:59:39Z</time><name>PT6865</name></trkpt>
<trkpt lat="52.940530" lon="05.994836"><ele>9</ele><time>2021-03-19T11:59:40Z</time><name>PT6866</name></trkpt>
<trkpt lat="52.940520" lon="05.994846"><ele>8.8</ele><time>2021-03-19T11:59:41Z</time><name>PT6867</name></trkpt>
<trkpt lat="52.940507" lon="05.994859"><ele>8.7</ele><time>2021-03-19T11:59:42Z</time><name>PT6868</name></trkpt>
<trkpt lat="52.940496" lon="05.994868"><ele>8.6</ele><time>2021-03-19T11:59:43Z</time><name>PT6869</name></trkpt>
<trkpt lat="52.940486" lon="05.994876"><ele>8.6</ele><time>2021-03-19T11:59:44Z</time><name>PT6870</name></trkpt>
<trkpt lat="52.940476" lon="05.994883"><ele>8.6</ele><time>2021-03-19T11:59:45Z</time><name>PT6871</name></trkpt>
<trkpt lat="52.940466" lon="05.994896"><ele>8.6</ele><time>2021-03-19T11:59:46Z</time><name>PT6872</name></trkpt>
<trkpt lat="52.940457" lon="05.994904"><ele>8.6</ele><time>2021-03-19T11:59:47Z</time><name>PT6873</name></trkpt>
<trkpt lat="52.940447" lon="05.994917"><ele>8.6</ele><time>2021-03-19T11:59:47Z</time><name>PT6874</name></trkpt>
<trkpt lat="52.940439" lon="05.994929"><ele>8.4</ele><time>2021-03-19T11:59:49Z</time><name>PT6875</name></trkpt>
<trkpt lat="52.940429" lon="05.994938"><ele>8.2</ele><time>2021-03-19T11:59:50Z</time><name>PT6876</name></trkpt>
<trkpt lat="52.940415" lon="05.994946"><ele>8.2</ele><time>2021-03-19T11:59:50Z</time><name>PT6877</name></trkpt>
<trkpt lat="52.940403" lon="05.994956"><ele>8.2</ele><time>2021-03-19T11:59:52Z</time><name>PT6878</name></trkpt>
<trkpt lat="52.940395" lon="05.994965"><ele>8.3</ele><time>2021-03-19T11:59:53Z</time><name>PT6879</name></trkpt>
<trkpt lat="52.940387" lon="05.994977"><ele>8.5</ele><time>2021-03-19T11:59:54Z</time><name>PT6880</name></trkpt>
<trkpt lat="52.940376" lon="05.994990"><ele>8.6</ele><time>2021-03-19T11:59:55Z</time><name>PT6881</name></trkpt>
<trkpt lat="52.940365" lon="05.995005"><ele>8.6</ele><time>2021-03-19T11:59:56Z</time><name>PT6882</name></trkpt>
<trkpt lat="52.940356" lon="05.995015"><ele>8.7</ele><time>2021-03-19T11:59:56Z</time><name>PT6883</name></trkpt>
<trkpt lat="52.940346" lon="05.995024"><ele>8.7</ele><time>2021-03-19T11:59:58Z</time><name>PT6884</name></trkpt>
<trkpt lat="52.940334" lon="05.995033"><ele>8.7</ele><time>2021-03-19T11:59:59Z</time><name>PT6885</name></trkpt>
<trkpt lat="52.940325" lon="05.995039"><ele>8.8</ele><time>2021-03-19T11:59:59Z</time><name>PT6886</name></trkpt>
<trkpt lat="52.940315" lon="05.995047"><ele>8.8</ele><time>2021-03-19T12:00:01Z</time><name>PT6887</name></trkpt>
<trkpt lat="52.940302" lon="05.995058"><ele>8.9</ele><time>2021-03-19T12:00:02Z</time><name>PT6888</name></trkpt>
<trkpt lat="52.940294" lon="05.995064"><ele>8.8</ele><time>2021-03-19T12:00:02Z</time><name>PT6889</name></trkpt>
<trkpt lat="52.940288" lon="05.995070"><ele>9.1</ele><time>2021-03-19T12:00:04Z</time><name>PT6890</name></trkpt>
<trkpt lat="52.940279" lon="05.995078"><ele>9.1</ele><time>2021-03-19T12:00:05Z</time><name>PT6891</name></trkpt>
<trkpt lat="52.940268" lon="05.995088"><ele>9.1</ele><time>2021-03-19T12:00:05Z</time><name>PT6892</name></trkpt>
<trkpt lat="52.940261" lon="05.995092"><ele>9.1</ele><time>2021-03-19T12:00:07Z</time><name>PT6893</name></trkpt>
<trkpt lat="52.940253" lon="05.995100"><ele>9</ele><time>2021-03-19T12:00:08Z</time><name>PT6894</name></trkpt>
<trkpt lat="52.940245" lon="05.995108"><ele>9.1</ele><time>2021-03-19T12:00:08Z</time><name>PT6895</name></trkpt>
<trkpt lat="52.940231" lon="05.995120"><ele>8.9</ele><time>2021-03-19T12:00:10Z</time><name>PT6896</name></trkpt>
<trkpt lat="52.940223" lon="05.995127"><ele>8.8</ele><time>2021-03-19T12:00:11Z</time><name>PT6897</name></trkpt>
<trkpt lat="52.940213" lon="05.995136"><ele>8.9</ele><time>2021-03-19T12:00:11Z</time><name>PT6898</name></trkpt>
<trkpt lat="52.940203" lon="05.995144"><ele>8.8</ele><time>2021-03-19T12:00:13Z</time><name>PT6899</name></trkpt>
<trkpt lat="52.940193" lon="05.995153"><ele>8.7</ele><time>2021-03-19T12:00:14Z</time><name>PT6900</name></trkpt>
<trkpt lat="52.940181" lon="05.995160"><ele>8.6</ele><time>2021-03-19T12:00:14Z</time><name>PT6901</name></trkpt>
<trkpt lat="52.940175" lon="05.995169"><ele>8.7</ele><time>2021-03-19T12:00:16Z</time><name>PT6902</name></trkpt>
<trkpt lat="52.940166" lon="05.995181"><ele>8.5</ele><time>2021-03-19T12:00:17Z</time><name>PT6903</name></trkpt>
<trkpt lat="52.940158" lon="05.995193"><ele>8.5</ele><time>2021-03-19T12:00:17Z</time><name>PT6904</name></trkpt>
<trkpt lat="52.940151" lon="05.995206"><ele>8.5</ele><time>2021-03-19T12:00:19Z</time><name>PT6905</name></trkpt>
<trkpt lat="52.940143" lon="05.995218"><ele>8.6</ele><time>2021-03-19T12:00:20Z</time><name>PT6906</name></trkpt>
<trkpt lat="52.940133" lon="05.995226"><ele>8.8</ele><time>2021-03-19T12:00:20Z</time><name>PT6907</name></trkpt>
<trkpt lat="52.940124" lon="05.995238"><ele>9</ele><time>2021-03-19T12:00:22Z</time><name>PT6908</name></trkpt>
<trkpt lat="52.940115" lon="05.995249"><ele>9</ele><time>2021-03-19T12:00:23Z</time><name>PT6909</name></trkpt>
<trkpt lat="52.940106" lon="05.995254"><ele>9</ele><time>2021-03-19T12:00:23Z</time><name>PT6910</name></trkpt>
<trkpt lat="52.940096" lon="05.995266"><ele>8.8</ele><time>2021-03-19T12:00:25Z</time><name>PT6911</name></trkpt>
<trkpt lat="52.940087" lon="05.995278"><ele>8.7</ele><time>2021-03-19T12:00:26Z</time><name>PT6912</name></trkpt>
<trkpt lat="52.940079" lon="05.995290"><ele>8.7</ele><time>2021-03-19T12:00:26Z</time><name>PT6913</name></trkpt>
<trkpt lat="52.940069" lon="05.995302"><ele>8.7</ele><time>2021-03-19T12:00:28Z</time><name>PT6914</name></trkpt>
<trkpt lat="52.940057" lon="05.995315"><ele>8.7</ele><time>2021-03-19T12:00:29Z</time><name>PT6915</name></trkpt>
<trkpt lat="52.940047" lon="05.995325"><ele>8.7</ele><time>2021-03-19T12:00:29Z</time><name>PT6916</name></trkpt>
<trkpt lat="52.940037" lon="05.995335"><ele>8.7</ele><time>2021-03-19T12:00:31Z</time><name>PT6917</name></trkpt>
<trkpt lat="52.940023" lon="05.995341"><ele>8.7</ele><time>2021-03-19T12:00:32Z</time><name>PT6918</name></trkpt>
<trkpt lat="52.940010" lon="05.995352"><ele>8.8</ele><time>2021-03-19T12:00:32Z</time><name>PT6919</name></trkpt>
<trkpt lat="52.939999" lon="05.995367"><ele>8.8</ele><time>2021-03-19T12:00:34Z</time><name>PT6920</name></trkpt>
<trkpt lat="52.939989" lon="05.995382"><ele>8.7</ele><time>2021-03-19T12:00:35Z</time><name>PT6921</name></trkpt>
<trkpt lat="52.939980" lon="05.995395"><ele>8.8</ele><time>2021-03-19T12:00:35Z</time><name>PT6922</name></trkpt>
<trkpt lat="52.939970" lon="05.995406"><ele>8.9</ele><time>2021-03-19T12:00:37Z</time><name>PT6923</name></trkpt>
<trkpt lat="52.939960" lon="05.995415"><ele>8.9</ele><time>2021-03-19T12:00:38Z</time><name>PT6924</name></trkpt>
<trkpt lat="52.939950" lon="05.995425"><ele>8.8</ele><time>2021-03-19T12:00:38Z</time><name>PT6925</name></trkpt>
<trkpt lat="52.939943" lon="05.995433"><ele>8.8</ele><time>2021-03-19T12:00:40Z</time><name>PT6926</name></trkpt>
<trkpt lat="52.939935" lon="05.995442"><ele>8.8</ele><time>2021-03-19T12:00:41Z</time><name>PT6927</name></trkpt>
<trkpt lat="52.939928" lon="05.995454"><ele>8.8</ele><time>2021-03-19T12:00:42Z</time><name>PT6928</name></trkpt>
<trkpt lat="52.939919" lon="05.995466"><ele>8.9</ele><time>2021-03-19T12:00:43Z</time><name>PT6929</name></trkpt>
<trkpt lat="52.939909" lon="05.995472"><ele>9.1</ele><time>2021-03-19T12:00:44Z</time><name>PT6930</name></trkpt>
<trkpt lat="52.939896" lon="05.995479"><ele>9</ele><time>2021-03-19T12:00:44Z</time><name>PT6931</name></trkpt>
<trkpt lat="52.939885" lon="05.995490"><ele>8.9</ele><time>2021-03-19T12:00:46Z</time><name>PT6932</name></trkpt>
<trkpt lat="52.939875" lon="05.995500"><ele>8.8</ele><time>2021-03-19T12:00:47Z</time><name>PT6933</name></trkpt>
<trkpt lat="52.939866" lon="05.995509"><ele>8.9</ele><time>2021-03-19T12:00:47Z</time><name>PT6934</name></trkpt>
<trkpt lat="52.939856" lon="05.995516"><ele>8.9</ele><time>2021-03-19T12:00:49Z</time><name>PT6935</name></trkpt>
<trkpt lat="52.939843" lon="05.995528"><ele>9</ele><time>2021-03-19T12:00:50Z</time><name>PT6936</name></trkpt>
<trkpt lat="52.939826" lon="05.995549"><ele>8.8</ele><time>2021-03-19T12:00:51Z</time><name>PT6937</name></trkpt>
<trkpt lat="52.939812" lon="05.995564"><ele>8.9</ele><time>2021-03-19T12:00:52Z</time><name>PT6938</name></trkpt>
<trkpt lat="52.939797" lon="05.995577"><ele>8.7</ele><time>2021-03-19T12:00:53Z</time><name>PT6939</name></trkpt>
<trkpt lat="52.939786" lon="05.995592"><ele>8.8</ele><time>2021-03-19T12:00:53Z</time><name>PT6940</name></trkpt>
<trkpt lat="52.939775" lon="05.995597"><ele>8.6</ele><time>2021-03-19T12:00:55Z</time><name>PT6941</name></trkpt>
<trkpt lat="52.939769" lon="05.995603"><ele>8.6</ele><time>2021-03-19T12:00:56Z</time><name>PT6942</name></trkpt>
<trkpt lat="52.939760" lon="05.995615"><ele>8.6</ele><time>2021-03-19T12:00:56Z</time><name>PT6943</name></trkpt>
<trkpt lat="52.939752" lon="05.995623"><ele>8.6</ele><time>2021-03-19T12:00:58Z</time><name>PT6944</name></trkpt>
<trkpt lat="52.939744" lon="05.995635"><ele>8.8</ele><time>2021-03-19T12:00:59Z</time><name>PT6945</name></trkpt>
<trkpt lat="52.939734" lon="05.995645"><ele>8.8</ele><time>2021-03-19T12:00:59Z</time><name>PT6946</name></trkpt>
<trkpt lat="52.939725" lon="05.995653"><ele>8.9</ele><time>2021-03-19T12:01:01Z</time><name>PT6947</name></trkpt>
<trkpt lat="52.939714" lon="05.995660"><ele>9</ele><time>2021-03-19T12:01:02Z</time><name>PT6948</name></trkpt>
<trkpt lat="52.939704" lon="05.995668"><ele>9</ele><time>2021-03-19T12:01:02Z</time><name>PT6949</name></trkpt>
<trkpt lat="52.939697" lon="05.995673"><ele>8.9</ele><time>2021-03-19T12:01:04Z</time><name>PT6950</name></trkpt>
<trkpt lat="52.939690" lon="05.995684"><ele>8.9</ele><time>2021-03-19T12:01:05Z</time><name>PT6951</name></trkpt>
<trkpt lat="52.939679" lon="05.995694"><ele>9</ele><time>2021-03-19T12:01:05Z</time><name>PT6952</name></trkpt>
<trkpt lat="52.939669" lon="05.995703"><ele>9.1</ele><time>2021-03-19T12:01:07Z</time><name>PT6953</name></trkpt>
<trkpt lat="52.939658" lon="05.995714"><ele>9.1</ele><time>2021-03-19T12:01:08Z</time><name>PT6954</name></trkpt>
<trkpt lat="52.939647" lon="05.995725"><ele>9.2</ele><time>2021-03-19T12:01:08Z</time><name>PT6955</name></trkpt>
<trkpt lat="52.939636" lon="05.995738"><ele>9.1</ele><time>2021-03-19T12:01:10Z</time><name>PT6956</name></trkpt>
<trkpt lat="52.939628" lon="05.995745"><ele>9.1</ele><time>2021-03-19T12:01:11Z</time><name>PT6957</name></trkpt>
<trkpt lat="52.939620" lon="05.995749"><ele>9.1</ele><time>2021-03-19T12:01:11Z</time><name>PT6958</name></trkpt>
<trkpt lat="52.939611" lon="05.995761"><ele>9.1</ele><time>2021-03-19T12:01:13Z</time><name>PT6959</name></trkpt>
<trkpt lat="52.939601" lon="05.995769"><ele>9</ele><time>2021-03-19T12:01:14Z</time><name>PT6960</name></trkpt>
<trkpt lat="52.939593" lon="05.995779"><ele>9.1</ele><time>2021-03-19T12:01:14Z</time><name>PT6961</name></trkpt>
<trkpt lat="52.939587" lon="05.995790"><ele>9.1</ele><time>2021-03-19T12:01:16Z</time><name>PT6962</name></trkpt>
<trkpt lat="52.939580" lon="05.995799"><ele>9.1</ele><time>2021-03-19T12:01:17Z</time><name>PT6963</name></trkpt>
<trkpt lat="52.939571" lon="05.995809"><ele>9.1</ele><time>2021-03-19T12:01:17Z</time><name>PT6964</name></trkpt>
<trkpt lat="52.939564" lon="05.995817"><ele>9.1</ele><time>2021-03-19T12:01:19Z</time><name>PT6965</name></trkpt>
<trkpt lat="52.939554" lon="05.995829"><ele>9.1</ele><time>2021-03-19T12:01:20Z</time><name>PT6966</name></trkpt>
<trkpt lat="52.939544" lon="05.995839"><ele>8.8</ele><time>2021-03-19T12:01:20Z</time><name>PT6967</name></trkpt>
<trkpt lat="52.939538" lon="05.995850"><ele>8.8</ele><time>2021-03-19T12:01:22Z</time><name>PT6968</name></trkpt>
<trkpt lat="52.939529" lon="05.995857"><ele>9</ele><time>2021-03-19T12:01:23Z</time><name>PT6969</name></trkpt>
<trkpt lat="52.939519" lon="05.995863"><ele>9.1</ele><time>2021-03-19T12:01:23Z</time><name>PT6970</name></trkpt>
<trkpt lat="52.939507" lon="05.995871"><ele>9.2</ele><time>2021-03-19T12:01:25Z</time><name>PT6971</name></trkpt>
<trkpt lat="52.939495" lon="05.995878"><ele>9.4</ele><time>2021-03-19T12:01:26Z</time><name>PT6972</name></trkpt>
<trkpt lat="52.939485" lon="05.995887"><ele>9.4</ele><time>2021-03-19T12:01:26Z</time><name>PT6973</name></trkpt>
<trkpt lat="52.939474" lon="05.995898"><ele>9.1</ele><time>2021-03-19T12:01:28Z</time><name>PT6974</name></trkpt>
<trkpt lat="52.939465" lon="05.995906"><ele>9</ele><time>2021-03-19T12:01:29Z</time><name>PT6975</name></trkpt>
<trkpt lat="52.939460" lon="05.995910"><ele>8.9</ele><time>2021-03-19T12:01:29Z</time><name>PT6976</name></trkpt>
<trkpt lat="52.939451" lon="05.995915"><ele>8.8</ele><time>2021-03-19T12:01:31Z</time><name>PT6977</name></trkpt>
<trkpt lat="52.939440" lon="05.995921"><ele>8.9</ele><time>2021-03-19T12:01:32Z</time><name>PT6978</name></trkpt>
<trkpt lat="52.939427" lon="05.995931"><ele>9</ele><time>2021-03-19T12:01:32Z</time><name>PT6979</name></trkpt>
<trkpt lat="52.939416" lon="05.995939"><ele>9</ele><time>2021-03-19T12:01:34Z</time><name>PT6980</name></trkpt>
<trkpt lat="52.939406" lon="05.995950"><ele>8.9</ele><time>2021-03-19T12:01:35Z</time><name>PT6981</name></trkpt>
<trkpt lat="52.939395" lon="05.995958"><ele>8.8</ele><time>2021-03-19T12:01:35Z</time><name>PT6982</name></trkpt>
<trkpt lat="52.939382" lon="05.995971"><ele>8.7</ele><time>2021-03-19T12:01:37Z</time><name>PT6983</name></trkpt>
<trkpt lat="52.939372" lon="05.995982"><ele>8.7</ele><time>2021-03-19T12:01:38Z</time><name>PT6984</name></trkpt>
<trkpt lat="52.939367" lon="05.995986"><ele>8.7</ele><time>2021-03-19T12:01:38Z</time><name>PT6985</name></trkpt>
<trkpt lat="52.939362" lon="05.995991"><ele>8.7</ele><time>2021-03-19T12:01:40Z</time><name>PT6986</name></trkpt>
<trkpt lat="52.939353" lon="05.995995"><ele>8.9</ele><time>2021-03-19T12:01:41Z</time><name>PT6987</name></trkpt>
<trkpt lat="52.939346" lon="05.996003"><ele>9</ele><time>2021-03-19T12:01:41Z</time><name>PT6988</name></trkpt>
<trkpt lat="52.939337" lon="05.996012"><ele>9.1</ele><time>2021-03-19T12:01:43Z</time><name>PT6989</name></trkpt>
<trkpt lat="52.939332" lon="05.996016"><ele>9.1</ele><time>2021-03-19T12:01:44Z</time><name>PT6990</name></trkpt>
<trkpt lat="52.939328" lon="05.996020"><ele>9.1</ele><time>2021-03-19T12:01:44Z</time><name>PT6991</name></trkpt>
<trkpt lat="52.939325" lon="05.996026"><ele>9.1</ele><time>2021-03-19T12:01:50Z</time><name>PT6992</name></trkpt>
<trkpt lat="52.939318" lon="05.996036"><ele>9.1</ele><time>2021-03-19T12:01:50Z</time><name>PT6993</name></trkpt>
<trkpt lat="52.939310" lon="05.996051"><ele>9.2</ele><time>2021-03-19T12:01:52Z</time><name>PT6994</name></trkpt>
<trkpt lat="52.939301" lon="05.996063"><ele>9.1</ele><time>2021-03-19T12:01:53Z</time><name>PT6995</name></trkpt>
<trkpt lat="52.939291" lon="05.996074"><ele>9.1</ele><time>2021-03-19T12:01:53Z</time><name>PT6996</name></trkpt>
<trkpt lat="52.939279" lon="05.996097"><ele>8.9</ele><time>2021-03-19T12:01:55Z</time><name>PT6997</name></trkpt>
<trkpt lat="52.939270" lon="05.996110"><ele>8.7</ele><time>2021-03-19T12:01:56Z</time><name>PT6998</name></trkpt>
<trkpt lat="52.939258" lon="05.996122"><ele>8.7</ele><time>2021-03-19T12:01:56Z</time><name>PT6999</name></trkpt>
<trkpt lat="52.939246" lon="05.996140"><ele>8.9</ele><time>2021-03-19T12:01:58Z</time><name>PT7000</name></trkpt>
<trkpt lat="52.939237" lon="05.996151"><ele>8.9</ele><time>2021-03-19T12:01:59Z</time><name>PT7001</name></trkpt>
<trkpt lat="52.939229" lon="05.996161"><ele>9</ele><time>2021-03-19T12:01:59Z</time><name>PT7002</name></trkpt>
<trkpt lat="52.939221" lon="05.996172"><ele>9</ele><time>2021-03-19T12:02:01Z</time><name>PT7003</name></trkpt>
<trkpt lat="52.939212" lon="05.996180"><ele>9.1</ele><time>2021-03-19T12:02:02Z</time><name>PT7004</name></trkpt>
<trkpt lat="52.939199" lon="05.996190"><ele>9.1</ele><time>2021-03-19T12:02:02Z</time><name>PT7005</name></trkpt>
<trkpt lat="52.939187" lon="05.996196"><ele>9.1</ele><time>2021-03-19T12:02:04Z</time><name>PT7006</name></trkpt>
<trkpt lat="52.939169" lon="05.996200"><ele>9</ele><time>2021-03-19T12:02:05Z</time><name>PT7007</name></trkpt>
<trkpt lat="52.939153" lon="05.996210"><ele>9.1</ele><time>2021-03-19T12:02:05Z</time><name>PT7008</name></trkpt>
<trkpt lat="52.939143" lon="05.996216"><ele>9.1</ele><time>2021-03-19T12:02:07Z</time><name>PT7009</name></trkpt>
<trkpt lat="52.939133" lon="05.996226"><ele>9.1</ele><time>2021-03-19T12:02:08Z</time><name>PT7010</name></trkpt>
<trkpt lat="52.939126" lon="05.996231"><ele>9</ele><time>2021-03-19T12:02:08Z</time><name>PT7011</name></trkpt>
<trkpt lat="52.939118" lon="05.996237"><ele>8.8</ele><time>2021-03-19T12:02:10Z</time><name>PT7012</name></trkpt>
<trkpt lat="52.939109" lon="05.996243"><ele>8.7</ele><time>2021-03-19T12:02:11Z</time><name>PT7013</name></trkpt>
<trkpt lat="52.939104" lon="05.996247"><ele>8.7</ele><time>2021-03-19T12:02:11Z</time><name>PT7014</name></trkpt>
<trkpt lat="52.939094" lon="05.996253"><ele>8.6</ele><time>2021-03-19T12:02:13Z</time><name>PT7015</name></trkpt>
<trkpt lat="52.939088" lon="05.996259"><ele>8.8</ele><time>2021-03-19T12:02:14Z</time><name>PT7016</name></trkpt>
<trkpt lat="52.939080" lon="05.996261"><ele>8.8</ele><time>2021-03-19T12:02:14Z</time><name>PT7017</name></trkpt>
<trkpt lat="52.939072" lon="05.996265"><ele>8.8</ele><time>2021-03-19T12:02:16Z</time><name>PT7018</name></trkpt>
<trkpt lat="52.939063" lon="05.996270"><ele>8.8</ele><time>2021-03-19T12:02:17Z</time><name>PT7019</name></trkpt>
<trkpt lat="52.939056" lon="05.996278"><ele>8.9</ele><time>2021-03-19T12:02:17Z</time><name>PT7020</name></trkpt>
<trkpt lat="52.939049" lon="05.996285"><ele>8.8</ele><time>2021-03-19T12:02:19Z</time><name>PT7021</name></trkpt>
<trkpt lat="52.939038" lon="05.996293"><ele>8.8</ele><time>2021-03-19T12:02:20Z</time><name>PT7022</name></trkpt>
<trkpt lat="52.939029" lon="05.996299"><ele>8.8</ele><time>2021-03-19T12:02:20Z</time><name>PT7023</name></trkpt>
<trkpt lat="52.939024" lon="05.996309"><ele>8.8</ele><time>2021-03-19T12:02:22Z</time><name>PT7024</name></trkpt>
<trkpt lat="52.939017" lon="05.996316"><ele>9</ele><time>2021-03-19T12:02:23Z</time><name>PT7025</name></trkpt>
<trkpt lat="52.939011" lon="05.996322"><ele>9</ele><time>2021-03-19T12:02:23Z</time><name>PT7026</name></trkpt>
<trkpt lat="52.939006" lon="05.996328"><ele>9</ele><time>2021-03-19T12:02:25Z</time><name>PT7027</name></trkpt>
<trkpt lat="52.939001" lon="05.996335"><ele>8.9</ele><time>2021-03-19T12:02:26Z</time><name>PT7028</name></trkpt>
<trkpt lat="52.938992" lon="05.996348"><ele>9</ele><time>2021-03-19T12:02:26Z</time><name>PT7029</name></trkpt>
<trkpt lat="52.938980" lon="05.996361"><ele>8.9</ele><time>2021-03-19T12:02:28Z</time><name>PT7030</name></trkpt>
<trkpt lat="52.938971" lon="05.996368"><ele>8.8</ele><time>2021-03-19T12:02:29Z</time><name>PT7031</name></trkpt>
<trkpt lat="52.938964" lon="05.996377"><ele>8.9</ele><time>2021-03-19T12:02:29Z</time><name>PT7032</name></trkpt>
<trkpt lat="52.938953" lon="05.996391"><ele>8.9</ele><time>2021-03-19T12:02:31Z</time><name>PT7033</name></trkpt>
<trkpt lat="52.938946" lon="05.996401"><ele>9</ele><time>2021-03-19T12:02:32Z</time><name>PT7034</name></trkpt>
<trkpt lat="52.938938" lon="05.996413"><ele>9</ele><time>2021-03-19T12:02:33Z</time><name>PT7035</name></trkpt>
<trkpt lat="52.938932" lon="05.996425"><ele>9.1</ele><time>2021-03-19T12:02:34Z</time><name>PT7036</name></trkpt>
<trkpt lat="52.938928" lon="05.996437"><ele>8.9</ele><time>2021-03-19T12:02:35Z</time><name>PT7037</name></trkpt>
<trkpt lat="52.938926" lon="05.996445"><ele>8.7</ele><time>2021-03-19T12:02:35Z</time><name>PT7038</name></trkpt>
<trkpt lat="52.938926" lon="05.996458"><ele>8.6</ele><time>2021-03-19T12:02:37Z</time><name>PT7039</name></trkpt>
<trkpt lat="52.938927" lon="05.996469"><ele>8.3</ele><time>2021-03-19T12:02:38Z</time><name>PT7040</name></trkpt>
<trkpt lat="52.938928" lon="05.996485"><ele>8.3</ele><time>2021-03-19T12:02:38Z</time><name>PT7041</name></trkpt>
<trkpt lat="52.938930" lon="05.996498"><ele>8.3</ele><time>2021-03-19T12:02:40Z</time><name>PT7042</name></trkpt>
<trkpt lat="52.938934" lon="05.996509"><ele>8.4</ele><time>2021-03-19T12:02:41Z</time><name>PT7043</name></trkpt>
<trkpt lat="52.938938" lon="05.996519"><ele>8.4</ele><time>2021-03-19T12:02:41Z</time><name>PT7044</name></trkpt>
<trkpt lat="52.938942" lon="05.996527"><ele>8.6</ele><time>2021-03-19T12:02:43Z</time><name>PT7045</name></trkpt>
<trkpt lat="52.938949" lon="05.996539"><ele>8.4</ele><time>2021-03-19T12:02:44Z</time><name>PT7046</name></trkpt>
<trkpt lat="52.938955" lon="05.996545"><ele>8.6</ele><time>2021-03-19T12:02:44Z</time><name>PT7047</name></trkpt>
<trkpt lat="52.938960" lon="05.996552"><ele>8.8</ele><time>2021-03-19T12:02:46Z</time><name>PT7048</name></trkpt>
<trkpt lat="52.938961" lon="05.996553"><ele>8.9</ele><time>2021-03-19T12:02:47Z</time><name>PT7049</name></trkpt>
<trkpt lat="52.938967" lon="05.996561"><ele>8.9</ele><time>2021-03-19T12:02:47Z</time><name>PT7050</name></trkpt>
<trkpt lat="52.938972" lon="05.996570"><ele>9</ele><time>2021-03-19T12:02:49Z</time><name>PT7051</name></trkpt>
<trkpt lat="52.938979" lon="05.996581"><ele>8.8</ele><time>2021-03-19T12:02:50Z</time><name>PT7052</name></trkpt>
<trkpt lat="52.938985" lon="05.996596"><ele>8.6</ele><time>2021-03-19T12:02:50Z</time><name>PT7053</name></trkpt>
<trkpt lat="52.938990" lon="05.996608"><ele>8.6</ele><time>2021-03-19T12:02:52Z</time><name>PT7054</name></trkpt>
<trkpt lat="52.938992" lon="05.996623"><ele>8.4</ele><time>2021-03-19T12:02:53Z</time><name>PT7055</name></trkpt>
<trkpt lat="52.938997" lon="05.996641"><ele>8.2</ele><time>2021-03-19T12:02:53Z</time><name>PT7056</name></trkpt>
<trkpt lat="52.939002" lon="05.996658"><ele>8.3</ele><time>2021-03-19T12:02:55Z</time><name>PT7057</name></trkpt>
<trkpt lat="52.939006" lon="05.996672"><ele>8.3</ele><time>2021-03-19T12:02:56Z</time><name>PT7058</name></trkpt>
<trkpt lat="52.939012" lon="05.996683"><ele>8.4</ele><time>2021-03-19T12:02:56Z</time><name>PT7059</name></trkpt>
<trkpt lat="52.939012" lon="05.996703"><ele>8.6</ele><time>2021-03-19T12:02:58Z</time><name>PT7060</name></trkpt>
<trkpt lat="52.939012" lon="05.996717"><ele>8.6</ele><time>2021-03-19T12:02:59Z</time><name>PT7061</name></trkpt>
<trkpt lat="52.939013" lon="05.996732"><ele>8.6</ele><time>2021-03-19T12:02:59Z</time><name>PT7062</name></trkpt>
<trkpt lat="52.939015" lon="05.996746"><ele>8.7</ele><time>2021-03-19T12:03:01Z</time><name>PT7063</name></trkpt>
<trkpt lat="52.939017" lon="05.996767"><ele>8.9</ele><time>2021-03-19T12:03:02Z</time><name>PT7064</name></trkpt>
<trkpt lat="52.939023" lon="05.996780"><ele>8.9</ele><time>2021-03-19T12:03:02Z</time><name>PT7065</name></trkpt>
<trkpt lat="52.939024" lon="05.996793"><ele>8.8</ele><time>2021-03-19T12:03:04Z</time><name>PT7066</name></trkpt>
<trkpt lat="52.939027" lon="05.996801"><ele>8.9</ele><time>2021-03-19T12:03:05Z</time><name>PT7067</name></trkpt>
<trkpt lat="52.939029" lon="05.996811"><ele>8.8</ele><time>2021-03-19T12:03:05Z</time><name>PT7068</name></trkpt>
<trkpt lat="52.939028" lon="05.996826"><ele>9</ele><time>2021-03-19T12:03:07Z</time><name>PT7069</name></trkpt>
<trkpt lat="52.939029" lon="05.996841"><ele>9</ele><time>2021-03-19T12:03:08Z</time><name>PT7070</name></trkpt>
<trkpt lat="52.939031" lon="05.996855"><ele>8.9</ele><time>2021-03-19T12:03:08Z</time><name>PT7071</name></trkpt>
<trkpt lat="52.939032" lon="05.996869"><ele>8.8</ele><time>2021-03-19T12:03:10Z</time><name>PT7072</name></trkpt>
<trkpt lat="52.939032" lon="05.996882"><ele>8.7</ele><time>2021-03-19T12:03:11Z</time><name>PT7073</name></trkpt>
<trkpt lat="52.939034" lon="05.996900"><ele>8.6</ele><time>2021-03-19T12:03:11Z</time><name>PT7074</name></trkpt>
<trkpt lat="52.939032" lon="05.996916"><ele>8.7</ele><time>2021-03-19T12:03:13Z</time><name>PT7075</name></trkpt>
<trkpt lat="52.939028" lon="05.996932"><ele>8.8</ele><time>2021-03-19T12:03:14Z</time><name>PT7076</name></trkpt>
<trkpt lat="52.939029" lon="05.996948"><ele>8.7</ele><time>2021-03-19T12:03:14Z</time><name>PT7077</name></trkpt>
<trkpt lat="52.939027" lon="05.996963"><ele>8.8</ele><time>2021-03-19T12:03:16Z</time><name>PT7078</name></trkpt>
<trkpt lat="52.939028" lon="05.996977"><ele>8.8</ele><time>2021-03-19T12:03:17Z</time><name>PT7079</name></trkpt>
<trkpt lat="52.939027" lon="05.996988"><ele>8.6</ele><time>2021-03-19T12:03:17Z</time><name>PT7080</name></trkpt>
<trkpt lat="52.939022" lon="05.997009"><ele>8.7</ele><time>2021-03-19T12:03:19Z</time><name>PT7081</name></trkpt>
<trkpt lat="52.939019" lon="05.997028"><ele>8.7</ele><time>2021-03-19T12:03:20Z</time><name>PT7082</name></trkpt>
<trkpt lat="52.939016" lon="05.997040"><ele>8.7</ele><time>2021-03-19T12:03:20Z</time><name>PT7083</name></trkpt>
<trkpt lat="52.939013" lon="05.997049"><ele>8.6</ele><time>2021-03-19T12:03:22Z</time><name>PT7084</name></trkpt>
<trkpt lat="52.939013" lon="05.997053"><ele>8.8</ele><time>2021-03-19T12:03:22Z</time><name>PT7085</name></trkpt>
<trkpt lat="52.939012" lon="05.997061"><ele>8.8</ele><time>2021-03-19T12:03:24Z</time><name>PT7086</name></trkpt>
<trkpt lat="52.939008" lon="05.997074"><ele>8.8</ele><time>2021-03-19T12:03:24Z</time><name>PT7087</name></trkpt>
<trkpt lat="52.939005" lon="05.997086"><ele>8.9</ele><time>2021-03-19T12:03:26Z</time><name>PT7088</name></trkpt>
<trkpt lat="52.939003" lon="05.997103"><ele>9</ele><time>2021-03-19T12:03:26Z</time><name>PT7089</name></trkpt>
<trkpt lat="52.939000" lon="05.997119"><ele>8.9</ele><time>2021-03-19T12:03:28Z</time><name>PT7090</name></trkpt>
<trkpt lat="52.938996" lon="05.997133"><ele>9</ele><time>2021-03-19T12:03:29Z</time><name>PT7091</name></trkpt>
<trkpt lat="52.938994" lon="05.997152"><ele>9</ele><time>2021-03-19T12:03:29Z</time><name>PT7092</name></trkpt>
<trkpt lat="52.938996" lon="05.997170"><ele>9</ele><time>2021-03-19T12:03:31Z</time><name>PT7093</name></trkpt>
<trkpt lat="52.938992" lon="05.997182"><ele>9.1</ele><time>2021-03-19T12:03:32Z</time><name>PT7094</name></trkpt>
<trkpt lat="52.938989" lon="05.997193"><ele>9</ele><time>2021-03-19T12:03:32Z</time><name>PT7095</name></trkpt>
<trkpt lat="52.938986" lon="05.997213"><ele>9</ele><time>2021-03-19T12:03:34Z</time><name>PT7096</name></trkpt>
<trkpt lat="52.938981" lon="05.997235"><ele>8.7</ele><time>2021-03-19T12:03:35Z</time><name>PT7097</name></trkpt>
<trkpt lat="52.938980" lon="05.997253"><ele>8.7</ele><time>2021-03-19T12:03:35Z</time><name>PT7098</name></trkpt>
<trkpt lat="52.938980" lon="05.997271"><ele>8.6</ele><time>2021-03-19T12:03:37Z</time><name>PT7099</name></trkpt>
<trkpt lat="52.938983" lon="05.997284"><ele>8.5</ele><time>2021-03-19T12:03:38Z</time><name>PT7100</name></trkpt>
<trkpt lat="52.938983" lon="05.997301"><ele>8.4</ele><time>2021-03-19T12:03:38Z</time><name>PT7101</name></trkpt>
<trkpt lat="52.938980" lon="05.997319"><ele>8.6</ele><time>2021-03-19T12:03:40Z</time><name>PT7102</name></trkpt>
<trkpt lat="52.938978" lon="05.997330"><ele>8.2</ele><time>2021-03-19T12:03:41Z</time><name>PT7103</name></trkpt>
<trkpt lat="52.938977" lon="05.997345"><ele>8.4</ele><time>2021-03-19T12:03:41Z</time><name>PT7104</name></trkpt>
<trkpt lat="52.938968" lon="05.997353"><ele>8.1</ele><time>2021-03-19T12:03:43Z</time><name>PT7105</name></trkpt>
<trkpt lat="52.938964" lon="05.997364"><ele>8.1</ele><time>2021-03-19T12:03:44Z</time><name>PT7106</name></trkpt>
<trkpt lat="52.938980" lon="05.997386"><ele>7.9</ele><time>2021-03-19T12:03:44Z</time><name>PT7107</name></trkpt>
<trkpt lat="52.938986" lon="05.997399"><ele>7.9</ele><time>2021-03-19T12:03:46Z</time><name>PT7108</name></trkpt>
<trkpt lat="52.938992" lon="05.997412"><ele>7.8</ele><time>2021-03-19T12:03:47Z</time><name>PT7109</name></trkpt>
<trkpt lat="52.938997" lon="05.997427"><ele>8</ele><time>2021-03-19T12:03:47Z</time><name>PT7110</name></trkpt>
<trkpt lat="52.939002" lon="05.997449"><ele>8.1</ele><time>2021-03-19T12:03:49Z</time><name>PT7111</name></trkpt>
<trkpt lat="52.939005" lon="05.997466"><ele>8.1</ele><time>2021-03-19T12:03:50Z</time><name>PT7112</name></trkpt>
<trkpt lat="52.939009" lon="05.997484"><ele>8.2</ele><time>2021-03-19T12:03:50Z</time><name>PT7113</name></trkpt>
<trkpt lat="52.939014" lon="05.997510"><ele>8.5</ele><time>2021-03-19T12:03:52Z</time><name>PT7114</name></trkpt>
<trkpt lat="52.939018" lon="05.997527"><ele>8.5</ele><time>2021-03-19T12:03:53Z</time><name>PT7115</name></trkpt>
<trkpt lat="52.939023" lon="05.997540"><ele>8.5</ele><time>2021-03-19T12:03:53Z</time><name>PT7116</name></trkpt>
<trkpt lat="52.939026" lon="05.997556"><ele>8.5</ele><time>2021-03-19T12:03:55Z</time><name>PT7117</name></trkpt>
<trkpt lat="52.939032" lon="05.997574"><ele>8.3</ele><time>2021-03-19T12:03:56Z</time><name>PT7118</name></trkpt>
<trkpt lat="52.939037" lon="05.997593"><ele>8.3</ele><time>2021-03-19T12:03:56Z</time><name>PT7119</name></trkpt>
<trkpt lat="52.939041" lon="05.997604"><ele>8.1</ele><time>2021-03-19T12:03:58Z</time><name>PT7120</name></trkpt>
<trkpt lat="52.939047" lon="05.997620"><ele>8.1</ele><time>2021-03-19T12:03:59Z</time><name>PT7121</name></trkpt>
<trkpt lat="52.939054" lon="05.997641"><ele>8.1</ele><time>2021-03-19T12:03:59Z</time><name>PT7122</name></trkpt>
<trkpt lat="52.939061" lon="05.997663"><ele>8</ele><time>2021-03-19T12:04:01Z</time><name>PT7123</name></trkpt>
<trkpt lat="52.939066" lon="05.997683"><ele>8</ele><time>2021-03-19T12:04:02Z</time><name>PT7124</name></trkpt>
<trkpt lat="52.939071" lon="05.997703"><ele>8.1</ele><time>2021-03-19T12:04:02Z</time><name>PT7125</name></trkpt>
<trkpt lat="52.939075" lon="05.997726"><ele>8.1</ele><time>2021-03-19T12:04:04Z</time><name>PT7126</name></trkpt>
<trkpt lat="52.939079" lon="05.997750"><ele>8.3</ele><time>2021-03-19T12:04:05Z</time><name>PT7127</name></trkpt>
<trkpt lat="52.939085" lon="05.997770"><ele>8.1</ele><time>2021-03-19T12:04:05Z</time><name>PT7128</name></trkpt>
<trkpt lat="52.939090" lon="05.997790"><ele>8.1</ele><time>2021-03-19T12:04:07Z</time><name>PT7129</name></trkpt>
<trkpt lat="52.939100" lon="05.997812"><ele>7.8</ele><time>2021-03-19T12:04:08Z</time><name>PT7130</name></trkpt>
<trkpt lat="52.939108" lon="05.997834"><ele>7.8</ele><time>2021-03-19T12:04:08Z</time><name>PT7131</name></trkpt>
<trkpt lat="52.939112" lon="05.997848"><ele>7.7</ele><time>2021-03-19T12:04:10Z</time><name>PT7132</name></trkpt>
<trkpt lat="52.939119" lon="05.997864"><ele>7.6</ele><time>2021-03-19T12:04:11Z</time><name>PT7133</name></trkpt>
<trkpt lat="52.939125" lon="05.997881"><ele>7.6</ele><time>2021-03-19T12:04:11Z</time><name>PT7134</name></trkpt>
<trkpt lat="52.939130" lon="05.997900"><ele>7.7</ele><time>2021-03-19T12:04:13Z</time><name>PT7135</name></trkpt>
<trkpt lat="52.939136" lon="05.997920"><ele>7.8</ele><time>2021-03-19T12:04:14Z</time><name>PT7136</name></trkpt>
<trkpt lat="52.939141" lon="05.997939"><ele>7.9</ele><time>2021-03-19T12:04:14Z</time><name>PT7137</name></trkpt>
<trkpt lat="52.939145" lon="05.997957"><ele>8.1</ele><time>2021-03-19T12:04:16Z</time><name>PT7138</name></trkpt>
<trkpt lat="52.939154" lon="05.997976"><ele>8.3</ele><time>2021-03-19T12:04:17Z</time><name>PT7139</name></trkpt>
<trkpt lat="52.939160" lon="05.997991"><ele>8.4</ele><time>2021-03-19T12:04:17Z</time><name>PT7140</name></trkpt>
<trkpt lat="52.939167" lon="05.998008"><ele>8.5</ele><time>2021-03-19T12:04:19Z</time><name>PT7141</name></trkpt>
<trkpt lat="52.939173" lon="05.998027"><ele>8.5</ele><time>2021-03-19T12:04:20Z</time><name>PT7142</name></trkpt>
<trkpt lat="52.939179" lon="05.998047"><ele>8.6</ele><time>2021-03-19T12:04:20Z</time><name>PT7143</name></trkpt>
<trkpt lat="52.939185" lon="05.998065"><ele>8.3</ele><time>2021-03-19T12:04:22Z</time><name>PT7144</name></trkpt>
<trkpt lat="52.939190" lon="05.998083"><ele>8.2</ele><time>2021-03-19T12:04:23Z</time><name>PT7145</name></trkpt>
<trkpt lat="52.939194" lon="05.998102"><ele>8.3</ele><time>2021-03-19T12:04:23Z</time><name>PT7146</name></trkpt>
<trkpt lat="52.939200" lon="05.998119"><ele>8.5</ele><time>2021-03-19T12:04:25Z</time><name>PT7147</name></trkpt>
<trkpt lat="52.939207" lon="05.998136"><ele>8.6</ele><time>2021-03-19T12:04:26Z</time><name>PT7148</name></trkpt>
<trkpt lat="52.939214" lon="05.998152"><ele>8.4</ele><time>2021-03-19T12:04:26Z</time><name>PT7149</name></trkpt>
<trkpt lat="52.939219" lon="05.998168"><ele>8.3</ele><time>2021-03-19T12:04:28Z</time><name>PT7150</name></trkpt>
<trkpt lat="52.939223" lon="05.998185"><ele>8.1</ele><time>2021-03-19T12:04:29Z</time><name>PT7151</name></trkpt>
<trkpt lat="52.939228" lon="05.998203"><ele>8</ele><time>2021-03-19T12:04:29Z</time><name>PT7152</name></trkpt>
<trkpt lat="52.939231" lon="05.998221"><ele>7.9</ele><time>2021-03-19T12:04:31Z</time><name>PT7153</name></trkpt>
<trkpt lat="52.939236" lon="05.998238"><ele>7.9</ele><time>2021-03-19T12:04:32Z</time><name>PT7154</name></trkpt>
<trkpt lat="52.939246" lon="05.998257"><ele>7.9</ele><time>2021-03-19T12:04:32Z</time><name>PT7155</name></trkpt>
<trkpt lat="52.939255" lon="05.998277"><ele>7.8</ele><time>2021-03-19T12:04:34Z</time><name>PT7156</name></trkpt>
<trkpt lat="52.939259" lon="05.998298"><ele>7.8</ele><time>2021-03-19T12:04:35Z</time><name>PT7157</name></trkpt>
<trkpt lat="52.939264" lon="05.998317"><ele>7.9</ele><time>2021-03-19T12:04:35Z</time><name>PT7158</name></trkpt>
<trkpt lat="52.939270" lon="05.998338"><ele>8.1</ele><time>2021-03-19T12:04:37Z</time><name>PT7159</name></trkpt>
<trkpt lat="52.939272" lon="05.998355"><ele>8.3</ele><time>2021-03-19T12:04:38Z</time><name>PT7160</name></trkpt>
<trkpt lat="52.939275" lon="05.998375"><ele>8.5</ele><time>2021-03-19T12:04:38Z</time><name>PT7161</name></trkpt>
<trkpt lat="52.939279" lon="05.998394"><ele>8.6</ele><time>2021-03-19T12:04:40Z</time><name>PT7162</name></trkpt>
<trkpt lat="52.939281" lon="05.998413"><ele>8.6</ele><time>2021-03-19T12:04:41Z</time><name>PT7163</name></trkpt>
<trkpt lat="52.939283" lon="05.998433"><ele>8.6</ele><time>2021-03-19T12:04:41Z</time><name>PT7164</name></trkpt>
<trkpt lat="52.939286" lon="05.998453"><ele>8.6</ele><time>2021-03-19T12:04:43Z</time><name>PT7165</name></trkpt>
<trkpt lat="52.939285" lon="05.998475"><ele>8.5</ele><time>2021-03-19T12:04:44Z</time><name>PT7166</name></trkpt>
<trkpt lat="52.939287" lon="05.998493"><ele>8.4</ele><time>2021-03-19T12:04:44Z</time><name>PT7167</name></trkpt>
<trkpt lat="52.939286" lon="05.998510"><ele>8.4</ele><time>2021-03-19T12:04:46Z</time><name>PT7168</name></trkpt>
<trkpt lat="52.939285" lon="05.998528"><ele>8.3</ele><time>2021-03-19T12:04:47Z</time><name>PT7169</name></trkpt>
<trkpt lat="52.939284" lon="05.998543"><ele>8.4</ele><time>2021-03-19T12:04:48Z</time><name>PT7170</name></trkpt>
<trkpt lat="52.939281" lon="05.998558"><ele>8.2</ele><time>2021-03-19T12:04:49Z</time><name>PT7171</name></trkpt>
<trkpt lat="52.939277" lon="05.998572"><ele>8.3</ele><time>2021-03-19T12:04:49Z</time><name>PT7172</name></trkpt>
<trkpt lat="52.939273" lon="05.998586"><ele>8.4</ele><time>2021-03-19T12:04:51Z</time><name>PT7173</name></trkpt>
<trkpt lat="52.939268" lon="05.998597"><ele>8.6</ele><time>2021-03-19T12:04:52Z</time><name>PT7174</name></trkpt>
<trkpt lat="52.939263" lon="05.998611"><ele>8.5</ele><time>2021-03-19T12:04:53Z</time><name>PT7175</name></trkpt>
<trkpt lat="52.939258" lon="05.998626"><ele>8.6</ele><time>2021-03-19T12:04:54Z</time><name>PT7176</name></trkpt>
<trkpt lat="52.939251" lon="05.998639"><ele>8.6</ele><time>2021-03-19T12:04:55Z</time><name>PT7177</name></trkpt>
<trkpt lat="52.939245" lon="05.998650"><ele>8.6</ele><time>2021-03-19T12:04:55Z</time><name>PT7178</name></trkpt>
<trkpt lat="52.939237" lon="05.998662"><ele>8.4</ele><time>2021-03-19T12:04:57Z</time><name>PT7179</name></trkpt>
<trkpt lat="52.939231" lon="05.998673"><ele>8.4</ele><time>2021-03-19T12:04:58Z</time><name>PT7180</name></trkpt>
<trkpt lat="52.939227" lon="05.998687"><ele>8.6</ele><time>2021-03-19T12:04:58Z</time><name>PT7181</name></trkpt>
<trkpt lat="52.939222" lon="05.998700"><ele>8.6</ele><time>2021-03-19T12:05:00Z</time><name>PT7182</name></trkpt>
<trkpt lat="52.939216" lon="05.998716"><ele>8.6</ele><time>2021-03-19T12:05:01Z</time><name>PT7183</name></trkpt>
<trkpt lat="52.939210" lon="05.998726"><ele>8.5</ele><time>2021-03-19T12:05:01Z</time><name>PT7184</name></trkpt>
<trkpt lat="52.939203" lon="05.998736"><ele>8.6</ele><time>2021-03-19T12:05:03Z</time><name>PT7185</name></trkpt>
<trkpt lat="52.939193" lon="05.998747"><ele>8.5</ele><time>2021-03-19T12:05:04Z</time><name>PT7186</name></trkpt>
<trkpt lat="52.939183" lon="05.998759"><ele>8.5</ele><time>2021-03-19T12:05:04Z</time><name>PT7187</name></trkpt>
<trkpt lat="52.939177" lon="05.998772"><ele>8.6</ele><time>2021-03-19T12:05:06Z</time><name>PT7188</name></trkpt>
<trkpt lat="52.939171" lon="05.998785"><ele>8.6</ele><time>2021-03-19T12:05:07Z</time><name>PT7189</name></trkpt>
<trkpt lat="52.939165" lon="05.998798"><ele>8.6</ele><time>2021-03-19T12:05:07Z</time><name>PT7190</name></trkpt>
<trkpt lat="52.939158" lon="05.998809"><ele>8.8</ele><time>2021-03-19T12:05:09Z</time><name>PT7191</name></trkpt>
<trkpt lat="52.939151" lon="05.998823"><ele>9.1</ele><time>2021-03-19T12:05:10Z</time><name>PT7192</name></trkpt>
<trkpt lat="52.939142" lon="05.998833"><ele>9.1</ele><time>2021-03-19T12:05:10Z</time><name>PT7193</name></trkpt>
<trkpt lat="52.939133" lon="05.998842"><ele>9.1</ele><time>2021-03-19T12:05:12Z</time><name>PT7194</name></trkpt>
<trkpt lat="52.939122" lon="05.998847"><ele>8.9</ele><time>2021-03-19T12:05:13Z</time><name>PT7195</name></trkpt>
<trkpt lat="52.939109" lon="05.998860"><ele>9</ele><time>2021-03-19T12:05:13Z</time><name>PT7196</name></trkpt>
<trkpt lat="52.939098" lon="05.998873"><ele>8.8</ele><time>2021-03-19T12:05:15Z</time><name>PT7197</name></trkpt>
<trkpt lat="52.939088" lon="05.998885"><ele>8.6</ele><time>2021-03-19T12:05:16Z</time><name>PT7198</name></trkpt>
<trkpt lat="52.939080" lon="05.998893"><ele>8.7</ele><time>2021-03-19T12:05:16Z</time><name>PT7199</name></trkpt>
<trkpt lat="52.939075" lon="05.998900"><ele>8.7</ele><time>2021-03-19T12:05:18Z</time><name>PT7200</name></trkpt>
<trkpt lat="52.939063" lon="05.998913"><ele>8.6</ele><time>2021-03-19T12:05:19Z</time><name>PT7201</name></trkpt>
<trkpt lat="52.939053" lon="05.998923"><ele>8.6</ele><time>2021-03-19T12:05:19Z</time><name>PT7202</name></trkpt>
<trkpt lat="52.939042" lon="05.998938"><ele>8.6</ele><time>2021-03-19T12:05:21Z</time><name>PT7203</name></trkpt>
<trkpt lat="52.939034" lon="05.998947"><ele>8.6</ele><time>2021-03-19T12:05:22Z</time><name>PT7204</name></trkpt>
<trkpt lat="52.939026" lon="05.998951"><ele>8.6</ele><time>2021-03-19T12:05:22Z</time><name>PT7205</name></trkpt>
<trkpt lat="52.939019" lon="05.998955"><ele>8.4</ele><time>2021-03-19T12:05:24Z</time><name>PT7206</name></trkpt>
<trkpt lat="52.939010" lon="05.998967"><ele>8.3</ele><time>2021-03-19T12:05:25Z</time><name>PT7207</name></trkpt>
<trkpt lat="52.939008" lon="05.998971"><ele>8.3</ele><time>2021-03-19T12:05:25Z</time><name>PT7208</name></trkpt>
<trkpt lat="52.939000" lon="05.998981"><ele>8.4</ele><time>2021-03-19T12:05:27Z</time><name>PT7209</name></trkpt>
<trkpt lat="52.938993" lon="05.998990"><ele>8.6</ele><time>2021-03-19T12:05:28Z</time><name>PT7210</name></trkpt>
<trkpt lat="52.938987" lon="05.998999"><ele>8.5</ele><time>2021-03-19T12:05:28Z</time><name>PT7211</name></trkpt>
<trkpt lat="52.938979" lon="05.999007"><ele>8.6</ele><time>2021-03-19T12:05:30Z</time><name>PT7212</name></trkpt>
<trkpt lat="52.938973" lon="05.999015"><ele>8.4</ele><time>2021-03-19T12:05:31Z</time><name>PT7213</name></trkpt>
<trkpt lat="52.938964" lon="05.999022"><ele>8.4</ele><time>2021-03-19T12:05:31Z</time><name>PT7214</name></trkpt>
<trkpt lat="52.938956" lon="05.999027"><ele>8.4</ele><time>2021-03-19T12:05:33Z</time><name>PT7215</name></trkpt>
<trkpt lat="52.938948" lon="05.999033"><ele>8.6</ele><time>2021-03-19T12:05:34Z</time><name>PT7216</name></trkpt>
<trkpt lat="52.938942" lon="05.999037"><ele>8.6</ele><time>2021-03-19T12:05:34Z</time><name>PT7217</name></trkpt>
<trkpt lat="52.938937" lon="05.999041"><ele>8.6</ele><time>2021-03-19T12:05:36Z</time><name>PT7218</name></trkpt>
<trkpt lat="52.938930" lon="05.999042"><ele>8.4</ele><time>2021-03-19T12:05:37Z</time><name>PT7219</name></trkpt>
<trkpt lat="52.938920" lon="05.999046"><ele>8.5</ele><time>2021-03-19T12:05:37Z</time><name>PT7220</name></trkpt>
<trkpt lat="52.938913" lon="05.999058"><ele>8.4</ele><time>2021-03-19T12:05:39Z</time><name>PT7221</name></trkpt>
<trkpt lat="52.938911" lon="05.999068"><ele>8.4</ele><time>2021-03-19T12:05:40Z</time><name>PT7222</name></trkpt>
<trkpt lat="52.938908" lon="05.999085"><ele>8.4</ele><time>2021-03-19T12:05:40Z</time><name>PT7223</name></trkpt>
<trkpt lat="52.938910" lon="05.999103"><ele>8.2</ele><time>2021-03-19T12:05:42Z</time><name>PT7224</name></trkpt>
<trkpt lat="52.938913" lon="05.999117"><ele>8.1</ele><time>2021-03-19T12:05:43Z</time><name>PT7225</name></trkpt>
<trkpt lat="52.938915" lon="05.999131"><ele>7.9</ele><time>2021-03-19T12:05:43Z</time><name>PT7226</name></trkpt>
<trkpt lat="52.938920" lon="05.999146"><ele>7.7</ele><time>2021-03-19T12:05:45Z</time><name>PT7227</name></trkpt>
<trkpt lat="52.938922" lon="05.999161"><ele>7.7</ele><time>2021-03-19T12:05:46Z</time><name>PT7228</name></trkpt>
<trkpt lat="52.938924" lon="05.999181"><ele>7.6</ele><time>2021-03-19T12:05:46Z</time><name>PT7229</name></trkpt>
<trkpt lat="52.938927" lon="05.999195"><ele>7.6</ele><time>2021-03-19T12:05:48Z</time><name>PT7230</name></trkpt>
<trkpt lat="52.938934" lon="05.999213"><ele>7.7</ele><time>2021-03-19T12:05:49Z</time><name>PT7231</name></trkpt>
<trkpt lat="52.938940" lon="05.999228"><ele>7.7</ele><time>2021-03-19T12:05:49Z</time><name>PT7232</name></trkpt>
<trkpt lat="52.938943" lon="05.999245"><ele>8</ele><time>2021-03-19T12:05:51Z</time><name>PT7233</name></trkpt>
<trkpt lat="52.938948" lon="05.999259"><ele>8</ele><time>2021-03-19T12:05:52Z</time><name>PT7234</name></trkpt>
<trkpt lat="52.938952" lon="05.999274"><ele>8</ele><time>2021-03-19T12:05:52Z</time><name>PT7235</name></trkpt>
<trkpt lat="52.938958" lon="05.999287"><ele>8.1</ele><time>2021-03-19T12:05:54Z</time><name>PT7236</name></trkpt>
<trkpt lat="52.938965" lon="05.999302"><ele>8.2</ele><time>2021-03-19T12:05:55Z</time><name>PT7237</name></trkpt>
<trkpt lat="52.938971" lon="05.999319"><ele>8.2</ele><time>2021-03-19T12:05:55Z</time><name>PT7238</name></trkpt>
<trkpt lat="52.938975" lon="05.999331"><ele>8.5</ele><time>2021-03-19T12:05:57Z</time><name>PT7239</name></trkpt>
<trkpt lat="52.938978" lon="05.999346"><ele>8.6</ele><time>2021-03-19T12:05:58Z</time><name>PT7240</name></trkpt>
<trkpt lat="52.938984" lon="05.999361"><ele>8.6</ele><time>2021-03-19T12:05:58Z</time><name>PT7241</name></trkpt>
<trkpt lat="52.938987" lon="05.999376"><ele>8.3</ele><time>2021-03-19T12:06:00Z</time><name>PT7242</name></trkpt>
<trkpt lat="52.938989" lon="05.999389"><ele>8.2</ele><time>2021-03-19T12:06:01Z</time><name>PT7243</name></trkpt>
<trkpt lat="52.938988" lon="05.999406"><ele>8.2</ele><time>2021-03-19T12:06:01Z</time><name>PT7244</name></trkpt>
<trkpt lat="52.938992" lon="05.999420"><ele>8.2</ele><time>2021-03-19T12:06:03Z</time><name>PT7245</name></trkpt>
<trkpt lat="52.938995" lon="05.999433"><ele>8.2</ele><time>2021-03-19T12:06:04Z</time><name>PT7246</name></trkpt>
<trkpt lat="52.938999" lon="05.999449"><ele>8.2</ele><time>2021-03-19T12:06:05Z</time><name>PT7247</name></trkpt>
<trkpt lat="52.938999" lon="05.999471"><ele>8.2</ele><time>2021-03-19T12:06:06Z</time><name>PT7248</name></trkpt>
<trkpt lat="52.939003" lon="05.999484"><ele>8.1</ele><time>2021-03-19T12:06:07Z</time><name>PT7249</name></trkpt>
<trkpt lat="52.939008" lon="05.999495"><ele>8.1</ele><time>2021-03-19T12:06:07Z</time><name>PT7250</name></trkpt>
<trkpt lat="52.939015" lon="05.999508"><ele>8.1</ele><time>2021-03-19T12:06:09Z</time><name>PT7251</name></trkpt>
<trkpt lat="52.939017" lon="05.999519"><ele>8.3</ele><time>2021-03-19T12:06:10Z</time><name>PT7252</name></trkpt>
<trkpt lat="52.939019" lon="05.999532"><ele>8.2</ele><time>2021-03-19T12:06:11Z</time><name>PT7253</name></trkpt>
<trkpt lat="52.939022" lon="05.999545"><ele>8.4</ele><time>2021-03-19T12:06:12Z</time><name>PT7254</name></trkpt>
<trkpt lat="52.939022" lon="05.999560"><ele>8.3</ele><time>2021-03-19T12:06:13Z</time><name>PT7255</name></trkpt>
<trkpt lat="52.939020" lon="05.999567"><ele>8.5</ele><time>2021-03-19T12:06:13Z</time><name>PT7256</name></trkpt>
<trkpt lat="52.939020" lon="05.999575"><ele>8.5</ele><time>2021-03-19T12:06:15Z</time><name>PT7257</name></trkpt>
<trkpt lat="52.939015" lon="05.999588"><ele>8.5</ele><time>2021-03-19T12:06:16Z</time><name>PT7258</name></trkpt>
<trkpt lat="52.939010" lon="05.999600"><ele>8.6</ele><time>2021-03-19T12:06:16Z</time><name>PT7259</name></trkpt>
<trkpt lat="52.939005" lon="05.999616"><ele>8.8</ele><time>2021-03-19T12:06:18Z</time><name>PT7260</name></trkpt>
<trkpt lat="52.939003" lon="05.999631"><ele>8.8</ele><time>2021-03-19T12:06:19Z</time><name>PT7261</name></trkpt>
<trkpt lat="52.939004" lon="05.999643"><ele>8.7</ele><time>2021-03-19T12:06:19Z</time><name>PT7262</name></trkpt>
<trkpt lat="52.939004" lon="05.999656"><ele>8.7</ele><time>2021-03-19T12:06:21Z</time><name>PT7263</name></trkpt>
<trkpt lat="52.939002" lon="05.999669"><ele>8.5</ele><time>2021-03-19T12:06:22Z</time><name>PT7264</name></trkpt>
<trkpt lat="52.938999" lon="05.999683"><ele>8.5</ele><time>2021-03-19T12:06:22Z</time><name>PT7265</name></trkpt>
<trkpt lat="52.938994" lon="05.999698"><ele>8.3</ele><time>2021-03-19T12:06:24Z</time><name>PT7266</name></trkpt>
<trkpt lat="52.938994" lon="05.999714"><ele>8.1</ele><time>2021-03-19T12:06:25Z</time><name>PT7267</name></trkpt>
<trkpt lat="52.939001" lon="05.999728"><ele>8.1</ele><time>2021-03-19T12:06:25Z</time><name>PT7268</name></trkpt>
<trkpt lat="52.939003" lon="05.999742"><ele>8.1</ele><time>2021-03-19T12:06:27Z</time><name>PT7269</name></trkpt>
<trkpt lat="52.939002" lon="05.999758"><ele>8.2</ele><time>2021-03-19T12:06:28Z</time><name>PT7270</name></trkpt>
<trkpt lat="52.938997" lon="05.999771"><ele>8.2</ele><time>2021-03-19T12:06:28Z</time><name>PT7271</name></trkpt>
<trkpt lat="52.938999" lon="05.999786"><ele>8.4</ele><time>2021-03-19T12:06:30Z</time><name>PT7272</name></trkpt>
<trkpt lat="52.938998" lon="05.999809"><ele>8.4</ele><time>2021-03-19T12:06:31Z</time><name>PT7273</name></trkpt>
<trkpt lat="52.939001" lon="05.999823"><ele>8.5</ele><time>2021-03-19T12:06:31Z</time><name>PT7274</name></trkpt>
<trkpt lat="52.939002" lon="05.999837"><ele>8.5</ele><time>2021-03-19T12:06:33Z</time><name>PT7275</name></trkpt>
<trkpt lat="52.939004" lon="05.999852"><ele>8.3</ele><time>2021-03-19T12:06:34Z</time><name>PT7276</name></trkpt>
<trkpt lat="52.939004" lon="05.999863"><ele>8.3</ele><time>2021-03-19T12:06:34Z</time><name>PT7277</name></trkpt>
<trkpt lat="52.939008" lon="05.999874"><ele>8.1</ele><time>2021-03-19T12:06:36Z</time><name>PT7278</name></trkpt>
<trkpt lat="52.939013" lon="05.999892"><ele>8.1</ele><time>2021-03-19T12:06:37Z</time><name>PT7279</name></trkpt>
<trkpt lat="52.939016" lon="05.999909"><ele>8.2</ele><time>2021-03-19T12:06:37Z</time><name>PT7280</name></trkpt>
<trkpt lat="52.939021" lon="05.999921"><ele>8.1</ele><time>2021-03-19T12:06:39Z</time><name>PT7281</name></trkpt>
<trkpt lat="52.939020" lon="05.999939"><ele>8.2</ele><time>2021-03-19T12:06:40Z</time><name>PT7282</name></trkpt>
<trkpt lat="52.939022" lon="05.999954"><ele>8.3</ele><time>2021-03-19T12:06:40Z</time><name>PT7283</name></trkpt>
<trkpt lat="52.939025" lon="05.999969"><ele>8.2</ele><time>2021-03-19T12:06:42Z</time><name>PT7284</name></trkpt>
<trkpt lat="52.939028" lon="05.999982"><ele>8.4</ele><time>2021-03-19T12:06:43Z</time><name>PT7285</name></trkpt>
<trkpt lat="52.939028" lon="05.999999"><ele>8.3</ele><time>2021-03-19T12:06:43Z</time><name>PT7286</name></trkpt>
<trkpt lat="52.939031" lon="06.000012"><ele>8.4</ele><time>2021-03-19T12:06:45Z</time><name>PT7287</name></trkpt>
<trkpt lat="52.939034" lon="06.000024"><ele>8.5</ele><time>2021-03-19T12:06:46Z</time><name>PT7288</name></trkpt>
<trkpt lat="52.939041" lon="06.000040"><ele>8.5</ele><time>2021-03-19T12:06:46Z</time><name>PT7289</name></trkpt>
<trkpt lat="52.939046" lon="06.000054"><ele>8.3</ele><time>2021-03-19T12:06:48Z</time><name>PT7290</name></trkpt>
<trkpt lat="52.939049" lon="06.000064"><ele>8.3</ele><time>2021-03-19T12:06:49Z</time><name>PT7291</name></trkpt>
<trkpt lat="52.939052" lon="06.000076"><ele>8.2</ele><time>2021-03-19T12:06:49Z</time><name>PT7292</name></trkpt>
<trkpt lat="52.939054" lon="06.000088"><ele>8.2</ele><time>2021-03-19T12:06:51Z</time><name>PT7293</name></trkpt>
<trkpt lat="52.939058" lon="06.000102"><ele>8.2</ele><time>2021-03-19T12:06:52Z</time><name>PT7294</name></trkpt>
<trkpt lat="52.939066" lon="06.000110"><ele>8.3</ele><time>2021-03-19T12:06:52Z</time><name>PT7295</name></trkpt>
<trkpt lat="52.939067" lon="06.000122"><ele>8.2</ele><time>2021-03-19T12:06:54Z</time><name>PT7296</name></trkpt>
<trkpt lat="52.939066" lon="06.000132"><ele>8.1</ele><time>2021-03-19T12:06:55Z</time><name>PT7297</name></trkpt>
<trkpt lat="52.939068" lon="06.000146"><ele>8.2</ele><time>2021-03-19T12:06:55Z</time><name>PT7298</name></trkpt>
<trkpt lat="52.939071" lon="06.000159"><ele>8.4</ele><time>2021-03-19T12:06:57Z</time><name>PT7299</name></trkpt>
<trkpt lat="52.939076" lon="06.000172"><ele>8.4</ele><time>2021-03-19T12:06:58Z</time><name>PT7300</name></trkpt>
<trkpt lat="52.939082" lon="06.000185"><ele>8.4</ele><time>2021-03-19T12:06:59Z</time><name>PT7301</name></trkpt>
<trkpt lat="52.939085" lon="06.000196"><ele>8.3</ele><time>2021-03-19T12:07:00Z</time><name>PT7302</name></trkpt>
<trkpt lat="52.939090" lon="06.000210"><ele>8.2</ele><time>2021-03-19T12:07:01Z</time><name>PT7303</name></trkpt>
<trkpt lat="52.939098" lon="06.000226"><ele>8.2</ele><time>2021-03-19T12:07:01Z</time><name>PT7304</name></trkpt>
<trkpt lat="52.939105" lon="06.000241"><ele>8.1</ele><time>2021-03-19T12:07:03Z</time><name>PT7305</name></trkpt>
<trkpt lat="52.939114" lon="06.000263"><ele>8.3</ele><time>2021-03-19T12:07:04Z</time><name>PT7306</name></trkpt>
<trkpt lat="52.939119" lon="06.000287"><ele>8.2</ele><time>2021-03-19T12:07:04Z</time><name>PT7307</name></trkpt>
<trkpt lat="52.939119" lon="06.000307"><ele>8.3</ele><time>2021-03-19T12:07:06Z</time><name>PT7308</name></trkpt>
<trkpt lat="52.939123" lon="06.000327"><ele>8.3</ele><time>2021-03-19T12:07:07Z</time><name>PT7309</name></trkpt>
<trkpt lat="52.939125" lon="06.000344"><ele>8.2</ele><time>2021-03-19T12:07:07Z</time><name>PT7310</name></trkpt>
<trkpt lat="52.939136" lon="06.000361"><ele>8.2</ele><time>2021-03-19T12:07:09Z</time><name>PT7311</name></trkpt>
<trkpt lat="52.939142" lon="06.000377"><ele>8.1</ele><time>2021-03-19T12:07:10Z</time><name>PT7312</name></trkpt>
<trkpt lat="52.939154" lon="06.000394"><ele>8.1</ele><time>2021-03-19T12:07:10Z</time><name>PT7313</name></trkpt>
<trkpt lat="52.939162" lon="06.000409"><ele>8.1</ele><time>2021-03-19T12:07:12Z</time><name>PT7314</name></trkpt>
<trkpt lat="52.939164" lon="06.000420"><ele>8.2</ele><time>2021-03-19T12:07:13Z</time><name>PT7315</name></trkpt>
<trkpt lat="52.939168" lon="06.000435"><ele>8.2</ele><time>2021-03-19T12:07:13Z</time><name>PT7316</name></trkpt>
<trkpt lat="52.939175" lon="06.000453"><ele>8.1</ele><time>2021-03-19T12:07:15Z</time><name>PT7317</name></trkpt>
<trkpt lat="52.939184" lon="06.000461"><ele>8.1</ele><time>2021-03-19T12:07:16Z</time><name>PT7318</name></trkpt>
<trkpt lat="52.939190" lon="06.000473"><ele>8.1</ele><time>2021-03-19T12:07:16Z</time><name>PT7319</name></trkpt>
<trkpt lat="52.939197" lon="06.000487"><ele>7.9</ele><time>2021-03-19T12:07:18Z</time><name>PT7320</name></trkpt>
<trkpt lat="52.939203" lon="06.000500"><ele>7.8</ele><time>2021-03-19T12:07:19Z</time><name>PT7321</name></trkpt>
<trkpt lat="52.939207" lon="06.000519"><ele>7.9</ele><time>2021-03-19T12:07:19Z</time><name>PT7322</name></trkpt>
<trkpt lat="52.939209" lon="06.000541"><ele>8.1</ele><time>2021-03-19T12:07:21Z</time><name>PT7323</name></trkpt>
<trkpt lat="52.939215" lon="06.000553"><ele>8.1</ele><time>2021-03-19T12:07:22Z</time><name>PT7324</name></trkpt>
<trkpt lat="52.939223" lon="06.000571"><ele>8.1</ele><time>2021-03-19T12:07:22Z</time><name>PT7325</name></trkpt>
<trkpt lat="52.939230" lon="06.000586"><ele>8.1</ele><time>2021-03-19T12:07:24Z</time><name>PT7326</name></trkpt>
<trkpt lat="52.939236" lon="06.000598"><ele>8.1</ele><time>2021-03-19T12:07:24Z</time><name>PT7327</name></trkpt>
<trkpt lat="52.939240" lon="06.000613"><ele>8.2</ele><time>2021-03-19T12:07:26Z</time><name>PT7328</name></trkpt>
<trkpt lat="52.939246" lon="06.000621"><ele>8.3</ele><time>2021-03-19T12:07:26Z</time><name>PT7329</name></trkpt>
<trkpt lat="52.939253" lon="06.000633"><ele>8.3</ele><time>2021-03-19T12:07:28Z</time><name>PT7330</name></trkpt>
<trkpt lat="52.939259" lon="06.000647"><ele>8.3</ele><time>2021-03-19T12:07:29Z</time><name>PT7331</name></trkpt>
<trkpt lat="52.939265" lon="06.000663"><ele>8.2</ele><time>2021-03-19T12:07:29Z</time><name>PT7332</name></trkpt>
<trkpt lat="52.939274" lon="06.000680"><ele>8.2</ele><time>2021-03-19T12:07:31Z</time><name>PT7333</name></trkpt>
<trkpt lat="52.939282" lon="06.000694"><ele>8.1</ele><time>2021-03-19T12:07:32Z</time><name>PT7334</name></trkpt>
<trkpt lat="52.939287" lon="06.000704"><ele>8.1</ele><time>2021-03-19T12:07:32Z</time><name>PT7335</name></trkpt>
<trkpt lat="52.939288" lon="06.000718"><ele>8</ele><time>2021-03-19T12:07:34Z</time><name>PT7336</name></trkpt>
<trkpt lat="52.939289" lon="06.000734"><ele>7.8</ele><time>2021-03-19T12:07:34Z</time><name>PT7337</name></trkpt>
<trkpt lat="52.939290" lon="06.000751"><ele>7.7</ele><time>2021-03-19T12:07:36Z</time><name>PT7338</name></trkpt>
<trkpt lat="52.939294" lon="06.000776"><ele>7.8</ele><time>2021-03-19T12:07:37Z</time><name>PT7339</name></trkpt>
<trkpt lat="52.939298" lon="06.000798"><ele>7.7</ele><time>2021-03-19T12:07:37Z</time><name>PT7340</name></trkpt>
<trkpt lat="52.939302" lon="06.000809"><ele>7.8</ele><time>2021-03-19T12:07:39Z</time><name>PT7341</name></trkpt>
<trkpt lat="52.939309" lon="06.000823"><ele>7.8</ele><time>2021-03-19T12:07:40Z</time><name>PT7342</name></trkpt>
<trkpt lat="52.939314" lon="06.000836"><ele>7.7</ele><time>2021-03-19T12:07:40Z</time><name>PT7343</name></trkpt>
<trkpt lat="52.939319" lon="06.000853"><ele>7.5</ele><time>2021-03-19T12:07:42Z</time><name>PT7344</name></trkpt>
<trkpt lat="52.939323" lon="06.000864"><ele>7.4</ele><time>2021-03-19T12:07:43Z</time><name>PT7345</name></trkpt>
<trkpt lat="52.939331" lon="06.000878"><ele>7.3</ele><time>2021-03-19T12:07:43Z</time><name>PT7346</name></trkpt>
<trkpt lat="52.939339" lon="06.000897"><ele>7.1</ele><time>2021-03-19T12:07:45Z</time><name>PT7347</name></trkpt>
<trkpt lat="52.939347" lon="06.000913"><ele>7.4</ele><time>2021-03-19T12:07:46Z</time><name>PT7348</name></trkpt>
<trkpt lat="52.939351" lon="06.000928"><ele>7.4</ele><time>2021-03-19T12:07:46Z</time><name>PT7349</name></trkpt>
<trkpt lat="52.939353" lon="06.000945"><ele>7.4</ele><time>2021-03-19T12:07:48Z</time><name>PT7350</name></trkpt>
<trkpt lat="52.939357" lon="06.000961"><ele>7.6</ele><time>2021-03-19T12:07:48Z</time><name>PT7351</name></trkpt>
<trkpt lat="52.939362" lon="06.000990"><ele>7.8</ele><time>2021-03-19T12:07:50Z</time><name>PT7352</name></trkpt>
<trkpt lat="52.939367" lon="06.001010"><ele>7.7</ele><time>2021-03-19T12:07:51Z</time><name>PT7353</name></trkpt>
<trkpt lat="52.939371" lon="06.001033"><ele>7.7</ele><time>2021-03-19T12:07:51Z</time><name>PT7354</name></trkpt>
<trkpt lat="52.939377" lon="06.001056"><ele>7.6</ele><time>2021-03-19T12:07:53Z</time><name>PT7355</name></trkpt>
<trkpt lat="52.939384" lon="06.001072"><ele>7.4</ele><time>2021-03-19T12:07:54Z</time><name>PT7356</name></trkpt>
<trkpt lat="52.939392" lon="06.001085"><ele>7.4</ele><time>2021-03-19T12:07:54Z</time><name>PT7357</name></trkpt>
<trkpt lat="52.939396" lon="06.001100"><ele>7.5</ele><time>2021-03-19T12:07:56Z</time><name>PT7358</name></trkpt>
<trkpt lat="52.939405" lon="06.001112"><ele>7.5</ele><time>2021-03-19T12:07:56Z</time><name>PT7359</name></trkpt>
<trkpt lat="52.939414" lon="06.001128"><ele>7.4</ele><time>2021-03-19T12:07:58Z</time><name>PT7360</name></trkpt>
<trkpt lat="52.939419" lon="06.001142"><ele>7.3</ele><time>2021-03-19T12:07:59Z</time><name>PT7361</name></trkpt>
<trkpt lat="52.939429" lon="06.001159"><ele>7.3</ele><time>2021-03-19T12:07:59Z</time><name>PT7362</name></trkpt>
<trkpt lat="52.939438" lon="06.001171"><ele>7.6</ele><time>2021-03-19T12:08:01Z</time><name>PT7363</name></trkpt>
<trkpt lat="52.939445" lon="06.001174"><ele>7.8</ele><time>2021-03-19T12:08:02Z</time><name>PT7364</name></trkpt>
<trkpt lat="52.939452" lon="06.001191"><ele>7.9</ele><time>2021-03-19T12:08:02Z</time><name>PT7365</name></trkpt>
<trkpt lat="52.939457" lon="06.001205"><ele>8.2</ele><time>2021-03-19T12:08:04Z</time><name>PT7366</name></trkpt>
<trkpt lat="52.939466" lon="06.001226"><ele>8.1</ele><time>2021-03-19T12:08:05Z</time><name>PT7367</name></trkpt>
<trkpt lat="52.939473" lon="06.001248"><ele>8.1</ele><time>2021-03-19T12:08:05Z</time><name>PT7368</name></trkpt>
<trkpt lat="52.939480" lon="06.001264"><ele>8.2</ele><time>2021-03-19T12:08:07Z</time><name>PT7369</name></trkpt>
<trkpt lat="52.939488" lon="06.001283"><ele>8.1</ele><time>2021-03-19T12:08:08Z</time><name>PT7370</name></trkpt>
<trkpt lat="52.939494" lon="06.001316"><ele>8.1</ele><time>2021-03-19T12:08:08Z</time><name>PT7371</name></trkpt>
<trkpt lat="52.939502" lon="06.001338"><ele>8.1</ele><time>2021-03-19T12:08:10Z</time><name>PT7372</name></trkpt>
<trkpt lat="52.939512" lon="06.001357"><ele>8.1</ele><time>2021-03-19T12:08:11Z</time><name>PT7373</name></trkpt>
<trkpt lat="52.939520" lon="06.001373"><ele>8.2</ele><time>2021-03-19T12:08:11Z</time><name>PT7374</name></trkpt>
<trkpt lat="52.939527" lon="06.001393"><ele>8.3</ele><time>2021-03-19T12:08:13Z</time><name>PT7375</name></trkpt>
<trkpt lat="52.939533" lon="06.001404"><ele>8.5</ele><time>2021-03-19T12:08:14Z</time><name>PT7376</name></trkpt>
<trkpt lat="52.939537" lon="06.001415"><ele>8.5</ele><time>2021-03-19T12:08:14Z</time><name>PT7377</name></trkpt>
<trkpt lat="52.939543" lon="06.001433"><ele>8.4</ele><time>2021-03-19T12:08:16Z</time><name>PT7378</name></trkpt>
<trkpt lat="52.939549" lon="06.001451"><ele>8.1</ele><time>2021-03-19T12:08:17Z</time><name>PT7379</name></trkpt>
<trkpt lat="52.939555" lon="06.001467"><ele>8.1</ele><time>2021-03-19T12:08:17Z</time><name>PT7380</name></trkpt>
<trkpt lat="52.939559" lon="06.001485"><ele>8.1</ele><time>2021-03-19T12:08:19Z</time><name>PT7381</name></trkpt>
<trkpt lat="52.939562" lon="06.001508"><ele>8.1</ele><time>2021-03-19T12:08:20Z</time><name>PT7382</name></trkpt>
<trkpt lat="52.939569" lon="06.001527"><ele>8.1</ele><time>2021-03-19T12:08:20Z</time><name>PT7383</name></trkpt>
<trkpt lat="52.939577" lon="06.001540"><ele>8.1</ele><time>2021-03-19T12:08:22Z</time><name>PT7384</name></trkpt>
<trkpt lat="52.939583" lon="06.001548"><ele>8.1</ele><time>2021-03-19T12:08:23Z</time><name>PT7385</name></trkpt>
<trkpt lat="52.939589" lon="06.001555"><ele>8</ele><time>2021-03-19T12:08:23Z</time><name>PT7386</name></trkpt>
<trkpt lat="52.939596" lon="06.001564"><ele>8.1</ele><time>2021-03-19T12:08:25Z</time><name>PT7387</name></trkpt>
<trkpt lat="52.939602" lon="06.001580"><ele>7.9</ele><time>2021-03-19T12:08:25Z</time><name>PT7388</name></trkpt>
<trkpt lat="52.939608" lon="06.001588"><ele>7.8</ele><time>2021-03-19T12:08:27Z</time><name>PT7389</name></trkpt>
<trkpt lat="52.939613" lon="06.001592"><ele>7.9</ele><time>2021-03-19T12:08:28Z</time><name>PT7390</name></trkpt>
<trkpt lat="52.939622" lon="06.001593"><ele>7.7</ele><time>2021-03-19T12:08:28Z</time><name>PT7391</name></trkpt>
<trkpt lat="52.939630" lon="06.001596"><ele>7.7</ele><time>2021-03-19T12:08:30Z</time><name>PT7392</name></trkpt>
<trkpt lat="52.939639" lon="06.001598"><ele>7.6</ele><time>2021-03-19T12:08:31Z</time><name>PT7393</name></trkpt>
<trkpt lat="52.939649" lon="06.001597"><ele>7.7</ele><time>2021-03-19T12:08:31Z</time><name>PT7394</name></trkpt>
<trkpt lat="52.939657" lon="06.001598"><ele>7.7</ele><time>2021-03-19T12:08:33Z</time><name>PT7395</name></trkpt>
<trkpt lat="52.939667" lon="06.001595"><ele>7.8</ele><time>2021-03-19T12:08:34Z</time><name>PT7396</name></trkpt>
<trkpt lat="52.939674" lon="06.001597"><ele>8</ele><time>2021-03-19T12:08:34Z</time><name>PT7397</name></trkpt>
<trkpt lat="52.939681" lon="06.001597"><ele>8</ele><time>2021-03-19T12:08:36Z</time><name>PT7398</name></trkpt>
<trkpt lat="52.939694" lon="06.001598"><ele>7.8</ele><time>2021-03-19T12:08:37Z</time><name>PT7399</name></trkpt>
<trkpt lat="52.939706" lon="06.001597"><ele>7.7</ele><time>2021-03-19T12:08:37Z</time><name>PT7400</name></trkpt>
<trkpt lat="52.939715" lon="06.001591"><ele>7.8</ele><time>2021-03-19T12:08:39Z</time><name>PT7401</name></trkpt>
<trkpt lat="52.939724" lon="06.001586"><ele>7.7</ele><time>2021-03-19T12:08:40Z</time><name>PT7402</name></trkpt>
<trkpt lat="52.939733" lon="06.001584"><ele>7.8</ele><time>2021-03-19T12:08:40Z</time><name>PT7403</name></trkpt>
<trkpt lat="52.939740" lon="06.001579"><ele>7.9</ele><time>2021-03-19T12:08:42Z</time><name>PT7404</name></trkpt>
<trkpt lat="52.939749" lon="06.001575"><ele>7.8</ele><time>2021-03-19T12:08:42Z</time><name>PT7405</name></trkpt>
<trkpt lat="52.939762" lon="06.001573"><ele>7.7</ele><time>2021-03-19T12:08:44Z</time><name>PT7406</name></trkpt>
<trkpt lat="52.939771" lon="06.001568"><ele>7.6</ele><time>2021-03-19T12:08:44Z</time><name>PT7407</name></trkpt>
<trkpt lat="52.939779" lon="06.001560"><ele>7.5</ele><time>2021-03-19T12:08:46Z</time><name>PT7408</name></trkpt>
<trkpt lat="52.939788" lon="06.001550"><ele>7.5</ele><time>2021-03-19T12:08:46Z</time><name>PT7409</name></trkpt>
<trkpt lat="52.939796" lon="06.001542"><ele>7.7</ele><time>2021-03-19T12:08:48Z</time><name>PT7410</name></trkpt>
<trkpt lat="52.939803" lon="06.001540"><ele>7.7</ele><time>2021-03-19T12:08:49Z</time><name>PT7411</name></trkpt>
<trkpt lat="52.939812" lon="06.001535"><ele>7.7</ele><time>2021-03-19T12:08:49Z</time><name>PT7412</name></trkpt>
<trkpt lat="52.939821" lon="06.001527"><ele>7.8</ele><time>2021-03-19T12:08:51Z</time><name>PT7413</name></trkpt>
<trkpt lat="52.939832" lon="06.001523"><ele>7.9</ele><time>2021-03-19T12:08:52Z</time><name>PT7414</name></trkpt>
<trkpt lat="52.939841" lon="06.001523"><ele>7.9</ele><time>2021-03-19T12:08:52Z</time><name>PT7415</name></trkpt>
<trkpt lat="52.939851" lon="06.001520"><ele>7.7</ele><time>2021-03-19T12:08:54Z</time><name>PT7416</name></trkpt>
<trkpt lat="52.939861" lon="06.001511"><ele>7.6</ele><time>2021-03-19T12:08:54Z</time><name>PT7417</name></trkpt>
<trkpt lat="52.939870" lon="06.001503"><ele>7.3</ele><time>2021-03-19T12:08:56Z</time><name>PT7418</name></trkpt>
<trkpt lat="52.939879" lon="06.001490"><ele>7.3</ele><time>2021-03-19T12:08:56Z</time><name>PT7419</name></trkpt>
<trkpt lat="52.939888" lon="06.001487"><ele>7.3</ele><time>2021-03-19T12:08:58Z</time><name>PT7420</name></trkpt>
<trkpt lat="52.939896" lon="06.001485"><ele>7.3</ele><time>2021-03-19T12:08:58Z</time><name>PT7421</name></trkpt>
<trkpt lat="52.939904" lon="06.001477"><ele>7.4</ele><time>2021-03-19T12:09:00Z</time><name>PT7422</name></trkpt>
<trkpt lat="52.939910" lon="06.001466"><ele>7.5</ele><time>2021-03-19T12:09:01Z</time><name>PT7423</name></trkpt>
<trkpt lat="52.939912" lon="06.001459"><ele>7.4</ele><time>2021-03-19T12:09:01Z</time><name>PT7424</name></trkpt>
<trkpt lat="52.939917" lon="06.001454"><ele>7.6</ele><time>2021-03-19T12:09:03Z</time><name>PT7425</name></trkpt>
<trkpt lat="52.939925" lon="06.001446"><ele>7.7</ele><time>2021-03-19T12:09:04Z</time><name>PT7426</name></trkpt>
<trkpt lat="52.939934" lon="06.001440"><ele>7.7</ele><time>2021-03-19T12:09:04Z</time><name>PT7427</name></trkpt>
<trkpt lat="52.939942" lon="06.001429"><ele>7.7</ele><time>2021-03-19T12:09:06Z</time><name>PT7428</name></trkpt>
<trkpt lat="52.939946" lon="06.001421"><ele>7.7</ele><time>2021-03-19T12:09:06Z</time><name>PT7429</name></trkpt>
<trkpt lat="52.939953" lon="06.001413"><ele>7.5</ele><time>2021-03-19T12:09:08Z</time><name>PT7430</name></trkpt>
<trkpt lat="52.939958" lon="06.001407"><ele>7.6</ele><time>2021-03-19T12:09:09Z</time><name>PT7431</name></trkpt>
<trkpt lat="52.939964" lon="06.001404"><ele>7.7</ele><time>2021-03-19T12:09:09Z</time><name>PT7432</name></trkpt>
<trkpt lat="52.939970" lon="06.001399"><ele>7.6</ele><time>2021-03-19T12:09:11Z</time><name>PT7433</name></trkpt>
<trkpt lat="52.939977" lon="06.001396"><ele>7.7</ele><time>2021-03-19T12:09:12Z</time><name>PT7434</name></trkpt>
<trkpt lat="52.939978" lon="06.001392"><ele>7.8</ele><time>2021-03-19T12:09:12Z</time><name>PT7435</name></trkpt>
<trkpt lat="52.939982" lon="06.001386"><ele>7.4</ele><time>2021-03-19T12:09:14Z</time><name>PT7436</name></trkpt>
<trkpt lat="52.939985" lon="06.001382"><ele>7.4</ele><time>2021-03-19T12:09:14Z</time><name>PT7437</name></trkpt>
<trkpt lat="52.939986" lon="06.001381"><ele>7.2</ele><time>2021-03-19T12:09:16Z</time><name>PT7438</name></trkpt>
<trkpt lat="52.939989" lon="06.001383"><ele>7.3</ele><time>2021-03-19T12:09:17Z</time><name>PT7439</name></trkpt>
<trkpt lat="52.939997" lon="06.001387"><ele>7.4</ele><time>2021-03-19T12:09:17Z</time><name>PT7440</name></trkpt>
<trkpt lat="52.940008" lon="06.001386"><ele>7.5</ele><time>2021-03-19T12:09:19Z</time><name>PT7441</name></trkpt>
<trkpt lat="52.940017" lon="06.001386"><ele>7.6</ele><time>2021-03-19T12:09:20Z</time><name>PT7442</name></trkpt>
<trkpt lat="52.940024" lon="06.001384"><ele>7.7</ele><time>2021-03-19T12:09:20Z</time><name>PT7443</name></trkpt>
<trkpt lat="52.940033" lon="06.001386"><ele>7.8</ele><time>2021-03-19T12:09:22Z</time><name>PT7444</name></trkpt>
<trkpt lat="52.940042" lon="06.001382"><ele>7.8</ele><time>2021-03-19T12:09:22Z</time><name>PT7445</name></trkpt>
<trkpt lat="52.940053" lon="06.001380"><ele>7.9</ele><time>2021-03-19T12:09:24Z</time><name>PT7446</name></trkpt>
<trkpt lat="52.940060" lon="06.001374"><ele>7.8</ele><time>2021-03-19T12:09:24Z</time><name>PT7447</name></trkpt>
<trkpt lat="52.940070" lon="06.001368"><ele>7.7</ele><time>2021-03-19T12:09:26Z</time><name>PT7448</name></trkpt>
<trkpt lat="52.940085" lon="06.001356"><ele>7.7</ele><time>2021-03-19T12:09:27Z</time><name>PT7449</name></trkpt>
<trkpt lat="52.940100" lon="06.001345"><ele>7.7</ele><time>2021-03-19T12:09:27Z</time><name>PT7450</name></trkpt>
<trkpt lat="52.940111" lon="06.001336"><ele>7.7</ele><time>2021-03-19T12:09:29Z</time><name>PT7451</name></trkpt>
<trkpt lat="52.940119" lon="06.001320"><ele>7.7</ele><time>2021-03-19T12:09:29Z</time><name>PT7452</name></trkpt>
<trkpt lat="52.940133" lon="06.001308"><ele>7.8</ele><time>2021-03-19T12:09:31Z</time><name>PT7453</name></trkpt>
<trkpt lat="52.940139" lon="06.001295"><ele>7.6</ele><time>2021-03-19T12:09:32Z</time><name>PT7454</name></trkpt>
<trkpt lat="52.940147" lon="06.001281"><ele>7.5</ele><time>2021-03-19T12:09:32Z</time><name>PT7455</name></trkpt>
<trkpt lat="52.940158" lon="06.001270"><ele>7.6</ele><time>2021-03-19T12:09:34Z</time><name>PT7456</name></trkpt>
<trkpt lat="52.940172" lon="06.001260"><ele>7.6</ele><time>2021-03-19T12:09:35Z</time><name>PT7457</name></trkpt>
<trkpt lat="52.940181" lon="06.001251"><ele>7.7</ele><time>2021-03-19T12:09:35Z</time><name>PT7458</name></trkpt>
<trkpt lat="52.940191" lon="06.001243"><ele>7.9</ele><time>2021-03-19T12:09:37Z</time><name>PT7459</name></trkpt>
<trkpt lat="52.940205" lon="06.001234"><ele>7.9</ele><time>2021-03-19T12:09:38Z</time><name>PT7460</name></trkpt>
<trkpt lat="52.940219" lon="06.001222"><ele>7.8</ele><time>2021-03-19T12:09:38Z</time><name>PT7461</name></trkpt>
<trkpt lat="52.940231" lon="06.001210"><ele>7.8</ele><time>2021-03-19T12:09:40Z</time><name>PT7462</name></trkpt>
<trkpt lat="52.940244" lon="06.001195"><ele>7.7</ele><time>2021-03-19T12:09:41Z</time><name>PT7463</name></trkpt>
<trkpt lat="52.940257" lon="06.001167"><ele>7.7</ele><time>2021-03-19T12:09:41Z</time><name>PT7464</name></trkpt>
<trkpt lat="52.940267" lon="06.001158"><ele>8</ele><time>2021-03-19T12:09:43Z</time><name>PT7465</name></trkpt>
<trkpt lat="52.940278" lon="06.001147"><ele>7.7</ele><time>2021-03-19T12:09:43Z</time><name>PT7466</name></trkpt>
<trkpt lat="52.940287" lon="06.001139"><ele>7.7</ele><time>2021-03-19T12:09:45Z</time><name>PT7467</name></trkpt>
<trkpt lat="52.940299" lon="06.001125"><ele>7.7</ele><time>2021-03-19T12:09:46Z</time><name>PT7468</name></trkpt>
<trkpt lat="52.940309" lon="06.001118"><ele>7.6</ele><time>2021-03-19T12:09:46Z</time><name>PT7469</name></trkpt>
<trkpt lat="52.940319" lon="06.001109"><ele>7.7</ele><time>2021-03-19T12:09:48Z</time><name>PT7470</name></trkpt>
<trkpt lat="52.940327" lon="06.001101"><ele>7.7</ele><time>2021-03-19T12:09:49Z</time><name>PT7471</name></trkpt>
<trkpt lat="52.940336" lon="06.001094"><ele>7.7</ele><time>2021-03-19T12:09:49Z</time><name>PT7472</name></trkpt>
<trkpt lat="52.940345" lon="06.001086"><ele>7.8</ele><time>2021-03-19T12:09:51Z</time><name>PT7473</name></trkpt>
<trkpt lat="52.940357" lon="06.001081"><ele>7.7</ele><time>2021-03-19T12:09:52Z</time><name>PT7474</name></trkpt>
<trkpt lat="52.940367" lon="06.001072"><ele>7.8</ele><time>2021-03-19T12:09:52Z</time><name>PT7475</name></trkpt>
<trkpt lat="52.940374" lon="06.001072"><ele>7.7</ele><time>2021-03-19T12:09:54Z</time><name>PT7476</name></trkpt>
<trkpt lat="52.940380" lon="06.001068"><ele>7.7</ele><time>2021-03-19T12:09:54Z</time><name>PT7477</name></trkpt>
<trkpt lat="52.940391" lon="06.001059"><ele>7.3</ele><time>2021-03-19T12:09:56Z</time><name>PT7478</name></trkpt>
<trkpt lat="52.940408" lon="06.001045"><ele>7.2</ele><time>2021-03-19T12:09:57Z</time><name>PT7479</name></trkpt>
<trkpt lat="52.940418" lon="06.001032"><ele>7.3</ele><time>2021-03-19T12:09:57Z</time><name>PT7480</name></trkpt>
<trkpt lat="52.940427" lon="06.001024"><ele>7.3</ele><time>2021-03-19T12:09:59Z</time><name>PT7481</name></trkpt>
<trkpt lat="52.940434" lon="06.001016"><ele>7.5</ele><time>2021-03-19T12:10:00Z</time><name>PT7482</name></trkpt>
<trkpt lat="52.940444" lon="06.001008"><ele>7.6</ele><time>2021-03-19T12:10:00Z</time><name>PT7483</name></trkpt>
<trkpt lat="52.940456" lon="06.000998"><ele>7.7</ele><time>2021-03-19T12:10:02Z</time><name>PT7484</name></trkpt>
<trkpt lat="52.940465" lon="06.000993"><ele>7.7</ele><time>2021-03-19T12:10:03Z</time><name>PT7485</name></trkpt>
<trkpt lat="52.940478" lon="06.000987"><ele>7.7</ele><time>2021-03-19T12:10:03Z</time><name>PT7486</name></trkpt>
<trkpt lat="52.940490" lon="06.000976"><ele>7.7</ele><time>2021-03-19T12:10:05Z</time><name>PT7487</name></trkpt>
<trkpt lat="52.940498" lon="06.000967"><ele>7.7</ele><time>2021-03-19T12:10:06Z</time><name>PT7488</name></trkpt>
<trkpt lat="52.940505" lon="06.000957"><ele>7.7</ele><time>2021-03-19T12:10:06Z</time><name>PT7489</name></trkpt>
<trkpt lat="52.940512" lon="06.000947"><ele>7.7</ele><time>2021-03-19T12:10:08Z</time><name>PT7490</name></trkpt>
<trkpt lat="52.940521" lon="06.000936"><ele>7.5</ele><time>2021-03-19T12:10:09Z</time><name>PT7491</name></trkpt>
<trkpt lat="52.940535" lon="06.000927"><ele>7.5</ele><time>2021-03-19T12:10:09Z</time><name>PT7492</name></trkpt>
<trkpt lat="52.940549" lon="06.000914"><ele>7.4</ele><time>2021-03-19T12:10:11Z</time><name>PT7493</name></trkpt>
<trkpt lat="52.940559" lon="06.000908"><ele>7.6</ele><time>2021-03-19T12:10:12Z</time><name>PT7494</name></trkpt>
<trkpt lat="52.940566" lon="06.000899"><ele>7.5</ele><time>2021-03-19T12:10:12Z</time><name>PT7495</name></trkpt>
<trkpt lat="52.940574" lon="06.000891"><ele>7.7</ele><time>2021-03-19T12:10:14Z</time><name>PT7496</name></trkpt>
<trkpt lat="52.940582" lon="06.000880"><ele>7.7</ele><time>2021-03-19T12:10:14Z</time><name>PT7497</name></trkpt>
<trkpt lat="52.940589" lon="06.000870"><ele>7.7</ele><time>2021-03-19T12:10:16Z</time><name>PT7498</name></trkpt>
<trkpt lat="52.940598" lon="06.000864"><ele>7.5</ele><time>2021-03-19T12:10:16Z</time><name>PT7499</name></trkpt>
<trkpt lat="52.940611" lon="06.000851"><ele>7.7</ele><time>2021-03-19T12:10:18Z</time><name>PT7500</name></trkpt>
<trkpt lat="52.940622" lon="06.000834"><ele>7.7</ele><time>2021-03-19T12:10:19Z</time><name>PT7501</name></trkpt>
<trkpt lat="52.940627" lon="06.000828"><ele>7.7</ele><time>2021-03-19T12:10:19Z</time><name>PT7502</name></trkpt>
<trkpt lat="52.940633" lon="06.000819"><ele>8</ele><time>2021-03-19T12:10:21Z</time><name>PT7503</name></trkpt>
<trkpt lat="52.940643" lon="06.000813"><ele>7.8</ele><time>2021-03-19T12:10:22Z</time><name>PT7504</name></trkpt>
<trkpt lat="52.940655" lon="06.000800"><ele>7.9</ele><time>2021-03-19T12:10:22Z</time><name>PT7505</name></trkpt>
<trkpt lat="52.940662" lon="06.000796"><ele>7.9</ele><time>2021-03-19T12:10:24Z</time><name>PT7506</name></trkpt>
<trkpt lat="52.940672" lon="06.000784"><ele>7.9</ele><time>2021-03-19T12:10:25Z</time><name>PT7507</name></trkpt>
<trkpt lat="52.940683" lon="06.000772"><ele>8</ele><time>2021-03-19T12:10:25Z</time><name>PT7508</name></trkpt>
<trkpt lat="52.940692" lon="06.000762"><ele>8</ele><time>2021-03-19T12:10:27Z</time><name>PT7509</name></trkpt>
<trkpt lat="52.940696" lon="06.000746"><ele>7.9</ele><time>2021-03-19T12:10:28Z</time><name>PT7510</name></trkpt>
<trkpt lat="52.940703" lon="06.000736"><ele>7.9</ele><time>2021-03-19T12:10:28Z</time><name>PT7511</name></trkpt>
<trkpt lat="52.940710" lon="06.000725"><ele>7.8</ele><time>2021-03-19T12:10:30Z</time><name>PT7512</name></trkpt>
<trkpt lat="52.940721" lon="06.000713"><ele>7.8</ele><time>2021-03-19T12:10:31Z</time><name>PT7513</name></trkpt>
<trkpt lat="52.940733" lon="06.000700"><ele>7.8</ele><time>2021-03-19T12:10:31Z</time><name>PT7514</name></trkpt>
<trkpt lat="52.940742" lon="06.000690"><ele>7.7</ele><time>2021-03-19T12:10:33Z</time><name>PT7515</name></trkpt>
<trkpt lat="52.940747" lon="06.000680"><ele>7.7</ele><time>2021-03-19T12:10:34Z</time><name>PT7516</name></trkpt>
<trkpt lat="52.940756" lon="06.000670"><ele>7.6</ele><time>2021-03-19T12:10:34Z</time><name>PT7517</name></trkpt>
<trkpt lat="52.940767" lon="06.000655"><ele>7.6</ele><time>2021-03-19T12:10:36Z</time><name>PT7518</name></trkpt>
<trkpt lat="52.940776" lon="06.000643"><ele>7.7</ele><time>2021-03-19T12:10:37Z</time><name>PT7519</name></trkpt>
<trkpt lat="52.940778" lon="06.000639"><ele>7.5</ele><time>2021-03-19T12:10:37Z</time><name>PT7520</name></trkpt>
<trkpt lat="52.940782" lon="06.000634"><ele>7.7</ele><time>2021-03-19T12:10:39Z</time><name>PT7521</name></trkpt>
<trkpt lat="52.940790" lon="06.000626"><ele>7.8</ele><time>2021-03-19T12:10:40Z</time><name>PT7522</name></trkpt>
<trkpt lat="52.940800" lon="06.000618"><ele>7.7</ele><time>2021-03-19T12:10:40Z</time><name>PT7523</name></trkpt>
<trkpt lat="52.940807" lon="06.000613"><ele>7.7</ele><time>2021-03-19T12:10:42Z</time><name>PT7524</name></trkpt>
<trkpt lat="52.940822" lon="06.000599"><ele>7.9</ele><time>2021-03-19T12:10:43Z</time><name>PT7525</name></trkpt>
<trkpt lat="52.940835" lon="06.000594"><ele>7.9</ele><time>2021-03-19T12:10:43Z</time><name>PT7526</name></trkpt>
<trkpt lat="52.940849" lon="06.000588"><ele>7.7</ele><time>2021-03-19T12:10:45Z</time><name>PT7527</name></trkpt>
<trkpt lat="52.940860" lon="06.000574"><ele>7.7</ele><time>2021-03-19T12:10:45Z</time><name>PT7528</name></trkpt>
<trkpt lat="52.940869" lon="06.000566"><ele>7.7</ele><time>2021-03-19T12:10:47Z</time><name>PT7529</name></trkpt>
<trkpt lat="52.940877" lon="06.000559"><ele>7.7</ele><time>2021-03-19T12:10:48Z</time><name>PT7530</name></trkpt>
<trkpt lat="52.940893" lon="06.000553"><ele>7.7</ele><time>2021-03-19T12:10:48Z</time><name>PT7531</name></trkpt>
<trkpt lat="52.940904" lon="06.000547"><ele>7.8</ele><time>2021-03-19T12:10:50Z</time><name>PT7532</name></trkpt>
<trkpt lat="52.940914" lon="06.000535"><ele>7.7</ele><time>2021-03-19T12:10:51Z</time><name>PT7533</name></trkpt>
<trkpt lat="52.940921" lon="06.000526"><ele>7.7</ele><time>2021-03-19T12:10:51Z</time><name>PT7534</name></trkpt>
<trkpt lat="52.940932" lon="06.000514"><ele>7.6</ele><time>2021-03-19T12:10:53Z</time><name>PT7535</name></trkpt>
<trkpt lat="52.940939" lon="06.000502"><ele>7.4</ele><time>2021-03-19T12:10:54Z</time><name>PT7536</name></trkpt>
<trkpt lat="52.940950" lon="06.000497"><ele>7.2</ele><time>2021-03-19T12:10:54Z</time><name>PT7537</name></trkpt>
<trkpt lat="52.940958" lon="06.000484"><ele>7.2</ele><time>2021-03-19T12:10:56Z</time><name>PT7538</name></trkpt>
<trkpt lat="52.940971" lon="06.000470"><ele>7.1</ele><time>2021-03-19T12:10:57Z</time><name>PT7539</name></trkpt>
<trkpt lat="52.940982" lon="06.000461"><ele>7.2</ele><time>2021-03-19T12:10:57Z</time><name>PT7540</name></trkpt>
<trkpt lat="52.940993" lon="06.000451"><ele>7.3</ele><time>2021-03-19T12:10:59Z</time><name>PT7541</name></trkpt>
<trkpt lat="52.941000" lon="06.000446"><ele>7.4</ele><time>2021-03-19T12:11:00Z</time><name>PT7542</name></trkpt>
<trkpt lat="52.941005" lon="06.000436"><ele>7.5</ele><time>2021-03-19T12:11:00Z</time><name>PT7543</name></trkpt>
<trkpt lat="52.941016" lon="06.000423"><ele>7.6</ele><time>2021-03-19T12:11:02Z</time><name>PT7544</name></trkpt>
<trkpt lat="52.941026" lon="06.000414"><ele>7.5</ele><time>2021-03-19T12:11:03Z</time><name>PT7545</name></trkpt>
<trkpt lat="52.941034" lon="06.000411"><ele>7.5</ele><time>2021-03-19T12:11:03Z</time><name>PT7546</name></trkpt>
<trkpt lat="52.941045" lon="06.000406"><ele>7.2</ele><time>2021-03-19T12:11:05Z</time><name>PT7547</name></trkpt>
<trkpt lat="52.941055" lon="06.000397"><ele>7.2</ele><time>2021-03-19T12:11:06Z</time><name>PT7548</name></trkpt>
<trkpt lat="52.941068" lon="06.000384"><ele>7.1</ele><time>2021-03-19T12:11:06Z</time><name>PT7549</name></trkpt>
<trkpt lat="52.941076" lon="06.000373"><ele>7</ele><time>2021-03-19T12:11:08Z</time><name>PT7550</name></trkpt>
<trkpt lat="52.941088" lon="06.000365"><ele>7.1</ele><time>2021-03-19T12:11:09Z</time><name>PT7551</name></trkpt>
<trkpt lat="52.941098" lon="06.000355"><ele>7.1</ele><time>2021-03-19T12:11:09Z</time><name>PT7552</name></trkpt>
<trkpt lat="52.941108" lon="06.000345"><ele>7.2</ele><time>2021-03-19T12:11:11Z</time><name>PT7553</name></trkpt>
<trkpt lat="52.941118" lon="06.000338"><ele>7.4</ele><time>2021-03-19T12:11:12Z</time><name>PT7554</name></trkpt>
<trkpt lat="52.941126" lon="06.000336"><ele>7.5</ele><time>2021-03-19T12:11:12Z</time><name>PT7555</name></trkpt>
<trkpt lat="52.941131" lon="06.000334"><ele>7.4</ele><time>2021-03-19T12:11:14Z</time><name>PT7556</name></trkpt>
<trkpt lat="52.941131" lon="06.000329"><ele>7.5</ele><time>2021-03-19T12:11:14Z</time><name>PT7557</name></trkpt>
<trkpt lat="52.941140" lon="06.000325"><ele>7.5</ele><time>2021-03-19T12:11:16Z</time><name>PT7558</name></trkpt>
<trkpt lat="52.941153" lon="06.000323"><ele>7.5</ele><time>2021-03-19T12:11:17Z</time><name>PT7559</name></trkpt>
<trkpt lat="52.941165" lon="06.000322"><ele>7.7</ele><time>2021-03-19T12:11:17Z</time><name>PT7560</name></trkpt>
<trkpt lat="52.941175" lon="06.000320"><ele>7.7</ele><time>2021-03-19T12:11:19Z</time><name>PT7561</name></trkpt>
<trkpt lat="52.941187" lon="06.000318"><ele>7.8</ele><time>2021-03-19T12:11:20Z</time><name>PT7562</name></trkpt>
<trkpt lat="52.941194" lon="06.000318"><ele>7.9</ele><time>2021-03-19T12:11:20Z</time><name>PT7563</name></trkpt>
<trkpt lat="52.941208" lon="06.000317"><ele>7.8</ele><time>2021-03-19T12:11:22Z</time><name>PT7564</name></trkpt>
<trkpt lat="52.941220" lon="06.000315"><ele>7.7</ele><time>2021-03-19T12:11:23Z</time><name>PT7565</name></trkpt>
<trkpt lat="52.941233" lon="06.000315"><ele>7.7</ele><time>2021-03-19T12:11:23Z</time><name>PT7566</name></trkpt>
<trkpt lat="52.941237" lon="06.000314"><ele>7.7</ele><time>2021-03-19T12:11:25Z</time><name>PT7567</name></trkpt>
<trkpt lat="52.941242" lon="06.000316"><ele>7.8</ele><time>2021-03-19T12:11:26Z</time><name>PT7568</name></trkpt>
<trkpt lat="52.941242" lon="06.000314"><ele>7.7</ele><time>2021-03-19T12:11:26Z</time><name>PT7569</name></trkpt>
<trkpt lat="52.941244" lon="06.000314"><ele>7.7</ele><time>2021-03-19T12:11:28Z</time><name>PT7570</name></trkpt>
<trkpt lat="52.941249" lon="06.000317"><ele>7.7</ele><time>2021-03-19T12:11:29Z</time><name>PT7571</name></trkpt>
<trkpt lat="52.941260" lon="06.000319"><ele>7.7</ele><time>2021-03-19T12:11:29Z</time><name>PT7572</name></trkpt>
<trkpt lat="52.941267" lon="06.000315"><ele>7.8</ele><time>2021-03-19T12:11:31Z</time><name>PT7573</name></trkpt>
<trkpt lat="52.941272" lon="06.000315"><ele>8</ele><time>2021-03-19T12:11:32Z</time><name>PT7574</name></trkpt>
<trkpt lat="52.941285" lon="06.000307"><ele>7.9</ele><time>2021-03-19T12:11:32Z</time><name>PT7575</name></trkpt>
<trkpt lat="52.941299" lon="06.000306"><ele>8.1</ele><time>2021-03-19T12:11:34Z</time><name>PT7576</name></trkpt>
<trkpt lat="52.941306" lon="06.000306"><ele>8</ele><time>2021-03-19T12:11:35Z</time><name>PT7577</name></trkpt>
<trkpt lat="52.941315" lon="06.000306"><ele>8</ele><time>2021-03-19T12:11:35Z</time><name>PT7578</name></trkpt>
<trkpt lat="52.941329" lon="06.000310"><ele>8.1</ele><time>2021-03-19T12:11:37Z</time><name>PT7579</name></trkpt>
<trkpt lat="52.941339" lon="06.000312"><ele>8.3</ele><time>2021-03-19T12:11:38Z</time><name>PT7580</name></trkpt>
<trkpt lat="52.941348" lon="06.000313"><ele>8.3</ele><time>2021-03-19T12:11:38Z</time><name>PT7581</name></trkpt>
<trkpt lat="52.941362" lon="06.000310"><ele>8.5</ele><time>2021-03-19T12:11:40Z</time><name>PT7582</name></trkpt>
<trkpt lat="52.941370" lon="06.000317"><ele>8.5</ele><time>2021-03-19T12:11:41Z</time><name>PT7583</name></trkpt>
<trkpt lat="52.941380" lon="06.000319"><ele>8.6</ele><time>2021-03-19T12:11:41Z</time><name>PT7584</name></trkpt>
<trkpt lat="52.941386" lon="06.000315"><ele>8.6</ele><time>2021-03-19T12:11:43Z</time><name>PT7585</name></trkpt>
<trkpt lat="52.941393" lon="06.000313"><ele>8.5</ele><time>2021-03-19T12:11:44Z</time><name>PT7586</name></trkpt>
<trkpt lat="52.941405" lon="06.000314"><ele>8.3</ele><time>2021-03-19T12:11:44Z</time><name>PT7587</name></trkpt>
<trkpt lat="52.941418" lon="06.000313"><ele>8.1</ele><time>2021-03-19T12:11:46Z</time><name>PT7588</name></trkpt>
<trkpt lat="52.941431" lon="06.000309"><ele>8.1</ele><time>2021-03-19T12:11:46Z</time><name>PT7589</name></trkpt>
<trkpt lat="52.941442" lon="06.000306"><ele>8</ele><time>2021-03-19T12:11:48Z</time><name>PT7590</name></trkpt>
<trkpt lat="52.941452" lon="06.000305"><ele>7.9</ele><time>2021-03-19T12:11:49Z</time><name>PT7591</name></trkpt>
<trkpt lat="52.941461" lon="06.000302"><ele>7.7</ele><time>2021-03-19T12:11:49Z</time><name>PT7592</name></trkpt>
<trkpt lat="52.941473" lon="06.000303"><ele>7.9</ele><time>2021-03-19T12:11:51Z</time><name>PT7593</name></trkpt>
<trkpt lat="52.941487" lon="06.000304"><ele>8.1</ele><time>2021-03-19T12:11:52Z</time><name>PT7594</name></trkpt>
<trkpt lat="52.941498" lon="06.000305"><ele>8.1</ele><time>2021-03-19T12:11:52Z</time><name>PT7595</name></trkpt>
<trkpt lat="52.941506" lon="06.000303"><ele>8.3</ele><time>2021-03-19T12:11:54Z</time><name>PT7596</name></trkpt>
<trkpt lat="52.941521" lon="06.000302"><ele>8</ele><time>2021-03-19T12:11:55Z</time><name>PT7597</name></trkpt>
<trkpt lat="52.941539" lon="06.000303"><ele>8</ele><time>2021-03-19T12:11:55Z</time><name>PT7598</name></trkpt>
<trkpt lat="52.941554" lon="06.000303"><ele>7.8</ele><time>2021-03-19T12:11:57Z</time><name>PT7599</name></trkpt>
<trkpt lat="52.941568" lon="06.000306"><ele>7.7</ele><time>2021-03-19T12:11:58Z</time><name>PT7600</name></trkpt>
<trkpt lat="52.941578" lon="06.000311"><ele>7.6</ele><time>2021-03-19T12:11:58Z</time><name>PT7601</name></trkpt>
<trkpt lat="52.941588" lon="06.000312"><ele>7.8</ele><time>2021-03-19T12:12:00Z</time><name>PT7602</name></trkpt>
<trkpt lat="52.941598" lon="06.000310"><ele>7.8</ele><time>2021-03-19T12:12:01Z</time><name>PT7603</name></trkpt>
<trkpt lat="52.941606" lon="06.000314"><ele>7.9</ele><time>2021-03-19T12:12:01Z</time><name>PT7604</name></trkpt>
<trkpt lat="52.941612" lon="06.000314"><ele>8.1</ele><time>2021-03-19T12:12:03Z</time><name>PT7605</name></trkpt>
<trkpt lat="52.941622" lon="06.000315"><ele>8.1</ele><time>2021-03-19T12:12:04Z</time><name>PT7606</name></trkpt>
<trkpt lat="52.941632" lon="06.000316"><ele>8.1</ele><time>2021-03-19T12:12:04Z</time><name>PT7607</name></trkpt>
<trkpt lat="52.941644" lon="06.000316"><ele>8</ele><time>2021-03-19T12:12:06Z</time><name>PT7608</name></trkpt>
<trkpt lat="52.941647" lon="06.000313"><ele>7.9</ele><time>2021-03-19T12:12:07Z</time><name>PT7609</name></trkpt>
<trkpt lat="52.941652" lon="06.000317"><ele>7.9</ele><time>2021-03-19T12:12:07Z</time><name>PT7610</name></trkpt>
<trkpt lat="52.941658" lon="06.000317"><ele>7.9</ele><time>2021-03-19T12:12:09Z</time><name>PT7611</name></trkpt>
<trkpt lat="52.941667" lon="06.000326"><ele>7.9</ele><time>2021-03-19T12:12:10Z</time><name>PT7612</name></trkpt>
<trkpt lat="52.941677" lon="06.000330"><ele>7.7</ele><time>2021-03-19T12:12:10Z</time><name>PT7613</name></trkpt>
<trkpt lat="52.941688" lon="06.000336"><ele>7.5</ele><time>2021-03-19T12:12:12Z</time><name>PT7614</name></trkpt>
<trkpt lat="52.941696" lon="06.000347"><ele>7.4</ele><time>2021-03-19T12:12:13Z</time><name>PT7615</name></trkpt>
<trkpt lat="52.941699" lon="06.000363"><ele>7.4</ele><time>2021-03-19T12:12:13Z</time><name>PT7616</name></trkpt>
<trkpt lat="52.941703" lon="06.000382"><ele>7.2</ele><time>2021-03-19T12:12:15Z</time><name>PT7617</name></trkpt>
<trkpt lat="52.941704" lon="06.000393"><ele>7.2</ele><time>2021-03-19T12:12:16Z</time><name>PT7618</name></trkpt>
<trkpt lat="52.941709" lon="06.000405"><ele>7</ele><time>2021-03-19T12:12:16Z</time><name>PT7619</name></trkpt>
<trkpt lat="52.941716" lon="06.000415"><ele>6.8</ele><time>2021-03-19T12:12:18Z</time><name>PT7620</name></trkpt>
<trkpt lat="52.941722" lon="06.000424"><ele>6.8</ele><time>2021-03-19T12:12:19Z</time><name>PT7621</name></trkpt>
<trkpt lat="52.941729" lon="06.000435"><ele>6.8</ele><time>2021-03-19T12:12:19Z</time><name>PT7622</name></trkpt>
<trkpt lat="52.941734" lon="06.000448"><ele>6.7</ele><time>2021-03-19T12:12:21Z</time><name>PT7623</name></trkpt>
<trkpt lat="52.941739" lon="06.000459"><ele>6.9</ele><time>2021-03-19T12:12:22Z</time><name>PT7624</name></trkpt>
<trkpt lat="52.941743" lon="06.000474"><ele>6.8</ele><time>2021-03-19T12:12:22Z</time><name>PT7625</name></trkpt>
<trkpt lat="52.941747" lon="06.000486"><ele>6.9</ele><time>2021-03-19T12:12:24Z</time><name>PT7626</name></trkpt>
<trkpt lat="52.941753" lon="06.000498"><ele>7.1</ele><time>2021-03-19T12:12:25Z</time><name>PT7627</name></trkpt>
<trkpt lat="52.941762" lon="06.000505"><ele>7.1</ele><time>2021-03-19T12:12:25Z</time><name>PT7628</name></trkpt>
<trkpt lat="52.941766" lon="06.000512"><ele>7.2</ele><time>2021-03-19T12:12:27Z</time><name>PT7629</name></trkpt>
<trkpt lat="52.941773" lon="06.000520"><ele>7.1</ele><time>2021-03-19T12:12:28Z</time><name>PT7630</name></trkpt>
<trkpt lat="52.941781" lon="06.000530"><ele>7.1</ele><time>2021-03-19T12:12:28Z</time><name>PT7631</name></trkpt>
<trkpt lat="52.941788" lon="06.000541"><ele>7.1</ele><time>2021-03-19T12:12:30Z</time><name>PT7632</name></trkpt>
<trkpt lat="52.941796" lon="06.000555"><ele>7.2</ele><time>2021-03-19T12:12:31Z</time><name>PT7633</name></trkpt>
<trkpt lat="52.941813" lon="06.000573"><ele>7.2</ele><time>2021-03-19T12:12:31Z</time><name>PT7634</name></trkpt>
<trkpt lat="52.941825" lon="06.000585"><ele>7.2</ele><time>2021-03-19T12:12:33Z</time><name>PT7635</name></trkpt>
<trkpt lat="52.941833" lon="06.000602"><ele>7.2</ele><time>2021-03-19T12:12:34Z</time><name>PT7636</name></trkpt>
<trkpt lat="52.941837" lon="06.000621"><ele>7.1</ele><time>2021-03-19T12:12:34Z</time><name>PT7637</name></trkpt>
<trkpt lat="52.941847" lon="06.000642"><ele>7</ele><time>2021-03-19T12:12:36Z</time><name>PT7638</name></trkpt>
<trkpt lat="52.941856" lon="06.000664"><ele>7</ele><time>2021-03-19T12:12:37Z</time><name>PT7639</name></trkpt>
<trkpt lat="52.941856" lon="06.000680"><ele>6.9</ele><time>2021-03-19T12:12:37Z</time><name>PT7640</name></trkpt>
<trkpt lat="52.941866" lon="06.000694"><ele>7.2</ele><time>2021-03-19T12:12:39Z</time><name>PT7641</name></trkpt>
<trkpt lat="52.941875" lon="06.000708"><ele>7.2</ele><time>2021-03-19T12:12:40Z</time><name>PT7642</name></trkpt>
<trkpt lat="52.941882" lon="06.000720"><ele>7.3</ele><time>2021-03-19T12:12:40Z</time><name>PT7643</name></trkpt>
<trkpt lat="52.941884" lon="06.000731"><ele>7.4</ele><time>2021-03-19T12:12:42Z</time><name>PT7644</name></trkpt>
<trkpt lat="52.941891" lon="06.000742"><ele>7.3</ele><time>2021-03-19T12:12:43Z</time><name>PT7645</name></trkpt>
<trkpt lat="52.941899" lon="06.000752"><ele>7.4</ele><time>2021-03-19T12:12:43Z</time><name>PT7646</name></trkpt>
<trkpt lat="52.941906" lon="06.000757"><ele>7.4</ele><time>2021-03-19T12:12:45Z</time><name>PT7647</name></trkpt>
<trkpt lat="52.941914" lon="06.000761"><ele>7.7</ele><time>2021-03-19T12:12:46Z</time><name>PT7648</name></trkpt>
<trkpt lat="52.941916" lon="06.000770"><ele>7.7</ele><time>2021-03-19T12:12:46Z</time><name>PT7649</name></trkpt>
<trkpt lat="52.941914" lon="06.000780"><ele>8</ele><time>2021-03-19T12:12:48Z</time><name>PT7650</name></trkpt>
<trkpt lat="52.941917" lon="06.000804"><ele>8.1</ele><time>2021-03-19T12:12:49Z</time><name>PT7651</name></trkpt>
<trkpt lat="52.941921" lon="06.000819"><ele>8.3</ele><time>2021-03-19T12:12:49Z</time><name>PT7652</name></trkpt>
<trkpt lat="52.941928" lon="06.000827"><ele>8.6</ele><time>2021-03-19T12:12:51Z</time><name>PT7653</name></trkpt>
<trkpt lat="52.941933" lon="06.000838"><ele>8.7</ele><time>2021-03-19T12:12:51Z</time><name>PT7654</name></trkpt>
<trkpt lat="52.941938" lon="06.000850"><ele>8.7</ele><time>2021-03-19T12:12:53Z</time><name>PT7655</name></trkpt>
<trkpt lat="52.941941" lon="06.000860"><ele>8.7</ele><time>2021-03-19T12:12:54Z</time><name>PT7656</name></trkpt>
<trkpt lat="52.941942" lon="06.000866"><ele>8.6</ele><time>2021-03-19T12:12:54Z</time><name>PT7657</name></trkpt>
<trkpt lat="52.941948" lon="06.000887"><ele>8.6</ele><time>2021-03-19T12:12:56Z</time><name>PT7658</name></trkpt>
<trkpt lat="52.941954" lon="06.000900"><ele>8.7</ele><time>2021-03-19T12:12:57Z</time><name>PT7659</name></trkpt>
<trkpt lat="52.941962" lon="06.000920"><ele>8.7</ele><time>2021-03-19T12:12:57Z</time><name>PT7660</name></trkpt>
<trkpt lat="52.941967" lon="06.000932"><ele>8.6</ele><time>2021-03-19T12:12:59Z</time><name>PT7661</name></trkpt>
<trkpt lat="52.941972" lon="06.000950"><ele>8.6</ele><time>2021-03-19T12:13:00Z</time><name>PT7662</name></trkpt>
<trkpt lat="52.941977" lon="06.000961"><ele>8.5</ele><time>2021-03-19T12:13:00Z</time><name>PT7663</name></trkpt>
<trkpt lat="52.941985" lon="06.000972"><ele>8.5</ele><time>2021-03-19T12:13:02Z</time><name>PT7664</name></trkpt>
<trkpt lat="52.941991" lon="06.000979"><ele>8.5</ele><time>2021-03-19T12:13:02Z</time><name>PT7665</name></trkpt>
<trkpt lat="52.941997" lon="06.000988"><ele>8.5</ele><time>2021-03-19T12:13:04Z</time><name>PT7666</name></trkpt>
<trkpt lat="52.941998" lon="06.000999"><ele>8.5</ele><time>2021-03-19T12:13:05Z</time><name>PT7667</name></trkpt>
<trkpt lat="52.942008" lon="06.001014"><ele>8.6</ele><time>2021-03-19T12:13:05Z</time><name>PT7668</name></trkpt>
<trkpt lat="52.942008" lon="06.001030"><ele>8.6</ele><time>2021-03-19T12:13:07Z</time><name>PT7669</name></trkpt>
<trkpt lat="52.942010" lon="06.001049"><ele>8.7</ele><time>2021-03-19T12:13:08Z</time><name>PT7670</name></trkpt>
<trkpt lat="52.942014" lon="06.001064"><ele>8.6</ele><time>2021-03-19T12:13:08Z</time><name>PT7671</name></trkpt>
<trkpt lat="52.942012" lon="06.001074"><ele>8.6</ele><time>2021-03-19T12:13:10Z</time><name>PT7672</name></trkpt>
<trkpt lat="52.942024" lon="06.001094"><ele>8.6</ele><time>2021-03-19T12:13:11Z</time><name>PT7673</name></trkpt>
<trkpt lat="52.942033" lon="06.001114"><ele>8.5</ele><time>2021-03-19T12:13:11Z</time><name>PT7674</name></trkpt>
<trkpt lat="52.942037" lon="06.001120"><ele>8.6</ele><time>2021-03-19T12:13:13Z</time><name>PT7675</name></trkpt>
<trkpt lat="52.942040" lon="06.001129"><ele>8.6</ele><time>2021-03-19T12:13:14Z</time><name>PT7676</name></trkpt>
<trkpt lat="52.942043" lon="06.001142"><ele>8.7</ele><time>2021-03-19T12:13:14Z</time><name>PT7677</name></trkpt>
<trkpt lat="52.942044" lon="06.001152"><ele>8.6</ele><time>2021-03-19T12:13:16Z</time><name>PT7678</name></trkpt>
<trkpt lat="52.942049" lon="06.001162"><ele>8.6</ele><time>2021-03-19T12:13:17Z</time><name>PT7679</name></trkpt>
<trkpt lat="52.942051" lon="06.001171"><ele>8.6</ele><time>2021-03-19T12:13:17Z</time><name>PT7680</name></trkpt>
<trkpt lat="52.942051" lon="06.001178"><ele>8.6</ele><time>2021-03-19T12:13:19Z</time><name>PT7681</name></trkpt>
<trkpt lat="52.942056" lon="06.001198"><ele>8.8</ele><time>2021-03-19T12:13:20Z</time><name>PT7682</name></trkpt>
<trkpt lat="52.942059" lon="06.001205"><ele>8.8</ele><time>2021-03-19T12:13:20Z</time><name>PT7683</name></trkpt>
<trkpt lat="52.942063" lon="06.001210"><ele>9</ele><time>2021-03-19T12:13:22Z</time><name>PT7684</name></trkpt>
<trkpt lat="52.942068" lon="06.001229"><ele>9.1</ele><time>2021-03-19T12:13:22Z</time><name>PT7685</name></trkpt>
<trkpt lat="52.942076" lon="06.001260"><ele>9.2</ele><time>2021-03-19T12:13:24Z</time><name>PT7686</name></trkpt>
<trkpt lat="52.942082" lon="06.001268"><ele>9.2</ele><time>2021-03-19T12:13:24Z</time><name>PT7687</name></trkpt>
<trkpt lat="52.942088" lon="06.001283"><ele>9.1</ele><time>2021-03-19T12:13:26Z</time><name>PT7688</name></trkpt>
<trkpt lat="52.942088" lon="06.001303"><ele>9.1</ele><time>2021-03-19T12:13:27Z</time><name>PT7689</name></trkpt>
<trkpt lat="52.942090" lon="06.001317"><ele>9.1</ele><time>2021-03-19T12:13:27Z</time><name>PT7690</name></trkpt>
<trkpt lat="52.942092" lon="06.001335"><ele>9.1</ele><time>2021-03-19T12:13:29Z</time><name>PT7691</name></trkpt>
<trkpt lat="52.942094" lon="06.001351"><ele>9.1</ele><time>2021-03-19T12:13:30Z</time><name>PT7692</name></trkpt>
<trkpt lat="52.942096" lon="06.001366"><ele>9.1</ele><time>2021-03-19T12:13:30Z</time><name>PT7693</name></trkpt>
<trkpt lat="52.942096" lon="06.001379"><ele>9.3</ele><time>2021-03-19T12:13:32Z</time><name>PT7694</name></trkpt>
<trkpt lat="52.942101" lon="06.001388"><ele>9.2</ele><time>2021-03-19T12:13:33Z</time><name>PT7695</name></trkpt>
<trkpt lat="52.942104" lon="06.001401"><ele>9.1</ele><time>2021-03-19T12:13:33Z</time><name>PT7696</name></trkpt>
<trkpt lat="52.942110" lon="06.001407"><ele>9</ele><time>2021-03-19T12:13:35Z</time><name>PT7697</name></trkpt>
<trkpt lat="52.942121" lon="06.001411"><ele>8.8</ele><time>2021-03-19T12:13:36Z</time><name>PT7698</name></trkpt>
<trkpt lat="52.942133" lon="06.001414"><ele>8.6</ele><time>2021-03-19T12:13:36Z</time><name>PT7699</name></trkpt>
<trkpt lat="52.942143" lon="06.001428"><ele>8.6</ele><time>2021-03-19T12:13:38Z</time><name>PT7700</name></trkpt>
<trkpt lat="52.942150" lon="06.001435"><ele>8.6</ele><time>2021-03-19T12:13:39Z</time><name>PT7701</name></trkpt>
<trkpt lat="52.942158" lon="06.001442"><ele>8.5</ele><time>2021-03-19T12:13:39Z</time><name>PT7702</name></trkpt>
<trkpt lat="52.942169" lon="06.001450"><ele>8.4</ele><time>2021-03-19T12:13:41Z</time><name>PT7703</name></trkpt>
<trkpt lat="52.942169" lon="06.001452"><ele>8.5</ele><time>2021-03-19T12:13:42Z</time><name>PT7704</name></trkpt>
<trkpt lat="52.942178" lon="06.001463"><ele>8.5</ele><time>2021-03-19T12:13:42Z</time><name>PT7705</name></trkpt>
<trkpt lat="52.942185" lon="06.001459"><ele>8.5</ele><time>2021-03-19T12:13:44Z</time><name>PT7706</name></trkpt>
<trkpt lat="52.942191" lon="06.001460"><ele>8.5</ele><time>2021-03-19T12:13:45Z</time><name>PT7707</name></trkpt>
<trkpt lat="52.942191" lon="06.001462"><ele>8.5</ele><time>2021-03-19T12:13:45Z</time><name>PT7708</name></trkpt>
<trkpt lat="52.942194" lon="06.001464"><ele>8.6</ele><time>2021-03-19T12:13:47Z</time><name>PT7709</name></trkpt>
<trkpt lat="52.942196" lon="06.001471"><ele>8.6</ele><time>2021-03-19T12:13:48Z</time><name>PT7710</name></trkpt>
<trkpt lat="52.942203" lon="06.001482"><ele>8.6</ele><time>2021-03-19T12:13:48Z</time><name>PT7711</name></trkpt>
<trkpt lat="52.942207" lon="06.001487"><ele>8.9</ele><time>2021-03-19T12:13:50Z</time><name>PT7712</name></trkpt>
<trkpt lat="52.942212" lon="06.001491"><ele>8.7</ele><time>2021-03-19T12:13:51Z</time><name>PT7713</name></trkpt>
<trkpt lat="52.942215" lon="06.001500"><ele>8.6</ele><time>2021-03-19T12:13:51Z</time><name>PT7714</name></trkpt>
<trkpt lat="52.942221" lon="06.001503"><ele>8.7</ele><time>2021-03-19T12:13:53Z</time><name>PT7715</name></trkpt>
<trkpt lat="52.942235" lon="06.001509"><ele>8.6</ele><time>2021-03-19T12:13:54Z</time><name>PT7716</name></trkpt>
<trkpt lat="52.942245" lon="06.001509"><ele>8.6</ele><time>2021-03-19T12:13:54Z</time><name>PT7717</name></trkpt>
<trkpt lat="52.942243" lon="06.001527"><ele>8.6</ele><time>2021-03-19T12:13:56Z</time><name>PT7718</name></trkpt>
<trkpt lat="52.942250" lon="06.001526"><ele>8.7</ele><time>2021-03-19T12:13:57Z</time><name>PT7719</name></trkpt>
<trkpt lat="52.942257" lon="06.001522"><ele>8.7</ele><time>2021-03-19T12:13:57Z</time><name>PT7720</name></trkpt>
<trkpt lat="52.942264" lon="06.001520"><ele>8.6</ele><time>2021-03-19T12:13:59Z</time><name>PT7721</name></trkpt>
<trkpt lat="52.942273" lon="06.001519"><ele>8.6</ele><time>2021-03-19T12:14:00Z</time><name>PT7722</name></trkpt>
<trkpt lat="52.942282" lon="06.001515"><ele>8.6</ele><time>2021-03-19T12:14:00Z</time><name>PT7723</name></trkpt>
<trkpt lat="52.942294" lon="06.001513"><ele>8.6</ele><time>2021-03-19T12:14:02Z</time><name>PT7724</name></trkpt>
<trkpt lat="52.942294" lon="06.001507"><ele>8.5</ele><time>2021-03-19T12:14:02Z</time><name>PT7725</name></trkpt>
<trkpt lat="52.942310" lon="06.001502"><ele>8.6</ele><time>2021-03-19T12:14:04Z</time><name>PT7726</name></trkpt>
<trkpt lat="52.942319" lon="06.001492"><ele>8.6</ele><time>2021-03-19T12:14:05Z</time><name>PT7727</name></trkpt>
<trkpt lat="52.942328" lon="06.001475"><ele>8.6</ele><time>2021-03-19T12:14:05Z</time><name>PT7728</name></trkpt>
<trkpt lat="52.942336" lon="06.001465"><ele>8.9</ele><time>2021-03-19T12:14:07Z</time><name>PT7729</name></trkpt>
<trkpt lat="52.942347" lon="06.001454"><ele>8.8</ele><time>2021-03-19T12:14:07Z</time><name>PT7730</name></trkpt>
<trkpt lat="52.942353" lon="06.001446"><ele>8.7</ele><time>2021-03-19T12:14:09Z</time><name>PT7731</name></trkpt>
<trkpt lat="52.942375" lon="06.001446"><ele>8.6</ele><time>2021-03-19T12:14:10Z</time><name>PT7732</name></trkpt>
<trkpt lat="52.942389" lon="06.001443"><ele>8.4</ele><time>2021-03-19T12:14:10Z</time><name>PT7733</name></trkpt>
<trkpt lat="52.942401" lon="06.001430"><ele>8.5</ele><time>2021-03-19T12:14:12Z</time><name>PT7734</name></trkpt>
<trkpt lat="52.942408" lon="06.001422"><ele>8.2</ele><time>2021-03-19T12:14:13Z</time><name>PT7735</name></trkpt>
<trkpt lat="52.942416" lon="06.001409"><ele>8.2</ele><time>2021-03-19T12:14:13Z</time><name>PT7736</name></trkpt>
<trkpt lat="52.942430" lon="06.001399"><ele>8.4</ele><time>2021-03-19T12:14:15Z</time><name>PT7737</name></trkpt>
<trkpt lat="52.942443" lon="06.001389"><ele>8.5</ele><time>2021-03-19T12:14:15Z</time><name>PT7738</name></trkpt>
<trkpt lat="52.942455" lon="06.001382"><ele>8.5</ele><time>2021-03-19T12:14:17Z</time><name>PT7739</name></trkpt>
<trkpt lat="52.942469" lon="06.001373"><ele>8.4</ele><time>2021-03-19T12:14:18Z</time><name>PT7740</name></trkpt>
<trkpt lat="52.942480" lon="06.001366"><ele>8.2</ele><time>2021-03-19T12:14:18Z</time><name>PT7741</name></trkpt>
<trkpt lat="52.942489" lon="06.001356"><ele>8.1</ele><time>2021-03-19T12:14:20Z</time><name>PT7742</name></trkpt>
<trkpt lat="52.942499" lon="06.001343"><ele>8</ele><time>2021-03-19T12:14:20Z</time><name>PT7743</name></trkpt>
<trkpt lat="52.942510" lon="06.001332"><ele>7.9</ele><time>2021-03-19T12:14:22Z</time><name>PT7744</name></trkpt>
<trkpt lat="52.942526" lon="06.001322"><ele>8.1</ele><time>2021-03-19T12:14:23Z</time><name>PT7745</name></trkpt>
<trkpt lat="52.942539" lon="06.001310"><ele>8.1</ele><time>2021-03-19T12:14:23Z</time><name>PT7746</name></trkpt>
<trkpt lat="52.942546" lon="06.001298"><ele>8.4</ele><time>2021-03-19T12:14:25Z</time><name>PT7747</name></trkpt>
<trkpt lat="52.942555" lon="06.001292"><ele>8.5</ele><time>2021-03-19T12:14:26Z</time><name>PT7748</name></trkpt>
<trkpt lat="52.942567" lon="06.001277"><ele>8.5</ele><time>2021-03-19T12:14:26Z</time><name>PT7749</name></trkpt>
<trkpt lat="52.942578" lon="06.001270"><ele>8.4</ele><time>2021-03-19T12:14:28Z</time><name>PT7750</name></trkpt>
<trkpt lat="52.942586" lon="06.001264"><ele>8.2</ele><time>2021-03-19T12:14:28Z</time><name>PT7751</name></trkpt>
<trkpt lat="52.942600" lon="06.001250"><ele>8</ele><time>2021-03-19T12:14:30Z</time><name>PT7752</name></trkpt>
<trkpt lat="52.942610" lon="06.001241"><ele>7.9</ele><time>2021-03-19T12:14:30Z</time><name>PT7753</name></trkpt>
<trkpt lat="52.942621" lon="06.001232"><ele>7.9</ele><time>2021-03-19T12:14:32Z</time><name>PT7754</name></trkpt>
<trkpt lat="52.942630" lon="06.001225"><ele>7.9</ele><time>2021-03-19T12:14:32Z</time><name>PT7755</name></trkpt>
<trkpt lat="52.942636" lon="06.001223"><ele>8.1</ele><time>2021-03-19T12:14:34Z</time><name>PT7756</name></trkpt>
<trkpt lat="52.942646" lon="06.001215"><ele>8.2</ele><time>2021-03-19T12:14:35Z</time><name>PT7757</name></trkpt>
<trkpt lat="52.942656" lon="06.001208"><ele>8.3</ele><time>2021-03-19T12:14:35Z</time><name>PT7758</name></trkpt>
<trkpt lat="52.942663" lon="06.001200"><ele>8.2</ele><time>2021-03-19T12:14:37Z</time><name>PT7759</name></trkpt>
<trkpt lat="52.942672" lon="06.001194"><ele>8.2</ele><time>2021-03-19T12:14:38Z</time><name>PT7760</name></trkpt>
<trkpt lat="52.942683" lon="06.001189"><ele>8.4</ele><time>2021-03-19T12:14:38Z</time><name>PT7761</name></trkpt>
<trkpt lat="52.942692" lon="06.001179"><ele>8.4</ele><time>2021-03-19T12:14:40Z</time><name>PT7762</name></trkpt>
<trkpt lat="52.942699" lon="06.001171"><ele>8.5</ele><time>2021-03-19T12:14:40Z</time><name>PT7763</name></trkpt>
<trkpt lat="52.942704" lon="06.001163"><ele>8.6</ele><time>2021-03-19T12:14:42Z</time><name>PT7764</name></trkpt>
<trkpt lat="52.942712" lon="06.001158"><ele>8.5</ele><time>2021-03-19T12:14:43Z</time><name>PT7765</name></trkpt>
<trkpt lat="52.942721" lon="06.001150"><ele>8.5</ele><time>2021-03-19T12:14:43Z</time><name>PT7766</name></trkpt>
<trkpt lat="52.942732" lon="06.001141"><ele>8.6</ele><time>2021-03-19T12:14:45Z</time><name>PT7767</name></trkpt>
<trkpt lat="52.942738" lon="06.001136"><ele>8.6</ele><time>2021-03-19T12:14:46Z</time><name>PT7768</name></trkpt>
<trkpt lat="52.942746" lon="06.001128"><ele>8.7</ele><time>2021-03-19T12:14:46Z</time><name>PT7769</name></trkpt>
<trkpt lat="52.942753" lon="06.001121"><ele>8.6</ele><time>2021-03-19T12:14:48Z</time><name>PT7770</name></trkpt>
<trkpt lat="52.942763" lon="06.001107"><ele>8.6</ele><time>2021-03-19T12:14:49Z</time><name>PT7771</name></trkpt>
<trkpt lat="52.942777" lon="06.001084"><ele>8.7</ele><time>2021-03-19T12:14:49Z</time><name>PT7772</name></trkpt>
<trkpt lat="52.942790" lon="06.001074"><ele>8.6</ele><time>2021-03-19T12:14:51Z</time><name>PT7773</name></trkpt>
<trkpt lat="52.942795" lon="06.001067"><ele>8.4</ele><time>2021-03-19T12:14:51Z</time><name>PT7774</name></trkpt>
<trkpt lat="52.942806" lon="06.001057"><ele>8.3</ele><time>2021-03-19T12:14:53Z</time><name>PT7775</name></trkpt>
<trkpt lat="52.942818" lon="06.001047"><ele>8.2</ele><time>2021-03-19T12:14:54Z</time><name>PT7776</name></trkpt>
<trkpt lat="52.942827" lon="06.001040"><ele>8.3</ele><time>2021-03-19T12:14:54Z</time><name>PT7777</name></trkpt>
<trkpt lat="52.942835" lon="06.001032"><ele>8.2</ele><time>2021-03-19T12:14:56Z</time><name>PT7778</name></trkpt>
<trkpt lat="52.942845" lon="06.001023"><ele>8.1</ele><time>2021-03-19T12:14:57Z</time><name>PT7779</name></trkpt>
<trkpt lat="52.942855" lon="06.001016"><ele>8</ele><time>2021-03-19T12:14:57Z</time><name>PT7780</name></trkpt>
<trkpt lat="52.942871" lon="06.001008"><ele>8.1</ele><time>2021-03-19T12:14:59Z</time><name>PT7781</name></trkpt>
<trkpt lat="52.942882" lon="06.001000"><ele>8</ele><time>2021-03-19T12:15:00Z</time><name>PT7782</name></trkpt>
<trkpt lat="52.942891" lon="06.000989"><ele>8.1</ele><time>2021-03-19T12:15:00Z</time><name>PT7783</name></trkpt>
<trkpt lat="52.942899" lon="06.000982"><ele>8.3</ele><time>2021-03-19T12:15:02Z</time><name>PT7784</name></trkpt>
<trkpt lat="52.942908" lon="06.000971"><ele>8.2</ele><time>2021-03-19T12:15:03Z</time><name>PT7785</name></trkpt>
<trkpt lat="52.942918" lon="06.000960"><ele>8.3</ele><time>2021-03-19T12:15:03Z</time><name>PT7786</name></trkpt>
<trkpt lat="52.942926" lon="06.000950"><ele>8.1</ele><time>2021-03-19T12:15:05Z</time><name>PT7787</name></trkpt>
<trkpt lat="52.942938" lon="06.000940"><ele>8.1</ele><time>2021-03-19T12:15:06Z</time><name>PT7788</name></trkpt>
<trkpt lat="52.942948" lon="06.000928"><ele>8.2</ele><time>2021-03-19T12:15:06Z</time><name>PT7789</name></trkpt>
<trkpt lat="52.942959" lon="06.000913"><ele>8.1</ele><time>2021-03-19T12:15:08Z</time><name>PT7790</name></trkpt>
<trkpt lat="52.942967" lon="06.000898"><ele>8.2</ele><time>2021-03-19T12:15:09Z</time><name>PT7791</name></trkpt>
<trkpt lat="52.942978" lon="06.000888"><ele>8.1</ele><time>2021-03-19T12:15:09Z</time><name>PT7792</name></trkpt>
<trkpt lat="52.942987" lon="06.000876"><ele>8</ele><time>2021-03-19T12:15:11Z</time><name>PT7793</name></trkpt>
<trkpt lat="52.942995" lon="06.000865"><ele>8</ele><time>2021-03-19T12:15:12Z</time><name>PT7794</name></trkpt>
<trkpt lat="52.943007" lon="06.000852"><ele>7.9</ele><time>2021-03-19T12:15:12Z</time><name>PT7795</name></trkpt>
<trkpt lat="52.943016" lon="06.000842"><ele>7.7</ele><time>2021-03-19T12:15:14Z</time><name>PT7796</name></trkpt>
<trkpt lat="52.943027" lon="06.000832"><ele>7.9</ele><time>2021-03-19T12:15:15Z</time><name>PT7797</name></trkpt>
<trkpt lat="52.943036" lon="06.000822"><ele>8.1</ele><time>2021-03-19T12:15:15Z</time><name>PT7798</name></trkpt>
<trkpt lat="52.943043" lon="06.000814"><ele>8.1</ele><time>2021-03-19T12:15:17Z</time><name>PT7799</name></trkpt>
<trkpt lat="52.943055" lon="06.000807"><ele>8.2</ele><time>2021-03-19T12:15:18Z</time><name>PT7800</name></trkpt>
<trkpt lat="52.943062" lon="06.000799"><ele>8.3</ele><time>2021-03-19T12:15:18Z</time><name>PT7801</name></trkpt>
<trkpt lat="52.943070" lon="06.000793"><ele>8.1</ele><time>2021-03-19T12:15:20Z</time><name>PT7802</name></trkpt>
<trkpt lat="52.943076" lon="06.000789"><ele>8.1</ele><time>2021-03-19T12:15:21Z</time><name>PT7803</name></trkpt>
<trkpt lat="52.943087" lon="06.000779"><ele>8.1</ele><time>2021-03-19T12:15:21Z</time><name>PT7804</name></trkpt>
<trkpt lat="52.943096" lon="06.000766"><ele>8.1</ele><time>2021-03-19T12:15:23Z</time><name>PT7805</name></trkpt>
<trkpt lat="52.943106" lon="06.000754"><ele>8.1</ele><time>2021-03-19T12:15:24Z</time><name>PT7806</name></trkpt>
<trkpt lat="52.943113" lon="06.000744"><ele>8.1</ele><time>2021-03-19T12:15:24Z</time><name>PT7807</name></trkpt>
<trkpt lat="52.943120" lon="06.000741"><ele>8</ele><time>2021-03-19T12:15:26Z</time><name>PT7808</name></trkpt>
<trkpt lat="52.943132" lon="06.000734"><ele>8</ele><time>2021-03-19T12:15:27Z</time><name>PT7809</name></trkpt>
<trkpt lat="52.943141" lon="06.000725"><ele>8</ele><time>2021-03-19T12:15:27Z</time><name>PT7810</name></trkpt>
<trkpt lat="52.943155" lon="06.000717"><ele>8.1</ele><time>2021-03-19T12:15:29Z</time><name>PT7811</name></trkpt>
<trkpt lat="52.943164" lon="06.000710"><ele>8.3</ele><time>2021-03-19T12:15:30Z</time><name>PT7812</name></trkpt>
<trkpt lat="52.943174" lon="06.000703"><ele>8.6</ele><time>2021-03-19T12:15:30Z</time><name>PT7813</name></trkpt>
<trkpt lat="52.943182" lon="06.000696"><ele>8.5</ele><time>2021-03-19T12:15:32Z</time><name>PT7814</name></trkpt>
<trkpt lat="52.943192" lon="06.000687"><ele>8.3</ele><time>2021-03-19T12:15:33Z</time><name>PT7815</name></trkpt>
<trkpt lat="52.943203" lon="06.000682"><ele>8.2</ele><time>2021-03-19T12:15:33Z</time><name>PT7816</name></trkpt>
<trkpt lat="52.943210" lon="06.000679"><ele>8</ele><time>2021-03-19T12:15:35Z</time><name>PT7817</name></trkpt>
<trkpt lat="52.943216" lon="06.000669"><ele>8</ele><time>2021-03-19T12:15:36Z</time><name>PT7818</name></trkpt>
<trkpt lat="52.943227" lon="06.000656"><ele>8.1</ele><time>2021-03-19T12:15:36Z</time><name>PT7819</name></trkpt>
<trkpt lat="52.943236" lon="06.000646"><ele>8.1</ele><time>2021-03-19T12:15:38Z</time><name>PT7820</name></trkpt>
<trkpt lat="52.943243" lon="06.000638"><ele>8.2</ele><time>2021-03-19T12:15:39Z</time><name>PT7821</name></trkpt>
<trkpt lat="52.943247" lon="06.000630"><ele>8.2</ele><time>2021-03-19T12:15:39Z</time><name>PT7822</name></trkpt>
<trkpt lat="52.943251" lon="06.000621"><ele>8.3</ele><time>2021-03-19T12:15:41Z</time><name>PT7823</name></trkpt>
<trkpt lat="52.943255" lon="06.000615"><ele>8.2</ele><time>2021-03-19T12:15:42Z</time><name>PT7824</name></trkpt>
<trkpt lat="52.943260" lon="06.000611"><ele>8.1</ele><time>2021-03-19T12:15:42Z</time><name>PT7825</name></trkpt>
<trkpt lat="52.943267" lon="06.000603"><ele>8</ele><time>2021-03-19T12:15:44Z</time><name>PT7826</name></trkpt>
<trkpt lat="52.943275" lon="06.000591"><ele>7.7</ele><time>2021-03-19T12:15:44Z</time><name>PT7827</name></trkpt>
<trkpt lat="52.943282" lon="06.000588"><ele>7.5</ele><time>2021-03-19T12:15:46Z</time><name>PT7828</name></trkpt>
<trkpt lat="52.943291" lon="06.000581"><ele>7.6</ele><time>2021-03-19T12:15:47Z</time><name>PT7829</name></trkpt>
<trkpt lat="52.943304" lon="06.000569"><ele>7.5</ele><time>2021-03-19T12:15:47Z</time><name>PT7830</name></trkpt>
<trkpt lat="52.943315" lon="06.000564"><ele>7.6</ele><time>2021-03-19T12:15:49Z</time><name>PT7831</name></trkpt>
<trkpt lat="52.943326" lon="06.000560"><ele>7.7</ele><time>2021-03-19T12:15:50Z</time><name>PT7832</name></trkpt>
<trkpt lat="52.943338" lon="06.000556"><ele>7.7</ele><time>2021-03-19T12:15:50Z</time><name>PT7833</name></trkpt>
<trkpt lat="52.943347" lon="06.000552"><ele>7.7</ele><time>2021-03-19T12:15:52Z</time><name>PT7834</name></trkpt>
<trkpt lat="52.943356" lon="06.000549"><ele>7.6</ele><time>2021-03-19T12:15:53Z</time><name>PT7835</name></trkpt>
<trkpt lat="52.943366" lon="06.000545"><ele>7.6</ele><time>2021-03-19T12:15:53Z</time><name>PT7836</name></trkpt>
<trkpt lat="52.943378" lon="06.000543"><ele>7.5</ele><time>2021-03-19T12:15:55Z</time><name>PT7837</name></trkpt>
<trkpt lat="52.943389" lon="06.000550"><ele>7.5</ele><time>2021-03-19T12:15:56Z</time><name>PT7838</name></trkpt>
<trkpt lat="52.943401" lon="06.000553"><ele>7.5</ele><time>2021-03-19T12:15:56Z</time><name>PT7839</name></trkpt>
<trkpt lat="52.943406" lon="06.000557"><ele>7.4</ele><time>2021-03-19T12:15:58Z</time><name>PT7840</name></trkpt>
<trkpt lat="52.943410" lon="06.000565"><ele>7.2</ele><time>2021-03-19T12:15:59Z</time><name>PT7841</name></trkpt>
<trkpt lat="52.943418" lon="06.000577"><ele>7</ele><time>2021-03-19T12:15:59Z</time><name>PT7842</name></trkpt>
<trkpt lat="52.943423" lon="06.000587"><ele>6.9</ele><time>2021-03-19T12:16:01Z</time><name>PT7843</name></trkpt>
<trkpt lat="52.943428" lon="06.000599"><ele>7</ele><time>2021-03-19T12:16:02Z</time><name>PT7844</name></trkpt>
<trkpt lat="52.943437" lon="06.000609"><ele>7</ele><time>2021-03-19T12:16:02Z</time><name>PT7845</name></trkpt>
<trkpt lat="52.943441" lon="06.000618"><ele>7.1</ele><time>2021-03-19T12:16:04Z</time><name>PT7846</name></trkpt>
<trkpt lat="52.943445" lon="06.000631"><ele>7.2</ele><time>2021-03-19T12:16:05Z</time><name>PT7847</name></trkpt>
<trkpt lat="52.943449" lon="06.000642"><ele>7.2</ele><time>2021-03-19T12:16:05Z</time><name>PT7848</name></trkpt>
<trkpt lat="52.943458" lon="06.000653"><ele>7.2</ele><time>2021-03-19T12:16:07Z</time><name>PT7849</name></trkpt>
<trkpt lat="52.943458" lon="06.000667"><ele>7.2</ele><time>2021-03-19T12:16:08Z</time><name>PT7850</name></trkpt>
<trkpt lat="52.943459" lon="06.000683"><ele>7.4</ele><time>2021-03-19T12:16:08Z</time><name>PT7851</name></trkpt>
<trkpt lat="52.943467" lon="06.000695"><ele>7.6</ele><time>2021-03-19T12:16:10Z</time><name>PT7852</name></trkpt>
<trkpt lat="52.943475" lon="06.000706"><ele>7.7</ele><time>2021-03-19T12:16:10Z</time><name>PT7853</name></trkpt>
<trkpt lat="52.943483" lon="06.000718"><ele>7.6</ele><time>2021-03-19T12:16:12Z</time><name>PT7854</name></trkpt>
<trkpt lat="52.943493" lon="06.000730"><ele>7.6</ele><time>2021-03-19T12:16:13Z</time><name>PT7855</name></trkpt>
<trkpt lat="52.943500" lon="06.000746"><ele>7.4</ele><time>2021-03-19T12:16:13Z</time><name>PT7856</name></trkpt>
<trkpt lat="52.943506" lon="06.000761"><ele>7.3</ele><time>2021-03-19T12:16:15Z</time><name>PT7857</name></trkpt>
<trkpt lat="52.943513" lon="06.000774"><ele>7.4</ele><time>2021-03-19T12:16:16Z</time><name>PT7858</name></trkpt>
<trkpt lat="52.943521" lon="06.000784"><ele>7.4</ele><time>2021-03-19T12:16:16Z</time><name>PT7859</name></trkpt>
<trkpt lat="52.943530" lon="06.000792"><ele>7.4</ele><time>2021-03-19T12:16:18Z</time><name>PT7860</name></trkpt>
<trkpt lat="52.943539" lon="06.000798"><ele>7.5</ele><time>2021-03-19T12:16:18Z</time><name>PT7861</name></trkpt>
<trkpt lat="52.943547" lon="06.000805"><ele>7.4</ele><time>2021-03-19T12:16:20Z</time><name>PT7862</name></trkpt>
<trkpt lat="52.943557" lon="06.000814"><ele>7.3</ele><time>2021-03-19T12:16:20Z</time><name>PT7863</name></trkpt>
<trkpt lat="52.943569" lon="06.000820"><ele>7.2</ele><time>2021-03-19T12:16:22Z</time><name>PT7864</name></trkpt>
<trkpt lat="52.943576" lon="06.000823"><ele>7.2</ele><time>2021-03-19T12:16:23Z</time><name>PT7865</name></trkpt>
<trkpt lat="52.943582" lon="06.000827"><ele>7.2</ele><time>2021-03-19T12:16:23Z</time><name>PT7866</name></trkpt>
<trkpt lat="52.943587" lon="06.000830"><ele>7.3</ele><time>2021-03-19T12:16:25Z</time><name>PT7867</name></trkpt>
<trkpt lat="52.943593" lon="06.000834"><ele>7.4</ele><time>2021-03-19T12:16:26Z</time><name>PT7868</name></trkpt>
<trkpt lat="52.943598" lon="06.000837"><ele>7.3</ele><time>2021-03-19T12:16:26Z</time><name>PT7869</name></trkpt>
<trkpt lat="52.943602" lon="06.000837"><ele>7.4</ele><time>2021-03-19T12:16:28Z</time><name>PT7870</name></trkpt>
<trkpt lat="52.943605" lon="06.000837"><ele>7.3</ele><time>2021-03-19T12:16:28Z</time><name>PT7871</name></trkpt>
<trkpt lat="52.943608" lon="06.000836"><ele>7.4</ele><time>2021-03-19T12:16:30Z</time><name>PT7872</name></trkpt>
<trkpt lat="52.943610" lon="06.000832"><ele>7.2</ele><time>2021-03-19T12:16:40Z</time><name>PT7873</name></trkpt>
<trkpt lat="52.943621" lon="06.000833"><ele>7.3</ele><time>2021-03-19T12:16:42Z</time><name>PT7874</name></trkpt>
<trkpt lat="52.943631" lon="06.000835"><ele>7.3</ele><time>2021-03-19T12:16:43Z</time><name>PT7875</name></trkpt>
<trkpt lat="52.943643" lon="06.000829"><ele>7.4</ele><time>2021-03-19T12:16:43Z</time><name>PT7876</name></trkpt>
<trkpt lat="52.943649" lon="06.000835"><ele>7.2</ele><time>2021-03-19T12:16:45Z</time><name>PT7877</name></trkpt>
<trkpt lat="52.943658" lon="06.000835"><ele>7.2</ele><time>2021-03-19T12:16:46Z</time><name>PT7878</name></trkpt>
<trkpt lat="52.943671" lon="06.000832"><ele>7</ele><time>2021-03-19T12:16:46Z</time><name>PT7879</name></trkpt>
<trkpt lat="52.943687" lon="06.000821"><ele>7</ele><time>2021-03-19T12:16:48Z</time><name>PT7880</name></trkpt>
<trkpt lat="52.943695" lon="06.000816"><ele>7</ele><time>2021-03-19T12:16:49Z</time><name>PT7881</name></trkpt>
<trkpt lat="52.943706" lon="06.000813"><ele>7</ele><time>2021-03-19T12:16:49Z</time><name>PT7882</name></trkpt>
<trkpt lat="52.943717" lon="06.000813"><ele>7</ele><time>2021-03-19T12:16:51Z</time><name>PT7883</name></trkpt>
<trkpt lat="52.943727" lon="06.000815"><ele>6.9</ele><time>2021-03-19T12:16:52Z</time><name>PT7884</name></trkpt>
<trkpt lat="52.943737" lon="06.000813"><ele>7</ele><time>2021-03-19T12:16:52Z</time><name>PT7885</name></trkpt>
<trkpt lat="52.943745" lon="06.000808"><ele>6.9</ele><time>2021-03-19T12:16:54Z</time><name>PT7886</name></trkpt>
<trkpt lat="52.943751" lon="06.000807"><ele>6.9</ele><time>2021-03-19T12:16:55Z</time><name>PT7887</name></trkpt>
<trkpt lat="52.943760" lon="06.000808"><ele>7</ele><time>2021-03-19T12:16:55Z</time><name>PT7888</name></trkpt>
<trkpt lat="52.943766" lon="06.000811"><ele>7.1</ele><time>2021-03-19T12:16:57Z</time><name>PT7889</name></trkpt>
<trkpt lat="52.943778" lon="06.000813"><ele>7.2</ele><time>2021-03-19T12:16:58Z</time><name>PT7890</name></trkpt>
<trkpt lat="52.943790" lon="06.000811"><ele>7.2</ele><time>2021-03-19T12:16:58Z</time><name>PT7891</name></trkpt>
<trkpt lat="52.943799" lon="06.000815"><ele>7.3</ele><time>2021-03-19T12:17:00Z</time><name>PT7892</name></trkpt>
<trkpt lat="52.943809" lon="06.000814"><ele>7.2</ele><time>2021-03-19T12:17:01Z</time><name>PT7893</name></trkpt>
<trkpt lat="52.943817" lon="06.000818"><ele>7.2</ele><time>2021-03-19T12:17:01Z</time><name>PT7894</name></trkpt>
<trkpt lat="52.943829" lon="06.000825"><ele>7.1</ele><time>2021-03-19T12:17:03Z</time><name>PT7895</name></trkpt>
<trkpt lat="52.943842" lon="06.000831"><ele>6.8</ele><time>2021-03-19T12:17:04Z</time><name>PT7896</name></trkpt>
<trkpt lat="52.943854" lon="06.000839"><ele>6.8</ele><time>2021-03-19T12:17:04Z</time><name>PT7897</name></trkpt>
<trkpt lat="52.943860" lon="06.000847"><ele>6.8</ele><time>2021-03-19T12:17:06Z</time><name>PT7898</name></trkpt>
<trkpt lat="52.943867" lon="06.000857"><ele>6.9</ele><time>2021-03-19T12:17:07Z</time><name>PT7899</name></trkpt>
<trkpt lat="52.943875" lon="06.000871"><ele>7.1</ele><time>2021-03-19T12:17:07Z</time><name>PT7900</name></trkpt>
<trkpt lat="52.943881" lon="06.000885"><ele>7.1</ele><time>2021-03-19T12:17:09Z</time><name>PT7901</name></trkpt>
<trkpt lat="52.943888" lon="06.000897"><ele>7.2</ele><time>2021-03-19T12:17:10Z</time><name>PT7902</name></trkpt>
<trkpt lat="52.943896" lon="06.000910"><ele>7.2</ele><time>2021-03-19T12:17:10Z</time><name>PT7903</name></trkpt>
<trkpt lat="52.943900" lon="06.000924"><ele>7.2</ele><time>2021-03-19T12:17:12Z</time><name>PT7904</name></trkpt>
<trkpt lat="52.943905" lon="06.000939"><ele>6.9</ele><time>2021-03-19T12:17:13Z</time><name>PT7905</name></trkpt>
<trkpt lat="52.943908" lon="06.000952"><ele>6.8</ele><time>2021-03-19T12:17:13Z</time><name>PT7906</name></trkpt>
<trkpt lat="52.943913" lon="06.000964"><ele>6.7</ele><time>2021-03-19T12:17:15Z</time><name>PT7907</name></trkpt>
<trkpt lat="52.943921" lon="06.000975"><ele>6.9</ele><time>2021-03-19T12:17:16Z</time><name>PT7908</name></trkpt>
<trkpt lat="52.943928" lon="06.000989"><ele>6.9</ele><time>2021-03-19T12:17:16Z</time><name>PT7909</name></trkpt>
<trkpt lat="52.943935" lon="06.000999"><ele>7.1</ele><time>2021-03-19T12:17:18Z</time><name>PT7910</name></trkpt>
<trkpt lat="52.943942" lon="06.001014"><ele>7.1</ele><time>2021-03-19T12:17:19Z</time><name>PT7911</name></trkpt>
<trkpt lat="52.943946" lon="06.001027"><ele>7.1</ele><time>2021-03-19T12:17:19Z</time><name>PT7912</name></trkpt>
<trkpt lat="52.943950" lon="06.001041"><ele>7.1</ele><time>2021-03-19T12:17:21Z</time><name>PT7913</name></trkpt>
<trkpt lat="52.943958" lon="06.001056"><ele>7.2</ele><time>2021-03-19T12:17:22Z</time><name>PT7914</name></trkpt>
<trkpt lat="52.943963" lon="06.001069"><ele>7.2</ele><time>2021-03-19T12:17:22Z</time><name>PT7915</name></trkpt>
<trkpt lat="52.943970" lon="06.001081"><ele>7.2</ele><time>2021-03-19T12:17:24Z</time><name>PT7916</name></trkpt>
<trkpt lat="52.943975" lon="06.001092"><ele>7.2</ele><time>2021-03-19T12:17:25Z</time><name>PT7917</name></trkpt>
<trkpt lat="52.943977" lon="06.001103"><ele>7.2</ele><time>2021-03-19T12:17:25Z</time><name>PT7918</name></trkpt>
<trkpt lat="52.943979" lon="06.001117"><ele>7.2</ele><time>2021-03-19T12:17:27Z</time><name>PT7919</name></trkpt>
<trkpt lat="52.943983" lon="06.001132"><ele>7.2</ele><time>2021-03-19T12:17:28Z</time><name>PT7920</name></trkpt>
<trkpt lat="52.943989" lon="06.001148"><ele>7.3</ele><time>2021-03-19T12:17:29Z</time><name>PT7921</name></trkpt>
<trkpt lat="52.943996" lon="06.001162"><ele>7.1</ele><time>2021-03-19T12:17:30Z</time><name>PT7922</name></trkpt>
<trkpt lat="52.943997" lon="06.001174"><ele>6.9</ele><time>2021-03-19T12:17:31Z</time><name>PT7923</name></trkpt>
<trkpt lat="52.944001" lon="06.001188"><ele>6.9</ele><time>2021-03-19T12:17:31Z</time><name>PT7924</name></trkpt>
<trkpt lat="52.944006" lon="06.001199"><ele>6.8</ele><time>2021-03-19T12:17:33Z</time><name>PT7925</name></trkpt>
<trkpt lat="52.944012" lon="06.001214"><ele>6.8</ele><time>2021-03-19T12:17:34Z</time><name>PT7926</name></trkpt>
<trkpt lat="52.944018" lon="06.001229"><ele>7.1</ele><time>2021-03-19T12:17:34Z</time><name>PT7927</name></trkpt>
<trkpt lat="52.944019" lon="06.001245"><ele>7.2</ele><time>2021-03-19T12:17:36Z</time><name>PT7928</name></trkpt>
<trkpt lat="52.944025" lon="06.001259"><ele>7.3</ele><time>2021-03-19T12:17:37Z</time><name>PT7929</name></trkpt>
<trkpt lat="52.944029" lon="06.001272"><ele>7.3</ele><time>2021-03-19T12:17:37Z</time><name>PT7930</name></trkpt>
<trkpt lat="52.944035" lon="06.001285"><ele>7.2</ele><time>2021-03-19T12:17:39Z</time><name>PT7931</name></trkpt>
<trkpt lat="52.944039" lon="06.001296"><ele>7.2</ele><time>2021-03-19T12:17:40Z</time><name>PT7932</name></trkpt>
<trkpt lat="52.944038" lon="06.001309"><ele>7.1</ele><time>2021-03-19T12:17:40Z</time><name>PT7933</name></trkpt>
<trkpt lat="52.944036" lon="06.001323"><ele>7</ele><time>2021-03-19T12:17:42Z</time><name>PT7934</name></trkpt>
<trkpt lat="52.944038" lon="06.001335"><ele>7.1</ele><time>2021-03-19T12:17:43Z</time><name>PT7935</name></trkpt>
<trkpt lat="52.944042" lon="06.001346"><ele>7.1</ele><time>2021-03-19T12:17:43Z</time><name>PT7936</name></trkpt>
<trkpt lat="52.944049" lon="06.001360"><ele>7.2</ele><time>2021-03-19T12:17:45Z</time><name>PT7937</name></trkpt>
<trkpt lat="52.944060" lon="06.001375"><ele>7.2</ele><time>2021-03-19T12:17:46Z</time><name>PT7938</name></trkpt>
<trkpt lat="52.944068" lon="06.001391"><ele>7.1</ele><time>2021-03-19T12:17:46Z</time><name>PT7939</name></trkpt>
<trkpt lat="52.944074" lon="06.001408"><ele>6.9</ele><time>2021-03-19T12:17:48Z</time><name>PT7940</name></trkpt>
<trkpt lat="52.944078" lon="06.001422"><ele>6.7</ele><time>2021-03-19T12:17:49Z</time><name>PT7941</name></trkpt>
<trkpt lat="52.944083" lon="06.001436"><ele>6.5</ele><time>2021-03-19T12:17:49Z</time><name>PT7942</name></trkpt>
<trkpt lat="52.944087" lon="06.001451"><ele>6.4</ele><time>2021-03-19T12:17:51Z</time><name>PT7943</name></trkpt>
<trkpt lat="52.944089" lon="06.001465"><ele>6.5</ele><time>2021-03-19T12:17:52Z</time><name>PT7944</name></trkpt>
<trkpt lat="52.944094" lon="06.001475"><ele>6.6</ele><time>2021-03-19T12:17:52Z</time><name>PT7945</name></trkpt>
<trkpt lat="52.944099" lon="06.001490"><ele>6.6</ele><time>2021-03-19T12:17:54Z</time><name>PT7946</name></trkpt>
<trkpt lat="52.944103" lon="06.001510"><ele>6.4</ele><time>2021-03-19T12:17:55Z</time><name>PT7947</name></trkpt>
<trkpt lat="52.944107" lon="06.001528"><ele>6.1</ele><time>2021-03-19T12:17:55Z</time><name>PT7948</name></trkpt>
<trkpt lat="52.944112" lon="06.001543"><ele>5.9</ele><time>2021-03-19T12:17:57Z</time><name>PT7949</name></trkpt>
<trkpt lat="52.944117" lon="06.001555"><ele>5.9</ele><time>2021-03-19T12:17:57Z</time><name>PT7950</name></trkpt>
<trkpt lat="52.944119" lon="06.001567"><ele>6</ele><time>2021-03-19T12:17:59Z</time><name>PT7951</name></trkpt>
<trkpt lat="52.944122" lon="06.001585"><ele>6.3</ele><time>2021-03-19T12:18:00Z</time><name>PT7952</name></trkpt>
<trkpt lat="52.944133" lon="06.001604"><ele>6.2</ele><time>2021-03-19T12:18:00Z</time><name>PT7953</name></trkpt>
<trkpt lat="52.944141" lon="06.001620"><ele>6.3</ele><time>2021-03-19T12:18:02Z</time><name>PT7954</name></trkpt>
<trkpt lat="52.944151" lon="06.001637"><ele>6.3</ele><time>2021-03-19T12:18:02Z</time><name>PT7955</name></trkpt>
<trkpt lat="52.944161" lon="06.001653"><ele>6.6</ele><time>2021-03-19T12:18:04Z</time><name>PT7956</name></trkpt>
<trkpt lat="52.944168" lon="06.001671"><ele>6.8</ele><time>2021-03-19T12:18:05Z</time><name>PT7957</name></trkpt>
<trkpt lat="52.944174" lon="06.001687"><ele>6.9</ele><time>2021-03-19T12:18:05Z</time><name>PT7958</name></trkpt>
<trkpt lat="52.944179" lon="06.001702"><ele>6.9</ele><time>2021-03-19T12:18:07Z</time><name>PT7959</name></trkpt>
<trkpt lat="52.944184" lon="06.001717"><ele>6.8</ele><time>2021-03-19T12:18:08Z</time><name>PT7960</name></trkpt>
<trkpt lat="52.944184" lon="06.001733"><ele>6.8</ele><time>2021-03-19T12:18:08Z</time><name>PT7961</name></trkpt>
<trkpt lat="52.944185" lon="06.001748"><ele>6.9</ele><time>2021-03-19T12:18:10Z</time><name>PT7962</name></trkpt>
<trkpt lat="52.944192" lon="06.001761"><ele>6.8</ele><time>2021-03-19T12:18:11Z</time><name>PT7963</name></trkpt>
<trkpt lat="52.944194" lon="06.001772"><ele>6.8</ele><time>2021-03-19T12:18:11Z</time><name>PT7964</name></trkpt>
<trkpt lat="52.944203" lon="06.001788"><ele>6.6</ele><time>2021-03-19T12:18:13Z</time><name>PT7965</name></trkpt>
<trkpt lat="52.944211" lon="06.001804"><ele>6.3</ele><time>2021-03-19T12:18:14Z</time><name>PT7966</name></trkpt>
<trkpt lat="52.944218" lon="06.001820"><ele>6.4</ele><time>2021-03-19T12:18:14Z</time><name>PT7967</name></trkpt>
<trkpt lat="52.944225" lon="06.001834"><ele>6.2</ele><time>2021-03-19T12:18:16Z</time><name>PT7968</name></trkpt>
<trkpt lat="52.944228" lon="06.001850"><ele>5.9</ele><time>2021-03-19T12:18:17Z</time><name>PT7969</name></trkpt>
<trkpt lat="52.944229" lon="06.001865"><ele>5.9</ele><time>2021-03-19T12:18:17Z</time><name>PT7970</name></trkpt>
<trkpt lat="52.944234" lon="06.001882"><ele>5.8</ele><time>2021-03-19T12:18:19Z</time><name>PT7971</name></trkpt>
<trkpt lat="52.944239" lon="06.001900"><ele>5.8</ele><time>2021-03-19T12:18:20Z</time><name>PT7972</name></trkpt>
<trkpt lat="52.944247" lon="06.001921"><ele>5.9</ele><time>2021-03-19T12:18:20Z</time><name>PT7973</name></trkpt>
<trkpt lat="52.944249" lon="06.001933"><ele>6</ele><time>2021-03-19T12:18:22Z</time><name>PT7974</name></trkpt>
<trkpt lat="52.944249" lon="06.001944"><ele>6</ele><time>2021-03-19T12:18:23Z</time><name>PT7975</name></trkpt>
<trkpt lat="52.944254" lon="06.001960"><ele>6</ele><time>2021-03-19T12:18:23Z</time><name>PT7976</name></trkpt>
<trkpt lat="52.944260" lon="06.001975"><ele>6</ele><time>2021-03-19T12:18:25Z</time><name>PT7977</name></trkpt>
<trkpt lat="52.944267" lon="06.001990"><ele>6.1</ele><time>2021-03-19T12:18:26Z</time><name>PT7978</name></trkpt>
<trkpt lat="52.944271" lon="06.002006"><ele>6.2</ele><time>2021-03-19T12:18:26Z</time><name>PT7979</name></trkpt>
<trkpt lat="52.944280" lon="06.002024"><ele>6.3</ele><time>2021-03-19T12:18:28Z</time><name>PT7980</name></trkpt>
<trkpt lat="52.944284" lon="06.002041"><ele>6.2</ele><time>2021-03-19T12:18:29Z</time><name>PT7981</name></trkpt>
<trkpt lat="52.944291" lon="06.002056"><ele>6.2</ele><time>2021-03-19T12:18:29Z</time><name>PT7982</name></trkpt>
<trkpt lat="52.944301" lon="06.002072"><ele>6.3</ele><time>2021-03-19T12:18:31Z</time><name>PT7983</name></trkpt>
<trkpt lat="52.944311" lon="06.002088"><ele>6.6</ele><time>2021-03-19T12:18:32Z</time><name>PT7984</name></trkpt>
<trkpt lat="52.944316" lon="06.002103"><ele>6.8</ele><time>2021-03-19T12:18:32Z</time><name>PT7985</name></trkpt>
<trkpt lat="52.944322" lon="06.002120"><ele>7</ele><time>2021-03-19T12:18:34Z</time><name>PT7986</name></trkpt>
<trkpt lat="52.944331" lon="06.002136"><ele>6.9</ele><time>2021-03-19T12:18:35Z</time><name>PT7987</name></trkpt>
<trkpt lat="52.944340" lon="06.002152"><ele>6.9</ele><time>2021-03-19T12:18:35Z</time><name>PT7988</name></trkpt>
<trkpt lat="52.944348" lon="06.002168"><ele>6.7</ele><time>2021-03-19T12:18:37Z</time><name>PT7989</name></trkpt>
<trkpt lat="52.944351" lon="06.002184"><ele>6.6</ele><time>2021-03-19T12:18:38Z</time><name>PT7990</name></trkpt>
<trkpt lat="52.944352" lon="06.002200"><ele>6.7</ele><time>2021-03-19T12:18:38Z</time><name>PT7991</name></trkpt>
<trkpt lat="52.944355" lon="06.002214"><ele>6.7</ele><time>2021-03-19T12:18:40Z</time><name>PT7992</name></trkpt>
<trkpt lat="52.944362" lon="06.002226"><ele>7</ele><time>2021-03-19T12:18:41Z</time><name>PT7993</name></trkpt>
<trkpt lat="52.944373" lon="06.002239"><ele>7.2</ele><time>2021-03-19T12:18:41Z</time><name>PT7994</name></trkpt>
<trkpt lat="52.944379" lon="06.002254"><ele>7.2</ele><time>2021-03-19T12:18:43Z</time><name>PT7995</name></trkpt>
<trkpt lat="52.944386" lon="06.002264"><ele>7.2</ele><time>2021-03-19T12:18:44Z</time><name>PT7996</name></trkpt>
<trkpt lat="52.944395" lon="06.002275"><ele>7.2</ele><time>2021-03-19T12:18:44Z</time><name>PT7997</name></trkpt>
<trkpt lat="52.944398" lon="06.002286"><ele>6.9</ele><time>2021-03-19T12:18:46Z</time><name>PT7998</name></trkpt>
<trkpt lat="52.944403" lon="06.002298"><ele>7</ele><time>2021-03-19T12:18:47Z</time><name>PT7999</name></trkpt>
<trkpt lat="52.944409" lon="06.002311"><ele>6.9</ele><time>2021-03-19T12:18:47Z</time><name>PT8000</name></trkpt>
<trkpt lat="52.944415" lon="06.002327"><ele>7</ele><time>2021-03-19T12:18:49Z</time><name>PT8001</name></trkpt>
<trkpt lat="52.944418" lon="06.002343"><ele>7</ele><time>2021-03-19T12:18:50Z</time><name>PT8002</name></trkpt>
<trkpt lat="52.944420" lon="06.002359"><ele>6.9</ele><time>2021-03-19T12:18:50Z</time><name>PT8003</name></trkpt>
<trkpt lat="52.944435" lon="06.002356"><ele>6.8</ele><time>2021-03-19T12:18:52Z</time><name>PT8004</name></trkpt>
<trkpt lat="52.944446" lon="06.002363"><ele>6.6</ele><time>2021-03-19T12:18:53Z</time><name>PT8005</name></trkpt>
<trkpt lat="52.944450" lon="06.002380"><ele>6.5</ele><time>2021-03-19T12:18:53Z</time><name>PT8006</name></trkpt>
<trkpt lat="52.944457" lon="06.002397"><ele>6.6</ele><time>2021-03-19T12:18:55Z</time><name>PT8007</name></trkpt>
<trkpt lat="52.944465" lon="06.002412"><ele>6.8</ele><time>2021-03-19T12:18:56Z</time><name>PT8008</name></trkpt>
<trkpt lat="52.944473" lon="06.002427"><ele>7</ele><time>2021-03-19T12:18:56Z</time><name>PT8009</name></trkpt>
<trkpt lat="52.944480" lon="06.002441"><ele>7.1</ele><time>2021-03-19T12:18:58Z</time><name>PT8010</name></trkpt>
<trkpt lat="52.944487" lon="06.002454"><ele>7.2</ele><time>2021-03-19T12:18:59Z</time><name>PT8011</name></trkpt>
<trkpt lat="52.944491" lon="06.002466"><ele>7.1</ele><time>2021-03-19T12:18:59Z</time><name>PT8012</name></trkpt>
<trkpt lat="52.944498" lon="06.002476"><ele>7</ele><time>2021-03-19T12:19:01Z</time><name>PT8013</name></trkpt>
<trkpt lat="52.944508" lon="06.002489"><ele>7.1</ele><time>2021-03-19T12:19:02Z</time><name>PT8014</name></trkpt>
<trkpt lat="52.944512" lon="06.002503"><ele>7</ele><time>2021-03-19T12:19:02Z</time><name>PT8015</name></trkpt>
<trkpt lat="52.944513" lon="06.002518"><ele>7.1</ele><time>2021-03-19T12:19:04Z</time><name>PT8016</name></trkpt>
<trkpt lat="52.944522" lon="06.002532"><ele>7.1</ele><time>2021-03-19T12:19:05Z</time><name>PT8017</name></trkpt>
<trkpt lat="52.944522" lon="06.002536"><ele>7</ele><time>2021-03-19T12:19:05Z</time><name>PT8018</name></trkpt>
<trkpt lat="52.944529" lon="06.002543"><ele>7</ele><time>2021-03-19T12:19:07Z</time><name>PT8019</name></trkpt>
<trkpt lat="52.944537" lon="06.002557"><ele>7.1</ele><time>2021-03-19T12:19:08Z</time><name>PT8020</name></trkpt>
<trkpt lat="52.944540" lon="06.002568"><ele>7.2</ele><time>2021-03-19T12:19:08Z</time><name>PT8021</name></trkpt>
<trkpt lat="52.944542" lon="06.002583"><ele>7.6</ele><time>2021-03-19T12:19:10Z</time><name>PT8022</name></trkpt>
<trkpt lat="52.944544" lon="06.002598"><ele>7.2</ele><time>2021-03-19T12:19:11Z</time><name>PT8023</name></trkpt>
<trkpt lat="52.944553" lon="06.002616"><ele>7.2</ele><time>2021-03-19T12:19:11Z</time><name>PT8024</name></trkpt>
<trkpt lat="52.944564" lon="06.002626"><ele>6.8</ele><time>2021-03-19T12:19:13Z</time><name>PT8025</name></trkpt>
<trkpt lat="52.944565" lon="06.002638"><ele>6.8</ele><time>2021-03-19T12:19:13Z</time><name>PT8026</name></trkpt>
<trkpt lat="52.944571" lon="06.002649"><ele>6.9</ele><time>2021-03-19T12:19:15Z</time><name>PT8027</name></trkpt>
<trkpt lat="52.944580" lon="06.002657"><ele>7</ele><time>2021-03-19T12:19:15Z</time><name>PT8028</name></trkpt>
<trkpt lat="52.944581" lon="06.002670"><ele>7.2</ele><time>2021-03-19T12:19:17Z</time><name>PT8029</name></trkpt>
<trkpt lat="52.944585" lon="06.002684"><ele>7.1</ele><time>2021-03-19T12:19:18Z</time><name>PT8030</name></trkpt>
<trkpt lat="52.944593" lon="06.002700"><ele>6.9</ele><time>2021-03-19T12:19:18Z</time><name>PT8031</name></trkpt>
<trkpt lat="52.944603" lon="06.002714"><ele>6.8</ele><time>2021-03-19T12:19:20Z</time><name>PT8032</name></trkpt>
<trkpt lat="52.944610" lon="06.002725"><ele>6.8</ele><time>2021-03-19T12:19:21Z</time><name>PT8033</name></trkpt>
<trkpt lat="52.944614" lon="06.002742"><ele>6.7</ele><time>2021-03-19T12:19:21Z</time><name>PT8034</name></trkpt>
<trkpt lat="52.944618" lon="06.002764"><ele>6.8</ele><time>2021-03-19T12:19:23Z</time><name>PT8035</name></trkpt>
<trkpt lat="52.944625" lon="06.002779"><ele>6.8</ele><time>2021-03-19T12:19:24Z</time><name>PT8036</name></trkpt>
<trkpt lat="52.944632" lon="06.002794"><ele>6.8</ele><time>2021-03-19T12:19:24Z</time><name>PT8037</name></trkpt>
<trkpt lat="52.944637" lon="06.002807"><ele>6.8</ele><time>2021-03-19T12:19:26Z</time><name>PT8038</name></trkpt>
<trkpt lat="52.944644" lon="06.002818"><ele>6.8</ele><time>2021-03-19T12:19:27Z</time><name>PT8039</name></trkpt>
<trkpt lat="52.944650" lon="06.002830"><ele>6.9</ele><time>2021-03-19T12:19:27Z</time><name>PT8040</name></trkpt>
<trkpt lat="52.944653" lon="06.002844"><ele>6.8</ele><time>2021-03-19T12:19:29Z</time><name>PT8041</name></trkpt>
<trkpt lat="52.944659" lon="06.002855"><ele>6.7</ele><time>2021-03-19T12:19:30Z</time><name>PT8042</name></trkpt>
<trkpt lat="52.944668" lon="06.002864"><ele>6.6</ele><time>2021-03-19T12:19:30Z</time><name>PT8043</name></trkpt>
<trkpt lat="52.944676" lon="06.002871"><ele>6.7</ele><time>2021-03-19T12:19:32Z</time><name>PT8044</name></trkpt>
<trkpt lat="52.944684" lon="06.002880"><ele>6.9</ele><time>2021-03-19T12:19:33Z</time><name>PT8045</name></trkpt>
<trkpt lat="52.944686" lon="06.002896"><ele>6.8</ele><time>2021-03-19T12:19:33Z</time><name>PT8046</name></trkpt>
<trkpt lat="52.944686" lon="06.002908"><ele>6.8</ele><time>2021-03-19T12:19:35Z</time><name>PT8047</name></trkpt>
<trkpt lat="52.944689" lon="06.002920"><ele>6.8</ele><time>2021-03-19T12:19:36Z</time><name>PT8048</name></trkpt>
<trkpt lat="52.944689" lon="06.002935"><ele>6.7</ele><time>2021-03-19T12:19:36Z</time><name>PT8049</name></trkpt>
<trkpt lat="52.944685" lon="06.002955"><ele>6.6</ele><time>2021-03-19T12:19:38Z</time><name>PT8050</name></trkpt>
<trkpt lat="52.944689" lon="06.002967"><ele>6.8</ele><time>2021-03-19T12:19:39Z</time><name>PT8051</name></trkpt>
<trkpt lat="52.944697" lon="06.002977"><ele>6.8</ele><time>2021-03-19T12:19:39Z</time><name>PT8052</name></trkpt>
<trkpt lat="52.944701" lon="06.002984"><ele>6.9</ele><time>2021-03-19T12:19:41Z</time><name>PT8053</name></trkpt>
<trkpt lat="52.944706" lon="06.002997"><ele>6.9</ele><time>2021-03-19T12:19:41Z</time><name>PT8054</name></trkpt>
<trkpt lat="52.944713" lon="06.003005"><ele>7</ele><time>2021-03-19T12:19:43Z</time><name>PT8055</name></trkpt>
<trkpt lat="52.944722" lon="06.003014"><ele>6.9</ele><time>2021-03-19T12:19:44Z</time><name>PT8056</name></trkpt>
<trkpt lat="52.944729" lon="06.003018"><ele>6.9</ele><time>2021-03-19T12:19:44Z</time><name>PT8057</name></trkpt>
<trkpt lat="52.944733" lon="06.003031"><ele>6.8</ele><time>2021-03-19T12:19:46Z</time><name>PT8058</name></trkpt>
<trkpt lat="52.944736" lon="06.003044"><ele>6.8</ele><time>2021-03-19T12:19:46Z</time><name>PT8059</name></trkpt>
<trkpt lat="52.944744" lon="06.003058"><ele>6.7</ele><time>2021-03-19T12:19:48Z</time><name>PT8060</name></trkpt>
<trkpt lat="52.944749" lon="06.003073"><ele>6.8</ele><time>2021-03-19T12:19:49Z</time><name>PT8061</name></trkpt>
<trkpt lat="52.944752" lon="06.003094"><ele>6.7</ele><time>2021-03-19T12:19:49Z</time><name>PT8062</name></trkpt>
<trkpt lat="52.944759" lon="06.003115"><ele>6.7</ele><time>2021-03-19T12:19:51Z</time><name>PT8063</name></trkpt>
<trkpt lat="52.944770" lon="06.003131"><ele>6.7</ele><time>2021-03-19T12:19:52Z</time><name>PT8064</name></trkpt>
<trkpt lat="52.944777" lon="06.003142"><ele>6.8</ele><time>2021-03-19T12:19:52Z</time><name>PT8065</name></trkpt>
<trkpt lat="52.944784" lon="06.003152"><ele>6.6</ele><time>2021-03-19T12:19:54Z</time><name>PT8066</name></trkpt>
<trkpt lat="52.944788" lon="06.003167"><ele>6.7</ele><time>2021-03-19T12:19:55Z</time><name>PT8067</name></trkpt>
<trkpt lat="52.944794" lon="06.003178"><ele>6.7</ele><time>2021-03-19T12:19:55Z</time><name>PT8068</name></trkpt>
<trkpt lat="52.944802" lon="06.003191"><ele>6.6</ele><time>2021-03-19T12:19:57Z</time><name>PT8069</name></trkpt>
<trkpt lat="52.944807" lon="06.003206"><ele>6.7</ele><time>2021-03-19T12:19:58Z</time><name>PT8070</name></trkpt>
<trkpt lat="52.944807" lon="06.003224"><ele>6.7</ele><time>2021-03-19T12:19:58Z</time><name>PT8071</name></trkpt>
<trkpt lat="52.944810" lon="06.003255"><ele>6.8</ele><time>2021-03-19T12:20:00Z</time><name>PT8072</name></trkpt>
<trkpt lat="52.944816" lon="06.003283"><ele>6.6</ele><time>2021-03-19T12:20:01Z</time><name>PT8073</name></trkpt>
<trkpt lat="52.944823" lon="06.003296"><ele>6.6</ele><time>2021-03-19T12:20:01Z</time><name>PT8074</name></trkpt>
<trkpt lat="52.944828" lon="06.003316"><ele>6.7</ele><time>2021-03-19T12:20:03Z</time><name>PT8075</name></trkpt>
<trkpt lat="52.944835" lon="06.003333"><ele>6.6</ele><time>2021-03-19T12:20:04Z</time><name>PT8076</name></trkpt>
<trkpt lat="52.944846" lon="06.003351"><ele>6.7</ele><time>2021-03-19T12:20:04Z</time><name>PT8077</name></trkpt>
<trkpt lat="52.944854" lon="06.003367"><ele>6.8</ele><time>2021-03-19T12:20:06Z</time><name>PT8078</name></trkpt>
<trkpt lat="52.944859" lon="06.003383"><ele>6.8</ele><time>2021-03-19T12:20:07Z</time><name>PT8079</name></trkpt>
<trkpt lat="52.944865" lon="06.003401"><ele>6.8</ele><time>2021-03-19T12:20:07Z</time><name>PT8080</name></trkpt>
<trkpt lat="52.944871" lon="06.003421"><ele>6.5</ele><time>2021-03-19T12:20:09Z</time><name>PT8081</name></trkpt>
<trkpt lat="52.944881" lon="06.003441"><ele>6.3</ele><time>2021-03-19T12:20:10Z</time><name>PT8082</name></trkpt>
<trkpt lat="52.944887" lon="06.003457"><ele>6.2</ele><time>2021-03-19T12:20:10Z</time><name>PT8083</name></trkpt>
<trkpt lat="52.944895" lon="06.003473"><ele>6.2</ele><time>2021-03-19T12:20:12Z</time><name>PT8084</name></trkpt>
<trkpt lat="52.944901" lon="06.003486"><ele>6.3</ele><time>2021-03-19T12:20:13Z</time><name>PT8085</name></trkpt>
<trkpt lat="52.944906" lon="06.003501"><ele>6.5</ele><time>2021-03-19T12:20:13Z</time><name>PT8086</name></trkpt>
<trkpt lat="52.944912" lon="06.003515"><ele>6.5</ele><time>2021-03-19T12:20:15Z</time><name>PT8087</name></trkpt>
<trkpt lat="52.944918" lon="06.003526"><ele>6.6</ele><time>2021-03-19T12:20:16Z</time><name>PT8088</name></trkpt>
<trkpt lat="52.944924" lon="06.003534"><ele>6.6</ele><time>2021-03-19T12:20:16Z</time><name>PT8089</name></trkpt>
<trkpt lat="52.944932" lon="06.003552"><ele>6.7</ele><time>2021-03-19T12:20:18Z</time><name>PT8090</name></trkpt>
<trkpt lat="52.944940" lon="06.003571"><ele>6.8</ele><time>2021-03-19T12:20:19Z</time><name>PT8091</name></trkpt>
<trkpt lat="52.944947" lon="06.003590"><ele>6.9</ele><time>2021-03-19T12:20:19Z</time><name>PT8092</name></trkpt>
<trkpt lat="52.944953" lon="06.003607"><ele>6.8</ele><time>2021-03-19T12:20:21Z</time><name>PT8093</name></trkpt>
<trkpt lat="52.944962" lon="06.003619"><ele>6.8</ele><time>2021-03-19T12:20:22Z</time><name>PT8094</name></trkpt>
<trkpt lat="52.944970" lon="06.003633"><ele>6.7</ele><time>2021-03-19T12:20:22Z</time><name>PT8095</name></trkpt>
<trkpt lat="52.944979" lon="06.003646"><ele>6.4</ele><time>2021-03-19T12:20:24Z</time><name>PT8096</name></trkpt>
<trkpt lat="52.944985" lon="06.003660"><ele>6.3</ele><time>2021-03-19T12:20:25Z</time><name>PT8097</name></trkpt>
<trkpt lat="52.944991" lon="06.003675"><ele>6.3</ele><time>2021-03-19T12:20:25Z</time><name>PT8098</name></trkpt>
<trkpt lat="52.944999" lon="06.003689"><ele>6.2</ele><time>2021-03-19T12:20:27Z</time><name>PT8099</name></trkpt>
<trkpt lat="52.945008" lon="06.003704"><ele>6.2</ele><time>2021-03-19T12:20:28Z</time><name>PT8100</name></trkpt>
<trkpt lat="52.945015" lon="06.003719"><ele>6.3</ele><time>2021-03-19T12:20:28Z</time><name>PT8101</name></trkpt>
<trkpt lat="52.945018" lon="06.003731"><ele>6.4</ele><time>2021-03-19T12:20:30Z</time><name>PT8102</name></trkpt>
<trkpt lat="52.945025" lon="06.003740"><ele>6.6</ele><time>2021-03-19T12:20:31Z</time><name>PT8103</name></trkpt>
<trkpt lat="52.945031" lon="06.003749"><ele>6.7</ele><time>2021-03-19T12:20:31Z</time><name>PT8104</name></trkpt>
<trkpt lat="52.945035" lon="06.003767"><ele>6.5</ele><time>2021-03-19T12:20:33Z</time><name>PT8105</name></trkpt>
<trkpt lat="52.945039" lon="06.003790"><ele>6.4</ele><time>2021-03-19T12:20:34Z</time><name>PT8106</name></trkpt>
<trkpt lat="52.945040" lon="06.003806"><ele>6.4</ele><time>2021-03-19T12:20:34Z</time><name>PT8107</name></trkpt>
<trkpt lat="52.945043" lon="06.003828"><ele>6.6</ele><time>2021-03-19T12:20:36Z</time><name>PT8108</name></trkpt>
<trkpt lat="52.945048" lon="06.003846"><ele>6.7</ele><time>2021-03-19T12:20:37Z</time><name>PT8109</name></trkpt>
<trkpt lat="52.945056" lon="06.003861"><ele>6.8</ele><time>2021-03-19T12:20:37Z</time><name>PT8110</name></trkpt>
<trkpt lat="52.945065" lon="06.003881"><ele>7</ele><time>2021-03-19T12:20:39Z</time><name>PT8111</name></trkpt>
<trkpt lat="52.945072" lon="06.003898"><ele>7.1</ele><time>2021-03-19T12:20:40Z</time><name>PT8112</name></trkpt>
<trkpt lat="52.945078" lon="06.003910"><ele>7.2</ele><time>2021-03-19T12:20:40Z</time><name>PT8113</name></trkpt>
<trkpt lat="52.945084" lon="06.003927"><ele>7.2</ele><time>2021-03-19T12:20:42Z</time><name>PT8114</name></trkpt>
<trkpt lat="52.945089" lon="06.003943"><ele>7.1</ele><time>2021-03-19T12:20:43Z</time><name>PT8115</name></trkpt>
<trkpt lat="52.945095" lon="06.003956"><ele>7.1</ele><time>2021-03-19T12:20:43Z</time><name>PT8116</name></trkpt>
<trkpt lat="52.945101" lon="06.003965"><ele>6.9</ele><time>2021-03-19T12:20:45Z</time><name>PT8117</name></trkpt>
<trkpt lat="52.945110" lon="06.003973"><ele>7</ele><time>2021-03-19T12:20:45Z</time><name>PT8118</name></trkpt>
<trkpt lat="52.945120" lon="06.003984"><ele>7.1</ele><time>2021-03-19T12:20:47Z</time><name>PT8119</name></trkpt>
<trkpt lat="52.945124" lon="06.003998"><ele>7</ele><time>2021-03-19T12:20:48Z</time><name>PT8120</name></trkpt>
<trkpt lat="52.945131" lon="06.004014"><ele>7</ele><time>2021-03-19T12:20:48Z</time><name>PT8121</name></trkpt>
<trkpt lat="52.945140" lon="06.004027"><ele>7.1</ele><time>2021-03-19T12:20:50Z</time><name>PT8122</name></trkpt>
<trkpt lat="52.945148" lon="06.004037"><ele>7</ele><time>2021-03-19T12:20:51Z</time><name>PT8123</name></trkpt>
<trkpt lat="52.945157" lon="06.004048"><ele>7</ele><time>2021-03-19T12:20:51Z</time><name>PT8124</name></trkpt>
<trkpt lat="52.945159" lon="06.004061"><ele>7</ele><time>2021-03-19T12:20:53Z</time><name>PT8125</name></trkpt>
<trkpt lat="52.945160" lon="06.004070"><ele>7</ele><time>2021-03-19T12:20:54Z</time><name>PT8126</name></trkpt>
<trkpt lat="52.945166" lon="06.004081"><ele>7</ele><time>2021-03-19T12:20:54Z</time><name>PT8127</name></trkpt>
<trkpt lat="52.945168" lon="06.004091"><ele>7</ele><time>2021-03-19T12:20:56Z</time><name>PT8128</name></trkpt>
<trkpt lat="52.945170" lon="06.004098"><ele>7</ele><time>2021-03-19T12:20:57Z</time><name>PT8129</name></trkpt>
<trkpt lat="52.945170" lon="06.004107"><ele>7.1</ele><time>2021-03-19T12:20:57Z</time><name>PT8130</name></trkpt>
<trkpt lat="52.945172" lon="06.004115"><ele>7.2</ele><time>2021-03-19T12:20:59Z</time><name>PT8131</name></trkpt>
<trkpt lat="52.945171" lon="06.004120"><ele>7.1</ele><time>2021-03-19T12:21:00Z</time><name>PT8132</name></trkpt>
<trkpt lat="52.945170" lon="06.004126"><ele>7.2</ele><time>2021-03-19T12:21:00Z</time><name>PT8133</name></trkpt>
<trkpt lat="52.945170" lon="06.004132"><ele>7.2</ele><time>2021-03-19T12:21:02Z</time><name>PT8134</name></trkpt>
<trkpt lat="52.945175" lon="06.004139"><ele>7.2</ele><time>2021-03-19T12:21:03Z</time><name>PT8135</name></trkpt>
<trkpt lat="52.945176" lon="06.004156"><ele>6.7</ele><time>2021-03-19T12:21:10Z</time><name>PT8136</name></trkpt>
<trkpt lat="52.945178" lon="06.004183"><ele>6.8</ele><time>2021-03-19T12:21:11Z</time><name>PT8137</name></trkpt>
<trkpt lat="52.945187" lon="06.004209"><ele>6.8</ele><time>2021-03-19T12:21:11Z</time><name>PT8138</name></trkpt>
<trkpt lat="52.945195" lon="06.004226"><ele>7</ele><time>2021-03-19T12:21:13Z</time><name>PT8139</name></trkpt>
<trkpt lat="52.945197" lon="06.004245"><ele>7</ele><time>2021-03-19T12:21:14Z</time><name>PT8140</name></trkpt>
<trkpt lat="52.945205" lon="06.004260"><ele>7.1</ele><time>2021-03-19T12:21:14Z</time><name>PT8141</name></trkpt>
<trkpt lat="52.945212" lon="06.004275"><ele>7</ele><time>2021-03-19T12:21:16Z</time><name>PT8142</name></trkpt>
<trkpt lat="52.945220" lon="06.004292"><ele>6.8</ele><time>2021-03-19T12:21:17Z</time><name>PT8143</name></trkpt>
<trkpt lat="52.945228" lon="06.004308"><ele>6.9</ele><time>2021-03-19T12:21:17Z</time><name>PT8144</name></trkpt>
<trkpt lat="52.945236" lon="06.004326"><ele>6.9</ele><time>2021-03-19T12:21:19Z</time><name>PT8145</name></trkpt>
<trkpt lat="52.945240" lon="06.004339"><ele>6.8</ele><time>2021-03-19T12:21:20Z</time><name>PT8146</name></trkpt>
<trkpt lat="52.945247" lon="06.004351"><ele>6.8</ele><time>2021-03-19T12:21:20Z</time><name>PT8147</name></trkpt>
<trkpt lat="52.945252" lon="06.004362"><ele>6.6</ele><time>2021-03-19T12:21:22Z</time><name>PT8148</name></trkpt>
<trkpt lat="52.945259" lon="06.004375"><ele>6.7</ele><time>2021-03-19T12:21:23Z</time><name>PT8149</name></trkpt>
<trkpt lat="52.945266" lon="06.004385"><ele>6.7</ele><time>2021-03-19T12:21:23Z</time><name>PT8150</name></trkpt>
<trkpt lat="52.945270" lon="06.004395"><ele>6.8</ele><time>2021-03-19T12:21:25Z</time><name>PT8151</name></trkpt>
<trkpt lat="52.945278" lon="06.004404"><ele>6.8</ele><time>2021-03-19T12:21:25Z</time><name>PT8152</name></trkpt>
<trkpt lat="52.945280" lon="06.004416"><ele>6.8</ele><time>2021-03-19T12:21:27Z</time><name>PT8153</name></trkpt>
<trkpt lat="52.945283" lon="06.004427"><ele>6.9</ele><time>2021-03-19T12:21:28Z</time><name>PT8154</name></trkpt>
<trkpt lat="52.945288" lon="06.004440"><ele>6.8</ele><time>2021-03-19T12:21:28Z</time><name>PT8155</name></trkpt>
<trkpt lat="52.945294" lon="06.004452"><ele>7</ele><time>2021-03-19T12:21:30Z</time><name>PT8156</name></trkpt>
<trkpt lat="52.945299" lon="06.004465"><ele>7</ele><time>2021-03-19T12:21:31Z</time><name>PT8157</name></trkpt>
<trkpt lat="52.945303" lon="06.004479"><ele>6.9</ele><time>2021-03-19T12:21:31Z</time><name>PT8158</name></trkpt>
<trkpt lat="52.945309" lon="06.004495"><ele>6.9</ele><time>2021-03-19T12:21:33Z</time><name>PT8159</name></trkpt>
<trkpt lat="52.945312" lon="06.004514"><ele>7</ele><time>2021-03-19T12:21:33Z</time><name>PT8160</name></trkpt>
<trkpt lat="52.945317" lon="06.004526"><ele>7.1</ele><time>2021-03-19T12:21:35Z</time><name>PT8161</name></trkpt>
<trkpt lat="52.945326" lon="06.004535"><ele>7.1</ele><time>2021-03-19T12:21:35Z</time><name>PT8162</name></trkpt>
<trkpt lat="52.945331" lon="06.004547"><ele>7.1</ele><time>2021-03-19T12:21:37Z</time><name>PT8163</name></trkpt>
<trkpt lat="52.945340" lon="06.004557"><ele>7</ele><time>2021-03-19T12:21:38Z</time><name>PT8164</name></trkpt>
<trkpt lat="52.945346" lon="06.004570"><ele>7</ele><time>2021-03-19T12:21:38Z</time><name>PT8165</name></trkpt>
<trkpt lat="52.945350" lon="06.004583"><ele>6.8</ele><time>2021-03-19T12:21:40Z</time><name>PT8166</name></trkpt>
<trkpt lat="52.945356" lon="06.004593"><ele>6.8</ele><time>2021-03-19T12:21:41Z</time><name>PT8167</name></trkpt>
<trkpt lat="52.945360" lon="06.004609"><ele>6.9</ele><time>2021-03-19T12:21:41Z</time><name>PT8168</name></trkpt>
<trkpt lat="52.945367" lon="06.004624"><ele>6.8</ele><time>2021-03-19T12:21:43Z</time><name>PT8169</name></trkpt>
<trkpt lat="52.945370" lon="06.004649"><ele>7</ele><time>2021-03-19T12:21:44Z</time><name>PT8170</name></trkpt>
<trkpt lat="52.945373" lon="06.004663"><ele>6.9</ele><time>2021-03-19T12:21:44Z</time><name>PT8171</name></trkpt>
<trkpt lat="52.945379" lon="06.004675"><ele>6.9</ele><time>2021-03-19T12:21:46Z</time><name>PT8172</name></trkpt>
<trkpt lat="52.945380" lon="06.004694"><ele>6.9</ele><time>2021-03-19T12:21:47Z</time><name>PT8173</name></trkpt>
<trkpt lat="52.945389" lon="06.004710"><ele>7</ele><time>2021-03-19T12:21:47Z</time><name>PT8174</name></trkpt>
<trkpt lat="52.945397" lon="06.004734"><ele>6.9</ele><time>2021-03-19T12:21:49Z</time><name>PT8175</name></trkpt>
<trkpt lat="52.945398" lon="06.004747"><ele>7</ele><time>2021-03-19T12:21:49Z</time><name>PT8176</name></trkpt>
<trkpt lat="52.945402" lon="06.004757"><ele>6.9</ele><time>2021-03-19T12:21:51Z</time><name>PT8177</name></trkpt>
<trkpt lat="52.945409" lon="06.004771"><ele>6.9</ele><time>2021-03-19T12:21:52Z</time><name>PT8178</name></trkpt>
<trkpt lat="52.945417" lon="06.004784"><ele>6.9</ele><time>2021-03-19T12:21:52Z</time><name>PT8179</name></trkpt>
<trkpt lat="52.945422" lon="06.004796"><ele>7</ele><time>2021-03-19T12:21:54Z</time><name>PT8180</name></trkpt>
<trkpt lat="52.945429" lon="06.004810"><ele>7.1</ele><time>2021-03-19T12:21:55Z</time><name>PT8181</name></trkpt>
<trkpt lat="52.945434" lon="06.004837"><ele>7.1</ele><time>2021-03-19T12:21:55Z</time><name>PT8182</name></trkpt>
<trkpt lat="52.945439" lon="06.004847"><ele>7.2</ele><time>2021-03-19T12:21:57Z</time><name>PT8183</name></trkpt>
<trkpt lat="52.945442" lon="06.004863"><ele>7.1</ele><time>2021-03-19T12:21:58Z</time><name>PT8184</name></trkpt>
<trkpt lat="52.945447" lon="06.004874"><ele>7</ele><time>2021-03-19T12:21:58Z</time><name>PT8185</name></trkpt>
<trkpt lat="52.945455" lon="06.004886"><ele>7.2</ele><time>2021-03-19T12:22:00Z</time><name>PT8186</name></trkpt>
<trkpt lat="52.945462" lon="06.004895"><ele>7.2</ele><time>2021-03-19T12:22:01Z</time><name>PT8187</name></trkpt>
<trkpt lat="52.945469" lon="06.004909"><ele>7.2</ele><time>2021-03-19T12:22:01Z</time><name>PT8188</name></trkpt>
<trkpt lat="52.945476" lon="06.004917"><ele>6.9</ele><time>2021-03-19T12:22:03Z</time><name>PT8189</name></trkpt>
<trkpt lat="52.945482" lon="06.004932"><ele>6.8</ele><time>2021-03-19T12:22:04Z</time><name>PT8190</name></trkpt>
<trkpt lat="52.945490" lon="06.004945"><ele>6.7</ele><time>2021-03-19T12:22:04Z</time><name>PT8191</name></trkpt>
<trkpt lat="52.945497" lon="06.004963"><ele>6.8</ele><time>2021-03-19T12:22:06Z</time><name>PT8192</name></trkpt>
<trkpt lat="52.945508" lon="06.004975"><ele>7</ele><time>2021-03-19T12:22:07Z</time><name>PT8193</name></trkpt>
<trkpt lat="52.945515" lon="06.004991"><ele>7</ele><time>2021-03-19T12:22:07Z</time><name>PT8194</name></trkpt>
<trkpt lat="52.945519" lon="06.005004"><ele>7.3</ele><time>2021-03-19T12:22:09Z</time><name>PT8195</name></trkpt>
<trkpt lat="52.945524" lon="06.005015"><ele>7.4</ele><time>2021-03-19T12:22:10Z</time><name>PT8196</name></trkpt>
<trkpt lat="52.945531" lon="06.005025"><ele>7.5</ele><time>2021-03-19T12:22:10Z</time><name>PT8197</name></trkpt>
<trkpt lat="52.945537" lon="06.005038"><ele>7.6</ele><time>2021-03-19T12:22:12Z</time><name>PT8198</name></trkpt>
<trkpt lat="52.945542" lon="06.005054"><ele>7.4</ele><time>2021-03-19T12:22:13Z</time><name>PT8199</name></trkpt>
<trkpt lat="52.945547" lon="06.005071"><ele>7.4</ele><time>2021-03-19T12:22:13Z</time><name>PT8200</name></trkpt>
<trkpt lat="52.945552" lon="06.005090"><ele>7.3</ele><time>2021-03-19T12:22:15Z</time><name>PT8201</name></trkpt>
<trkpt lat="52.945561" lon="06.005110"><ele>7.2</ele><time>2021-03-19T12:22:16Z</time><name>PT8202</name></trkpt>
<trkpt lat="52.945569" lon="06.005124"><ele>7.2</ele><time>2021-03-19T12:22:16Z</time><name>PT8203</name></trkpt>
<trkpt lat="52.945576" lon="06.005142"><ele>7.2</ele><time>2021-03-19T12:22:18Z</time><name>PT8204</name></trkpt>
<trkpt lat="52.945581" lon="06.005160"><ele>7.2</ele><time>2021-03-19T12:22:19Z</time><name>PT8205</name></trkpt>
<trkpt lat="52.945585" lon="06.005183"><ele>7.2</ele><time>2021-03-19T12:22:19Z</time><name>PT8206</name></trkpt>
<trkpt lat="52.945594" lon="06.005199"><ele>7.3</ele><time>2021-03-19T12:22:21Z</time><name>PT8207</name></trkpt>
<trkpt lat="52.945601" lon="06.005215"><ele>7.2</ele><time>2021-03-19T12:22:21Z</time><name>PT8208</name></trkpt>
<trkpt lat="52.945611" lon="06.005229"><ele>7.3</ele><time>2021-03-19T12:22:23Z</time><name>PT8209</name></trkpt>
<trkpt lat="52.945619" lon="06.005251"><ele>7.2</ele><time>2021-03-19T12:22:24Z</time><name>PT8210</name></trkpt>
<trkpt lat="52.945620" lon="06.005268"><ele>7.3</ele><time>2021-03-19T12:22:24Z</time><name>PT8211</name></trkpt>
<trkpt lat="52.945623" lon="06.005283"><ele>7.3</ele><time>2021-03-19T12:22:26Z</time><name>PT8212</name></trkpt>
<trkpt lat="52.945631" lon="06.005297"><ele>7.2</ele><time>2021-03-19T12:22:27Z</time><name>PT8213</name></trkpt>
<trkpt lat="52.945639" lon="06.005313"><ele>7.2</ele><time>2021-03-19T12:22:27Z</time><name>PT8214</name></trkpt>
<trkpt lat="52.945646" lon="06.005324"><ele>7.2</ele><time>2021-03-19T12:22:29Z</time><name>PT8215</name></trkpt>
<trkpt lat="52.945653" lon="06.005337"><ele>7.2</ele><time>2021-03-19T12:22:30Z</time><name>PT8216</name></trkpt>
<trkpt lat="52.945657" lon="06.005349"><ele>7.3</ele><time>2021-03-19T12:22:30Z</time><name>PT8217</name></trkpt>
<trkpt lat="52.945657" lon="06.005361"><ele>7.6</ele><time>2021-03-19T12:22:32Z</time><name>PT8218</name></trkpt>
<trkpt lat="52.945663" lon="06.005377"><ele>7.5</ele><time>2021-03-19T12:22:33Z</time><name>PT8219</name></trkpt>
<trkpt lat="52.945669" lon="06.005388"><ele>7.5</ele><time>2021-03-19T12:22:33Z</time><name>PT8220</name></trkpt>
<trkpt lat="52.945677" lon="06.005404"><ele>7.3</ele><time>2021-03-19T12:22:35Z</time><name>PT8221</name></trkpt>
<trkpt lat="52.945685" lon="06.005418"><ele>7.4</ele><time>2021-03-19T12:22:36Z</time><name>PT8222</name></trkpt>
<trkpt lat="52.945692" lon="06.005431"><ele>7.5</ele><time>2021-03-19T12:22:36Z</time><name>PT8223</name></trkpt>
<trkpt lat="52.945700" lon="06.005444"><ele>7.4</ele><time>2021-03-19T12:22:38Z</time><name>PT8224</name></trkpt>
<trkpt lat="52.945710" lon="06.005459"><ele>7.5</ele><time>2021-03-19T12:22:39Z</time><name>PT8225</name></trkpt>
<trkpt lat="52.945719" lon="06.005473"><ele>7.4</ele><time>2021-03-19T12:22:39Z</time><name>PT8226</name></trkpt>
<trkpt lat="52.945722" lon="06.005488"><ele>7.3</ele><time>2021-03-19T12:22:41Z</time><name>PT8227</name></trkpt>
<trkpt lat="52.945729" lon="06.005503"><ele>7.2</ele><time>2021-03-19T12:22:42Z</time><name>PT8228</name></trkpt>
<trkpt lat="52.945739" lon="06.005517"><ele>7.1</ele><time>2021-03-19T12:22:42Z</time><name>PT8229</name></trkpt>
<trkpt lat="52.945745" lon="06.005530"><ele>7</ele><time>2021-03-19T12:22:44Z</time><name>PT8230</name></trkpt>
<trkpt lat="52.945750" lon="06.005543"><ele>6.8</ele><time>2021-03-19T12:22:45Z</time><name>PT8231</name></trkpt>
<trkpt lat="52.945754" lon="06.005556"><ele>6.8</ele><time>2021-03-19T12:22:45Z</time><name>PT8232</name></trkpt>
<trkpt lat="52.945761" lon="06.005566"><ele>6.9</ele><time>2021-03-19T12:22:47Z</time><name>PT8233</name></trkpt>
<trkpt lat="52.945764" lon="06.005580"><ele>6.8</ele><time>2021-03-19T12:22:47Z</time><name>PT8234</name></trkpt>
<trkpt lat="52.945770" lon="06.005591"><ele>7.1</ele><time>2021-03-19T12:22:49Z</time><name>PT8235</name></trkpt>
<trkpt lat="52.945777" lon="06.005605"><ele>7</ele><time>2021-03-19T12:22:50Z</time><name>PT8236</name></trkpt>
<trkpt lat="52.945785" lon="06.005627"><ele>7</ele><time>2021-03-19T12:22:50Z</time><name>PT8237</name></trkpt>
<trkpt lat="52.945791" lon="06.005644"><ele>7.1</ele><time>2021-03-19T12:22:52Z</time><name>PT8238</name></trkpt>
<trkpt lat="52.945793" lon="06.005657"><ele>7.2</ele><time>2021-03-19T12:22:53Z</time><name>PT8239</name></trkpt>
<trkpt lat="52.945794" lon="06.005661"><ele>7.2</ele><time>2021-03-19T12:22:53Z</time><name>PT8240</name></trkpt>
<trkpt lat="52.945803" lon="06.005673"><ele>7.2</ele><time>2021-03-19T12:22:55Z</time><name>PT8241</name></trkpt>
<trkpt lat="52.945807" lon="06.005687"><ele>7.2</ele><time>2021-03-19T12:22:55Z</time><name>PT8242</name></trkpt>
<trkpt lat="52.945810" lon="06.005699"><ele>7.3</ele><time>2021-03-19T12:22:57Z</time><name>PT8243</name></trkpt>
<trkpt lat="52.945815" lon="06.005715"><ele>7.4</ele><time>2021-03-19T12:22:58Z</time><name>PT8244</name></trkpt>
<trkpt lat="52.945819" lon="06.005733"><ele>7.6</ele><time>2021-03-19T12:22:58Z</time><name>PT8245</name></trkpt>
<trkpt lat="52.945826" lon="06.005750"><ele>7.7</ele><time>2021-03-19T12:23:00Z</time><name>PT8246</name></trkpt>
<trkpt lat="52.945834" lon="06.005766"><ele>7.4</ele><time>2021-03-19T12:23:01Z</time><name>PT8247</name></trkpt>
<trkpt lat="52.945840" lon="06.005780"><ele>7.3</ele><time>2021-03-19T12:23:01Z</time><name>PT8248</name></trkpt>
<trkpt lat="52.945849" lon="06.005791"><ele>7.2</ele><time>2021-03-19T12:23:03Z</time><name>PT8249</name></trkpt>
<trkpt lat="52.945857" lon="06.005805"><ele>7</ele><time>2021-03-19T12:23:04Z</time><name>PT8250</name></trkpt>
<trkpt lat="52.945861" lon="06.005818"><ele>7</ele><time>2021-03-19T12:23:04Z</time><name>PT8251</name></trkpt>
<trkpt lat="52.945866" lon="06.005827"><ele>7</ele><time>2021-03-19T12:23:06Z</time><name>PT8252</name></trkpt>
<trkpt lat="52.945874" lon="06.005840"><ele>7.2</ele><time>2021-03-19T12:23:07Z</time><name>PT8253</name></trkpt>
<trkpt lat="52.945876" lon="06.005859"><ele>7.3</ele><time>2021-03-19T12:23:07Z</time><name>PT8254</name></trkpt>
<trkpt lat="52.945884" lon="06.005877"><ele>7.5</ele><time>2021-03-19T12:23:09Z</time><name>PT8255</name></trkpt>
<trkpt lat="52.945890" lon="06.005903"><ele>7.6</ele><time>2021-03-19T12:23:10Z</time><name>PT8256</name></trkpt>
<trkpt lat="52.945892" lon="06.005918"><ele>7.6</ele><time>2021-03-19T12:23:10Z</time><name>PT8257</name></trkpt>
<trkpt lat="52.945898" lon="06.005929"><ele>7.5</ele><time>2021-03-19T12:23:12Z</time><name>PT8258</name></trkpt>
<trkpt lat="52.945906" lon="06.005943"><ele>7.7</ele><time>2021-03-19T12:23:13Z</time><name>PT8259</name></trkpt>
<trkpt lat="52.945912" lon="06.005967"><ele>7.8</ele><time>2021-03-19T12:23:13Z</time><name>PT8260</name></trkpt>
<trkpt lat="52.945923" lon="06.005989"><ele>8</ele><time>2021-03-19T12:23:15Z</time><name>PT8261</name></trkpt>
<trkpt lat="52.945926" lon="06.006002"><ele>8.1</ele><time>2021-03-19T12:23:16Z</time><name>PT8262</name></trkpt>
<trkpt lat="52.945930" lon="06.006023"><ele>8.1</ele><time>2021-03-19T12:23:16Z</time><name>PT8263</name></trkpt>
<trkpt lat="52.945935" lon="06.006034"><ele>8</ele><time>2021-03-19T12:23:18Z</time><name>PT8264</name></trkpt>
<trkpt lat="52.945944" lon="06.006044"><ele>7.9</ele><time>2021-03-19T12:23:19Z</time><name>PT8265</name></trkpt>
<trkpt lat="52.945952" lon="06.006058"><ele>7.9</ele><time>2021-03-19T12:23:19Z</time><name>PT8266</name></trkpt>
<trkpt lat="52.945961" lon="06.006072"><ele>7.7</ele><time>2021-03-19T12:23:21Z</time><name>PT8267</name></trkpt>
<trkpt lat="52.945965" lon="06.006086"><ele>7.5</ele><time>2021-03-19T12:23:22Z</time><name>PT8268</name></trkpt>
<trkpt lat="52.945971" lon="06.006099"><ele>7.5</ele><time>2021-03-19T12:23:22Z</time><name>PT8269</name></trkpt>
<trkpt lat="52.945973" lon="06.006109"><ele>7.3</ele><time>2021-03-19T12:23:24Z</time><name>PT8270</name></trkpt>
<trkpt lat="52.945976" lon="06.006122"><ele>7.4</ele><time>2021-03-19T12:23:25Z</time><name>PT8271</name></trkpt>
<trkpt lat="52.945982" lon="06.006137"><ele>7.4</ele><time>2021-03-19T12:23:25Z</time><name>PT8272</name></trkpt>
<trkpt lat="52.945988" lon="06.006152"><ele>7.3</ele><time>2021-03-19T12:23:27Z</time><name>PT8273</name></trkpt>
<trkpt lat="52.945995" lon="06.006168"><ele>7.3</ele><time>2021-03-19T12:23:28Z</time><name>PT8274</name></trkpt>
<trkpt lat="52.945998" lon="06.006179"><ele>7.3</ele><time>2021-03-19T12:23:28Z</time><name>PT8275</name></trkpt>
<trkpt lat="52.945993" lon="06.006192"><ele>7.1</ele><time>2021-03-19T12:23:30Z</time><name>PT8276</name></trkpt>
<trkpt lat="52.945997" lon="06.006209"><ele>7.1</ele><time>2021-03-19T12:23:31Z</time><name>PT8277</name></trkpt>
<trkpt lat="52.946003" lon="06.006221"><ele>7.1</ele><time>2021-03-19T12:23:31Z</time><name>PT8278</name></trkpt>
<trkpt lat="52.946012" lon="06.006234"><ele>7.1</ele><time>2021-03-19T12:23:33Z</time><name>PT8279</name></trkpt>
<trkpt lat="52.946027" lon="06.006248"><ele>7.1</ele><time>2021-03-19T12:23:34Z</time><name>PT8280</name></trkpt>
<trkpt lat="52.946034" lon="06.006263"><ele>7.2</ele><time>2021-03-19T12:23:34Z</time><name>PT8281</name></trkpt>
<trkpt lat="52.946037" lon="06.006278"><ele>7.2</ele><time>2021-03-19T12:23:36Z</time><name>PT8282</name></trkpt>
<trkpt lat="52.946044" lon="06.006294"><ele>7.3</ele><time>2021-03-19T12:23:37Z</time><name>PT8283</name></trkpt>
<trkpt lat="52.946050" lon="06.006313"><ele>7.4</ele><time>2021-03-19T12:23:37Z</time><name>PT8284</name></trkpt>
<trkpt lat="52.946057" lon="06.006334"><ele>7.6</ele><time>2021-03-19T12:23:39Z</time><name>PT8285</name></trkpt>
<trkpt lat="52.946065" lon="06.006355"><ele>7.5</ele><time>2021-03-19T12:23:40Z</time><name>PT8286</name></trkpt>
<trkpt lat="52.946073" lon="06.006369"><ele>7.2</ele><time>2021-03-19T12:23:40Z</time><name>PT8287</name></trkpt>
<trkpt lat="52.946081" lon="06.006386"><ele>7.1</ele><time>2021-03-19T12:23:42Z</time><name>PT8288</name></trkpt>
<trkpt lat="52.946085" lon="06.006400"><ele>6.9</ele><time>2021-03-19T12:23:43Z</time><name>PT8289</name></trkpt>
<trkpt lat="52.946090" lon="06.006413"><ele>6.9</ele><time>2021-03-19T12:23:43Z</time><name>PT8290</name></trkpt>
<trkpt lat="52.946094" lon="06.006429"><ele>7.1</ele><time>2021-03-19T12:23:45Z</time><name>PT8291</name></trkpt>
<trkpt lat="52.946099" lon="06.006446"><ele>7.2</ele><time>2021-03-19T12:23:45Z</time><name>PT8292</name></trkpt>
<trkpt lat="52.946103" lon="06.006457"><ele>7.3</ele><time>2021-03-19T12:23:47Z</time><name>PT8293</name></trkpt>
<trkpt lat="52.946107" lon="06.006466"><ele>7.3</ele><time>2021-03-19T12:23:48Z</time><name>PT8294</name></trkpt>
<trkpt lat="52.946114" lon="06.006477"><ele>7.2</ele><time>2021-03-19T12:23:48Z</time><name>PT8295</name></trkpt>
<trkpt lat="52.946120" lon="06.006487"><ele>7.1</ele><time>2021-03-19T12:23:50Z</time><name>PT8296</name></trkpt>
<trkpt lat="52.946126" lon="06.006505"><ele>7</ele><time>2021-03-19T12:23:51Z</time><name>PT8297</name></trkpt>
<trkpt lat="52.946134" lon="06.006520"><ele>7.2</ele><time>2021-03-19T12:23:51Z</time><name>PT8298</name></trkpt>
<trkpt lat="52.946144" lon="06.006542"><ele>7.2</ele><time>2021-03-19T12:23:53Z</time><name>PT8299</name></trkpt>
<trkpt lat="52.946147" lon="06.006566"><ele>7.1</ele><time>2021-03-19T12:23:54Z</time><name>PT8300</name></trkpt>
<trkpt lat="52.946156" lon="06.006582"><ele>7.2</ele><time>2021-03-19T12:23:54Z</time><name>PT8301</name></trkpt>
<trkpt lat="52.946168" lon="06.006592"><ele>6.9</ele><time>2021-03-19T12:23:56Z</time><name>PT8302</name></trkpt>
<trkpt lat="52.946176" lon="06.006608"><ele>6.9</ele><time>2021-03-19T12:23:57Z</time><name>PT8303</name></trkpt>
<trkpt lat="52.946184" lon="06.006626"><ele>7.1</ele><time>2021-03-19T12:23:57Z</time><name>PT8304</name></trkpt>
<trkpt lat="52.946189" lon="06.006638"><ele>7.2</ele><time>2021-03-19T12:23:59Z</time><name>PT8305</name></trkpt>
<trkpt lat="52.946193" lon="06.006652"><ele>7.2</ele><time>2021-03-19T12:24:00Z</time><name>PT8306</name></trkpt>
<trkpt lat="52.946198" lon="06.006665"><ele>7.2</ele><time>2021-03-19T12:24:00Z</time><name>PT8307</name></trkpt>
<trkpt lat="52.946205" lon="06.006675"><ele>7.2</ele><time>2021-03-19T12:24:02Z</time><name>PT8308</name></trkpt>
<trkpt lat="52.946215" lon="06.006691"><ele>7.1</ele><time>2021-03-19T12:24:03Z</time><name>PT8309</name></trkpt>
<trkpt lat="52.946220" lon="06.006708"><ele>7.1</ele><time>2021-03-19T12:24:03Z</time><name>PT8310</name></trkpt>
<trkpt lat="52.946226" lon="06.006726"><ele>7</ele><time>2021-03-19T12:24:05Z</time><name>PT8311</name></trkpt>
<trkpt lat="52.946237" lon="06.006741"><ele>7.2</ele><time>2021-03-19T12:24:06Z</time><name>PT8312</name></trkpt>
<trkpt lat="52.946244" lon="06.006754"><ele>7.2</ele><time>2021-03-19T12:24:06Z</time><name>PT8313</name></trkpt>
<trkpt lat="52.946251" lon="06.006764"><ele>7.3</ele><time>2021-03-19T12:24:08Z</time><name>PT8314</name></trkpt>
<trkpt lat="52.946254" lon="06.006777"><ele>7.2</ele><time>2021-03-19T12:24:09Z</time><name>PT8315</name></trkpt>
<trkpt lat="52.946257" lon="06.006791"><ele>7.2</ele><time>2021-03-19T12:24:09Z</time><name>PT8316</name></trkpt>
<trkpt lat="52.946261" lon="06.006802"><ele>7.1</ele><time>2021-03-19T12:24:11Z</time><name>PT8317</name></trkpt>
<trkpt lat="52.946274" lon="06.006821"><ele>7</ele><time>2021-03-19T12:24:12Z</time><name>PT8318</name></trkpt>
<trkpt lat="52.946283" lon="06.006832"><ele>7.1</ele><time>2021-03-19T12:24:12Z</time><name>PT8319</name></trkpt>
<trkpt lat="52.946289" lon="06.006839"><ele>7.1</ele><time>2021-03-19T12:24:14Z</time><name>PT8320</name></trkpt>
<trkpt lat="52.946293" lon="06.006850"><ele>7.1</ele><time>2021-03-19T12:24:14Z</time><name>PT8321</name></trkpt>
<trkpt lat="52.946294" lon="06.006861"><ele>7.2</ele><time>2021-03-19T12:24:16Z</time><name>PT8322</name></trkpt>
<trkpt lat="52.946296" lon="06.006874"><ele>7.2</ele><time>2021-03-19T12:24:17Z</time><name>PT8323</name></trkpt>
<trkpt lat="52.946300" lon="06.006886"><ele>7.2</ele><time>2021-03-19T12:24:17Z</time><name>PT8324</name></trkpt>
<trkpt lat="52.946302" lon="06.006900"><ele>7.3</ele><time>2021-03-19T12:24:19Z</time><name>PT8325</name></trkpt>
<trkpt lat="52.946308" lon="06.006921"><ele>7.3</ele><time>2021-03-19T12:24:20Z</time><name>PT8326</name></trkpt>
<trkpt lat="52.946316" lon="06.006933"><ele>7.2</ele><time>2021-03-19T12:24:20Z</time><name>PT8327</name></trkpt>
<trkpt lat="52.946317" lon="06.006942"><ele>7.4</ele><time>2021-03-19T12:24:22Z</time><name>PT8328</name></trkpt>
<trkpt lat="52.946324" lon="06.006955"><ele>7.4</ele><time>2021-03-19T12:24:23Z</time><name>PT8329</name></trkpt>
<trkpt lat="52.946327" lon="06.006967"><ele>7.4</ele><time>2021-03-19T12:24:23Z</time><name>PT8330</name></trkpt>
<trkpt lat="52.946333" lon="06.006989"><ele>7.5</ele><time>2021-03-19T12:24:25Z</time><name>PT8331</name></trkpt>
<trkpt lat="52.946337" lon="06.007001"><ele>7.5</ele><time>2021-03-19T12:24:26Z</time><name>PT8332</name></trkpt>
<trkpt lat="52.946340" lon="06.007008"><ele>7.5</ele><time>2021-03-19T12:24:26Z</time><name>PT8333</name></trkpt>
<trkpt lat="52.946344" lon="06.007030"><ele>7.5</ele><time>2021-03-19T12:24:28Z</time><name>PT8334</name></trkpt>
<trkpt lat="52.946345" lon="06.007058"><ele>7.4</ele><time>2021-03-19T12:24:29Z</time><name>PT8335</name></trkpt>
<trkpt lat="52.946350" lon="06.007077"><ele>7.3</ele><time>2021-03-19T12:24:29Z</time><name>PT8336</name></trkpt>
<trkpt lat="52.946358" lon="06.007091"><ele>7.2</ele><time>2021-03-19T12:24:31Z</time><name>PT8337</name></trkpt>
<trkpt lat="52.946364" lon="06.007102"><ele>7.2</ele><time>2021-03-19T12:24:32Z</time><name>PT8338</name></trkpt>
<trkpt lat="52.946366" lon="06.007115"><ele>7.2</ele><time>2021-03-19T12:24:32Z</time><name>PT8339</name></trkpt>
<trkpt lat="52.946370" lon="06.007130"><ele>7.5</ele><time>2021-03-19T12:24:34Z</time><name>PT8340</name></trkpt>
<trkpt lat="52.946380" lon="06.007145"><ele>7.7</ele><time>2021-03-19T12:24:35Z</time><name>PT8341</name></trkpt>
<trkpt lat="52.946388" lon="06.007159"><ele>7.8</ele><time>2021-03-19T12:24:35Z</time><name>PT8342</name></trkpt>
<trkpt lat="52.946395" lon="06.007174"><ele>7.8</ele><time>2021-03-19T12:24:37Z</time><name>PT8343</name></trkpt>
<trkpt lat="52.946398" lon="06.007185"><ele>7.7</ele><time>2021-03-19T12:24:38Z</time><name>PT8344</name></trkpt>
<trkpt lat="52.946403" lon="06.007200"><ele>7.7</ele><time>2021-03-19T12:24:38Z</time><name>PT8345</name></trkpt>
<trkpt lat="52.946405" lon="06.007217"><ele>7.6</ele><time>2021-03-19T12:24:40Z</time><name>PT8346</name></trkpt>
<trkpt lat="52.946410" lon="06.007228"><ele>7.8</ele><time>2021-03-19T12:24:41Z</time><name>PT8347</name></trkpt>
<trkpt lat="52.946419" lon="06.007243"><ele>7.8</ele><time>2021-03-19T12:24:41Z</time><name>PT8348</name></trkpt>
<trkpt lat="52.946428" lon="06.007260"><ele>7.7</ele><time>2021-03-19T12:24:43Z</time><name>PT8349</name></trkpt>
<trkpt lat="52.946433" lon="06.007274"><ele>7.8</ele><time>2021-03-19T12:24:44Z</time><name>PT8350</name></trkpt>
<trkpt lat="52.946440" lon="06.007284"><ele>7.8</ele><time>2021-03-19T12:24:44Z</time><name>PT8351</name></trkpt>
<trkpt lat="52.946445" lon="06.007297"><ele>7.7</ele><time>2021-03-19T12:24:46Z</time><name>PT8352</name></trkpt>
<trkpt lat="52.946453" lon="06.007311"><ele>7.8</ele><time>2021-03-19T12:24:47Z</time><name>PT8353</name></trkpt>
<trkpt lat="52.946463" lon="06.007321"><ele>7.8</ele><time>2021-03-19T12:24:47Z</time><name>PT8354</name></trkpt>
<trkpt lat="52.946470" lon="06.007335"><ele>7.8</ele><time>2021-03-19T12:24:49Z</time><name>PT8355</name></trkpt>
<trkpt lat="52.946479" lon="06.007343"><ele>7.8</ele><time>2021-03-19T12:24:49Z</time><name>PT8356</name></trkpt>
<trkpt lat="52.946484" lon="06.007356"><ele>7.7</ele><time>2021-03-19T12:24:51Z</time><name>PT8357</name></trkpt>
<trkpt lat="52.946486" lon="06.007371"><ele>7.5</ele><time>2021-03-19T12:24:52Z</time><name>PT8358</name></trkpt>
<trkpt lat="52.946491" lon="06.007379"><ele>7.5</ele><time>2021-03-19T12:24:52Z</time><name>PT8359</name></trkpt>
<trkpt lat="52.946499" lon="06.007392"><ele>7.5</ele><time>2021-03-19T12:24:54Z</time><name>PT8360</name></trkpt>
<trkpt lat="52.946503" lon="06.007411"><ele>7.6</ele><time>2021-03-19T12:24:55Z</time><name>PT8361</name></trkpt>
<trkpt lat="52.946508" lon="06.007428"><ele>7.6</ele><time>2021-03-19T12:24:55Z</time><name>PT8362</name></trkpt>
<trkpt lat="52.946513" lon="06.007443"><ele>7.4</ele><time>2021-03-19T12:24:57Z</time><name>PT8363</name></trkpt>
<trkpt lat="52.946517" lon="06.007456"><ele>7.3</ele><time>2021-03-19T12:24:58Z</time><name>PT8364</name></trkpt>
<trkpt lat="52.946519" lon="06.007471"><ele>7.4</ele><time>2021-03-19T12:24:58Z</time><name>PT8365</name></trkpt>
<trkpt lat="52.946521" lon="06.007485"><ele>7.5</ele><time>2021-03-19T12:25:00Z</time><name>PT8366</name></trkpt>
<trkpt lat="52.946529" lon="06.007504"><ele>7.7</ele><time>2021-03-19T12:25:01Z</time><name>PT8367</name></trkpt>
<trkpt lat="52.946540" lon="06.007520"><ele>8</ele><time>2021-03-19T12:25:01Z</time><name>PT8368</name></trkpt>
<trkpt lat="52.946553" lon="06.007541"><ele>8</ele><time>2021-03-19T12:25:03Z</time><name>PT8369</name></trkpt>
<trkpt lat="52.946563" lon="06.007550"><ele>8</ele><time>2021-03-19T12:25:04Z</time><name>PT8370</name></trkpt>
<trkpt lat="52.946569" lon="06.007565"><ele>7.9</ele><time>2021-03-19T12:25:04Z</time><name>PT8371</name></trkpt>
<trkpt lat="52.946574" lon="06.007584"><ele>7.7</ele><time>2021-03-19T12:25:06Z</time><name>PT8372</name></trkpt>
<trkpt lat="52.946580" lon="06.007601"><ele>7.6</ele><time>2021-03-19T12:25:07Z</time><name>PT8373</name></trkpt>
<trkpt lat="52.946585" lon="06.007616"><ele>7.6</ele><time>2021-03-19T12:25:07Z</time><name>PT8374</name></trkpt>
<trkpt lat="52.946585" lon="06.007629"><ele>7.7</ele><time>2021-03-19T12:25:09Z</time><name>PT8375</name></trkpt>
<trkpt lat="52.946590" lon="06.007644"><ele>7.7</ele><time>2021-03-19T12:25:10Z</time><name>PT8376</name></trkpt>
<trkpt lat="52.946595" lon="06.007655"><ele>7.7</ele><time>2021-03-19T12:25:10Z</time><name>PT8377</name></trkpt>
<trkpt lat="52.946600" lon="06.007669"><ele>7.8</ele><time>2021-03-19T12:25:12Z</time><name>PT8378</name></trkpt>
<trkpt lat="52.946603" lon="06.007682"><ele>7.6</ele><time>2021-03-19T12:25:13Z</time><name>PT8379</name></trkpt>
<trkpt lat="52.946606" lon="06.007695"><ele>7.5</ele><time>2021-03-19T12:25:13Z</time><name>PT8380</name></trkpt>
<trkpt lat="52.946609" lon="06.007707"><ele>7.4</ele><time>2021-03-19T12:25:15Z</time><name>PT8381</name></trkpt>
<trkpt lat="52.946616" lon="06.007721"><ele>7.6</ele><time>2021-03-19T12:25:16Z</time><name>PT8382</name></trkpt>
<trkpt lat="52.946622" lon="06.007739"><ele>7.5</ele><time>2021-03-19T12:25:16Z</time><name>PT8383</name></trkpt>
<trkpt lat="52.946628" lon="06.007749"><ele>7.6</ele><time>2021-03-19T12:25:18Z</time><name>PT8384</name></trkpt>
<trkpt lat="52.946628" lon="06.007775"><ele>7.7</ele><time>2021-03-19T12:25:19Z</time><name>PT8385</name></trkpt>
<trkpt lat="52.946633" lon="06.007787"><ele>7.5</ele><time>2021-03-19T12:25:19Z</time><name>PT8386</name></trkpt>
<trkpt lat="52.946638" lon="06.007801"><ele>7.6</ele><time>2021-03-19T12:25:21Z</time><name>PT8387</name></trkpt>
<trkpt lat="52.946644" lon="06.007808"><ele>7.6</ele><time>2021-03-19T12:25:22Z</time><name>PT8388</name></trkpt>
<trkpt lat="52.946651" lon="06.007814"><ele>7.5</ele><time>2021-03-19T12:25:22Z</time><name>PT8389</name></trkpt>
<trkpt lat="52.946656" lon="06.007821"><ele>7.6</ele><time>2021-03-19T12:25:24Z</time><name>PT8390</name></trkpt>
<trkpt lat="52.946660" lon="06.007836"><ele>7.7</ele><time>2021-03-19T12:25:25Z</time><name>PT8391</name></trkpt>
<trkpt lat="52.946664" lon="06.007847"><ele>7.7</ele><time>2021-03-19T12:25:25Z</time><name>PT8392</name></trkpt>
<trkpt lat="52.946671" lon="06.007858"><ele>7.8</ele><time>2021-03-19T12:25:27Z</time><name>PT8393</name></trkpt>
<trkpt lat="52.946678" lon="06.007877"><ele>7.8</ele><time>2021-03-19T12:25:27Z</time><name>PT8394</name></trkpt>
<trkpt lat="52.946684" lon="06.007891"><ele>7.8</ele><time>2021-03-19T12:25:29Z</time><name>PT8395</name></trkpt>
<trkpt lat="52.946688" lon="06.007902"><ele>7.7</ele><time>2021-03-19T12:25:30Z</time><name>PT8396</name></trkpt>
<trkpt lat="52.946695" lon="06.007913"><ele>7.8</ele><time>2021-03-19T12:25:30Z</time><name>PT8397</name></trkpt>
<trkpt lat="52.946701" lon="06.007924"><ele>7.9</ele><time>2021-03-19T12:25:32Z</time><name>PT8398</name></trkpt>
<trkpt lat="52.946705" lon="06.007932"><ele>7.7</ele><time>2021-03-19T12:25:32Z</time><name>PT8399</name></trkpt>
<trkpt lat="52.946712" lon="06.007944"><ele>8</ele><time>2021-03-19T12:25:34Z</time><name>PT8400</name></trkpt>
<trkpt lat="52.946717" lon="06.007951"><ele>8</ele><time>2021-03-19T12:25:34Z</time><name>PT8401</name></trkpt>
<trkpt lat="52.946723" lon="06.007964"><ele>7.9</ele><time>2021-03-19T12:25:36Z</time><name>PT8402</name></trkpt>
<trkpt lat="52.946727" lon="06.007979"><ele>8</ele><time>2021-03-19T12:25:37Z</time><name>PT8403</name></trkpt>
<trkpt lat="52.946730" lon="06.007994"><ele>7.8</ele><time>2021-03-19T12:25:37Z</time><name>PT8404</name></trkpt>
<trkpt lat="52.946739" lon="06.008008"><ele>7.7</ele><time>2021-03-19T12:25:39Z</time><name>PT8405</name></trkpt>
<trkpt lat="52.946742" lon="06.008020"><ele>7.8</ele><time>2021-03-19T12:25:40Z</time><name>PT8406</name></trkpt>
<trkpt lat="52.946752" lon="06.008037"><ele>7.7</ele><time>2021-03-19T12:25:40Z</time><name>PT8407</name></trkpt>
<trkpt lat="52.946758" lon="06.008047"><ele>7.9</ele><time>2021-03-19T12:25:42Z</time><name>PT8408</name></trkpt>
<trkpt lat="52.946763" lon="06.008063"><ele>8</ele><time>2021-03-19T12:25:43Z</time><name>PT8409</name></trkpt>
<trkpt lat="52.946773" lon="06.008078"><ele>7.8</ele><time>2021-03-19T12:25:43Z</time><name>PT8410</name></trkpt>
<trkpt lat="52.946782" lon="06.008096"><ele>7.9</ele><time>2021-03-19T12:25:45Z</time><name>PT8411</name></trkpt>
<trkpt lat="52.946786" lon="06.008110"><ele>7.8</ele><time>2021-03-19T12:25:45Z</time><name>PT8412</name></trkpt>
<trkpt lat="52.946792" lon="06.008115"><ele>7.9</ele><time>2021-03-19T12:25:47Z</time><name>PT8413</name></trkpt>
<trkpt lat="52.946797" lon="06.008128"><ele>8</ele><time>2021-03-19T12:25:48Z</time><name>PT8414</name></trkpt>
<trkpt lat="52.946800" lon="06.008141"><ele>8</ele><time>2021-03-19T12:25:48Z</time><name>PT8415</name></trkpt>
<trkpt lat="52.946804" lon="06.008153"><ele>8.1</ele><time>2021-03-19T12:25:50Z</time><name>PT8416</name></trkpt>
<trkpt lat="52.946807" lon="06.008163"><ele>7.8</ele><time>2021-03-19T12:25:51Z</time><name>PT8417</name></trkpt>
<trkpt lat="52.946809" lon="06.008174"><ele>8</ele><time>2021-03-19T12:25:51Z</time><name>PT8418</name></trkpt>
<trkpt lat="52.946810" lon="06.008193"><ele>8.1</ele><time>2021-03-19T12:25:53Z</time><name>PT8419</name></trkpt>
<trkpt lat="52.946809" lon="06.008209"><ele>8.1</ele><time>2021-03-19T12:25:53Z</time><name>PT8420</name></trkpt>
<trkpt lat="52.946816" lon="06.008233"><ele>8.2</ele><time>2021-03-19T12:25:55Z</time><name>PT8421</name></trkpt>
<trkpt lat="52.946817" lon="06.008248"><ele>7.9</ele><time>2021-03-19T12:25:56Z</time><name>PT8422</name></trkpt>
<trkpt lat="52.946821" lon="06.008260"><ele>8</ele><time>2021-03-19T12:25:56Z</time><name>PT8423</name></trkpt>
<trkpt lat="52.946824" lon="06.008270"><ele>7.7</ele><time>2021-03-19T12:25:58Z</time><name>PT8424</name></trkpt>
<trkpt lat="52.946838" lon="06.008284"><ele>7.7</ele><time>2021-03-19T12:25:59Z</time><name>PT8425</name></trkpt>
<trkpt lat="52.946844" lon="06.008307"><ele>7.7</ele><time>2021-03-19T12:25:59Z</time><name>PT8426</name></trkpt>
<trkpt lat="52.946855" lon="06.008313"><ele>7.7</ele><time>2021-03-19T12:26:01Z</time><name>PT8427</name></trkpt>
<trkpt lat="52.946856" lon="06.008320"><ele>7.6</ele><time>2021-03-19T12:26:02Z</time><name>PT8428</name></trkpt>
<trkpt lat="52.946857" lon="06.008326"><ele>7.5</ele><time>2021-03-19T12:26:02Z</time><name>PT8429</name></trkpt>
<trkpt lat="52.946857" lon="06.008335"><ele>7.7</ele><time>2021-03-19T12:26:04Z</time><name>PT8430</name></trkpt>
<trkpt lat="52.946854" lon="06.008344"><ele>7.3</ele><time>2021-03-19T12:26:05Z</time><name>PT8431</name></trkpt>
<trkpt lat="52.946849" lon="06.008352"><ele>7.3</ele><time>2021-03-19T12:26:05Z</time><name>PT8432</name></trkpt>
<trkpt lat="52.946843" lon="06.008358"><ele>7.3</ele><time>2021-03-19T12:26:07Z</time><name>PT8433</name></trkpt>
<trkpt lat="52.946840" lon="06.008370"><ele>7.2</ele><time>2021-03-19T12:26:07Z</time><name>PT8434</name></trkpt>
<trkpt lat="52.946835" lon="06.008375"><ele>7.3</ele><time>2021-03-19T12:26:09Z</time><name>PT8435</name></trkpt>
<trkpt lat="52.946828" lon="06.008378"><ele>7.3</ele><time>2021-03-19T12:26:10Z</time><name>PT8436</name></trkpt>
<trkpt lat="52.946822" lon="06.008387"><ele>7.3</ele><time>2021-03-19T12:26:10Z</time><name>PT8437</name></trkpt>
<trkpt lat="52.946815" lon="06.008395"><ele>7.5</ele><time>2021-03-19T12:26:12Z</time><name>PT8438</name></trkpt>
<trkpt lat="52.946813" lon="06.008399"><ele>7.6</ele><time>2021-03-19T12:26:12Z</time><name>PT8439</name></trkpt>
<trkpt lat="52.946812" lon="06.008401"><ele>7.7</ele><time>2021-03-19T12:26:14Z</time><name>PT8440</name></trkpt>
<trkpt lat="52.946808" lon="06.008406"><ele>7.9</ele><time>2021-03-19T12:26:14Z</time><name>PT8441</name></trkpt>
<trkpt lat="52.946800" lon="06.008411"><ele>8</ele><time>2021-03-19T12:26:16Z</time><name>PT8442</name></trkpt>
<trkpt lat="52.946793" lon="06.008410"><ele>7.8</ele><time>2021-03-19T12:26:17Z</time><name>PT8443</name></trkpt>
<trkpt lat="52.946785" lon="06.008415"><ele>7.8</ele><time>2021-03-19T12:26:17Z</time><name>PT8444</name></trkpt>
<trkpt lat="52.946781" lon="06.008428"><ele>7.8</ele><time>2021-03-19T12:26:19Z</time><name>PT8445</name></trkpt>
<trkpt lat="52.946777" lon="06.008439"><ele>7.7</ele><time>2021-03-19T12:26:20Z</time><name>PT8446</name></trkpt>
<trkpt lat="52.946771" lon="06.008443"><ele>7.7</ele><time>2021-03-19T12:26:20Z</time><name>PT8447</name></trkpt>
<trkpt lat="52.946766" lon="06.008452"><ele>7.7</ele><time>2021-03-19T12:26:22Z</time><name>PT8448</name></trkpt>
<trkpt lat="52.946762" lon="06.008465"><ele>7.6</ele><time>2021-03-19T12:26:23Z</time><name>PT8449</name></trkpt>
<trkpt lat="52.946757" lon="06.008479"><ele>7.6</ele><time>2021-03-19T12:26:23Z</time><name>PT8450</name></trkpt>
<trkpt lat="52.946752" lon="06.008491"><ele>7.4</ele><time>2021-03-19T12:26:25Z</time><name>PT8451</name></trkpt>
<trkpt lat="52.946746" lon="06.008501"><ele>7.4</ele><time>2021-03-19T12:26:26Z</time><name>PT8452</name></trkpt>
<trkpt lat="52.946738" lon="06.008508"><ele>7.3</ele><time>2021-03-19T12:26:26Z</time><name>PT8453</name></trkpt>
<trkpt lat="52.946730" lon="06.008517"><ele>7.3</ele><time>2021-03-19T12:26:28Z</time><name>PT8454</name></trkpt>
<trkpt lat="52.946717" lon="06.008533"><ele>7.3</ele><time>2021-03-19T12:26:29Z</time><name>PT8455</name></trkpt>
<trkpt lat="52.946708" lon="06.008548"><ele>7.3</ele><time>2021-03-19T12:26:29Z</time><name>PT8456</name></trkpt>
<trkpt lat="52.946695" lon="06.008564"><ele>7.4</ele><time>2021-03-19T12:26:31Z</time><name>PT8457</name></trkpt>
<trkpt lat="52.946682" lon="06.008575"><ele>7.3</ele><time>2021-03-19T12:26:31Z</time><name>PT8458</name></trkpt>
<trkpt lat="52.946677" lon="06.008584"><ele>7.4</ele><time>2021-03-19T12:26:33Z</time><name>PT8459</name></trkpt>
<trkpt lat="52.946670" lon="06.008594"><ele>7.4</ele><time>2021-03-19T12:26:34Z</time><name>PT8460</name></trkpt>
<trkpt lat="52.946664" lon="06.008605"><ele>7.4</ele><time>2021-03-19T12:26:34Z</time><name>PT8461</name></trkpt>
<trkpt lat="52.946651" lon="06.008617"><ele>7.5</ele><time>2021-03-19T12:26:36Z</time><name>PT8462</name></trkpt>
<trkpt lat="52.946636" lon="06.008626"><ele>7.6</ele><time>2021-03-19T12:26:36Z</time><name>PT8463</name></trkpt>
<trkpt lat="52.946623" lon="06.008636"><ele>7.6</ele><time>2021-03-19T12:26:38Z</time><name>PT8464</name></trkpt>
<trkpt lat="52.946614" lon="06.008643"><ele>7.5</ele><time>2021-03-19T12:26:39Z</time><name>PT8465</name></trkpt>
<trkpt lat="52.946605" lon="06.008656"><ele>7.5</ele><time>2021-03-19T12:26:39Z</time><name>PT8466</name></trkpt>
<trkpt lat="52.946591" lon="06.008666"><ele>7.4</ele><time>2021-03-19T12:26:41Z</time><name>PT8467</name></trkpt>
<trkpt lat="52.946585" lon="06.008678"><ele>7.4</ele><time>2021-03-19T12:26:42Z</time><name>PT8468</name></trkpt>
<trkpt lat="52.946577" lon="06.008689"><ele>7.4</ele><time>2021-03-19T12:26:42Z</time><name>PT8469</name></trkpt>
<trkpt lat="52.946579" lon="06.008688"><ele>7.5</ele><time>2021-03-19T12:26:44Z</time><name>PT8470</name></trkpt>
<trkpt lat="52.946575" lon="06.008692"><ele>7.4</ele><time>2021-03-19T12:26:44Z</time><name>PT8471</name></trkpt>
<trkpt lat="52.946569" lon="06.008707"><ele>7.4</ele><time>2021-03-19T12:26:46Z</time><name>PT8472</name></trkpt>
<trkpt lat="52.946561" lon="06.008719"><ele>7.5</ele><time>2021-03-19T12:26:47Z</time><name>PT8473</name></trkpt>
<trkpt lat="52.946547" lon="06.008726"><ele>7.4</ele><time>2021-03-19T12:26:47Z</time><name>PT8474</name></trkpt>
<trkpt lat="52.946539" lon="06.008736"><ele>7.3</ele><time>2021-03-19T12:26:49Z</time><name>PT8475</name></trkpt>
<trkpt lat="52.946532" lon="06.008741"><ele>7.5</ele><time>2021-03-19T12:26:50Z</time><name>PT8476</name></trkpt>
<trkpt lat="52.946522" lon="06.008749"><ele>7.6</ele><time>2021-03-19T12:26:50Z</time><name>PT8477</name></trkpt>
<trkpt lat="52.946512" lon="06.008760"><ele>7.8</ele><time>2021-03-19T12:26:52Z</time><name>PT8478</name></trkpt>
<trkpt lat="52.946506" lon="06.008769"><ele>8</ele><time>2021-03-19T12:26:53Z</time><name>PT8479</name></trkpt>
<trkpt lat="52.946493" lon="06.008778"><ele>7.8</ele><time>2021-03-19T12:26:53Z</time><name>PT8480</name></trkpt>
<trkpt lat="52.946483" lon="06.008789"><ele>7.8</ele><time>2021-03-19T12:26:55Z</time><name>PT8481</name></trkpt>
<trkpt lat="52.946476" lon="06.008803"><ele>7.5</ele><time>2021-03-19T12:26:56Z</time><name>PT8482</name></trkpt>
<trkpt lat="52.946472" lon="06.008808"><ele>7.4</ele><time>2021-03-19T12:26:56Z</time><name>PT8483</name></trkpt>
<trkpt lat="52.946467" lon="06.008813"><ele>7.4</ele><time>2021-03-19T12:26:58Z</time><name>PT8484</name></trkpt>
<trkpt lat="52.946459" lon="06.008822"><ele>7.4</ele><time>2021-03-19T12:26:59Z</time><name>PT8485</name></trkpt>
<trkpt lat="52.946453" lon="06.008831"><ele>7.6</ele><time>2021-03-19T12:26:59Z</time><name>PT8486</name></trkpt>
<trkpt lat="52.946446" lon="06.008842"><ele>7.7</ele><time>2021-03-19T12:27:01Z</time><name>PT8487</name></trkpt>
<trkpt lat="52.946434" lon="06.008854"><ele>7.6</ele><time>2021-03-19T12:27:02Z</time><name>PT8488</name></trkpt>
<trkpt lat="52.946427" lon="06.008864"><ele>7.7</ele><time>2021-03-19T12:27:02Z</time><name>PT8489</name></trkpt>
<trkpt lat="52.946418" lon="06.008872"><ele>7.6</ele><time>2021-03-19T12:27:04Z</time><name>PT8490</name></trkpt>
<trkpt lat="52.946406" lon="06.008877"><ele>7.6</ele><time>2021-03-19T12:27:04Z</time><name>PT8491</name></trkpt>
<trkpt lat="52.946392" lon="06.008894"><ele>7.7</ele><time>2021-03-19T12:27:06Z</time><name>PT8492</name></trkpt>
<trkpt lat="52.946378" lon="06.008906"><ele>7.6</ele><time>2021-03-19T12:27:07Z</time><name>PT8493</name></trkpt>
<trkpt lat="52.946372" lon="06.008915"><ele>7.6</ele><time>2021-03-19T12:27:07Z</time><name>PT8494</name></trkpt>
<trkpt lat="52.946365" lon="06.008923"><ele>7.6</ele><time>2021-03-19T12:27:09Z</time><name>PT8495</name></trkpt>
<trkpt lat="52.946358" lon="06.008926"><ele>7.5</ele><time>2021-03-19T12:27:09Z</time><name>PT8496</name></trkpt>
<trkpt lat="52.946348" lon="06.008938"><ele>7.5</ele><time>2021-03-19T12:27:11Z</time><name>PT8497</name></trkpt>
<trkpt lat="52.946334" lon="06.008953"><ele>7.4</ele><time>2021-03-19T12:27:12Z</time><name>PT8498</name></trkpt>
<trkpt lat="52.946322" lon="06.008965"><ele>7.3</ele><time>2021-03-19T12:27:12Z</time><name>PT8499</name></trkpt>
<trkpt lat="52.946315" lon="06.008973"><ele>7.3</ele><time>2021-03-19T12:27:14Z</time><name>PT8500</name></trkpt>
<trkpt lat="52.946307" lon="06.008981"><ele>7.6</ele><time>2021-03-19T12:27:15Z</time><name>PT8501</name></trkpt>
<trkpt lat="52.946302" lon="06.008995"><ele>7.4</ele><time>2021-03-19T12:27:15Z</time><name>PT8502</name></trkpt>
<trkpt lat="52.946295" lon="06.009007"><ele>7.5</ele><time>2021-03-19T12:27:17Z</time><name>PT8503</name></trkpt>
<trkpt lat="52.946288" lon="06.009013"><ele>7.6</ele><time>2021-03-19T12:27:18Z</time><name>PT8504</name></trkpt>
<trkpt lat="52.946275" lon="06.009026"><ele>7.6</ele><time>2021-03-19T12:27:18Z</time><name>PT8505</name></trkpt>
<trkpt lat="52.946261" lon="06.009044"><ele>7.4</ele><time>2021-03-19T12:27:20Z</time><name>PT8506</name></trkpt>
<trkpt lat="52.946252" lon="06.009051"><ele>7.3</ele><time>2021-03-19T12:27:21Z</time><name>PT8507</name></trkpt>
<trkpt lat="52.946243" lon="06.009058"><ele>7.3</ele><time>2021-03-19T12:27:21Z</time><name>PT8508</name></trkpt>
<trkpt lat="52.946231" lon="06.009070"><ele>7.4</ele><time>2021-03-19T12:27:23Z</time><name>PT8509</name></trkpt>
<trkpt lat="52.946224" lon="06.009085"><ele>7.6</ele><time>2021-03-19T12:27:24Z</time><name>PT8510</name></trkpt>
<trkpt lat="52.946216" lon="06.009089"><ele>7.5</ele><time>2021-03-19T12:27:24Z</time><name>PT8511</name></trkpt>
<trkpt lat="52.946205" lon="06.009102"><ele>7.5</ele><time>2021-03-19T12:27:26Z</time><name>PT8512</name></trkpt>
<trkpt lat="52.946198" lon="06.009111"><ele>7.4</ele><time>2021-03-19T12:27:27Z</time><name>PT8513</name></trkpt>
<trkpt lat="52.946187" lon="06.009120"><ele>7.4</ele><time>2021-03-19T12:27:27Z</time><name>PT8514</name></trkpt>
<trkpt lat="52.946180" lon="06.009135"><ele>7.5</ele><time>2021-03-19T12:27:29Z</time><name>PT8515</name></trkpt>
<trkpt lat="52.946171" lon="06.009146"><ele>7.5</ele><time>2021-03-19T12:27:29Z</time><name>PT8516</name></trkpt>
<trkpt lat="52.946161" lon="06.009153"><ele>7.7</ele><time>2021-03-19T12:27:31Z</time><name>PT8517</name></trkpt>
<trkpt lat="52.946152" lon="06.009155"><ele>7.7</ele><time>2021-03-19T12:27:32Z</time><name>PT8518</name></trkpt>
<trkpt lat="52.946145" lon="06.009160"><ele>7.8</ele><time>2021-03-19T12:27:32Z</time><name>PT8519</name></trkpt>
<trkpt lat="52.946139" lon="06.009169"><ele>7.8</ele><time>2021-03-19T12:27:34Z</time><name>PT8520</name></trkpt>
<trkpt lat="52.946128" lon="06.009180"><ele>7.8</ele><time>2021-03-19T12:27:35Z</time><name>PT8521</name></trkpt>
<trkpt lat="52.946121" lon="06.009191"><ele>7.8</ele><time>2021-03-19T12:27:35Z</time><name>PT8522</name></trkpt>
<trkpt lat="52.946112" lon="06.009202"><ele>7.7</ele><time>2021-03-19T12:27:37Z</time><name>PT8523</name></trkpt>
<trkpt lat="52.946104" lon="06.009202"><ele>7.7</ele><time>2021-03-19T12:27:38Z</time><name>PT8524</name></trkpt>
<trkpt lat="52.946094" lon="06.009213"><ele>7.6</ele><time>2021-03-19T12:27:38Z</time><name>PT8525</name></trkpt>
<trkpt lat="52.946085" lon="06.009223"><ele>7.5</ele><time>2021-03-19T12:27:40Z</time><name>PT8526</name></trkpt>
<trkpt lat="52.946078" lon="06.009237"><ele>7.7</ele><time>2021-03-19T12:27:41Z</time><name>PT8527</name></trkpt>
<trkpt lat="52.946057" lon="06.009251"><ele>7.7</ele><time>2021-03-19T12:27:41Z</time><name>PT8528</name></trkpt>
<trkpt lat="52.946042" lon="06.009262"><ele>7.7</ele><time>2021-03-19T12:27:43Z</time><name>PT8529</name></trkpt>
<trkpt lat="52.946034" lon="06.009270"><ele>7.7</ele><time>2021-03-19T12:27:44Z</time><name>PT8530</name></trkpt>
<trkpt lat="52.946025" lon="06.009273"><ele>7.6</ele><time>2021-03-19T12:27:44Z</time><name>PT8531</name></trkpt>
<trkpt lat="52.946013" lon="06.009287"><ele>7.7</ele><time>2021-03-19T12:27:46Z</time><name>PT8532</name></trkpt>
<trkpt lat="52.946002" lon="06.009298"><ele>7.6</ele><time>2021-03-19T12:27:47Z</time><name>PT8533</name></trkpt>
<trkpt lat="52.945993" lon="06.009307"><ele>7.6</ele><time>2021-03-19T12:27:47Z</time><name>PT8534</name></trkpt>
<trkpt lat="52.945985" lon="06.009314"><ele>7.6</ele><time>2021-03-19T12:27:49Z</time><name>PT8535</name></trkpt>
<trkpt lat="52.945979" lon="06.009321"><ele>7.7</ele><time>2021-03-19T12:27:50Z</time><name>PT8536</name></trkpt>
<trkpt lat="52.945974" lon="06.009332"><ele>7.6</ele><time>2021-03-19T12:27:50Z</time><name>PT8537</name></trkpt>
<trkpt lat="52.945967" lon="06.009345"><ele>7.7</ele><time>2021-03-19T12:27:52Z</time><name>PT8538</name></trkpt>
<trkpt lat="52.945956" lon="06.009351"><ele>7.7</ele><time>2021-03-19T12:27:53Z</time><name>PT8539</name></trkpt>
<trkpt lat="52.945947" lon="06.009361"><ele>7.4</ele><time>2021-03-19T12:27:53Z</time><name>PT8540</name></trkpt>
<trkpt lat="52.945940" lon="06.009380"><ele>7.4</ele><time>2021-03-19T12:27:55Z</time><name>PT8541</name></trkpt>
<trkpt lat="52.945933" lon="06.009385"><ele>7.4</ele><time>2021-03-19T12:27:55Z</time><name>PT8542</name></trkpt>
<trkpt lat="52.945926" lon="06.009387"><ele>7.3</ele><time>2021-03-19T12:27:57Z</time><name>PT8543</name></trkpt>
<trkpt lat="52.945917" lon="06.009399"><ele>7.5</ele><time>2021-03-19T12:27:58Z</time><name>PT8544</name></trkpt>
<trkpt lat="52.945911" lon="06.009404"><ele>7.6</ele><time>2021-03-19T12:27:58Z</time><name>PT8545</name></trkpt>
<trkpt lat="52.945896" lon="06.009412"><ele>7.8</ele><time>2021-03-19T12:28:00Z</time><name>PT8546</name></trkpt>
<trkpt lat="52.945887" lon="06.009421"><ele>8</ele><time>2021-03-19T12:28:01Z</time><name>PT8547</name></trkpt>
<trkpt lat="52.945884" lon="06.009426"><ele>8</ele><time>2021-03-19T12:28:01Z</time><name>PT8548</name></trkpt>
<trkpt lat="52.945874" lon="06.009435"><ele>7.7</ele><time>2021-03-19T12:28:03Z</time><name>PT8549</name></trkpt>
<trkpt lat="52.945866" lon="06.009444"><ele>7.7</ele><time>2021-03-19T12:28:04Z</time><name>PT8550</name></trkpt>
<trkpt lat="52.945859" lon="06.009449"><ele>7.7</ele><time>2021-03-19T12:28:04Z</time><name>PT8551</name></trkpt>
<trkpt lat="52.945848" lon="06.009449"><ele>7.6</ele><time>2021-03-19T12:28:06Z</time><name>PT8552</name></trkpt>
<trkpt lat="52.945837" lon="06.009455"><ele>7.6</ele><time>2021-03-19T12:28:07Z</time><name>PT8553</name></trkpt>
<trkpt lat="52.945827" lon="06.009468"><ele>7.5</ele><time>2021-03-19T12:28:07Z</time><name>PT8554</name></trkpt>
<trkpt lat="52.945817" lon="06.009478"><ele>7.5</ele><time>2021-03-19T12:28:09Z</time><name>PT8555</name></trkpt>
<trkpt lat="52.945805" lon="06.009488"><ele>7.5</ele><time>2021-03-19T12:28:10Z</time><name>PT8556</name></trkpt>
<trkpt lat="52.945795" lon="06.009495"><ele>7.5</ele><time>2021-03-19T12:28:10Z</time><name>PT8557</name></trkpt>
<trkpt lat="52.945789" lon="06.009505"><ele>7.4</ele><time>2021-03-19T12:28:12Z</time><name>PT8558</name></trkpt>
<trkpt lat="52.945782" lon="06.009508"><ele>7.3</ele><time>2021-03-19T12:28:12Z</time><name>PT8559</name></trkpt>
<trkpt lat="52.945773" lon="06.009515"><ele>7.2</ele><time>2021-03-19T12:28:14Z</time><name>PT8560</name></trkpt>
<trkpt lat="52.945765" lon="06.009522"><ele>7.1</ele><time>2021-03-19T12:28:15Z</time><name>PT8561</name></trkpt>
<trkpt lat="52.945759" lon="06.009526"><ele>7.2</ele><time>2021-03-19T12:28:15Z</time><name>PT8562</name></trkpt>
<trkpt lat="52.945757" lon="06.009534"><ele>7.2</ele><time>2021-03-19T12:28:17Z</time><name>PT8563</name></trkpt>
<trkpt lat="52.945754" lon="06.009543"><ele>7.2</ele><time>2021-03-19T12:28:18Z</time><name>PT8564</name></trkpt>
<trkpt lat="52.945744" lon="06.009551"><ele>7.2</ele><time>2021-03-19T12:28:18Z</time><name>PT8565</name></trkpt>
<trkpt lat="52.945733" lon="06.009560"><ele>7.2</ele><time>2021-03-19T12:28:20Z</time><name>PT8566</name></trkpt>
<trkpt lat="52.945727" lon="06.009581"><ele>7.2</ele><time>2021-03-19T12:28:20Z</time><name>PT8567</name></trkpt>
<trkpt lat="52.945718" lon="06.009596"><ele>7.3</ele><time>2021-03-19T12:28:22Z</time><name>PT8568</name></trkpt>
<trkpt lat="52.945709" lon="06.009612"><ele>7.2</ele><time>2021-03-19T12:28:23Z</time><name>PT8569</name></trkpt>
<trkpt lat="52.945700" lon="06.009625"><ele>7.4</ele><time>2021-03-19T12:28:23Z</time><name>PT8570</name></trkpt>
<trkpt lat="52.945695" lon="06.009638"><ele>7.4</ele><time>2021-03-19T12:28:25Z</time><name>PT8571</name></trkpt>
<trkpt lat="52.945683" lon="06.009648"><ele>7.4</ele><time>2021-03-19T12:28:26Z</time><name>PT8572</name></trkpt>
<trkpt lat="52.945679" lon="06.009647"><ele>7.6</ele><time>2021-03-19T12:28:26Z</time><name>PT8573</name></trkpt>
<trkpt lat="52.945674" lon="06.009651"><ele>7.5</ele><time>2021-03-19T12:28:28Z</time><name>PT8574</name></trkpt>
<trkpt lat="52.945672" lon="06.009658"><ele>7.5</ele><time>2021-03-19T12:28:28Z</time><name>PT8575</name></trkpt>
<trkpt lat="52.945649" lon="06.009675"><ele>7.5</ele><time>2021-03-19T12:28:30Z</time><name>PT8576</name></trkpt>
<trkpt lat="52.945637" lon="06.009683"><ele>7.6</ele><time>2021-03-19T12:28:31Z</time><name>PT8577</name></trkpt>
<trkpt lat="52.945620" lon="06.009696"><ele>7.7</ele><time>2021-03-19T12:28:31Z</time><name>PT8578</name></trkpt>
<trkpt lat="52.945604" lon="06.009704"><ele>7.9</ele><time>2021-03-19T12:28:33Z</time><name>PT8579</name></trkpt>
<trkpt lat="52.945596" lon="06.009711"><ele>7.8</ele><time>2021-03-19T12:28:34Z</time><name>PT8580</name></trkpt>
<trkpt lat="52.945592" lon="06.009713"><ele>7.9</ele><time>2021-03-19T12:28:34Z</time><name>PT8581</name></trkpt>
<trkpt lat="52.945594" lon="06.009719"><ele>7.7</ele><time>2021-03-19T12:28:36Z</time><name>PT8582</name></trkpt>
<trkpt lat="52.945585" lon="06.009722"><ele>7.7</ele><time>2021-03-19T12:28:37Z</time><name>PT8583</name></trkpt>
<trkpt lat="52.945571" lon="06.009732"><ele>7.7</ele><time>2021-03-19T12:28:37Z</time><name>PT8584</name></trkpt>
<trkpt lat="52.945564" lon="06.009737"><ele>7.6</ele><time>2021-03-19T12:28:39Z</time><name>PT8585</name></trkpt>
<trkpt lat="52.945559" lon="06.009744"><ele>7.7</ele><time>2021-03-19T12:28:40Z</time><name>PT8586</name></trkpt>
<trkpt lat="52.945550" lon="06.009756"><ele>7.7</ele><time>2021-03-19T12:28:40Z</time><name>PT8587</name></trkpt>
<trkpt lat="52.945539" lon="06.009764"><ele>7.8</ele><time>2021-03-19T12:28:42Z</time><name>PT8588</name></trkpt>
<trkpt lat="52.945529" lon="06.009773"><ele>7.9</ele><time>2021-03-19T12:28:42Z</time><name>PT8589</name></trkpt>
<trkpt lat="52.945520" lon="06.009781"><ele>8.1</ele><time>2021-03-19T12:28:44Z</time><name>PT8590</name></trkpt>
<trkpt lat="52.945501" lon="06.009796"><ele>8.1</ele><time>2021-03-19T12:28:45Z</time><name>PT8591</name></trkpt>
<trkpt lat="52.945483" lon="06.009807"><ele>8.1</ele><time>2021-03-19T12:28:45Z</time><name>PT8592</name></trkpt>
<trkpt lat="52.945478" lon="06.009815"><ele>7.9</ele><time>2021-03-19T12:28:47Z</time><name>PT8593</name></trkpt>
<trkpt lat="52.945472" lon="06.009827"><ele>7.9</ele><time>2021-03-19T12:28:47Z</time><name>PT8594</name></trkpt>
<trkpt lat="52.945463" lon="06.009838"><ele>7.8</ele><time>2021-03-19T12:28:49Z</time><name>PT8595</name></trkpt>
<trkpt lat="52.945455" lon="06.009848"><ele>7.9</ele><time>2021-03-19T12:28:50Z</time><name>PT8596</name></trkpt>
<trkpt lat="52.945444" lon="06.009855"><ele>7.9</ele><time>2021-03-19T12:28:50Z</time><name>PT8597</name></trkpt>
<trkpt lat="52.945440" lon="06.009860"><ele>7.9</ele><time>2021-03-19T12:28:52Z</time><name>PT8598</name></trkpt>
<trkpt lat="52.945439" lon="06.009861"><ele>7.8</ele><time>2021-03-19T12:28:53Z</time><name>PT8599</name></trkpt>
<trkpt lat="52.945437" lon="06.009864"><ele>7.9</ele><time>2021-03-19T12:28:53Z</time><name>PT8600</name></trkpt>
<trkpt lat="52.945428" lon="06.009870"><ele>7.8</ele><time>2021-03-19T12:28:55Z</time><name>PT8601</name></trkpt>
<trkpt lat="52.945420" lon="06.009882"><ele>8</ele><time>2021-03-19T12:28:56Z</time><name>PT8602</name></trkpt>
<trkpt lat="52.945414" lon="06.009886"><ele>7.9</ele><time>2021-03-19T12:28:56Z</time><name>PT8603</name></trkpt>
<trkpt lat="52.945406" lon="06.009895"><ele>7.8</ele><time>2021-03-19T12:28:58Z</time><name>PT8604</name></trkpt>
<trkpt lat="52.945398" lon="06.009907"><ele>7.7</ele><time>2021-03-19T12:28:59Z</time><name>PT8605</name></trkpt>
<trkpt lat="52.945389" lon="06.009916"><ele>7.7</ele><time>2021-03-19T12:28:59Z</time><name>PT8606</name></trkpt>
<trkpt lat="52.945372" lon="06.009932"><ele>7.5</ele><time>2021-03-19T12:29:01Z</time><name>PT8607</name></trkpt>
<trkpt lat="52.945361" lon="06.009946"><ele>7.7</ele><time>2021-03-19T12:29:02Z</time><name>PT8608</name></trkpt>
<trkpt lat="52.945338" lon="06.009961"><ele>7.6</ele><time>2021-03-19T12:29:02Z</time><name>PT8609</name></trkpt>
<trkpt lat="52.945329" lon="06.009969"><ele>7.6</ele><time>2021-03-19T12:29:04Z</time><name>PT8610</name></trkpt>
<trkpt lat="52.945318" lon="06.009983"><ele>7.6</ele><time>2021-03-19T12:29:05Z</time><name>PT8611</name></trkpt>
<trkpt lat="52.945310" lon="06.009990"><ele>7.6</ele><time>2021-03-19T12:29:05Z</time><name>PT8612</name></trkpt>
<trkpt lat="52.945300" lon="06.009997"><ele>7.7</ele><time>2021-03-19T12:29:07Z</time><name>PT8613</name></trkpt>
<trkpt lat="52.945291" lon="06.010003"><ele>8</ele><time>2021-03-19T12:29:08Z</time><name>PT8614</name></trkpt>
<trkpt lat="52.945283" lon="06.010013"><ele>8.1</ele><time>2021-03-19T12:29:08Z</time><name>PT8615</name></trkpt>
<trkpt lat="52.945269" lon="06.010027"><ele>8.1</ele><time>2021-03-19T12:29:10Z</time><name>PT8616</name></trkpt>
<trkpt lat="52.945258" lon="06.010041"><ele>8</ele><time>2021-03-19T12:29:11Z</time><name>PT8617</name></trkpt>
<trkpt lat="52.945250" lon="06.010048"><ele>7.9</ele><time>2021-03-19T12:29:11Z</time><name>PT8618</name></trkpt>
<trkpt lat="52.945240" lon="06.010059"><ele>7.8</ele><time>2021-03-19T12:29:13Z</time><name>PT8619</name></trkpt>
<trkpt lat="52.945227" lon="06.010073"><ele>7.9</ele><time>2021-03-19T12:29:13Z</time><name>PT8620</name></trkpt>
<trkpt lat="52.945214" lon="06.010087"><ele>8.1</ele><time>2021-03-19T12:29:15Z</time><name>PT8621</name></trkpt>
<trkpt lat="52.945207" lon="06.010096"><ele>8</ele><time>2021-03-19T12:29:16Z</time><name>PT8622</name></trkpt>
<trkpt lat="52.945202" lon="06.010105"><ele>8</ele><time>2021-03-19T12:29:16Z</time><name>PT8623</name></trkpt>
<trkpt lat="52.945194" lon="06.010118"><ele>8</ele><time>2021-03-19T12:29:18Z</time><name>PT8624</name></trkpt>
<trkpt lat="52.945180" lon="06.010128"><ele>8</ele><time>2021-03-19T12:29:19Z</time><name>PT8625</name></trkpt>
<trkpt lat="52.945167" lon="06.010135"><ele>8.1</ele><time>2021-03-19T12:29:19Z</time><name>PT8626</name></trkpt>
<trkpt lat="52.945155" lon="06.010142"><ele>8.2</ele><time>2021-03-19T12:29:21Z</time><name>PT8627</name></trkpt>
<trkpt lat="52.945146" lon="06.010151"><ele>8.3</ele><time>2021-03-19T12:29:21Z</time><name>PT8628</name></trkpt>
<trkpt lat="52.945135" lon="06.010161"><ele>8.1</ele><time>2021-03-19T12:29:23Z</time><name>PT8629</name></trkpt>
<trkpt lat="52.945122" lon="06.010171"><ele>8.2</ele><time>2021-03-19T12:29:24Z</time><name>PT8630</name></trkpt>
<trkpt lat="52.945110" lon="06.010183"><ele>8.2</ele><time>2021-03-19T12:29:24Z</time><name>PT8631</name></trkpt>
<trkpt lat="52.945100" lon="06.010186"><ele>8.2</ele><time>2021-03-19T12:29:26Z</time><name>PT8632</name></trkpt>
<trkpt lat="52.945090" lon="06.010195"><ele>8.2</ele><time>2021-03-19T12:29:26Z</time><name>PT8633</name></trkpt>
<trkpt lat="52.945083" lon="06.010199"><ele>8.3</ele><time>2021-03-19T12:29:28Z</time><name>PT8634</name></trkpt>
<trkpt lat="52.945079" lon="06.010202"><ele>8.4</ele><time>2021-03-19T12:29:29Z</time><name>PT8635</name></trkpt>
<trkpt lat="52.945075" lon="06.010206"><ele>8.4</ele><time>2021-03-19T12:29:29Z</time><name>PT8636</name></trkpt>
<trkpt lat="52.945068" lon="06.010211"><ele>8.3</ele><time>2021-03-19T12:29:31Z</time><name>PT8637</name></trkpt>
<trkpt lat="52.945061" lon="06.010215"><ele>8.3</ele><time>2021-03-19T12:29:32Z</time><name>PT8638</name></trkpt>
<trkpt lat="52.945052" lon="06.010222"><ele>8.3</ele><time>2021-03-19T12:29:32Z</time><name>PT8639</name></trkpt>
<trkpt lat="52.945046" lon="06.010235"><ele>8.1</ele><time>2021-03-19T12:29:34Z</time><name>PT8640</name></trkpt>
<trkpt lat="52.945045" lon="06.010244"><ele>8.1</ele><time>2021-03-19T12:29:35Z</time><name>PT8641</name></trkpt>
<trkpt lat="52.945038" lon="06.010256"><ele>8.1</ele><time>2021-03-19T12:29:35Z</time><name>PT8642</name></trkpt>
<trkpt lat="52.945035" lon="06.010263"><ele>7.7</ele><time>2021-03-19T12:29:37Z</time><name>PT8643</name></trkpt>
<trkpt lat="52.945031" lon="06.010273"><ele>7.7</ele><time>2021-03-19T12:29:38Z</time><name>PT8644</name></trkpt>
<trkpt lat="52.945022" lon="06.010283"><ele>7.8</ele><time>2021-03-19T12:29:38Z</time><name>PT8645</name></trkpt>
<trkpt lat="52.945015" lon="06.010289"><ele>8</ele><time>2021-03-19T12:29:40Z</time><name>PT8646</name></trkpt>
<trkpt lat="52.945005" lon="06.010294"><ele>8.1</ele><time>2021-03-19T12:29:40Z</time><name>PT8647</name></trkpt>
<trkpt lat="52.945000" lon="06.010296"><ele>8.1</ele><time>2021-03-19T12:29:42Z</time><name>PT8648</name></trkpt>
<trkpt lat="52.944994" lon="06.010309"><ele>8.1</ele><time>2021-03-19T12:29:43Z</time><name>PT8649</name></trkpt>
<trkpt lat="52.944989" lon="06.010316"><ele>8.1</ele><time>2021-03-19T12:29:43Z</time><name>PT8650</name></trkpt>
<trkpt lat="52.944986" lon="06.010317"><ele>8.1</ele><time>2021-03-19T12:29:45Z</time><name>PT8651</name></trkpt>
<trkpt lat="52.944974" lon="06.010322"><ele>8.1</ele><time>2021-03-19T12:29:45Z</time><name>PT8652</name></trkpt>
<trkpt lat="52.944963" lon="06.010331"><ele>8</ele><time>2021-03-19T12:29:47Z</time><name>PT8653</name></trkpt>
<trkpt lat="52.944944" lon="06.010341"><ele>8.1</ele><time>2021-03-19T12:29:48Z</time><name>PT8654</name></trkpt>
<trkpt lat="52.944930" lon="06.010355"><ele>8.1</ele><time>2021-03-19T12:29:48Z</time><name>PT8655</name></trkpt>
<trkpt lat="52.944922" lon="06.010360"><ele>8.1</ele><time>2021-03-19T12:29:50Z</time><name>PT8656</name></trkpt>
<trkpt lat="52.944913" lon="06.010366"><ele>8.3</ele><time>2021-03-19T12:29:51Z</time><name>PT8657</name></trkpt>
<trkpt lat="52.944903" lon="06.010378"><ele>8.4</ele><time>2021-03-19T12:29:51Z</time><name>PT8658</name></trkpt>
<trkpt lat="52.944889" lon="06.010381"><ele>8.5</ele><time>2021-03-19T12:29:53Z</time><name>PT8659</name></trkpt>
<trkpt lat="52.944881" lon="06.010389"><ele>8.5</ele><time>2021-03-19T12:29:53Z</time><name>PT8660</name></trkpt>
<trkpt lat="52.944877" lon="06.010399"><ele>8.5</ele><time>2021-03-19T12:29:55Z</time><name>PT8661</name></trkpt>
<trkpt lat="52.944873" lon="06.010408"><ele>8.2</ele><time>2021-03-19T12:29:56Z</time><name>PT8662</name></trkpt>
<trkpt lat="52.944871" lon="06.010411"><ele>8.3</ele><time>2021-03-19T12:29:56Z</time><name>PT8663</name></trkpt>
<trkpt lat="52.944871" lon="06.010415"><ele>8.3</ele><time>2021-03-19T12:29:58Z</time><name>PT8664</name></trkpt>
<trkpt lat="52.944865" lon="06.010423"><ele>8.2</ele><time>2021-03-19T12:29:58Z</time><name>PT8665</name></trkpt>
<trkpt lat="52.944858" lon="06.010429"><ele>8.1</ele><time>2021-03-19T12:30:00Z</time><name>PT8666</name></trkpt>
<trkpt lat="52.944853" lon="06.010434"><ele>8.1</ele><time>2021-03-19T12:30:01Z</time><name>PT8667</name></trkpt>
<trkpt lat="52.944849" lon="06.010432"><ele>8.3</ele><time>2021-03-19T12:30:01Z</time><name>PT8668</name></trkpt>
<trkpt lat="52.944846" lon="06.010433"><ele>8.2</ele><time>2021-03-19T12:30:03Z</time><name>PT8669</name></trkpt>
<trkpt lat="52.944844" lon="06.010435"><ele>8.3</ele><time>2021-03-19T12:30:04Z</time><name>PT8670</name></trkpt>
<trkpt lat="52.944840" lon="06.010436"><ele>8.3</ele><time>2021-03-19T12:30:04Z</time><name>PT8671</name></trkpt>
<trkpt lat="52.944838" lon="06.010437"><ele>8.2</ele><time>2021-03-19T12:30:06Z</time><name>PT8672</name></trkpt>
<trkpt lat="52.944830" lon="06.010460"><ele>8.1</ele><time>2021-03-19T12:30:13Z</time><name>PT8673</name></trkpt>
<trkpt lat="52.944823" lon="06.010474"><ele>8.1</ele><time>2021-03-19T12:30:13Z</time><name>PT8674</name></trkpt>
<trkpt lat="52.944817" lon="06.010481"><ele>8.1</ele><time>2021-03-19T12:30:15Z</time><name>PT8675</name></trkpt>
<trkpt lat="52.944805" lon="06.010492"><ele>7.8</ele><time>2021-03-19T12:30:21Z</time><name>PT8676</name></trkpt>
<trkpt lat="52.944797" lon="06.010501"><ele>7.8</ele><time>2021-03-19T12:30:21Z</time><name>PT8677</name></trkpt>
<trkpt lat="52.944790" lon="06.010504"><ele>7.8</ele><time>2021-03-19T12:30:23Z</time><name>PT8678</name></trkpt>
<trkpt lat="52.944779" lon="06.010515"><ele>7.7</ele><time>2021-03-19T12:30:24Z</time><name>PT8679</name></trkpt>
<trkpt lat="52.944772" lon="06.010523"><ele>7.6</ele><time>2021-03-19T12:30:24Z</time><name>PT8680</name></trkpt>
<trkpt lat="52.944759" lon="06.010526"><ele>7.5</ele><time>2021-03-19T12:30:26Z</time><name>PT8681</name></trkpt>
<trkpt lat="52.944751" lon="06.010537"><ele>7.5</ele><time>2021-03-19T12:30:27Z</time><name>PT8682</name></trkpt>
<trkpt lat="52.944741" lon="06.010542"><ele>7.4</ele><time>2021-03-19T12:30:27Z</time><name>PT8683</name></trkpt>
<trkpt lat="52.944734" lon="06.010554"><ele>7.6</ele><time>2021-03-19T12:30:29Z</time><name>PT8684</name></trkpt>
<trkpt lat="52.944742" lon="06.010557"><ele>7.8</ele><time>2021-03-19T12:30:30Z</time><name>PT8685</name></trkpt>
<trkpt lat="52.944744" lon="06.010557"><ele>7.7</ele><time>2021-03-19T12:30:30Z</time><name>PT8686</name></trkpt>
<trkpt lat="52.944738" lon="06.010561"><ele>7.7</ele><time>2021-03-19T12:30:32Z</time><name>PT8687</name></trkpt>
<trkpt lat="52.944729" lon="06.010568"><ele>8</ele><time>2021-03-19T12:30:33Z</time><name>PT8688</name></trkpt>
<trkpt lat="52.944720" lon="06.010583"><ele>7.9</ele><time>2021-03-19T12:30:33Z</time><name>PT8689</name></trkpt>
<trkpt lat="52.944711" lon="06.010595"><ele>8.1</ele><time>2021-03-19T12:30:35Z</time><name>PT8690</name></trkpt>
<trkpt lat="52.944705" lon="06.010608"><ele>8.2</ele><time>2021-03-19T12:30:36Z</time><name>PT8691</name></trkpt>
<trkpt lat="52.944695" lon="06.010618"><ele>8.1</ele><time>2021-03-19T12:30:36Z</time><name>PT8692</name></trkpt>
<trkpt lat="52.944687" lon="06.010623"><ele>8.1</ele><time>2021-03-19T12:30:38Z</time><name>PT8693</name></trkpt>
<trkpt lat="52.944682" lon="06.010629"><ele>8.1</ele><time>2021-03-19T12:30:39Z</time><name>PT8694</name></trkpt>
<trkpt lat="52.944674" lon="06.010638"><ele>8.1</ele><time>2021-03-19T12:30:39Z</time><name>PT8695</name></trkpt>
<trkpt lat="52.944669" lon="06.010638"><ele>8.1</ele><time>2021-03-19T12:30:41Z</time><name>PT8696</name></trkpt>
<trkpt lat="52.944660" lon="06.010643"><ele>8.1</ele><time>2021-03-19T12:30:42Z</time><name>PT8697</name></trkpt>
<trkpt lat="52.944653" lon="06.010654"><ele>8.2</ele><time>2021-03-19T12:30:42Z</time><name>PT8698</name></trkpt>
<trkpt lat="52.944637" lon="06.010676"><ele>8.2</ele><time>2021-03-19T12:30:44Z</time><name>PT8699</name></trkpt>
<trkpt lat="52.944632" lon="06.010691"><ele>8.1</ele><time>2021-03-19T12:30:44Z</time><name>PT8700</name></trkpt>
<trkpt lat="52.944622" lon="06.010712"><ele>8.1</ele><time>2021-03-19T12:30:46Z</time><name>PT8701</name></trkpt>
<trkpt lat="52.944622" lon="06.010720"><ele>8.3</ele><time>2021-03-19T12:30:47Z</time><name>PT8702</name></trkpt>
<trkpt lat="52.944618" lon="06.010735"><ele>8.5</ele><time>2021-03-19T12:30:47Z</time><name>PT8703</name></trkpt>
<trkpt lat="52.944615" lon="06.010747"><ele>8.6</ele><time>2021-03-19T12:30:49Z</time><name>PT8704</name></trkpt>
<trkpt lat="52.944615" lon="06.010759"><ele>8.6</ele><time>2021-03-19T12:30:50Z</time><name>PT8705</name></trkpt>
<trkpt lat="52.944617" lon="06.010764"><ele>8.6</ele><time>2021-03-19T12:30:50Z</time><name>PT8706</name></trkpt>
<trkpt lat="52.944617" lon="06.010786"><ele>8.5</ele><time>2021-03-19T12:30:52Z</time><name>PT8707</name></trkpt>
<trkpt lat="52.944616" lon="06.010804"><ele>8.4</ele><time>2021-03-19T12:30:53Z</time><name>PT8708</name></trkpt>
<trkpt lat="52.944616" lon="06.010814"><ele>8.5</ele><time>2021-03-19T12:30:53Z</time><name>PT8709</name></trkpt>
<trkpt lat="52.944621" lon="06.010828"><ele>8.5</ele><time>2021-03-19T12:30:55Z</time><name>PT8710</name></trkpt>
<trkpt lat="52.944624" lon="06.010841"><ele>8.5</ele><time>2021-03-19T12:30:56Z</time><name>PT8711</name></trkpt>
<trkpt lat="52.944625" lon="06.010865"><ele>8.6</ele><time>2021-03-19T12:30:56Z</time><name>PT8712</name></trkpt>
<trkpt lat="52.944627" lon="06.010881"><ele>8.6</ele><time>2021-03-19T12:30:58Z</time><name>PT8713</name></trkpt>
<trkpt lat="52.944629" lon="06.010894"><ele>8.7</ele><time>2021-03-19T12:30:59Z</time><name>PT8714</name></trkpt>
<trkpt lat="52.944630" lon="06.010907"><ele>8.7</ele><time>2021-03-19T12:30:59Z</time><name>PT8715</name></trkpt>
<trkpt lat="52.944635" lon="06.010918"><ele>8.8</ele><time>2021-03-19T12:31:01Z</time><name>PT8716</name></trkpt>
<trkpt lat="52.944643" lon="06.010934"><ele>8.8</ele><time>2021-03-19T12:31:02Z</time><name>PT8717</name></trkpt>
<trkpt lat="52.944646" lon="06.010947"><ele>8.6</ele><time>2021-03-19T12:31:02Z</time><name>PT8718</name></trkpt>
<trkpt lat="52.944651" lon="06.010963"><ele>8.6</ele><time>2021-03-19T12:31:04Z</time><name>PT8719</name></trkpt>
<trkpt lat="52.944655" lon="06.010974"><ele>8.2</ele><time>2021-03-19T12:31:05Z</time><name>PT8720</name></trkpt>
<trkpt lat="52.944658" lon="06.010991"><ele>8.1</ele><time>2021-03-19T12:31:05Z</time><name>PT8721</name></trkpt>
<trkpt lat="52.944662" lon="06.011011"><ele>8.1</ele><time>2021-03-19T12:31:07Z</time><name>PT8722</name></trkpt>
<trkpt lat="52.944669" lon="06.011030"><ele>8</ele><time>2021-03-19T12:31:08Z</time><name>PT8723</name></trkpt>
<trkpt lat="52.944675" lon="06.011050"><ele>7.8</ele><time>2021-03-19T12:31:08Z</time><name>PT8724</name></trkpt>
<trkpt lat="52.944680" lon="06.011067"><ele>7.8</ele><time>2021-03-19T12:31:10Z</time><name>PT8725</name></trkpt>
<trkpt lat="52.944684" lon="06.011086"><ele>8</ele><time>2021-03-19T12:31:11Z</time><name>PT8726</name></trkpt>
<trkpt lat="52.944688" lon="06.011104"><ele>7.7</ele><time>2021-03-19T12:31:11Z</time><name>PT8727</name></trkpt>
<trkpt lat="52.944695" lon="06.011122"><ele>7.8</ele><time>2021-03-19T12:31:13Z</time><name>PT8728</name></trkpt>
<trkpt lat="52.944700" lon="06.011138"><ele>7.9</ele><time>2021-03-19T12:31:13Z</time><name>PT8729</name></trkpt>
<trkpt lat="52.944702" lon="06.011155"><ele>7.7</ele><time>2021-03-19T12:31:15Z</time><name>PT8730</name></trkpt>
<trkpt lat="52.944707" lon="06.011173"><ele>7.7</ele><time>2021-03-19T12:31:16Z</time><name>PT8731</name></trkpt>
<trkpt lat="52.944712" lon="06.011195"><ele>7.7</ele><time>2021-03-19T12:31:16Z</time><name>PT8732</name></trkpt>
<trkpt lat="52.944718" lon="06.011211"><ele>7.7</ele><time>2021-03-19T12:31:18Z</time><name>PT8733</name></trkpt>
<trkpt lat="52.944723" lon="06.011227"><ele>7.6</ele><time>2021-03-19T12:31:19Z</time><name>PT8734</name></trkpt>
<trkpt lat="52.944728" lon="06.011244"><ele>7.7</ele><time>2021-03-19T12:31:19Z</time><name>PT8735</name></trkpt>
<trkpt lat="52.944734" lon="06.011260"><ele>7.7</ele><time>2021-03-19T12:31:21Z</time><name>PT8736</name></trkpt>
<trkpt lat="52.944738" lon="06.011276"><ele>7.7</ele><time>2021-03-19T12:31:22Z</time><name>PT8737</name></trkpt>
<trkpt lat="52.944744" lon="06.011293"><ele>7.8</ele><time>2021-03-19T12:31:22Z</time><name>PT8738</name></trkpt>
<trkpt lat="52.944751" lon="06.011310"><ele>7.9</ele><time>2021-03-19T12:31:24Z</time><name>PT8739</name></trkpt>
<trkpt lat="52.944759" lon="06.011327"><ele>7.8</ele><time>2021-03-19T12:31:25Z</time><name>PT8740</name></trkpt>
<trkpt lat="52.944766" lon="06.011344"><ele>7.9</ele><time>2021-03-19T12:31:25Z</time><name>PT8741</name></trkpt>
<trkpt lat="52.944773" lon="06.011359"><ele>7.9</ele><time>2021-03-19T12:31:27Z</time><name>PT8742</name></trkpt>
<trkpt lat="52.944780" lon="06.011375"><ele>7.7</ele><time>2021-03-19T12:31:28Z</time><name>PT8743</name></trkpt>
<trkpt lat="52.944786" lon="06.011390"><ele>7.7</ele><time>2021-03-19T12:31:28Z</time><name>PT8744</name></trkpt>
<trkpt lat="52.944792" lon="06.011406"><ele>7.4</ele><time>2021-03-19T12:31:30Z</time><name>PT8745</name></trkpt>
<trkpt lat="52.944800" lon="06.011423"><ele>7.4</ele><time>2021-03-19T12:31:31Z</time><name>PT8746</name></trkpt>
<trkpt lat="52.944804" lon="06.011437"><ele>7.2</ele><time>2021-03-19T12:31:31Z</time><name>PT8747</name></trkpt>
<trkpt lat="52.944810" lon="06.011450"><ele>7.2</ele><time>2021-03-19T12:31:33Z</time><name>PT8748</name></trkpt>
<trkpt lat="52.944818" lon="06.011466"><ele>7.3</ele><time>2021-03-19T12:31:34Z</time><name>PT8749</name></trkpt>
<trkpt lat="52.944825" lon="06.011480"><ele>7.4</ele><time>2021-03-19T12:31:34Z</time><name>PT8750</name></trkpt>
<trkpt lat="52.944832" lon="06.011496"><ele>7.7</ele><time>2021-03-19T12:31:36Z</time><name>PT8751</name></trkpt>
<trkpt lat="52.944840" lon="06.011509"><ele>7.8</ele><time>2021-03-19T12:31:36Z</time><name>PT8752</name></trkpt>
<trkpt lat="52.944846" lon="06.011521"><ele>7.9</ele><time>2021-03-19T12:31:38Z</time><name>PT8753</name></trkpt>
<trkpt lat="52.944849" lon="06.011527"><ele>8.1</ele><time>2021-03-19T12:31:38Z</time><name>PT8754</name></trkpt>
<trkpt lat="52.944856" lon="06.011544"><ele>8.1</ele><time>2021-03-19T12:31:40Z</time><name>PT8755</name></trkpt>
<trkpt lat="52.944864" lon="06.011559"><ele>8.1</ele><time>2021-03-19T12:31:41Z</time><name>PT8756</name></trkpt>
<trkpt lat="52.944872" lon="06.011575"><ele>8.1</ele><time>2021-03-19T12:31:41Z</time><name>PT8757</name></trkpt>
<trkpt lat="52.944879" lon="06.011591"><ele>7.9</ele><time>2021-03-19T12:31:43Z</time><name>PT8758</name></trkpt>
<trkpt lat="52.944887" lon="06.011609"><ele>7.7</ele><time>2021-03-19T12:31:44Z</time><name>PT8759</name></trkpt>
<trkpt lat="52.944892" lon="06.011628"><ele>7.6</ele><time>2021-03-19T12:31:44Z</time><name>PT8760</name></trkpt>
<trkpt lat="52.944898" lon="06.011646"><ele>7.4</ele><time>2021-03-19T12:31:46Z</time><name>PT8761</name></trkpt>
<trkpt lat="52.944905" lon="06.011662"><ele>7.3</ele><time>2021-03-19T12:31:46Z</time><name>PT8762</name></trkpt>
<trkpt lat="52.944911" lon="06.011677"><ele>7.3</ele><time>2021-03-19T12:31:48Z</time><name>PT8763</name></trkpt>
<trkpt lat="52.944918" lon="06.011696"><ele>7.6</ele><time>2021-03-19T12:31:49Z</time><name>PT8764</name></trkpt>
<trkpt lat="52.944924" lon="06.011712"><ele>7.7</ele><time>2021-03-19T12:31:49Z</time><name>PT8765</name></trkpt>
<trkpt lat="52.944931" lon="06.011728"><ele>7.8</ele><time>2021-03-19T12:31:51Z</time><name>PT8766</name></trkpt>
<trkpt lat="52.944937" lon="06.011745"><ele>7.8</ele><time>2021-03-19T12:31:52Z</time><name>PT8767</name></trkpt>
<trkpt lat="52.944943" lon="06.011763"><ele>7.8</ele><time>2021-03-19T12:31:52Z</time><name>PT8768</name></trkpt>
<trkpt lat="52.944951" lon="06.011780"><ele>7.7</ele><time>2021-03-19T12:31:54Z</time><name>PT8769</name></trkpt>
<trkpt lat="52.944959" lon="06.011793"><ele>7.7</ele><time>2021-03-19T12:31:55Z</time><name>PT8770</name></trkpt>
<trkpt lat="52.944967" lon="06.011810"><ele>7.7</ele><time>2021-03-19T12:31:55Z</time><name>PT8771</name></trkpt>
<trkpt lat="52.944971" lon="06.011823"><ele>7.7</ele><time>2021-03-19T12:31:57Z</time><name>PT8772</name></trkpt>
<trkpt lat="52.944978" lon="06.011841"><ele>7.9</ele><time>2021-03-19T12:31:58Z</time><name>PT8773</name></trkpt>
<trkpt lat="52.944984" lon="06.011859"><ele>7.8</ele><time>2021-03-19T12:31:58Z</time><name>PT8774</name></trkpt>
<trkpt lat="52.944990" lon="06.011879"><ele>7.8</ele><time>2021-03-19T12:32:00Z</time><name>PT8775</name></trkpt>
<trkpt lat="52.944996" lon="06.011898"><ele>7.8</ele><time>2021-03-19T12:32:01Z</time><name>PT8776</name></trkpt>
<trkpt lat="52.945004" lon="06.011915"><ele>7.8</ele><time>2021-03-19T12:32:01Z</time><name>PT8777</name></trkpt>
<trkpt lat="52.945011" lon="06.011936"><ele>7.8</ele><time>2021-03-19T12:32:03Z</time><name>PT8778</name></trkpt>
<trkpt lat="52.945018" lon="06.011953"><ele>7.9</ele><time>2021-03-19T12:32:04Z</time><name>PT8779</name></trkpt>
<trkpt lat="52.945024" lon="06.011968"><ele>8</ele><time>2021-03-19T12:32:04Z</time><name>PT8780</name></trkpt>
<trkpt lat="52.945031" lon="06.011985"><ele>8</ele><time>2021-03-19T12:32:06Z</time><name>PT8781</name></trkpt>
<trkpt lat="52.945036" lon="06.012002"><ele>8</ele><time>2021-03-19T12:32:07Z</time><name>PT8782</name></trkpt>
<trkpt lat="52.945042" lon="06.012020"><ele>8.1</ele><time>2021-03-19T12:32:07Z</time><name>PT8783</name></trkpt>
<trkpt lat="52.945049" lon="06.012037"><ele>8.2</ele><time>2021-03-19T12:32:09Z</time><name>PT8784</name></trkpt>
<trkpt lat="52.945057" lon="06.012053"><ele>8.3</ele><time>2021-03-19T12:32:10Z</time><name>PT8785</name></trkpt>
<trkpt lat="52.945062" lon="06.012069"><ele>8.4</ele><time>2021-03-19T12:32:10Z</time><name>PT8786</name></trkpt>
<trkpt lat="52.945066" lon="06.012083"><ele>8.5</ele><time>2021-03-19T12:32:12Z</time><name>PT8787</name></trkpt>
<trkpt lat="52.945069" lon="06.012098"><ele>8.4</ele><time>2021-03-19T12:32:13Z</time><name>PT8788</name></trkpt>
<trkpt lat="52.945074" lon="06.012115"><ele>8.5</ele><time>2021-03-19T12:32:13Z</time><name>PT8789</name></trkpt>
<trkpt lat="52.945079" lon="06.012131"><ele>8.3</ele><time>2021-03-19T12:32:15Z</time><name>PT8790</name></trkpt>
<trkpt lat="52.945083" lon="06.012147"><ele>8.1</ele><time>2021-03-19T12:32:15Z</time><name>PT8791</name></trkpt>
<trkpt lat="52.945089" lon="06.012164"><ele>8.2</ele><time>2021-03-19T12:32:17Z</time><name>PT8792</name></trkpt>
<trkpt lat="52.945098" lon="06.012178"><ele>8.1</ele><time>2021-03-19T12:32:18Z</time><name>PT8793</name></trkpt>
<trkpt lat="52.945107" lon="06.012192"><ele>8.1</ele><time>2021-03-19T12:32:18Z</time><name>PT8794</name></trkpt>
<trkpt lat="52.945115" lon="06.012207"><ele>8.1</ele><time>2021-03-19T12:32:20Z</time><name>PT8795</name></trkpt>
<trkpt lat="52.945123" lon="06.012223"><ele>8.3</ele><time>2021-03-19T12:32:21Z</time><name>PT8796</name></trkpt>
<trkpt lat="52.945129" lon="06.012235"><ele>8.1</ele><time>2021-03-19T12:32:21Z</time><name>PT8797</name></trkpt>
<trkpt lat="52.945132" lon="06.012251"><ele>8.1</ele><time>2021-03-19T12:32:23Z</time><name>PT8798</name></trkpt>
<trkpt lat="52.945137" lon="06.012267"><ele>8.1</ele><time>2021-03-19T12:32:24Z</time><name>PT8799</name></trkpt>
<trkpt lat="52.945142" lon="06.012281"><ele>8</ele><time>2021-03-19T12:32:24Z</time><name>PT8800</name></trkpt>
<trkpt lat="52.945148" lon="06.012292"><ele>7.9</ele><time>2021-03-19T12:32:26Z</time><name>PT8801</name></trkpt>
<trkpt lat="52.945156" lon="06.012303"><ele>8</ele><time>2021-03-19T12:32:27Z</time><name>PT8802</name></trkpt>
<trkpt lat="52.945162" lon="06.012316"><ele>8</ele><time>2021-03-19T12:32:27Z</time><name>PT8803</name></trkpt>
<trkpt lat="52.945167" lon="06.012330"><ele>8.2</ele><time>2021-03-19T12:32:29Z</time><name>PT8804</name></trkpt>
<trkpt lat="52.945172" lon="06.012346"><ele>8.3</ele><time>2021-03-19T12:32:30Z</time><name>PT8805</name></trkpt>
<trkpt lat="52.945179" lon="06.012364"><ele>8.2</ele><time>2021-03-19T12:32:30Z</time><name>PT8806</name></trkpt>
<trkpt lat="52.945184" lon="06.012381"><ele>8.1</ele><time>2021-03-19T12:32:32Z</time><name>PT8807</name></trkpt>
<trkpt lat="52.945190" lon="06.012395"><ele>8.1</ele><time>2021-03-19T12:32:33Z</time><name>PT8808</name></trkpt>
<trkpt lat="52.945197" lon="06.012409"><ele>8.2</ele><time>2021-03-19T12:32:33Z</time><name>PT8809</name></trkpt>
<trkpt lat="52.945201" lon="06.012425"><ele>8.3</ele><time>2021-03-19T12:32:35Z</time><name>PT8810</name></trkpt>
<trkpt lat="52.945207" lon="06.012441"><ele>8.5</ele><time>2021-03-19T12:32:36Z</time><name>PT8811</name></trkpt>
<trkpt lat="52.945213" lon="06.012458"><ele>8.5</ele><time>2021-03-19T12:32:36Z</time><name>PT8812</name></trkpt>
<trkpt lat="52.945219" lon="06.012473"><ele>8.4</ele><time>2021-03-19T12:32:38Z</time><name>PT8813</name></trkpt>
<trkpt lat="52.945225" lon="06.012488"><ele>8.4</ele><time>2021-03-19T12:32:39Z</time><name>PT8814</name></trkpt>
<trkpt lat="52.945230" lon="06.012502"><ele>8.2</ele><time>2021-03-19T12:32:39Z</time><name>PT8815</name></trkpt>
<trkpt lat="52.945236" lon="06.012522"><ele>8.1</ele><time>2021-03-19T12:32:41Z</time><name>PT8816</name></trkpt>
<trkpt lat="52.945241" lon="06.012538"><ele>8.1</ele><time>2021-03-19T12:32:41Z</time><name>PT8817</name></trkpt>
<trkpt lat="52.945247" lon="06.012551"><ele>7.9</ele><time>2021-03-19T12:32:43Z</time><name>PT8818</name></trkpt>
<trkpt lat="52.945254" lon="06.012567"><ele>8.1</ele><time>2021-03-19T12:32:44Z</time><name>PT8819</name></trkpt>
<trkpt lat="52.945261" lon="06.012579"><ele>8</ele><time>2021-03-19T12:32:44Z</time><name>PT8820</name></trkpt>
<trkpt lat="52.945271" lon="06.012592"><ele>7.8</ele><time>2021-03-19T12:32:46Z</time><name>PT8821</name></trkpt>
<trkpt lat="52.945278" lon="06.012606"><ele>7.8</ele><time>2021-03-19T12:32:47Z</time><name>PT8822</name></trkpt>
<trkpt lat="52.945284" lon="06.012621"><ele>7.7</ele><time>2021-03-19T12:32:47Z</time><name>PT8823</name></trkpt>
<trkpt lat="52.945294" lon="06.012634"><ele>7.7</ele><time>2021-03-19T12:32:49Z</time><name>PT8824</name></trkpt>
<trkpt lat="52.945300" lon="06.012648"><ele>7.7</ele><time>2021-03-19T12:32:50Z</time><name>PT8825</name></trkpt>
<trkpt lat="52.945311" lon="06.012657"><ele>7.7</ele><time>2021-03-19T12:32:50Z</time><name>PT8826</name></trkpt>
<trkpt lat="52.945322" lon="06.012662"><ele>7.7</ele><time>2021-03-19T12:32:52Z</time><name>PT8827</name></trkpt>
<trkpt lat="52.945329" lon="06.012667"><ele>7.9</ele><time>2021-03-19T12:32:53Z</time><name>PT8828</name></trkpt>
<trkpt lat="52.945334" lon="06.012678"><ele>7.9</ele><time>2021-03-19T12:32:53Z</time><name>PT8829</name></trkpt>
<trkpt lat="52.945342" lon="06.012687"><ele>7.9</ele><time>2021-03-19T12:32:55Z</time><name>PT8830</name></trkpt>
<trkpt lat="52.945348" lon="06.012690"><ele>8</ele><time>2021-03-19T12:32:56Z</time><name>PT8831</name></trkpt>
<trkpt lat="52.945353" lon="06.012692"><ele>7.9</ele><time>2021-03-19T12:32:56Z</time><name>PT8832</name></trkpt>
<trkpt lat="52.945357" lon="06.012693"><ele>8.1</ele><time>2021-03-19T12:32:58Z</time><name>PT8833</name></trkpt>
<trkpt lat="52.945363" lon="06.012706"><ele>8.1</ele><time>2021-03-19T12:32:59Z</time><name>PT8834</name></trkpt>
<trkpt lat="52.945369" lon="06.012716"><ele>8.1</ele><time>2021-03-19T12:32:59Z</time><name>PT8835</name></trkpt>
<trkpt lat="52.945375" lon="06.012724"><ele>8.1</ele><time>2021-03-19T12:33:01Z</time><name>PT8836</name></trkpt>
<trkpt lat="52.945381" lon="06.012735"><ele>7.9</ele><time>2021-03-19T12:33:02Z</time><name>PT8837</name></trkpt>
<trkpt lat="52.945389" lon="06.012746"><ele>7.9</ele><time>2021-03-19T12:33:02Z</time><name>PT8838</name></trkpt>
<trkpt lat="52.945396" lon="06.012758"><ele>7.7</ele><time>2021-03-19T12:33:04Z</time><name>PT8839</name></trkpt>
<trkpt lat="52.945398" lon="06.012766"><ele>7.6</ele><time>2021-03-19T12:33:05Z</time><name>PT8840</name></trkpt>
<trkpt lat="52.945413" lon="06.012781"><ele>7.6</ele><time>2021-03-19T12:33:05Z</time><name>PT8841</name></trkpt>
<trkpt lat="52.945424" lon="06.012797"><ele>7.6</ele><time>2021-03-19T12:33:07Z</time><name>PT8842</name></trkpt>
<trkpt lat="52.945430" lon="06.012810"><ele>7.7</ele><time>2021-03-19T12:33:08Z</time><name>PT8843</name></trkpt>
<trkpt lat="52.945435" lon="06.012824"><ele>7.7</ele><time>2021-03-19T12:33:08Z</time><name>PT8844</name></trkpt>
<trkpt lat="52.945448" lon="06.012837"><ele>7.7</ele><time>2021-03-19T12:33:10Z</time><name>PT8845</name></trkpt>
<trkpt lat="52.945459" lon="06.012849"><ele>7.7</ele><time>2021-03-19T12:33:11Z</time><name>PT8846</name></trkpt>
<trkpt lat="52.945470" lon="06.012859"><ele>7.7</ele><time>2021-03-19T12:33:11Z</time><name>PT8847</name></trkpt>
<trkpt lat="52.945479" lon="06.012866"><ele>7.7</ele><time>2021-03-19T12:33:13Z</time><name>PT8848</name></trkpt>
<trkpt lat="52.945490" lon="06.012877"><ele>7.6</ele><time>2021-03-19T12:33:14Z</time><name>PT8849</name></trkpt>
<trkpt lat="52.945499" lon="06.012888"><ele>7.6</ele><time>2021-03-19T12:33:14Z</time><name>PT8850</name></trkpt>
<trkpt lat="52.945508" lon="06.012900"><ele>7.5</ele><time>2021-03-19T12:33:16Z</time><name>PT8851</name></trkpt>
<trkpt lat="52.945514" lon="06.012910"><ele>7.5</ele><time>2021-03-19T12:33:17Z</time><name>PT8852</name></trkpt>
<trkpt lat="52.945520" lon="06.012921"><ele>7.4</ele><time>2021-03-19T12:33:17Z</time><name>PT8853</name></trkpt>
<trkpt lat="52.945526" lon="06.012931"><ele>7.4</ele><time>2021-03-19T12:33:19Z</time><name>PT8854</name></trkpt>
<trkpt lat="52.945539" lon="06.012937"><ele>7.3</ele><time>2021-03-19T12:33:20Z</time><name>PT8855</name></trkpt>
<trkpt lat="52.945548" lon="06.012938"><ele>7.4</ele><time>2021-03-19T12:33:20Z</time><name>PT8856</name></trkpt>
<trkpt lat="52.945561" lon="06.012940"><ele>7.4</ele><time>2021-03-19T12:33:22Z</time><name>PT8857</name></trkpt>
<trkpt lat="52.945568" lon="06.012947"><ele>7.2</ele><time>2021-03-19T12:33:23Z</time><name>PT8858</name></trkpt>
<trkpt lat="52.945577" lon="06.012959"><ele>7.3</ele><time>2021-03-19T12:33:23Z</time><name>PT8859</name></trkpt>
<trkpt lat="52.945586" lon="06.012966"><ele>7.2</ele><time>2021-03-19T12:33:25Z</time><name>PT8860</name></trkpt>
<trkpt lat="52.945597" lon="06.012969"><ele>7.5</ele><time>2021-03-19T12:33:26Z</time><name>PT8861</name></trkpt>
<trkpt lat="52.945607" lon="06.012976"><ele>7.5</ele><time>2021-03-19T12:33:26Z</time><name>PT8862</name></trkpt>
<trkpt lat="52.945617" lon="06.012983"><ele>7.7</ele><time>2021-03-19T12:33:28Z</time><name>PT8863</name></trkpt>
<trkpt lat="52.945626" lon="06.012990"><ele>7.7</ele><time>2021-03-19T12:33:29Z</time><name>PT8864</name></trkpt>
<trkpt lat="52.945634" lon="06.012993"><ele>7.6</ele><time>2021-03-19T12:33:29Z</time><name>PT8865</name></trkpt>
<trkpt lat="52.945645" lon="06.013002"><ele>7.7</ele><time>2021-03-19T12:33:31Z</time><name>PT8866</name></trkpt>
<trkpt lat="52.945653" lon="06.013012"><ele>7.7</ele><time>2021-03-19T12:33:32Z</time><name>PT8867</name></trkpt>
<trkpt lat="52.945665" lon="06.013023"><ele>7.7</ele><time>2021-03-19T12:33:32Z</time><name>PT8868</name></trkpt>
<trkpt lat="52.945676" lon="06.013033"><ele>7.6</ele><time>2021-03-19T12:33:34Z</time><name>PT8869</name></trkpt>
<trkpt lat="52.945689" lon="06.013040"><ele>7.5</ele><time>2021-03-19T12:33:35Z</time><name>PT8870</name></trkpt>
<trkpt lat="52.945702" lon="06.013046"><ele>7.4</ele><time>2021-03-19T12:33:35Z</time><name>PT8871</name></trkpt>
<trkpt lat="52.945717" lon="06.013054"><ele>7.6</ele><time>2021-03-19T12:33:37Z</time><name>PT8872</name></trkpt>
<trkpt lat="52.945732" lon="06.013062"><ele>7.5</ele><time>2021-03-19T12:33:38Z</time><name>PT8873</name></trkpt>
<trkpt lat="52.945743" lon="06.013073"><ele>7.5</ele><time>2021-03-19T12:33:38Z</time><name>PT8874</name></trkpt>
<trkpt lat="52.945759" lon="06.013082"><ele>7.5</ele><time>2021-03-19T12:33:40Z</time><name>PT8875</name></trkpt>
<trkpt lat="52.945772" lon="06.013089"><ele>7.5</ele><time>2021-03-19T12:33:41Z</time><name>PT8876</name></trkpt>
<trkpt lat="52.945786" lon="06.013090"><ele>7.7</ele><time>2021-03-19T12:33:41Z</time><name>PT8877</name></trkpt>
<trkpt lat="52.945796" lon="06.013091"><ele>7.8</ele><time>2021-03-19T12:33:43Z</time><name>PT8878</name></trkpt>
<trkpt lat="52.945806" lon="06.013095"><ele>8</ele><time>2021-03-19T12:33:44Z</time><name>PT8879</name></trkpt>
<trkpt lat="52.945815" lon="06.013101"><ele>7.9</ele><time>2021-03-19T12:33:44Z</time><name>PT8880</name></trkpt>
<trkpt lat="52.945825" lon="06.013109"><ele>7.8</ele><time>2021-03-19T12:33:46Z</time><name>PT8881</name></trkpt>
<trkpt lat="52.945834" lon="06.013119"><ele>7.7</ele><time>2021-03-19T12:33:47Z</time><name>PT8882</name></trkpt>
<trkpt lat="52.945846" lon="06.013128"><ele>7.6</ele><time>2021-03-19T12:33:47Z</time><name>PT8883</name></trkpt>
<trkpt lat="52.945858" lon="06.013134"><ele>7.6</ele><time>2021-03-19T12:33:49Z</time><name>PT8884</name></trkpt>
<trkpt lat="52.945867" lon="06.013137"><ele>7.4</ele><time>2021-03-19T12:33:50Z</time><name>PT8885</name></trkpt>
<trkpt lat="52.945878" lon="06.013144"><ele>7.6</ele><time>2021-03-19T12:33:50Z</time><name>PT8886</name></trkpt>
<trkpt lat="52.945889" lon="06.013151"><ele>7.5</ele><time>2021-03-19T12:33:52Z</time><name>PT8887</name></trkpt>
<trkpt lat="52.945899" lon="06.013156"><ele>7.4</ele><time>2021-03-19T12:33:53Z</time><name>PT8888</name></trkpt>
<trkpt lat="52.945910" lon="06.013162"><ele>7.4</ele><time>2021-03-19T12:33:53Z</time><name>PT8889</name></trkpt>
<trkpt lat="52.945922" lon="06.013166"><ele>7.5</ele><time>2021-03-19T12:33:55Z</time><name>PT8890</name></trkpt>
<trkpt lat="52.945935" lon="06.013171"><ele>7.6</ele><time>2021-03-19T12:33:56Z</time><name>PT8891</name></trkpt>
<trkpt lat="52.945950" lon="06.013179"><ele>7.6</ele><time>2021-03-19T12:33:56Z</time><name>PT8892</name></trkpt>
<trkpt lat="52.945961" lon="06.013183"><ele>7.5</ele><time>2021-03-19T12:33:58Z</time><name>PT8893</name></trkpt>
<trkpt lat="52.945972" lon="06.013190"><ele>7.4</ele><time>2021-03-19T12:33:59Z</time><name>PT8894</name></trkpt>
<trkpt lat="52.945981" lon="06.013197"><ele>7.3</ele><time>2021-03-19T12:33:59Z</time><name>PT8895</name></trkpt>
<trkpt lat="52.945991" lon="06.013202"><ele>7.2</ele><time>2021-03-19T12:34:01Z</time><name>PT8896</name></trkpt>
<trkpt lat="52.946002" lon="06.013207"><ele>7.4</ele><time>2021-03-19T12:34:02Z</time><name>PT8897</name></trkpt>
<trkpt lat="52.946012" lon="06.013211"><ele>7.5</ele><time>2021-03-19T12:34:02Z</time><name>PT8898</name></trkpt>
<trkpt lat="52.946021" lon="06.013215"><ele>7.6</ele><time>2021-03-19T12:34:04Z</time><name>PT8899</name></trkpt>
<trkpt lat="52.946030" lon="06.013220"><ele>7.7</ele><time>2021-03-19T12:34:04Z</time><name>PT8900</name></trkpt>
<trkpt lat="52.946038" lon="06.013226"><ele>7.7</ele><time>2021-03-19T12:34:06Z</time><name>PT8901</name></trkpt>
<trkpt lat="52.946049" lon="06.013229"><ele>7.8</ele><time>2021-03-19T12:34:06Z</time><name>PT8902</name></trkpt>
<trkpt lat="52.946060" lon="06.013233"><ele>7.7</ele><time>2021-03-19T12:34:08Z</time><name>PT8903</name></trkpt>
<trkpt lat="52.946071" lon="06.013238"><ele>7.9</ele><time>2021-03-19T12:34:09Z</time><name>PT8904</name></trkpt>
<trkpt lat="52.946080" lon="06.013244"><ele>7.8</ele><time>2021-03-19T12:34:09Z</time><name>PT8905</name></trkpt>
<trkpt lat="52.946089" lon="06.013250"><ele>7.8</ele><time>2021-03-19T12:34:11Z</time><name>PT8906</name></trkpt>
<trkpt lat="52.946099" lon="06.013256"><ele>8</ele><time>2021-03-19T12:34:12Z</time><name>PT8907</name></trkpt>
<trkpt lat="52.946108" lon="06.013263"><ele>8</ele><time>2021-03-19T12:34:12Z</time><name>PT8908</name></trkpt>
<trkpt lat="52.946118" lon="06.013267"><ele>8.1</ele><time>2021-03-19T12:34:14Z</time><name>PT8909</name></trkpt>
<trkpt lat="52.946128" lon="06.013271"><ele>8.3</ele><time>2021-03-19T12:34:15Z</time><name>PT8910</name></trkpt>
<trkpt lat="52.946137" lon="06.013279"><ele>8.3</ele><time>2021-03-19T12:34:15Z</time><name>PT8911</name></trkpt>
<trkpt lat="52.946143" lon="06.013290"><ele>8.4</ele><time>2021-03-19T12:34:17Z</time><name>PT8912</name></trkpt>
<trkpt lat="52.946151" lon="06.013299"><ele>8.3</ele><time>2021-03-19T12:34:18Z</time><name>PT8913</name></trkpt>
<trkpt lat="52.946160" lon="06.013310"><ele>8.2</ele><time>2021-03-19T12:34:18Z</time><name>PT8914</name></trkpt>
<trkpt lat="52.946169" lon="06.013316"><ele>8.3</ele><time>2021-03-19T12:34:20Z</time><name>PT8915</name></trkpt>
<trkpt lat="52.946179" lon="06.013318"><ele>8.3</ele><time>2021-03-19T12:34:20Z</time><name>PT8916</name></trkpt>
<trkpt lat="52.946191" lon="06.013317"><ele>8.1</ele><time>2021-03-19T12:34:22Z</time><name>PT8917</name></trkpt>
<trkpt lat="52.946203" lon="06.013312"><ele>8.1</ele><time>2021-03-19T12:34:23Z</time><name>PT8918</name></trkpt>
<trkpt lat="52.946212" lon="06.013305"><ele>7.9</ele><time>2021-03-19T12:34:23Z</time><name>PT8919</name></trkpt>
<trkpt lat="52.946222" lon="06.013297"><ele>7.7</ele><time>2021-03-19T12:34:25Z</time><name>PT8920</name></trkpt>
<trkpt lat="52.946230" lon="06.013287"><ele>7.5</ele><time>2021-03-19T12:34:25Z</time><name>PT8921</name></trkpt>
<trkpt lat="52.946241" lon="06.013276"><ele>7.5</ele><time>2021-03-19T12:34:27Z</time><name>PT8922</name></trkpt>
<trkpt lat="52.946251" lon="06.013266"><ele>7.4</ele><time>2021-03-19T12:34:27Z</time><name>PT8923</name></trkpt>
<trkpt lat="52.946260" lon="06.013257"><ele>7.5</ele><time>2021-03-19T12:34:29Z</time><name>PT8924</name></trkpt>
<trkpt lat="52.946267" lon="06.013250"><ele>7.7</ele><time>2021-03-19T12:34:29Z</time><name>PT8925</name></trkpt>
<trkpt lat="52.946275" lon="06.013244"><ele>7.7</ele><time>2021-03-19T12:34:31Z</time><name>PT8926</name></trkpt>
<trkpt lat="52.946283" lon="06.013235"><ele>7.8</ele><time>2021-03-19T12:34:31Z</time><name>PT8927</name></trkpt>
<trkpt lat="52.946295" lon="06.013229"><ele>7.7</ele><time>2021-03-19T12:34:33Z</time><name>PT8928</name></trkpt>
<trkpt lat="52.946304" lon="06.013223"><ele>7.6</ele><time>2021-03-19T12:34:33Z</time><name>PT8929</name></trkpt>
<trkpt lat="52.946316" lon="06.013216"><ele>7.4</ele><time>2021-03-19T12:34:35Z</time><name>PT8930</name></trkpt>
<trkpt lat="52.946329" lon="06.013209"><ele>7.2</ele><time>2021-03-19T12:34:36Z</time><name>PT8931</name></trkpt>
<trkpt lat="52.946340" lon="06.013204"><ele>7.3</ele><time>2021-03-19T12:34:36Z</time><name>PT8932</name></trkpt>
<trkpt lat="52.946351" lon="06.013198"><ele>7.3</ele><time>2021-03-19T12:34:38Z</time><name>PT8933</name></trkpt>
<trkpt lat="52.946361" lon="06.013186"><ele>7.6</ele><time>2021-03-19T12:34:39Z</time><name>PT8934</name></trkpt>
<trkpt lat="52.946368" lon="06.013172"><ele>7.7</ele><time>2021-03-19T12:34:39Z</time><name>PT8935</name></trkpt>
<trkpt lat="52.946374" lon="06.013162"><ele>7.7</ele><time>2021-03-19T12:34:41Z</time><name>PT8936</name></trkpt>
<trkpt lat="52.946380" lon="06.013155"><ele>7.9</ele><time>2021-03-19T12:34:42Z</time><name>PT8937</name></trkpt>
<trkpt lat="52.946384" lon="06.013145"><ele>8</ele><time>2021-03-19T12:34:42Z</time><name>PT8938</name></trkpt>
<trkpt lat="52.946394" lon="06.013133"><ele>7.7</ele><time>2021-03-19T12:34:44Z</time><name>PT8939</name></trkpt>
<trkpt lat="52.946404" lon="06.013123"><ele>7.7</ele><time>2021-03-19T12:34:45Z</time><name>PT8940</name></trkpt>
<trkpt lat="52.946415" lon="06.013114"><ele>7.6</ele><time>2021-03-19T12:34:45Z</time><name>PT8941</name></trkpt>
<trkpt lat="52.946423" lon="06.013104"><ele>7.6</ele><time>2021-03-19T12:34:47Z</time><name>PT8942</name></trkpt>
<trkpt lat="52.946430" lon="06.013095"><ele>7.6</ele><time>2021-03-19T12:34:48Z</time><name>PT8943</name></trkpt>
<trkpt lat="52.946439" lon="06.013087"><ele>7.6</ele><time>2021-03-19T12:34:48Z</time><name>PT8944</name></trkpt>
<trkpt lat="52.946453" lon="06.013078"><ele>7.7</ele><time>2021-03-19T12:34:50Z</time><name>PT8945</name></trkpt>
<trkpt lat="52.946464" lon="06.013069"><ele>7.7</ele><time>2021-03-19T12:34:51Z</time><name>PT8946</name></trkpt>
<trkpt lat="52.946470" lon="06.013060"><ele>7.6</ele><time>2021-03-19T12:34:51Z</time><name>PT8947</name></trkpt>
<trkpt lat="52.946477" lon="06.013053"><ele>7.7</ele><time>2021-03-19T12:34:53Z</time><name>PT8948</name></trkpt>
<trkpt lat="52.946484" lon="06.013045"><ele>7.6</ele><time>2021-03-19T12:34:54Z</time><name>PT8949</name></trkpt>
<trkpt lat="52.946490" lon="06.013035"><ele>7.5</ele><time>2021-03-19T12:34:54Z</time><name>PT8950</name></trkpt>
<trkpt lat="52.946500" lon="06.013027"><ele>7.6</ele><time>2021-03-19T12:34:56Z</time><name>PT8951</name></trkpt>
<trkpt lat="52.946511" lon="06.013017"><ele>7.5</ele><time>2021-03-19T12:34:57Z</time><name>PT8952</name></trkpt>
<trkpt lat="52.946518" lon="06.013007"><ele>7.6</ele><time>2021-03-19T12:34:57Z</time><name>PT8953</name></trkpt>
<trkpt lat="52.946526" lon="06.012995"><ele>7.6</ele><time>2021-03-19T12:34:59Z</time><name>PT8954</name></trkpt>
<trkpt lat="52.946535" lon="06.012983"><ele>7.5</ele><time>2021-03-19T12:35:00Z</time><name>PT8955</name></trkpt>
<trkpt lat="52.946547" lon="06.012967"><ele>7.6</ele><time>2021-03-19T12:35:00Z</time><name>PT8956</name></trkpt>
<trkpt lat="52.946561" lon="06.012958"><ele>7.4</ele><time>2021-03-19T12:35:02Z</time><name>PT8957</name></trkpt>
<trkpt lat="52.946570" lon="06.012947"><ele>7.3</ele><time>2021-03-19T12:35:03Z</time><name>PT8958</name></trkpt>
<trkpt lat="52.946581" lon="06.012933"><ele>7.3</ele><time>2021-03-19T12:35:03Z</time><name>PT8959</name></trkpt>
<trkpt lat="52.946591" lon="06.012921"><ele>7.3</ele><time>2021-03-19T12:35:05Z</time><name>PT8960</name></trkpt>
<trkpt lat="52.946603" lon="06.012910"><ele>7.3</ele><time>2021-03-19T12:35:06Z</time><name>PT8961</name></trkpt>
<trkpt lat="52.946612" lon="06.012901"><ele>7.3</ele><time>2021-03-19T12:35:06Z</time><name>PT8962</name></trkpt>
<trkpt lat="52.946622" lon="06.012892"><ele>7.4</ele><time>2021-03-19T12:35:08Z</time><name>PT8963</name></trkpt>
<trkpt lat="52.946633" lon="06.012883"><ele>7.3</ele><time>2021-03-19T12:35:09Z</time><name>PT8964</name></trkpt>
<trkpt lat="52.946642" lon="06.012874"><ele>7.4</ele><time>2021-03-19T12:35:09Z</time><name>PT8965</name></trkpt>
<trkpt lat="52.946651" lon="06.012864"><ele>7.4</ele><time>2021-03-19T12:35:11Z</time><name>PT8966</name></trkpt>
<trkpt lat="52.946659" lon="06.012852"><ele>7.4</ele><time>2021-03-19T12:35:12Z</time><name>PT8967</name></trkpt>
<trkpt lat="52.946667" lon="06.012843"><ele>7.6</ele><time>2021-03-19T12:35:12Z</time><name>PT8968</name></trkpt>
<trkpt lat="52.946672" lon="06.012832"><ele>7.5</ele><time>2021-03-19T12:35:14Z</time><name>PT8969</name></trkpt>
<trkpt lat="52.946678" lon="06.012824"><ele>7.6</ele><time>2021-03-19T12:35:15Z</time><name>PT8970</name></trkpt>
<trkpt lat="52.946683" lon="06.012813"><ele>7.4</ele><time>2021-03-19T12:35:15Z</time><name>PT8971</name></trkpt>
<trkpt lat="52.946691" lon="06.012799"><ele>7.6</ele><time>2021-03-19T12:35:17Z</time><name>PT8972</name></trkpt>
<trkpt lat="52.946701" lon="06.012789"><ele>7.6</ele><time>2021-03-19T12:35:18Z</time><name>PT8973</name></trkpt>
<trkpt lat="52.946713" lon="06.012782"><ele>7.6</ele><time>2021-03-19T12:35:18Z</time><name>PT8974</name></trkpt>
<trkpt lat="52.946720" lon="06.012773"><ele>7.6</ele><time>2021-03-19T12:35:20Z</time><name>PT8975</name></trkpt>
<trkpt lat="52.946726" lon="06.012760"><ele>7.4</ele><time>2021-03-19T12:35:21Z</time><name>PT8976</name></trkpt>
<trkpt lat="52.946736" lon="06.012750"><ele>7.4</ele><time>2021-03-19T12:35:21Z</time><name>PT8977</name></trkpt>
<trkpt lat="52.946743" lon="06.012746"><ele>7.3</ele><time>2021-03-19T12:35:23Z</time><name>PT8978</name></trkpt>
<trkpt lat="52.946751" lon="06.012737"><ele>7.3</ele><time>2021-03-19T12:35:24Z</time><name>PT8979</name></trkpt>
<trkpt lat="52.946759" lon="06.012728"><ele>7.2</ele><time>2021-03-19T12:35:24Z</time><name>PT8980</name></trkpt>
<trkpt lat="52.946773" lon="06.012719"><ele>7.2</ele><time>2021-03-19T12:35:26Z</time><name>PT8981</name></trkpt>
<trkpt lat="52.946783" lon="06.012708"><ele>7.3</ele><time>2021-03-19T12:35:26Z</time><name>PT8982</name></trkpt>
<trkpt lat="52.946794" lon="06.012697"><ele>7.5</ele><time>2021-03-19T12:35:28Z</time><name>PT8983</name></trkpt>
<trkpt lat="52.946805" lon="06.012687"><ele>7.6</ele><time>2021-03-19T12:35:29Z</time><name>PT8984</name></trkpt>
<trkpt lat="52.946815" lon="06.012679"><ele>7.6</ele><time>2021-03-19T12:35:29Z</time><name>PT8985</name></trkpt>
<trkpt lat="52.946826" lon="06.012668"><ele>7.7</ele><time>2021-03-19T12:35:31Z</time><name>PT8986</name></trkpt>
<trkpt lat="52.946836" lon="06.012659"><ele>7.5</ele><time>2021-03-19T12:35:32Z</time><name>PT8987</name></trkpt>
<trkpt lat="52.946844" lon="06.012651"><ele>7.5</ele><time>2021-03-19T12:35:32Z</time><name>PT8988</name></trkpt>
<trkpt lat="52.946854" lon="06.012638"><ele>7.3</ele><time>2021-03-19T12:35:34Z</time><name>PT8989</name></trkpt>
<trkpt lat="52.946864" lon="06.012627"><ele>7.2</ele><time>2021-03-19T12:35:35Z</time><name>PT8990</name></trkpt>
<trkpt lat="52.946873" lon="06.012613"><ele>7.2</ele><time>2021-03-19T12:35:35Z</time><name>PT8991</name></trkpt>
<trkpt lat="52.946883" lon="06.012603"><ele>7.3</ele><time>2021-03-19T12:35:37Z</time><name>PT8992</name></trkpt>
<trkpt lat="52.946895" lon="06.012591"><ele>7.4</ele><time>2021-03-19T12:35:38Z</time><name>PT8993</name></trkpt>
<trkpt lat="52.946905" lon="06.012582"><ele>7.4</ele><time>2021-03-19T12:35:38Z</time><name>PT8994</name></trkpt>
<trkpt lat="52.946915" lon="06.012572"><ele>7.6</ele><time>2021-03-19T12:35:40Z</time><name>PT8995</name></trkpt>
<trkpt lat="52.946924" lon="06.012562"><ele>7.4</ele><time>2021-03-19T12:35:41Z</time><name>PT8996</name></trkpt>
<trkpt lat="52.946935" lon="06.012556"><ele>7.4</ele><time>2021-03-19T12:35:41Z</time><name>PT8997</name></trkpt>
<trkpt lat="52.946947" lon="06.012555"><ele>7.4</ele><time>2021-03-19T12:35:43Z</time><name>PT8998</name></trkpt>
<trkpt lat="52.946959" lon="06.012549"><ele>7.3</ele><time>2021-03-19T12:35:43Z</time><name>PT8999</name></trkpt>
<trkpt lat="52.946968" lon="06.012540"><ele>7.3</ele><time>2021-03-19T12:35:45Z</time><name>PT9000</name></trkpt>
<trkpt lat="52.946978" lon="06.012533"><ele>7.2</ele><time>2021-03-19T12:35:46Z</time><name>PT9001</name></trkpt>
<trkpt lat="52.946988" lon="06.012527"><ele>7.2</ele><time>2021-03-19T12:35:46Z</time><name>PT9002</name></trkpt>
<trkpt lat="52.946997" lon="06.012521"><ele>7.2</ele><time>2021-03-19T12:35:48Z</time><name>PT9003</name></trkpt>
<trkpt lat="52.947008" lon="06.012512"><ele>7.2</ele><time>2021-03-19T12:35:49Z</time><name>PT9004</name></trkpt>
<trkpt lat="52.947021" lon="06.012500"><ele>7.2</ele><time>2021-03-19T12:35:49Z</time><name>PT9005</name></trkpt>
<trkpt lat="52.947031" lon="06.012489"><ele>7.3</ele><time>2021-03-19T12:35:51Z</time><name>PT9006</name></trkpt>
<trkpt lat="52.947039" lon="06.012474"><ele>7.2</ele><time>2021-03-19T12:35:52Z</time><name>PT9007</name></trkpt>
<trkpt lat="52.947050" lon="06.012461"><ele>7.2</ele><time>2021-03-19T12:35:52Z</time><name>PT9008</name></trkpt>
<trkpt lat="52.947059" lon="06.012448"><ele>7.2</ele><time>2021-03-19T12:35:54Z</time><name>PT9009</name></trkpt>
<trkpt lat="52.947065" lon="06.012444"><ele>7.1</ele><time>2021-03-19T12:35:55Z</time><name>PT9010</name></trkpt>
<trkpt lat="52.947075" lon="06.012438"><ele>7.1</ele><time>2021-03-19T12:35:55Z</time><name>PT9011</name></trkpt>
<trkpt lat="52.947085" lon="06.012434"><ele>7.2</ele><time>2021-03-19T12:35:57Z</time><name>PT9012</name></trkpt>
<trkpt lat="52.947094" lon="06.012429"><ele>7.3</ele><time>2021-03-19T12:35:57Z</time><name>PT9013</name></trkpt>
<trkpt lat="52.947100" lon="06.012423"><ele>7.2</ele><time>2021-03-19T12:35:59Z</time><name>PT9014</name></trkpt>
<trkpt lat="52.947112" lon="06.012416"><ele>7.3</ele><time>2021-03-19T12:36:00Z</time><name>PT9015</name></trkpt>
<trkpt lat="52.947123" lon="06.012404"><ele>7.4</ele><time>2021-03-19T12:36:00Z</time><name>PT9016</name></trkpt>
<trkpt lat="52.947137" lon="06.012392"><ele>7.4</ele><time>2021-03-19T12:36:02Z</time><name>PT9017</name></trkpt>
<trkpt lat="52.947145" lon="06.012385"><ele>7.4</ele><time>2021-03-19T12:36:02Z</time><name>PT9018</name></trkpt>
<trkpt lat="52.947155" lon="06.012375"><ele>7.2</ele><time>2021-03-19T12:36:04Z</time><name>PT9019</name></trkpt>
<trkpt lat="52.947163" lon="06.012363"><ele>7.2</ele><time>2021-03-19T12:36:05Z</time><name>PT9020</name></trkpt>
<trkpt lat="52.947171" lon="06.012354"><ele>7</ele><time>2021-03-19T12:36:05Z</time><name>PT9021</name></trkpt>
<trkpt lat="52.947178" lon="06.012343"><ele>7.1</ele><time>2021-03-19T12:36:07Z</time><name>PT9022</name></trkpt>
<trkpt lat="52.947189" lon="06.012334"><ele>7.3</ele><time>2021-03-19T12:36:08Z</time><name>PT9023</name></trkpt>
<trkpt lat="52.947203" lon="06.012320"><ele>7.4</ele><time>2021-03-19T12:36:08Z</time><name>PT9024</name></trkpt>
<trkpt lat="52.947215" lon="06.012306"><ele>7.3</ele><time>2021-03-19T12:36:10Z</time><name>PT9025</name></trkpt>
<trkpt lat="52.947222" lon="06.012293"><ele>7.1</ele><time>2021-03-19T12:36:11Z</time><name>PT9026</name></trkpt>
<trkpt lat="52.947229" lon="06.012284"><ele>6.9</ele><time>2021-03-19T12:36:11Z</time><name>PT9027</name></trkpt>
<trkpt lat="52.947236" lon="06.012276"><ele>6.7</ele><time>2021-03-19T12:36:13Z</time><name>PT9028</name></trkpt>
<trkpt lat="52.947244" lon="06.012263"><ele>6.7</ele><time>2021-03-19T12:36:14Z</time><name>PT9029</name></trkpt>
<trkpt lat="52.947251" lon="06.012255"><ele>6.7</ele><time>2021-03-19T12:36:14Z</time><name>PT9030</name></trkpt>
<trkpt lat="52.947259" lon="06.012247"><ele>6.7</ele><time>2021-03-19T12:36:16Z</time><name>PT9031</name></trkpt>
<trkpt lat="52.947269" lon="06.012239"><ele>6.8</ele><time>2021-03-19T12:36:17Z</time><name>PT9032</name></trkpt>
<trkpt lat="52.947279" lon="06.012232"><ele>7.1</ele><time>2021-03-19T12:36:17Z</time><name>PT9033</name></trkpt>
<trkpt lat="52.947291" lon="06.012221"><ele>7.4</ele><time>2021-03-19T12:36:19Z</time><name>PT9034</name></trkpt>
<trkpt lat="52.947307" lon="06.012213"><ele>7.3</ele><time>2021-03-19T12:36:20Z</time><name>PT9035</name></trkpt>
<trkpt lat="52.947313" lon="06.012197"><ele>7.7</ele><time>2021-03-19T12:36:20Z</time><name>PT9036</name></trkpt>
<trkpt lat="52.947325" lon="06.012187"><ele>7.9</ele><time>2021-03-19T12:36:22Z</time><name>PT9037</name></trkpt>
<trkpt lat="52.947336" lon="06.012175"><ele>7.5</ele><time>2021-03-19T12:36:23Z</time><name>PT9038</name></trkpt>
<trkpt lat="52.947344" lon="06.012168"><ele>7.3</ele><time>2021-03-19T12:36:23Z</time><name>PT9039</name></trkpt>
<trkpt lat="52.947353" lon="06.012162"><ele>7.7</ele><time>2021-03-19T12:36:25Z</time><name>PT9040</name></trkpt>
<trkpt lat="52.947362" lon="06.012153"><ele>7.3</ele><time>2021-03-19T12:36:26Z</time><name>PT9041</name></trkpt>
<trkpt lat="52.947371" lon="06.012141"><ele>7.3</ele><time>2021-03-19T12:36:26Z</time><name>PT9042</name></trkpt>
<trkpt lat="52.947382" lon="06.012130"><ele>7</ele><time>2021-03-19T12:36:28Z</time><name>PT9043</name></trkpt>
<trkpt lat="52.947391" lon="06.012119"><ele>7.7</ele><time>2021-03-19T12:36:29Z</time><name>PT9044</name></trkpt>
<trkpt lat="52.947401" lon="06.012111"><ele>8</ele><time>2021-03-19T12:36:29Z</time><name>PT9045</name></trkpt>
<trkpt lat="52.947412" lon="06.012101"><ele>8</ele><time>2021-03-19T12:36:31Z</time><name>PT9046</name></trkpt>
<trkpt lat="52.947423" lon="06.012091"><ele>7.7</ele><time>2021-03-19T12:36:32Z</time><name>PT9047</name></trkpt>
<trkpt lat="52.947433" lon="06.012083"><ele>8.3</ele><time>2021-03-19T12:36:32Z</time><name>PT9048</name></trkpt>
<trkpt lat="52.947442" lon="06.012075"><ele>8</ele><time>2021-03-19T12:36:34Z</time><name>PT9049</name></trkpt>
<trkpt lat="52.947451" lon="06.012065"><ele>7.9</ele><time>2021-03-19T12:36:34Z</time><name>PT9050</name></trkpt>
<trkpt lat="52.947459" lon="06.012056"><ele>7.9</ele><time>2021-03-19T12:36:36Z</time><name>PT9051</name></trkpt>
<trkpt lat="52.947469" lon="06.012043"><ele>8.2</ele><time>2021-03-19T12:36:36Z</time><name>PT9052</name></trkpt>
<trkpt lat="52.947478" lon="06.012031"><ele>7.8</ele><time>2021-03-19T12:36:38Z</time><name>PT9053</name></trkpt>
<trkpt lat="52.947488" lon="06.012019"><ele>7.7</ele><time>2021-03-19T12:36:38Z</time><name>PT9054</name></trkpt>
<trkpt lat="52.947495" lon="06.012001"><ele>7.5</ele><time>2021-03-19T12:36:40Z</time><name>PT9055</name></trkpt>
<trkpt lat="52.947502" lon="06.011988"><ele>7.4</ele><time>2021-03-19T12:36:41Z</time><name>PT9056</name></trkpt>
<trkpt lat="52.947511" lon="06.011981"><ele>7.3</ele><time>2021-03-19T12:36:41Z</time><name>PT9057</name></trkpt>
<trkpt lat="52.947520" lon="06.011973"><ele>7.2</ele><time>2021-03-19T12:36:43Z</time><name>PT9058</name></trkpt>
<trkpt lat="52.947528" lon="06.011966"><ele>7.3</ele><time>2021-03-19T12:36:44Z</time><name>PT9059</name></trkpt>
<trkpt lat="52.947540" lon="06.011955"><ele>7.3</ele><time>2021-03-19T12:36:44Z</time><name>PT9060</name></trkpt>
<trkpt lat="52.947547" lon="06.011947"><ele>7.3</ele><time>2021-03-19T12:36:46Z</time><name>PT9061</name></trkpt>
<trkpt lat="52.947556" lon="06.011940"><ele>7.4</ele><time>2021-03-19T12:36:46Z</time><name>PT9062</name></trkpt>
<trkpt lat="52.947565" lon="06.011930"><ele>7.6</ele><time>2021-03-19T12:36:48Z</time><name>PT9063</name></trkpt>
<trkpt lat="52.947574" lon="06.011924"><ele>7.6</ele><time>2021-03-19T12:36:48Z</time><name>PT9064</name></trkpt>
<trkpt lat="52.947583" lon="06.011917"><ele>7.6</ele><time>2021-03-19T12:36:50Z</time><name>PT9065</name></trkpt>
<trkpt lat="52.947591" lon="06.011909"><ele>7.7</ele><time>2021-03-19T12:36:51Z</time><name>PT9066</name></trkpt>
<trkpt lat="52.947600" lon="06.011898"><ele>7.7</ele><time>2021-03-19T12:36:51Z</time><name>PT9067</name></trkpt>
<trkpt lat="52.947608" lon="06.011888"><ele>7.4</ele><time>2021-03-19T12:36:53Z</time><name>PT9068</name></trkpt>
<trkpt lat="52.947619" lon="06.011878"><ele>7.2</ele><time>2021-03-19T12:36:53Z</time><name>PT9069</name></trkpt>
<trkpt lat="52.947630" lon="06.011869"><ele>7.4</ele><time>2021-03-19T12:36:55Z</time><name>PT9070</name></trkpt>
<trkpt lat="52.947641" lon="06.011859"><ele>7.2</ele><time>2021-03-19T12:36:55Z</time><name>PT9071</name></trkpt>
<trkpt lat="52.947649" lon="06.011851"><ele>7.2</ele><time>2021-03-19T12:36:57Z</time><name>PT9072</name></trkpt>
<trkpt lat="52.947658" lon="06.011843"><ele>7.3</ele><time>2021-03-19T12:36:58Z</time><name>PT9073</name></trkpt>
<trkpt lat="52.947665" lon="06.011833"><ele>7.3</ele><time>2021-03-19T12:36:58Z</time><name>PT9074</name></trkpt>
<trkpt lat="52.947673" lon="06.011822"><ele>7.2</ele><time>2021-03-19T12:37:00Z</time><name>PT9075</name></trkpt>
<trkpt lat="52.947682" lon="06.011813"><ele>7.2</ele><time>2021-03-19T12:37:01Z</time><name>PT9076</name></trkpt>
<trkpt lat="52.947695" lon="06.011805"><ele>7.2</ele><time>2021-03-19T12:37:01Z</time><name>PT9077</name></trkpt>
<trkpt lat="52.947709" lon="06.011796"><ele>6.9</ele><time>2021-03-19T12:37:03Z</time><name>PT9078</name></trkpt>
<trkpt lat="52.947719" lon="06.011787"><ele>6.8</ele><time>2021-03-19T12:37:04Z</time><name>PT9079</name></trkpt>
<trkpt lat="52.947726" lon="06.011776"><ele>7.1</ele><time>2021-03-19T12:37:04Z</time><name>PT9080</name></trkpt>
<trkpt lat="52.947733" lon="06.011766"><ele>6.8</ele><time>2021-03-19T12:37:06Z</time><name>PT9081</name></trkpt>
<trkpt lat="52.947743" lon="06.011755"><ele>6.9</ele><time>2021-03-19T12:37:07Z</time><name>PT9082</name></trkpt>
<trkpt lat="52.947751" lon="06.011745"><ele>7</ele><time>2021-03-19T12:37:07Z</time><name>PT9083</name></trkpt>
<trkpt lat="52.947760" lon="06.011739"><ele>6.9</ele><time>2021-03-19T12:37:09Z</time><name>PT9084</name></trkpt>
<trkpt lat="52.947768" lon="06.011728"><ele>6.8</ele><time>2021-03-19T12:37:10Z</time><name>PT9085</name></trkpt>
<trkpt lat="52.947778" lon="06.011717"><ele>6.9</ele><time>2021-03-19T12:37:10Z</time><name>PT9086</name></trkpt>
<trkpt lat="52.947787" lon="06.011707"><ele>6.9</ele><time>2021-03-19T12:37:12Z</time><name>PT9087</name></trkpt>
<trkpt lat="52.947797" lon="06.011694"><ele>6.8</ele><time>2021-03-19T12:37:13Z</time><name>PT9088</name></trkpt>
<trkpt lat="52.947806" lon="06.011684"><ele>6.8</ele><time>2021-03-19T12:37:13Z</time><name>PT9089</name></trkpt>
<trkpt lat="52.947815" lon="06.011678"><ele>6.8</ele><time>2021-03-19T12:37:15Z</time><name>PT9090</name></trkpt>
<trkpt lat="52.947823" lon="06.011671"><ele>6.8</ele><time>2021-03-19T12:37:16Z</time><name>PT9091</name></trkpt>
<trkpt lat="52.947834" lon="06.011663"><ele>6.8</ele><time>2021-03-19T12:37:16Z</time><name>PT9092</name></trkpt>
<trkpt lat="52.947845" lon="06.011655"><ele>6.9</ele><time>2021-03-19T12:37:18Z</time><name>PT9093</name></trkpt>
<trkpt lat="52.947853" lon="06.011646"><ele>6.8</ele><time>2021-03-19T12:37:19Z</time><name>PT9094</name></trkpt>
<trkpt lat="52.947862" lon="06.011636"><ele>6.8</ele><time>2021-03-19T12:37:19Z</time><name>PT9095</name></trkpt>
<trkpt lat="52.947873" lon="06.011625"><ele>6.9</ele><time>2021-03-19T12:37:21Z</time><name>PT9096</name></trkpt>
<trkpt lat="52.947884" lon="06.011614"><ele>7.1</ele><time>2021-03-19T12:37:22Z</time><name>PT9097</name></trkpt>
<trkpt lat="52.947892" lon="06.011607"><ele>7</ele><time>2021-03-19T12:37:22Z</time><name>PT9098</name></trkpt>
<trkpt lat="52.947903" lon="06.011595"><ele>7.1</ele><time>2021-03-19T12:37:24Z</time><name>PT9099</name></trkpt>
<trkpt lat="52.947915" lon="06.011584"><ele>7.1</ele><time>2021-03-19T12:37:25Z</time><name>PT9100</name></trkpt>
<trkpt lat="52.947924" lon="06.011575"><ele>7</ele><time>2021-03-19T12:37:25Z</time><name>PT9101</name></trkpt>
<trkpt lat="52.947932" lon="06.011565"><ele>6.9</ele><time>2021-03-19T12:37:27Z</time><name>PT9102</name></trkpt>
<trkpt lat="52.947937" lon="06.011557"><ele>6.9</ele><time>2021-03-19T12:37:27Z</time><name>PT9103</name></trkpt>
<trkpt lat="52.947945" lon="06.011550"><ele>6.8</ele><time>2021-03-19T12:37:29Z</time><name>PT9104</name></trkpt>
<trkpt lat="52.947953" lon="06.011547"><ele>6.8</ele><time>2021-03-19T12:37:29Z</time><name>PT9105</name></trkpt>
<trkpt lat="52.947964" lon="06.011537"><ele>6.7</ele><time>2021-03-19T12:37:31Z</time><name>PT9106</name></trkpt>
<trkpt lat="52.947976" lon="06.011527"><ele>6.7</ele><time>2021-03-19T12:37:31Z</time><name>PT9107</name></trkpt>
<trkpt lat="52.947984" lon="06.011519"><ele>6.7</ele><time>2021-03-19T12:37:33Z</time><name>PT9108</name></trkpt>
<trkpt lat="52.947993" lon="06.011508"><ele>6.8</ele><time>2021-03-19T12:37:33Z</time><name>PT9109</name></trkpt>
<trkpt lat="52.948001" lon="06.011498"><ele>6.9</ele><time>2021-03-19T12:37:35Z</time><name>PT9110</name></trkpt>
<trkpt lat="52.948009" lon="06.011489"><ele>6.9</ele><time>2021-03-19T12:37:36Z</time><name>PT9111</name></trkpt>
<trkpt lat="52.948021" lon="06.011479"><ele>7</ele><time>2021-03-19T12:37:36Z</time><name>PT9112</name></trkpt>
<trkpt lat="52.948032" lon="06.011469"><ele>7</ele><time>2021-03-19T12:37:38Z</time><name>PT9113</name></trkpt>
<trkpt lat="52.948039" lon="06.011457"><ele>7.1</ele><time>2021-03-19T12:37:39Z</time><name>PT9114</name></trkpt>
<trkpt lat="52.948051" lon="06.011446"><ele>7</ele><time>2021-03-19T12:37:39Z</time><name>PT9115</name></trkpt>
<trkpt lat="52.948062" lon="06.011438"><ele>7</ele><time>2021-03-19T12:37:41Z</time><name>PT9116</name></trkpt>
<trkpt lat="52.948073" lon="06.011430"><ele>7.1</ele><time>2021-03-19T12:37:41Z</time><name>PT9117</name></trkpt>
<trkpt lat="52.948083" lon="06.011419"><ele>7</ele><time>2021-03-19T12:37:43Z</time><name>PT9118</name></trkpt>
<trkpt lat="52.948095" lon="06.011408"><ele>7</ele><time>2021-03-19T12:37:44Z</time><name>PT9119</name></trkpt>
<trkpt lat="52.948108" lon="06.011400"><ele>7.1</ele><time>2021-03-19T12:37:44Z</time><name>PT9120</name></trkpt>
<trkpt lat="52.948117" lon="06.011394"><ele>7.2</ele><time>2021-03-19T12:37:46Z</time><name>PT9121</name></trkpt>
<trkpt lat="52.948124" lon="06.011386"><ele>7.2</ele><time>2021-03-19T12:37:47Z</time><name>PT9122</name></trkpt>
<trkpt lat="52.948133" lon="06.011379"><ele>7.2</ele><time>2021-03-19T12:37:47Z</time><name>PT9123</name></trkpt>
<trkpt lat="52.948142" lon="06.011370"><ele>7.2</ele><time>2021-03-19T12:37:49Z</time><name>PT9124</name></trkpt>
<trkpt lat="52.948152" lon="06.011360"><ele>7.2</ele><time>2021-03-19T12:37:50Z</time><name>PT9125</name></trkpt>
<trkpt lat="52.948162" lon="06.011350"><ele>7.3</ele><time>2021-03-19T12:37:50Z</time><name>PT9126</name></trkpt>
<trkpt lat="52.948172" lon="06.011342"><ele>7.4</ele><time>2021-03-19T12:37:52Z</time><name>PT9127</name></trkpt>
<trkpt lat="52.948180" lon="06.011336"><ele>7.2</ele><time>2021-03-19T12:37:53Z</time><name>PT9128</name></trkpt>
<trkpt lat="52.948188" lon="06.011331"><ele>7.2</ele><time>2021-03-19T12:37:53Z</time><name>PT9129</name></trkpt>
<trkpt lat="52.948196" lon="06.011326"><ele>7.2</ele><time>2021-03-19T12:37:55Z</time><name>PT9130</name></trkpt>
<trkpt lat="52.948206" lon="06.011320"><ele>7.2</ele><time>2021-03-19T12:37:56Z</time><name>PT9131</name></trkpt>
<trkpt lat="52.948214" lon="06.011314"><ele>7.1</ele><time>2021-03-19T12:37:56Z</time><name>PT9132</name></trkpt>
<trkpt lat="52.948223" lon="06.011303"><ele>7.2</ele><time>2021-03-19T12:37:58Z</time><name>PT9133</name></trkpt>
<trkpt lat="52.948234" lon="06.011293"><ele>7.1</ele><time>2021-03-19T12:37:59Z</time><name>PT9134</name></trkpt>
<trkpt lat="52.948244" lon="06.011283"><ele>7.1</ele><time>2021-03-19T12:37:59Z</time><name>PT9135</name></trkpt>
<trkpt lat="52.948253" lon="06.011273"><ele>7</ele><time>2021-03-19T12:38:01Z</time><name>PT9136</name></trkpt>
<trkpt lat="52.948261" lon="06.011265"><ele>6.8</ele><time>2021-03-19T12:38:02Z</time><name>PT9137</name></trkpt>
<trkpt lat="52.948272" lon="06.011260"><ele>6.7</ele><time>2021-03-19T12:38:02Z</time><name>PT9138</name></trkpt>
<trkpt lat="52.948281" lon="06.011253"><ele>6.5</ele><time>2021-03-19T12:38:04Z</time><name>PT9139</name></trkpt>
<trkpt lat="52.948290" lon="06.011239"><ele>6.5</ele><time>2021-03-19T12:38:04Z</time><name>PT9140</name></trkpt>
<trkpt lat="52.948298" lon="06.011223"><ele>6.5</ele><time>2021-03-19T12:38:06Z</time><name>PT9141</name></trkpt>
<trkpt lat="52.948307" lon="06.011214"><ele>6.7</ele><time>2021-03-19T12:38:07Z</time><name>PT9142</name></trkpt>
<trkpt lat="52.948314" lon="06.011210"><ele>6.8</ele><time>2021-03-19T12:38:07Z</time><name>PT9143</name></trkpt>
<trkpt lat="52.948324" lon="06.011204"><ele>7.1</ele><time>2021-03-19T12:38:09Z</time><name>PT9144</name></trkpt>
<trkpt lat="52.948330" lon="06.011198"><ele>7.2</ele><time>2021-03-19T12:38:10Z</time><name>PT9145</name></trkpt>
<trkpt lat="52.948334" lon="06.011194"><ele>7.2</ele><time>2021-03-19T12:38:10Z</time><name>PT9146</name></trkpt>
<trkpt lat="52.948338" lon="06.011189"><ele>7.4</ele><time>2021-03-19T12:38:12Z</time><name>PT9147</name></trkpt>
<trkpt lat="52.948342" lon="06.011173"><ele>7.6</ele><time>2021-03-19T12:38:13Z</time><name>PT9148</name></trkpt>
<trkpt lat="52.948351" lon="06.011152"><ele>7.6</ele><time>2021-03-19T12:38:15Z</time><name>PT9149</name></trkpt>
<trkpt lat="52.948356" lon="06.011135"><ele>7.4</ele><time>2021-03-19T12:38:16Z</time><name>PT9150</name></trkpt>
<trkpt lat="52.948368" lon="06.011121"><ele>7.5</ele><time>2021-03-19T12:38:17Z</time><name>PT9151</name></trkpt>
<trkpt lat="52.948379" lon="06.011107"><ele>7.2</ele><time>2021-03-19T12:38:18Z</time><name>PT9152</name></trkpt>
<trkpt lat="52.948390" lon="06.011098"><ele>7.1</ele><time>2021-03-19T12:38:19Z</time><name>PT9153</name></trkpt>
<trkpt lat="52.948399" lon="06.011089"><ele>7.1</ele><time>2021-03-19T12:38:19Z</time><name>PT9154</name></trkpt>
<trkpt lat="52.948407" lon="06.011073"><ele>7.2</ele><time>2021-03-19T12:38:21Z</time><name>PT9155</name></trkpt>
<trkpt lat="52.948415" lon="06.011065"><ele>7</ele><time>2021-03-19T12:38:22Z</time><name>PT9156</name></trkpt>
<trkpt lat="52.948421" lon="06.011058"><ele>7.1</ele><time>2021-03-19T12:38:22Z</time><name>PT9157</name></trkpt>
<trkpt lat="52.948433" lon="06.011050"><ele>6.9</ele><time>2021-03-19T12:38:24Z</time><name>PT9158</name></trkpt>
<trkpt lat="52.948440" lon="06.011041"><ele>6.8</ele><time>2021-03-19T12:38:25Z</time><name>PT9159</name></trkpt>
<trkpt lat="52.948451" lon="06.011033"><ele>6.8</ele><time>2021-03-19T12:38:25Z</time><name>PT9160</name></trkpt>
<trkpt lat="52.948460" lon="06.011025"><ele>6.5</ele><time>2021-03-19T12:38:27Z</time><name>PT9161</name></trkpt>
<trkpt lat="52.948470" lon="06.011011"><ele>6.4</ele><time>2021-03-19T12:38:28Z</time><name>PT9162</name></trkpt>
<trkpt lat="52.948481" lon="06.010999"><ele>6.3</ele><time>2021-03-19T12:38:28Z</time><name>PT9163</name></trkpt>
<trkpt lat="52.948489" lon="06.010989"><ele>6.3</ele><time>2021-03-19T12:38:30Z</time><name>PT9164</name></trkpt>
<trkpt lat="52.948496" lon="06.010982"><ele>6.3</ele><time>2021-03-19T12:38:31Z</time><name>PT9165</name></trkpt>
<trkpt lat="52.948502" lon="06.010972"><ele>6.4</ele><time>2021-03-19T12:38:31Z</time><name>PT9166</name></trkpt>
<trkpt lat="52.948510" lon="06.010962"><ele>6.6</ele><time>2021-03-19T12:38:33Z</time><name>PT9167</name></trkpt>
<trkpt lat="52.948519" lon="06.010951"><ele>6.6</ele><time>2021-03-19T12:38:33Z</time><name>PT9168</name></trkpt>
<trkpt lat="52.948533" lon="06.010944"><ele>6.7</ele><time>2021-03-19T12:38:35Z</time><name>PT9169</name></trkpt>
<trkpt lat="52.948544" lon="06.010935"><ele>6.8</ele><time>2021-03-19T12:38:35Z</time><name>PT9170</name></trkpt>
<trkpt lat="52.948550" lon="06.010925"><ele>6.6</ele><time>2021-03-19T12:38:37Z</time><name>PT9171</name></trkpt>
<trkpt lat="52.948556" lon="06.010918"><ele>6.6</ele><time>2021-03-19T12:38:38Z</time><name>PT9172</name></trkpt>
<trkpt lat="52.948564" lon="06.010910"><ele>6.6</ele><time>2021-03-19T12:38:38Z</time><name>PT9173</name></trkpt>
<trkpt lat="52.948572" lon="06.010904"><ele>6.6</ele><time>2021-03-19T12:38:40Z</time><name>PT9174</name></trkpt>
<trkpt lat="52.948583" lon="06.010894"><ele>6.6</ele><time>2021-03-19T12:38:41Z</time><name>PT9175</name></trkpt>
<trkpt lat="52.948590" lon="06.010889"><ele>6.6</ele><time>2021-03-19T12:38:41Z</time><name>PT9176</name></trkpt>
<trkpt lat="52.948597" lon="06.010881"><ele>6.4</ele><time>2021-03-19T12:38:43Z</time><name>PT9177</name></trkpt>
<trkpt lat="52.948605" lon="06.010873"><ele>6.3</ele><time>2021-03-19T12:38:43Z</time><name>PT9178</name></trkpt>
<trkpt lat="52.948615" lon="06.010862"><ele>6.3</ele><time>2021-03-19T12:38:45Z</time><name>PT9179</name></trkpt>
<trkpt lat="52.948628" lon="06.010855"><ele>6.3</ele><time>2021-03-19T12:38:45Z</time><name>PT9180</name></trkpt>
<trkpt lat="52.948639" lon="06.010848"><ele>6.3</ele><time>2021-03-19T12:38:47Z</time><name>PT9181</name></trkpt>
<trkpt lat="52.948648" lon="06.010838"><ele>6.5</ele><time>2021-03-19T12:38:48Z</time><name>PT9182</name></trkpt>
<trkpt lat="52.948656" lon="06.010829"><ele>6.5</ele><time>2021-03-19T12:38:48Z</time><name>PT9183</name></trkpt>
<trkpt lat="52.948664" lon="06.010814"><ele>6.6</ele><time>2021-03-19T12:38:50Z</time><name>PT9184</name></trkpt>
<trkpt lat="52.948673" lon="06.010810"><ele>6.8</ele><time>2021-03-19T12:38:50Z</time><name>PT9185</name></trkpt>
<trkpt lat="52.948684" lon="06.010797"><ele>7.1</ele><time>2021-03-19T12:38:52Z</time><name>PT9186</name></trkpt>
<trkpt lat="52.948693" lon="06.010791"><ele>7.3</ele><time>2021-03-19T12:38:53Z</time><name>PT9187</name></trkpt>
<trkpt lat="52.948699" lon="06.010785"><ele>7.4</ele><time>2021-03-19T12:38:53Z</time><name>PT9188</name></trkpt>
<trkpt lat="52.948706" lon="06.010773"><ele>7.5</ele><time>2021-03-19T12:38:55Z</time><name>PT9189</name></trkpt>
<trkpt lat="52.948705" lon="06.010771"><ele>7.4</ele><time>2021-03-19T12:38:56Z</time><name>PT9190</name></trkpt>
<trkpt lat="52.948709" lon="06.010763"><ele>7.8</ele><time>2021-03-19T12:39:02Z</time><name>PT9191</name></trkpt>
<trkpt lat="52.948717" lon="06.010756"><ele>7.7</ele><time>2021-03-19T12:39:04Z</time><name>PT9192</name></trkpt>
<trkpt lat="52.948725" lon="06.010742"><ele>7.4</ele><time>2021-03-19T12:39:04Z</time><name>PT9193</name></trkpt>
<trkpt lat="52.948734" lon="06.010732"><ele>7.4</ele><time>2021-03-19T12:39:06Z</time><name>PT9194</name></trkpt>
<trkpt lat="52.948743" lon="06.010725"><ele>7.4</ele><time>2021-03-19T12:39:06Z</time><name>PT9195</name></trkpt>
<trkpt lat="52.948751" lon="06.010720"><ele>7.2</ele><time>2021-03-19T12:39:08Z</time><name>PT9196</name></trkpt>
<trkpt lat="52.948759" lon="06.010714"><ele>7.1</ele><time>2021-03-19T12:39:08Z</time><name>PT9197</name></trkpt>
<trkpt lat="52.948767" lon="06.010707"><ele>7</ele><time>2021-03-19T12:39:10Z</time><name>PT9198</name></trkpt>
<trkpt lat="52.948774" lon="06.010703"><ele>6.9</ele><time>2021-03-19T12:39:10Z</time><name>PT9199</name></trkpt>
<trkpt lat="52.948783" lon="06.010694"><ele>6.8</ele><time>2021-03-19T12:39:12Z</time><name>PT9200</name></trkpt>
<trkpt lat="52.948792" lon="06.010685"><ele>6.9</ele><time>2021-03-19T12:39:12Z</time><name>PT9201</name></trkpt>
<trkpt lat="52.948802" lon="06.010680"><ele>6.8</ele><time>2021-03-19T12:39:14Z</time><name>PT9202</name></trkpt>
<trkpt lat="52.948810" lon="06.010675"><ele>6.8</ele><time>2021-03-19T12:39:15Z</time><name>PT9203</name></trkpt>
<trkpt lat="52.948818" lon="06.010666"><ele>6.8</ele><time>2021-03-19T12:39:15Z</time><name>PT9204</name></trkpt>
<trkpt lat="52.948826" lon="06.010658"><ele>6.5</ele><time>2021-03-19T12:39:17Z</time><name>PT9205</name></trkpt>
<trkpt lat="52.948835" lon="06.010650"><ele>6.8</ele><time>2021-03-19T12:39:18Z</time><name>PT9206</name></trkpt>
<trkpt lat="52.948843" lon="06.010642"><ele>6.8</ele><time>2021-03-19T12:39:18Z</time><name>PT9207</name></trkpt>
<trkpt lat="52.948852" lon="06.010631"><ele>7</ele><time>2021-03-19T12:39:20Z</time><name>PT9208</name></trkpt>
<trkpt lat="52.948861" lon="06.010621"><ele>7.2</ele><time>2021-03-19T12:39:21Z</time><name>PT9209</name></trkpt>
<trkpt lat="52.948871" lon="06.010611"><ele>7.2</ele><time>2021-03-19T12:39:21Z</time><name>PT9210</name></trkpt>
<trkpt lat="52.948881" lon="06.010603"><ele>6.9</ele><time>2021-03-19T12:39:23Z</time><name>PT9211</name></trkpt>
<trkpt lat="52.948890" lon="06.010596"><ele>6.8</ele><time>2021-03-19T12:39:24Z</time><name>PT9212</name></trkpt>
<trkpt lat="52.948900" lon="06.010588"><ele>6.8</ele><time>2021-03-19T12:39:24Z</time><name>PT9213</name></trkpt>
<trkpt lat="52.948906" lon="06.010578"><ele>6.8</ele><time>2021-03-19T12:39:26Z</time><name>PT9214</name></trkpt>
<trkpt lat="52.948913" lon="06.010568"><ele>6.8</ele><time>2021-03-19T12:39:26Z</time><name>PT9215</name></trkpt>
<trkpt lat="52.948921" lon="06.010559"><ele>6.8</ele><time>2021-03-19T12:39:28Z</time><name>PT9216</name></trkpt>
<trkpt lat="52.948929" lon="06.010551"><ele>6.8</ele><time>2021-03-19T12:39:29Z</time><name>PT9217</name></trkpt>
<trkpt lat="52.948938" lon="06.010543"><ele>6.7</ele><time>2021-03-19T12:39:29Z</time><name>PT9218</name></trkpt>
<trkpt lat="52.948946" lon="06.010537"><ele>6.8</ele><time>2021-03-19T12:39:31Z</time><name>PT9219</name></trkpt>
<trkpt lat="52.948953" lon="06.010528"><ele>6.7</ele><time>2021-03-19T12:39:32Z</time><name>PT9220</name></trkpt>
<trkpt lat="52.948961" lon="06.010517"><ele>6.6</ele><time>2021-03-19T12:39:32Z</time><name>PT9221</name></trkpt>
<trkpt lat="52.948970" lon="06.010507"><ele>6.6</ele><time>2021-03-19T12:39:34Z</time><name>PT9222</name></trkpt>
<trkpt lat="52.948981" lon="06.010499"><ele>6.7</ele><time>2021-03-19T12:39:34Z</time><name>PT9223</name></trkpt>
<trkpt lat="52.948991" lon="06.010493"><ele>6.6</ele><time>2021-03-19T12:39:36Z</time><name>PT9224</name></trkpt>
<trkpt lat="52.949001" lon="06.010485"><ele>6.8</ele><time>2021-03-19T12:39:37Z</time><name>PT9225</name></trkpt>
<trkpt lat="52.949011" lon="06.010474"><ele>6.8</ele><time>2021-03-19T12:39:37Z</time><name>PT9226</name></trkpt>
<trkpt lat="52.949019" lon="06.010463"><ele>6.8</ele><time>2021-03-19T12:39:39Z</time><name>PT9227</name></trkpt>
<trkpt lat="52.949027" lon="06.010452"><ele>6.8</ele><time>2021-03-19T12:39:40Z</time><name>PT9228</name></trkpt>
<trkpt lat="52.949035" lon="06.010447"><ele>6.8</ele><time>2021-03-19T12:39:40Z</time><name>PT9229</name></trkpt>
<trkpt lat="52.949043" lon="06.010439"><ele>6.7</ele><time>2021-03-19T12:39:42Z</time><name>PT9230</name></trkpt>
<trkpt lat="52.949051" lon="06.010431"><ele>6.7</ele><time>2021-03-19T12:39:43Z</time><name>PT9231</name></trkpt>
<trkpt lat="52.949060" lon="06.010420"><ele>6.6</ele><time>2021-03-19T12:39:43Z</time><name>PT9232</name></trkpt>
<trkpt lat="52.949068" lon="06.010407"><ele>6.7</ele><time>2021-03-19T12:39:45Z</time><name>PT9233</name></trkpt>
<trkpt lat="52.949079" lon="06.010396"><ele>6.8</ele><time>2021-03-19T12:39:46Z</time><name>PT9234</name></trkpt>
<trkpt lat="52.949089" lon="06.010388"><ele>6.8</ele><time>2021-03-19T12:39:47Z</time><name>PT9235</name></trkpt>
<trkpt lat="52.949099" lon="06.010379"><ele>6.8</ele><time>2021-03-19T12:39:48Z</time><name>PT9236</name></trkpt>
<trkpt lat="52.949106" lon="06.010371"><ele>6.8</ele><time>2021-03-19T12:39:48Z</time><name>PT9237</name></trkpt>
<trkpt lat="52.949113" lon="06.010364"><ele>6.7</ele><time>2021-03-19T12:39:50Z</time><name>PT9238</name></trkpt>
<trkpt lat="52.949120" lon="06.010356"><ele>6.7</ele><time>2021-03-19T12:39:50Z</time><name>PT9239</name></trkpt>
<trkpt lat="52.949129" lon="06.010348"><ele>6.7</ele><time>2021-03-19T12:39:52Z</time><name>PT9240</name></trkpt>
<trkpt lat="52.949136" lon="06.010340"><ele>6.7</ele><time>2021-03-19T12:39:52Z</time><name>PT9241</name></trkpt>
<trkpt lat="52.949142" lon="06.010331"><ele>6.8</ele><time>2021-03-19T12:39:54Z</time><name>PT9242</name></trkpt>
<trkpt lat="52.949150" lon="06.010326"><ele>6.8</ele><time>2021-03-19T12:39:55Z</time><name>PT9243</name></trkpt>
<trkpt lat="52.949158" lon="06.010323"><ele>6.6</ele><time>2021-03-19T12:39:55Z</time><name>PT9244</name></trkpt>
<trkpt lat="52.949168" lon="06.010320"><ele>6.5</ele><time>2021-03-19T12:39:57Z</time><name>PT9245</name></trkpt>
<trkpt lat="52.949176" lon="06.010314"><ele>6.3</ele><time>2021-03-19T12:39:58Z</time><name>PT9246</name></trkpt>
<trkpt lat="52.949185" lon="06.010311"><ele>6.3</ele><time>2021-03-19T12:39:58Z</time><name>PT9247</name></trkpt>
<trkpt lat="52.949192" lon="06.010306"><ele>6.3</ele><time>2021-03-19T12:40:00Z</time><name>PT9248</name></trkpt>
<trkpt lat="52.949196" lon="06.010300"><ele>6.3</ele><time>2021-03-19T12:40:01Z</time><name>PT9249</name></trkpt>
<trkpt lat="52.949199" lon="06.010294"><ele>6.3</ele><time>2021-03-19T12:40:01Z</time><name>PT9250</name></trkpt>
<trkpt lat="52.949204" lon="06.010288"><ele>6.3</ele><time>2021-03-19T12:40:03Z</time><name>PT9251</name></trkpt>
<trkpt lat="52.949210" lon="06.010287"><ele>6.3</ele><time>2021-03-19T12:40:04Z</time><name>PT9252</name></trkpt>
<trkpt lat="52.949216" lon="06.010281"><ele>6.3</ele><time>2021-03-19T12:40:04Z</time><name>PT9253</name></trkpt>
<trkpt lat="52.949222" lon="06.010273"><ele>6.6</ele><time>2021-03-19T12:40:06Z</time><name>PT9254</name></trkpt>
<trkpt lat="52.949230" lon="06.010268"><ele>6.6</ele><time>2021-03-19T12:40:07Z</time><name>PT9255</name></trkpt>
<trkpt lat="52.949238" lon="06.010256"><ele>6.7</ele><time>2021-03-19T12:40:07Z</time><name>PT9256</name></trkpt>
<trkpt lat="52.949246" lon="06.010244"><ele>6.8</ele><time>2021-03-19T12:40:09Z</time><name>PT9257</name></trkpt>
<trkpt lat="52.949254" lon="06.010237"><ele>6.7</ele><time>2021-03-19T12:40:10Z</time><name>PT9258</name></trkpt>
<trkpt lat="52.949258" lon="06.010232"><ele>6.7</ele><time>2021-03-19T12:40:10Z</time><name>PT9259</name></trkpt>
<trkpt lat="52.949264" lon="06.010233"><ele>6.8</ele><time>2021-03-19T12:40:12Z</time><name>PT9260</name></trkpt>
<trkpt lat="52.949266" lon="06.010234"><ele>6.9</ele><time>2021-03-19T12:40:13Z</time><name>PT9261</name></trkpt>
<trkpt lat="52.949272" lon="06.010233"><ele>6.9</ele><time>2021-03-19T12:40:13Z</time><name>PT9262</name></trkpt>
<trkpt lat="52.949277" lon="06.010231"><ele>6.8</ele><time>2021-03-19T12:40:15Z</time><name>PT9263</name></trkpt>
<trkpt lat="52.949281" lon="06.010226"><ele>6.6</ele><time>2021-03-19T12:40:16Z</time><name>PT9264</name></trkpt>
<trkpt lat="52.949285" lon="06.010222"><ele>6.7</ele><time>2021-03-19T12:40:16Z</time><name>PT9265</name></trkpt>
<trkpt lat="52.949289" lon="06.010217"><ele>6.8</ele><time>2021-03-19T12:40:18Z</time><name>PT9266</name></trkpt>
<trkpt lat="52.949296" lon="06.010211"><ele>6.8</ele><time>2021-03-19T12:40:19Z</time><name>PT9267</name></trkpt>
<trkpt lat="52.949305" lon="06.010204"><ele>6.8</ele><time>2021-03-19T12:40:19Z</time><name>PT9268</name></trkpt>
<trkpt lat="52.949316" lon="06.010195"><ele>6.9</ele><time>2021-03-19T12:40:21Z</time><name>PT9269</name></trkpt>
<trkpt lat="52.949324" lon="06.010187"><ele>6.8</ele><time>2021-03-19T12:40:22Z</time><name>PT9270</name></trkpt>
<trkpt lat="52.949332" lon="06.010177"><ele>6.8</ele><time>2021-03-19T12:40:22Z</time><name>PT9271</name></trkpt>
<trkpt lat="52.949340" lon="06.010166"><ele>6.8</ele><time>2021-03-19T12:40:24Z</time><name>PT9272</name></trkpt>
<trkpt lat="52.949348" lon="06.010152"><ele>6.6</ele><time>2021-03-19T12:40:25Z</time><name>PT9273</name></trkpt>
<trkpt lat="52.949358" lon="06.010140"><ele>6.6</ele><time>2021-03-19T12:40:25Z</time><name>PT9274</name></trkpt>
<trkpt lat="52.949366" lon="06.010137"><ele>6.6</ele><time>2021-03-19T12:40:27Z</time><name>PT9275</name></trkpt>
<trkpt lat="52.949373" lon="06.010130"><ele>6.7</ele><time>2021-03-19T12:40:27Z</time><name>PT9276</name></trkpt>
<trkpt lat="52.949380" lon="06.010122"><ele>6.8</ele><time>2021-03-19T12:40:29Z</time><name>PT9277</name></trkpt>
<trkpt lat="52.949389" lon="06.010120"><ele>6.9</ele><time>2021-03-19T12:40:30Z</time><name>PT9278</name></trkpt>
<trkpt lat="52.949393" lon="06.010119"><ele>7</ele><time>2021-03-19T12:40:30Z</time><name>PT9279</name></trkpt>
<trkpt lat="52.949395" lon="06.010120"><ele>7.1</ele><time>2021-03-19T12:40:32Z</time><name>PT9280</name></trkpt>
<trkpt lat="52.949397" lon="06.010119"><ele>7</ele><time>2021-03-19T12:40:33Z</time><name>PT9281</name></trkpt>
<trkpt lat="52.949403" lon="06.010120"><ele>7.1</ele><time>2021-03-19T12:40:33Z</time><name>PT9282</name></trkpt>
<trkpt lat="52.949404" lon="06.010117"><ele>7.1</ele><time>2021-03-19T12:40:37Z</time><name>PT9283</name></trkpt>
<trkpt lat="52.949413" lon="06.010104"><ele>6.9</ele><time>2021-03-19T12:40:37Z</time><name>PT9284</name></trkpt>
<trkpt lat="52.949423" lon="06.010092"><ele>6.7</ele><time>2021-03-19T12:40:39Z</time><name>PT9285</name></trkpt>
<trkpt lat="52.949430" lon="06.010080"><ele>6.6</ele><time>2021-03-19T12:40:39Z</time><name>PT9286</name></trkpt>
<trkpt lat="52.949436" lon="06.010067"><ele>6.6</ele><time>2021-03-19T12:40:41Z</time><name>PT9287</name></trkpt>
<trkpt lat="52.949445" lon="06.010053"><ele>6.7</ele><time>2021-03-19T12:40:42Z</time><name>PT9288</name></trkpt>
<trkpt lat="52.949456" lon="06.010043"><ele>6.7</ele><time>2021-03-19T12:40:42Z</time><name>PT9289</name></trkpt>
<trkpt lat="52.949465" lon="06.010031"><ele>6.5</ele><time>2021-03-19T12:40:44Z</time><name>PT9290</name></trkpt>
<trkpt lat="52.949474" lon="06.010020"><ele>6.3</ele><time>2021-03-19T12:40:45Z</time><name>PT9291</name></trkpt>
<trkpt lat="52.949483" lon="06.010011"><ele>6.3</ele><time>2021-03-19T12:40:45Z</time><name>PT9292</name></trkpt>
<trkpt lat="52.949492" lon="06.009997"><ele>6</ele><time>2021-03-19T12:40:47Z</time><name>PT9293</name></trkpt>
<trkpt lat="52.949501" lon="06.009985"><ele>6.1</ele><time>2021-03-19T12:40:48Z</time><name>PT9294</name></trkpt>
<trkpt lat="52.949510" lon="06.009972"><ele>6.3</ele><time>2021-03-19T12:40:48Z</time><name>PT9295</name></trkpt>
<trkpt lat="52.949521" lon="06.009963"><ele>6.3</ele><time>2021-03-19T12:40:50Z</time><name>PT9296</name></trkpt>
<trkpt lat="52.949529" lon="06.009954"><ele>6.3</ele><time>2021-03-19T12:40:51Z</time><name>PT9297</name></trkpt>
<trkpt lat="52.949538" lon="06.009942"><ele>6.3</ele><time>2021-03-19T12:40:52Z</time><name>PT9298</name></trkpt>
<trkpt lat="52.949547" lon="06.009931"><ele>6.3</ele><time>2021-03-19T12:40:53Z</time><name>PT9299</name></trkpt>
<trkpt lat="52.949557" lon="06.009921"><ele>6.2</ele><time>2021-03-19T12:40:54Z</time><name>PT9300</name></trkpt>
<trkpt lat="52.949568" lon="06.009913"><ele>6.3</ele><time>2021-03-19T12:40:54Z</time><name>PT9301</name></trkpt>
<trkpt lat="52.949576" lon="06.009907"><ele>6.3</ele><time>2021-03-19T12:40:56Z</time><name>PT9302</name></trkpt>
<trkpt lat="52.949584" lon="06.009899"><ele>6.4</ele><time>2021-03-19T12:40:57Z</time><name>PT9303</name></trkpt>
<trkpt lat="52.949592" lon="06.009887"><ele>6.3</ele><time>2021-03-19T12:40:57Z</time><name>PT9304</name></trkpt>
<trkpt lat="52.949599" lon="06.009872"><ele>6.4</ele><time>2021-03-19T12:40:59Z</time><name>PT9305</name></trkpt>
<trkpt lat="52.949606" lon="06.009858"><ele>6.2</ele><time>2021-03-19T12:41:00Z</time><name>PT9306</name></trkpt>
<trkpt lat="52.949613" lon="06.009845"><ele>6.2</ele><time>2021-03-19T12:41:00Z</time><name>PT9307</name></trkpt>
<trkpt lat="52.949622" lon="06.009836"><ele>6.2</ele><time>2021-03-19T12:41:02Z</time><name>PT9308</name></trkpt>
<trkpt lat="52.949631" lon="06.009830"><ele>6.2</ele><time>2021-03-19T12:41:03Z</time><name>PT9309</name></trkpt>
<trkpt lat="52.949638" lon="06.009821"><ele>6</ele><time>2021-03-19T12:41:03Z</time><name>PT9310</name></trkpt>
<trkpt lat="52.949647" lon="06.009811"><ele>6.1</ele><time>2021-03-19T12:41:05Z</time><name>PT9311</name></trkpt>
<trkpt lat="52.949655" lon="06.009802"><ele>6</ele><time>2021-03-19T12:41:06Z</time><name>PT9312</name></trkpt>
<trkpt lat="52.949667" lon="06.009795"><ele>6</ele><time>2021-03-19T12:41:06Z</time><name>PT9313</name></trkpt>
<trkpt lat="52.949677" lon="06.009787"><ele>6.1</ele><time>2021-03-19T12:41:08Z</time><name>PT9314</name></trkpt>
<trkpt lat="52.949685" lon="06.009774"><ele>6.2</ele><time>2021-03-19T12:41:09Z</time><name>PT9315</name></trkpt>
<trkpt lat="52.949693" lon="06.009764"><ele>6.3</ele><time>2021-03-19T12:41:09Z</time><name>PT9316</name></trkpt>
<trkpt lat="52.949702" lon="06.009752"><ele>6.3</ele><time>2021-03-19T12:41:11Z</time><name>PT9317</name></trkpt>
<trkpt lat="52.949712" lon="06.009739"><ele>6.4</ele><time>2021-03-19T12:41:12Z</time><name>PT9318</name></trkpt>
<trkpt lat="52.949720" lon="06.009730"><ele>6.3</ele><time>2021-03-19T12:41:12Z</time><name>PT9319</name></trkpt>
<trkpt lat="52.949729" lon="06.009724"><ele>6.3</ele><time>2021-03-19T12:41:14Z</time><name>PT9320</name></trkpt>
<trkpt lat="52.949738" lon="06.009717"><ele>6.3</ele><time>2021-03-19T12:41:15Z</time><name>PT9321</name></trkpt>
<trkpt lat="52.949744" lon="06.009707"><ele>6.1</ele><time>2021-03-19T12:41:15Z</time><name>PT9322</name></trkpt>
<trkpt lat="52.949752" lon="06.009696"><ele>6.2</ele><time>2021-03-19T12:41:17Z</time><name>PT9323</name></trkpt>
<trkpt lat="52.949758" lon="06.009684"><ele>6.3</ele><time>2021-03-19T12:41:18Z</time><name>PT9324</name></trkpt>
<trkpt lat="52.949764" lon="06.009677"><ele>6.4</ele><time>2021-03-19T12:41:18Z</time><name>PT9325</name></trkpt>
<trkpt lat="52.949770" lon="06.009670"><ele>6.6</ele><time>2021-03-19T12:41:20Z</time><name>PT9326</name></trkpt>
<trkpt lat="52.949773" lon="06.009658"><ele>6.8</ele><time>2021-03-19T12:41:21Z</time><name>PT9327</name></trkpt>
<trkpt lat="52.949774" lon="06.009641"><ele>6.7</ele><time>2021-03-19T12:41:21Z</time><name>PT9328</name></trkpt>
<trkpt lat="52.949776" lon="06.009627"><ele>6.5</ele><time>2021-03-19T12:41:23Z</time><name>PT9329</name></trkpt>
<trkpt lat="52.949775" lon="06.009617"><ele>6.2</ele><time>2021-03-19T12:41:23Z</time><name>PT9330</name></trkpt>
<trkpt lat="52.949772" lon="06.009611"><ele>6.2</ele><time>2021-03-19T12:41:25Z</time><name>PT9331</name></trkpt>
<trkpt lat="52.949769" lon="06.009603"><ele>6.2</ele><time>2021-03-19T12:41:26Z</time><name>PT9332</name></trkpt>
<trkpt lat="52.949766" lon="06.009582"><ele>6.1</ele><time>2021-03-19T12:41:28Z</time><name>PT9333</name></trkpt>
<trkpt lat="52.949764" lon="06.009572"><ele>6</ele><time>2021-03-19T12:41:29Z</time><name>PT9334</name></trkpt>
<trkpt lat="52.949761" lon="06.009563"><ele>5.9</ele><time>2021-03-19T12:41:29Z</time><name>PT9335</name></trkpt>
<trkpt lat="52.949757" lon="06.009556"><ele>6</ele><time>2021-03-19T12:41:31Z</time><name>PT9336</name></trkpt>
<trkpt lat="52.949757" lon="06.009546"><ele>5.9</ele><time>2021-03-19T12:41:32Z</time><name>PT9337</name></trkpt>
<trkpt lat="52.949757" lon="06.009539"><ele>5.9</ele><time>2021-03-19T12:41:32Z</time><name>PT9338</name></trkpt>
<trkpt lat="52.949754" lon="06.009529"><ele>6</ele><time>2021-03-19T12:41:34Z</time><name>PT9339</name></trkpt>
<trkpt lat="52.949748" lon="06.009524"><ele>5.8</ele><time>2021-03-19T12:41:35Z</time><name>PT9340</name></trkpt>
<trkpt lat="52.949748" lon="06.009519"><ele>5.8</ele><time>2021-03-19T12:41:35Z</time><name>PT9341</name></trkpt>
<trkpt lat="52.949743" lon="06.009510"><ele>5.9</ele><time>2021-03-19T12:41:37Z</time><name>PT9342</name></trkpt>
<trkpt lat="52.949737" lon="06.009501"><ele>5.8</ele><time>2021-03-19T12:41:38Z</time><name>PT9343</name></trkpt>
<trkpt lat="52.949729" lon="06.009488"><ele>5.7</ele><time>2021-03-19T12:41:38Z</time><name>PT9344</name></trkpt>
<trkpt lat="52.949723" lon="06.009476"><ele>5.9</ele><time>2021-03-19T12:41:40Z</time><name>PT9345</name></trkpt>
<trkpt lat="52.949722" lon="06.009466"><ele>5.9</ele><time>2021-03-19T12:41:41Z</time><name>PT9346</name></trkpt>
<trkpt lat="52.949720" lon="06.009454"><ele>5.9</ele><time>2021-03-19T12:41:41Z</time><name>PT9347</name></trkpt>
<trkpt lat="52.949721" lon="06.009443"><ele>6</ele><time>2021-03-19T12:41:43Z</time><name>PT9348</name></trkpt>
<trkpt lat="52.949720" lon="06.009432"><ele>6</ele><time>2021-03-19T12:41:44Z</time><name>PT9349</name></trkpt>
<trkpt lat="52.949718" lon="06.009418"><ele>6</ele><time>2021-03-19T12:41:44Z</time><name>PT9350</name></trkpt>
<trkpt lat="52.949719" lon="06.009406"><ele>6</ele><time>2021-03-19T12:41:46Z</time><name>PT9351</name></trkpt>
<trkpt lat="52.949721" lon="06.009391"><ele>6.1</ele><time>2021-03-19T12:41:46Z</time><name>PT9352</name></trkpt>
<trkpt lat="52.949719" lon="06.009376"><ele>6.1</ele><time>2021-03-19T12:41:48Z</time><name>PT9353</name></trkpt>
<trkpt lat="52.949720" lon="06.009359"><ele>6.1</ele><time>2021-03-19T12:41:48Z</time><name>PT9354</name></trkpt>
<trkpt lat="52.949722" lon="06.009347"><ele>6</ele><time>2021-03-19T12:41:50Z</time><name>PT9355</name></trkpt>
<trkpt lat="52.949723" lon="06.009334"><ele>5.9</ele><time>2021-03-19T12:41:51Z</time><name>PT9356</name></trkpt>
<trkpt lat="52.949717" lon="06.009321"><ele>5.9</ele><time>2021-03-19T12:41:51Z</time><name>PT9357</name></trkpt>
<trkpt lat="52.949710" lon="06.009311"><ele>5.9</ele><time>2021-03-19T12:41:53Z</time><name>PT9358</name></trkpt>
<trkpt lat="52.949705" lon="06.009297"><ele>5.8</ele><time>2021-03-19T12:41:54Z</time><name>PT9359</name></trkpt>
<trkpt lat="52.949704" lon="06.009288"><ele>5.7</ele><time>2021-03-19T12:41:54Z</time><name>PT9360</name></trkpt>
<trkpt lat="52.949701" lon="06.009277"><ele>5.8</ele><time>2021-03-19T12:41:56Z</time><name>PT9361</name></trkpt>
<trkpt lat="52.949692" lon="06.009261"><ele>5.8</ele><time>2021-03-19T12:41:57Z</time><name>PT9362</name></trkpt>
<trkpt lat="52.949685" lon="06.009247"><ele>5.9</ele><time>2021-03-19T12:41:57Z</time><name>PT9363</name></trkpt>
<trkpt lat="52.949679" lon="06.009232"><ele>6.2</ele><time>2021-03-19T12:41:59Z</time><name>PT9364</name></trkpt>
<trkpt lat="52.949672" lon="06.009219"><ele>6.3</ele><time>2021-03-19T12:41:59Z</time><name>PT9365</name></trkpt>
<trkpt lat="52.949669" lon="06.009205"><ele>6.3</ele><time>2021-03-19T12:42:01Z</time><name>PT9366</name></trkpt>
<trkpt lat="52.949665" lon="06.009187"><ele>6.3</ele><time>2021-03-19T12:42:01Z</time><name>PT9367</name></trkpt>
<trkpt lat="52.949662" lon="06.009169"><ele>5.9</ele><time>2021-03-19T12:42:03Z</time><name>PT9368</name></trkpt>
<trkpt lat="52.949657" lon="06.009151"><ele>5.7</ele><time>2021-03-19T12:42:04Z</time><name>PT9369</name></trkpt>
<trkpt lat="52.949653" lon="06.009136"><ele>5.8</ele><time>2021-03-19T12:42:04Z</time><name>PT9370</name></trkpt>
<trkpt lat="52.949648" lon="06.009120"><ele>5.9</ele><time>2021-03-19T12:42:06Z</time><name>PT9371</name></trkpt>
<trkpt lat="52.949644" lon="06.009105"><ele>5.9</ele><time>2021-03-19T12:42:07Z</time><name>PT9372</name></trkpt>
<trkpt lat="52.949643" lon="06.009092"><ele>5.9</ele><time>2021-03-19T12:42:07Z</time><name>PT9373</name></trkpt>
<trkpt lat="52.949640" lon="06.009080"><ele>6</ele><time>2021-03-19T12:42:09Z</time><name>PT9374</name></trkpt>
<trkpt lat="52.949639" lon="06.009063"><ele>6</ele><time>2021-03-19T12:42:10Z</time><name>PT9375</name></trkpt>
<trkpt lat="52.949635" lon="06.009043"><ele>5.9</ele><time>2021-03-19T12:42:10Z</time><name>PT9376</name></trkpt>
<trkpt lat="52.949631" lon="06.009028"><ele>6</ele><time>2021-03-19T12:42:12Z</time><name>PT9377</name></trkpt>
<trkpt lat="52.949632" lon="06.009017"><ele>6.1</ele><time>2021-03-19T12:42:12Z</time><name>PT9378</name></trkpt>
<trkpt lat="52.949626" lon="06.009004"><ele>6.1</ele><time>2021-03-19T12:42:14Z</time><name>PT9379</name></trkpt>
<trkpt lat="52.949619" lon="06.008990"><ele>6.1</ele><time>2021-03-19T12:42:15Z</time><name>PT9380</name></trkpt>
<trkpt lat="52.949614" lon="06.008977"><ele>6.1</ele><time>2021-03-19T12:42:15Z</time><name>PT9381</name></trkpt>
<trkpt lat="52.949604" lon="06.008962"><ele>6.2</ele><time>2021-03-19T12:42:17Z</time><name>PT9382</name></trkpt>
<trkpt lat="52.949594" lon="06.008946"><ele>6.2</ele><time>2021-03-19T12:42:18Z</time><name>PT9383</name></trkpt>
<trkpt lat="52.949587" lon="06.008932"><ele>6.3</ele><time>2021-03-19T12:42:18Z</time><name>PT9384</name></trkpt>
<trkpt lat="52.949583" lon="06.008915"><ele>6.4</ele><time>2021-03-19T12:42:20Z</time><name>PT9385</name></trkpt>
<trkpt lat="52.949574" lon="06.008902"><ele>6.5</ele><time>2021-03-19T12:42:21Z</time><name>PT9386</name></trkpt>
<trkpt lat="52.949576" lon="06.008888"><ele>6.5</ele><time>2021-03-19T12:42:21Z</time><name>PT9387</name></trkpt>
<trkpt lat="52.949571" lon="06.008872"><ele>6.4</ele><time>2021-03-19T12:42:23Z</time><name>PT9388</name></trkpt>
<trkpt lat="52.949571" lon="06.008855"><ele>6.3</ele><time>2021-03-19T12:42:24Z</time><name>PT9389</name></trkpt>
<trkpt lat="52.949574" lon="06.008834"><ele>6.3</ele><time>2021-03-19T12:42:24Z</time><name>PT9390</name></trkpt>
<trkpt lat="52.949573" lon="06.008831"><ele>6.2</ele><time>2021-03-19T12:42:26Z</time><name>PT9391</name></trkpt>
<trkpt lat="52.949569" lon="06.008826"><ele>6.2</ele><time>2021-03-19T12:42:26Z</time><name>PT9392</name></trkpt>
<trkpt lat="52.949568" lon="06.008823"><ele>6.3</ele><time>2021-03-19T12:42:28Z</time><name>PT9393</name></trkpt>
<trkpt lat="52.949567" lon="06.008800"><ele>6.3</ele><time>2021-03-19T12:42:31Z</time><name>PT9394</name></trkpt>
<trkpt lat="52.949563" lon="06.008779"><ele>6.3</ele><time>2021-03-19T12:42:31Z</time><name>PT9395</name></trkpt>
<trkpt lat="52.949560" lon="06.008761"><ele>6.1</ele><time>2021-03-19T12:42:33Z</time><name>PT9396</name></trkpt>
<trkpt lat="52.949548" lon="06.008756"><ele>6.1</ele><time>2021-03-19T12:42:33Z</time><name>PT9397</name></trkpt>
<trkpt lat="52.949541" lon="06.008739"><ele>6.2</ele><time>2021-03-19T12:42:35Z</time><name>PT9398</name></trkpt>
<trkpt lat="52.949530" lon="06.008708"><ele>6.3</ele><time>2021-03-19T12:42:36Z</time><name>PT9399</name></trkpt>
<trkpt lat="52.949528" lon="06.008693"><ele>6.3</ele><time>2021-03-19T12:42:36Z</time><name>PT9400</name></trkpt>
<trkpt lat="52.949521" lon="06.008675"><ele>6.2</ele><time>2021-03-19T12:42:38Z</time><name>PT9401</name></trkpt>
<trkpt lat="52.949517" lon="06.008656"><ele>6.3</ele><time>2021-03-19T12:42:38Z</time><name>PT9402</name></trkpt>
<trkpt lat="52.949511" lon="06.008641"><ele>6.2</ele><time>2021-03-19T12:42:40Z</time><name>PT9403</name></trkpt>
<trkpt lat="52.949506" lon="06.008633"><ele>6.1</ele><time>2021-03-19T12:42:41Z</time><name>PT9404</name></trkpt>
<trkpt lat="52.949498" lon="06.008619"><ele>6.2</ele><time>2021-03-19T12:42:41Z</time><name>PT9405</name></trkpt>
<trkpt lat="52.949498" lon="06.008602"><ele>6.3</ele><time>2021-03-19T12:42:43Z</time><name>PT9406</name></trkpt>
<trkpt lat="52.949496" lon="06.008587"><ele>6.1</ele><time>2021-03-19T12:42:44Z</time><name>PT9407</name></trkpt>
<trkpt lat="52.949491" lon="06.008573"><ele>6.3</ele><time>2021-03-19T12:42:44Z</time><name>PT9408</name></trkpt>
<trkpt lat="52.949487" lon="06.008558"><ele>6.3</ele><time>2021-03-19T12:42:46Z</time><name>PT9409</name></trkpt>
<trkpt lat="52.949478" lon="06.008539"><ele>6.3</ele><time>2021-03-19T12:42:47Z</time><name>PT9410</name></trkpt>
<trkpt lat="52.949471" lon="06.008520"><ele>6.3</ele><time>2021-03-19T12:42:47Z</time><name>PT9411</name></trkpt>
<trkpt lat="52.949468" lon="06.008505"><ele>6.3</ele><time>2021-03-19T12:42:49Z</time><name>PT9412</name></trkpt>
<trkpt lat="52.949461" lon="06.008494"><ele>6.2</ele><time>2021-03-19T12:42:50Z</time><name>PT9413</name></trkpt>
<trkpt lat="52.949456" lon="06.008482"><ele>6.2</ele><time>2021-03-19T12:42:50Z</time><name>PT9414</name></trkpt>
<trkpt lat="52.949451" lon="06.008469"><ele>6.2</ele><time>2021-03-19T12:42:52Z</time><name>PT9415</name></trkpt>
<trkpt lat="52.949454" lon="06.008452"><ele>6</ele><time>2021-03-19T12:42:52Z</time><name>PT9416</name></trkpt>
<trkpt lat="52.949458" lon="06.008437"><ele>5.9</ele><time>2021-03-19T12:42:54Z</time><name>PT9417</name></trkpt>
<trkpt lat="52.949456" lon="06.008426"><ele>6</ele><time>2021-03-19T12:42:55Z</time><name>PT9418</name></trkpt>
<trkpt lat="52.949449" lon="06.008415"><ele>6</ele><time>2021-03-19T12:42:55Z</time><name>PT9419</name></trkpt>
<trkpt lat="52.949445" lon="06.008402"><ele>6</ele><time>2021-03-19T12:42:57Z</time><name>PT9420</name></trkpt>
<trkpt lat="52.949440" lon="06.008391"><ele>6.1</ele><time>2021-03-19T12:42:58Z</time><name>PT9421</name></trkpt>
<trkpt lat="52.949441" lon="06.008383"><ele>6.2</ele><time>2021-03-19T12:42:58Z</time><name>PT9422</name></trkpt>
<trkpt lat="52.949441" lon="06.008375"><ele>6.2</ele><time>2021-03-19T12:43:00Z</time><name>PT9423</name></trkpt>
<trkpt lat="52.949440" lon="06.008363"><ele>6.3</ele><time>2021-03-19T12:43:01Z</time><name>PT9424</name></trkpt>
<trkpt lat="52.949438" lon="06.008353"><ele>6.2</ele><time>2021-03-19T12:43:01Z</time><name>PT9425</name></trkpt>
<trkpt lat="52.949439" lon="06.008341"><ele>6.3</ele><time>2021-03-19T12:43:03Z</time><name>PT9426</name></trkpt>
<trkpt lat="52.949438" lon="06.008328"><ele>6.4</ele><time>2021-03-19T12:43:03Z</time><name>PT9427</name></trkpt>
<trkpt lat="52.949440" lon="06.008313"><ele>6.5</ele><time>2021-03-19T12:43:05Z</time><name>PT9428</name></trkpt>
<trkpt lat="52.949439" lon="06.008299"><ele>6.5</ele><time>2021-03-19T12:43:06Z</time><name>PT9429</name></trkpt>
<trkpt lat="52.949441" lon="06.008285"><ele>6.6</ele><time>2021-03-19T12:43:06Z</time><name>PT9430</name></trkpt>
<trkpt lat="52.949443" lon="06.008272"><ele>6.5</ele><time>2021-03-19T12:43:08Z</time><name>PT9431</name></trkpt>
<trkpt lat="52.949445" lon="06.008258"><ele>6.4</ele><time>2021-03-19T12:43:09Z</time><name>PT9432</name></trkpt>
<trkpt lat="52.949444" lon="06.008242"><ele>6.5</ele><time>2021-03-19T12:43:09Z</time><name>PT9433</name></trkpt>
<trkpt lat="52.949451" lon="06.008227"><ele>6.4</ele><time>2021-03-19T12:43:11Z</time><name>PT9434</name></trkpt>
<trkpt lat="52.949455" lon="06.008211"><ele>6.3</ele><time>2021-03-19T12:43:11Z</time><name>PT9435</name></trkpt>
<trkpt lat="52.949463" lon="06.008197"><ele>6.3</ele><time>2021-03-19T12:43:13Z</time><name>PT9436</name></trkpt>
<trkpt lat="52.949456" lon="06.008182"><ele>6.5</ele><time>2021-03-19T12:43:14Z</time><name>PT9437</name></trkpt>
<trkpt lat="52.949453" lon="06.008167"><ele>6.5</ele><time>2021-03-19T12:43:14Z</time><name>PT9438</name></trkpt>
<trkpt lat="52.949450" lon="06.008162"><ele>6.5</ele><time>2021-03-19T12:43:16Z</time><name>PT9439</name></trkpt>
<trkpt lat="52.949445" lon="06.008110"><ele>6.6</ele><time>2021-03-19T12:43:22Z</time><name>PT9440</name></trkpt>
<trkpt lat="52.949443" lon="06.008077"><ele>6.6</ele><time>2021-03-19T12:43:23Z</time><name>PT9441</name></trkpt>
<trkpt lat="52.949444" lon="06.008050"><ele>6.7</ele><time>2021-03-19T12:43:23Z</time><name>PT9442</name></trkpt>
<trkpt lat="52.949448" lon="06.008028"><ele>6.7</ele><time>2021-03-19T12:43:25Z</time><name>PT9443</name></trkpt>
<trkpt lat="52.949450" lon="06.008017"><ele>6.7</ele><time>2021-03-19T12:43:26Z</time><name>PT9444</name></trkpt>
<trkpt lat="52.949451" lon="06.008007"><ele>6.6</ele><time>2021-03-19T12:43:26Z</time><name>PT9445</name></trkpt>
<trkpt lat="52.949453" lon="06.007994"><ele>6.7</ele><time>2021-03-19T12:43:28Z</time><name>PT9446</name></trkpt>
<trkpt lat="52.949455" lon="06.007984"><ele>6.7</ele><time>2021-03-19T12:43:29Z</time><name>PT9447</name></trkpt>
<trkpt lat="52.949458" lon="06.007975"><ele>6.8</ele><time>2021-03-19T12:43:29Z</time><name>PT9448</name></trkpt>
<trkpt lat="52.949459" lon="06.007961"><ele>6.8</ele><time>2021-03-19T12:43:31Z</time><name>PT9449</name></trkpt>
<trkpt lat="52.949463" lon="06.007948"><ele>6.8</ele><time>2021-03-19T12:43:31Z</time><name>PT9450</name></trkpt>
<trkpt lat="52.949465" lon="06.007934"><ele>6.7</ele><time>2021-03-19T12:43:33Z</time><name>PT9451</name></trkpt>
<trkpt lat="52.949466" lon="06.007916"><ele>6.8</ele><time>2021-03-19T12:43:34Z</time><name>PT9452</name></trkpt>
<trkpt lat="52.949462" lon="06.007895"><ele>6.8</ele><time>2021-03-19T12:43:34Z</time><name>PT9453</name></trkpt>
<trkpt lat="52.949467" lon="06.007874"><ele>6.9</ele><time>2021-03-19T12:43:36Z</time><name>PT9454</name></trkpt>
<trkpt lat="52.949461" lon="06.007855"><ele>7.1</ele><time>2021-03-19T12:43:37Z</time><name>PT9455</name></trkpt>
<trkpt lat="52.949458" lon="06.007841"><ele>7.1</ele><time>2021-03-19T12:43:37Z</time><name>PT9456</name></trkpt>
<trkpt lat="52.949454" lon="06.007826"><ele>6.9</ele><time>2021-03-19T12:43:39Z</time><name>PT9457</name></trkpt>
<trkpt lat="52.949452" lon="06.007815"><ele>6.8</ele><time>2021-03-19T12:43:39Z</time><name>PT9458</name></trkpt>
<trkpt lat="52.949451" lon="06.007803"><ele>6.9</ele><time>2021-03-19T12:43:41Z</time><name>PT9459</name></trkpt>
<trkpt lat="52.949448" lon="06.007793"><ele>6.7</ele><time>2021-03-19T12:43:42Z</time><name>PT9460</name></trkpt>
<trkpt lat="52.949453" lon="06.007785"><ele>6.7</ele><time>2021-03-19T12:43:42Z</time><name>PT9461</name></trkpt>
<trkpt lat="52.949456" lon="06.007777"><ele>6.6</ele><time>2021-03-19T12:43:44Z</time><name>PT9462</name></trkpt>
<trkpt lat="52.949460" lon="06.007767"><ele>6.6</ele><time>2021-03-19T12:43:44Z</time><name>PT9463</name></trkpt>
<trkpt lat="52.949460" lon="06.007759"><ele>6.5</ele><time>2021-03-19T12:43:46Z</time><name>PT9464</name></trkpt>
<trkpt lat="52.949463" lon="06.007747"><ele>6.5</ele><time>2021-03-19T12:43:46Z</time><name>PT9465</name></trkpt>
<trkpt lat="52.949466" lon="06.007736"><ele>6.5</ele><time>2021-03-19T12:43:48Z</time><name>PT9466</name></trkpt>
<trkpt lat="52.949468" lon="06.007727"><ele>6.6</ele><time>2021-03-19T12:43:49Z</time><name>PT9467</name></trkpt>
<trkpt lat="52.949474" lon="06.007715"><ele>6.6</ele><time>2021-03-19T12:43:49Z</time><name>PT9468</name></trkpt>
<trkpt lat="52.949478" lon="06.007705"><ele>6.5</ele><time>2021-03-19T12:43:51Z</time><name>PT9469</name></trkpt>
<trkpt lat="52.949479" lon="06.007695"><ele>6.5</ele><time>2021-03-19T12:43:52Z</time><name>PT9470</name></trkpt>
<trkpt lat="52.949482" lon="06.007684"><ele>6.3</ele><time>2021-03-19T12:43:52Z</time><name>PT9471</name></trkpt>
<trkpt lat="52.949487" lon="06.007678"><ele>6.3</ele><time>2021-03-19T12:43:54Z</time><name>PT9472</name></trkpt>
<trkpt lat="52.949496" lon="06.007672"><ele>6.2</ele><time>2021-03-19T12:43:55Z</time><name>PT9473</name></trkpt>
<trkpt lat="52.949501" lon="06.007665"><ele>6.3</ele><time>2021-03-19T12:43:55Z</time><name>PT9474</name></trkpt>
<trkpt lat="52.949504" lon="06.007658"><ele>6.3</ele><time>2021-03-19T12:43:57Z</time><name>PT9475</name></trkpt>
<trkpt lat="52.949505" lon="06.007651"><ele>6.3</ele><time>2021-03-19T12:43:58Z</time><name>PT9476</name></trkpt>
<trkpt lat="52.949508" lon="06.007646"><ele>6.4</ele><time>2021-03-19T12:43:58Z</time><name>PT9477</name></trkpt>
<trkpt lat="52.949510" lon="06.007641"><ele>6.4</ele><time>2021-03-19T12:44:00Z</time><name>PT9478</name></trkpt>
<trkpt lat="52.949512" lon="06.007635"><ele>6.3</ele><time>2021-03-19T12:44:01Z</time><name>PT9479</name></trkpt>
<trkpt lat="52.949519" lon="06.007629"><ele>6.3</ele><time>2021-03-19T12:44:01Z</time><name>PT9480</name></trkpt>
<trkpt lat="52.949527" lon="06.007625"><ele>6.3</ele><time>2021-03-19T12:44:03Z</time><name>PT9481</name></trkpt>
<trkpt lat="52.949535" lon="06.007618"><ele>6.2</ele><time>2021-03-19T12:44:04Z</time><name>PT9482</name></trkpt>
<trkpt lat="52.949543" lon="06.007611"><ele>6.2</ele><time>2021-03-19T12:44:04Z</time><name>PT9483</name></trkpt>
<trkpt lat="52.949549" lon="06.007603"><ele>6.2</ele><time>2021-03-19T12:44:06Z</time><name>PT9484</name></trkpt>
<trkpt lat="52.949555" lon="06.007598"><ele>6.2</ele><time>2021-03-19T12:44:07Z</time><name>PT9485</name></trkpt>
<trkpt lat="52.949563" lon="06.007593"><ele>6.1</ele><time>2021-03-19T12:44:07Z</time><name>PT9486</name></trkpt>
<trkpt lat="52.949580" lon="06.007592"><ele>6.1</ele><time>2021-03-19T12:44:09Z</time><name>PT9487</name></trkpt>
<trkpt lat="52.949592" lon="06.007585"><ele>6.1</ele><time>2021-03-19T12:44:10Z</time><name>PT9488</name></trkpt>
<trkpt lat="52.949605" lon="06.007575"><ele>6.2</ele><time>2021-03-19T12:44:10Z</time><name>PT9489</name></trkpt>
<trkpt lat="52.949613" lon="06.007565"><ele>6.3</ele><time>2021-03-19T12:44:12Z</time><name>PT9490</name></trkpt>
<trkpt lat="52.949618" lon="06.007557"><ele>6.3</ele><time>2021-03-19T12:44:12Z</time><name>PT9491</name></trkpt>
<trkpt lat="52.949628" lon="06.007554"><ele>6</ele><time>2021-03-19T12:44:14Z</time><name>PT9492</name></trkpt>
<trkpt lat="52.949634" lon="06.007545"><ele>5.9</ele><time>2021-03-19T12:44:15Z</time><name>PT9493</name></trkpt>
<trkpt lat="52.949639" lon="06.007531"><ele>5.9</ele><time>2021-03-19T12:44:15Z</time><name>PT9494</name></trkpt>
<trkpt lat="52.949645" lon="06.007524"><ele>5.8</ele><time>2021-03-19T12:44:17Z</time><name>PT9495</name></trkpt>
<trkpt lat="52.949651" lon="06.007514"><ele>5.8</ele><time>2021-03-19T12:44:18Z</time><name>PT9496</name></trkpt>
<trkpt lat="52.949660" lon="06.007503"><ele>5.6</ele><time>2021-03-19T12:44:18Z</time><name>PT9497</name></trkpt>
<trkpt lat="52.949669" lon="06.007495"><ele>5.5</ele><time>2021-03-19T12:44:20Z</time><name>PT9498</name></trkpt>
<trkpt lat="52.949673" lon="06.007487"><ele>5.6</ele><time>2021-03-19T12:44:21Z</time><name>PT9499</name></trkpt>
<trkpt lat="52.949681" lon="06.007480"><ele>5.8</ele><time>2021-03-19T12:44:21Z</time><name>PT9500</name></trkpt>
<trkpt lat="52.949682" lon="06.007476"><ele>5.9</ele><time>2021-03-19T12:44:23Z</time><name>PT9501</name></trkpt>
<trkpt lat="52.949688" lon="06.007470"><ele>5.9</ele><time>2021-03-19T12:44:23Z</time><name>PT9502</name></trkpt>
<trkpt lat="52.949694" lon="06.007465"><ele>6</ele><time>2021-03-19T12:44:25Z</time><name>PT9503</name></trkpt>
<trkpt lat="52.949703" lon="06.007458"><ele>5.9</ele><time>2021-03-19T12:44:26Z</time><name>PT9504</name></trkpt>
<trkpt lat="52.949709" lon="06.007449"><ele>5.9</ele><time>2021-03-19T12:44:26Z</time><name>PT9505</name></trkpt>
<trkpt lat="52.949720" lon="06.007438"><ele>6</ele><time>2021-03-19T12:44:28Z</time><name>PT9506</name></trkpt>
<trkpt lat="52.949729" lon="06.007425"><ele>6</ele><time>2021-03-19T12:44:29Z</time><name>PT9507</name></trkpt>
<trkpt lat="52.949735" lon="06.007413"><ele>5.9</ele><time>2021-03-19T12:44:29Z</time><name>PT9508</name></trkpt>
<trkpt lat="52.949740" lon="06.007404"><ele>5.9</ele><time>2021-03-19T12:44:31Z</time><name>PT9509</name></trkpt>
<trkpt lat="52.949745" lon="06.007396"><ele>5.9</ele><time>2021-03-19T12:44:31Z</time><name>PT9510</name></trkpt>
<trkpt lat="52.949761" lon="06.007390"><ele>5.8</ele><time>2021-03-19T12:44:33Z</time><name>PT9511</name></trkpt>
<trkpt lat="52.949767" lon="06.007384"><ele>5.9</ele><time>2021-03-19T12:44:34Z</time><name>PT9512</name></trkpt>
<trkpt lat="52.949776" lon="06.007380"><ele>5.9</ele><time>2021-03-19T12:44:34Z</time><name>PT9513</name></trkpt>
<trkpt lat="52.949786" lon="06.007369"><ele>5.9</ele><time>2021-03-19T12:44:36Z</time><name>PT9514</name></trkpt>
<trkpt lat="52.949792" lon="06.007356"><ele>6</ele><time>2021-03-19T12:44:36Z</time><name>PT9515</name></trkpt>
<trkpt lat="52.949800" lon="06.007346"><ele>5.8</ele><time>2021-03-19T12:44:38Z</time><name>PT9516</name></trkpt>
<trkpt lat="52.949809" lon="06.007333"><ele>5.6</ele><time>2021-03-19T12:44:39Z</time><name>PT9517</name></trkpt>
<trkpt lat="52.949815" lon="06.007318"><ele>5.6</ele><time>2021-03-19T12:44:39Z</time><name>PT9518</name></trkpt>
<trkpt lat="52.949825" lon="06.007307"><ele>5.5</ele><time>2021-03-19T12:44:41Z</time><name>PT9519</name></trkpt>
<trkpt lat="52.949833" lon="06.007303"><ele>5.5</ele><time>2021-03-19T12:44:42Z</time><name>PT9520</name></trkpt>
<trkpt lat="52.949839" lon="06.007296"><ele>5.5</ele><time>2021-03-19T12:44:42Z</time><name>PT9521</name></trkpt>
<trkpt lat="52.949847" lon="06.007288"><ele>5.7</ele><time>2021-03-19T12:44:44Z</time><name>PT9522</name></trkpt>
<trkpt lat="52.949858" lon="06.007275"><ele>5.6</ele><time>2021-03-19T12:44:45Z</time><name>PT9523</name></trkpt>
<trkpt lat="52.949869" lon="06.007273"><ele>5.6</ele><time>2021-03-19T12:44:45Z</time><name>PT9524</name></trkpt>
<trkpt lat="52.949872" lon="06.007265"><ele>5.8</ele><time>2021-03-19T12:44:47Z</time><name>PT9525</name></trkpt>
<trkpt lat="52.949874" lon="06.007259"><ele>6</ele><time>2021-03-19T12:44:48Z</time><name>PT9526</name></trkpt>
<trkpt lat="52.949883" lon="06.007256"><ele>5.9</ele><time>2021-03-19T12:44:48Z</time><name>PT9527</name></trkpt>
<trkpt lat="52.949895" lon="06.007249"><ele>6</ele><time>2021-03-19T12:44:50Z</time><name>PT9528</name></trkpt>
<trkpt lat="52.949905" lon="06.007242"><ele>6.1</ele><time>2021-03-19T12:44:50Z</time><name>PT9529</name></trkpt>
<trkpt lat="52.949913" lon="06.007236"><ele>6.1</ele><time>2021-03-19T12:44:52Z</time><name>PT9530</name></trkpt>
<trkpt lat="52.949924" lon="06.007228"><ele>6</ele><time>2021-03-19T12:44:53Z</time><name>PT9531</name></trkpt>
<trkpt lat="52.949939" lon="06.007215"><ele>5.9</ele><time>2021-03-19T12:44:53Z</time><name>PT9532</name></trkpt>
<trkpt lat="52.949950" lon="06.007207"><ele>6</ele><time>2021-03-19T12:44:55Z</time><name>PT9533</name></trkpt>
<trkpt lat="52.949956" lon="06.007200"><ele>6</ele><time>2021-03-19T12:44:55Z</time><name>PT9534</name></trkpt>
<trkpt lat="52.949965" lon="06.007189"><ele>5.9</ele><time>2021-03-19T12:44:57Z</time><name>PT9535</name></trkpt>
<trkpt lat="52.949975" lon="06.007184"><ele>5.9</ele><time>2021-03-19T12:44:57Z</time><name>PT9536</name></trkpt>
<trkpt lat="52.949994" lon="06.007169"><ele>5.9</ele><time>2021-03-19T12:44:59Z</time><name>PT9537</name></trkpt>
<trkpt lat="52.950003" lon="06.007156"><ele>5.6</ele><time>2021-03-19T12:44:59Z</time><name>PT9538</name></trkpt>
<trkpt lat="52.950013" lon="06.007149"><ele>5.5</ele><time>2021-03-19T12:45:01Z</time><name>PT9539</name></trkpt>
<trkpt lat="52.950024" lon="06.007140"><ele>5.5</ele><time>2021-03-19T12:45:01Z</time><name>PT9540</name></trkpt>
<trkpt lat="52.950033" lon="06.007125"><ele>5.5</ele><time>2021-03-19T12:45:03Z</time><name>PT9541</name></trkpt>
<trkpt lat="52.950042" lon="06.007114"><ele>5.4</ele><time>2021-03-19T12:45:04Z</time><name>PT9542</name></trkpt>
<trkpt lat="52.950046" lon="06.007106"><ele>5.5</ele><time>2021-03-19T12:45:04Z</time><name>PT9543</name></trkpt>
<trkpt lat="52.950057" lon="06.007096"><ele>5.5</ele><time>2021-03-19T12:45:06Z</time><name>PT9544</name></trkpt>
<trkpt lat="52.950072" lon="06.007083"><ele>5.4</ele><time>2021-03-19T12:45:06Z</time><name>PT9545</name></trkpt>
<trkpt lat="52.950080" lon="06.007078"><ele>5.4</ele><time>2021-03-19T12:45:08Z</time><name>PT9546</name></trkpt>
<trkpt lat="52.950085" lon="06.007065"><ele>5.6</ele><time>2021-03-19T12:45:09Z</time><name>PT9547</name></trkpt>
<trkpt lat="52.950093" lon="06.007054"><ele>5.6</ele><time>2021-03-19T12:45:09Z</time><name>PT9548</name></trkpt>
<trkpt lat="52.950096" lon="06.007045"><ele>5.9</ele><time>2021-03-19T12:45:11Z</time><name>PT9549</name></trkpt>
<trkpt lat="52.950109" lon="06.007035"><ele>5.9</ele><time>2021-03-19T12:45:12Z</time><name>PT9550</name></trkpt>
<trkpt lat="52.950118" lon="06.007028"><ele>5.9</ele><time>2021-03-19T12:45:12Z</time><name>PT9551</name></trkpt>
<trkpt lat="52.950128" lon="06.007020"><ele>5.9</ele><time>2021-03-19T12:45:14Z</time><name>PT9552</name></trkpt>
<trkpt lat="52.950135" lon="06.007011"><ele>5.9</ele><time>2021-03-19T12:45:14Z</time><name>PT9553</name></trkpt>
<trkpt lat="52.950144" lon="06.006998"><ele>5.8</ele><time>2021-03-19T12:45:16Z</time><name>PT9554</name></trkpt>
<trkpt lat="52.950153" lon="06.006986"><ele>5.9</ele><time>2021-03-19T12:45:17Z</time><name>PT9555</name></trkpt>
<trkpt lat="52.950167" lon="06.006971"><ele>6</ele><time>2021-03-19T12:45:17Z</time><name>PT9556</name></trkpt>
<trkpt lat="52.950176" lon="06.006960"><ele>6.1</ele><time>2021-03-19T12:45:19Z</time><name>PT9557</name></trkpt>
<trkpt lat="52.950184" lon="06.006950"><ele>6</ele><time>2021-03-19T12:45:19Z</time><name>PT9558</name></trkpt>
<trkpt lat="52.950187" lon="06.006943"><ele>6.2</ele><time>2021-03-19T12:45:21Z</time><name>PT9559</name></trkpt>
<trkpt lat="52.950193" lon="06.006934"><ele>6</ele><time>2021-03-19T12:45:22Z</time><name>PT9560</name></trkpt>
<trkpt lat="52.950205" lon="06.006915"><ele>5.8</ele><time>2021-03-19T12:45:22Z</time><name>PT9561</name></trkpt>
<trkpt lat="52.950213" lon="06.006913"><ele>5.6</ele><time>2021-03-19T12:45:24Z</time><name>PT9562</name></trkpt>
<trkpt lat="52.950221" lon="06.006905"><ele>5.6</ele><time>2021-03-19T12:45:24Z</time><name>PT9563</name></trkpt>
<trkpt lat="52.950232" lon="06.006893"><ele>5.4</ele><time>2021-03-19T12:45:26Z</time><name>PT9564</name></trkpt>
<trkpt lat="52.950241" lon="06.006876"><ele>5.4</ele><time>2021-03-19T12:45:27Z</time><name>PT9565</name></trkpt>
<trkpt lat="52.950246" lon="06.006858"><ele>5.5</ele><time>2021-03-19T12:45:27Z</time><name>PT9566</name></trkpt>
<trkpt lat="52.950251" lon="06.006845"><ele>5.6</ele><time>2021-03-19T12:45:29Z</time><name>PT9567</name></trkpt>
<trkpt lat="52.950251" lon="06.006830"><ele>5.7</ele><time>2021-03-19T12:45:29Z</time><name>PT9568</name></trkpt>
<trkpt lat="52.950256" lon="06.006810"><ele>5.7</ele><time>2021-03-19T12:45:31Z</time><name>PT9569</name></trkpt>
<trkpt lat="52.950267" lon="06.006790"><ele>5.6</ele><time>2021-03-19T12:45:32Z</time><name>PT9570</name></trkpt>
<trkpt lat="52.950263" lon="06.006775"><ele>5.6</ele><time>2021-03-19T12:45:32Z</time><name>PT9571</name></trkpt>
<trkpt lat="52.950269" lon="06.006760"><ele>5.4</ele><time>2021-03-19T12:45:34Z</time><name>PT9572</name></trkpt>
<trkpt lat="52.950275" lon="06.006741"><ele>5.4</ele><time>2021-03-19T12:45:34Z</time><name>PT9573</name></trkpt>
<trkpt lat="52.950280" lon="06.006720"><ele>5.6</ele><time>2021-03-19T12:45:36Z</time><name>PT9574</name></trkpt>
<trkpt lat="52.950283" lon="06.006704"><ele>5.5</ele><time>2021-03-19T12:45:36Z</time><name>PT9575</name></trkpt>
<trkpt lat="52.950290" lon="06.006690"><ele>5.5</ele><time>2021-03-19T12:45:38Z</time><name>PT9576</name></trkpt>
<trkpt lat="52.950289" lon="06.006673"><ele>5.5</ele><time>2021-03-19T12:45:39Z</time><name>PT9577</name></trkpt>
<trkpt lat="52.950292" lon="06.006658"><ele>5.4</ele><time>2021-03-19T12:45:39Z</time><name>PT9578</name></trkpt>
<trkpt lat="52.950295" lon="06.006641"><ele>5.6</ele><time>2021-03-19T12:45:41Z</time><name>PT9579</name></trkpt>
<trkpt lat="52.950296" lon="06.006625"><ele>5.6</ele><time>2021-03-19T12:45:41Z</time><name>PT9580</name></trkpt>
<trkpt lat="52.950297" lon="06.006617"><ele>5.7</ele><time>2021-03-19T12:45:43Z</time><name>PT9581</name></trkpt>
<trkpt lat="52.950297" lon="06.006604"><ele>5.9</ele><time>2021-03-19T12:45:43Z</time><name>PT9582</name></trkpt>
<trkpt lat="52.950295" lon="06.006590"><ele>5.9</ele><time>2021-03-19T12:45:45Z</time><name>PT9583</name></trkpt>
<trkpt lat="52.950295" lon="06.006578"><ele>6</ele><time>2021-03-19T12:45:46Z</time><name>PT9584</name></trkpt>
<trkpt lat="52.950296" lon="06.006565"><ele>5.9</ele><time>2021-03-19T12:45:46Z</time><name>PT9585</name></trkpt>
<trkpt lat="52.950293" lon="06.006549"><ele>5.9</ele><time>2021-03-19T12:45:48Z</time><name>PT9586</name></trkpt>
<trkpt lat="52.950291" lon="06.006532"><ele>5.9</ele><time>2021-03-19T12:45:48Z</time><name>PT9587</name></trkpt>
<trkpt lat="52.950289" lon="06.006513"><ele>6</ele><time>2021-03-19T12:45:50Z</time><name>PT9588</name></trkpt>
<trkpt lat="52.950287" lon="06.006498"><ele>6.1</ele><time>2021-03-19T12:45:51Z</time><name>PT9589</name></trkpt>
<trkpt lat="52.950284" lon="06.006485"><ele>6</ele><time>2021-03-19T12:45:51Z</time><name>PT9590</name></trkpt>
<trkpt lat="52.950275" lon="06.006469"><ele>6.1</ele><time>2021-03-19T12:45:53Z</time><name>PT9591</name></trkpt>
<trkpt lat="52.950268" lon="06.006456"><ele>5.9</ele><time>2021-03-19T12:45:54Z</time><name>PT9592</name></trkpt>
<trkpt lat="52.950261" lon="06.006444"><ele>5.9</ele><time>2021-03-19T12:45:54Z</time><name>PT9593</name></trkpt>
<trkpt lat="52.950260" lon="06.006430"><ele>5.9</ele><time>2021-03-19T12:45:56Z</time><name>PT9594</name></trkpt>
<trkpt lat="52.950257" lon="06.006418"><ele>5.9</ele><time>2021-03-19T12:45:57Z</time><name>PT9595</name></trkpt>
<trkpt lat="52.950254" lon="06.006409"><ele>5.9</ele><time>2021-03-19T12:45:57Z</time><name>PT9596</name></trkpt>
<trkpt lat="52.950250" lon="06.006399"><ele>6.1</ele><time>2021-03-19T12:45:59Z</time><name>PT9597</name></trkpt>
<trkpt lat="52.950249" lon="06.006390"><ele>6</ele><time>2021-03-19T12:46:00Z</time><name>PT9598</name></trkpt>
<trkpt lat="52.950242" lon="06.006379"><ele>6</ele><time>2021-03-19T12:46:00Z</time><name>PT9599</name></trkpt>
<trkpt lat="52.950239" lon="06.006369"><ele>6</ele><time>2021-03-19T12:46:02Z</time><name>PT9600</name></trkpt>
<trkpt lat="52.950240" lon="06.006363"><ele>5.9</ele><time>2021-03-19T12:46:03Z</time><name>PT9601</name></trkpt>
<trkpt lat="52.950239" lon="06.006359"><ele>5.9</ele><time>2021-03-19T12:46:03Z</time><name>PT9602</name></trkpt>
<trkpt lat="52.950235" lon="06.006317"><ele>6.3</ele><time>2021-03-19T12:46:12Z</time><name>PT9603</name></trkpt>
<trkpt lat="52.950235" lon="06.006295"><ele>6.3</ele><time>2021-03-19T12:46:13Z</time><name>PT9604</name></trkpt>
<trkpt lat="52.950234" lon="06.006277"><ele>6.3</ele><time>2021-03-19T12:46:13Z</time><name>PT9605</name></trkpt>
<trkpt lat="52.950232" lon="06.006263"><ele>6.3</ele><time>2021-03-19T12:46:15Z</time><name>PT9606</name></trkpt>
<trkpt lat="52.950226" lon="06.006246"><ele>6.4</ele><time>2021-03-19T12:46:15Z</time><name>PT9607</name></trkpt>
<trkpt lat="52.950227" lon="06.006233"><ele>6.6</ele><time>2021-03-19T12:46:17Z</time><name>PT9608</name></trkpt>
<trkpt lat="52.950225" lon="06.006221"><ele>6.5</ele><time>2021-03-19T12:46:18Z</time><name>PT9609</name></trkpt>
<trkpt lat="52.950222" lon="06.006209"><ele>6.5</ele><time>2021-03-19T12:46:18Z</time><name>PT9610</name></trkpt>
<trkpt lat="52.950221" lon="06.006203"><ele>6.4</ele><time>2021-03-19T12:46:20Z</time><name>PT9611</name></trkpt>
<trkpt lat="52.950216" lon="06.006197"><ele>6.3</ele><time>2021-03-19T12:46:20Z</time><name>PT9612</name></trkpt>
<trkpt lat="52.950214" lon="06.006195"><ele>6.2</ele><time>2021-03-19T12:46:22Z</time><name>PT9613</name></trkpt>
<trkpt lat="52.950210" lon="06.006192"><ele>6</ele><time>2021-03-19T12:46:23Z</time><name>PT9614</name></trkpt>
<trkpt lat="52.950208" lon="06.006188"><ele>5.9</ele><time>2021-03-19T12:46:26Z</time><name>PT9615</name></trkpt>
<trkpt lat="52.950211" lon="06.006176"><ele>6.1</ele><time>2021-03-19T12:46:26Z</time><name>PT9616</name></trkpt>
<trkpt lat="52.950214" lon="06.006167"><ele>6</ele><time>2021-03-19T12:46:28Z</time><name>PT9617</name></trkpt>
<trkpt lat="52.950216" lon="06.006159"><ele>6</ele><time>2021-03-19T12:46:29Z</time><name>PT9618</name></trkpt>
<trkpt lat="52.950220" lon="06.006149"><ele>6</ele><time>2021-03-19T12:46:29Z</time><name>PT9619</name></trkpt>
<trkpt lat="52.950222" lon="06.006143"><ele>5.9</ele><time>2021-03-19T12:46:31Z</time><name>PT9620</name></trkpt>
<trkpt lat="52.950227" lon="06.006141"><ele>6</ele><time>2021-03-19T12:46:31Z</time><name>PT9621</name></trkpt>
<trkpt lat="52.950230" lon="06.006136"><ele>5.9</ele><time>2021-03-19T12:46:33Z</time><name>PT9622</name></trkpt>
<trkpt lat="52.950231" lon="06.006129"><ele>6</ele><time>2021-03-19T12:46:33Z</time><name>PT9623</name></trkpt>
<trkpt lat="52.950232" lon="06.006120"><ele>6.1</ele><time>2021-03-19T12:46:35Z</time><name>PT9624</name></trkpt>
<trkpt lat="52.950237" lon="06.006111"><ele>6.1</ele><time>2021-03-19T12:46:36Z</time><name>PT9625</name></trkpt>
<trkpt lat="52.950236" lon="06.006105"><ele>6.1</ele><time>2021-03-19T12:46:36Z</time><name>PT9626</name></trkpt>
<trkpt lat="52.950237" lon="06.006104"><ele>6.2</ele><time>2021-03-19T12:46:38Z</time><name>PT9627</name></trkpt>
<trkpt lat="52.950236" lon="06.006104"><ele>6.1</ele><time>2021-03-19T12:46:39Z</time><name>PT9628</name></trkpt>
<trkpt lat="52.950236" lon="06.006096"><ele>6</ele><time>2021-03-19T12:46:39Z</time><name>PT9629</name></trkpt>
<trkpt lat="52.950238" lon="06.006094"><ele>6.2</ele><time>2021-03-19T12:46:41Z</time><name>PT9630</name></trkpt>
<trkpt lat="52.950242" lon="06.006090"><ele>6.3</ele><time>2021-03-19T12:46:41Z</time><name>PT9631</name></trkpt>
<trkpt lat="52.950244" lon="06.006082"><ele>6.2</ele><time>2021-03-19T12:46:43Z</time><name>PT9632</name></trkpt>
<trkpt lat="52.950251" lon="06.006082"><ele>6.3</ele><time>2021-03-19T12:46:43Z</time><name>PT9633</name></trkpt>
<trkpt lat="52.950254" lon="06.006080"><ele>6.2</ele><time>2021-03-19T12:46:45Z</time><name>PT9634</name></trkpt>
<trkpt lat="52.950255" lon="06.006072"><ele>6.2</ele><time>2021-03-19T12:46:45Z</time><name>PT9635</name></trkpt>
<trkpt lat="52.950259" lon="06.006066"><ele>6.3</ele><time>2021-03-19T12:46:47Z</time><name>PT9636</name></trkpt>
<trkpt lat="52.950265" lon="06.006062"><ele>6.2</ele><time>2021-03-19T12:46:47Z</time><name>PT9637</name></trkpt>
<trkpt lat="52.950269" lon="06.006057"><ele>6</ele><time>2021-03-19T12:46:49Z</time><name>PT9638</name></trkpt>
<trkpt lat="52.950278" lon="06.006051"><ele>6</ele><time>2021-03-19T12:46:49Z</time><name>PT9639</name></trkpt>
<trkpt lat="52.950283" lon="06.006045"><ele>5.9</ele><time>2021-03-19T12:46:51Z</time><name>PT9640</name></trkpt>
<trkpt lat="52.950287" lon="06.006038"><ele>5.8</ele><time>2021-03-19T12:46:52Z</time><name>PT9641</name></trkpt>
<trkpt lat="52.950292" lon="06.006031"><ele>5.7</ele><time>2021-03-19T12:46:52Z</time><name>PT9642</name></trkpt>
<trkpt lat="52.950298" lon="06.006025"><ele>5.9</ele><time>2021-03-19T12:46:54Z</time><name>PT9643</name></trkpt>
<trkpt lat="52.950305" lon="06.006015"><ele>5.8</ele><time>2021-03-19T12:46:55Z</time><name>PT9644</name></trkpt>
<trkpt lat="52.950311" lon="06.006003"><ele>5.7</ele><time>2021-03-19T12:46:55Z</time><name>PT9645</name></trkpt>
<trkpt lat="52.950315" lon="06.005995"><ele>5.7</ele><time>2021-03-19T12:46:57Z</time><name>PT9646</name></trkpt>
<trkpt lat="52.950320" lon="06.005988"><ele>5.5</ele><time>2021-03-19T12:46:58Z</time><name>PT9647</name></trkpt>
<trkpt lat="52.950325" lon="06.005980"><ele>5.5</ele><time>2021-03-19T12:46:58Z</time><name>PT9648</name></trkpt>
<trkpt lat="52.950330" lon="06.005972"><ele>5.7</ele><time>2021-03-19T12:47:00Z</time><name>PT9649</name></trkpt>
<trkpt lat="52.950335" lon="06.005963"><ele>5.7</ele><time>2021-03-19T12:47:01Z</time><name>PT9650</name></trkpt>
<trkpt lat="52.950342" lon="06.005953"><ele>5.7</ele><time>2021-03-19T12:47:01Z</time><name>PT9651</name></trkpt>
<trkpt lat="52.950348" lon="06.005943"><ele>5.9</ele><time>2021-03-19T12:47:03Z</time><name>PT9652</name></trkpt>
<trkpt lat="52.950354" lon="06.005935"><ele>6</ele><time>2021-03-19T12:47:03Z</time><name>PT9653</name></trkpt>
<trkpt lat="52.950360" lon="06.005929"><ele>5.9</ele><time>2021-03-19T12:47:05Z</time><name>PT9654</name></trkpt>
<trkpt lat="52.950369" lon="06.005925"><ele>5.9</ele><time>2021-03-19T12:47:06Z</time><name>PT9655</name></trkpt>
<trkpt lat="52.950379" lon="06.005920"><ele>5.7</ele><time>2021-03-19T12:47:06Z</time><name>PT9656</name></trkpt>
<trkpt lat="52.950387" lon="06.005912"><ele>5.9</ele><time>2021-03-19T12:47:08Z</time><name>PT9657</name></trkpt>
<trkpt lat="52.950389" lon="06.005909"><ele>5.9</ele><time>2021-03-19T12:47:08Z</time><name>PT9658</name></trkpt>
<trkpt lat="52.950396" lon="06.005905"><ele>6</ele><time>2021-03-19T12:47:10Z</time><name>PT9659</name></trkpt>
<trkpt lat="52.950404" lon="06.005900"><ele>6.3</ele><time>2021-03-19T12:47:11Z</time><name>PT9660</name></trkpt>
<trkpt lat="52.950409" lon="06.005894"><ele>6.4</ele><time>2021-03-19T12:47:11Z</time><name>PT9661</name></trkpt>
<trkpt lat="52.950413" lon="06.005891"><ele>6.5</ele><time>2021-03-19T12:47:13Z</time><name>PT9662</name></trkpt>
<trkpt lat="52.950420" lon="06.005884"><ele>6.3</ele><time>2021-03-19T12:47:14Z</time><name>PT9663</name></trkpt>
<trkpt lat="52.950426" lon="06.005873"><ele>6.3</ele><time>2021-03-19T12:47:14Z</time><name>PT9664</name></trkpt>
<trkpt lat="52.950433" lon="06.005862"><ele>6.1</ele><time>2021-03-19T12:47:16Z</time><name>PT9665</name></trkpt>
<trkpt lat="52.950439" lon="06.005855"><ele>6</ele><time>2021-03-19T12:47:17Z</time><name>PT9666</name></trkpt>
<trkpt lat="52.950448" lon="06.005845"><ele>5.9</ele><time>2021-03-19T12:47:17Z</time><name>PT9667</name></trkpt>
<trkpt lat="52.950457" lon="06.005838"><ele>5.9</ele><time>2021-03-19T12:47:19Z</time><name>PT9668</name></trkpt>
<trkpt lat="52.950467" lon="06.005827"><ele>6.1</ele><time>2021-03-19T12:47:20Z</time><name>PT9669</name></trkpt>
<trkpt lat="52.950475" lon="06.005814"><ele>6</ele><time>2021-03-19T12:47:20Z</time><name>PT9670</name></trkpt>
<trkpt lat="52.950483" lon="06.005805"><ele>6.1</ele><time>2021-03-19T12:47:22Z</time><name>PT9671</name></trkpt>
<trkpt lat="52.950491" lon="06.005798"><ele>6.1</ele><time>2021-03-19T12:47:22Z</time><name>PT9672</name></trkpt>
<trkpt lat="52.950496" lon="06.005795"><ele>6.2</ele><time>2021-03-19T12:47:24Z</time><name>PT9673</name></trkpt>
<trkpt lat="52.950502" lon="06.005791"><ele>6</ele><time>2021-03-19T12:47:25Z</time><name>PT9674</name></trkpt>
<trkpt lat="52.950513" lon="06.005776"><ele>5.9</ele><time>2021-03-19T12:47:25Z</time><name>PT9675</name></trkpt>
<trkpt lat="52.950520" lon="06.005770"><ele>5.8</ele><time>2021-03-19T12:47:27Z</time><name>PT9676</name></trkpt>
<trkpt lat="52.950530" lon="06.005766"><ele>5.7</ele><time>2021-03-19T12:47:27Z</time><name>PT9677</name></trkpt>
<trkpt lat="52.950545" lon="06.005760"><ele>5.8</ele><time>2021-03-19T12:47:29Z</time><name>PT9678</name></trkpt>
<trkpt lat="52.950556" lon="06.005755"><ele>5.9</ele><time>2021-03-19T12:47:29Z</time><name>PT9679</name></trkpt>
<trkpt lat="52.950564" lon="06.005748"><ele>5.8</ele><time>2021-03-19T12:47:31Z</time><name>PT9680</name></trkpt>
<trkpt lat="52.950571" lon="06.005741"><ele>5.9</ele><time>2021-03-19T12:47:31Z</time><name>PT9681</name></trkpt>
<trkpt lat="52.950578" lon="06.005736"><ele>5.9</ele><time>2021-03-19T12:47:33Z</time><name>PT9682</name></trkpt>
<trkpt lat="52.950587" lon="06.005729"><ele>5.9</ele><time>2021-03-19T12:47:34Z</time><name>PT9683</name></trkpt>
<trkpt lat="52.950594" lon="06.005722"><ele>5.8</ele><time>2021-03-19T12:47:34Z</time><name>PT9684</name></trkpt>
<trkpt lat="52.950598" lon="06.005715"><ele>5.8</ele><time>2021-03-19T12:47:36Z</time><name>PT9685</name></trkpt>
<trkpt lat="52.950608" lon="06.005713"><ele>5.9</ele><time>2021-03-19T12:47:37Z</time><name>PT9686</name></trkpt>
<trkpt lat="52.950614" lon="06.005711"><ele>5.9</ele><time>2021-03-19T12:47:37Z</time><name>PT9687</name></trkpt>
<trkpt lat="52.950619" lon="06.005703"><ele>5.9</ele><time>2021-03-19T12:47:39Z</time><name>PT9688</name></trkpt>
<trkpt lat="52.950632" lon="06.005691"><ele>6</ele><time>2021-03-19T12:47:39Z</time><name>PT9689</name></trkpt>
<trkpt lat="52.950640" lon="06.005679"><ele>6</ele><time>2021-03-19T12:47:41Z</time><name>PT9690</name></trkpt>
<trkpt lat="52.950645" lon="06.005669"><ele>5.9</ele><time>2021-03-19T12:47:42Z</time><name>PT9691</name></trkpt>
<trkpt lat="52.950653" lon="06.005661"><ele>5.9</ele><time>2021-03-19T12:47:42Z</time><name>PT9692</name></trkpt>
<trkpt lat="52.950659" lon="06.005654"><ele>6.1</ele><time>2021-03-19T12:47:44Z</time><name>PT9693</name></trkpt>
<trkpt lat="52.950669" lon="06.005643"><ele>5.9</ele><time>2021-03-19T12:47:45Z</time><name>PT9694</name></trkpt>
<trkpt lat="52.950677" lon="06.005635"><ele>5.9</ele><time>2021-03-19T12:47:45Z</time><name>PT9695</name></trkpt>
<trkpt lat="52.950683" lon="06.005627"><ele>5.9</ele><time>2021-03-19T12:47:47Z</time><name>PT9696</name></trkpt>
<trkpt lat="52.950694" lon="06.005618"><ele>5.8</ele><time>2021-03-19T12:47:47Z</time><name>PT9697</name></trkpt>
<trkpt lat="52.950705" lon="06.005614"><ele>5.5</ele><time>2021-03-19T12:47:49Z</time><name>PT9698</name></trkpt>
<trkpt lat="52.950711" lon="06.005605"><ele>5.7</ele><time>2021-03-19T12:47:50Z</time><name>PT9699</name></trkpt>
<trkpt lat="52.950719" lon="06.005595"><ele>5.5</ele><time>2021-03-19T12:47:50Z</time><name>PT9700</name></trkpt>
<trkpt lat="52.950730" lon="06.005584"><ele>5.7</ele><time>2021-03-19T12:47:52Z</time><name>PT9701</name></trkpt>
<trkpt lat="52.950740" lon="06.005572"><ele>5.9</ele><time>2021-03-19T12:47:52Z</time><name>PT9702</name></trkpt>
<trkpt lat="52.950748" lon="06.005560"><ele>6</ele><time>2021-03-19T12:47:54Z</time><name>PT9703</name></trkpt>
<trkpt lat="52.950758" lon="06.005547"><ele>6</ele><time>2021-03-19T12:47:55Z</time><name>PT9704</name></trkpt>
<trkpt lat="52.950765" lon="06.005539"><ele>6</ele><time>2021-03-19T12:47:55Z</time><name>PT9705</name></trkpt>
<trkpt lat="52.950770" lon="06.005530"><ele>5.9</ele><time>2021-03-19T12:47:57Z</time><name>PT9706</name></trkpt>
<trkpt lat="52.950776" lon="06.005524"><ele>5.9</ele><time>2021-03-19T12:47:57Z</time><name>PT9707</name></trkpt>
<trkpt lat="52.950788" lon="06.005510"><ele>5.8</ele><time>2021-03-19T12:47:59Z</time><name>PT9708</name></trkpt>
<trkpt lat="52.950800" lon="06.005496"><ele>5.7</ele><time>2021-03-19T12:48:00Z</time><name>PT9709</name></trkpt>
<trkpt lat="52.950811" lon="06.005488"><ele>5.7</ele><time>2021-03-19T12:48:00Z</time><name>PT9710</name></trkpt>
<trkpt lat="52.950822" lon="06.005480"><ele>5.9</ele><time>2021-03-19T12:48:02Z</time><name>PT9711</name></trkpt>
<trkpt lat="52.950832" lon="06.005473"><ele>5.9</ele><time>2021-03-19T12:48:02Z</time><name>PT9712</name></trkpt>
<trkpt lat="52.950840" lon="06.005466"><ele>5.8</ele><time>2021-03-19T12:48:04Z</time><name>PT9713</name></trkpt>
<trkpt lat="52.950850" lon="06.005462"><ele>5.9</ele><time>2021-03-19T12:48:05Z</time><name>PT9714</name></trkpt>
<trkpt lat="52.950860" lon="06.005454"><ele>6</ele><time>2021-03-19T12:48:05Z</time><name>PT9715</name></trkpt>
<trkpt lat="52.950868" lon="06.005445"><ele>5.8</ele><time>2021-03-19T12:48:07Z</time><name>PT9716</name></trkpt>
<trkpt lat="52.950872" lon="06.005437"><ele>5.6</ele><time>2021-03-19T12:48:07Z</time><name>PT9717</name></trkpt>
<trkpt lat="52.950880" lon="06.005429"><ele>5.7</ele><time>2021-03-19T12:48:09Z</time><name>PT9718</name></trkpt>
<trkpt lat="52.950892" lon="06.005415"><ele>5.5</ele><time>2021-03-19T12:48:09Z</time><name>PT9719</name></trkpt>
<trkpt lat="52.950898" lon="06.005405"><ele>5.7</ele><time>2021-03-19T12:48:11Z</time><name>PT9720</name></trkpt>
<trkpt lat="52.950906" lon="06.005400"><ele>5.6</ele><time>2021-03-19T12:48:11Z</time><name>PT9721</name></trkpt>
<trkpt lat="52.950912" lon="06.005391"><ele>5.5</ele><time>2021-03-19T12:48:13Z</time><name>PT9722</name></trkpt>
<trkpt lat="52.950922" lon="06.005385"><ele>5.7</ele><time>2021-03-19T12:48:13Z</time><name>PT9723</name></trkpt>
<trkpt lat="52.950926" lon="06.005376"><ele>5.7</ele><time>2021-03-19T12:48:15Z</time><name>PT9724</name></trkpt>
<trkpt lat="52.950935" lon="06.005368"><ele>5.9</ele><time>2021-03-19T12:48:16Z</time><name>PT9725</name></trkpt>
<trkpt lat="52.950944" lon="06.005356"><ele>5.9</ele><time>2021-03-19T12:48:16Z</time><name>PT9726</name></trkpt>
<trkpt lat="52.950953" lon="06.005347"><ele>6.1</ele><time>2021-03-19T12:48:18Z</time><name>PT9727</name></trkpt>
<trkpt lat="52.950965" lon="06.005336"><ele>6.3</ele><time>2021-03-19T12:48:18Z</time><name>PT9728</name></trkpt>
<trkpt lat="52.950978" lon="06.005323"><ele>6.3</ele><time>2021-03-19T12:48:20Z</time><name>PT9729</name></trkpt>
<trkpt lat="52.950981" lon="06.005315"><ele>6.3</ele><time>2021-03-19T12:48:21Z</time><name>PT9730</name></trkpt>
<trkpt lat="52.950989" lon="06.005310"><ele>6.2</ele><time>2021-03-19T12:48:21Z</time><name>PT9731</name></trkpt>
<trkpt lat="52.950998" lon="06.005301"><ele>6</ele><time>2021-03-19T12:48:23Z</time><name>PT9732</name></trkpt>
<trkpt lat="52.951009" lon="06.005290"><ele>6</ele><time>2021-03-19T12:48:24Z</time><name>PT9733</name></trkpt>
<trkpt lat="52.951016" lon="06.005283"><ele>5.9</ele><time>2021-03-19T12:48:24Z</time><name>PT9734</name></trkpt>
<trkpt lat="52.951025" lon="06.005271"><ele>5.9</ele><time>2021-03-19T12:48:26Z</time><name>PT9735</name></trkpt>
<trkpt lat="52.951037" lon="06.005262"><ele>5.9</ele><time>2021-03-19T12:48:26Z</time><name>PT9736</name></trkpt>
<trkpt lat="52.951046" lon="06.005253"><ele>5.9</ele><time>2021-03-19T12:48:28Z</time><name>PT9737</name></trkpt>
<trkpt lat="52.951052" lon="06.005248"><ele>5.7</ele><time>2021-03-19T12:48:29Z</time><name>PT9738</name></trkpt>
<trkpt lat="52.951060" lon="06.005242"><ele>5.6</ele><time>2021-03-19T12:48:30Z</time><name>PT9739</name></trkpt>
<trkpt lat="52.951071" lon="06.005234"><ele>5.7</ele><time>2021-03-19T12:48:31Z</time><name>PT9740</name></trkpt>
<trkpt lat="52.951079" lon="06.005228"><ele>5.8</ele><time>2021-03-19T12:48:31Z</time><name>PT9741</name></trkpt>
<trkpt lat="52.951089" lon="06.005222"><ele>5.9</ele><time>2021-03-19T12:48:33Z</time><name>PT9742</name></trkpt>
<trkpt lat="52.951099" lon="06.005214"><ele>6.1</ele><time>2021-03-19T12:48:34Z</time><name>PT9743</name></trkpt>
<trkpt lat="52.951108" lon="06.005203"><ele>6</ele><time>2021-03-19T12:48:34Z</time><name>PT9744</name></trkpt>
<trkpt lat="52.951119" lon="06.005190"><ele>6</ele><time>2021-03-19T12:48:36Z</time><name>PT9745</name></trkpt>
<trkpt lat="52.951128" lon="06.005182"><ele>6.2</ele><time>2021-03-19T12:48:37Z</time><name>PT9746</name></trkpt>
<trkpt lat="52.951138" lon="06.005172"><ele>6.1</ele><time>2021-03-19T12:48:37Z</time><name>PT9747</name></trkpt>
<trkpt lat="52.951148" lon="06.005166"><ele>6.1</ele><time>2021-03-19T12:48:39Z</time><name>PT9748</name></trkpt>
<trkpt lat="52.951155" lon="06.005161"><ele>6.1</ele><time>2021-03-19T12:48:40Z</time><name>PT9749</name></trkpt>
<trkpt lat="52.951163" lon="06.005155"><ele>6.2</ele><time>2021-03-19T12:48:40Z</time><name>PT9750</name></trkpt>
<trkpt lat="52.951179" lon="06.005149"><ele>6</ele><time>2021-03-19T12:48:42Z</time><name>PT9751</name></trkpt>
<trkpt lat="52.951187" lon="06.005139"><ele>6.1</ele><time>2021-03-19T12:48:43Z</time><name>PT9752</name></trkpt>
<trkpt lat="52.951195" lon="06.005135"><ele>6.1</ele><time>2021-03-19T12:48:43Z</time><name>PT9753</name></trkpt>
<trkpt lat="52.951203" lon="06.005129"><ele>6.2</ele><time>2021-03-19T12:48:45Z</time><name>PT9754</name></trkpt>
<trkpt lat="52.951212" lon="06.005127"><ele>6.2</ele><time>2021-03-19T12:48:45Z</time><name>PT9755</name></trkpt>
<trkpt lat="52.951223" lon="06.005117"><ele>6.1</ele><time>2021-03-19T12:48:47Z</time><name>PT9756</name></trkpt>
<trkpt lat="52.951235" lon="06.005104"><ele>5.8</ele><time>2021-03-19T12:48:47Z</time><name>PT9757</name></trkpt>
<trkpt lat="52.951246" lon="06.005092"><ele>5.6</ele><time>2021-03-19T12:48:49Z</time><name>PT9758</name></trkpt>
<trkpt lat="52.951251" lon="06.005086"><ele>5.7</ele><time>2021-03-19T12:48:49Z</time><name>PT9759</name></trkpt>
<trkpt lat="52.951257" lon="06.005080"><ele>5.7</ele><time>2021-03-19T12:48:51Z</time><name>PT9760</name></trkpt>
<trkpt lat="52.951262" lon="06.005070"><ele>5.8</ele><time>2021-03-19T12:48:51Z</time><name>PT9761</name></trkpt>
<trkpt lat="52.951268" lon="06.005060"><ele>6</ele><time>2021-03-19T12:48:53Z</time><name>PT9762</name></trkpt>
<trkpt lat="52.951280" lon="06.005053"><ele>6</ele><time>2021-03-19T12:48:54Z</time><name>PT9763</name></trkpt>
<trkpt lat="52.951284" lon="06.005050"><ele>6</ele><time>2021-03-19T12:48:54Z</time><name>PT9764</name></trkpt>
<trkpt lat="52.951291" lon="06.005045"><ele>6</ele><time>2021-03-19T12:48:56Z</time><name>PT9765</name></trkpt>
<trkpt lat="52.951296" lon="06.005034"><ele>5.9</ele><time>2021-03-19T12:48:57Z</time><name>PT9766</name></trkpt>
<trkpt lat="52.951307" lon="06.005023"><ele>5.9</ele><time>2021-03-19T12:48:57Z</time><name>PT9767</name></trkpt>
<trkpt lat="52.951317" lon="06.005017"><ele>5.7</ele><time>2021-03-19T12:48:59Z</time><name>PT9768</name></trkpt>
<trkpt lat="52.951325" lon="06.005007"><ele>5.5</ele><time>2021-03-19T12:49:00Z</time><name>PT9769</name></trkpt>
<trkpt lat="52.951336" lon="06.004998"><ele>5.5</ele><time>2021-03-19T12:49:00Z</time><name>PT9770</name></trkpt>
<trkpt lat="52.951347" lon="06.004990"><ele>5.5</ele><time>2021-03-19T12:49:02Z</time><name>PT9771</name></trkpt>
<trkpt lat="52.951359" lon="06.004984"><ele>5.6</ele><time>2021-03-19T12:49:02Z</time><name>PT9772</name></trkpt>
<trkpt lat="52.951368" lon="06.004977"><ele>5.7</ele><time>2021-03-19T12:49:04Z</time><name>PT9773</name></trkpt>
<trkpt lat="52.951376" lon="06.004966"><ele>5.9</ele><time>2021-03-19T12:49:05Z</time><name>PT9774</name></trkpt>
<trkpt lat="52.951386" lon="06.004948"><ele>5.9</ele><time>2021-03-19T12:49:05Z</time><name>PT9775</name></trkpt>
<trkpt lat="52.951398" lon="06.004938"><ele>5.9</ele><time>2021-03-19T12:49:07Z</time><name>PT9776</name></trkpt>
<trkpt lat="52.951411" lon="06.004921"><ele>6</ele><time>2021-03-19T12:49:08Z</time><name>PT9777</name></trkpt>
<trkpt lat="52.951422" lon="06.004907"><ele>5.9</ele><time>2021-03-19T12:49:08Z</time><name>PT9778</name></trkpt>
<trkpt lat="52.951431" lon="06.004896"><ele>5.8</ele><time>2021-03-19T12:49:10Z</time><name>PT9779</name></trkpt>
<trkpt lat="52.951439" lon="06.004883"><ele>5.8</ele><time>2021-03-19T12:49:11Z</time><name>PT9780</name></trkpt>
<trkpt lat="52.951441" lon="06.004874"><ele>5.9</ele><time>2021-03-19T12:49:11Z</time><name>PT9781</name></trkpt>
<trkpt lat="52.951446" lon="06.004864"><ele>5.9</ele><time>2021-03-19T12:49:13Z</time><name>PT9782</name></trkpt>
<trkpt lat="52.951451" lon="06.004854"><ele>6.2</ele><time>2021-03-19T12:49:13Z</time><name>PT9783</name></trkpt>
<trkpt lat="52.951458" lon="06.004849"><ele>6.4</ele><time>2021-03-19T12:49:15Z</time><name>PT9784</name></trkpt>
<trkpt lat="52.951468" lon="06.004840"><ele>6.4</ele><time>2021-03-19T12:49:16Z</time><name>PT9785</name></trkpt>
<trkpt lat="52.951474" lon="06.004830"><ele>6.3</ele><time>2021-03-19T12:49:16Z</time><name>PT9786</name></trkpt>
<trkpt lat="52.951482" lon="06.004824"><ele>6.2</ele><time>2021-03-19T12:49:18Z</time><name>PT9787</name></trkpt>
<trkpt lat="52.951491" lon="06.004816"><ele>6</ele><time>2021-03-19T12:49:18Z</time><name>PT9788</name></trkpt>
<trkpt lat="52.951497" lon="06.004809"><ele>5.9</ele><time>2021-03-19T12:49:20Z</time><name>PT9789</name></trkpt>
<trkpt lat="52.951508" lon="06.004803"><ele>5.9</ele><time>2021-03-19T12:49:20Z</time><name>PT9790</name></trkpt>
<trkpt lat="52.951515" lon="06.004797"><ele>5.9</ele><time>2021-03-19T12:49:22Z</time><name>PT9791</name></trkpt>
<trkpt lat="52.951520" lon="06.004791"><ele>6</ele><time>2021-03-19T12:49:22Z</time><name>PT9792</name></trkpt>
<trkpt lat="52.951528" lon="06.004782"><ele>6</ele><time>2021-03-19T12:49:23Z</time><name>PT9793</name></trkpt>
<trkpt lat="52.951536" lon="06.004774"><ele>5.9</ele><time>2021-03-19T12:49:24Z</time><name>PT9794</name></trkpt>
<trkpt lat="52.951547" lon="06.004764"><ele>5.9</ele><time>2021-03-19T12:49:26Z</time><name>PT9795</name></trkpt>
<trkpt lat="52.951554" lon="06.004759"><ele>6</ele><time>2021-03-19T12:49:26Z</time><name>PT9796</name></trkpt>
<trkpt lat="52.951563" lon="06.004752"><ele>6.1</ele><time>2021-03-19T12:49:28Z</time><name>PT9797</name></trkpt>
<trkpt lat="52.951570" lon="06.004743"><ele>6.1</ele><time>2021-03-19T12:49:28Z</time><name>PT9798</name></trkpt>
<trkpt lat="52.951580" lon="06.004732"><ele>6.2</ele><time>2021-03-19T12:49:30Z</time><name>PT9799</name></trkpt>
<trkpt lat="52.951588" lon="06.004721"><ele>6.2</ele><time>2021-03-19T12:49:31Z</time><name>PT9800</name></trkpt>
<trkpt lat="52.951598" lon="06.004710"><ele>6.2</ele><time>2021-03-19T12:49:31Z</time><name>PT9801</name></trkpt>
<trkpt lat="52.951607" lon="06.004699"><ele>6.2</ele><time>2021-03-19T12:49:33Z</time><name>PT9802</name></trkpt>
<trkpt lat="52.951618" lon="06.004688"><ele>6</ele><time>2021-03-19T12:49:33Z</time><name>PT9803</name></trkpt>
<trkpt lat="52.951625" lon="06.004676"><ele>6.1</ele><time>2021-03-19T12:49:35Z</time><name>PT9804</name></trkpt>
<trkpt lat="52.951633" lon="06.004664"><ele>6.2</ele><time>2021-03-19T12:49:35Z</time><name>PT9805</name></trkpt>
<trkpt lat="52.951640" lon="06.004654"><ele>6.3</ele><time>2021-03-19T12:49:37Z</time><name>PT9806</name></trkpt>
<trkpt lat="52.951648" lon="06.004641"><ele>6.2</ele><time>2021-03-19T12:49:37Z</time><name>PT9807</name></trkpt>
<trkpt lat="52.951661" lon="06.004631"><ele>6.3</ele><time>2021-03-19T12:49:39Z</time><name>PT9808</name></trkpt>
<trkpt lat="52.951675" lon="06.004620"><ele>6.4</ele><time>2021-03-19T12:49:40Z</time><name>PT9809</name></trkpt>
<trkpt lat="52.951687" lon="06.004609"><ele>6.4</ele><time>2021-03-19T12:49:40Z</time><name>PT9810</name></trkpt>
<trkpt lat="52.951698" lon="06.004599"><ele>6.3</ele><time>2021-03-19T12:49:42Z</time><name>PT9811</name></trkpt>
<trkpt lat="52.951709" lon="06.004588"><ele>6.5</ele><time>2021-03-19T12:49:43Z</time><name>PT9812</name></trkpt>
<trkpt lat="52.951719" lon="06.004580"><ele>6.5</ele><time>2021-03-19T12:49:43Z</time><name>PT9813</name></trkpt>
<trkpt lat="52.951729" lon="06.004574"><ele>6.4</ele><time>2021-03-19T12:49:45Z</time><name>PT9814</name></trkpt>
<trkpt lat="52.951739" lon="06.004566"><ele>6.5</ele><time>2021-03-19T12:49:45Z</time><name>PT9815</name></trkpt>
<trkpt lat="52.951747" lon="06.004560"><ele>6.3</ele><time>2021-03-19T12:49:47Z</time><name>PT9816</name></trkpt>
<trkpt lat="52.951752" lon="06.004551"><ele>6.2</ele><time>2021-03-19T12:49:47Z</time><name>PT9817</name></trkpt>
<trkpt lat="52.951759" lon="06.004543"><ele>6.3</ele><time>2021-03-19T12:49:49Z</time><name>PT9818</name></trkpt>
<trkpt lat="52.951767" lon="06.004533"><ele>6.3</ele><time>2021-03-19T12:49:50Z</time><name>PT9819</name></trkpt>
<trkpt lat="52.951773" lon="06.004524"><ele>6.2</ele><time>2021-03-19T12:49:50Z</time><name>PT9820</name></trkpt>
<trkpt lat="52.951780" lon="06.004517"><ele>6.1</ele><time>2021-03-19T12:49:52Z</time><name>PT9821</name></trkpt>
<trkpt lat="52.951789" lon="06.004505"><ele>6.1</ele><time>2021-03-19T12:49:52Z</time><name>PT9822</name></trkpt>
<trkpt lat="52.951795" lon="06.004494"><ele>5.9</ele><time>2021-03-19T12:49:54Z</time><name>PT9823</name></trkpt>
<trkpt lat="52.951804" lon="06.004484"><ele>5.9</ele><time>2021-03-19T12:49:55Z</time><name>PT9824</name></trkpt>
<trkpt lat="52.951813" lon="06.004476"><ele>5.9</ele><time>2021-03-19T12:49:55Z</time><name>PT9825</name></trkpt>
<trkpt lat="52.951824" lon="06.004471"><ele>5.9</ele><time>2021-03-19T12:49:57Z</time><name>PT9826</name></trkpt>
<trkpt lat="52.951830" lon="06.004469"><ele>6</ele><time>2021-03-19T12:49:57Z</time><name>PT9827</name></trkpt>
<trkpt lat="52.951840" lon="06.004463"><ele>6</ele><time>2021-03-19T12:49:59Z</time><name>PT9828</name></trkpt>
<trkpt lat="52.951851" lon="06.004458"><ele>6.2</ele><time>2021-03-19T12:50:00Z</time><name>PT9829</name></trkpt>
<trkpt lat="52.951858" lon="06.004451"><ele>6.2</ele><time>2021-03-19T12:50:00Z</time><name>PT9830</name></trkpt>
<trkpt lat="52.951864" lon="06.004447"><ele>6.3</ele><time>2021-03-19T12:50:02Z</time><name>PT9831</name></trkpt>
<trkpt lat="52.951871" lon="06.004440"><ele>6.3</ele><time>2021-03-19T12:50:03Z</time><name>PT9832</name></trkpt>
<trkpt lat="52.951878" lon="06.004436"><ele>6.4</ele><time>2021-03-19T12:50:03Z</time><name>PT9833</name></trkpt>
<trkpt lat="52.951883" lon="06.004425"><ele>6.3</ele><time>2021-03-19T12:50:05Z</time><name>PT9834</name></trkpt>
<trkpt lat="52.951891" lon="06.004419"><ele>6.3</ele><time>2021-03-19T12:50:05Z</time><name>PT9835</name></trkpt>
<trkpt lat="52.951898" lon="06.004413"><ele>6.3</ele><time>2021-03-19T12:50:07Z</time><name>PT9836</name></trkpt>
<trkpt lat="52.951906" lon="06.004408"><ele>6.4</ele><time>2021-03-19T12:50:08Z</time><name>PT9837</name></trkpt>
<trkpt lat="52.951913" lon="06.004403"><ele>6.3</ele><time>2021-03-19T12:50:08Z</time><name>PT9838</name></trkpt>
<trkpt lat="52.951921" lon="06.004390"><ele>6.5</ele><time>2021-03-19T12:50:10Z</time><name>PT9839</name></trkpt>
<trkpt lat="52.951927" lon="06.004381"><ele>6.5</ele><time>2021-03-19T12:50:10Z</time><name>PT9840</name></trkpt>
<trkpt lat="52.951938" lon="06.004369"><ele>6.6</ele><time>2021-03-19T12:50:12Z</time><name>PT9841</name></trkpt>
<trkpt lat="52.951947" lon="06.004363"><ele>6.5</ele><time>2021-03-19T12:50:12Z</time><name>PT9842</name></trkpt>
<trkpt lat="52.951957" lon="06.004355"><ele>6.6</ele><time>2021-03-19T12:50:14Z</time><name>PT9843</name></trkpt>
<trkpt lat="52.951964" lon="06.004345"><ele>6.7</ele><time>2021-03-19T12:50:14Z</time><name>PT9844</name></trkpt>
<trkpt lat="52.951967" lon="06.004335"><ele>6.7</ele><time>2021-03-19T12:50:16Z</time><name>PT9845</name></trkpt>
<trkpt lat="52.951975" lon="06.004330"><ele>6.8</ele><time>2021-03-19T12:50:16Z</time><name>PT9846</name></trkpt>
<trkpt lat="52.951985" lon="06.004327"><ele>6.8</ele><time>2021-03-19T12:50:18Z</time><name>PT9847</name></trkpt>
<trkpt lat="52.951992" lon="06.004320"><ele>6.6</ele><time>2021-03-19T12:50:19Z</time><name>PT9848</name></trkpt>
<trkpt lat="52.951997" lon="06.004314"><ele>6.5</ele><time>2021-03-19T12:50:19Z</time><name>PT9849</name></trkpt>
<trkpt lat="52.952003" lon="06.004308"><ele>6.3</ele><time>2021-03-19T12:50:21Z</time><name>PT9850</name></trkpt>
<trkpt lat="52.952008" lon="06.004301"><ele>6.3</ele><time>2021-03-19T12:50:21Z</time><name>PT9851</name></trkpt>
<trkpt lat="52.952014" lon="06.004290"><ele>6.3</ele><time>2021-03-19T12:50:23Z</time><name>PT9852</name></trkpt>
<trkpt lat="52.952017" lon="06.004287"><ele>6.4</ele><time>2021-03-19T12:50:24Z</time><name>PT9853</name></trkpt>
<trkpt lat="52.952023" lon="06.004273"><ele>6.4</ele><time>2021-03-19T12:50:26Z</time><name>PT9854</name></trkpt>
<trkpt lat="52.952032" lon="06.004265"><ele>6.6</ele><time>2021-03-19T12:50:26Z</time><name>PT9855</name></trkpt>
<trkpt lat="52.952039" lon="06.004254"><ele>6.7</ele><time>2021-03-19T12:50:28Z</time><name>PT9856</name></trkpt>
<trkpt lat="52.952047" lon="06.004243"><ele>6.6</ele><time>2021-03-19T12:50:29Z</time><name>PT9857</name></trkpt>
<trkpt lat="52.952052" lon="06.004234"><ele>6.8</ele><time>2021-03-19T12:50:29Z</time><name>PT9858</name></trkpt>
<trkpt lat="52.952052" lon="06.004222"><ele>6.9</ele><time>2021-03-19T12:50:31Z</time><name>PT9859</name></trkpt>
<trkpt lat="52.952052" lon="06.004213"><ele>6.7</ele><time>2021-03-19T12:50:32Z</time><name>PT9860</name></trkpt>
<trkpt lat="52.952056" lon="06.004208"><ele>6.6</ele><time>2021-03-19T12:50:32Z</time><name>PT9861</name></trkpt>
<trkpt lat="52.952061" lon="06.004203"><ele>6.6</ele><time>2021-03-19T12:50:34Z</time><name>PT9862</name></trkpt>
<trkpt lat="52.952068" lon="06.004191"><ele>6.5</ele><time>2021-03-19T12:50:35Z</time><name>PT9863</name></trkpt>
<trkpt lat="52.952072" lon="06.004183"><ele>6.5</ele><time>2021-03-19T12:50:35Z</time><name>PT9864</name></trkpt>
<trkpt lat="52.952084" lon="06.004167"><ele>6.3</ele><time>2021-03-19T12:50:43Z</time><name>PT9865</name></trkpt>
<trkpt lat="52.952092" lon="06.004144"><ele>6.4</ele><time>2021-03-19T12:50:43Z</time><name>PT9866</name></trkpt>
<trkpt lat="52.952103" lon="06.004129"><ele>6.5</ele><time>2021-03-19T12:50:45Z</time><name>PT9867</name></trkpt>
<trkpt lat="52.952115" lon="06.004113"><ele>6.6</ele><time>2021-03-19T12:50:46Z</time><name>PT9868</name></trkpt>
<trkpt lat="52.952123" lon="06.004097"><ele>6.7</ele><time>2021-03-19T12:50:46Z</time><name>PT9869</name></trkpt>
<trkpt lat="52.952129" lon="06.004090"><ele>6.6</ele><time>2021-03-19T12:50:48Z</time><name>PT9870</name></trkpt>
<trkpt lat="52.952132" lon="06.004086"><ele>6.7</ele><time>2021-03-19T12:50:49Z</time><name>PT9871</name></trkpt>
<trkpt lat="52.952139" lon="06.004078"><ele>6.5</ele><time>2021-03-19T12:50:49Z</time><name>PT9872</name></trkpt>
<trkpt lat="52.952146" lon="06.004069"><ele>6.5</ele><time>2021-03-19T12:50:51Z</time><name>PT9873</name></trkpt>
<trkpt lat="52.952155" lon="06.004062"><ele>6.5</ele><time>2021-03-19T12:50:52Z</time><name>PT9874</name></trkpt>
<trkpt lat="52.952165" lon="06.004060"><ele>6.5</ele><time>2021-03-19T12:50:52Z</time><name>PT9875</name></trkpt>
<trkpt lat="52.952172" lon="06.004055"><ele>6.4</ele><time>2021-03-19T12:50:54Z</time><name>PT9876</name></trkpt>
<trkpt lat="52.952181" lon="06.004046"><ele>6.6</ele><time>2021-03-19T12:50:55Z</time><name>PT9877</name></trkpt>
<trkpt lat="52.952189" lon="06.004034"><ele>6.5</ele><time>2021-03-19T12:50:55Z</time><name>PT9878</name></trkpt>
<trkpt lat="52.952196" lon="06.004026"><ele>6.6</ele><time>2021-03-19T12:50:57Z</time><name>PT9879</name></trkpt>
<trkpt lat="52.952204" lon="06.004018"><ele>6.7</ele><time>2021-03-19T12:50:58Z</time><name>PT9880</name></trkpt>
<trkpt lat="52.952212" lon="06.004011"><ele>6.8</ele><time>2021-03-19T12:50:58Z</time><name>PT9881</name></trkpt>
<trkpt lat="52.952214" lon="06.004011"><ele>6.5</ele><time>2021-03-19T12:51:00Z</time><name>PT9882</name></trkpt>
<trkpt lat="52.952217" lon="06.004009"><ele>6.4</ele><time>2021-03-19T12:51:01Z</time><name>PT9883</name></trkpt>
<trkpt lat="52.952223" lon="06.004005"><ele>6.5</ele><time>2021-03-19T12:51:01Z</time><name>PT9884</name></trkpt>
<trkpt lat="52.952228" lon="06.003999"><ele>6.4</ele><time>2021-03-19T12:51:03Z</time><name>PT9885</name></trkpt>
<trkpt lat="52.952234" lon="06.003993"><ele>6.3</ele><time>2021-03-19T12:51:04Z</time><name>PT9886</name></trkpt>
<trkpt lat="52.952236" lon="06.003990"><ele>6.4</ele><time>2021-03-19T12:51:04Z</time><name>PT9887</name></trkpt>
<trkpt lat="52.952239" lon="06.003991"><ele>6.5</ele><time>2021-03-19T12:51:06Z</time><name>PT9888</name></trkpt>
<trkpt lat="52.952244" lon="06.003988"><ele>6.3</ele><time>2021-03-19T12:51:06Z</time><name>PT9889</name></trkpt>
<trkpt lat="52.952249" lon="06.003986"><ele>6.4</ele><time>2021-03-19T12:51:08Z</time><name>PT9890</name></trkpt>
<trkpt lat="52.952253" lon="06.003979"><ele>6.5</ele><time>2021-03-19T12:51:08Z</time><name>PT9891</name></trkpt>
<trkpt lat="52.952259" lon="06.003965"><ele>6.7</ele><time>2021-03-19T12:51:10Z</time><name>PT9892</name></trkpt>
<trkpt lat="52.952261" lon="06.003952"><ele>6.6</ele><time>2021-03-19T12:51:11Z</time><name>PT9893</name></trkpt>
<trkpt lat="52.952264" lon="06.003938"><ele>6.6</ele><time>2021-03-19T12:51:11Z</time><name>PT9894</name></trkpt>
<trkpt lat="52.952268" lon="06.003920"><ele>6.8</ele><time>2021-03-19T12:51:13Z</time><name>PT9895</name></trkpt>
<trkpt lat="52.952268" lon="06.003903"><ele>6.7</ele><time>2021-03-19T12:51:13Z</time><name>PT9896</name></trkpt>
<trkpt lat="52.952265" lon="06.003884"><ele>6.7</ele><time>2021-03-19T12:51:15Z</time><name>PT9897</name></trkpt>
<trkpt lat="52.952261" lon="06.003866"><ele>6.8</ele><time>2021-03-19T12:51:16Z</time><name>PT9898</name></trkpt>
<trkpt lat="52.952259" lon="06.003851"><ele>6.8</ele><time>2021-03-19T12:51:16Z</time><name>PT9899</name></trkpt>
<trkpt lat="52.952259" lon="06.003836"><ele>6.8</ele><time>2021-03-19T12:51:18Z</time><name>PT9900</name></trkpt>
<trkpt lat="52.952258" lon="06.003819"><ele>6.8</ele><time>2021-03-19T12:51:19Z</time><name>PT9901</name></trkpt>
<trkpt lat="52.952258" lon="06.003804"><ele>6.8</ele><time>2021-03-19T12:51:19Z</time><name>PT9902</name></trkpt>
<trkpt lat="52.952255" lon="06.003787"><ele>6.8</ele><time>2021-03-19T12:51:21Z</time><name>PT9903</name></trkpt>
<trkpt lat="52.952254" lon="06.003771"><ele>6.7</ele><time>2021-03-19T12:51:21Z</time><name>PT9904</name></trkpt>
<trkpt lat="52.952253" lon="06.003757"><ele>6.8</ele><time>2021-03-19T12:51:23Z</time><name>PT9905</name></trkpt>
<trkpt lat="52.952254" lon="06.003742"><ele>6.8</ele><time>2021-03-19T12:51:23Z</time><name>PT9906</name></trkpt>
<trkpt lat="52.952256" lon="06.003724"><ele>6.7</ele><time>2021-03-19T12:51:25Z</time><name>PT9907</name></trkpt>
<trkpt lat="52.952256" lon="06.003710"><ele>6.6</ele><time>2021-03-19T12:51:25Z</time><name>PT9908</name></trkpt>
<trkpt lat="52.952254" lon="06.003694"><ele>6.6</ele><time>2021-03-19T12:51:27Z</time><name>PT9909</name></trkpt>
<trkpt lat="52.952253" lon="06.003678"><ele>6.5</ele><time>2021-03-19T12:51:27Z</time><name>PT9910</name></trkpt>
<trkpt lat="52.952251" lon="06.003661"><ele>6.5</ele><time>2021-03-19T12:51:29Z</time><name>PT9911</name></trkpt>
<trkpt lat="52.952249" lon="06.003647"><ele>6.5</ele><time>2021-03-19T12:51:30Z</time><name>PT9912</name></trkpt>
<trkpt lat="52.952247" lon="06.003634"><ele>6.5</ele><time>2021-03-19T12:51:30Z</time><name>PT9913</name></trkpt>
<trkpt lat="52.952246" lon="06.003616"><ele>6.6</ele><time>2021-03-19T12:51:32Z</time><name>PT9914</name></trkpt>
<trkpt lat="52.952246" lon="06.003597"><ele>6.6</ele><time>2021-03-19T12:51:32Z</time><name>PT9915</name></trkpt>
<trkpt lat="52.952245" lon="06.003579"><ele>6.8</ele><time>2021-03-19T12:51:34Z</time><name>PT9916</name></trkpt>
<trkpt lat="52.952243" lon="06.003564"><ele>6.8</ele><time>2021-03-19T12:51:34Z</time><name>PT9917</name></trkpt>
<trkpt lat="52.952241" lon="06.003547"><ele>6.9</ele><time>2021-03-19T12:51:36Z</time><name>PT9918</name></trkpt>
<trkpt lat="52.952239" lon="06.003533"><ele>7</ele><time>2021-03-19T12:51:37Z</time><name>PT9919</name></trkpt>
<trkpt lat="52.952235" lon="06.003515"><ele>7</ele><time>2021-03-19T12:51:37Z</time><name>PT9920</name></trkpt>
<trkpt lat="52.952231" lon="06.003494"><ele>6.8</ele><time>2021-03-19T12:51:39Z</time><name>PT9921</name></trkpt>
<trkpt lat="52.952227" lon="06.003477"><ele>6.7</ele><time>2021-03-19T12:51:40Z</time><name>PT9922</name></trkpt>
<trkpt lat="52.952222" lon="06.003461"><ele>6.6</ele><time>2021-03-19T12:51:40Z</time><name>PT9923</name></trkpt>
<trkpt lat="52.952216" lon="06.003447"><ele>6.7</ele><time>2021-03-19T12:51:42Z</time><name>PT9924</name></trkpt>
<trkpt lat="52.952212" lon="06.003433"><ele>6.8</ele><time>2021-03-19T12:51:43Z</time><name>PT9925</name></trkpt>
<trkpt lat="52.952212" lon="06.003418"><ele>6.9</ele><time>2021-03-19T12:51:43Z</time><name>PT9926</name></trkpt>
<trkpt lat="52.952210" lon="06.003401"><ele>7</ele><time>2021-03-19T12:51:45Z</time><name>PT9927</name></trkpt>
<trkpt lat="52.952208" lon="06.003384"><ele>7</ele><time>2021-03-19T12:51:45Z</time><name>PT9928</name></trkpt>
<trkpt lat="52.952204" lon="06.003368"><ele>6.8</ele><time>2021-03-19T12:51:47Z</time><name>PT9929</name></trkpt>
<trkpt lat="52.952200" lon="06.003351"><ele>6.7</ele><time>2021-03-19T12:51:47Z</time><name>PT9930</name></trkpt>
<trkpt lat="52.952196" lon="06.003337"><ele>6.8</ele><time>2021-03-19T12:51:49Z</time><name>PT9931</name></trkpt>
<trkpt lat="52.952192" lon="06.003321"><ele>7</ele><time>2021-03-19T12:51:50Z</time><name>PT9932</name></trkpt>
<trkpt lat="52.952187" lon="06.003303"><ele>7.2</ele><time>2021-03-19T12:51:50Z</time><name>PT9933</name></trkpt>
<trkpt lat="52.952184" lon="06.003286"><ele>7.3</ele><time>2021-03-19T12:51:52Z</time><name>PT9934</name></trkpt>
<trkpt lat="52.952181" lon="06.003264"><ele>7.3</ele><time>2021-03-19T12:51:52Z</time><name>PT9935</name></trkpt>
<trkpt lat="52.952179" lon="06.003247"><ele>7.1</ele><time>2021-03-19T12:51:54Z</time><name>PT9936</name></trkpt>
<trkpt lat="52.952177" lon="06.003228"><ele>7</ele><time>2021-03-19T12:51:54Z</time><name>PT9937</name></trkpt>
<trkpt lat="52.952174" lon="06.003211"><ele>6.8</ele><time>2021-03-19T12:51:56Z</time><name>PT9938</name></trkpt>
<trkpt lat="52.952172" lon="06.003195"><ele>6.7</ele><time>2021-03-19T12:51:57Z</time><name>PT9939</name></trkpt>
<trkpt lat="52.952170" lon="06.003180"><ele>6.6</ele><time>2021-03-19T12:51:57Z</time><name>PT9940</name></trkpt>
<trkpt lat="52.952168" lon="06.003162"><ele>6.7</ele><time>2021-03-19T12:51:59Z</time><name>PT9941</name></trkpt>
<trkpt lat="52.952166" lon="06.003143"><ele>6.8</ele><time>2021-03-19T12:51:59Z</time><name>PT9942</name></trkpt>
<trkpt lat="52.952163" lon="06.003124"><ele>6.7</ele><time>2021-03-19T12:52:01Z</time><name>PT9943</name></trkpt>
<trkpt lat="52.952159" lon="06.003105"><ele>6.7</ele><time>2021-03-19T12:52:02Z</time><name>PT9944</name></trkpt>
<trkpt lat="52.952155" lon="06.003087"><ele>6.8</ele><time>2021-03-19T12:52:02Z</time><name>PT9945</name></trkpt>
<trkpt lat="52.952148" lon="06.003070"><ele>6.8</ele><time>2021-03-19T12:52:04Z</time><name>PT9946</name></trkpt>
<trkpt lat="52.952144" lon="06.003055"><ele>6.8</ele><time>2021-03-19T12:52:04Z</time><name>PT9947</name></trkpt>
<trkpt lat="52.952141" lon="06.003043"><ele>6.9</ele><time>2021-03-19T12:52:06Z</time><name>PT9948</name></trkpt>
<trkpt lat="52.952138" lon="06.003030"><ele>6.8</ele><time>2021-03-19T12:52:07Z</time><name>PT9949</name></trkpt>
<trkpt lat="52.952137" lon="06.003015"><ele>6.6</ele><time>2021-03-19T12:52:07Z</time><name>PT9950</name></trkpt>
<trkpt lat="52.952134" lon="06.003000"><ele>6.6</ele><time>2021-03-19T12:52:09Z</time><name>PT9951</name></trkpt>
<trkpt lat="52.952131" lon="06.002984"><ele>6.7</ele><time>2021-03-19T12:52:10Z</time><name>PT9952</name></trkpt>
<trkpt lat="52.952127" lon="06.002969"><ele>6.7</ele><time>2021-03-19T12:52:10Z</time><name>PT9953</name></trkpt>
<trkpt lat="52.952125" lon="06.002957"><ele>6.9</ele><time>2021-03-19T12:52:12Z</time><name>PT9954</name></trkpt>
<trkpt lat="52.952122" lon="06.002940"><ele>6.8</ele><time>2021-03-19T12:52:12Z</time><name>PT9955</name></trkpt>
<trkpt lat="52.952117" lon="06.002922"><ele>7.1</ele><time>2021-03-19T12:52:14Z</time><name>PT9956</name></trkpt>
<trkpt lat="52.952114" lon="06.002905"><ele>7.2</ele><time>2021-03-19T12:52:15Z</time><name>PT9957</name></trkpt>
<trkpt lat="52.952111" lon="06.002887"><ele>7.2</ele><time>2021-03-19T12:52:15Z</time><name>PT9958</name></trkpt>
<trkpt lat="52.952106" lon="06.002869"><ele>7.2</ele><time>2021-03-19T12:52:17Z</time><name>PT9959</name></trkpt>
<trkpt lat="52.952100" lon="06.002853"><ele>7</ele><time>2021-03-19T12:52:18Z</time><name>PT9960</name></trkpt>
<trkpt lat="52.952096" lon="06.002839"><ele>6.9</ele><time>2021-03-19T12:52:18Z</time><name>PT9961</name></trkpt>
<trkpt lat="52.952089" lon="06.002819"><ele>6.8</ele><time>2021-03-19T12:52:20Z</time><name>PT9962</name></trkpt>
<trkpt lat="52.952086" lon="06.002800"><ele>6.8</ele><time>2021-03-19T12:52:21Z</time><name>PT9963</name></trkpt>
<trkpt lat="52.952083" lon="06.002780"><ele>6.8</ele><time>2021-03-19T12:52:21Z</time><name>PT9964</name></trkpt>
<trkpt lat="52.952077" lon="06.002762"><ele>6.7</ele><time>2021-03-19T12:52:23Z</time><name>PT9965</name></trkpt>
<trkpt lat="52.952071" lon="06.002743"><ele>6.7</ele><time>2021-03-19T12:52:23Z</time><name>PT9966</name></trkpt>
<trkpt lat="52.952065" lon="06.002726"><ele>6.6</ele><time>2021-03-19T12:52:25Z</time><name>PT9967</name></trkpt>
<trkpt lat="52.952061" lon="06.002710"><ele>6.6</ele><time>2021-03-19T12:52:25Z</time><name>PT9968</name></trkpt>
<trkpt lat="52.952056" lon="06.002693"><ele>6.6</ele><time>2021-03-19T12:52:27Z</time><name>PT9969</name></trkpt>
<trkpt lat="52.952050" lon="06.002673"><ele>6.5</ele><time>2021-03-19T12:52:27Z</time><name>PT9970</name></trkpt>
<trkpt lat="52.952044" lon="06.002652"><ele>6.8</ele><time>2021-03-19T12:52:29Z</time><name>PT9971</name></trkpt>
<trkpt lat="52.952040" lon="06.002634"><ele>6.7</ele><time>2021-03-19T12:52:30Z</time><name>PT9972</name></trkpt>
<trkpt lat="52.952034" lon="06.002615"><ele>6.7</ele><time>2021-03-19T12:52:30Z</time><name>PT9973</name></trkpt>
<trkpt lat="52.952028" lon="06.002598"><ele>6.6</ele><time>2021-03-19T12:52:32Z</time><name>PT9974</name></trkpt>
<trkpt lat="52.952022" lon="06.002582"><ele>6.6</ele><time>2021-03-19T12:52:32Z</time><name>PT9975</name></trkpt>
<trkpt lat="52.952017" lon="06.002565"><ele>6.6</ele><time>2021-03-19T12:52:34Z</time><name>PT9976</name></trkpt>
<trkpt lat="52.952014" lon="06.002547"><ele>6.8</ele><time>2021-03-19T12:52:34Z</time><name>PT9977</name></trkpt>
<trkpt lat="52.952012" lon="06.002531"><ele>6.8</ele><time>2021-03-19T12:52:36Z</time><name>PT9978</name></trkpt>
<trkpt lat="52.952009" lon="06.002516"><ele>6.8</ele><time>2021-03-19T12:52:37Z</time><name>PT9979</name></trkpt>
<trkpt lat="52.952004" lon="06.002503"><ele>6.8</ele><time>2021-03-19T12:52:37Z</time><name>PT9980</name></trkpt>
<trkpt lat="52.951999" lon="06.002489"><ele>6.8</ele><time>2021-03-19T12:52:39Z</time><name>PT9981</name></trkpt>
<trkpt lat="52.951994" lon="06.002471"><ele>6.7</ele><time>2021-03-19T12:52:40Z</time><name>PT9982</name></trkpt>
<trkpt lat="52.951989" lon="06.002452"><ele>6.7</ele><time>2021-03-19T12:52:40Z</time><name>PT9983</name></trkpt>
<trkpt lat="52.951986" lon="06.002435"><ele>6.7</ele><time>2021-03-19T12:52:42Z</time><name>PT9984</name></trkpt>
<trkpt lat="52.951982" lon="06.002419"><ele>6.7</ele><time>2021-03-19T12:52:42Z</time><name>PT9985</name></trkpt>
<trkpt lat="52.951979" lon="06.002404"><ele>6.5</ele><time>2021-03-19T12:52:44Z</time><name>PT9986</name></trkpt>
<trkpt lat="52.951975" lon="06.002388"><ele>6.4</ele><time>2021-03-19T12:52:45Z</time><name>PT9987</name></trkpt>
<trkpt lat="52.951970" lon="06.002372"><ele>6.5</ele><time>2021-03-19T12:52:45Z</time><name>PT9988</name></trkpt>
<trkpt lat="52.951965" lon="06.002354"><ele>6.5</ele><time>2021-03-19T12:52:47Z</time><name>PT9989</name></trkpt>
<trkpt lat="52.951962" lon="06.002336"><ele>6.6</ele><time>2021-03-19T12:52:48Z</time><name>PT9990</name></trkpt>
<trkpt lat="52.951957" lon="06.002319"><ele>6.8</ele><time>2021-03-19T12:52:48Z</time><name>PT9991</name></trkpt>
<trkpt lat="52.951951" lon="06.002302"><ele>6.7</ele><time>2021-03-19T12:52:50Z</time><name>PT9992</name></trkpt>
<trkpt lat="52.951947" lon="06.002286"><ele>6.7</ele><time>2021-03-19T12:52:50Z</time><name>PT9993</name></trkpt>
<trkpt lat="52.951942" lon="06.002268"><ele>6.8</ele><time>2021-03-19T12:52:52Z</time><name>PT9994</name></trkpt>
<trkpt lat="52.951936" lon="06.002249"><ele>6.8</ele><time>2021-03-19T12:52:52Z</time><name>PT9995</name></trkpt>
<trkpt lat="52.951932" lon="06.002232"><ele>6.6</ele><time>2021-03-19T12:52:54Z</time><name>PT9996</name></trkpt>
<trkpt lat="52.951928" lon="06.002215"><ele>6.6</ele><time>2021-03-19T12:52:54Z</time><name>PT9997</name></trkpt>
<trkpt lat="52.951924" lon="06.002198"><ele>6.4</ele><time>2021-03-19T12:52:56Z</time><name>PT9998</name></trkpt>
<trkpt lat="52.951922" lon="06.002187"><ele>6.4</ele><time>2021-03-19T12:52:56Z</time><name>PT9999</name></trkpt>
<trkpt lat="52.951919" lon="06.002175"><ele>6.5</ele><time>2021-03-19T12:52:58Z</time><name>PT10000</name></trkpt>
<trkpt lat="52.951913" lon="06.002166"><ele>6.5</ele><time>2021-03-19T12:52:59Z</time><name>PT10001</name></trkpt>
<trkpt lat="52.951909" lon="06.002162"><ele>6.6</ele><time>2021-03-19T12:52:59Z</time><name>PT10002</name></trkpt>
<trkpt lat="52.951905" lon="06.002150"><ele>6.7</ele><time>2021-03-19T12:53:01Z</time><name>PT10003</name></trkpt>
<trkpt lat="52.951901" lon="06.002134"><ele>6.6</ele><time>2021-03-19T12:53:01Z</time><name>PT10004</name></trkpt>
<trkpt lat="52.951900" lon="06.002115"><ele>6.4</ele><time>2021-03-19T12:53:03Z</time><name>PT10005</name></trkpt>
<trkpt lat="52.951898" lon="06.002096"><ele>6.3</ele><time>2021-03-19T12:53:03Z</time><name>PT10006</name></trkpt>
<trkpt lat="52.951900" lon="06.002081"><ele>6.3</ele><time>2021-03-19T12:53:05Z</time><name>PT10007</name></trkpt>
<trkpt lat="52.951901" lon="06.002065"><ele>6.5</ele><time>2021-03-19T12:53:05Z</time><name>PT10008</name></trkpt>
<trkpt lat="52.951901" lon="06.002051"><ele>6.9</ele><time>2021-03-19T12:53:07Z</time><name>PT10009</name></trkpt>
<trkpt lat="52.951902" lon="06.002035"><ele>7.1</ele><time>2021-03-19T12:53:08Z</time><name>PT10010</name></trkpt>
<trkpt lat="52.951901" lon="06.002016"><ele>7.1</ele><time>2021-03-19T12:53:08Z</time><name>PT10011</name></trkpt>
<trkpt lat="52.951902" lon="06.001998"><ele>7.1</ele><time>2021-03-19T12:53:10Z</time><name>PT10012</name></trkpt>
<trkpt lat="52.951900" lon="06.001980"><ele>6.8</ele><time>2021-03-19T12:53:11Z</time><name>PT10013</name></trkpt>
<trkpt lat="52.951897" lon="06.001962"><ele>6.7</ele><time>2021-03-19T12:53:11Z</time><name>PT10014</name></trkpt>
<trkpt lat="52.951897" lon="06.001949"><ele>6.6</ele><time>2021-03-19T12:53:13Z</time><name>PT10015</name></trkpt>
<trkpt lat="52.951899" lon="06.001934"><ele>6.4</ele><time>2021-03-19T12:53:14Z</time><name>PT10016</name></trkpt>
<trkpt lat="52.951902" lon="06.001918"><ele>6.5</ele><time>2021-03-19T12:53:14Z</time><name>PT10017</name></trkpt>
<trkpt lat="52.951903" lon="06.001903"><ele>6.7</ele><time>2021-03-19T12:53:16Z</time><name>PT10018</name></trkpt>
<trkpt lat="52.951904" lon="06.001890"><ele>6.6</ele><time>2021-03-19T12:53:17Z</time><name>PT10019</name></trkpt>
<trkpt lat="52.951909" lon="06.001879"><ele>6.8</ele><time>2021-03-19T12:53:17Z</time><name>PT10020</name></trkpt>
<trkpt lat="52.951910" lon="06.001867"><ele>6.7</ele><time>2021-03-19T12:53:19Z</time><name>PT10021</name></trkpt>
<trkpt lat="52.951908" lon="06.001854"><ele>6.5</ele><time>2021-03-19T12:53:20Z</time><name>PT10022</name></trkpt>
<trkpt lat="52.951911" lon="06.001840"><ele>6.5</ele><time>2021-03-19T12:53:20Z</time><name>PT10023</name></trkpt>
<trkpt lat="52.951912" lon="06.001831"><ele>6.5</ele><time>2021-03-19T12:53:22Z</time><name>PT10024</name></trkpt>
<trkpt lat="52.951909" lon="06.001826"><ele>6.3</ele><time>2021-03-19T12:53:22Z</time><name>PT10025</name></trkpt>
<trkpt lat="52.951914" lon="06.001819"><ele>6.3</ele><time>2021-03-19T12:53:24Z</time><name>PT10026</name></trkpt>
<trkpt lat="52.951916" lon="06.001808"><ele>6.3</ele><time>2021-03-19T12:53:24Z</time><name>PT10027</name></trkpt>
<trkpt lat="52.951921" lon="06.001801"><ele>6.1</ele><time>2021-03-19T12:53:26Z</time><name>PT10028</name></trkpt>
<trkpt lat="52.951921" lon="06.001786"><ele>6.1</ele><time>2021-03-19T12:53:27Z</time><name>PT10029</name></trkpt>
<trkpt lat="52.951923" lon="06.001775"><ele>6.1</ele><time>2021-03-19T12:53:27Z</time><name>PT10030</name></trkpt>
<trkpt lat="52.951926" lon="06.001766"><ele>6.2</ele><time>2021-03-19T12:53:29Z</time><name>PT10031</name></trkpt>
<trkpt lat="52.951930" lon="06.001758"><ele>6.3</ele><time>2021-03-19T12:53:29Z</time><name>PT10032</name></trkpt>
<trkpt lat="52.951938" lon="06.001750"><ele>6.3</ele><time>2021-03-19T12:53:31Z</time><name>PT10033</name></trkpt>
<trkpt lat="52.951942" lon="06.001743"><ele>6.4</ele><time>2021-03-19T12:53:32Z</time><name>PT10034</name></trkpt>
<trkpt lat="52.951950" lon="06.001731"><ele>6.4</ele><time>2021-03-19T12:53:32Z</time><name>PT10035</name></trkpt>
<trkpt lat="52.951956" lon="06.001722"><ele>6.4</ele><time>2021-03-19T12:53:34Z</time><name>PT10036</name></trkpt>
<trkpt lat="52.951961" lon="06.001714"><ele>6.4</ele><time>2021-03-19T12:53:35Z</time><name>PT10037</name></trkpt>
<trkpt lat="52.951960" lon="06.001700"><ele>6.5</ele><time>2021-03-19T12:53:35Z</time><name>PT10038</name></trkpt>
<trkpt lat="52.951964" lon="06.001691"><ele>6.7</ele><time>2021-03-19T12:53:37Z</time><name>PT10039</name></trkpt>
<trkpt lat="52.951970" lon="06.001674"><ele>6.8</ele><time>2021-03-19T12:53:38Z</time><name>PT10040</name></trkpt>
<trkpt lat="52.951978" lon="06.001661"><ele>6.8</ele><time>2021-03-19T12:53:38Z</time><name>PT10041</name></trkpt>
<trkpt lat="52.951987" lon="06.001649"><ele>6.8</ele><time>2021-03-19T12:53:40Z</time><name>PT10042</name></trkpt>
<trkpt lat="52.951995" lon="06.001637"><ele>6.7</ele><time>2021-03-19T12:53:40Z</time><name>PT10043</name></trkpt>
<trkpt lat="52.952004" lon="06.001633"><ele>6.8</ele><time>2021-03-19T12:53:42Z</time><name>PT10044</name></trkpt>
<trkpt lat="52.952005" lon="06.001626"><ele>6.8</ele><time>2021-03-19T12:53:43Z</time><name>PT10045</name></trkpt>
<trkpt lat="52.952012" lon="06.001619"><ele>6.8</ele><time>2021-03-19T12:53:43Z</time><name>PT10046</name></trkpt>
<trkpt lat="52.952017" lon="06.001612"><ele>6.8</ele><time>2021-03-19T12:53:45Z</time><name>PT10047</name></trkpt>
<trkpt lat="52.952026" lon="06.001604"><ele>6.6</ele><time>2021-03-19T12:53:46Z</time><name>PT10048</name></trkpt>
<trkpt lat="52.952037" lon="06.001595"><ele>6.5</ele><time>2021-03-19T12:53:46Z</time><name>PT10049</name></trkpt>
<trkpt lat="52.952047" lon="06.001587"><ele>6.3</ele><time>2021-03-19T12:53:48Z</time><name>PT10050</name></trkpt>
<trkpt lat="52.952055" lon="06.001580"><ele>6.2</ele><time>2021-03-19T12:53:49Z</time><name>PT10051</name></trkpt>
<trkpt lat="52.952064" lon="06.001575"><ele>6.3</ele><time>2021-03-19T12:53:49Z</time><name>PT10052</name></trkpt>
<trkpt lat="52.952069" lon="06.001571"><ele>6.5</ele><time>2021-03-19T12:53:51Z</time><name>PT10053</name></trkpt>
<trkpt lat="52.952078" lon="06.001562"><ele>6.7</ele><time>2021-03-19T12:53:52Z</time><name>PT10054</name></trkpt>
<trkpt lat="52.952085" lon="06.001555"><ele>6.8</ele><time>2021-03-19T12:53:52Z</time><name>PT10055</name></trkpt>
<trkpt lat="52.952096" lon="06.001548"><ele>6.8</ele><time>2021-03-19T12:53:54Z</time><name>PT10056</name></trkpt>
<trkpt lat="52.952104" lon="06.001540"><ele>6.7</ele><time>2021-03-19T12:53:54Z</time><name>PT10057</name></trkpt>
<trkpt lat="52.952117" lon="06.001530"><ele>6.6</ele><time>2021-03-19T12:53:56Z</time><name>PT10058</name></trkpt>
<trkpt lat="52.952127" lon="06.001522"><ele>6.8</ele><time>2021-03-19T12:53:57Z</time><name>PT10059</name></trkpt>
<trkpt lat="52.952136" lon="06.001512"><ele>6.7</ele><time>2021-03-19T12:53:57Z</time><name>PT10060</name></trkpt>
<trkpt lat="52.952142" lon="06.001505"><ele>6.7</ele><time>2021-03-19T12:53:59Z</time><name>PT10061</name></trkpt>
<trkpt lat="52.952151" lon="06.001500"><ele>6.7</ele><time>2021-03-19T12:53:59Z</time><name>PT10062</name></trkpt>
<trkpt lat="52.952158" lon="06.001497"><ele>6.8</ele><time>2021-03-19T12:54:01Z</time><name>PT10063</name></trkpt>
<trkpt lat="52.952169" lon="06.001488"><ele>6.7</ele><time>2021-03-19T12:54:01Z</time><name>PT10064</name></trkpt>
<trkpt lat="52.952179" lon="06.001481"><ele>6.8</ele><time>2021-03-19T12:54:03Z</time><name>PT10065</name></trkpt>
<trkpt lat="52.952186" lon="06.001473"><ele>6.8</ele><time>2021-03-19T12:54:03Z</time><name>PT10066</name></trkpt>
<trkpt lat="52.952191" lon="06.001468"><ele>6.8</ele><time>2021-03-19T12:54:05Z</time><name>PT10067</name></trkpt>
<trkpt lat="52.952200" lon="06.001464"><ele>6.8</ele><time>2021-03-19T12:54:05Z</time><name>PT10068</name></trkpt>
<trkpt lat="52.952208" lon="06.001454"><ele>6.7</ele><time>2021-03-19T12:54:07Z</time><name>PT10069</name></trkpt>
<trkpt lat="52.952218" lon="06.001445"><ele>6.6</ele><time>2021-03-19T12:54:08Z</time><name>PT10070</name></trkpt>
<trkpt lat="52.952225" lon="06.001435"><ele>6.5</ele><time>2021-03-19T12:54:08Z</time><name>PT10071</name></trkpt>
<trkpt lat="52.952235" lon="06.001424"><ele>6.3</ele><time>2021-03-19T12:54:10Z</time><name>PT10072</name></trkpt>
<trkpt lat="52.952245" lon="06.001415"><ele>6.3</ele><time>2021-03-19T12:54:11Z</time><name>PT10073</name></trkpt>
<trkpt lat="52.952251" lon="06.001409"><ele>6.3</ele><time>2021-03-19T12:54:11Z</time><name>PT10074</name></trkpt>
<trkpt lat="52.952254" lon="06.001399"><ele>6.2</ele><time>2021-03-19T12:54:13Z</time><name>PT10075</name></trkpt>
<trkpt lat="52.952258" lon="06.001384"><ele>6.2</ele><time>2021-03-19T12:54:14Z</time><name>PT10076</name></trkpt>
<trkpt lat="52.952267" lon="06.001368"><ele>6</ele><time>2021-03-19T12:54:14Z</time><name>PT10077</name></trkpt>
<trkpt lat="52.952279" lon="06.001358"><ele>6</ele><time>2021-03-19T12:54:16Z</time><name>PT10078</name></trkpt>
<trkpt lat="52.952289" lon="06.001350"><ele>6</ele><time>2021-03-19T12:54:16Z</time><name>PT10079</name></trkpt>
<trkpt lat="52.952299" lon="06.001342"><ele>5.9</ele><time>2021-03-19T12:54:18Z</time><name>PT10080</name></trkpt>
<trkpt lat="52.952310" lon="06.001330"><ele>6.2</ele><time>2021-03-19T12:54:19Z</time><name>PT10081</name></trkpt>
<trkpt lat="52.952316" lon="06.001321"><ele>6.3</ele><time>2021-03-19T12:54:19Z</time><name>PT10082</name></trkpt>
<trkpt lat="52.952321" lon="06.001314"><ele>6.3</ele><time>2021-03-19T12:54:21Z</time><name>PT10083</name></trkpt>
<trkpt lat="52.952327" lon="06.001305"><ele>6.5</ele><time>2021-03-19T12:54:21Z</time><name>PT10084</name></trkpt>
<trkpt lat="52.952333" lon="06.001297"><ele>6.7</ele><time>2021-03-19T12:54:23Z</time><name>PT10085</name></trkpt>
<trkpt lat="52.952338" lon="06.001288"><ele>6.8</ele><time>2021-03-19T12:54:24Z</time><name>PT10086</name></trkpt>
<trkpt lat="52.952346" lon="06.001279"><ele>6.8</ele><time>2021-03-19T12:54:24Z</time><name>PT10087</name></trkpt>
<trkpt lat="52.952355" lon="06.001270"><ele>6.8</ele><time>2021-03-19T12:54:26Z</time><name>PT10088</name></trkpt>
<trkpt lat="52.952367" lon="06.001262"><ele>6.8</ele><time>2021-03-19T12:54:26Z</time><name>PT10089</name></trkpt>
<trkpt lat="52.952377" lon="06.001255"><ele>6.8</ele><time>2021-03-19T12:54:28Z</time><name>PT10090</name></trkpt>
<trkpt lat="52.952390" lon="06.001248"><ele>6.8</ele><time>2021-03-19T12:54:28Z</time><name>PT10091</name></trkpt>
<trkpt lat="52.952404" lon="06.001243"><ele>6.8</ele><time>2021-03-19T12:54:30Z</time><name>PT10092</name></trkpt>
<trkpt lat="52.952413" lon="06.001240"><ele>7</ele><time>2021-03-19T12:54:30Z</time><name>PT10093</name></trkpt>
<trkpt lat="52.952425" lon="06.001233"><ele>7</ele><time>2021-03-19T12:54:32Z</time><name>PT10094</name></trkpt>
<trkpt lat="52.952441" lon="06.001231"><ele>6.9</ele><time>2021-03-19T12:54:33Z</time><name>PT10095</name></trkpt>
<trkpt lat="52.952445" lon="06.001230"><ele>6.8</ele><time>2021-03-19T12:54:33Z</time><name>PT10096</name></trkpt>
<trkpt lat="52.952453" lon="06.001232"><ele>6.8</ele><time>2021-03-19T12:54:35Z</time><name>PT10097</name></trkpt>
<trkpt lat="52.952464" lon="06.001236"><ele>6.8</ele><time>2021-03-19T12:54:36Z</time><name>PT10098</name></trkpt>
<trkpt lat="52.952473" lon="06.001238"><ele>6.8</ele><time>2021-03-19T12:54:36Z</time><name>PT10099</name></trkpt>
<trkpt lat="52.952479" lon="06.001242"><ele>6.8</ele><time>2021-03-19T12:54:38Z</time><name>PT10100</name></trkpt>
<trkpt lat="52.952490" lon="06.001244"><ele>6.8</ele><time>2021-03-19T12:54:38Z</time><name>PT10101</name></trkpt>
<trkpt lat="52.952499" lon="06.001246"><ele>6.7</ele><time>2021-03-19T12:54:40Z</time><name>PT10102</name></trkpt>
<trkpt lat="52.952507" lon="06.001248"><ele>6.7</ele><time>2021-03-19T12:54:41Z</time><name>PT10103</name></trkpt>
<trkpt lat="52.952515" lon="06.001248"><ele>6.7</ele><time>2021-03-19T12:54:41Z</time><name>PT10104</name></trkpt>
<trkpt lat="52.952523" lon="06.001249"><ele>6.8</ele><time>2021-03-19T12:54:43Z</time><name>PT10105</name></trkpt>
<trkpt lat="52.952536" lon="06.001251"><ele>7.1</ele><time>2021-03-19T12:54:44Z</time><name>PT10106</name></trkpt>
<trkpt lat="52.952542" lon="06.001255"><ele>6.8</ele><time>2021-03-19T12:54:44Z</time><name>PT10107</name></trkpt>
<trkpt lat="52.952552" lon="06.001260"><ele>7.2</ele><time>2021-03-19T12:54:46Z</time><name>PT10108</name></trkpt>
<trkpt lat="52.952561" lon="06.001263"><ele>7</ele><time>2021-03-19T12:54:47Z</time><name>PT10109</name></trkpt>
<trkpt lat="52.952570" lon="06.001267"><ele>7</ele><time>2021-03-19T12:54:47Z</time><name>PT10110</name></trkpt>
<trkpt lat="52.952578" lon="06.001271"><ele>7.1</ele><time>2021-03-19T12:54:49Z</time><name>PT10111</name></trkpt>
<trkpt lat="52.952585" lon="06.001276"><ele>7</ele><time>2021-03-19T12:54:50Z</time><name>PT10112</name></trkpt>
<trkpt lat="52.952594" lon="06.001279"><ele>6.9</ele><time>2021-03-19T12:54:50Z</time><name>PT10113</name></trkpt>
<trkpt lat="52.952604" lon="06.001283"><ele>7</ele><time>2021-03-19T12:54:52Z</time><name>PT10114</name></trkpt>
<trkpt lat="52.952611" lon="06.001291"><ele>7</ele><time>2021-03-19T12:54:53Z</time><name>PT10115</name></trkpt>
<trkpt lat="52.952616" lon="06.001295"><ele>7</ele><time>2021-03-19T12:54:53Z</time><name>PT10116</name></trkpt>
<trkpt lat="52.952620" lon="06.001302"><ele>6.9</ele><time>2021-03-19T12:54:55Z</time><name>PT10117</name></trkpt>
<trkpt lat="52.952630" lon="06.001304"><ele>6.8</ele><time>2021-03-19T12:54:56Z</time><name>PT10118</name></trkpt>
<trkpt lat="52.952640" lon="06.001313"><ele>6.7</ele><time>2021-03-19T12:54:56Z</time><name>PT10119</name></trkpt>
<trkpt lat="52.952643" lon="06.001318"><ele>6.7</ele><time>2021-03-19T12:54:58Z</time><name>PT10120</name></trkpt>
<trkpt lat="52.952644" lon="06.001319"><ele>6.6</ele><time>2021-03-19T12:54:59Z</time><name>PT10121</name></trkpt>
<trkpt lat="52.952656" lon="06.001324"><ele>6.6</ele><time>2021-03-19T12:54:59Z</time><name>PT10122</name></trkpt>
<trkpt lat="52.952666" lon="06.001330"><ele>6.8</ele><time>2021-03-19T12:55:01Z</time><name>PT10123</name></trkpt>
<trkpt lat="52.952674" lon="06.001336"><ele>6.6</ele><time>2021-03-19T12:55:01Z</time><name>PT10124</name></trkpt>
<trkpt lat="52.952684" lon="06.001339"><ele>6.5</ele><time>2021-03-19T12:55:03Z</time><name>PT10125</name></trkpt>
<trkpt lat="52.952690" lon="06.001339"><ele>6.3</ele><time>2021-03-19T12:55:04Z</time><name>PT10126</name></trkpt>
<trkpt lat="52.952703" lon="06.001344"><ele>6.3</ele><time>2021-03-19T12:55:04Z</time><name>PT10127</name></trkpt>
<trkpt lat="52.952711" lon="06.001346"><ele>6.3</ele><time>2021-03-19T12:55:06Z</time><name>PT10128</name></trkpt>
<trkpt lat="52.952718" lon="06.001348"><ele>6.5</ele><time>2021-03-19T12:55:07Z</time><name>PT10129</name></trkpt>
<trkpt lat="52.952722" lon="06.001343"><ele>6.7</ele><time>2021-03-19T12:55:07Z</time><name>PT10130</name></trkpt>
<trkpt lat="52.952730" lon="06.001341"><ele>6.8</ele><time>2021-03-19T12:55:09Z</time><name>PT10131</name></trkpt>
<trkpt lat="52.952734" lon="06.001344"><ele>6.8</ele><time>2021-03-19T12:55:09Z</time><name>PT10132</name></trkpt>
<trkpt lat="52.952736" lon="06.001346"><ele>7.1</ele><time>2021-03-19T12:55:11Z</time><name>PT10133</name></trkpt>
<trkpt lat="52.952738" lon="06.001348"><ele>7.2</ele><time>2021-03-19T12:55:12Z</time><name>PT10134</name></trkpt>
<trkpt lat="52.952748" lon="06.001368"><ele>6.8</ele><time>2021-03-19T12:56:31Z</time><name>PT10135</name></trkpt>
<trkpt lat="52.952755" lon="06.001379"><ele>6.8</ele><time>2021-03-19T12:56:31Z</time><name>PT10136</name></trkpt>
<trkpt lat="52.952762" lon="06.001382"><ele>6.5</ele><time>2021-03-19T12:56:33Z</time><name>PT10137</name></trkpt>
<trkpt lat="52.952774" lon="06.001380"><ele>6.6</ele><time>2021-03-19T12:56:34Z</time><name>PT10138</name></trkpt>
<trkpt lat="52.952783" lon="06.001378"><ele>6.5</ele><time>2021-03-19T12:56:35Z</time><name>PT10139</name></trkpt>
<trkpt lat="52.952792" lon="06.001373"><ele>6.5</ele><time>2021-03-19T12:56:35Z</time><name>PT10140</name></trkpt>
<trkpt lat="52.952806" lon="06.001364"><ele>6.7</ele><time>2021-03-19T12:56:37Z</time><name>PT10141</name></trkpt>
<trkpt lat="52.952820" lon="06.001354"><ele>6.8</ele><time>2021-03-19T12:56:38Z</time><name>PT10142</name></trkpt>
<trkpt lat="52.952826" lon="06.001346"><ele>6.7</ele><time>2021-03-19T12:56:38Z</time><name>PT10143</name></trkpt>
<trkpt lat="52.952831" lon="06.001338"><ele>6.5</ele><time>2021-03-19T12:56:40Z</time><name>PT10144</name></trkpt>
<trkpt lat="52.952837" lon="06.001334"><ele>6.4</ele><time>2021-03-19T12:56:40Z</time><name>PT10145</name></trkpt>
<trkpt lat="52.952842" lon="06.001331"><ele>6.4</ele><time>2021-03-19T12:56:41Z</time><name>PT10146</name></trkpt>
<trkpt lat="52.952848" lon="06.001328"><ele>6.3</ele><time>2021-03-19T12:56:43Z</time><name>PT10147</name></trkpt>
<trkpt lat="52.952853" lon="06.001325"><ele>6.3</ele><time>2021-03-19T12:56:43Z</time><name>PT10148</name></trkpt>
<trkpt lat="52.952859" lon="06.001321"><ele>6.5</ele><time>2021-03-19T12:56:45Z</time><name>PT10149</name></trkpt>
<trkpt lat="52.952871" lon="06.001316"><ele>6.6</ele><time>2021-03-19T12:56:46Z</time><name>PT10150</name></trkpt>
<trkpt lat="52.952877" lon="06.001316"><ele>6.7</ele><time>2021-03-19T12:56:46Z</time><name>PT10151</name></trkpt>
<trkpt lat="52.952878" lon="06.001313"><ele>6.6</ele><time>2021-03-19T12:56:48Z</time><name>PT10152</name></trkpt>
<trkpt lat="52.952887" lon="06.001299"><ele>6.3</ele><time>2021-03-19T12:56:58Z</time><name>PT10153</name></trkpt>
<trkpt lat="52.952891" lon="06.001302"><ele>6.4</ele><time>2021-03-19T12:56:58Z</time><name>PT10154</name></trkpt>
<trkpt lat="52.952899" lon="06.001294"><ele>6.8</ele><time>2021-03-19T12:57:00Z</time><name>PT10155</name></trkpt>
<trkpt lat="52.952904" lon="06.001290"><ele>6.7</ele><time>2021-03-19T12:57:00Z</time><name>PT10156</name></trkpt>
<trkpt lat="52.952908" lon="06.001282"><ele>7</ele><time>2021-03-19T12:57:02Z</time><name>PT10157</name></trkpt>
<trkpt lat="52.952916" lon="06.001279"><ele>6.4</ele><time>2021-03-19T12:57:03Z</time><name>PT10158</name></trkpt>
<trkpt lat="52.952919" lon="06.001277"><ele>6.4</ele><time>2021-03-19T12:57:03Z</time><name>PT10159</name></trkpt>
<trkpt lat="52.952923" lon="06.001274"><ele>6.3</ele><time>2021-03-19T12:57:05Z</time><name>PT10160</name></trkpt>
<trkpt lat="52.952928" lon="06.001268"><ele>6.3</ele><time>2021-03-19T12:57:05Z</time><name>PT10161</name></trkpt>
<trkpt lat="52.952933" lon="06.001260"><ele>6.2</ele><time>2021-03-19T12:57:07Z</time><name>PT10162</name></trkpt>
<trkpt lat="52.952936" lon="06.001250"><ele>6.3</ele><time>2021-03-19T12:57:08Z</time><name>PT10163</name></trkpt>
<trkpt lat="52.952941" lon="06.001245"><ele>6.2</ele><time>2021-03-19T12:57:08Z</time><name>PT10164</name></trkpt>
<trkpt lat="52.952947" lon="06.001237"><ele>6.2</ele><time>2021-03-19T12:57:10Z</time><name>PT10165</name></trkpt>
<trkpt lat="52.952951" lon="06.001231"><ele>6</ele><time>2021-03-19T12:57:10Z</time><name>PT10166</name></trkpt>
<trkpt lat="52.952955" lon="06.001229"><ele>5.8</ele><time>2021-03-19T12:57:12Z</time><name>PT10167</name></trkpt>
<trkpt lat="52.952960" lon="06.001227"><ele>6</ele><time>2021-03-19T12:57:13Z</time><name>PT10168</name></trkpt>
<trkpt lat="52.952971" lon="06.001221"><ele>6</ele><time>2021-03-19T12:57:13Z</time><name>PT10169</name></trkpt>
<trkpt lat="52.952978" lon="06.001216"><ele>6.2</ele><time>2021-03-19T12:57:15Z</time><name>PT10170</name></trkpt>
<trkpt lat="52.952982" lon="06.001212"><ele>6.3</ele><time>2021-03-19T12:57:16Z</time><name>PT10171</name></trkpt>
<trkpt lat="52.952984" lon="06.001206"><ele>6.3</ele><time>2021-03-19T12:57:16Z</time><name>PT10172</name></trkpt>
<trkpt lat="52.952994" lon="06.001198"><ele>6.3</ele><time>2021-03-19T12:57:18Z</time><name>PT10173</name></trkpt>
<trkpt lat="52.953007" lon="06.001192"><ele>6.3</ele><time>2021-03-19T12:57:18Z</time><name>PT10174</name></trkpt>
<trkpt lat="52.953018" lon="06.001189"><ele>6.2</ele><time>2021-03-19T12:57:20Z</time><name>PT10175</name></trkpt>
<trkpt lat="52.953019" lon="06.001181"><ele>6.2</ele><time>2021-03-19T12:57:20Z</time><name>PT10176</name></trkpt>
<trkpt lat="52.953023" lon="06.001171"><ele>6.2</ele><time>2021-03-19T12:57:22Z</time><name>PT10177</name></trkpt>
<trkpt lat="52.953032" lon="06.001165"><ele>6.3</ele><time>2021-03-19T12:57:23Z</time><name>PT10178</name></trkpt>
<trkpt lat="52.953038" lon="06.001157"><ele>6.3</ele><time>2021-03-19T12:57:23Z</time><name>PT10179</name></trkpt>
<trkpt lat="52.953047" lon="06.001149"><ele>6.3</ele><time>2021-03-19T12:57:25Z</time><name>PT10180</name></trkpt>
<trkpt lat="52.953056" lon="06.001139"><ele>6.3</ele><time>2021-03-19T12:57:26Z</time><name>PT10181</name></trkpt>
<trkpt lat="52.953068" lon="06.001130"><ele>6.5</ele><time>2021-03-19T12:57:26Z</time><name>PT10182</name></trkpt>
<trkpt lat="52.953074" lon="06.001124"><ele>6.5</ele><time>2021-03-19T12:57:28Z</time><name>PT10183</name></trkpt>
<trkpt lat="52.953077" lon="06.001118"><ele>6.5</ele><time>2021-03-19T12:57:29Z</time><name>PT10184</name></trkpt>
<trkpt lat="52.953084" lon="06.001111"><ele>6.6</ele><time>2021-03-19T12:57:29Z</time><name>PT10185</name></trkpt>
<trkpt lat="52.953093" lon="06.001105"><ele>6.3</ele><time>2021-03-19T12:57:31Z</time><name>PT10186</name></trkpt>
<trkpt lat="52.953106" lon="06.001098"><ele>6.2</ele><time>2021-03-19T12:57:32Z</time><name>PT10187</name></trkpt>
<trkpt lat="52.953117" lon="06.001090"><ele>6.3</ele><time>2021-03-19T12:57:32Z</time><name>PT10188</name></trkpt>
<trkpt lat="52.953130" lon="06.001078"><ele>6.1</ele><time>2021-03-19T12:57:34Z</time><name>PT10189</name></trkpt>
<trkpt lat="52.953139" lon="06.001068"><ele>6.2</ele><time>2021-03-19T12:57:35Z</time><name>PT10190</name></trkpt>
<trkpt lat="52.953144" lon="06.001059"><ele>6.1</ele><time>2021-03-19T12:57:35Z</time><name>PT10191</name></trkpt>
<trkpt lat="52.953152" lon="06.001052"><ele>6.3</ele><time>2021-03-19T12:57:37Z</time><name>PT10192</name></trkpt>
<trkpt lat="52.953169" lon="06.001034"><ele>6.2</ele><time>2021-03-19T12:57:38Z</time><name>PT10193</name></trkpt>
<trkpt lat="52.953180" lon="06.001026"><ele>6.3</ele><time>2021-03-19T12:57:38Z</time><name>PT10194</name></trkpt>
<trkpt lat="52.953188" lon="06.001022"><ele>6.3</ele><time>2021-03-19T12:57:40Z</time><name>PT10195</name></trkpt>
<trkpt lat="52.953198" lon="06.001015"><ele>6.1</ele><time>2021-03-19T12:57:41Z</time><name>PT10196</name></trkpt>
<trkpt lat="52.953206" lon="06.001008"><ele>6.1</ele><time>2021-03-19T12:57:41Z</time><name>PT10197</name></trkpt>
<trkpt lat="52.953214" lon="06.001002"><ele>6</ele><time>2021-03-19T12:57:43Z</time><name>PT10198</name></trkpt>
<trkpt lat="52.953221" lon="06.000997"><ele>5.9</ele><time>2021-03-19T12:57:44Z</time><name>PT10199</name></trkpt>
<trkpt lat="52.953227" lon="06.000993"><ele>5.9</ele><time>2021-03-19T12:57:44Z</time><name>PT10200</name></trkpt>
<trkpt lat="52.953229" lon="06.000987"><ele>6.1</ele><time>2021-03-19T12:57:47Z</time><name>PT10201</name></trkpt>
<trkpt lat="52.953239" lon="06.000975"><ele>6.1</ele><time>2021-03-19T12:57:47Z</time><name>PT10202</name></trkpt>
<trkpt lat="52.953248" lon="06.000957"><ele>6.3</ele><time>2021-03-19T12:57:49Z</time><name>PT10203</name></trkpt>
<trkpt lat="52.953262" lon="06.000946"><ele>6.3</ele><time>2021-03-19T12:57:49Z</time><name>PT10204</name></trkpt>
<trkpt lat="52.953275" lon="06.000936"><ele>6.4</ele><time>2021-03-19T12:57:51Z</time><name>PT10205</name></trkpt>
<trkpt lat="52.953284" lon="06.000928"><ele>6.4</ele><time>2021-03-19T12:57:52Z</time><name>PT10206</name></trkpt>
<trkpt lat="52.953288" lon="06.000909"><ele>6.4</ele><time>2021-03-19T12:57:52Z</time><name>PT10207</name></trkpt>
<trkpt lat="52.953298" lon="06.000898"><ele>6.3</ele><time>2021-03-19T12:57:54Z</time><name>PT10208</name></trkpt>
<trkpt lat="52.953310" lon="06.000896"><ele>6.2</ele><time>2021-03-19T12:57:55Z</time><name>PT10209</name></trkpt>
<trkpt lat="52.953328" lon="06.000889"><ele>6.1</ele><time>2021-03-19T12:57:55Z</time><name>PT10210</name></trkpt>
<trkpt lat="52.953338" lon="06.000881"><ele>6.3</ele><time>2021-03-19T12:57:57Z</time><name>PT10211</name></trkpt>
<trkpt lat="52.953348" lon="06.000871"><ele>6.4</ele><time>2021-03-19T12:57:57Z</time><name>PT10212</name></trkpt>
<trkpt lat="52.953355" lon="06.000863"><ele>6.4</ele><time>2021-03-19T12:57:59Z</time><name>PT10213</name></trkpt>
<trkpt lat="52.953361" lon="06.000857"><ele>6.5</ele><time>2021-03-19T12:58:00Z</time><name>PT10214</name></trkpt>
<trkpt lat="52.953369" lon="06.000849"><ele>6.5</ele><time>2021-03-19T12:58:00Z</time><name>PT10215</name></trkpt>
<trkpt lat="52.953378" lon="06.000842"><ele>6.5</ele><time>2021-03-19T12:58:02Z</time><name>PT10216</name></trkpt>
<trkpt lat="52.953383" lon="06.000838"><ele>6.6</ele><time>2021-03-19T12:58:02Z</time><name>PT10217</name></trkpt>
<trkpt lat="52.953389" lon="06.000827"><ele>6.5</ele><time>2021-03-19T12:58:04Z</time><name>PT10218</name></trkpt>
<trkpt lat="52.953397" lon="06.000818"><ele>6.5</ele><time>2021-03-19T12:58:05Z</time><name>PT10219</name></trkpt>
<trkpt lat="52.953402" lon="06.000809"><ele>6.5</ele><time>2021-03-19T12:58:05Z</time><name>PT10220</name></trkpt>
<trkpt lat="52.953409" lon="06.000805"><ele>6.3</ele><time>2021-03-19T12:58:07Z</time><name>PT10221</name></trkpt>
<trkpt lat="52.953418" lon="06.000796"><ele>6.6</ele><time>2021-03-19T12:58:08Z</time><name>PT10222</name></trkpt>
<trkpt lat="52.953427" lon="06.000788"><ele>6.5</ele><time>2021-03-19T12:58:08Z</time><name>PT10223</name></trkpt>
<trkpt lat="52.953435" lon="06.000778"><ele>6.5</ele><time>2021-03-19T12:58:10Z</time><name>PT10224</name></trkpt>
<trkpt lat="52.953441" lon="06.000768"><ele>6.3</ele><time>2021-03-19T12:58:11Z</time><name>PT10225</name></trkpt>
<trkpt lat="52.953450" lon="06.000759"><ele>6.2</ele><time>2021-03-19T12:58:11Z</time><name>PT10226</name></trkpt>
<trkpt lat="52.953456" lon="06.000753"><ele>6.2</ele><time>2021-03-19T12:58:13Z</time><name>PT10227</name></trkpt>
<trkpt lat="52.953460" lon="06.000751"><ele>5.9</ele><time>2021-03-19T12:58:14Z</time><name>PT10228</name></trkpt>
<trkpt lat="52.953464" lon="06.000747"><ele>6</ele><time>2021-03-19T12:58:14Z</time><name>PT10229</name></trkpt>
<trkpt lat="52.953472" lon="06.000739"><ele>6</ele><time>2021-03-19T12:58:16Z</time><name>PT10230</name></trkpt>
<trkpt lat="52.953482" lon="06.000732"><ele>6</ele><time>2021-03-19T12:58:17Z</time><name>PT10231</name></trkpt>
<trkpt lat="52.953486" lon="06.000721"><ele>6</ele><time>2021-03-19T12:58:17Z</time><name>PT10232</name></trkpt>
<trkpt lat="52.953501" lon="06.000707"><ele>6.2</ele><time>2021-03-19T12:58:19Z</time><name>PT10233</name></trkpt>
<trkpt lat="52.953510" lon="06.000700"><ele>6.3</ele><time>2021-03-19T12:58:20Z</time><name>PT10234</name></trkpt>
<trkpt lat="52.953520" lon="06.000693"><ele>6.3</ele><time>2021-03-19T12:58:20Z</time><name>PT10235</name></trkpt>
<trkpt lat="52.953529" lon="06.000687"><ele>6.3</ele><time>2021-03-19T12:58:22Z</time><name>PT10236</name></trkpt>
<trkpt lat="52.953538" lon="06.000679"><ele>6.4</ele><time>2021-03-19T12:58:22Z</time><name>PT10237</name></trkpt>
<trkpt lat="52.953547" lon="06.000671"><ele>6.4</ele><time>2021-03-19T12:58:24Z</time><name>PT10238</name></trkpt>
<trkpt lat="52.953560" lon="06.000663"><ele>6.4</ele><time>2021-03-19T12:58:24Z</time><name>PT10239</name></trkpt>
<trkpt lat="52.953569" lon="06.000659"><ele>6.2</ele><time>2021-03-19T12:58:26Z</time><name>PT10240</name></trkpt>
<trkpt lat="52.953573" lon="06.000655"><ele>6.3</ele><time>2021-03-19T12:58:27Z</time><name>PT10241</name></trkpt>
<trkpt lat="52.953581" lon="06.000645"><ele>6.3</ele><time>2021-03-19T12:58:27Z</time><name>PT10242</name></trkpt>
<trkpt lat="52.953592" lon="06.000636"><ele>6.4</ele><time>2021-03-19T12:58:29Z</time><name>PT10243</name></trkpt>
<trkpt lat="52.953597" lon="06.000627"><ele>6.6</ele><time>2021-03-19T12:58:29Z</time><name>PT10244</name></trkpt>
<trkpt lat="52.953602" lon="06.000620"><ele>6.6</ele><time>2021-03-19T12:58:31Z</time><name>PT10245</name></trkpt>
<trkpt lat="52.953610" lon="06.000616"><ele>6.5</ele><time>2021-03-19T12:58:32Z</time><name>PT10246</name></trkpt>
<trkpt lat="52.953622" lon="06.000607"><ele>6.4</ele><time>2021-03-19T12:58:32Z</time><name>PT10247</name></trkpt>
<trkpt lat="52.953634" lon="06.000596"><ele>6.5</ele><time>2021-03-19T12:58:34Z</time><name>PT10248</name></trkpt>
<trkpt lat="52.953644" lon="06.000589"><ele>6.3</ele><time>2021-03-19T12:58:34Z</time><name>PT10249</name></trkpt>
<trkpt lat="52.953652" lon="06.000584"><ele>6.3</ele><time>2021-03-19T12:58:36Z</time><name>PT10250</name></trkpt>
<trkpt lat="52.953662" lon="06.000581"><ele>6.4</ele><time>2021-03-19T12:58:37Z</time><name>PT10251</name></trkpt>
<trkpt lat="52.953672" lon="06.000571"><ele>6.4</ele><time>2021-03-19T12:58:37Z</time><name>PT10252</name></trkpt>
<trkpt lat="52.953674" lon="06.000564"><ele>6.4</ele><time>2021-03-19T12:58:39Z</time><name>PT10253</name></trkpt>
<trkpt lat="52.953678" lon="06.000555"><ele>6.2</ele><time>2021-03-19T12:58:39Z</time><name>PT10254</name></trkpt>
<trkpt lat="52.953679" lon="06.000528"><ele>5.9</ele><time>2021-03-19T12:58:43Z</time><name>PT10255</name></trkpt>
<trkpt lat="52.953695" lon="06.000515"><ele>5.9</ele><time>2021-03-19T12:58:44Z</time><name>PT10256</name></trkpt>
<trkpt lat="52.953704" lon="06.000498"><ele>5.9</ele><time>2021-03-19T12:58:44Z</time><name>PT10257</name></trkpt>
<trkpt lat="52.953715" lon="06.000476"><ele>6</ele><time>2021-03-19T12:58:46Z</time><name>PT10258</name></trkpt>
<trkpt lat="52.953724" lon="06.000466"><ele>6.1</ele><time>2021-03-19T12:58:46Z</time><name>PT10259</name></trkpt>
<trkpt lat="52.953737" lon="06.000457"><ele>6.2</ele><time>2021-03-19T12:58:48Z</time><name>PT10260</name></trkpt>
<trkpt lat="52.953746" lon="06.000446"><ele>6.4</ele><time>2021-03-19T12:58:49Z</time><name>PT10261</name></trkpt>
<trkpt lat="52.953759" lon="06.000433"><ele>6.5</ele><time>2021-03-19T12:58:49Z</time><name>PT10262</name></trkpt>
<trkpt lat="52.953769" lon="06.000420"><ele>6.4</ele><time>2021-03-19T12:58:51Z</time><name>PT10263</name></trkpt>
<trkpt lat="52.953777" lon="06.000412"><ele>6.6</ele><time>2021-03-19T12:58:52Z</time><name>PT10264</name></trkpt>
<trkpt lat="52.953791" lon="06.000403"><ele>6.4</ele><time>2021-03-19T12:58:52Z</time><name>PT10265</name></trkpt>
<trkpt lat="52.953805" lon="06.000395"><ele>6.4</ele><time>2021-03-19T12:58:54Z</time><name>PT10266</name></trkpt>
<trkpt lat="52.953816" lon="06.000388"><ele>6.3</ele><time>2021-03-19T12:58:55Z</time><name>PT10267</name></trkpt>
<trkpt lat="52.953825" lon="06.000378"><ele>6.3</ele><time>2021-03-19T12:58:55Z</time><name>PT10268</name></trkpt>
<trkpt lat="52.953829" lon="06.000373"><ele>6.2</ele><time>2021-03-19T12:58:57Z</time><name>PT10269</name></trkpt>
<trkpt lat="52.953839" lon="06.000367"><ele>6.1</ele><time>2021-03-19T12:58:58Z</time><name>PT10270</name></trkpt>
<trkpt lat="52.953854" lon="06.000356"><ele>6.2</ele><time>2021-03-19T12:58:58Z</time><name>PT10271</name></trkpt>
<trkpt lat="52.953870" lon="06.000345"><ele>6.1</ele><time>2021-03-19T12:59:00Z</time><name>PT10272</name></trkpt>
<trkpt lat="52.953883" lon="06.000334"><ele>6</ele><time>2021-03-19T12:59:01Z</time><name>PT10273</name></trkpt>
<trkpt lat="52.953897" lon="06.000328"><ele>6</ele><time>2021-03-19T12:59:01Z</time><name>PT10274</name></trkpt>
<trkpt lat="52.953906" lon="06.000320"><ele>6.1</ele><time>2021-03-19T12:59:03Z</time><name>PT10275</name></trkpt>
<trkpt lat="52.953917" lon="06.000316"><ele>6.2</ele><time>2021-03-19T12:59:03Z</time><name>PT10276</name></trkpt>
<trkpt lat="52.953925" lon="06.000309"><ele>6.1</ele><time>2021-03-19T12:59:05Z</time><name>PT10277</name></trkpt>
<trkpt lat="52.953934" lon="06.000299"><ele>6.1</ele><time>2021-03-19T12:59:06Z</time><name>PT10278</name></trkpt>
<trkpt lat="52.953939" lon="06.000291"><ele>6</ele><time>2021-03-19T12:59:06Z</time><name>PT10279</name></trkpt>
<trkpt lat="52.953949" lon="06.000283"><ele>6.1</ele><time>2021-03-19T12:59:08Z</time><name>PT10280</name></trkpt>
<trkpt lat="52.953957" lon="06.000278"><ele>6</ele><time>2021-03-19T12:59:09Z</time><name>PT10281</name></trkpt>
<trkpt lat="52.953966" lon="06.000270"><ele>6</ele><time>2021-03-19T12:59:09Z</time><name>PT10282</name></trkpt>
<trkpt lat="52.953980" lon="06.000263"><ele>6</ele><time>2021-03-19T12:59:11Z</time><name>PT10283</name></trkpt>
<trkpt lat="52.953992" lon="06.000257"><ele>5.9</ele><time>2021-03-19T12:59:11Z</time><name>PT10284</name></trkpt>
<trkpt lat="52.954000" lon="06.000252"><ele>5.7</ele><time>2021-03-19T12:59:13Z</time><name>PT10285</name></trkpt>
<trkpt lat="52.954006" lon="06.000248"><ele>5.7</ele><time>2021-03-19T12:59:14Z</time><name>PT10286</name></trkpt>
<trkpt lat="52.954013" lon="06.000241"><ele>5.7</ele><time>2021-03-19T12:59:14Z</time><name>PT10287</name></trkpt>
<trkpt lat="52.954023" lon="06.000236"><ele>5.7</ele><time>2021-03-19T12:59:16Z</time><name>PT10288</name></trkpt>
<trkpt lat="52.954032" lon="06.000231"><ele>5.9</ele><time>2021-03-19T12:59:17Z</time><name>PT10289</name></trkpt>
<trkpt lat="52.954042" lon="06.000224"><ele>5.9</ele><time>2021-03-19T12:59:17Z</time><name>PT10290</name></trkpt>
<trkpt lat="52.954048" lon="06.000220"><ele>6</ele><time>2021-03-19T12:59:19Z</time><name>PT10291</name></trkpt>
<trkpt lat="52.954058" lon="06.000219"><ele>6.1</ele><time>2021-03-19T12:59:19Z</time><name>PT10292</name></trkpt>
<trkpt lat="52.954064" lon="06.000216"><ele>6.3</ele><time>2021-03-19T12:59:21Z</time><name>PT10293</name></trkpt>
<trkpt lat="52.954070" lon="06.000214"><ele>6.3</ele><time>2021-03-19T12:59:21Z</time><name>PT10294</name></trkpt>
<trkpt lat="52.954078" lon="06.000208"><ele>6.3</ele><time>2021-03-19T12:59:23Z</time><name>PT10295</name></trkpt>
<trkpt lat="52.954090" lon="06.000204"><ele>6.4</ele><time>2021-03-19T12:59:23Z</time><name>PT10296</name></trkpt>
<trkpt lat="52.954098" lon="06.000204"><ele>6.3</ele><time>2021-03-19T12:59:25Z</time><name>PT10297</name></trkpt>
<trkpt lat="52.954108" lon="06.000203"><ele>6.3</ele><time>2021-03-19T12:59:25Z</time><name>PT10298</name></trkpt>
<trkpt lat="52.954120" lon="06.000206"><ele>6</ele><time>2021-03-19T12:59:27Z</time><name>PT10299</name></trkpt>
<trkpt lat="52.954126" lon="06.000207"><ele>5.9</ele><time>2021-03-19T12:59:28Z</time><name>PT10300</name></trkpt>
<trkpt lat="52.954134" lon="06.000204"><ele>5.8</ele><time>2021-03-19T12:59:28Z</time><name>PT10301</name></trkpt>
<trkpt lat="52.954140" lon="06.000202"><ele>5.9</ele><time>2021-03-19T12:59:30Z</time><name>PT10302</name></trkpt>
<trkpt lat="52.954147" lon="06.000202"><ele>6</ele><time>2021-03-19T12:59:31Z</time><name>PT10303</name></trkpt>
<trkpt lat="52.954157" lon="06.000199"><ele>6.1</ele><time>2021-03-19T12:59:31Z</time><name>PT10304</name></trkpt>
<trkpt lat="52.954169" lon="06.000196"><ele>6.2</ele><time>2021-03-19T12:59:33Z</time><name>PT10305</name></trkpt>
<trkpt lat="52.954178" lon="06.000193"><ele>6.2</ele><time>2021-03-19T12:59:33Z</time><name>PT10306</name></trkpt>
<trkpt lat="52.954182" lon="06.000190"><ele>6.1</ele><time>2021-03-19T12:59:35Z</time><name>PT10307</name></trkpt>
<trkpt lat="52.954187" lon="06.000184"><ele>5.9</ele><time>2021-03-19T12:59:36Z</time><name>PT10308</name></trkpt>
<trkpt lat="52.954193" lon="06.000181"><ele>5.9</ele><time>2021-03-19T12:59:36Z</time><name>PT10309</name></trkpt>
<trkpt lat="52.954201" lon="06.000178"><ele>5.8</ele><time>2021-03-19T12:59:38Z</time><name>PT10310</name></trkpt>
<trkpt lat="52.954206" lon="06.000176"><ele>5.7</ele><time>2021-03-19T12:59:39Z</time><name>PT10311</name></trkpt>
<trkpt lat="52.954210" lon="06.000171"><ele>5.5</ele><time>2021-03-19T12:59:39Z</time><name>PT10312</name></trkpt>
<trkpt lat="52.954215" lon="06.000164"><ele>5.5</ele><time>2021-03-19T12:59:41Z</time><name>PT10313</name></trkpt>
<trkpt lat="52.954222" lon="06.000157"><ele>5.5</ele><time>2021-03-19T12:59:42Z</time><name>PT10314</name></trkpt>
<trkpt lat="52.954227" lon="06.000151"><ele>5.6</ele><time>2021-03-19T12:59:42Z</time><name>PT10315</name></trkpt>
<trkpt lat="52.954238" lon="06.000141"><ele>5.7</ele><time>2021-03-19T12:59:44Z</time><name>PT10316</name></trkpt>
<trkpt lat="52.954247" lon="06.000135"><ele>5.5</ele><time>2021-03-19T12:59:44Z</time><name>PT10317</name></trkpt>
<trkpt lat="52.954250" lon="06.000132"><ele>5.6</ele><time>2021-03-19T12:59:46Z</time><name>PT10318</name></trkpt>
<trkpt lat="52.954256" lon="06.000128"><ele>5.7</ele><time>2021-03-19T12:59:47Z</time><name>PT10319</name></trkpt>
<trkpt lat="52.954264" lon="06.000124"><ele>5.5</ele><time>2021-03-19T12:59:47Z</time><name>PT10320</name></trkpt>
<trkpt lat="52.954278" lon="06.000109"><ele>5.4</ele><time>2021-03-19T12:59:50Z</time><name>PT10321</name></trkpt>
<trkpt lat="52.954293" lon="06.000093"><ele>5.4</ele><time>2021-03-19T12:59:50Z</time><name>PT10322</name></trkpt>
<trkpt lat="52.954308" lon="06.000077"><ele>5.4</ele><time>2021-03-19T12:59:52Z</time><name>PT10323</name></trkpt>
<trkpt lat="52.954320" lon="06.000056"><ele>5.4</ele><time>2021-03-19T12:59:53Z</time><name>PT10324</name></trkpt>
<trkpt lat="52.954331" lon="06.000049"><ele>5.4</ele><time>2021-03-19T12:59:53Z</time><name>PT10325</name></trkpt>
<trkpt lat="52.954341" lon="06.000046"><ele>5.4</ele><time>2021-03-19T12:59:55Z</time><name>PT10326</name></trkpt>
<trkpt lat="52.954354" lon="06.000035"><ele>5.5</ele><time>2021-03-19T12:59:56Z</time><name>PT10327</name></trkpt>
<trkpt lat="52.954364" lon="06.000027"><ele>5.4</ele><time>2021-03-19T12:59:56Z</time><name>PT10328</name></trkpt>
<trkpt lat="52.954375" lon="06.000018"><ele>5.7</ele><time>2021-03-19T12:59:58Z</time><name>PT10329</name></trkpt>
<trkpt lat="52.954379" lon="06.000011"><ele>5.8</ele><time>2021-03-19T12:59:58Z</time><name>PT10330</name></trkpt>
<trkpt lat="52.954388" lon="06.000000"><ele>5.8</ele><time>2021-03-19T13:00:00Z</time><name>PT10331</name></trkpt>
<trkpt lat="52.954402" lon="05.999997"><ele>5.9</ele><time>2021-03-19T13:00:00Z</time><name>PT10332</name></trkpt>
<trkpt lat="52.954417" lon="05.999986"><ele>5.7</ele><time>2021-03-19T13:00:02Z</time><name>PT10333</name></trkpt>
<trkpt lat="52.954427" lon="05.999983"><ele>5.6</ele><time>2021-03-19T13:00:02Z</time><name>PT10334</name></trkpt>
<trkpt lat="52.954445" lon="05.999970"><ele>5.5</ele><time>2021-03-19T13:00:04Z</time><name>PT10335</name></trkpt>
<trkpt lat="52.954458" lon="05.999959"><ele>5.4</ele><time>2021-03-19T13:00:05Z</time><name>PT10336</name></trkpt>
<trkpt lat="52.954477" lon="05.999952"><ele>5.4</ele><time>2021-03-19T13:00:05Z</time><name>PT10337</name></trkpt>
<trkpt lat="52.954482" lon="05.999946"><ele>5.5</ele><time>2021-03-19T13:00:07Z</time><name>PT10338</name></trkpt>
<trkpt lat="52.954488" lon="05.999937"><ele>5.6</ele><time>2021-03-19T13:00:07Z</time><name>PT10339</name></trkpt>
<trkpt lat="52.954489" lon="05.999928"><ele>5.7</ele><time>2021-03-19T13:00:09Z</time><name>PT10340</name></trkpt>
<trkpt lat="52.954505" lon="05.999913"><ele>5.8</ele><time>2021-03-19T13:00:09Z</time><name>PT10341</name></trkpt>
<trkpt lat="52.954516" lon="05.999904"><ele>5.7</ele><time>2021-03-19T13:00:10Z</time><name>PT10342</name></trkpt>
<trkpt lat="52.954522" lon="05.999900"><ele>5.9</ele><time>2021-03-19T13:00:12Z</time><name>PT10343</name></trkpt>
<trkpt lat="52.954533" lon="05.999894"><ele>5.9</ele><time>2021-03-19T13:00:12Z</time><name>PT10344</name></trkpt>
<trkpt lat="52.954540" lon="05.999888"><ele>6</ele><time>2021-03-19T13:00:13Z</time><name>PT10345</name></trkpt>
<trkpt lat="52.954542" lon="05.999879"><ele>5.8</ele><time>2021-03-19T13:00:14Z</time><name>PT10346</name></trkpt>
<trkpt lat="52.954551" lon="05.999867"><ele>5.9</ele><time>2021-03-19T13:00:16Z</time><name>PT10347</name></trkpt>
<trkpt lat="52.954557" lon="05.999859"><ele>5.8</ele><time>2021-03-19T13:00:16Z</time><name>PT10348</name></trkpt>
<trkpt lat="52.954563" lon="05.999857"><ele>5.8</ele><time>2021-03-19T13:00:18Z</time><name>PT10349</name></trkpt>
<trkpt lat="52.954569" lon="05.999847"><ele>5.9</ele><time>2021-03-19T13:00:19Z</time><name>PT10350</name></trkpt>
<trkpt lat="52.954575" lon="05.999836"><ele>5.9</ele><time>2021-03-19T13:00:19Z</time><name>PT10351</name></trkpt>
<trkpt lat="52.954590" lon="05.999824"><ele>5.9</ele><time>2021-03-19T13:00:21Z</time><name>PT10352</name></trkpt>
<trkpt lat="52.954597" lon="05.999819"><ele>5.8</ele><time>2021-03-19T13:00:21Z</time><name>PT10353</name></trkpt>
<trkpt lat="52.954613" lon="05.999812"><ele>5.7</ele><time>2021-03-19T13:00:23Z</time><name>PT10354</name></trkpt>
<trkpt lat="52.954622" lon="05.999806"><ele>5.7</ele><time>2021-03-19T13:00:24Z</time><name>PT10355</name></trkpt>
<trkpt lat="52.954635" lon="05.999798"><ele>5.7</ele><time>2021-03-19T13:00:24Z</time><name>PT10356</name></trkpt>
<trkpt lat="52.954646" lon="05.999777"><ele>5.7</ele><time>2021-03-19T13:00:26Z</time><name>PT10357</name></trkpt>
<trkpt lat="52.954655" lon="05.999765"><ele>5.7</ele><time>2021-03-19T13:00:27Z</time><name>PT10358</name></trkpt>
<trkpt lat="52.954661" lon="05.999755"><ele>5.7</ele><time>2021-03-19T13:00:27Z</time><name>PT10359</name></trkpt>
<trkpt lat="52.954664" lon="05.999752"><ele>5.8</ele><time>2021-03-19T13:00:29Z</time><name>PT10360</name></trkpt>
<trkpt lat="52.954684" lon="05.999742"><ele>5.8</ele><time>2021-03-19T13:00:30Z</time><name>PT10361</name></trkpt>
<trkpt lat="52.954699" lon="05.999739"><ele>5.7</ele><time>2021-03-19T13:00:30Z</time><name>PT10362</name></trkpt>
<trkpt lat="52.954715" lon="05.999723"><ele>5.8</ele><time>2021-03-19T13:00:32Z</time><name>PT10363</name></trkpt>
<trkpt lat="52.954725" lon="05.999710"><ele>5.6</ele><time>2021-03-19T13:00:33Z</time><name>PT10364</name></trkpt>
<trkpt lat="52.954735" lon="05.999698"><ele>5.6</ele><time>2021-03-19T13:00:33Z</time><name>PT10365</name></trkpt>
<trkpt lat="52.954743" lon="05.999691"><ele>5.8</ele><time>2021-03-19T13:00:35Z</time><name>PT10366</name></trkpt>
<trkpt lat="52.954748" lon="05.999681"><ele>5.9</ele><time>2021-03-19T13:00:35Z</time><name>PT10367</name></trkpt>
<trkpt lat="52.954752" lon="05.999674"><ele>5.8</ele><time>2021-03-19T13:00:36Z</time><name>PT10368</name></trkpt>
<trkpt lat="52.954765" lon="05.999667"><ele>5.8</ele><time>2021-03-19T13:00:38Z</time><name>PT10369</name></trkpt>
<trkpt lat="52.954779" lon="05.999658"><ele>5.9</ele><time>2021-03-19T13:00:38Z</time><name>PT10370</name></trkpt>
<trkpt lat="52.954785" lon="05.999656"><ele>5.7</ele><time>2021-03-19T13:00:39Z</time><name>PT10371</name></trkpt>
<trkpt lat="52.954792" lon="05.999647"><ele>5.5</ele><time>2021-03-19T13:00:41Z</time><name>PT10372</name></trkpt>
<trkpt lat="52.954801" lon="05.999637"><ele>5.6</ele><time>2021-03-19T13:00:41Z</time><name>PT10373</name></trkpt>
<trkpt lat="52.954809" lon="05.999628"><ele>5.7</ele><time>2021-03-19T13:00:43Z</time><name>PT10374</name></trkpt>
<trkpt lat="52.954820" lon="05.999616"><ele>5.7</ele><time>2021-03-19T13:00:44Z</time><name>PT10375</name></trkpt>
<trkpt lat="52.954825" lon="05.999609"><ele>5.8</ele><time>2021-03-19T13:00:44Z</time><name>PT10376</name></trkpt>
<trkpt lat="52.954834" lon="05.999601"><ele>5.7</ele><time>2021-03-19T13:00:46Z</time><name>PT10377</name></trkpt>
<trkpt lat="52.954842" lon="05.999593"><ele>5.8</ele><time>2021-03-19T13:00:47Z</time><name>PT10378</name></trkpt>
<trkpt lat="52.954847" lon="05.999584"><ele>5.7</ele><time>2021-03-19T13:00:47Z</time><name>PT10379</name></trkpt>
<trkpt lat="52.954849" lon="05.999571"><ele>5.4</ele><time>2021-03-19T13:00:49Z</time><name>PT10380</name></trkpt>
<trkpt lat="52.954860" lon="05.999562"><ele>5.6</ele><time>2021-03-19T13:00:50Z</time><name>PT10381</name></trkpt>
<trkpt lat="52.954868" lon="05.999556"><ele>5.4</ele><time>2021-03-19T13:00:50Z</time><name>PT10382</name></trkpt>
<trkpt lat="52.954879" lon="05.999547"><ele>5.4</ele><time>2021-03-19T13:00:52Z</time><name>PT10383</name></trkpt>
<trkpt lat="52.954889" lon="05.999541"><ele>5.5</ele><time>2021-03-19T13:00:53Z</time><name>PT10384</name></trkpt>
<trkpt lat="52.954898" lon="05.999534"><ele>5.4</ele><time>2021-03-19T13:00:53Z</time><name>PT10385</name></trkpt>
<trkpt lat="52.954906" lon="05.999528"><ele>5.6</ele><time>2021-03-19T13:00:55Z</time><name>PT10386</name></trkpt>
<trkpt lat="52.954917" lon="05.999520"><ele>5.6</ele><time>2021-03-19T13:00:55Z</time><name>PT10387</name></trkpt>
<trkpt lat="52.954925" lon="05.999517"><ele>5.8</ele><time>2021-03-19T13:00:57Z</time><name>PT10388</name></trkpt>
<trkpt lat="52.954934" lon="05.999509"><ele>5.9</ele><time>2021-03-19T13:00:58Z</time><name>PT10389</name></trkpt>
<trkpt lat="52.954950" lon="05.999494"><ele>5.9</ele><time>2021-03-19T13:00:58Z</time><name>PT10390</name></trkpt>
<trkpt lat="52.954961" lon="05.999484"><ele>5.6</ele><time>2021-03-19T13:01:00Z</time><name>PT10391</name></trkpt>
<trkpt lat="52.954969" lon="05.999477"><ele>5.7</ele><time>2021-03-19T13:01:01Z</time><name>PT10392</name></trkpt>
<trkpt lat="52.954974" lon="05.999469"><ele>5.7</ele><time>2021-03-19T13:01:01Z</time><name>PT10393</name></trkpt>
<trkpt lat="52.954982" lon="05.999457"><ele>5.5</ele><time>2021-03-19T13:01:02Z</time><name>PT10394</name></trkpt>
<trkpt lat="52.954986" lon="05.999448"><ele>5.4</ele><time>2021-03-19T13:01:03Z</time><name>PT10395</name></trkpt>
<trkpt lat="52.954993" lon="05.999437"><ele>5.4</ele><time>2021-03-19T13:01:04Z</time><name>PT10396</name></trkpt>
<trkpt lat="52.955000" lon="05.999427"><ele>5.3</ele><time>2021-03-19T13:01:05Z</time><name>PT10397</name></trkpt>
<trkpt lat="52.955009" lon="05.999417"><ele>5.3</ele><time>2021-03-19T13:01:07Z</time><name>PT10398</name></trkpt>
<trkpt lat="52.955014" lon="05.999407"><ele>5.4</ele><time>2021-03-19T13:01:07Z</time><name>PT10399</name></trkpt>
<trkpt lat="52.955022" lon="05.999405"><ele>5.4</ele><time>2021-03-19T13:01:09Z</time><name>PT10400</name></trkpt>
<trkpt lat="52.955044" lon="05.999394"><ele>5.5</ele><time>2021-03-19T13:01:09Z</time><name>PT10401</name></trkpt>
<trkpt lat="52.955055" lon="05.999387"><ele>5.5</ele><time>2021-03-19T13:01:10Z</time><name>PT10402</name></trkpt>
<trkpt lat="52.955061" lon="05.999376"><ele>5.4</ele><time>2021-03-19T13:01:11Z</time><name>PT10403</name></trkpt>
<trkpt lat="52.955062" lon="05.999370"><ele>5.3</ele><time>2021-03-19T13:01:13Z</time><name>PT10404</name></trkpt>
<trkpt lat="52.955074" lon="05.999364"><ele>5.3</ele><time>2021-03-19T13:01:14Z</time><name>PT10405</name></trkpt>
<trkpt lat="52.955087" lon="05.999355"><ele>5.3</ele><time>2021-03-19T13:01:14Z</time><name>PT10406</name></trkpt>
<trkpt lat="52.955097" lon="05.999347"><ele>5.4</ele><time>2021-03-19T13:01:15Z</time><name>PT10407</name></trkpt>
<trkpt lat="52.955103" lon="05.999340"><ele>5.5</ele><time>2021-03-19T13:01:17Z</time><name>PT10408</name></trkpt>
<trkpt lat="52.955109" lon="05.999328"><ele>5.6</ele><time>2021-03-19T13:01:17Z</time><name>PT10409</name></trkpt>
<trkpt lat="52.955113" lon="05.999318"><ele>5.8</ele><time>2021-03-19T13:01:18Z</time><name>PT10410</name></trkpt>
<trkpt lat="52.955120" lon="05.999309"><ele>5.6</ele><time>2021-03-19T13:01:20Z</time><name>PT10411</name></trkpt>
<trkpt lat="52.955127" lon="05.999301"><ele>5.6</ele><time>2021-03-19T13:01:20Z</time><name>PT10412</name></trkpt>
<trkpt lat="52.955132" lon="05.999289"><ele>5.7</ele><time>2021-03-19T13:01:22Z</time><name>PT10413</name></trkpt>
<trkpt lat="52.955143" lon="05.999280"><ele>5.6</ele><time>2021-03-19T13:01:23Z</time><name>PT10414</name></trkpt>
<trkpt lat="52.955155" lon="05.999270"><ele>5.8</ele><time>2021-03-19T13:01:23Z</time><name>PT10415</name></trkpt>
<trkpt lat="52.955162" lon="05.999264"><ele>5.8</ele><time>2021-03-19T13:01:25Z</time><name>PT10416</name></trkpt>
<trkpt lat="52.955171" lon="05.999257"><ele>5.8</ele><time>2021-03-19T13:01:26Z</time><name>PT10417</name></trkpt>
<trkpt lat="52.955181" lon="05.999246"><ele>5.8</ele><time>2021-03-19T13:01:26Z</time><name>PT10418</name></trkpt>
<trkpt lat="52.955192" lon="05.999232"><ele>5.5</ele><time>2021-03-19T13:01:28Z</time><name>PT10419</name></trkpt>
<trkpt lat="52.955204" lon="05.999225"><ele>5.6</ele><time>2021-03-19T13:01:29Z</time><name>PT10420</name></trkpt>
<trkpt lat="52.955215" lon="05.999220"><ele>5.6</ele><time>2021-03-19T13:01:29Z</time><name>PT10421</name></trkpt>
<trkpt lat="52.955228" lon="05.999212"><ele>5.8</ele><time>2021-03-19T13:01:31Z</time><name>PT10422</name></trkpt>
<trkpt lat="52.955240" lon="05.999203"><ele>5.9</ele><time>2021-03-19T13:01:32Z</time><name>PT10423</name></trkpt>
<trkpt lat="52.955250" lon="05.999200"><ele>5.9</ele><time>2021-03-19T13:01:32Z</time><name>PT10424</name></trkpt>
<trkpt lat="52.955259" lon="05.999194"><ele>5.8</ele><time>2021-03-19T13:01:34Z</time><name>PT10425</name></trkpt>
<trkpt lat="52.955265" lon="05.999183"><ele>5.6</ele><time>2021-03-19T13:01:35Z</time><name>PT10426</name></trkpt>
<trkpt lat="52.955274" lon="05.999175"><ele>5.6</ele><time>2021-03-19T13:01:35Z</time><name>PT10427</name></trkpt>
<trkpt lat="52.955282" lon="05.999168"><ele>5.5</ele><time>2021-03-19T13:01:36Z</time><name>PT10428</name></trkpt>
<trkpt lat="52.955287" lon="05.999156"><ele>5.7</ele><time>2021-03-19T13:01:38Z</time><name>PT10429</name></trkpt>
<trkpt lat="52.955299" lon="05.999147"><ele>5.6</ele><time>2021-03-19T13:01:38Z</time><name>PT10430</name></trkpt>
<trkpt lat="52.955309" lon="05.999143"><ele>5.7</ele><time>2021-03-19T13:01:40Z</time><name>PT10431</name></trkpt>
<trkpt lat="52.955321" lon="05.999129"><ele>5.6</ele><time>2021-03-19T13:01:40Z</time><name>PT10432</name></trkpt>
<trkpt lat="52.955332" lon="05.999119"><ele>5.5</ele><time>2021-03-19T13:01:42Z</time><name>PT10433</name></trkpt>
<trkpt lat="52.955339" lon="05.999107"><ele>5.5</ele><time>2021-03-19T13:01:43Z</time><name>PT10434</name></trkpt>
<trkpt lat="52.955345" lon="05.999102"><ele>5.4</ele><time>2021-03-19T13:01:43Z</time><name>PT10435</name></trkpt>
<trkpt lat="52.955352" lon="05.999095"><ele>5.4</ele><time>2021-03-19T13:01:44Z</time><name>PT10436</name></trkpt>
<trkpt lat="52.955358" lon="05.999085"><ele>5.4</ele><time>2021-03-19T13:01:46Z</time><name>PT10437</name></trkpt>
<trkpt lat="52.955365" lon="05.999075"><ele>5.4</ele><time>2021-03-19T13:01:46Z</time><name>PT10438</name></trkpt>
<trkpt lat="52.955373" lon="05.999064"><ele>5.4</ele><time>2021-03-19T13:01:47Z</time><name>PT10439</name></trkpt>
<trkpt lat="52.955381" lon="05.999052"><ele>5.6</ele><time>2021-03-19T13:01:49Z</time><name>PT10440</name></trkpt>
<trkpt lat="52.955388" lon="05.999049"><ele>5.7</ele><time>2021-03-19T13:01:49Z</time><name>PT10441</name></trkpt>
<trkpt lat="52.955401" lon="05.999038"><ele>5.6</ele><time>2021-03-19T13:01:51Z</time><name>PT10442</name></trkpt>
<trkpt lat="52.955406" lon="05.999027"><ele>5.6</ele><time>2021-03-19T13:01:52Z</time><name>PT10443</name></trkpt>
<trkpt lat="52.955415" lon="05.999017"><ele>5.6</ele><time>2021-03-19T13:01:52Z</time><name>PT10444</name></trkpt>
<trkpt lat="52.955424" lon="05.999005"><ele>5.4</ele><time>2021-03-19T13:01:53Z</time><name>PT10445</name></trkpt>
<trkpt lat="52.955436" lon="05.998995"><ele>5.3</ele><time>2021-03-19T13:01:55Z</time><name>PT10446</name></trkpt>
<trkpt lat="52.955444" lon="05.998986"><ele>5.4</ele><time>2021-03-19T13:01:55Z</time><name>PT10447</name></trkpt>
<trkpt lat="52.955451" lon="05.998975"><ele>5.5</ele><time>2021-03-19T13:01:57Z</time><name>PT10448</name></trkpt>
<trkpt lat="52.955461" lon="05.998965"><ele>5.4</ele><time>2021-03-19T13:01:57Z</time><name>PT10449</name></trkpt>
<trkpt lat="52.955471" lon="05.998962"><ele>5.4</ele><time>2021-03-19T13:01:58Z</time><name>PT10450</name></trkpt>
<trkpt lat="52.955479" lon="05.998957"><ele>5.4</ele><time>2021-03-19T13:01:59Z</time><name>PT10451</name></trkpt>
<trkpt lat="52.955488" lon="05.998951"><ele>5.4</ele><time>2021-03-19T13:02:01Z</time><name>PT10452</name></trkpt>
<trkpt lat="52.955497" lon="05.998943"><ele>5.6</ele><time>2021-03-19T13:02:01Z</time><name>PT10453</name></trkpt>
<trkpt lat="52.955505" lon="05.998931"><ele>5.6</ele><time>2021-03-19T13:02:02Z</time><name>PT10454</name></trkpt>
<trkpt lat="52.955512" lon="05.998919"><ele>5.6</ele><time>2021-03-19T13:02:04Z</time><name>PT10455</name></trkpt>
<trkpt lat="52.955519" lon="05.998910"><ele>5.6</ele><time>2021-03-19T13:02:04Z</time><name>PT10456</name></trkpt>
<trkpt lat="52.955526" lon="05.998900"><ele>5.6</ele><time>2021-03-19T13:02:05Z</time><name>PT10457</name></trkpt>
<trkpt lat="52.955532" lon="05.998894"><ele>5.6</ele><time>2021-03-19T13:02:06Z</time><name>PT10458</name></trkpt>
<trkpt lat="52.955540" lon="05.998877"><ele>5.8</ele><time>2021-03-19T13:02:07Z</time><name>PT10459</name></trkpt>
<trkpt lat="52.955547" lon="05.998867"><ele>5.8</ele><time>2021-03-19T13:02:09Z</time><name>PT10460</name></trkpt>
<trkpt lat="52.955558" lon="05.998857"><ele>5.9</ele><time>2021-03-19T13:02:09Z</time><name>PT10461</name></trkpt>
<trkpt lat="52.955565" lon="05.998852"><ele>6</ele><time>2021-03-19T13:02:10Z</time><name>PT10462</name></trkpt>
<trkpt lat="52.955571" lon="05.998843"><ele>6</ele><time>2021-03-19T13:02:11Z</time><name>PT10463</name></trkpt>
<trkpt lat="52.955578" lon="05.998833"><ele>6.1</ele><time>2021-03-19T13:02:13Z</time><name>PT10464</name></trkpt>
<trkpt lat="52.955586" lon="05.998825"><ele>6.1</ele><time>2021-03-19T13:02:14Z</time><name>PT10465</name></trkpt>
<trkpt lat="52.955594" lon="05.998818"><ele>6.1</ele><time>2021-03-19T13:02:14Z</time><name>PT10466</name></trkpt>
<trkpt lat="52.955603" lon="05.998819"><ele>6.2</ele><time>2021-03-19T13:02:15Z</time><name>PT10467</name></trkpt>
<trkpt lat="52.955608" lon="05.998809"><ele>5.9</ele><time>2021-03-19T13:02:17Z</time><name>PT10468</name></trkpt>
<trkpt lat="52.955618" lon="05.998799"><ele>5.8</ele><time>2021-03-19T13:02:17Z</time><name>PT10469</name></trkpt>
<trkpt lat="52.955628" lon="05.998790"><ele>5.8</ele><time>2021-03-19T13:02:19Z</time><name>PT10470</name></trkpt>
<trkpt lat="52.955634" lon="05.998780"><ele>5.6</ele><time>2021-03-19T13:02:20Z</time><name>PT10471</name></trkpt>
<trkpt lat="52.955642" lon="05.998769"><ele>5.7</ele><time>2021-03-19T13:02:20Z</time><name>PT10472</name></trkpt>
<trkpt lat="52.955646" lon="05.998755"><ele>5.8</ele><time>2021-03-19T13:02:22Z</time><name>PT10473</name></trkpt>
<trkpt lat="52.955652" lon="05.998745"><ele>5.9</ele><time>2021-03-19T13:02:22Z</time><name>PT10474</name></trkpt>
<trkpt lat="52.955661" lon="05.998739"><ele>5.9</ele><time>2021-03-19T13:02:23Z</time><name>PT10475</name></trkpt>
<trkpt lat="52.955669" lon="05.998734"><ele>5.9</ele><time>2021-03-19T13:02:25Z</time><name>PT10476</name></trkpt>
<trkpt lat="52.955683" lon="05.998722"><ele>5.9</ele><time>2021-03-19T13:02:25Z</time><name>PT10477</name></trkpt>
<trkpt lat="52.955693" lon="05.998712"><ele>5.8</ele><time>2021-03-19T13:02:27Z</time><name>PT10478</name></trkpt>
<trkpt lat="52.955701" lon="05.998697"><ele>5.9</ele><time>2021-03-19T13:02:28Z</time><name>PT10479</name></trkpt>
<trkpt lat="52.955708" lon="05.998682"><ele>5.9</ele><time>2021-03-19T13:02:28Z</time><name>PT10480</name></trkpt>
<trkpt lat="52.955714" lon="05.998662"><ele>5.9</ele><time>2021-03-19T13:02:30Z</time><name>PT10481</name></trkpt>
<trkpt lat="52.955727" lon="05.998651"><ele>5.9</ele><time>2021-03-19T13:02:30Z</time><name>PT10482</name></trkpt>
<trkpt lat="52.955735" lon="05.998640"><ele>5.9</ele><time>2021-03-19T13:02:32Z</time><name>PT10483</name></trkpt>
<trkpt lat="52.955748" lon="05.998631"><ele>6</ele><time>2021-03-19T13:02:33Z</time><name>PT10484</name></trkpt>
<trkpt lat="52.955755" lon="05.998625"><ele>6</ele><time>2021-03-19T13:02:33Z</time><name>PT10485</name></trkpt>
<trkpt lat="52.955765" lon="05.998615"><ele>5.9</ele><time>2021-03-19T13:02:34Z</time><name>PT10486</name></trkpt>
<trkpt lat="52.955774" lon="05.998606"><ele>5.9</ele><time>2021-03-19T13:02:35Z</time><name>PT10487</name></trkpt>
<trkpt lat="52.955776" lon="05.998596"><ele>5.7</ele><time>2021-03-19T13:02:36Z</time><name>PT10488</name></trkpt>
<trkpt lat="52.955781" lon="05.998587"><ele>5.8</ele><time>2021-03-19T13:02:37Z</time><name>PT10489</name></trkpt>
<trkpt lat="52.955790" lon="05.998575"><ele>5.7</ele><time>2021-03-19T13:02:39Z</time><name>PT10490</name></trkpt>
<trkpt lat="52.955804" lon="05.998566"><ele>5.8</ele><time>2021-03-19T13:02:40Z</time><name>PT10491</name></trkpt>
<trkpt lat="52.955813" lon="05.998555"><ele>5.9</ele><time>2021-03-19T13:02:40Z</time><name>PT10492</name></trkpt>
<trkpt lat="52.955824" lon="05.998539"><ele>5.8</ele><time>2021-03-19T13:02:42Z</time><name>PT10493</name></trkpt>
<trkpt lat="52.955831" lon="05.998529"><ele>5.8</ele><time>2021-03-19T13:02:43Z</time><name>PT10494</name></trkpt>
<trkpt lat="52.955839" lon="05.998518"><ele>5.7</ele><time>2021-03-19T13:02:43Z</time><name>PT10495</name></trkpt>
<trkpt lat="52.955846" lon="05.998506"><ele>5.5</ele><time>2021-03-19T13:02:45Z</time><name>PT10496</name></trkpt>
<trkpt lat="52.955853" lon="05.998498"><ele>5.6</ele><time>2021-03-19T13:02:45Z</time><name>PT10497</name></trkpt>
<trkpt lat="52.955859" lon="05.998489"><ele>5.7</ele><time>2021-03-19T13:02:47Z</time><name>PT10498</name></trkpt>
<trkpt lat="52.955866" lon="05.998479"><ele>5.5</ele><time>2021-03-19T13:02:48Z</time><name>PT10499</name></trkpt>
<trkpt lat="52.955871" lon="05.998472"><ele>5.7</ele><time>2021-03-19T13:02:48Z</time><name>PT10500</name></trkpt>
<trkpt lat="52.955877" lon="05.998468"><ele>5.8</ele><time>2021-03-19T13:02:49Z</time><name>PT10501</name></trkpt>
<trkpt lat="52.955883" lon="05.998460"><ele>5.9</ele><time>2021-03-19T13:02:51Z</time><name>PT10502</name></trkpt>
<trkpt lat="52.955892" lon="05.998450"><ele>6</ele><time>2021-03-19T13:02:51Z</time><name>PT10503</name></trkpt>
<trkpt lat="52.955891" lon="05.998439"><ele>5.9</ele><time>2021-03-19T13:02:53Z</time><name>PT10504</name></trkpt>
<trkpt lat="52.955899" lon="05.998429"><ele>5.9</ele><time>2021-03-19T13:02:54Z</time><name>PT10505</name></trkpt>
<trkpt lat="52.955899" lon="05.998425"><ele>5.9</ele><time>2021-03-19T13:02:54Z</time><name>PT10506</name></trkpt>
<trkpt lat="52.955908" lon="05.998415"><ele>5.9</ele><time>2021-03-19T13:02:56Z</time><name>PT10507</name></trkpt>
<trkpt lat="52.955920" lon="05.998405"><ele>5.9</ele><time>2021-03-19T13:02:56Z</time><name>PT10508</name></trkpt>
<trkpt lat="52.955924" lon="05.998394"><ele>5.9</ele><time>2021-03-19T13:02:57Z</time><name>PT10509</name></trkpt>
<trkpt lat="52.955934" lon="05.998386"><ele>5.8</ele><time>2021-03-19T13:02:58Z</time><name>PT10510</name></trkpt>
<trkpt lat="52.955941" lon="05.998381"><ele>5.6</ele><time>2021-03-19T13:02:59Z</time><name>PT10511</name></trkpt>
<trkpt lat="52.955945" lon="05.998376"><ele>5.5</ele><time>2021-03-19T13:03:01Z</time><name>PT10512</name></trkpt>
<trkpt lat="52.955955" lon="05.998366"><ele>5.5</ele><time>2021-03-19T13:03:01Z</time><name>PT10513</name></trkpt>
<trkpt lat="52.955965" lon="05.998358"><ele>5.7</ele><time>2021-03-19T13:03:03Z</time><name>PT10514</name></trkpt>
<trkpt lat="52.955976" lon="05.998348"><ele>5.9</ele><time>2021-03-19T13:03:03Z</time><name>PT10515</name></trkpt>
<trkpt lat="52.955985" lon="05.998341"><ele>5.9</ele><time>2021-03-19T13:03:05Z</time><name>PT10516</name></trkpt>
<trkpt lat="52.955996" lon="05.998334"><ele>5.9</ele><time>2021-03-19T13:03:05Z</time><name>PT10517</name></trkpt>
<trkpt lat="52.956005" lon="05.998328"><ele>6.1</ele><time>2021-03-19T13:03:06Z</time><name>PT10518</name></trkpt>
<trkpt lat="52.956018" lon="05.998323"><ele>6</ele><time>2021-03-19T13:03:08Z</time><name>PT10519</name></trkpt>
<trkpt lat="52.956024" lon="05.998314"><ele>6.1</ele><time>2021-03-19T13:03:08Z</time><name>PT10520</name></trkpt>
<trkpt lat="52.956034" lon="05.998305"><ele>6.1</ele><time>2021-03-19T13:03:09Z</time><name>PT10521</name></trkpt>
<trkpt lat="52.956043" lon="05.998297"><ele>6</ele><time>2021-03-19T13:03:10Z</time><name>PT10522</name></trkpt>
<trkpt lat="52.956045" lon="05.998288"><ele>5.9</ele><time>2021-03-19T13:03:11Z</time><name>PT10523</name></trkpt>
<trkpt lat="52.956051" lon="05.998277"><ele>5.9</ele><time>2021-03-19T13:03:12Z</time><name>PT10524</name></trkpt>
<trkpt lat="52.956063" lon="05.998268"><ele>5.8</ele><time>2021-03-19T13:03:13Z</time><name>PT10525</name></trkpt>
<trkpt lat="52.956071" lon="05.998264"><ele>5.9</ele><time>2021-03-19T13:03:14Z</time><name>PT10526</name></trkpt>
<trkpt lat="52.956083" lon="05.998255"><ele>5.8</ele><time>2021-03-19T13:03:15Z</time><name>PT10527</name></trkpt>
<trkpt lat="52.956095" lon="05.998233"><ele>5.8</ele><time>2021-03-19T13:03:17Z</time><name>PT10528</name></trkpt>
<trkpt lat="52.956106" lon="05.998221"><ele>5.8</ele><time>2021-03-19T13:03:17Z</time><name>PT10529</name></trkpt>
<trkpt lat="52.956112" lon="05.998214"><ele>5.5</ele><time>2021-03-19T13:03:19Z</time><name>PT10530</name></trkpt>
<trkpt lat="52.956121" lon="05.998209"><ele>5.6</ele><time>2021-03-19T13:03:19Z</time><name>PT10531</name></trkpt>
<trkpt lat="52.956130" lon="05.998199"><ele>5.7</ele><time>2021-03-19T13:03:20Z</time><name>PT10532</name></trkpt>
<trkpt lat="52.956131" lon="05.998190"><ele>6.1</ele><time>2021-03-19T13:03:22Z</time><name>PT10533</name></trkpt>
<trkpt lat="52.956142" lon="05.998178"><ele>6.2</ele><time>2021-03-19T13:03:22Z</time><name>PT10534</name></trkpt>
<trkpt lat="52.956154" lon="05.998175"><ele>6.3</ele><time>2021-03-19T13:03:23Z</time><name>PT10535</name></trkpt>
<trkpt lat="52.956169" lon="05.998166"><ele>6.4</ele><time>2021-03-19T13:03:24Z</time><name>PT10536</name></trkpt>
<trkpt lat="52.956180" lon="05.998159"><ele>6.1</ele><time>2021-03-19T13:03:26Z</time><name>PT10537</name></trkpt>
<trkpt lat="52.956193" lon="05.998149"><ele>6.1</ele><time>2021-03-19T13:03:27Z</time><name>PT10538</name></trkpt>
<trkpt lat="52.956203" lon="05.998142"><ele>6</ele><time>2021-03-19T13:03:27Z</time><name>PT10539</name></trkpt>
<trkpt lat="52.956211" lon="05.998136"><ele>5.9</ele><time>2021-03-19T13:03:29Z</time><name>PT10540</name></trkpt>
<trkpt lat="52.956221" lon="05.998127"><ele>6</ele><time>2021-03-19T13:03:30Z</time><name>PT10541</name></trkpt>
<trkpt lat="52.956228" lon="05.998123"><ele>6</ele><time>2021-03-19T13:03:30Z</time><name>PT10542</name></trkpt>
<trkpt lat="52.956243" lon="05.998111"><ele>6</ele><time>2021-03-19T13:03:32Z</time><name>PT10543</name></trkpt>
<trkpt lat="52.956248" lon="05.998103"><ele>6</ele><time>2021-03-19T13:03:32Z</time><name>PT10544</name></trkpt>
<trkpt lat="52.956261" lon="05.998090"><ele>5.9</ele><time>2021-03-19T13:03:33Z</time><name>PT10545</name></trkpt>
<trkpt lat="52.956273" lon="05.998080"><ele>5.9</ele><time>2021-03-19T13:03:34Z</time><name>PT10546</name></trkpt>
<trkpt lat="52.956287" lon="05.998066"><ele>5.9</ele><time>2021-03-19T13:03:35Z</time><name>PT10547</name></trkpt>
<trkpt lat="52.956300" lon="05.998055"><ele>5.9</ele><time>2021-03-19T13:03:37Z</time><name>PT10548</name></trkpt>
<trkpt lat="52.956310" lon="05.998058"><ele>6</ele><time>2021-03-19T13:03:37Z</time><name>PT10549</name></trkpt>
<trkpt lat="52.956316" lon="05.998050"><ele>5.9</ele><time>2021-03-19T13:03:38Z</time><name>PT10550</name></trkpt>
<trkpt lat="52.956321" lon="05.998049"><ele>6</ele><time>2021-03-19T13:03:39Z</time><name>PT10551</name></trkpt>
<trkpt lat="52.956323" lon="05.998049"><ele>6.1</ele><time>2021-03-19T13:03:40Z</time><name>PT10552</name></trkpt>
<trkpt lat="52.956337" lon="05.998037"><ele>6.2</ele><time>2021-03-19T13:03:41Z</time><name>PT10553</name></trkpt>
<trkpt lat="52.956345" lon="05.998031"><ele>6.2</ele><time>2021-03-19T13:03:42Z</time><name>PT10554</name></trkpt>
<trkpt lat="52.956359" lon="05.998019"><ele>6.4</ele><time>2021-03-19T13:03:43Z</time><name>PT10555</name></trkpt>
<trkpt lat="52.956371" lon="05.998004"><ele>6.5</ele><time>2021-03-19T13:03:45Z</time><name>PT10556</name></trkpt>
<trkpt lat="52.956378" lon="05.997991"><ele>6.5</ele><time>2021-03-19T13:03:45Z</time><name>PT10557</name></trkpt>
<trkpt lat="52.956388" lon="05.997978"><ele>6.6</ele><time>2021-03-19T13:03:46Z</time><name>PT10558</name></trkpt>
<trkpt lat="52.956395" lon="05.997965"><ele>6.5</ele><time>2021-03-19T13:03:47Z</time><name>PT10559</name></trkpt>
<trkpt lat="52.956410" lon="05.997952"><ele>6.6</ele><time>2021-03-19T13:03:48Z</time><name>PT10560</name></trkpt>
<trkpt lat="52.956418" lon="05.997940"><ele>6.5</ele><time>2021-03-19T13:03:49Z</time><name>PT10561</name></trkpt>
<trkpt lat="52.956428" lon="05.997929"><ele>6.6</ele><time>2021-03-19T13:03:50Z</time><name>PT10562</name></trkpt>
<trkpt lat="52.956439" lon="05.997913"><ele>6.6</ele><time>2021-03-19T13:03:51Z</time><name>PT10563</name></trkpt>
<trkpt lat="52.956449" lon="05.997901"><ele>6.4</ele><time>2021-03-19T13:03:52Z</time><name>PT10564</name></trkpt>
<trkpt lat="52.956460" lon="05.997891"><ele>6.3</ele><time>2021-03-19T13:03:53Z</time><name>PT10565</name></trkpt>
<trkpt lat="52.956473" lon="05.997880"><ele>6.4</ele><time>2021-03-19T13:03:54Z</time><name>PT10566</name></trkpt>
<trkpt lat="52.956486" lon="05.997871"><ele>6.5</ele><time>2021-03-19T13:03:55Z</time><name>PT10567</name></trkpt>
<trkpt lat="52.956500" lon="05.997861"><ele>6.7</ele><time>2021-03-19T13:03:56Z</time><name>PT10568</name></trkpt>
<trkpt lat="52.956511" lon="05.997852"><ele>6.8</ele><time>2021-03-19T13:03:57Z</time><name>PT10569</name></trkpt>
<trkpt lat="52.956520" lon="05.997846"><ele>6.7</ele><time>2021-03-19T13:03:59Z</time><name>PT10570</name></trkpt>
<trkpt lat="52.956529" lon="05.997835"><ele>6.7</ele><time>2021-03-19T13:04:00Z</time><name>PT10571</name></trkpt>
<trkpt lat="52.956544" lon="05.997823"><ele>6.6</ele><time>2021-03-19T13:04:00Z</time><name>PT10572</name></trkpt>
<trkpt lat="52.956557" lon="05.997811"><ele>6.6</ele><time>2021-03-19T13:04:01Z</time><name>PT10573</name></trkpt>
<trkpt lat="52.956569" lon="05.997798"><ele>6.7</ele><time>2021-03-19T13:04:03Z</time><name>PT10574</name></trkpt>
<trkpt lat="52.956578" lon="05.997789"><ele>6.8</ele><time>2021-03-19T13:04:03Z</time><name>PT10575</name></trkpt>
<trkpt lat="52.956582" lon="05.997790"><ele>6.8</ele><time>2021-03-19T13:04:04Z</time><name>PT10576</name></trkpt>
<trkpt lat="52.956586" lon="05.997786"><ele>6.7</ele><time>2021-03-19T13:04:06Z</time><name>PT10577</name></trkpt>
<trkpt lat="52.956594" lon="05.997769"><ele>6.8</ele><time>2021-03-19T13:04:06Z</time><name>PT10578</name></trkpt>
<trkpt lat="52.956606" lon="05.997756"><ele>6.7</ele><time>2021-03-19T13:04:07Z</time><name>PT10579</name></trkpt>
<trkpt lat="52.956619" lon="05.997761"><ele>6.7</ele><time>2021-03-19T13:04:08Z</time><name>PT10580</name></trkpt>
<trkpt lat="52.956628" lon="05.997754"><ele>6.5</ele><time>2021-03-19T13:04:09Z</time><name>PT10581</name></trkpt>
<trkpt lat="52.956638" lon="05.997742"><ele>6.5</ele><time>2021-03-19T13:04:10Z</time><name>PT10582</name></trkpt>
<trkpt lat="52.956645" lon="05.997735"><ele>6.6</ele><time>2021-03-19T13:04:12Z</time><name>PT10583</name></trkpt>
<trkpt lat="52.956652" lon="05.997729"><ele>6.7</ele><time>2021-03-19T13:04:13Z</time><name>PT10584</name></trkpt>
<trkpt lat="52.956657" lon="05.997719"><ele>6.8</ele><time>2021-03-19T13:04:13Z</time><name>PT10585</name></trkpt>
<trkpt lat="52.956672" lon="05.997715"><ele>6.8</ele><time>2021-03-19T13:04:14Z</time><name>PT10586</name></trkpt>
<trkpt lat="52.956680" lon="05.997707"><ele>6.9</ele><time>2021-03-19T13:04:15Z</time><name>PT10587</name></trkpt>
<trkpt lat="52.956691" lon="05.997695"><ele>6.8</ele><time>2021-03-19T13:04:16Z</time><name>PT10588</name></trkpt>
<trkpt lat="52.956694" lon="05.997685"><ele>6.7</ele><time>2021-03-19T13:04:18Z</time><name>PT10589</name></trkpt>
<trkpt lat="52.956702" lon="05.997676"><ele>6.8</ele><time>2021-03-19T13:04:18Z</time><name>PT10590</name></trkpt>
<trkpt lat="52.956710" lon="05.997665"><ele>6.8</ele><time>2021-03-19T13:04:19Z</time><name>PT10591</name></trkpt>
<trkpt lat="52.956714" lon="05.997657"><ele>6.8</ele><time>2021-03-19T13:04:20Z</time><name>PT10592</name></trkpt>
<trkpt lat="52.956718" lon="05.997653"><ele>7.1</ele><time>2021-03-19T13:04:21Z</time><name>PT10593</name></trkpt>
<trkpt lat="52.956721" lon="05.997651"><ele>7.2</ele><time>2021-03-19T13:04:22Z</time><name>PT10594</name></trkpt>
<trkpt lat="52.956733" lon="05.997642"><ele>7.2</ele><time>2021-03-19T13:04:23Z</time><name>PT10595</name></trkpt>
<trkpt lat="52.956746" lon="05.997624"><ele>7.2</ele><time>2021-03-19T13:04:25Z</time><name>PT10596</name></trkpt>
<trkpt lat="52.956755" lon="05.997612"><ele>7.2</ele><time>2021-03-19T13:04:25Z</time><name>PT10597</name></trkpt>
<trkpt lat="52.956762" lon="05.997604"><ele>7.2</ele><time>2021-03-19T13:04:26Z</time><name>PT10598</name></trkpt>
<trkpt lat="52.956770" lon="05.997595"><ele>7.2</ele><time>2021-03-19T13:04:27Z</time><name>PT10599</name></trkpt>
<trkpt lat="52.956774" lon="05.997585"><ele>7.2</ele><time>2021-03-19T13:04:28Z</time><name>PT10600</name></trkpt>
<trkpt lat="52.956780" lon="05.997572"><ele>7.1</ele><time>2021-03-19T13:04:29Z</time><name>PT10601</name></trkpt>
<trkpt lat="52.956789" lon="05.997564"><ele>6.8</ele><time>2021-03-19T13:04:30Z</time><name>PT10602</name></trkpt>
<trkpt lat="52.956801" lon="05.997554"><ele>6.7</ele><time>2021-03-19T13:04:31Z</time><name>PT10603</name></trkpt>
<trkpt lat="52.956811" lon="05.997544"><ele>6.7</ele><time>2021-03-19T13:04:32Z</time><name>PT10604</name></trkpt>
<trkpt lat="52.956824" lon="05.997532"><ele>6.7</ele><time>2021-03-19T13:04:34Z</time><name>PT10605</name></trkpt>
<trkpt lat="52.956834" lon="05.997519"><ele>6.7</ele><time>2021-03-19T13:04:34Z</time><name>PT10606</name></trkpt>
<trkpt lat="52.956840" lon="05.997512"><ele>6.8</ele><time>2021-03-19T13:04:36Z</time><name>PT10607</name></trkpt>
<trkpt lat="52.956852" lon="05.997504"><ele>6.7</ele><time>2021-03-19T13:04:37Z</time><name>PT10608</name></trkpt>
<trkpt lat="52.956858" lon="05.997494"><ele>6.5</ele><time>2021-03-19T13:04:37Z</time><name>PT10609</name></trkpt>
<trkpt lat="52.956867" lon="05.997489"><ele>6.5</ele><time>2021-03-19T13:04:39Z</time><name>PT10610</name></trkpt>
<trkpt lat="52.956874" lon="05.997480"><ele>6.5</ele><time>2021-03-19T13:04:39Z</time><name>PT10611</name></trkpt>
<trkpt lat="52.956879" lon="05.997466"><ele>6.7</ele><time>2021-03-19T13:04:40Z</time><name>PT10612</name></trkpt>
<trkpt lat="52.956890" lon="05.997450"><ele>6.7</ele><time>2021-03-19T13:04:41Z</time><name>PT10613</name></trkpt>
<trkpt lat="52.956898" lon="05.997442"><ele>6.9</ele><time>2021-03-19T13:04:43Z</time><name>PT10614</name></trkpt>
<trkpt lat="52.956908" lon="05.997433"><ele>6.9</ele><time>2021-03-19T13:04:44Z</time><name>PT10615</name></trkpt>
<trkpt lat="52.956913" lon="05.997425"><ele>6.9</ele><time>2021-03-19T13:04:44Z</time><name>PT10616</name></trkpt>
<trkpt lat="52.956921" lon="05.997415"><ele>6.9</ele><time>2021-03-19T13:04:45Z</time><name>PT10617</name></trkpt>
<trkpt lat="52.956928" lon="05.997407"><ele>6.9</ele><time>2021-03-19T13:04:46Z</time><name>PT10618</name></trkpt>
<trkpt lat="52.956932" lon="05.997400"><ele>6.9</ele><time>2021-03-19T13:04:47Z</time><name>PT10619</name></trkpt>
<trkpt lat="52.956939" lon="05.997391"><ele>6.8</ele><time>2021-03-19T13:04:49Z</time><name>PT10620</name></trkpt>
<trkpt lat="52.956948" lon="05.997385"><ele>6.7</ele><time>2021-03-19T13:04:49Z</time><name>PT10621</name></trkpt>
<trkpt lat="52.956958" lon="05.997375"><ele>6.8</ele><time>2021-03-19T13:04:50Z</time><name>PT10622</name></trkpt>
<trkpt lat="52.956971" lon="05.997364"><ele>6.6</ele><time>2021-03-19T13:04:52Z</time><name>PT10623</name></trkpt>
<trkpt lat="52.956982" lon="05.997354"><ele>6.6</ele><time>2021-03-19T13:04:52Z</time><name>PT10624</name></trkpt>
<trkpt lat="52.956989" lon="05.997348"><ele>6.7</ele><time>2021-03-19T13:04:53Z</time><name>PT10625</name></trkpt>
<trkpt lat="52.956994" lon="05.997343"><ele>6.5</ele><time>2021-03-19T13:04:55Z</time><name>PT10626</name></trkpt>
<trkpt lat="52.956999" lon="05.997341"><ele>6.6</ele><time>2021-03-19T13:04:55Z</time><name>PT10627</name></trkpt>
<trkpt lat="52.957007" lon="05.997334"><ele>6.7</ele><time>2021-03-19T13:04:56Z</time><name>PT10628</name></trkpt>
<trkpt lat="52.957016" lon="05.997318"><ele>6.8</ele><time>2021-03-19T13:04:58Z</time><name>PT10629</name></trkpt>
<trkpt lat="52.957028" lon="05.997304"><ele>6.7</ele><time>2021-03-19T13:04:58Z</time><name>PT10630</name></trkpt>
<trkpt lat="52.957045" lon="05.997289"><ele>6.8</ele><time>2021-03-19T13:04:59Z</time><name>PT10631</name></trkpt>
<trkpt lat="52.957059" lon="05.997277"><ele>6.8</ele><time>2021-03-19T13:05:00Z</time><name>PT10632</name></trkpt>
<trkpt lat="52.957069" lon="05.997269"><ele>6.7</ele><time>2021-03-19T13:05:01Z</time><name>PT10633</name></trkpt>
<trkpt lat="52.957078" lon="05.997260"><ele>6.8</ele><time>2021-03-19T13:05:03Z</time><name>PT10634</name></trkpt>
<trkpt lat="52.957084" lon="05.997255"><ele>6.8</ele><time>2021-03-19T13:05:03Z</time><name>PT10635</name></trkpt>
<trkpt lat="52.957089" lon="05.997240"><ele>6.4</ele><time>2021-03-19T13:05:06Z</time><name>PT10636</name></trkpt>
<trkpt lat="52.957103" lon="05.997224"><ele>6.4</ele><time>2021-03-19T13:05:06Z</time><name>PT10637</name></trkpt>
<trkpt lat="52.957110" lon="05.997214"><ele>6.3</ele><time>2021-03-19T13:05:07Z</time><name>PT10638</name></trkpt>
<trkpt lat="52.957120" lon="05.997201"><ele>6.3</ele><time>2021-03-19T13:05:09Z</time><name>PT10639</name></trkpt>
<trkpt lat="52.957128" lon="05.997188"><ele>6.3</ele><time>2021-03-19T13:05:09Z</time><name>PT10640</name></trkpt>
<trkpt lat="52.957138" lon="05.997181"><ele>6.4</ele><time>2021-03-19T13:05:11Z</time><name>PT10641</name></trkpt>
<trkpt lat="52.957148" lon="05.997168"><ele>6.4</ele><time>2021-03-19T13:05:11Z</time><name>PT10642</name></trkpt>
<trkpt lat="52.957156" lon="05.997161"><ele>6.4</ele><time>2021-03-19T13:05:12Z</time><name>PT10643</name></trkpt>
<trkpt lat="52.957161" lon="05.997152"><ele>6.5</ele><time>2021-03-19T13:05:14Z</time><name>PT10644</name></trkpt>
<trkpt lat="52.957168" lon="05.997142"><ele>6.5</ele><time>2021-03-19T13:05:14Z</time><name>PT10645</name></trkpt>
<trkpt lat="52.957176" lon="05.997131"><ele>6.6</ele><time>2021-03-19T13:05:15Z</time><name>PT10646</name></trkpt>
<trkpt lat="52.957182" lon="05.997120"><ele>6.7</ele><time>2021-03-19T13:05:16Z</time><name>PT10647</name></trkpt>
<trkpt lat="52.957185" lon="05.997109"><ele>6.7</ele><time>2021-03-19T13:05:18Z</time><name>PT10648</name></trkpt>
<trkpt lat="52.957196" lon="05.997094"><ele>6.5</ele><time>2021-03-19T13:05:19Z</time><name>PT10649</name></trkpt>
<trkpt lat="52.957205" lon="05.997085"><ele>6.5</ele><time>2021-03-19T13:05:19Z</time><name>PT10650</name></trkpt>
<trkpt lat="52.957212" lon="05.997080"><ele>6.4</ele><time>2021-03-19T13:05:20Z</time><name>PT10651</name></trkpt>
<trkpt lat="52.957222" lon="05.997072"><ele>6.4</ele><time>2021-03-19T13:05:22Z</time><name>PT10652</name></trkpt>
<trkpt lat="52.957232" lon="05.997057"><ele>6.4</ele><time>2021-03-19T13:05:22Z</time><name>PT10653</name></trkpt>
<trkpt lat="52.957239" lon="05.997051"><ele>6.5</ele><time>2021-03-19T13:05:23Z</time><name>PT10654</name></trkpt>
<trkpt lat="52.957249" lon="05.997040"><ele>6.6</ele><time>2021-03-19T13:05:24Z</time><name>PT10655</name></trkpt>
<trkpt lat="52.957258" lon="05.997030"><ele>6.3</ele><time>2021-03-19T13:05:25Z</time><name>PT10656</name></trkpt>
<trkpt lat="52.957264" lon="05.997023"><ele>6.4</ele><time>2021-03-19T13:05:27Z</time><name>PT10657</name></trkpt>
<trkpt lat="52.957270" lon="05.997018"><ele>6.5</ele><time>2021-03-19T13:05:27Z</time><name>PT10658</name></trkpt>
<trkpt lat="52.957280" lon="05.997008"><ele>6.4</ele><time>2021-03-19T13:05:28Z</time><name>PT10659</name></trkpt>
<trkpt lat="52.957298" lon="05.996997"><ele>6.7</ele><time>2021-03-19T13:05:30Z</time><name>PT10660</name></trkpt>
<trkpt lat="52.957307" lon="05.996989"><ele>6.8</ele><time>2021-03-19T13:05:30Z</time><name>PT10661</name></trkpt>
<trkpt lat="52.957312" lon="05.996986"><ele>6.7</ele><time>2021-03-19T13:05:31Z</time><name>PT10662</name></trkpt>
<trkpt lat="52.957320" lon="05.996975"><ele>6.7</ele><time>2021-03-19T13:05:32Z</time><name>PT10663</name></trkpt>
<trkpt lat="52.957327" lon="05.996971"><ele>6.8</ele><time>2021-03-19T13:05:33Z</time><name>PT10664</name></trkpt>
<trkpt lat="52.957337" lon="05.996966"><ele>6.8</ele><time>2021-03-19T13:05:34Z</time><name>PT10665</name></trkpt>
<trkpt lat="52.957347" lon="05.996953"><ele>6.8</ele><time>2021-03-19T13:05:35Z</time><name>PT10666</name></trkpt>
<trkpt lat="52.957358" lon="05.996940"><ele>6.8</ele><time>2021-03-19T13:05:36Z</time><name>PT10667</name></trkpt>
<trkpt lat="52.957365" lon="05.996932"><ele>6.8</ele><time>2021-03-19T13:05:37Z</time><name>PT10668</name></trkpt>
<trkpt lat="52.957371" lon="05.996922"><ele>6.7</ele><time>2021-03-19T13:05:38Z</time><name>PT10669</name></trkpt>
<trkpt lat="52.957375" lon="05.996919"><ele>6.8</ele><time>2021-03-19T13:05:39Z</time><name>PT10670</name></trkpt>
<trkpt lat="52.957384" lon="05.996913"><ele>6.9</ele><time>2021-03-19T13:05:41Z</time><name>PT10671</name></trkpt>
<trkpt lat="52.957395" lon="05.996903"><ele>6.9</ele><time>2021-03-19T13:05:41Z</time><name>PT10672</name></trkpt>
<trkpt lat="52.957405" lon="05.996898"><ele>6.9</ele><time>2021-03-19T13:05:42Z</time><name>PT10673</name></trkpt>
<trkpt lat="52.957413" lon="05.996892"><ele>6.8</ele><time>2021-03-19T13:05:44Z</time><name>PT10674</name></trkpt>
<trkpt lat="52.957418" lon="05.996883"><ele>6.8</ele><time>2021-03-19T13:05:44Z</time><name>PT10675</name></trkpt>
<trkpt lat="52.957423" lon="05.996879"><ele>6.9</ele><time>2021-03-19T13:05:45Z</time><name>PT10676</name></trkpt>
<trkpt lat="52.957427" lon="05.996877"><ele>6.9</ele><time>2021-03-19T13:05:46Z</time><name>PT10677</name></trkpt>
<trkpt lat="52.957430" lon="05.996874"><ele>6.8</ele><time>2021-03-19T13:05:47Z</time><name>PT10678</name></trkpt>
<trkpt lat="52.957436" lon="05.996871"><ele>6.8</ele><time>2021-03-19T13:05:48Z</time><name>PT10679</name></trkpt>
<trkpt lat="52.957442" lon="05.996865"><ele>6.9</ele><time>2021-03-19T13:05:49Z</time><name>PT10680</name></trkpt>
<trkpt lat="52.957445" lon="05.996858"><ele>6.8</ele><time>2021-03-19T13:05:50Z</time><name>PT10681</name></trkpt>
<trkpt lat="52.957448" lon="05.996853"><ele>6.8</ele><time>2021-03-19T13:05:51Z</time><name>PT10682</name></trkpt>
<trkpt lat="52.957451" lon="05.996846"><ele>6.8</ele><time>2021-03-19T13:05:52Z</time><name>PT10683</name></trkpt>
<trkpt lat="52.957456" lon="05.996840"><ele>6.7</ele><time>2021-03-19T13:05:53Z</time><name>PT10684</name></trkpt>
<trkpt lat="52.957462" lon="05.996831"><ele>6.8</ele><time>2021-03-19T13:05:54Z</time><name>PT10685</name></trkpt>
<trkpt lat="52.957471" lon="05.996824"><ele>6.8</ele><time>2021-03-19T13:05:55Z</time><name>PT10686</name></trkpt>
<trkpt lat="52.957477" lon="05.996815"><ele>6.8</ele><time>2021-03-19T13:05:56Z</time><name>PT10687</name></trkpt>
<trkpt lat="52.957482" lon="05.996811"><ele>6.8</ele><time>2021-03-19T13:05:58Z</time><name>PT10688</name></trkpt>
<trkpt lat="52.957491" lon="05.996806"><ele>6.9</ele><time>2021-03-19T13:05:58Z</time><name>PT10689</name></trkpt>
<trkpt lat="52.957504" lon="05.996800"><ele>6.8</ele><time>2021-03-19T13:05:59Z</time><name>PT10690</name></trkpt>
<trkpt lat="52.957513" lon="05.996790"><ele>6.6</ele><time>2021-03-19T13:06:00Z</time><name>PT10691</name></trkpt>
<trkpt lat="52.957525" lon="05.996778"><ele>6.3</ele><time>2021-03-19T13:06:01Z</time><name>PT10692</name></trkpt>
<trkpt lat="52.957533" lon="05.996764"><ele>6.3</ele><time>2021-03-19T13:06:03Z</time><name>PT10693</name></trkpt>
<trkpt lat="52.957541" lon="05.996754"><ele>6.3</ele><time>2021-03-19T13:06:03Z</time><name>PT10694</name></trkpt>
<trkpt lat="52.957551" lon="05.996745"><ele>6.4</ele><time>2021-03-19T13:06:04Z</time><name>PT10695</name></trkpt>
<trkpt lat="52.957562" lon="05.996736"><ele>6.5</ele><time>2021-03-19T13:06:05Z</time><name>PT10696</name></trkpt>
<trkpt lat="52.957571" lon="05.996724"><ele>6.6</ele><time>2021-03-19T13:06:06Z</time><name>PT10697</name></trkpt>
<trkpt lat="52.957575" lon="05.996716"><ele>6.4</ele><time>2021-03-19T13:06:07Z</time><name>PT10698</name></trkpt>
<trkpt lat="52.957579" lon="05.996708"><ele>6.3</ele><time>2021-03-19T13:06:08Z</time><name>PT10699</name></trkpt>
<trkpt lat="52.957587" lon="05.996702"><ele>6.3</ele><time>2021-03-19T13:06:09Z</time><name>PT10700</name></trkpt>
<trkpt lat="52.957596" lon="05.996702"><ele>6.8</ele><time>2021-03-19T13:06:11Z</time><name>PT10701</name></trkpt>
<trkpt lat="52.957596" lon="05.996691"><ele>6.9</ele><time>2021-03-19T13:06:11Z</time><name>PT10702</name></trkpt>
<trkpt lat="52.957603" lon="05.996682"><ele>6.9</ele><time>2021-03-19T13:06:12Z</time><name>PT10703</name></trkpt>
<trkpt lat="52.957611" lon="05.996678"><ele>6.9</ele><time>2021-03-19T13:06:13Z</time><name>PT10704</name></trkpt>
<trkpt lat="52.957615" lon="05.996670"><ele>6.7</ele><time>2021-03-19T13:06:14Z</time><name>PT10705</name></trkpt>
<trkpt lat="52.957616" lon="05.996661"><ele>6.5</ele><time>2021-03-19T13:06:15Z</time><name>PT10706</name></trkpt>
<trkpt lat="52.957621" lon="05.996658"><ele>6.5</ele><time>2021-03-19T13:06:16Z</time><name>PT10707</name></trkpt>
<trkpt lat="52.957627" lon="05.996648"><ele>6.3</ele><time>2021-03-19T13:06:17Z</time><name>PT10708</name></trkpt>
<trkpt lat="52.957638" lon="05.996635"><ele>6.5</ele><time>2021-03-19T13:06:18Z</time><name>PT10709</name></trkpt>
<trkpt lat="52.957643" lon="05.996622"><ele>6.5</ele><time>2021-03-19T13:06:19Z</time><name>PT10710</name></trkpt>
<trkpt lat="52.957646" lon="05.996614"><ele>6.4</ele><time>2021-03-19T13:06:20Z</time><name>PT10711</name></trkpt>
<trkpt lat="52.957646" lon="05.996608"><ele>6.5</ele><time>2021-03-19T13:06:22Z</time><name>PT10712</name></trkpt>
<trkpt lat="52.957652" lon="05.996599"><ele>6.4</ele><time>2021-03-19T13:06:22Z</time><name>PT10713</name></trkpt>
<trkpt lat="52.957660" lon="05.996591"><ele>6.4</ele><time>2021-03-19T13:06:23Z</time><name>PT10714</name></trkpt>
<trkpt lat="52.957664" lon="05.996588"><ele>6.3</ele><time>2021-03-19T13:06:24Z</time><name>PT10715</name></trkpt>
<trkpt lat="52.957669" lon="05.996579"><ele>6.3</ele><time>2021-03-19T13:06:25Z</time><name>PT10716</name></trkpt>
<trkpt lat="52.957670" lon="05.996572"><ele>6.3</ele><time>2021-03-19T13:06:26Z</time><name>PT10717</name></trkpt>
<trkpt lat="52.957670" lon="05.996564"><ele>6.3</ele><time>2021-03-19T13:06:27Z</time><name>PT10718</name></trkpt>
<trkpt lat="52.957675" lon="05.996547"><ele>6.4</ele><time>2021-03-19T13:06:28Z</time><name>PT10719</name></trkpt>
<trkpt lat="52.957685" lon="05.996529"><ele>6.4</ele><time>2021-03-19T13:06:29Z</time><name>PT10720</name></trkpt>
<trkpt lat="52.957690" lon="05.996512"><ele>6.4</ele><time>2021-03-19T13:06:30Z</time><name>PT10721</name></trkpt>
<trkpt lat="52.957692" lon="05.996497"><ele>6.5</ele><time>2021-03-19T13:06:31Z</time><name>PT10722</name></trkpt>
<trkpt lat="52.957690" lon="05.996480"><ele>6.4</ele><time>2021-03-19T13:06:32Z</time><name>PT10723</name></trkpt>
<trkpt lat="52.957699" lon="05.996462"><ele>6.3</ele><time>2021-03-19T13:06:34Z</time><name>PT10724</name></trkpt>
<trkpt lat="52.957702" lon="05.996448"><ele>6.3</ele><time>2021-03-19T13:06:35Z</time><name>PT10725</name></trkpt>
<trkpt lat="52.957703" lon="05.996436"><ele>6.3</ele><time>2021-03-19T13:06:35Z</time><name>PT10726</name></trkpt>
<trkpt lat="52.957707" lon="05.996427"><ele>6.1</ele><time>2021-03-19T13:06:36Z</time><name>PT10727</name></trkpt>
<trkpt lat="52.957723" lon="05.996415"><ele>6.2</ele><time>2021-03-19T13:06:37Z</time><name>PT10728</name></trkpt>
<trkpt lat="52.957726" lon="05.996407"><ele>6.1</ele><time>2021-03-19T13:06:38Z</time><name>PT10729</name></trkpt>
<trkpt lat="52.957725" lon="05.996399"><ele>6</ele><time>2021-03-19T13:06:39Z</time><name>PT10730</name></trkpt>
<trkpt lat="52.957724" lon="05.996384"><ele>6.2</ele><time>2021-03-19T13:06:40Z</time><name>PT10731</name></trkpt>
<trkpt lat="52.957726" lon="05.996364"><ele>6.2</ele><time>2021-03-19T13:06:41Z</time><name>PT10732</name></trkpt>
<trkpt lat="52.957728" lon="05.996356"><ele>6.1</ele><time>2021-03-19T13:06:42Z</time><name>PT10733</name></trkpt>
<trkpt lat="52.957731" lon="05.996344"><ele>6</ele><time>2021-03-19T13:06:43Z</time><name>PT10734</name></trkpt>
<trkpt lat="52.957737" lon="05.996328"><ele>5.9</ele><time>2021-03-19T13:06:44Z</time><name>PT10735</name></trkpt>
<trkpt lat="52.957736" lon="05.996316"><ele>5.8</ele><time>2021-03-19T13:06:45Z</time><name>PT10736</name></trkpt>
<trkpt lat="52.957747" lon="05.996309"><ele>5.9</ele><time>2021-03-19T13:06:46Z</time><name>PT10737</name></trkpt>
<trkpt lat="52.957747" lon="05.996298"><ele>5.8</ele><time>2021-03-19T13:06:47Z</time><name>PT10738</name></trkpt>
<trkpt lat="52.957752" lon="05.996291"><ele>5.8</ele><time>2021-03-19T13:06:48Z</time><name>PT10739</name></trkpt>
<trkpt lat="52.957759" lon="05.996279"><ele>5.8</ele><time>2021-03-19T13:06:49Z</time><name>PT10740</name></trkpt>
<trkpt lat="52.957756" lon="05.996267"><ele>5.6</ele><time>2021-03-19T13:06:50Z</time><name>PT10741</name></trkpt>
<trkpt lat="52.957760" lon="05.996254"><ele>5.6</ele><time>2021-03-19T13:06:51Z</time><name>PT10742</name></trkpt>
<trkpt lat="52.957769" lon="05.996240"><ele>5.7</ele><time>2021-03-19T13:06:52Z</time><name>PT10743</name></trkpt>
<trkpt lat="52.957778" lon="05.996225"><ele>5.7</ele><time>2021-03-19T13:06:53Z</time><name>PT10744</name></trkpt>
<trkpt lat="52.957783" lon="05.996220"><ele>5.9</ele><time>2021-03-19T13:06:54Z</time><name>PT10745</name></trkpt>
<trkpt lat="52.957785" lon="05.996209"><ele>6.1</ele><time>2021-03-19T13:06:55Z</time><name>PT10746</name></trkpt>
<trkpt lat="52.957790" lon="05.996204"><ele>6</ele><time>2021-03-19T13:06:56Z</time><name>PT10747</name></trkpt>
<trkpt lat="52.957793" lon="05.996193"><ele>6</ele><time>2021-03-19T13:06:58Z</time><name>PT10748</name></trkpt>
<trkpt lat="52.957794" lon="05.996188"><ele>5.9</ele><time>2021-03-19T13:06:58Z</time><name>PT10749</name></trkpt>
<trkpt lat="52.957797" lon="05.996180"><ele>5.9</ele><time>2021-03-19T13:07:02Z</time><name>PT10750</name></trkpt>
<trkpt lat="52.957807" lon="05.996159"><ele>5.9</ele><time>2021-03-19T13:07:03Z</time><name>PT10751</name></trkpt>
<trkpt lat="52.957816" lon="05.996152"><ele>6</ele><time>2021-03-19T13:07:04Z</time><name>PT10752</name></trkpt>
<trkpt lat="52.957818" lon="05.996145"><ele>6</ele><time>2021-03-19T13:07:05Z</time><name>PT10753</name></trkpt>
<trkpt lat="52.957826" lon="05.996119"><ele>5.5</ele><time>2021-03-19T13:07:16Z</time><name>PT10754</name></trkpt>
<trkpt lat="52.957835" lon="05.996097"><ele>5.7</ele><time>2021-03-19T13:07:17Z</time><name>PT10755</name></trkpt>
<trkpt lat="52.957845" lon="05.996076"><ele>5.8</ele><time>2021-03-19T13:07:19Z</time><name>PT10756</name></trkpt>
<trkpt lat="52.957859" lon="05.996060"><ele>5.8</ele><time>2021-03-19T13:07:19Z</time><name>PT10757</name></trkpt>
<trkpt lat="52.957867" lon="05.996033"><ele>5.8</ele><time>2021-03-19T13:07:20Z</time><name>PT10758</name></trkpt>
<trkpt lat="52.957872" lon="05.996010"><ele>5.9</ele><time>2021-03-19T13:07:21Z</time><name>PT10759</name></trkpt>
<trkpt lat="52.957884" lon="05.995990"><ele>5.9</ele><time>2021-03-19T13:07:22Z</time><name>PT10760</name></trkpt>
<trkpt lat="52.957889" lon="05.995969"><ele>5.9</ele><time>2021-03-19T13:07:23Z</time><name>PT10761</name></trkpt>
<trkpt lat="52.957897" lon="05.995951"><ele>5.8</ele><time>2021-03-19T13:07:24Z</time><name>PT10762</name></trkpt>
<trkpt lat="52.957906" lon="05.995938"><ele>5.8</ele><time>2021-03-19T13:07:25Z</time><name>PT10763</name></trkpt>
<trkpt lat="52.957911" lon="05.995923"><ele>5.5</ele><time>2021-03-19T13:07:26Z</time><name>PT10764</name></trkpt>
<trkpt lat="52.957916" lon="05.995910"><ele>5.4</ele><time>2021-03-19T13:07:27Z</time><name>PT10765</name></trkpt>
<trkpt lat="52.957928" lon="05.995893"><ele>5.3</ele><time>2021-03-19T13:07:28Z</time><name>PT10766</name></trkpt>
<trkpt lat="52.957933" lon="05.995879"><ele>5.4</ele><time>2021-03-19T13:07:29Z</time><name>PT10767</name></trkpt>
<trkpt lat="52.957940" lon="05.995865"><ele>5.4</ele><time>2021-03-19T13:07:30Z</time><name>PT10768</name></trkpt>
<trkpt lat="52.957944" lon="05.995852"><ele>5.5</ele><time>2021-03-19T13:07:31Z</time><name>PT10769</name></trkpt>
<trkpt lat="52.957951" lon="05.995836"><ele>5.7</ele><time>2021-03-19T13:07:33Z</time><name>PT10770</name></trkpt>
<trkpt lat="52.957954" lon="05.995825"><ele>5.7</ele><time>2021-03-19T13:07:33Z</time><name>PT10771</name></trkpt>
<trkpt lat="52.957961" lon="05.995814"><ele>5.6</ele><time>2021-03-19T13:07:34Z</time><name>PT10772</name></trkpt>
<trkpt lat="52.957966" lon="05.995804"><ele>5.7</ele><time>2021-03-19T13:07:35Z</time><name>PT10773</name></trkpt>
<trkpt lat="52.957973" lon="05.995796"><ele>5.6</ele><time>2021-03-19T13:07:36Z</time><name>PT10774</name></trkpt>
<trkpt lat="52.957977" lon="05.995786"><ele>5.9</ele><time>2021-03-19T13:07:37Z</time><name>PT10775</name></trkpt>
<trkpt lat="52.957986" lon="05.995777"><ele>6</ele><time>2021-03-19T13:07:38Z</time><name>PT10776</name></trkpt>
<trkpt lat="52.957987" lon="05.995767"><ele>5.8</ele><time>2021-03-19T13:07:39Z</time><name>PT10777</name></trkpt>
<trkpt lat="52.957993" lon="05.995735"><ele>5.4</ele><time>2021-03-19T13:07:50Z</time><name>PT10778</name></trkpt>
<trkpt lat="52.957998" lon="05.995702"><ele>5.7</ele><time>2021-03-19T13:07:51Z</time><name>PT10779</name></trkpt>
<trkpt lat="52.958006" lon="05.995679"><ele>5.6</ele><time>2021-03-19T13:07:52Z</time><name>PT10780</name></trkpt>
<trkpt lat="52.958009" lon="05.995650"><ele>5.5</ele><time>2021-03-19T13:07:53Z</time><name>PT10781</name></trkpt>
<trkpt lat="52.958021" lon="05.995604"><ele>5.7</ele><time>2021-03-19T13:07:54Z</time><name>PT10782</name></trkpt>
<trkpt lat="52.958032" lon="05.995567"><ele>5.5</ele><time>2021-03-19T13:07:55Z</time><name>PT10783</name></trkpt>
<trkpt lat="52.958039" lon="05.995545"><ele>5.2</ele><time>2021-03-19T13:08:03Z</time><name>PT10784</name></trkpt>
<trkpt lat="52.958059" lon="05.995507"><ele>5.2</ele><time>2021-03-19T13:08:04Z</time><name>PT10785</name></trkpt>
<trkpt lat="52.958069" lon="05.995485"><ele>5.4</ele><time>2021-03-19T13:08:05Z</time><name>PT10786</name></trkpt>
<trkpt lat="52.958078" lon="05.995466"><ele>5.5</ele><time>2021-03-19T13:08:06Z</time><name>PT10787</name></trkpt>
<trkpt lat="52.958085" lon="05.995434"><ele>5.5</ele><time>2021-03-19T13:08:07Z</time><name>PT10788</name></trkpt>
<trkpt lat="52.958094" lon="05.995416"><ele>5.6</ele><time>2021-03-19T13:08:08Z</time><name>PT10789</name></trkpt>
<trkpt lat="52.958094" lon="05.995383"><ele>5.9</ele><time>2021-03-19T13:08:15Z</time><name>PT10790</name></trkpt>
<trkpt lat="52.958096" lon="05.995365"><ele>5.9</ele><time>2021-03-19T13:08:16Z</time><name>PT10791</name></trkpt>
<trkpt lat="52.958108" lon="05.995316"><ele>6</ele><time>2021-03-19T13:08:38Z</time><name>PT10792</name></trkpt>
<trkpt lat="52.958130" lon="05.995271"><ele>6</ele><time>2021-03-19T13:08:38Z</time><name>PT10793</name></trkpt>
<trkpt lat="52.958145" lon="05.995255"><ele>6</ele><time>2021-03-19T13:08:40Z</time><name>PT10794</name></trkpt>
<trkpt lat="52.958164" lon="05.995237"><ele>5.9</ele><time>2021-03-19T13:08:40Z</time><name>PT10795</name></trkpt>
<trkpt lat="52.958176" lon="05.995213"><ele>5.9</ele><time>2021-03-19T13:08:41Z</time><name>PT10796</name></trkpt>
<trkpt lat="52.958200" lon="05.995195"><ele>5.9</ele><time>2021-03-19T13:08:42Z</time><name>PT10797</name></trkpt>
<trkpt lat="52.958214" lon="05.995174"><ele>5.9</ele><time>2021-03-19T13:08:43Z</time><name>PT10798</name></trkpt>
<trkpt lat="52.958227" lon="05.995152"><ele>5.9</ele><time>2021-03-19T13:08:44Z</time><name>PT10799</name></trkpt>
<trkpt lat="52.958233" lon="05.995126"><ele>5.9</ele><time>2021-03-19T13:08:45Z</time><name>PT10800</name></trkpt>
<trkpt lat="52.958246" lon="05.995097"><ele>6.1</ele><time>2021-03-19T13:08:46Z</time><name>PT10801</name></trkpt>
<trkpt lat="52.958253" lon="05.995076"><ele>6.2</ele><time>2021-03-19T13:08:48Z</time><name>PT10802</name></trkpt>
<trkpt lat="52.958258" lon="05.995056"><ele>6.1</ele><time>2021-03-19T13:08:49Z</time><name>PT10803</name></trkpt>
<trkpt lat="52.958267" lon="05.995035"><ele>6</ele><time>2021-03-19T13:08:49Z</time><name>PT10804</name></trkpt>
<trkpt lat="52.958273" lon="05.995019"><ele>5.9</ele><time>2021-03-19T13:08:50Z</time><name>PT10805</name></trkpt>
<trkpt lat="52.958279" lon="05.995001"><ele>5.9</ele><time>2021-03-19T13:08:51Z</time><name>PT10806</name></trkpt>
<trkpt lat="52.958293" lon="05.994989"><ele>6</ele><time>2021-03-19T13:08:52Z</time><name>PT10807</name></trkpt>
<trkpt lat="52.958303" lon="05.994972"><ele>6.1</ele><time>2021-03-19T13:08:53Z</time><name>PT10808</name></trkpt>
<trkpt lat="52.958311" lon="05.994955"><ele>5.9</ele><time>2021-03-19T13:08:55Z</time><name>PT10809</name></trkpt>
<trkpt lat="52.958316" lon="05.994936"><ele>5.8</ele><time>2021-03-19T13:08:56Z</time><name>PT10810</name></trkpt>
<trkpt lat="52.958324" lon="05.994925"><ele>5.7</ele><time>2021-03-19T13:08:56Z</time><name>PT10811</name></trkpt>
<trkpt lat="52.958331" lon="05.994912"><ele>5.5</ele><time>2021-03-19T13:08:57Z</time><name>PT10812</name></trkpt>
<trkpt lat="52.958339" lon="05.994896"><ele>5.7</ele><time>2021-03-19T13:08:58Z</time><name>PT10813</name></trkpt>
<trkpt lat="52.958345" lon="05.994885"><ele>5.8</ele><time>2021-03-19T13:08:59Z</time><name>PT10814</name></trkpt>
<trkpt lat="52.958354" lon="05.994874"><ele>5.8</ele><time>2021-03-19T13:09:00Z</time><name>PT10815</name></trkpt>
<trkpt lat="52.958358" lon="05.994855"><ele>5.9</ele><time>2021-03-19T13:09:01Z</time><name>PT10816</name></trkpt>
<trkpt lat="52.958362" lon="05.994839"><ele>5.9</ele><time>2021-03-19T13:09:02Z</time><name>PT10817</name></trkpt>
<trkpt lat="52.958367" lon="05.994818"><ele>5.6</ele><time>2021-03-19T13:09:03Z</time><name>PT10818</name></trkpt>
<trkpt lat="52.958372" lon="05.994796"><ele>5.6</ele><time>2021-03-19T13:09:04Z</time><name>PT10819</name></trkpt>
<trkpt lat="52.958371" lon="05.994772"><ele>5.6</ele><time>2021-03-19T13:09:05Z</time><name>PT10820</name></trkpt>
<trkpt lat="52.958358" lon="05.994758"><ele>5.5</ele><time>2021-03-19T13:09:06Z</time><name>PT10821</name></trkpt>
<trkpt lat="52.958355" lon="05.994731"><ele>5.6</ele><time>2021-03-19T13:09:08Z</time><name>PT10822</name></trkpt>
<trkpt lat="52.958353" lon="05.994711"><ele>5.5</ele><time>2021-03-19T13:09:08Z</time><name>PT10823</name></trkpt>
<trkpt lat="52.958353" lon="05.994685"><ele>5.4</ele><time>2021-03-19T13:09:09Z</time><name>PT10824</name></trkpt>
<trkpt lat="52.958348" lon="05.994662"><ele>5.2</ele><time>2021-03-19T13:09:11Z</time><name>PT10825</name></trkpt>
<trkpt lat="52.958345" lon="05.994631"><ele>5.1</ele><time>2021-03-19T13:09:11Z</time><name>PT10826</name></trkpt>
<trkpt lat="52.958343" lon="05.994611"><ele>5</ele><time>2021-03-19T13:09:12Z</time><name>PT10827</name></trkpt>
<trkpt lat="52.958340" lon="05.994596"><ele>4.9</ele><time>2021-03-19T13:09:13Z</time><name>PT10828</name></trkpt>
<trkpt lat="52.958338" lon="05.994581"><ele>5</ele><time>2021-03-19T13:09:14Z</time><name>PT10829</name></trkpt>
<trkpt lat="52.958336" lon="05.994566"><ele>5.2</ele><time>2021-03-19T13:09:15Z</time><name>PT10830</name></trkpt>
<trkpt lat="52.958336" lon="05.994555"><ele>5.4</ele><time>2021-03-19T13:09:16Z</time><name>PT10831</name></trkpt>
<trkpt lat="52.958338" lon="05.994540"><ele>5.4</ele><time>2021-03-19T13:09:17Z</time><name>PT10832</name></trkpt>
<trkpt lat="52.958336" lon="05.994531"><ele>5.6</ele><time>2021-03-19T13:09:18Z</time><name>PT10833</name></trkpt>
<trkpt lat="52.958340" lon="05.994517"><ele>5.4</ele><time>2021-03-19T13:09:19Z</time><name>PT10834</name></trkpt>
<trkpt lat="52.958340" lon="05.994503"><ele>5.3</ele><time>2021-03-19T13:09:21Z</time><name>PT10835</name></trkpt>
<trkpt lat="52.958337" lon="05.994486"><ele>5.3</ele><time>2021-03-19T13:09:21Z</time><name>PT10836</name></trkpt>
<trkpt lat="52.958334" lon="05.994475"><ele>5</ele><time>2021-03-19T13:09:22Z</time><name>PT10837</name></trkpt>
<trkpt lat="52.958328" lon="05.994457"><ele>5</ele><time>2021-03-19T13:09:23Z</time><name>PT10838</name></trkpt>
<trkpt lat="52.958327" lon="05.994443"><ele>5</ele><time>2021-03-19T13:09:24Z</time><name>PT10839</name></trkpt>
<trkpt lat="52.958326" lon="05.994432"><ele>5</ele><time>2021-03-19T13:09:25Z</time><name>PT10840</name></trkpt>
<trkpt lat="52.958322" lon="05.994423"><ele>4.9</ele><time>2021-03-19T13:09:26Z</time><name>PT10841</name></trkpt>
<trkpt lat="52.958321" lon="05.994407"><ele>5</ele><time>2021-03-19T13:09:27Z</time><name>PT10842</name></trkpt>
<trkpt lat="52.958317" lon="05.994393"><ele>5</ele><time>2021-03-19T13:09:28Z</time><name>PT10843</name></trkpt>
<trkpt lat="52.958313" lon="05.994377"><ele>5.2</ele><time>2021-03-19T13:09:30Z</time><name>PT10844</name></trkpt>
<trkpt lat="52.958309" lon="05.994366"><ele>5.2</ele><time>2021-03-19T13:09:30Z</time><name>PT10845</name></trkpt>
<trkpt lat="52.958305" lon="05.994352"><ele>5.3</ele><time>2021-03-19T13:09:31Z</time><name>PT10846</name></trkpt>
<trkpt lat="52.958300" lon="05.994341"><ele>5.3</ele><time>2021-03-19T13:09:32Z</time><name>PT10847</name></trkpt>
<trkpt lat="52.958297" lon="05.994330"><ele>5.2</ele><time>2021-03-19T13:09:33Z</time><name>PT10848</name></trkpt>
<trkpt lat="52.958298" lon="05.994314"><ele>5.1</ele><time>2021-03-19T13:09:35Z</time><name>PT10849</name></trkpt>
<trkpt lat="52.958298" lon="05.994298"><ele>5.1</ele><time>2021-03-19T13:09:35Z</time><name>PT10850</name></trkpt>
<trkpt lat="52.958298" lon="05.994289"><ele>5.3</ele><time>2021-03-19T13:09:36Z</time><name>PT10851</name></trkpt>
<trkpt lat="52.958298" lon="05.994279"><ele>5.3</ele><time>2021-03-19T13:09:37Z</time><name>PT10852</name></trkpt>
<trkpt lat="52.958298" lon="05.994269"><ele>5.3</ele><time>2021-03-19T13:09:38Z</time><name>PT10853</name></trkpt>
<trkpt lat="52.958296" lon="05.994245"><ele>5.6</ele><time>2021-03-19T13:09:43Z</time><name>PT10854</name></trkpt>
<trkpt lat="52.958297" lon="05.994224"><ele>5.7</ele><time>2021-03-19T13:09:43Z</time><name>PT10855</name></trkpt>
<trkpt lat="52.958294" lon="05.994201"><ele>5.9</ele><time>2021-03-19T13:09:44Z</time><name>PT10856</name></trkpt>
<trkpt lat="52.958297" lon="05.994190"><ele>5.5</ele><time>2021-03-19T13:10:28Z</time><name>PT10857</name></trkpt>
<trkpt lat="52.958303" lon="05.994172"><ele>5.4</ele><time>2021-03-19T13:10:28Z</time><name>PT10858</name></trkpt>
<trkpt lat="52.958309" lon="05.994154"><ele>5.4</ele><time>2021-03-19T13:10:29Z</time><name>PT10859</name></trkpt>
<trkpt lat="52.958315" lon="05.994141"><ele>5.3</ele><time>2021-03-19T13:10:31Z</time><name>PT10860</name></trkpt>
<trkpt lat="52.958324" lon="05.994130"><ele>5.1</ele><time>2021-03-19T13:10:31Z</time><name>PT10861</name></trkpt>
<trkpt lat="52.958328" lon="05.994122"><ele>5</ele><time>2021-03-19T13:10:32Z</time><name>PT10862</name></trkpt>
<trkpt lat="52.958336" lon="05.994111"><ele>5</ele><time>2021-03-19T13:10:33Z</time><name>PT10863</name></trkpt>
<trkpt lat="52.958342" lon="05.994097"><ele>5</ele><time>2021-03-19T13:10:34Z</time><name>PT10864</name></trkpt>
<trkpt lat="52.958347" lon="05.994089"><ele>5</ele><time>2021-03-19T13:10:35Z</time><name>PT10865</name></trkpt>
<trkpt lat="52.958353" lon="05.994080"><ele>5.1</ele><time>2021-03-19T13:10:36Z</time><name>PT10866</name></trkpt>
<trkpt lat="52.958363" lon="05.994069"><ele>5.1</ele><time>2021-03-19T13:10:38Z</time><name>PT10867</name></trkpt>
<trkpt lat="52.958371" lon="05.994057"><ele>5</ele><time>2021-03-19T13:10:38Z</time><name>PT10868</name></trkpt>
<trkpt lat="52.958380" lon="05.994048"><ele>5</ele><time>2021-03-19T13:10:39Z</time><name>PT10869</name></trkpt>
<trkpt lat="52.958390" lon="05.994038"><ele>4.8</ele><time>2021-03-19T13:10:40Z</time><name>PT10870</name></trkpt>
<trkpt lat="52.958398" lon="05.994026"><ele>4.8</ele><time>2021-03-19T13:10:41Z</time><name>PT10871</name></trkpt>
<trkpt lat="52.958404" lon="05.994012"><ele>4.6</ele><time>2021-03-19T13:10:42Z</time><name>PT10872</name></trkpt>
<trkpt lat="52.958413" lon="05.994000"><ele>4.6</ele><time>2021-03-19T13:10:43Z</time><name>PT10873</name></trkpt>
<trkpt lat="52.958423" lon="05.993991"><ele>4.7</ele><time>2021-03-19T13:10:44Z</time><name>PT10874</name></trkpt>
<trkpt lat="52.958430" lon="05.993978"><ele>4.7</ele><time>2021-03-19T13:10:45Z</time><name>PT10875</name></trkpt>
<trkpt lat="52.958441" lon="05.993966"><ele>4.7</ele><time>2021-03-19T13:10:47Z</time><name>PT10876</name></trkpt>
<trkpt lat="52.958450" lon="05.993959"><ele>4.9</ele><time>2021-03-19T13:10:48Z</time><name>PT10877</name></trkpt>
<trkpt lat="52.958461" lon="05.993948"><ele>5.2</ele><time>2021-03-19T13:10:48Z</time><name>PT10878</name></trkpt>
<trkpt lat="52.958466" lon="05.993935"><ele>4.9</ele><time>2021-03-19T13:10:49Z</time><name>PT10879</name></trkpt>
<trkpt lat="52.958478" lon="05.993927"><ele>5</ele><time>2021-03-19T13:10:50Z</time><name>PT10880</name></trkpt>
<trkpt lat="52.958492" lon="05.993916"><ele>5.2</ele><time>2021-03-19T13:10:51Z</time><name>PT10881</name></trkpt>
<trkpt lat="52.958502" lon="05.993908"><ele>5.2</ele><time>2021-03-19T13:10:53Z</time><name>PT10882</name></trkpt>
<trkpt lat="52.958509" lon="05.993900"><ele>5</ele><time>2021-03-19T13:10:53Z</time><name>PT10883</name></trkpt>
<trkpt lat="52.958519" lon="05.993893"><ele>5.2</ele><time>2021-03-19T13:10:55Z</time><name>PT10884</name></trkpt>
<trkpt lat="52.958531" lon="05.993888"><ele>5</ele><time>2021-03-19T13:10:55Z</time><name>PT10885</name></trkpt>
<trkpt lat="52.958542" lon="05.993880"><ele>4.8</ele><time>2021-03-19T13:10:56Z</time><name>PT10886</name></trkpt>
<trkpt lat="52.958552" lon="05.993867"><ele>4.6</ele><time>2021-03-19T13:10:58Z</time><name>PT10887</name></trkpt>
<trkpt lat="52.958560" lon="05.993859"><ele>4.5</ele><time>2021-03-19T13:10:58Z</time><name>PT10888</name></trkpt>
<trkpt lat="52.958571" lon="05.993851"><ele>4.6</ele><time>2021-03-19T13:10:59Z</time><name>PT10889</name></trkpt>
<trkpt lat="52.958581" lon="05.993839"><ele>4.8</ele><time>2021-03-19T13:11:00Z</time><name>PT10890</name></trkpt>
<trkpt lat="52.958591" lon="05.993831"><ele>4.7</ele><time>2021-03-19T13:11:01Z</time><name>PT10891</name></trkpt>
<trkpt lat="52.958600" lon="05.993814"><ele>4.7</ele><time>2021-03-19T13:11:02Z</time><name>PT10892</name></trkpt>
<trkpt lat="52.958611" lon="05.993803"><ele>4.9</ele><time>2021-03-19T13:11:03Z</time><name>PT10893</name></trkpt>
<trkpt lat="52.958622" lon="05.993791"><ele>5</ele><time>2021-03-19T13:11:05Z</time><name>PT10894</name></trkpt>
<trkpt lat="52.958634" lon="05.993783"><ele>5.1</ele><time>2021-03-19T13:11:05Z</time><name>PT10895</name></trkpt>
<trkpt lat="52.958643" lon="05.993773"><ele>5.3</ele><time>2021-03-19T13:11:06Z</time><name>PT10896</name></trkpt>
<trkpt lat="52.958653" lon="05.993765"><ele>5.4</ele><time>2021-03-19T13:11:07Z</time><name>PT10897</name></trkpt>
<trkpt lat="52.958665" lon="05.993759"><ele>5.1</ele><time>2021-03-19T13:11:09Z</time><name>PT10898</name></trkpt>
<trkpt lat="52.958675" lon="05.993749"><ele>5.2</ele><time>2021-03-19T13:11:09Z</time><name>PT10899</name></trkpt>
<trkpt lat="52.958686" lon="05.993740"><ele>5.2</ele><time>2021-03-19T13:11:10Z</time><name>PT10900</name></trkpt>
<trkpt lat="52.958690" lon="05.993737"><ele>5</ele><time>2021-03-19T13:11:11Z</time><name>PT10901</name></trkpt>
<trkpt lat="52.958695" lon="05.993730"><ele>4.7</ele><time>2021-03-19T13:11:12Z</time><name>PT10902</name></trkpt>
<trkpt lat="52.958707" lon="05.993723"><ele>4.8</ele><time>2021-03-19T13:11:14Z</time><name>PT10903</name></trkpt>
<trkpt lat="52.958714" lon="05.993717"><ele>4.8</ele><time>2021-03-19T13:11:14Z</time><name>PT10904</name></trkpt>
<trkpt lat="52.958717" lon="05.993711"><ele>4.1</ele><time>2021-03-19T13:11:16Z</time><name>PT10905</name></trkpt>
<trkpt lat="52.958719" lon="05.993710"><ele>4.3</ele><time>2021-03-19T13:11:16Z</time><name>PT10906</name></trkpt>
<trkpt lat="52.958721" lon="05.993709"><ele>4.2</ele><time>2021-03-19T13:11:17Z</time><name>PT10907</name></trkpt>
<trkpt lat="52.958721" lon="05.993708"><ele>4.3</ele><time>2021-03-19T13:11:18Z</time><name>PT10908</name></trkpt>
<trkpt lat="52.958722" lon="05.993709"><ele>6</ele><time>2021-03-19T13:11:23Z</time><name>PT10909</name></trkpt>
<trkpt lat="52.958730" lon="05.993699"><ele>6.1</ele><time>2021-03-19T13:11:24Z</time><name>PT10910</name></trkpt>
<trkpt lat="52.958738" lon="05.993686"><ele>5.4</ele><time>2021-03-19T13:11:25Z</time><name>PT10911</name></trkpt>
<trkpt lat="52.958745" lon="05.993674"><ele>5.4</ele><time>2021-03-19T13:11:27Z</time><name>PT10912</name></trkpt>
<trkpt lat="52.958753" lon="05.993664"><ele>5.4</ele><time>2021-03-19T13:11:27Z</time><name>PT10913</name></trkpt>
<trkpt lat="52.958760" lon="05.993655"><ele>5</ele><time>2021-03-19T13:11:28Z</time><name>PT10914</name></trkpt>
<trkpt lat="52.958766" lon="05.993644"><ele>5.7</ele><time>2021-03-19T13:11:30Z</time><name>PT10915</name></trkpt>
<trkpt lat="52.958773" lon="05.993636"><ele>5.8</ele><time>2021-03-19T13:11:30Z</time><name>PT10916</name></trkpt>
<trkpt lat="52.958784" lon="05.993625"><ele>5.5</ele><time>2021-03-19T13:11:31Z</time><name>PT10917</name></trkpt>
<trkpt lat="52.958794" lon="05.993617"><ele>5.2</ele><time>2021-03-19T13:11:33Z</time><name>PT10918</name></trkpt>
<trkpt lat="52.958804" lon="05.993608"><ele>4.5</ele><time>2021-03-19T13:11:33Z</time><name>PT10919</name></trkpt>
<trkpt lat="52.958814" lon="05.993599"><ele>4.5</ele><time>2021-03-19T13:11:35Z</time><name>PT10920</name></trkpt>
<trkpt lat="52.958824" lon="05.993592"><ele>4.2</ele><time>2021-03-19T13:11:36Z</time><name>PT10921</name></trkpt>
<trkpt lat="52.958834" lon="05.993583"><ele>4.5</ele><time>2021-03-19T13:11:36Z</time><name>PT10922</name></trkpt>
<trkpt lat="52.958843" lon="05.993573"><ele>4.8</ele><time>2021-03-19T13:11:37Z</time><name>PT10923</name></trkpt>
<trkpt lat="52.958851" lon="05.993564"><ele>5.2</ele><time>2021-03-19T13:11:39Z</time><name>PT10924</name></trkpt>
<trkpt lat="52.958863" lon="05.993555"><ele>5</ele><time>2021-03-19T13:11:39Z</time><name>PT10925</name></trkpt>
<trkpt lat="52.958873" lon="05.993550"><ele>5</ele><time>2021-03-19T13:11:40Z</time><name>PT10926</name></trkpt>
<trkpt lat="52.958881" lon="05.993541"><ele>4.8</ele><time>2021-03-19T13:11:41Z</time><name>PT10927</name></trkpt>
<trkpt lat="52.958892" lon="05.993532"><ele>4.7</ele><time>2021-03-19T13:11:42Z</time><name>PT10928</name></trkpt>
<trkpt lat="52.958901" lon="05.993523"><ele>4.6</ele><time>2021-03-19T13:11:43Z</time><name>PT10929</name></trkpt>
<trkpt lat="52.958910" lon="05.993517"><ele>4.5</ele><time>2021-03-19T13:11:44Z</time><name>PT10930</name></trkpt>
<trkpt lat="52.958918" lon="05.993508"><ele>4.5</ele><time>2021-03-19T13:11:45Z</time><name>PT10931</name></trkpt>
<trkpt lat="52.958927" lon="05.993499"><ele>4.4</ele><time>2021-03-19T13:11:46Z</time><name>PT10932</name></trkpt>
<trkpt lat="52.958940" lon="05.993491"><ele>4.4</ele><time>2021-03-19T13:11:48Z</time><name>PT10933</name></trkpt>
<trkpt lat="52.958947" lon="05.993482"><ele>4.4</ele><time>2021-03-19T13:11:48Z</time><name>PT10934</name></trkpt>
<trkpt lat="52.958955" lon="05.993472"><ele>4.6</ele><time>2021-03-19T13:11:49Z</time><name>PT10935</name></trkpt>
<trkpt lat="52.958961" lon="05.993459"><ele>4.8</ele><time>2021-03-19T13:11:50Z</time><name>PT10936</name></trkpt>
<trkpt lat="52.958972" lon="05.993450"><ele>4.8</ele><time>2021-03-19T13:11:51Z</time><name>PT10937</name></trkpt>
<trkpt lat="52.958981" lon="05.993444"><ele>4.9</ele><time>2021-03-19T13:11:53Z</time><name>PT10938</name></trkpt>
<trkpt lat="52.958990" lon="05.993435"><ele>5</ele><time>2021-03-19T13:11:53Z</time><name>PT10939</name></trkpt>
<trkpt lat="52.958998" lon="05.993427"><ele>4.8</ele><time>2021-03-19T13:11:54Z</time><name>PT10940</name></trkpt>
<trkpt lat="52.959003" lon="05.993422"><ele>4.9</ele><time>2021-03-19T13:11:56Z</time><name>PT10941</name></trkpt>
<trkpt lat="52.959007" lon="05.993418"><ele>4.9</ele><time>2021-03-19T13:11:56Z</time><name>PT10942</name></trkpt>
<trkpt lat="52.959014" lon="05.993409"><ele>4.8</ele><time>2021-03-19T13:11:57Z</time><name>PT10943</name></trkpt>
<trkpt lat="52.959023" lon="05.993398"><ele>4.8</ele><time>2021-03-19T13:11:58Z</time><name>PT10944</name></trkpt>
<trkpt lat="52.959033" lon="05.993386"><ele>4.6</ele><time>2021-03-19T13:11:59Z</time><name>PT10945</name></trkpt>
<trkpt lat="52.959044" lon="05.993377"><ele>4.5</ele><time>2021-03-19T13:12:01Z</time><name>PT10946</name></trkpt>
<trkpt lat="52.959053" lon="05.993369"><ele>4.5</ele><time>2021-03-19T13:12:01Z</time><name>PT10947</name></trkpt>
<trkpt lat="52.959065" lon="05.993364"><ele>4.5</ele><time>2021-03-19T13:12:02Z</time><name>PT10948</name></trkpt>
<trkpt lat="52.959074" lon="05.993354"><ele>4.4</ele><time>2021-03-19T13:12:03Z</time><name>PT10949</name></trkpt>
<trkpt lat="52.959083" lon="05.993344"><ele>4.5</ele><time>2021-03-19T13:12:04Z</time><name>PT10950</name></trkpt>
<trkpt lat="52.959094" lon="05.993334"><ele>4.5</ele><time>2021-03-19T13:12:05Z</time><name>PT10951</name></trkpt>
<trkpt lat="52.959105" lon="05.993322"><ele>4.4</ele><time>2021-03-19T13:12:06Z</time><name>PT10952</name></trkpt>
<trkpt lat="52.959117" lon="05.993311"><ele>4.4</ele><time>2021-03-19T13:12:07Z</time><name>PT10953</name></trkpt>
<trkpt lat="52.959126" lon="05.993305"><ele>4.4</ele><time>2021-03-19T13:12:08Z</time><name>PT10954</name></trkpt>
<trkpt lat="52.959132" lon="05.993299"><ele>4.2</ele><time>2021-03-19T13:12:10Z</time><name>PT10955</name></trkpt>
<trkpt lat="52.959140" lon="05.993290"><ele>4.1</ele><time>2021-03-19T13:12:10Z</time><name>PT10956</name></trkpt>
<trkpt lat="52.959149" lon="05.993278"><ele>4</ele><time>2021-03-19T13:12:11Z</time><name>PT10957</name></trkpt>
<trkpt lat="52.959158" lon="05.993267"><ele>3.8</ele><time>2021-03-19T13:12:13Z</time><name>PT10958</name></trkpt>
<trkpt lat="52.959167" lon="05.993260"><ele>3.9</ele><time>2021-03-19T13:12:13Z</time><name>PT10959</name></trkpt>
<trkpt lat="52.959176" lon="05.993254"><ele>4.1</ele><time>2021-03-19T13:12:14Z</time><name>PT10960</name></trkpt>
<trkpt lat="52.959186" lon="05.993246"><ele>4.5</ele><time>2021-03-19T13:12:16Z</time><name>PT10961</name></trkpt>
<trkpt lat="52.959196" lon="05.993238"><ele>4.5</ele><time>2021-03-19T13:12:16Z</time><name>PT10962</name></trkpt>
<trkpt lat="52.959202" lon="05.993230"><ele>4.5</ele><time>2021-03-19T13:12:17Z</time><name>PT10963</name></trkpt>
<trkpt lat="52.959207" lon="05.993219"><ele>4.5</ele><time>2021-03-19T13:12:18Z</time><name>PT10964</name></trkpt>
<trkpt lat="52.959212" lon="05.993208"><ele>4.5</ele><time>2021-03-19T13:12:19Z</time><name>PT10965</name></trkpt>
<trkpt lat="52.959224" lon="05.993203"><ele>4.5</ele><time>2021-03-19T13:12:21Z</time><name>PT10966</name></trkpt>
<trkpt lat="52.959232" lon="05.993197"><ele>4.5</ele><time>2021-03-19T13:12:21Z</time><name>PT10967</name></trkpt>
<trkpt lat="52.959241" lon="05.993192"><ele>4.5</ele><time>2021-03-19T13:12:22Z</time><name>PT10968</name></trkpt>
<trkpt lat="52.959244" lon="05.993186"><ele>4.5</ele><time>2021-03-19T13:12:23Z</time><name>PT10969</name></trkpt>
<trkpt lat="52.959248" lon="05.993178"><ele>4.5</ele><time>2021-03-19T13:12:24Z</time><name>PT10970</name></trkpt>
<trkpt lat="52.959256" lon="05.993171"><ele>4.5</ele><time>2021-03-19T13:12:26Z</time><name>PT10971</name></trkpt>
<trkpt lat="52.959264" lon="05.993163"><ele>4.5</ele><time>2021-03-19T13:12:26Z</time><name>PT10972</name></trkpt>
<trkpt lat="52.959267" lon="05.993154"><ele>4.5</ele><time>2021-03-19T13:12:27Z</time><name>PT10973</name></trkpt>
<trkpt lat="52.959273" lon="05.993145"><ele>4.5</ele><time>2021-03-19T13:12:28Z</time><name>PT10974</name></trkpt>
<trkpt lat="52.959281" lon="05.993135"><ele>4.5</ele><time>2021-03-19T13:12:29Z</time><name>PT10975</name></trkpt>
<trkpt lat="52.959288" lon="05.993129"><ele>4.6</ele><time>2021-03-19T13:12:31Z</time><name>PT10976</name></trkpt>
<trkpt lat="52.959293" lon="05.993124"><ele>4.5</ele><time>2021-03-19T13:12:31Z</time><name>PT10977</name></trkpt>
<trkpt lat="52.959303" lon="05.993119"><ele>4.6</ele><time>2021-03-19T13:12:32Z</time><name>PT10978</name></trkpt>
<trkpt lat="52.959311" lon="05.993109"><ele>4.4</ele><time>2021-03-19T13:12:34Z</time><name>PT10979</name></trkpt>
<trkpt lat="52.959319" lon="05.993097"><ele>4.4</ele><time>2021-03-19T13:12:34Z</time><name>PT10980</name></trkpt>
<trkpt lat="52.959328" lon="05.993086"><ele>4.3</ele><time>2021-03-19T13:12:35Z</time><name>PT10981</name></trkpt>
<trkpt lat="52.959337" lon="05.993078"><ele>4.4</ele><time>2021-03-19T13:12:36Z</time><name>PT10982</name></trkpt>
<trkpt lat="52.959344" lon="05.993071"><ele>4.5</ele><time>2021-03-19T13:12:37Z</time><name>PT10983</name></trkpt>
<trkpt lat="52.959352" lon="05.993061"><ele>4.5</ele><time>2021-03-19T13:12:38Z</time><name>PT10984</name></trkpt>
<trkpt lat="52.959357" lon="05.993049"><ele>4.5</ele><time>2021-03-19T13:12:39Z</time><name>PT10985</name></trkpt>
<trkpt lat="52.959364" lon="05.993039"><ele>4.5</ele><time>2021-03-19T13:12:40Z</time><name>PT10986</name></trkpt>
<trkpt lat="52.959370" lon="05.993028"><ele>4.8</ele><time>2021-03-19T13:12:42Z</time><name>PT10987</name></trkpt>
<trkpt lat="52.959377" lon="05.993019"><ele>4.7</ele><time>2021-03-19T13:12:43Z</time><name>PT10988</name></trkpt>
<trkpt lat="52.959381" lon="05.993005"><ele>4.6</ele><time>2021-03-19T13:12:43Z</time><name>PT10989</name></trkpt>
<trkpt lat="52.959384" lon="05.992995"><ele>4.8</ele><time>2021-03-19T13:12:44Z</time><name>PT10990</name></trkpt>
<trkpt lat="52.959389" lon="05.992990"><ele>4.6</ele><time>2021-03-19T13:12:46Z</time><name>PT10991</name></trkpt>
<trkpt lat="52.959391" lon="05.992985"><ele>4.5</ele><time>2021-03-19T13:12:46Z</time><name>PT10992</name></trkpt>
<trkpt lat="52.959390" lon="05.992984"><ele>4.7</ele><time>2021-03-19T13:12:47Z</time><name>PT10993</name></trkpt>
<trkpt lat="52.959389" lon="05.992982"><ele>5</ele><time>2021-03-19T13:12:48Z</time><name>PT10994</name></trkpt>
<trkpt lat="52.959388" lon="05.992981"><ele>5.2</ele><time>2021-03-19T13:12:49Z</time><name>PT10995</name></trkpt>
<trkpt lat="52.959390" lon="05.992974"><ele>5.1</ele><time>2021-03-19T13:12:53Z</time><name>PT10996</name></trkpt>
<trkpt lat="52.959390" lon="05.992955"><ele>5</ele><time>2021-03-19T13:12:53Z</time><name>PT10997</name></trkpt>
<trkpt lat="52.959389" lon="05.992936"><ele>4.8</ele><time>2021-03-19T13:12:54Z</time><name>PT10998</name></trkpt>
<trkpt lat="52.959388" lon="05.992920"><ele>4.9</ele><time>2021-03-19T13:12:56Z</time><name>PT10999</name></trkpt>
<trkpt lat="52.959385" lon="05.992906"><ele>5</ele><time>2021-03-19T13:12:56Z</time><name>PT11000</name></trkpt>
<trkpt lat="52.959382" lon="05.992890"><ele>5</ele><time>2021-03-19T13:12:57Z</time><name>PT11001</name></trkpt>
<trkpt lat="52.959378" lon="05.992873"><ele>5.1</ele><time>2021-03-19T13:12:59Z</time><name>PT11002</name></trkpt>
<trkpt lat="52.959375" lon="05.992858"><ele>5.2</ele><time>2021-03-19T13:12:59Z</time><name>PT11003</name></trkpt>
<trkpt lat="52.959373" lon="05.992846"><ele>5.1</ele><time>2021-03-19T13:13:00Z</time><name>PT11004</name></trkpt>
<trkpt lat="52.959370" lon="05.992835"><ele>5.1</ele><time>2021-03-19T13:13:02Z</time><name>PT11005</name></trkpt>
<trkpt lat="52.959364" lon="05.992823"><ele>5</ele><time>2021-03-19T13:13:02Z</time><name>PT11006</name></trkpt>
<trkpt lat="52.959359" lon="05.992810"><ele>5</ele><time>2021-03-19T13:13:03Z</time><name>PT11007</name></trkpt>
<trkpt lat="52.959357" lon="05.992794"><ele>5</ele><time>2021-03-19T13:13:04Z</time><name>PT11008</name></trkpt>
<trkpt lat="52.959355" lon="05.992779"><ele>4.9</ele><time>2021-03-19T13:13:05Z</time><name>PT11009</name></trkpt>
<trkpt lat="52.959352" lon="05.992765"><ele>4.8</ele><time>2021-03-19T13:13:06Z</time><name>PT11010</name></trkpt>
<trkpt lat="52.959345" lon="05.992753"><ele>4.8</ele><time>2021-03-19T13:13:08Z</time><name>PT11011</name></trkpt>
<trkpt lat="52.959344" lon="05.992744"><ele>4.8</ele><time>2021-03-19T13:13:08Z</time><name>PT11012</name></trkpt>
<trkpt lat="52.959340" lon="05.992737"><ele>4.9</ele><time>2021-03-19T13:13:09Z</time><name>PT11013</name></trkpt>
<trkpt lat="52.959336" lon="05.992726"><ele>5</ele><time>2021-03-19T13:13:10Z</time><name>PT11014</name></trkpt>
<trkpt lat="52.959332" lon="05.992713"><ele>4.9</ele><time>2021-03-19T13:13:11Z</time><name>PT11015</name></trkpt>
<trkpt lat="52.959327" lon="05.992699"><ele>5</ele><time>2021-03-19T13:13:12Z</time><name>PT11016</name></trkpt>
<trkpt lat="52.959324" lon="05.992685"><ele>5</ele><time>2021-03-19T13:13:13Z</time><name>PT11017</name></trkpt>
<trkpt lat="52.959322" lon="05.992679"><ele>5</ele><time>2021-03-19T13:13:15Z</time><name>PT11018</name></trkpt>
<trkpt lat="52.959319" lon="05.992668"><ele>4.9</ele><time>2021-03-19T13:13:15Z</time><name>PT11019</name></trkpt>
<trkpt lat="52.959317" lon="05.992658"><ele>4.7</ele><time>2021-03-19T13:13:16Z</time><name>PT11020</name></trkpt>
<trkpt lat="52.959313" lon="05.992649"><ele>4.5</ele><time>2021-03-19T13:13:18Z</time><name>PT11021</name></trkpt>
<trkpt lat="52.959311" lon="05.992639"><ele>4.5</ele><time>2021-03-19T13:13:18Z</time><name>PT11022</name></trkpt>
<trkpt lat="52.959304" lon="05.992628"><ele>4.4</ele><time>2021-03-19T13:13:19Z</time><name>PT11023</name></trkpt>
<trkpt lat="52.959298" lon="05.992614"><ele>4.5</ele><time>2021-03-19T13:13:20Z</time><name>PT11024</name></trkpt>
<trkpt lat="52.959295" lon="05.992602"><ele>4.7</ele><time>2021-03-19T13:13:21Z</time><name>PT11025</name></trkpt>
<trkpt lat="52.959288" lon="05.992591"><ele>4.8</ele><time>2021-03-19T13:13:22Z</time><name>PT11026</name></trkpt>
<trkpt lat="52.959281" lon="05.992580"><ele>4.8</ele><time>2021-03-19T13:13:23Z</time><name>PT11027</name></trkpt>
<trkpt lat="52.959274" lon="05.992572"><ele>4.9</ele><time>2021-03-19T13:13:25Z</time><name>PT11028</name></trkpt>
<trkpt lat="52.959269" lon="05.992559"><ele>4.7</ele><time>2021-03-19T13:13:25Z</time><name>PT11029</name></trkpt>
<trkpt lat="52.959265" lon="05.992547"><ele>4.8</ele><time>2021-03-19T13:13:26Z</time><name>PT11030</name></trkpt>
<trkpt lat="52.959262" lon="05.992535"><ele>4.6</ele><time>2021-03-19T13:13:27Z</time><name>PT11031</name></trkpt>
<trkpt lat="52.959254" lon="05.992527"><ele>4.7</ele><time>2021-03-19T13:13:28Z</time><name>PT11032</name></trkpt>
<trkpt lat="52.959251" lon="05.992512"><ele>4.9</ele><time>2021-03-19T13:13:29Z</time><name>PT11033</name></trkpt>
<trkpt lat="52.959248" lon="05.992498"><ele>4.9</ele><time>2021-03-19T13:13:30Z</time><name>PT11034</name></trkpt>
<trkpt lat="52.959244" lon="05.992489"><ele>4.9</ele><time>2021-03-19T13:13:31Z</time><name>PT11035</name></trkpt>
<trkpt lat="52.959240" lon="05.992482"><ele>5</ele><time>2021-03-19T13:13:32Z</time><name>PT11036</name></trkpt>
<trkpt lat="52.959237" lon="05.992475"><ele>4.8</ele><time>2021-03-19T13:13:34Z</time><name>PT11037</name></trkpt>
<trkpt lat="52.959235" lon="05.992467"><ele>4.8</ele><time>2021-03-19T13:13:34Z</time><name>PT11038</name></trkpt>
<trkpt lat="52.959235" lon="05.992440"><ele>4.8</ele><time>2021-03-19T13:13:41Z</time><name>PT11039</name></trkpt>
<trkpt lat="52.959232" lon="05.992417"><ele>4.8</ele><time>2021-03-19T13:13:42Z</time><name>PT11040</name></trkpt>
<trkpt lat="52.959228" lon="05.992403"><ele>4.9</ele><time>2021-03-19T13:13:43Z</time><name>PT11041</name></trkpt>
<trkpt lat="52.959228" lon="05.992384"><ele>4.9</ele><time>2021-03-19T13:13:44Z</time><name>PT11042</name></trkpt>
<trkpt lat="52.959227" lon="05.992363"><ele>4.8</ele><time>2021-03-19T13:13:45Z</time><name>PT11043</name></trkpt>
<trkpt lat="52.959227" lon="05.992346"><ele>4.8</ele><time>2021-03-19T13:13:46Z</time><name>PT11044</name></trkpt>
<trkpt lat="52.959226" lon="05.992327"><ele>4.5</ele><time>2021-03-19T13:13:47Z</time><name>PT11045</name></trkpt>
<trkpt lat="52.959228" lon="05.992311"><ele>4.6</ele><time>2021-03-19T13:13:48Z</time><name>PT11046</name></trkpt>
<trkpt lat="52.959227" lon="05.992292"><ele>4.7</ele><time>2021-03-19T13:13:50Z</time><name>PT11047</name></trkpt>
<trkpt lat="52.959226" lon="05.992281"><ele>4.8</ele><time>2021-03-19T13:13:50Z</time><name>PT11048</name></trkpt>
<trkpt lat="52.959230" lon="05.992269"><ele>4.8</ele><time>2021-03-19T13:13:51Z</time><name>PT11049</name></trkpt>
<trkpt lat="52.959232" lon="05.992258"><ele>5.1</ele><time>2021-03-19T13:13:52Z</time><name>PT11050</name></trkpt>
<trkpt lat="52.959235" lon="05.992243"><ele>5.1</ele><time>2021-03-19T13:13:53Z</time><name>PT11051</name></trkpt>
<trkpt lat="52.959237" lon="05.992236"><ele>5.1</ele><time>2021-03-19T13:13:54Z</time><name>PT11052</name></trkpt>
<trkpt lat="52.959241" lon="05.992227"><ele>5</ele><time>2021-03-19T13:13:55Z</time><name>PT11053</name></trkpt>
<trkpt lat="52.959243" lon="05.992218"><ele>5</ele><time>2021-03-19T13:13:57Z</time><name>PT11054</name></trkpt>
<trkpt lat="52.959248" lon="05.992204"><ele>5</ele><time>2021-03-19T13:13:57Z</time><name>PT11055</name></trkpt>
<trkpt lat="52.959256" lon="05.992194"><ele>5</ele><time>2021-03-19T13:13:58Z</time><name>PT11056</name></trkpt>
<trkpt lat="52.959263" lon="05.992183"><ele>5</ele><time>2021-03-19T13:13:59Z</time><name>PT11057</name></trkpt>
<trkpt lat="52.959269" lon="05.992176"><ele>5.1</ele><time>2021-03-19T13:14:00Z</time><name>PT11058</name></trkpt>
<trkpt lat="52.959274" lon="05.992166"><ele>5</ele><time>2021-03-19T13:14:01Z</time><name>PT11059</name></trkpt>
<trkpt lat="52.959279" lon="05.992160"><ele>5</ele><time>2021-03-19T13:14:02Z</time><name>PT11060</name></trkpt>
<trkpt lat="52.959283" lon="05.992160"><ele>5.1</ele><time>2021-03-19T13:14:04Z</time><name>PT11061</name></trkpt>
<trkpt lat="52.959285" lon="05.992158"><ele>5</ele><time>2021-03-19T13:14:04Z</time><name>PT11062</name></trkpt>
<trkpt lat="52.959287" lon="05.992158"><ele>5</ele><time>2021-03-19T13:14:05Z</time><name>PT11063</name></trkpt>
<trkpt lat="52.959287" lon="05.992156"><ele>5</ele><time>2021-03-19T13:14:06Z</time><name>PT11064</name></trkpt>
<trkpt lat="52.959287" lon="05.992153"><ele>4.9</ele><time>2021-03-19T13:14:08Z</time><name>PT11065</name></trkpt>
<trkpt lat="52.959290" lon="05.992150"><ele>4.9</ele><time>2021-03-19T13:14:08Z</time><name>PT11066</name></trkpt>
<trkpt lat="52.959291" lon="05.992157"><ele>4.9</ele><time>2021-03-19T13:14:17Z</time><name>PT11067</name></trkpt>
<trkpt lat="52.959296" lon="05.992147"><ele>4.9</ele><time>2021-03-19T13:14:18Z</time><name>PT11068</name></trkpt>
<trkpt lat="52.959306" lon="05.992130"><ele>4.8</ele><time>2021-03-19T13:14:19Z</time><name>PT11069</name></trkpt>
<trkpt lat="52.959310" lon="05.992125"><ele>4.9</ele><time>2021-03-19T13:14:20Z</time><name>PT11070</name></trkpt>
<trkpt lat="52.959315" lon="05.992119"><ele>4.9</ele><time>2021-03-19T13:14:21Z</time><name>PT11071</name></trkpt>
<trkpt lat="52.959318" lon="05.992118"><ele>4.8</ele><time>2021-03-19T13:14:22Z</time><name>PT11072</name></trkpt>
<trkpt lat="52.959319" lon="05.992117"><ele>4.6</ele><time>2021-03-19T13:14:23Z</time><name>PT11073</name></trkpt>
<trkpt lat="52.959324" lon="05.992116"><ele>4.5</ele><time>2021-03-19T13:14:24Z</time><name>PT11074</name></trkpt>
<trkpt lat="52.959331" lon="05.992109"><ele>4.5</ele><time>2021-03-19T13:14:25Z</time><name>PT11075</name></trkpt>
<trkpt lat="52.959337" lon="05.992099"><ele>4.5</ele><time>2021-03-19T13:14:26Z</time><name>PT11076</name></trkpt>
<trkpt lat="52.959343" lon="05.992089"><ele>4.5</ele><time>2021-03-19T13:14:27Z</time><name>PT11077</name></trkpt>
<trkpt lat="52.959346" lon="05.992081"><ele>4.5</ele><time>2021-03-19T13:14:28Z</time><name>PT11078</name></trkpt>
<trkpt lat="52.959353" lon="05.992071"><ele>4.6</ele><time>2021-03-19T13:14:29Z</time><name>PT11079</name></trkpt>
<trkpt lat="52.959360" lon="05.992061"><ele>4.7</ele><time>2021-03-19T13:14:31Z</time><name>PT11080</name></trkpt>
<trkpt lat="52.959369" lon="05.992054"><ele>4.7</ele><time>2021-03-19T13:14:31Z</time><name>PT11081</name></trkpt>
<trkpt lat="52.959378" lon="05.992047"><ele>4.7</ele><time>2021-03-19T13:14:32Z</time><name>PT11082</name></trkpt>
<trkpt lat="52.959385" lon="05.992038"><ele>4.8</ele><time>2021-03-19T13:14:34Z</time><name>PT11083</name></trkpt>
<trkpt lat="52.959394" lon="05.992029"><ele>4.9</ele><time>2021-03-19T13:14:34Z</time><name>PT11084</name></trkpt>
<trkpt lat="52.959402" lon="05.992023"><ele>5.1</ele><time>2021-03-19T13:14:35Z</time><name>PT11085</name></trkpt>
<trkpt lat="52.959409" lon="05.992011"><ele>5.1</ele><time>2021-03-19T13:14:36Z</time><name>PT11086</name></trkpt>
<trkpt lat="52.959423" lon="05.992004"><ele>5.2</ele><time>2021-03-19T13:14:37Z</time><name>PT11087</name></trkpt>
<trkpt lat="52.959431" lon="05.991994"><ele>5.2</ele><time>2021-03-19T13:14:38Z</time><name>PT11088</name></trkpt>
<trkpt lat="52.959434" lon="05.991987"><ele>5.2</ele><time>2021-03-19T13:14:39Z</time><name>PT11089</name></trkpt>
<trkpt lat="52.959441" lon="05.991977"><ele>5.1</ele><time>2021-03-19T13:14:41Z</time><name>PT11090</name></trkpt>
<trkpt lat="52.959448" lon="05.991968"><ele>5.1</ele><time>2021-03-19T13:14:41Z</time><name>PT11091</name></trkpt>
<trkpt lat="52.959458" lon="05.991958"><ele>5</ele><time>2021-03-19T13:14:42Z</time><name>PT11092</name></trkpt>
<trkpt lat="52.959468" lon="05.991948"><ele>5</ele><time>2021-03-19T13:14:43Z</time><name>PT11093</name></trkpt>
<trkpt lat="52.959475" lon="05.991940"><ele>4.9</ele><time>2021-03-19T13:14:44Z</time><name>PT11094</name></trkpt>
<trkpt lat="52.959480" lon="05.991935"><ele>5</ele><time>2021-03-19T13:14:45Z</time><name>PT11095</name></trkpt>
<trkpt lat="52.959491" lon="05.991928"><ele>5</ele><time>2021-03-19T13:14:46Z</time><name>PT11096</name></trkpt>
<trkpt lat="52.959496" lon="05.991919"><ele>5</ele><time>2021-03-19T13:14:47Z</time><name>PT11097</name></trkpt>
<trkpt lat="52.959499" lon="05.991919"><ele>5.2</ele><time>2021-03-19T13:14:48Z</time><name>PT11098</name></trkpt>
<trkpt lat="52.959503" lon="05.991911"><ele>5</ele><time>2021-03-19T13:14:49Z</time><name>PT11099</name></trkpt>
<trkpt lat="52.959508" lon="05.991907"><ele>4.9</ele><time>2021-03-19T13:14:50Z</time><name>PT11100</name></trkpt>
<trkpt lat="52.959510" lon="05.991900"><ele>4.8</ele><time>2021-03-19T13:14:52Z</time><name>PT11101</name></trkpt>
<trkpt lat="52.959521" lon="05.991891"><ele>4.7</ele><time>2021-03-19T13:14:52Z</time><name>PT11102</name></trkpt>
<trkpt lat="52.959529" lon="05.991883"><ele>4.7</ele><time>2021-03-19T13:14:54Z</time><name>PT11103</name></trkpt>
<trkpt lat="52.959533" lon="05.991880"><ele>4.8</ele><time>2021-03-19T13:14:54Z</time><name>PT11104</name></trkpt>
<trkpt lat="52.959536" lon="05.991880"><ele>5</ele><time>2021-03-19T13:14:55Z</time><name>PT11105</name></trkpt>
<trkpt lat="52.959537" lon="05.991878"><ele>5.2</ele><time>2021-03-19T13:14:57Z</time><name>PT11106</name></trkpt>
<trkpt lat="52.959538" lon="05.991880"><ele>5</ele><time>2021-03-19T13:14:58Z</time><name>PT11107</name></trkpt>
<trkpt lat="52.959546" lon="05.991870"><ele>4.7</ele><time>2021-03-19T13:15:00Z</time><name>PT11108</name></trkpt>
<trkpt lat="52.959555" lon="05.991858"><ele>4.5</ele><time>2021-03-19T13:15:00Z</time><name>PT11109</name></trkpt>
<trkpt lat="52.959563" lon="05.991854"><ele>4.5</ele><time>2021-03-19T13:15:01Z</time><name>PT11110</name></trkpt>
<trkpt lat="52.959569" lon="05.991847"><ele>4.6</ele><time>2021-03-19T13:15:03Z</time><name>PT11111</name></trkpt>
<trkpt lat="52.959573" lon="05.991845"><ele>4.7</ele><time>2021-03-19T13:15:03Z</time><name>PT11112</name></trkpt>
<trkpt lat="52.959580" lon="05.991839"><ele>4.7</ele><time>2021-03-19T13:15:04Z</time><name>PT11113</name></trkpt>
<trkpt lat="52.959588" lon="05.991832"><ele>4.8</ele><time>2021-03-19T13:15:05Z</time><name>PT11114</name></trkpt>
<trkpt lat="52.959596" lon="05.991825"><ele>4.8</ele><time>2021-03-19T13:15:06Z</time><name>PT11115</name></trkpt>
<trkpt lat="52.959601" lon="05.991821"><ele>4.7</ele><time>2021-03-19T13:15:07Z</time><name>PT11116</name></trkpt>
<trkpt lat="52.959607" lon="05.991813"><ele>4.7</ele><time>2021-03-19T13:15:08Z</time><name>PT11117</name></trkpt>
<trkpt lat="52.959613" lon="05.991802"><ele>4.6</ele><time>2021-03-19T13:15:10Z</time><name>PT11118</name></trkpt>
<trkpt lat="52.959615" lon="05.991792"><ele>4.5</ele><time>2021-03-19T13:15:10Z</time><name>PT11119</name></trkpt>
<trkpt lat="52.959627" lon="05.991783"><ele>4.7</ele><time>2021-03-19T13:15:11Z</time><name>PT11120</name></trkpt>
<trkpt lat="52.959630" lon="05.991776"><ele>4.9</ele><time>2021-03-19T13:15:12Z</time><name>PT11121</name></trkpt>
<trkpt lat="52.959638" lon="05.991766"><ele>4.8</ele><time>2021-03-19T13:15:13Z</time><name>PT11122</name></trkpt>
<trkpt lat="52.959648" lon="05.991758"><ele>5</ele><time>2021-03-19T13:15:14Z</time><name>PT11123</name></trkpt>
<trkpt lat="52.959656" lon="05.991752"><ele>4.9</ele><time>2021-03-19T13:15:16Z</time><name>PT11124</name></trkpt>
<trkpt lat="52.959668" lon="05.991744"><ele>5</ele><time>2021-03-19T13:15:16Z</time><name>PT11125</name></trkpt>
<trkpt lat="52.959678" lon="05.991735"><ele>4.9</ele><time>2021-03-19T13:15:17Z</time><name>PT11126</name></trkpt>
<trkpt lat="52.959686" lon="05.991729"><ele>5</ele><time>2021-03-19T13:15:18Z</time><name>PT11127</name></trkpt>
<trkpt lat="52.959693" lon="05.991724"><ele>5</ele><time>2021-03-19T13:15:19Z</time><name>PT11128</name></trkpt>
<trkpt lat="52.959698" lon="05.991715"><ele>5</ele><time>2021-03-19T13:15:20Z</time><name>PT11129</name></trkpt>
<trkpt lat="52.959706" lon="05.991709"><ele>5</ele><time>2021-03-19T13:15:21Z</time><name>PT11130</name></trkpt>
<trkpt lat="52.959713" lon="05.991703"><ele>5</ele><time>2021-03-19T13:15:23Z</time><name>PT11131</name></trkpt>
<trkpt lat="52.959715" lon="05.991700"><ele>5</ele><time>2021-03-19T13:15:23Z</time><name>PT11132</name></trkpt>
<trkpt lat="52.959717" lon="05.991698"><ele>5</ele><time>2021-03-19T13:15:25Z</time><name>PT11133</name></trkpt>
<trkpt lat="52.959718" lon="05.991696"><ele>5</ele><time>2021-03-19T13:15:25Z</time><name>PT11134</name></trkpt>
<trkpt lat="52.959721" lon="05.991682"><ele>5.1</ele><time>2021-03-19T13:15:36Z</time><name>PT11135</name></trkpt>
<trkpt lat="52.959732" lon="05.991670"><ele>5.1</ele><time>2021-03-19T13:15:37Z</time><name>PT11136</name></trkpt>
<trkpt lat="52.959744" lon="05.991660"><ele>5</ele><time>2021-03-19T13:15:38Z</time><name>PT11137</name></trkpt>
<trkpt lat="52.959755" lon="05.991648"><ele>4.7</ele><time>2021-03-19T13:15:39Z</time><name>PT11138</name></trkpt>
<trkpt lat="52.959771" lon="05.991632"><ele>4.7</ele><time>2021-03-19T13:15:41Z</time><name>PT11139</name></trkpt>
<trkpt lat="52.959778" lon="05.991618"><ele>4.8</ele><time>2021-03-19T13:15:41Z</time><name>PT11140</name></trkpt>
<trkpt lat="52.959791" lon="05.991598"><ele>5</ele><time>2021-03-19T13:15:42Z</time><name>PT11141</name></trkpt>
<trkpt lat="52.959801" lon="05.991577"><ele>5.3</ele><time>2021-03-19T13:15:44Z</time><name>PT11142</name></trkpt>
<trkpt lat="52.959812" lon="05.991562"><ele>5.4</ele><time>2021-03-19T13:15:44Z</time><name>PT11143</name></trkpt>
<trkpt lat="52.959820" lon="05.991551"><ele>5.2</ele><time>2021-03-19T13:15:45Z</time><name>PT11144</name></trkpt>
<trkpt lat="52.959827" lon="05.991541"><ele>5.2</ele><time>2021-03-19T13:15:46Z</time><name>PT11145</name></trkpt>
<trkpt lat="52.959836" lon="05.991527"><ele>5.1</ele><time>2021-03-19T13:15:47Z</time><name>PT11146</name></trkpt>
<trkpt lat="52.959834" lon="05.991510"><ele>5</ele><time>2021-03-19T13:15:48Z</time><name>PT11147</name></trkpt>
<trkpt lat="52.959829" lon="05.991489"><ele>5</ele><time>2021-03-19T13:15:49Z</time><name>PT11148</name></trkpt>
<trkpt lat="52.959828" lon="05.991475"><ele>5</ele><time>2021-03-19T13:15:51Z</time><name>PT11149</name></trkpt>
<trkpt lat="52.959824" lon="05.991460"><ele>4.8</ele><time>2021-03-19T13:15:51Z</time><name>PT11150</name></trkpt>
<trkpt lat="52.959819" lon="05.991446"><ele>4.6</ele><time>2021-03-19T13:15:52Z</time><name>PT11151</name></trkpt>
<trkpt lat="52.959815" lon="05.991432"><ele>4.8</ele><time>2021-03-19T13:15:53Z</time><name>PT11152</name></trkpt>
<trkpt lat="52.959813" lon="05.991418"><ele>4.8</ele><time>2021-03-19T13:15:54Z</time><name>PT11153</name></trkpt>
<trkpt lat="52.959808" lon="05.991407"><ele>4.8</ele><time>2021-03-19T13:15:56Z</time><name>PT11154</name></trkpt>
<trkpt lat="52.959808" lon="05.991395"><ele>4.8</ele><time>2021-03-19T13:15:56Z</time><name>PT11155</name></trkpt>
<trkpt lat="52.959806" lon="05.991385"><ele>4.9</ele><time>2021-03-19T13:15:57Z</time><name>PT11156</name></trkpt>
<trkpt lat="52.959802" lon="05.991370"><ele>4.8</ele><time>2021-03-19T13:15:58Z</time><name>PT11157</name></trkpt>
<trkpt lat="52.959796" lon="05.991355"><ele>4.8</ele><time>2021-03-19T13:15:59Z</time><name>PT11158</name></trkpt>
<trkpt lat="52.959792" lon="05.991340"><ele>4.7</ele><time>2021-03-19T13:16:01Z</time><name>PT11159</name></trkpt>
<trkpt lat="52.959785" lon="05.991326"><ele>4.9</ele><time>2021-03-19T13:16:01Z</time><name>PT11160</name></trkpt>
<trkpt lat="52.959777" lon="05.991312"><ele>5.1</ele><time>2021-03-19T13:16:02Z</time><name>PT11161</name></trkpt>
<trkpt lat="52.959771" lon="05.991298"><ele>5.1</ele><time>2021-03-19T13:16:04Z</time><name>PT11162</name></trkpt>
<trkpt lat="52.959765" lon="05.991288"><ele>5.2</ele><time>2021-03-19T13:16:04Z</time><name>PT11163</name></trkpt>
<trkpt lat="52.959760" lon="05.991278"><ele>5.3</ele><time>2021-03-19T13:16:05Z</time><name>PT11164</name></trkpt>
<trkpt lat="52.959756" lon="05.991267"><ele>5.2</ele><time>2021-03-19T13:16:06Z</time><name>PT11165</name></trkpt>
<trkpt lat="52.959755" lon="05.991250"><ele>5</ele><time>2021-03-19T13:16:07Z</time><name>PT11166</name></trkpt>
<trkpt lat="52.959756" lon="05.991238"><ele>5</ele><time>2021-03-19T13:16:08Z</time><name>PT11167</name></trkpt>
<trkpt lat="52.959752" lon="05.991224"><ele>5</ele><time>2021-03-19T13:16:09Z</time><name>PT11168</name></trkpt>
<trkpt lat="52.959746" lon="05.991209"><ele>5</ele><time>2021-03-19T13:16:11Z</time><name>PT11169</name></trkpt>
<trkpt lat="52.959740" lon="05.991199"><ele>5.1</ele><time>2021-03-19T13:16:11Z</time><name>PT11170</name></trkpt>
<trkpt lat="52.959736" lon="05.991185"><ele>5.1</ele><time>2021-03-19T13:16:12Z</time><name>PT11171</name></trkpt>
<trkpt lat="52.959733" lon="05.991169"><ele>5</ele><time>2021-03-19T13:16:14Z</time><name>PT11172</name></trkpt>
<trkpt lat="52.959727" lon="05.991153"><ele>4.8</ele><time>2021-03-19T13:16:14Z</time><name>PT11173</name></trkpt>
<trkpt lat="52.959724" lon="05.991135"><ele>4.5</ele><time>2021-03-19T13:16:15Z</time><name>PT11174</name></trkpt>
<trkpt lat="52.959719" lon="05.991117"><ele>4.5</ele><time>2021-03-19T13:16:16Z</time><name>PT11175</name></trkpt>
<trkpt lat="52.959710" lon="05.991108"><ele>4.3</ele><time>2021-03-19T13:16:17Z</time><name>PT11176</name></trkpt>
<trkpt lat="52.959708" lon="05.991091"><ele>4.3</ele><time>2021-03-19T13:16:19Z</time><name>PT11177</name></trkpt>
<trkpt lat="52.959707" lon="05.991075"><ele>4.5</ele><time>2021-03-19T13:16:19Z</time><name>PT11178</name></trkpt>
<trkpt lat="52.959704" lon="05.991060"><ele>4.7</ele><time>2021-03-19T13:16:20Z</time><name>PT11179</name></trkpt>
<trkpt lat="52.959697" lon="05.991044"><ele>4.6</ele><time>2021-03-19T13:16:21Z</time><name>PT11180</name></trkpt>
<trkpt lat="52.959691" lon="05.991031"><ele>4.7</ele><time>2021-03-19T13:16:22Z</time><name>PT11181</name></trkpt>
<trkpt lat="52.959683" lon="05.991019"><ele>4.9</ele><time>2021-03-19T13:16:24Z</time><name>PT11182</name></trkpt>
<trkpt lat="52.959682" lon="05.991003"><ele>4.7</ele><time>2021-03-19T13:16:24Z</time><name>PT11183</name></trkpt>
<trkpt lat="52.959681" lon="05.990990"><ele>4.8</ele><time>2021-03-19T13:16:25Z</time><name>PT11184</name></trkpt>
<trkpt lat="52.959678" lon="05.990971"><ele>5</ele><time>2021-03-19T13:16:26Z</time><name>PT11185</name></trkpt>
<trkpt lat="52.959673" lon="05.990957"><ele>4.9</ele><time>2021-03-19T13:16:27Z</time><name>PT11186</name></trkpt>
<trkpt lat="52.959672" lon="05.990938"><ele>5</ele><time>2021-03-19T13:16:29Z</time><name>PT11187</name></trkpt>
<trkpt lat="52.959670" lon="05.990917"><ele>5</ele><time>2021-03-19T13:16:29Z</time><name>PT11188</name></trkpt>
<trkpt lat="52.959667" lon="05.990897"><ele>4.8</ele><time>2021-03-19T13:16:31Z</time><name>PT11189</name></trkpt>
<trkpt lat="52.959662" lon="05.990878"><ele>4.8</ele><time>2021-03-19T13:16:32Z</time><name>PT11190</name></trkpt>
<trkpt lat="52.959655" lon="05.990859"><ele>4.8</ele><time>2021-03-19T13:16:32Z</time><name>PT11191</name></trkpt>
<trkpt lat="52.959648" lon="05.990843"><ele>4.7</ele><time>2021-03-19T13:16:33Z</time><name>PT11192</name></trkpt>
<trkpt lat="52.959643" lon="05.990827"><ele>4.8</ele><time>2021-03-19T13:16:34Z</time><name>PT11193</name></trkpt>
<trkpt lat="52.959639" lon="05.990812"><ele>4.9</ele><time>2021-03-19T13:16:35Z</time><name>PT11194</name></trkpt>
<trkpt lat="52.959636" lon="05.990793"><ele>4.9</ele><time>2021-03-19T13:16:37Z</time><name>PT11195</name></trkpt>
<trkpt lat="52.959635" lon="05.990774"><ele>4.9</ele><time>2021-03-19T13:16:37Z</time><name>PT11196</name></trkpt>
<trkpt lat="52.959632" lon="05.990756"><ele>4.9</ele><time>2021-03-19T13:16:38Z</time><name>PT11197</name></trkpt>
<trkpt lat="52.959625" lon="05.990738"><ele>4.9</ele><time>2021-03-19T13:16:40Z</time><name>PT11198</name></trkpt>
<trkpt lat="52.959616" lon="05.990721"><ele>5</ele><time>2021-03-19T13:16:40Z</time><name>PT11199</name></trkpt>
<trkpt lat="52.959609" lon="05.990704"><ele>5</ele><time>2021-03-19T13:16:41Z</time><name>PT11200</name></trkpt>
<trkpt lat="52.959603" lon="05.990686"><ele>5</ele><time>2021-03-19T13:16:43Z</time><name>PT11201</name></trkpt>
<trkpt lat="52.959595" lon="05.990666"><ele>5</ele><time>2021-03-19T13:16:43Z</time><name>PT11202</name></trkpt>
<trkpt lat="52.959589" lon="05.990645"><ele>5</ele><time>2021-03-19T13:16:44Z</time><name>PT11203</name></trkpt>
<trkpt lat="52.959584" lon="05.990625"><ele>4.6</ele><time>2021-03-19T13:16:46Z</time><name>PT11204</name></trkpt>
<trkpt lat="52.959581" lon="05.990609"><ele>4.7</ele><time>2021-03-19T13:16:46Z</time><name>PT11205</name></trkpt>
<trkpt lat="52.959576" lon="05.990593"><ele>4.6</ele><time>2021-03-19T13:16:47Z</time><name>PT11206</name></trkpt>
<trkpt lat="52.959571" lon="05.990576"><ele>4.5</ele><time>2021-03-19T13:16:49Z</time><name>PT11207</name></trkpt>
<trkpt lat="52.959564" lon="05.990558"><ele>4.5</ele><time>2021-03-19T13:16:49Z</time><name>PT11208</name></trkpt>
<trkpt lat="52.959556" lon="05.990541"><ele>4.6</ele><time>2021-03-19T13:16:50Z</time><name>PT11209</name></trkpt>
<trkpt lat="52.959551" lon="05.990525"><ele>4.9</ele><time>2021-03-19T13:16:52Z</time><name>PT11210</name></trkpt>
<trkpt lat="52.959545" lon="05.990510"><ele>4.8</ele><time>2021-03-19T13:16:52Z</time><name>PT11211</name></trkpt>
<trkpt lat="52.959540" lon="05.990492"><ele>4.7</ele><time>2021-03-19T13:16:53Z</time><name>PT11212</name></trkpt>
<trkpt lat="52.959534" lon="05.990478"><ele>4.6</ele><time>2021-03-19T13:16:55Z</time><name>PT11213</name></trkpt>
<trkpt lat="52.959527" lon="05.990468"><ele>4.7</ele><time>2021-03-19T13:16:55Z</time><name>PT11214</name></trkpt>
<trkpt lat="52.959518" lon="05.990458"><ele>4.6</ele><time>2021-03-19T13:16:56Z</time><name>PT11215</name></trkpt>
<trkpt lat="52.959511" lon="05.990447"><ele>4.8</ele><time>2021-03-19T13:16:58Z</time><name>PT11216</name></trkpt>
<trkpt lat="52.959506" lon="05.990437"><ele>4.8</ele><time>2021-03-19T13:16:58Z</time><name>PT11217</name></trkpt>
<trkpt lat="52.959500" lon="05.990425"><ele>4.9</ele><time>2021-03-19T13:16:59Z</time><name>PT11218</name></trkpt>
<trkpt lat="52.959494" lon="05.990414"><ele>4.7</ele><time>2021-03-19T13:17:00Z</time><name>PT11219</name></trkpt>
<trkpt lat="52.959487" lon="05.990403"><ele>4.6</ele><time>2021-03-19T13:17:01Z</time><name>PT11220</name></trkpt>
<trkpt lat="52.959482" lon="05.990392"><ele>4.7</ele><time>2021-03-19T13:17:02Z</time><name>PT11221</name></trkpt>
<trkpt lat="52.959472" lon="05.990375"><ele>4.8</ele><time>2021-03-19T13:17:03Z</time><name>PT11222</name></trkpt>
<trkpt lat="52.959467" lon="05.990367"><ele>4.8</ele><time>2021-03-19T13:17:04Z</time><name>PT11223</name></trkpt>
<trkpt lat="52.959460" lon="05.990358"><ele>5</ele><time>2021-03-19T13:17:05Z</time><name>PT11224</name></trkpt>
<trkpt lat="52.959457" lon="05.990351"><ele>4.9</ele><time>2021-03-19T13:17:07Z</time><name>PT11225</name></trkpt>
<trkpt lat="52.959453" lon="05.990342"><ele>4.9</ele><time>2021-03-19T13:17:07Z</time><name>PT11226</name></trkpt>
<trkpt lat="52.959453" lon="05.990330"><ele>4.7</ele><time>2021-03-19T13:17:08Z</time><name>PT11227</name></trkpt>
<trkpt lat="52.959458" lon="05.990319"><ele>4.3</ele><time>2021-03-19T13:17:10Z</time><name>PT11228</name></trkpt>
<trkpt lat="52.959461" lon="05.990307"><ele>4.3</ele><time>2021-03-19T13:17:10Z</time><name>PT11229</name></trkpt>
<trkpt lat="52.959463" lon="05.990295"><ele>4.2</ele><time>2021-03-19T13:17:11Z</time><name>PT11230</name></trkpt>
<trkpt lat="52.959458" lon="05.990284"><ele>4.1</ele><time>2021-03-19T13:17:12Z</time><name>PT11231</name></trkpt>
<trkpt lat="52.959453" lon="05.990273"><ele>4.1</ele><time>2021-03-19T13:17:13Z</time><name>PT11232</name></trkpt>
<trkpt lat="52.959454" lon="05.990270"><ele>4.4</ele><time>2021-03-19T13:17:15Z</time><name>PT11233</name></trkpt>
<trkpt lat="52.959454" lon="05.990263"><ele>4.4</ele><time>2021-03-19T13:17:15Z</time><name>PT11234</name></trkpt>
<trkpt lat="52.959454" lon="05.990258"><ele>4.5</ele><time>2021-03-19T13:17:16Z</time><name>PT11235</name></trkpt>
<trkpt lat="52.959448" lon="05.990239"><ele>5</ele><time>2021-03-19T13:17:44Z</time><name>PT11236</name></trkpt>
<trkpt lat="52.959443" lon="05.990205"><ele>4.8</ele><time>2021-03-19T13:17:45Z</time><name>PT11237</name></trkpt>
<trkpt lat="52.959440" lon="05.990190"><ele>4.8</ele><time>2021-03-19T13:17:46Z</time><name>PT11238</name></trkpt>
<trkpt lat="52.959436" lon="05.990176"><ele>4.8</ele><time>2021-03-19T13:17:47Z</time><name>PT11239</name></trkpt>
<trkpt lat="52.959435" lon="05.990158"><ele>4.9</ele><time>2021-03-19T13:17:48Z</time><name>PT11240</name></trkpt>
<trkpt lat="52.959434" lon="05.990146"><ele>4.9</ele><time>2021-03-19T13:17:49Z</time><name>PT11241</name></trkpt>
<trkpt lat="52.959434" lon="05.990135"><ele>4.9</ele><time>2021-03-19T13:17:50Z</time><name>PT11242</name></trkpt>
<trkpt lat="52.959435" lon="05.990124"><ele>4.8</ele><time>2021-03-19T13:17:52Z</time><name>PT11243</name></trkpt>
<trkpt lat="52.959434" lon="05.990107"><ele>4.8</ele><time>2021-03-19T13:17:52Z</time><name>PT11244</name></trkpt>
<trkpt lat="52.959436" lon="05.990096"><ele>4.7</ele><time>2021-03-19T13:17:53Z</time><name>PT11245</name></trkpt>
<trkpt lat="52.959438" lon="05.990085"><ele>4.8</ele><time>2021-03-19T13:17:55Z</time><name>PT11246</name></trkpt>
<trkpt lat="52.959438" lon="05.990075"><ele>0</ele><time>2021-03-19T13:17:55Z</time><name>PT11247</name></trkpt>
<trkpt lat="52.959437" lon="05.990069"><ele>0</ele><time>2021-03-19T13:17:56Z</time><name>PT11248</name></trkpt>
<trkpt lat="52.959435" lon="05.990063"><ele>0.1</ele><time>2021-03-19T13:17:57Z</time><name>PT11249</name></trkpt>
<trkpt lat="52.959432" lon="05.990058"><ele>0</ele><time>2021-03-19T13:17:58Z</time><name>PT11250</name></trkpt>
<trkpt lat="52.959431" lon="05.990051"><ele>0</ele><time>2021-03-19T13:18:00Z</time><name>PT11251</name></trkpt>
<trkpt lat="52.959431" lon="05.990049"><ele>0.1</ele><time>2021-03-19T13:18:00Z</time><name>PT11252</name></trkpt>
<trkpt lat="52.959430" lon="05.990041"><ele>0</ele><time>2021-03-19T13:18:03Z</time><name>PT11253</name></trkpt>
<trkpt lat="52.959431" lon="05.990025"><ele>0.1</ele><time>2021-03-19T13:18:04Z</time><name>PT11254</name></trkpt>
<trkpt lat="52.959431" lon="05.990013"><ele>0.1</ele><time>2021-03-19T13:18:05Z</time><name>PT11255</name></trkpt>
<trkpt lat="52.959432" lon="05.990001"><ele>0</ele><time>2021-03-19T13:18:06Z</time><name>PT11256</name></trkpt>
<trkpt lat="52.959433" lon="05.989989"><ele>0.1</ele><time>2021-03-19T13:18:07Z</time><name>PT11257</name></trkpt>
<trkpt lat="52.959434" lon="05.989984"><ele>0.1</ele><time>2021-03-19T13:18:08Z</time><name>PT11258</name></trkpt>
<trkpt lat="52.959438" lon="05.989974"><ele>0.1</ele><time>2021-03-19T13:18:09Z</time><name>PT11259</name></trkpt>
<trkpt lat="52.959441" lon="05.989966"><ele>0</ele><time>2021-03-19T13:18:10Z</time><name>PT11260</name></trkpt>
<trkpt lat="52.959444" lon="05.989961"><ele>0.1</ele><time>2021-03-19T13:18:11Z</time><name>PT11261</name></trkpt>
<trkpt lat="52.959443" lon="05.989955"><ele>0</ele><time>2021-03-19T13:18:12Z</time><name>PT11262</name></trkpt>
<trkpt lat="52.959444" lon="05.989942"><ele>0.1</ele><time>2021-03-19T13:18:13Z</time><name>PT11263</name></trkpt>
<trkpt lat="52.959445" lon="05.989930"><ele>0.2</ele><time>2021-03-19T13:18:14Z</time><name>PT11264</name></trkpt>
<trkpt lat="52.959444" lon="05.989918"><ele>0.2</ele><time>2021-03-19T13:18:16Z</time><name>PT11265</name></trkpt>
<trkpt lat="52.959448" lon="05.989903"><ele>0</ele><time>2021-03-19T13:18:16Z</time><name>PT11266</name></trkpt>
<trkpt lat="52.959453" lon="05.989896"><ele>0.1</ele><time>2021-03-19T13:18:17Z</time><name>PT11267</name></trkpt>
<trkpt lat="52.959453" lon="05.989890"><ele>0.2</ele><time>2021-03-19T13:18:18Z</time><name>PT11268</name></trkpt>
<trkpt lat="52.959456" lon="05.989877"><ele>0.2</ele><time>2021-03-19T13:18:19Z</time><name>PT11269</name></trkpt>
<trkpt lat="52.959459" lon="05.989870"><ele>0.1</ele><time>2021-03-19T13:18:21Z</time><name>PT11270</name></trkpt>
<trkpt lat="52.959463" lon="05.989863"><ele>0</ele><time>2021-03-19T13:18:21Z</time><name>PT11271</name></trkpt>
<trkpt lat="52.959468" lon="05.989854"><ele>0.1</ele><time>2021-03-19T13:18:22Z</time><name>PT11272</name></trkpt>
<trkpt lat="52.959473" lon="05.989850"><ele>0.2</ele><time>2021-03-19T13:18:24Z</time><name>PT11273</name></trkpt>
<trkpt lat="52.959478" lon="05.989843"><ele>0.2</ele><time>2021-03-19T13:18:24Z</time><name>PT11274</name></trkpt>
<trkpt lat="52.959478" lon="05.989843"><ele>0.3</ele><time>2021-03-19T13:18:25Z</time><name>PT11275</name></trkpt>
<trkpt lat="52.959477" lon="05.989840"><ele>0.3</ele><time>2021-03-19T13:18:26Z</time><name>PT11276</name></trkpt>
<trkpt lat="52.959478" lon="05.989835"><ele>0.3</ele><time>2021-03-19T13:18:27Z</time><name>PT11277</name></trkpt>
<trkpt lat="52.959476" lon="05.989831"><ele>0.3</ele><time>2021-03-19T13:18:29Z</time><name>PT11278</name></trkpt>
<trkpt lat="52.959478" lon="05.989828"><ele>0.3</ele><time>2021-03-19T13:18:29Z</time><name>PT11279</name></trkpt>
<trkpt lat="52.959476" lon="05.989827"><ele>0.1</ele><time>2021-03-19T13:18:30Z</time><name>PT11280</name></trkpt>
<trkpt lat="52.959480" lon="05.989817"><ele>0.1</ele><time>2021-03-19T13:18:31Z</time><name>PT11281</name></trkpt>
<trkpt lat="52.959484" lon="05.989814"><ele>0</ele><time>2021-03-19T13:18:32Z</time><name>PT11282</name></trkpt>
<trkpt lat="52.959489" lon="05.989815"><ele>0.1</ele><time>2021-03-19T13:18:33Z</time><name>PT11283</name></trkpt>
<trkpt lat="52.959499" lon="05.989810"><ele>0</ele><time>2021-03-19T13:18:34Z</time><name>PT11284</name></trkpt>
<trkpt lat="52.959506" lon="05.989810"><ele>0</ele><time>2021-03-19T13:18:35Z</time><name>PT11285</name></trkpt>
<trkpt lat="52.959515" lon="05.989806"><ele>0.1</ele><time>2021-03-19T13:18:36Z</time><name>PT11286</name></trkpt>
<trkpt lat="52.959520" lon="05.989804"><ele>0</ele><time>2021-03-19T13:18:37Z</time><name>PT11287</name></trkpt>
<trkpt lat="52.959527" lon="05.989796"><ele>0</ele><time>2021-03-19T13:18:38Z</time><name>PT11288</name></trkpt>
<trkpt lat="52.959532" lon="05.989783"><ele>0</ele><time>2021-03-19T13:18:39Z</time><name>PT11289</name></trkpt>
<trkpt lat="52.959542" lon="05.989770"><ele>0.1</ele><time>2021-03-19T13:18:40Z</time><name>PT11290</name></trkpt>
<trkpt lat="52.959554" lon="05.989763"><ele>0.1</ele><time>2021-03-19T13:18:41Z</time><name>PT11291</name></trkpt>
<trkpt lat="52.959559" lon="05.989759"><ele>0.1</ele><time>2021-03-19T13:18:42Z</time><name>PT11292</name></trkpt>
<trkpt lat="52.959562" lon="05.989756"><ele>0.1</ele><time>2021-03-19T13:18:43Z</time><name>PT11293</name></trkpt>
<trkpt lat="52.959566" lon="05.989755"><ele>0.1</ele><time>2021-03-19T13:18:44Z</time><name>PT11294</name></trkpt>
<trkpt lat="52.959568" lon="05.989751"><ele>0.3</ele><time>2021-03-19T13:18:45Z</time><name>PT11295</name></trkpt>
<trkpt lat="52.959573" lon="05.989745"><ele>0.2</ele><time>2021-03-19T13:18:46Z</time><name>PT11296</name></trkpt>
<trkpt lat="52.959580" lon="05.989742"><ele>0.3</ele><time>2021-03-19T13:18:48Z</time><name>PT11297</name></trkpt>
<trkpt lat="52.959582" lon="05.989738"><ele>0.3</ele><time>2021-03-19T13:18:48Z</time><name>PT11298</name></trkpt>
<trkpt lat="52.959599" lon="05.989729"><ele>0.4</ele><time>2021-03-19T13:18:49Z</time><name>PT11299</name></trkpt>
<trkpt lat="52.959602" lon="05.989729"><ele>0.3</ele><time>2021-03-19T13:18:50Z</time><name>PT11300</name></trkpt>
<trkpt lat="52.959617" lon="05.989725"><ele>0.4</ele><time>2021-03-19T13:18:51Z</time><name>PT11301</name></trkpt>
<trkpt lat="52.959628" lon="05.989709"><ele>0.3</ele><time>2021-03-19T13:18:52Z</time><name>PT11302</name></trkpt>
<trkpt lat="52.959636" lon="05.989699"><ele>0.3</ele><time>2021-03-19T13:18:53Z</time><name>PT11303</name></trkpt>
<trkpt lat="52.959655" lon="05.989677"><ele>0.4</ele><time>2021-03-19T13:18:54Z</time><name>PT11304</name></trkpt>
<trkpt lat="52.959666" lon="05.989665"><ele>0.3</ele><time>2021-03-19T13:18:55Z</time><name>PT11305</name></trkpt>
<trkpt lat="52.959670" lon="05.989655"><ele>0.3</ele><time>2021-03-19T13:18:56Z</time><name>PT11306</name></trkpt>
<trkpt lat="52.959683" lon="05.989639"><ele>0.3</ele><time>2021-03-19T13:18:57Z</time><name>PT11307</name></trkpt>
<trkpt lat="52.959692" lon="05.989624"><ele>0</ele><time>2021-03-19T13:18:58Z</time><name>PT11308</name></trkpt>
<trkpt lat="52.959697" lon="05.989609"><ele>0</ele><time>2021-03-19T13:18:59Z</time><name>PT11309</name></trkpt>
<trkpt lat="52.959708" lon="05.989599"><ele>0</ele><time>2021-03-19T13:19:00Z</time><name>PT11310</name></trkpt>
<trkpt lat="52.959715" lon="05.989591"><ele>0.1</ele><time>2021-03-19T13:19:01Z</time><name>PT11311</name></trkpt>
<trkpt lat="52.959718" lon="05.989571"><ele>0.2</ele><time>2021-03-19T13:19:02Z</time><name>PT11312</name></trkpt>
<trkpt lat="52.959726" lon="05.989558"><ele>0.3</ele><time>2021-03-19T13:19:03Z</time><name>PT11313</name></trkpt>
<trkpt lat="52.959734" lon="05.989551"><ele>0.3</ele><time>2021-03-19T13:19:04Z</time><name>PT11314</name></trkpt>
<trkpt lat="52.959744" lon="05.989545"><ele>0.3</ele><time>2021-03-19T13:19:05Z</time><name>PT11315</name></trkpt>
<trkpt lat="52.959753" lon="05.989538"><ele>0.2</ele><time>2021-03-19T13:19:06Z</time><name>PT11316</name></trkpt>
<trkpt lat="52.959761" lon="05.989533"><ele>0.3</ele><time>2021-03-19T13:19:07Z</time><name>PT11317</name></trkpt>
<trkpt lat="52.959767" lon="05.989525"><ele>0.2</ele><time>2021-03-19T13:19:09Z</time><name>PT11318</name></trkpt>
<trkpt lat="52.959773" lon="05.989516"><ele>0.3</ele><time>2021-03-19T13:19:09Z</time><name>PT11319</name></trkpt>
<trkpt lat="52.959781" lon="05.989505"><ele>0.2</ele><time>2021-03-19T13:19:10Z</time><name>PT11320</name></trkpt>
<trkpt lat="52.959781" lon="05.989500"><ele>0.1</ele><time>2021-03-19T13:19:11Z</time><name>PT11321</name></trkpt>
<trkpt lat="52.959791" lon="05.989494"><ele>0.2</ele><time>2021-03-19T13:19:12Z</time><name>PT11322</name></trkpt>
<trkpt lat="52.959796" lon="05.989484"><ele>0.2</ele><time>2021-03-19T13:19:13Z</time><name>PT11323</name></trkpt>
<trkpt lat="52.959801" lon="05.989485"><ele>0</ele><time>2021-03-19T13:19:14Z</time><name>PT11324</name></trkpt>
<trkpt lat="52.959810" lon="05.989478"><ele>0</ele><time>2021-03-19T13:19:15Z</time><name>PT11325</name></trkpt>
<trkpt lat="52.959821" lon="05.989470"><ele>0.2</ele><time>2021-03-19T13:19:16Z</time><name>PT11326</name></trkpt>
<trkpt lat="52.959827" lon="05.989463"><ele>0</ele><time>2021-03-19T13:19:17Z</time><name>PT11327</name></trkpt>
<trkpt lat="52.959839" lon="05.989452"><ele>0.1</ele><time>2021-03-19T13:19:18Z</time><name>PT11328</name></trkpt>
<trkpt lat="52.959844" lon="05.989440"><ele>0.2</ele><time>2021-03-19T13:19:19Z</time><name>PT11329</name></trkpt>
<trkpt lat="52.959858" lon="05.989427"><ele>0.1</ele><time>2021-03-19T13:19:20Z</time><name>PT11330</name></trkpt>
<trkpt lat="52.959859" lon="05.989420"><ele>0</ele><time>2021-03-19T13:19:21Z</time><name>PT11331</name></trkpt>
<trkpt lat="52.959867" lon="05.989407"><ele>0</ele><time>2021-03-19T13:19:22Z</time><name>PT11332</name></trkpt>
<trkpt lat="52.959872" lon="05.989390"><ele>0</ele><time>2021-03-19T13:19:23Z</time><name>PT11333</name></trkpt>
<trkpt lat="52.959885" lon="05.989378"><ele>0</ele><time>2021-03-19T13:19:24Z</time><name>PT11334</name></trkpt>
<trkpt lat="52.959892" lon="05.989369"><ele>0.1</ele><time>2021-03-19T13:19:25Z</time><name>PT11335</name></trkpt>
<trkpt lat="52.959899" lon="05.989356"><ele>0.2</ele><time>2021-03-19T13:19:26Z</time><name>PT11336</name></trkpt>
<trkpt lat="52.959907" lon="05.989353"><ele>0.1</ele><time>2021-03-19T13:19:27Z</time><name>PT11337</name></trkpt>
<trkpt lat="52.959924" lon="05.989342"><ele>0</ele><time>2021-03-19T13:19:28Z</time><name>PT11338</name></trkpt>
<trkpt lat="52.959929" lon="05.989328"><ele>0.1</ele><time>2021-03-19T13:19:29Z</time><name>PT11339</name></trkpt>
<trkpt lat="52.959936" lon="05.989315"><ele>0.3</ele><time>2021-03-19T13:19:30Z</time><name>PT11340</name></trkpt>
<trkpt lat="52.959946" lon="05.989304"><ele>0.1</ele><time>2021-03-19T13:19:31Z</time><name>PT11341</name></trkpt>
<trkpt lat="52.959953" lon="05.989297"><ele>0.1</ele><time>2021-03-19T13:19:32Z</time><name>PT11342</name></trkpt>
<trkpt lat="52.959962" lon="05.989292"><ele>0</ele><time>2021-03-19T13:19:33Z</time><name>PT11343</name></trkpt>
<trkpt lat="52.959969" lon="05.989289"><ele>0.3</ele><time>2021-03-19T13:19:34Z</time><name>PT11344</name></trkpt>
<trkpt lat="52.959977" lon="05.989273"><ele>0.2</ele><time>2021-03-19T13:19:35Z</time><name>PT11345</name></trkpt>
<trkpt lat="52.959985" lon="05.989262"><ele>0.3</ele><time>2021-03-19T13:19:36Z</time><name>PT11346</name></trkpt>
<trkpt lat="52.959996" lon="05.989250"><ele>0.3</ele><time>2021-03-19T13:19:38Z</time><name>PT11347</name></trkpt>
<trkpt lat="52.960004" lon="05.989240"><ele>0.2</ele><time>2021-03-19T13:19:38Z</time><name>PT11348</name></trkpt>
<trkpt lat="52.960012" lon="05.989236"><ele>0.1</ele><time>2021-03-19T13:19:40Z</time><name>PT11349</name></trkpt>
<trkpt lat="52.960022" lon="05.989229"><ele>0.2</ele><time>2021-03-19T13:19:40Z</time><name>PT11350</name></trkpt>
<trkpt lat="52.960027" lon="05.989224"><ele>0.2</ele><time>2021-03-19T13:19:41Z</time><name>PT11351</name></trkpt>
<trkpt lat="52.960033" lon="05.989219"><ele>0.1</ele><time>2021-03-19T13:19:42Z</time><name>PT11352</name></trkpt>
<trkpt lat="52.960044" lon="05.989213"><ele>0</ele><time>2021-03-19T13:19:43Z</time><name>PT11353</name></trkpt>
<trkpt lat="52.960047" lon="05.989207"><ele>0</ele><time>2021-03-19T13:19:44Z</time><name>PT11354</name></trkpt>
<trkpt lat="52.960048" lon="05.989198"><ele>0</ele><time>2021-03-19T13:19:45Z</time><name>PT11355</name></trkpt>
<trkpt lat="52.960050" lon="05.989191"><ele>0.1</ele><time>2021-03-19T13:19:46Z</time><name>PT11356</name></trkpt>
<trkpt lat="52.960055" lon="05.989180"><ele>0.1</ele><time>2021-03-19T13:19:47Z</time><name>PT11357</name></trkpt>
<trkpt lat="52.960059" lon="05.989173"><ele>0</ele><time>2021-03-19T13:19:49Z</time><name>PT11358</name></trkpt>
<trkpt lat="52.960066" lon="05.989166"><ele>0</ele><time>2021-03-19T13:19:49Z</time><name>PT11359</name></trkpt>
<trkpt lat="52.960072" lon="05.989159"><ele>0</ele><time>2021-03-19T13:19:50Z</time><name>PT11360</name></trkpt>
<trkpt lat="52.960080" lon="05.989151"><ele>0</ele><time>2021-03-19T13:19:52Z</time><name>PT11361</name></trkpt>
<trkpt lat="52.960088" lon="05.989142"><ele>0.1</ele><time>2021-03-19T13:19:52Z</time><name>PT11362</name></trkpt>
<trkpt lat="52.960095" lon="05.989133"><ele>0.1</ele><time>2021-03-19T13:19:53Z</time><name>PT11363</name></trkpt>
<trkpt lat="52.960102" lon="05.989124"><ele>0.1</ele><time>2021-03-19T13:19:55Z</time><name>PT11364</name></trkpt>
<trkpt lat="52.960110" lon="05.989115"><ele>0.1</ele><time>2021-03-19T13:19:55Z</time><name>PT11365</name></trkpt>
<trkpt lat="52.960115" lon="05.989113"><ele>0.1</ele><time>2021-03-19T13:19:56Z</time><name>PT11366</name></trkpt>
<trkpt lat="52.960117" lon="05.989103"><ele>0.1</ele><time>2021-03-19T13:19:58Z</time><name>PT11367</name></trkpt>
<trkpt lat="52.960129" lon="05.989088"><ele>0.1</ele><time>2021-03-19T13:19:58Z</time><name>PT11368</name></trkpt>
<trkpt lat="52.960135" lon="05.989081"><ele>0</ele><time>2021-03-19T13:19:59Z</time><name>PT11369</name></trkpt>
<trkpt lat="52.960140" lon="05.989081"><ele>0</ele><time>2021-03-19T13:20:01Z</time><name>PT11370</name></trkpt>
<trkpt lat="52.960146" lon="05.989078"><ele>0.1</ele><time>2021-03-19T13:20:01Z</time><name>PT11371</name></trkpt>
<trkpt lat="52.960154" lon="05.989073"><ele>0.2</ele><time>2021-03-19T13:20:02Z</time><name>PT11372</name></trkpt>
<trkpt lat="52.960162" lon="05.989071"><ele>0.1</ele><time>2021-03-19T13:20:03Z</time><name>PT11373</name></trkpt>
<trkpt lat="52.960169" lon="05.989066"><ele>0</ele><time>2021-03-19T13:20:06Z</time><name>PT11374</name></trkpt>
<trkpt lat="52.960174" lon="05.989049"><ele>0.1</ele><time>2021-03-19T13:20:07Z</time><name>PT11375</name></trkpt>
<trkpt lat="52.960176" lon="05.989028"><ele>0.1</ele><time>2021-03-19T13:20:08Z</time><name>PT11376</name></trkpt>
<trkpt lat="52.960185" lon="05.989018"><ele>0.1</ele><time>2021-03-19T13:20:10Z</time><name>PT11377</name></trkpt>
<trkpt lat="52.960190" lon="05.989006"><ele>0</ele><time>2021-03-19T13:20:10Z</time><name>PT11378</name></trkpt>
<trkpt lat="52.960194" lon="05.988997"><ele>0</ele><time>2021-03-19T13:20:11Z</time><name>PT11379</name></trkpt>
<trkpt lat="52.960202" lon="05.988990"><ele>0</ele><time>2021-03-19T13:20:12Z</time><name>PT11380</name></trkpt>
<trkpt lat="52.960208" lon="05.988984"><ele>0</ele><time>2021-03-19T13:20:13Z</time><name>PT11381</name></trkpt>
<trkpt lat="52.960215" lon="05.988977"><ele>0.1</ele><time>2021-03-19T13:20:15Z</time><name>PT11382</name></trkpt>
<trkpt lat="52.960221" lon="05.988969"><ele>0.1</ele><time>2021-03-19T13:20:15Z</time><name>PT11383</name></trkpt>
<trkpt lat="52.960224" lon="05.988964"><ele>0.2</ele><time>2021-03-19T13:20:16Z</time><name>PT11384</name></trkpt>
<trkpt lat="52.960230" lon="05.988960"><ele>0.1</ele><time>2021-03-19T13:20:18Z</time><name>PT11385</name></trkpt>
<trkpt lat="52.960240" lon="05.988951"><ele>0.1</ele><time>2021-03-19T13:20:18Z</time><name>PT11386</name></trkpt>
<trkpt lat="52.960249" lon="05.988944"><ele>0</ele><time>2021-03-19T13:20:19Z</time><name>PT11387</name></trkpt>
<trkpt lat="52.960258" lon="05.988939"><ele>0.1</ele><time>2021-03-19T13:20:21Z</time><name>PT11388</name></trkpt>
<trkpt lat="52.960257" lon="05.988936"><ele>0.1</ele><time>2021-03-19T13:20:21Z</time><name>PT11389</name></trkpt>
<trkpt lat="52.960263" lon="05.988929"><ele>0.1</ele><time>2021-03-19T13:20:22Z</time><name>PT11390</name></trkpt>
<trkpt lat="52.960270" lon="05.988921"><ele>0.3</ele><time>2021-03-19T13:20:24Z</time><name>PT11391</name></trkpt>
<trkpt lat="52.960272" lon="05.988916"><ele>0.3</ele><time>2021-03-19T13:20:24Z</time><name>PT11392</name></trkpt>
<trkpt lat="52.960281" lon="05.988912"><ele>0.4</ele><time>2021-03-19T13:20:25Z</time><name>PT11393</name></trkpt>
<trkpt lat="52.960291" lon="05.988901"><ele>0.4</ele><time>2021-03-19T13:20:26Z</time><name>PT11394</name></trkpt>
<trkpt lat="52.960301" lon="05.988889"><ele>0.5</ele><time>2021-03-19T13:20:27Z</time><name>PT11395</name></trkpt>
<trkpt lat="52.960306" lon="05.988883"><ele>0.1</ele><time>2021-03-19T13:20:29Z</time><name>PT11396</name></trkpt>
<trkpt lat="52.960317" lon="05.988878"><ele>0</ele><time>2021-03-19T13:20:29Z</time><name>PT11397</name></trkpt>
<trkpt lat="52.960328" lon="05.988874"><ele>0</ele><time>2021-03-19T13:20:30Z</time><name>PT11398</name></trkpt>
<trkpt lat="52.960339" lon="05.988870"><ele>0.1</ele><time>2021-03-19T13:20:31Z</time><name>PT11399</name></trkpt>
<trkpt lat="52.960345" lon="05.988864"><ele>0</ele><time>2021-03-19T13:20:32Z</time><name>PT11400</name></trkpt>
<trkpt lat="52.960347" lon="05.988861"><ele>0</ele><time>2021-03-19T13:20:33Z</time><name>PT11401</name></trkpt>
<trkpt lat="52.960349" lon="05.988861"><ele>0.1</ele><time>2021-03-19T13:20:34Z</time><name>PT11402</name></trkpt>
<trkpt lat="52.960350" lon="05.988861"><ele>0</ele><time>2021-03-19T13:20:36Z</time><name>PT11403</name></trkpt>
<trkpt lat="52.960357" lon="05.988857"><ele>0.3</ele><time>2021-03-19T13:20:37Z</time><name>PT11404</name></trkpt>
<trkpt lat="52.960369" lon="05.988855"><ele>0.3</ele><time>2021-03-19T13:20:39Z</time><name>PT11405</name></trkpt>
<trkpt lat="52.960379" lon="05.988848"><ele>0.4</ele><time>2021-03-19T13:20:39Z</time><name>PT11406</name></trkpt>
<trkpt lat="52.960388" lon="05.988837"><ele>0.4</ele><time>2021-03-19T13:20:40Z</time><name>PT11407</name></trkpt>
<trkpt lat="52.960397" lon="05.988823"><ele>0.3</ele><time>2021-03-19T13:20:42Z</time><name>PT11408</name></trkpt>
<trkpt lat="52.960402" lon="05.988817"><ele>0.3</ele><time>2021-03-19T13:20:42Z</time><name>PT11409</name></trkpt>
<trkpt lat="52.960406" lon="05.988817"><ele>0.1</ele><time>2021-03-19T13:20:43Z</time><name>PT11410</name></trkpt>
<trkpt lat="52.960409" lon="05.988812"><ele>0.2</ele><time>2021-03-19T13:20:44Z</time><name>PT11411</name></trkpt>
<trkpt lat="52.960424" lon="05.988804"><ele>0.3</ele><time>2021-03-19T13:20:45Z</time><name>PT11412</name></trkpt>
<trkpt lat="52.960440" lon="05.988792"><ele>0.2</ele><time>2021-03-19T13:20:47Z</time><name>PT11413</name></trkpt>
<trkpt lat="52.960453" lon="05.988780"><ele>0.2</ele><time>2021-03-19T13:20:47Z</time><name>PT11414</name></trkpt>
<trkpt lat="52.960456" lon="05.988772"><ele>0.2</ele><time>2021-03-19T13:20:49Z</time><name>PT11415</name></trkpt>
<trkpt lat="52.960467" lon="05.988757"><ele>0.1</ele><time>2021-03-19T13:20:49Z</time><name>PT11416</name></trkpt>
<trkpt lat="52.960472" lon="05.988748"><ele>0</ele><time>2021-03-19T13:20:50Z</time><name>PT11417</name></trkpt>
<trkpt lat="52.960484" lon="05.988736"><ele>0</ele><time>2021-03-19T13:20:51Z</time><name>PT11418</name></trkpt>
<trkpt lat="52.960489" lon="05.988724"><ele>0</ele><time>2021-03-19T13:20:52Z</time><name>PT11419</name></trkpt>
<trkpt lat="52.960513" lon="05.988708"><ele>0</ele><time>2021-03-19T13:20:53Z</time><name>PT11420</name></trkpt>
<trkpt lat="52.960519" lon="05.988692"><ele>0.1</ele><time>2021-03-19T13:20:54Z</time><name>PT11421</name></trkpt>
<trkpt lat="52.960526" lon="05.988677"><ele>0.1</ele><time>2021-03-19T13:20:56Z</time><name>PT11422</name></trkpt>
<trkpt lat="52.960534" lon="05.988664"><ele>0.1</ele><time>2021-03-19T13:20:56Z</time><name>PT11423</name></trkpt>
<trkpt lat="52.960554" lon="05.988653"><ele>0.1</ele><time>2021-03-19T13:20:57Z</time><name>PT11424</name></trkpt>
<trkpt lat="52.960559" lon="05.988647"><ele>0.2</ele><time>2021-03-19T13:20:59Z</time><name>PT11425</name></trkpt>
<trkpt lat="52.960565" lon="05.988636"><ele>0.1</ele><time>2021-03-19T13:20:59Z</time><name>PT11426</name></trkpt>
<trkpt lat="52.960573" lon="05.988625"><ele>0</ele><time>2021-03-19T13:21:00Z</time><name>PT11427</name></trkpt>
<trkpt lat="52.960577" lon="05.988614"><ele>0.1</ele><time>2021-03-19T13:21:01Z</time><name>PT11428</name></trkpt>
<trkpt lat="52.960585" lon="05.988610"><ele>0</ele><time>2021-03-19T13:21:02Z</time><name>PT11429</name></trkpt>
<trkpt lat="52.960599" lon="05.988605"><ele>0</ele><time>2021-03-19T13:21:03Z</time><name>PT11430</name></trkpt>
<trkpt lat="52.960607" lon="05.988604"><ele>0</ele><time>2021-03-19T13:21:04Z</time><name>PT11431</name></trkpt>
<trkpt lat="52.960616" lon="05.988606"><ele>0.1</ele><time>2021-03-19T13:21:05Z</time><name>PT11432</name></trkpt>
<trkpt lat="52.960624" lon="05.988604"><ele>0.1</ele><time>2021-03-19T13:21:06Z</time><name>PT11433</name></trkpt>
<trkpt lat="52.960632" lon="05.988600"><ele>0.1</ele><time>2021-03-19T13:21:07Z</time><name>PT11434</name></trkpt>
<trkpt lat="52.960643" lon="05.988595"><ele>0.2</ele><time>2021-03-19T13:21:08Z</time><name>PT11435</name></trkpt>
<trkpt lat="52.960651" lon="05.988592"><ele>0.1</ele><time>2021-03-19T13:21:10Z</time><name>PT11436</name></trkpt>
<trkpt lat="52.960658" lon="05.988590"><ele>0</ele><time>2021-03-19T13:21:10Z</time><name>PT11437</name></trkpt>
<trkpt lat="52.960679" lon="05.988584"><ele>0</ele><time>2021-03-19T13:21:11Z</time><name>PT11438</name></trkpt>
<trkpt lat="52.960686" lon="05.988580"><ele>0</ele><time>2021-03-19T13:21:12Z</time><name>PT11439</name></trkpt>
<trkpt lat="52.960691" lon="05.988577"><ele>0.3</ele><time>2021-03-19T13:21:13Z</time><name>PT11440</name></trkpt>
<trkpt lat="52.960691" lon="05.988576"><ele>0.2</ele><time>2021-03-19T13:21:14Z</time><name>PT11441</name></trkpt>
<trkpt lat="52.960698" lon="05.988576"><ele>0.1</ele><time>2021-03-19T13:21:15Z</time><name>PT11442</name></trkpt>
<trkpt lat="52.960705" lon="05.988569"><ele>0.1</ele><time>2021-03-19T13:21:16Z</time><name>PT11443</name></trkpt>
<trkpt lat="52.960715" lon="05.988563"><ele>0.1</ele><time>2021-03-19T13:21:17Z</time><name>PT11444</name></trkpt>
<trkpt lat="52.960722" lon="05.988563"><ele>0</ele><time>2021-03-19T13:21:19Z</time><name>PT11445</name></trkpt>
<trkpt lat="52.960722" lon="05.988557"><ele>0.1</ele><time>2021-03-19T13:21:19Z</time><name>PT11446</name></trkpt>
<trkpt lat="52.960744" lon="05.988543"><ele>0.1</ele><time>2021-03-19T13:21:20Z</time><name>PT11447</name></trkpt>
<trkpt lat="52.960757" lon="05.988530"><ele>0.2</ele><time>2021-03-19T13:21:21Z</time><name>PT11448</name></trkpt>
<trkpt lat="52.960767" lon="05.988521"><ele>0.1</ele><time>2021-03-19T13:21:22Z</time><name>PT11449</name></trkpt>
<trkpt lat="52.960777" lon="05.988510"><ele>0.1</ele><time>2021-03-19T13:21:24Z</time><name>PT11450</name></trkpt>
<trkpt lat="52.960788" lon="05.988496"><ele>0</ele><time>2021-03-19T13:21:24Z</time><name>PT11451</name></trkpt>
<trkpt lat="52.960802" lon="05.988484"><ele>0</ele><time>2021-03-19T13:21:25Z</time><name>PT11452</name></trkpt>
<trkpt lat="52.960807" lon="05.988478"><ele>0</ele><time>2021-03-19T13:21:27Z</time><name>PT11453</name></trkpt>
<trkpt lat="52.960814" lon="05.988470"><ele>0</ele><time>2021-03-19T13:21:27Z</time><name>PT11454</name></trkpt>
<trkpt lat="52.960817" lon="05.988461"><ele>0</ele><time>2021-03-19T13:21:31Z</time><name>PT11455</name></trkpt>
<trkpt lat="52.960822" lon="05.988448"><ele>0</ele><time>2021-03-19T13:21:33Z</time><name>PT11456</name></trkpt>
<trkpt lat="52.960825" lon="05.988440"><ele>0</ele><time>2021-03-19T13:21:33Z</time><name>PT11457</name></trkpt>
<trkpt lat="52.960831" lon="05.988436"><ele>0</ele><time>2021-03-19T13:21:34Z</time><name>PT11458</name></trkpt>
<trkpt lat="52.960838" lon="05.988423"><ele>0</ele><time>2021-03-19T13:21:35Z</time><name>PT11459</name></trkpt>
<trkpt lat="52.960845" lon="05.988411"><ele>0</ele><time>2021-03-19T13:21:36Z</time><name>PT11460</name></trkpt>
<trkpt lat="52.960853" lon="05.988394"><ele>0.1</ele><time>2021-03-19T13:21:37Z</time><name>PT11461</name></trkpt>
<trkpt lat="52.960855" lon="05.988380"><ele>0</ele><time>2021-03-19T13:21:38Z</time><name>PT11462</name></trkpt>
<trkpt lat="52.960862" lon="05.988373"><ele>0.2</ele><time>2021-03-19T13:21:40Z</time><name>PT11463</name></trkpt>
<trkpt lat="52.960875" lon="05.988363"><ele>0.3</ele><time>2021-03-19T13:21:40Z</time><name>PT11464</name></trkpt>
<trkpt lat="52.960882" lon="05.988348"><ele>0.3</ele><time>2021-03-19T13:21:41Z</time><name>PT11465</name></trkpt>
<trkpt lat="52.960897" lon="05.988340"><ele>0.3</ele><time>2021-03-19T13:21:43Z</time><name>PT11466</name></trkpt>
<trkpt lat="52.960912" lon="05.988330"><ele>0.3</ele><time>2021-03-19T13:21:43Z</time><name>PT11467</name></trkpt>
<trkpt lat="52.960920" lon="05.988323"><ele>0.2</ele><time>2021-03-19T13:21:44Z</time><name>PT11468</name></trkpt>
<trkpt lat="52.960924" lon="05.988323"><ele>0.1</ele><time>2021-03-19T13:21:45Z</time><name>PT11469</name></trkpt>
<trkpt lat="52.960931" lon="05.988317"><ele>0</ele><time>2021-03-19T13:21:46Z</time><name>PT11470</name></trkpt>
<trkpt lat="52.960940" lon="05.988304"><ele>0.1</ele><time>2021-03-19T13:21:47Z</time><name>PT11471</name></trkpt>
<trkpt lat="52.960951" lon="05.988292"><ele>0.1</ele><time>2021-03-19T13:21:48Z</time><name>PT11472</name></trkpt>
<trkpt lat="52.960964" lon="05.988282"><ele>0.2</ele><time>2021-03-19T13:21:49Z</time><name>PT11473</name></trkpt>
<trkpt lat="52.960973" lon="05.988277"><ele>0</ele><time>2021-03-19T13:21:50Z</time><name>PT11474</name></trkpt>
<trkpt lat="52.960981" lon="05.988271"><ele>0.1</ele><time>2021-03-19T13:21:51Z</time><name>PT11475</name></trkpt>
<trkpt lat="52.960987" lon="05.988259"><ele>0.1</ele><time>2021-03-19T13:21:52Z</time><name>PT11476</name></trkpt>
<trkpt lat="52.960993" lon="05.988248"><ele>0.2</ele><time>2021-03-19T13:21:54Z</time><name>PT11477</name></trkpt>
<trkpt lat="52.961000" lon="05.988236"><ele>0.1</ele><time>2021-03-19T13:21:54Z</time><name>PT11478</name></trkpt>
<trkpt lat="52.961006" lon="05.988229"><ele>0.1</ele><time>2021-03-19T13:21:55Z</time><name>PT11479</name></trkpt>
<trkpt lat="52.961017" lon="05.988222"><ele>0</ele><time>2021-03-19T13:21:56Z</time><name>PT11480</name></trkpt>
<trkpt lat="52.961024" lon="05.988216"><ele>0</ele><time>2021-03-19T13:21:57Z</time><name>PT11481</name></trkpt>
<trkpt lat="52.961030" lon="05.988208"><ele>0</ele><time>2021-03-19T13:21:58Z</time><name>PT11482</name></trkpt>
<trkpt lat="52.961038" lon="05.988194"><ele>0</ele><time>2021-03-19T13:21:59Z</time><name>PT11483</name></trkpt>
<trkpt lat="52.961051" lon="05.988181"><ele>0</ele><time>2021-03-19T13:22:00Z</time><name>PT11484</name></trkpt>
<trkpt lat="52.961060" lon="05.988170"><ele>0</ele><time>2021-03-19T13:22:01Z</time><name>PT11485</name></trkpt>
<trkpt lat="52.961067" lon="05.988163"><ele>0</ele><time>2021-03-19T13:22:03Z</time><name>PT11486</name></trkpt>
<trkpt lat="52.961076" lon="05.988155"><ele>0</ele><time>2021-03-19T13:22:03Z</time><name>PT11487</name></trkpt>
<trkpt lat="52.961087" lon="05.988141"><ele>0</ele><time>2021-03-19T13:22:04Z</time><name>PT11488</name></trkpt>
<trkpt lat="52.961098" lon="05.988127"><ele>0</ele><time>2021-03-19T13:22:06Z</time><name>PT11489</name></trkpt>
<trkpt lat="52.961106" lon="05.988123"><ele>0</ele><time>2021-03-19T13:22:06Z</time><name>PT11490</name></trkpt>
<trkpt lat="52.961117" lon="05.988119"><ele>0.1</ele><time>2021-03-19T13:22:07Z</time><name>PT11491</name></trkpt>
<trkpt lat="52.961124" lon="05.988115"><ele>0.3</ele><time>2021-03-19T13:22:08Z</time><name>PT11492</name></trkpt>
<trkpt lat="52.961132" lon="05.988101"><ele>0.2</ele><time>2021-03-19T13:22:09Z</time><name>PT11493</name></trkpt>
<trkpt lat="52.961140" lon="05.988089"><ele>0.1</ele><time>2021-03-19T13:22:10Z</time><name>PT11494</name></trkpt>
<trkpt lat="52.961148" lon="05.988081"><ele>0</ele><time>2021-03-19T13:22:11Z</time><name>PT11495</name></trkpt>
<trkpt lat="52.961157" lon="05.988071"><ele>0.1</ele><time>2021-03-19T13:22:12Z</time><name>PT11496</name></trkpt>
<trkpt lat="52.961163" lon="05.988068"><ele>0</ele><time>2021-03-19T13:22:13Z</time><name>PT11497</name></trkpt>
<trkpt lat="52.961173" lon="05.988060"><ele>0</ele><time>2021-03-19T13:22:14Z</time><name>PT11498</name></trkpt>
<trkpt lat="52.961182" lon="05.988045"><ele>0.1</ele><time>2021-03-19T13:22:15Z</time><name>PT11499</name></trkpt>
<trkpt lat="52.961189" lon="05.988035"><ele>0</ele><time>2021-03-19T13:22:16Z</time><name>PT11500</name></trkpt>
<trkpt lat="52.961198" lon="05.988023"><ele>0</ele><time>2021-03-19T13:22:17Z</time><name>PT11501</name></trkpt>
<trkpt lat="52.961204" lon="05.988011"><ele>0</ele><time>2021-03-19T13:22:18Z</time><name>PT11502</name></trkpt>
<trkpt lat="52.961213" lon="05.987999"><ele>0</ele><time>2021-03-19T13:22:19Z</time><name>PT11503</name></trkpt>
<trkpt lat="52.961222" lon="05.988006"><ele>0</ele><time>2021-03-19T13:22:20Z</time><name>PT11504</name></trkpt>
<trkpt lat="52.961225" lon="05.988003"><ele>0.1</ele><time>2021-03-19T13:22:21Z</time><name>PT11505</name></trkpt>
<trkpt lat="52.961235" lon="05.987988"><ele>0.2</ele><time>2021-03-19T13:22:23Z</time><name>PT11506</name></trkpt>
<trkpt lat="52.961252" lon="05.987973"><ele>0.2</ele><time>2021-03-19T13:22:23Z</time><name>PT11507</name></trkpt>
<trkpt lat="52.961258" lon="05.987962"><ele>0.4</ele><time>2021-03-19T13:22:24Z</time><name>PT11508</name></trkpt>
<trkpt lat="52.961263" lon="05.987952"><ele>0.5</ele><time>2021-03-19T13:22:25Z</time><name>PT11509</name></trkpt>
<trkpt lat="52.961273" lon="05.987946"><ele>0.3</ele><time>2021-03-19T13:22:26Z</time><name>PT11510</name></trkpt>
<trkpt lat="52.961283" lon="05.987941"><ele>0.5</ele><time>2021-03-19T13:22:27Z</time><name>PT11511</name></trkpt>
<trkpt lat="52.961294" lon="05.987932"><ele>0.4</ele><time>2021-03-19T13:22:28Z</time><name>PT11512</name></trkpt>
<trkpt lat="52.961304" lon="05.987925"><ele>0.4</ele><time>2021-03-19T13:22:29Z</time><name>PT11513</name></trkpt>
<trkpt lat="52.961311" lon="05.987918"><ele>0.3</ele><time>2021-03-19T13:22:30Z</time><name>PT11514</name></trkpt>
<trkpt lat="52.961317" lon="05.987910"><ele>0.3</ele><time>2021-03-19T13:22:31Z</time><name>PT11515</name></trkpt>
<trkpt lat="52.961325" lon="05.987905"><ele>0.2</ele><time>2021-03-19T13:22:33Z</time><name>PT11516</name></trkpt>
<trkpt lat="52.961335" lon="05.987901"><ele>0.2</ele><time>2021-03-19T13:22:34Z</time><name>PT11517</name></trkpt>
<trkpt lat="52.961343" lon="05.987893"><ele>0.3</ele><time>2021-03-19T13:22:34Z</time><name>PT11518</name></trkpt>
<trkpt lat="52.961351" lon="05.987888"><ele>0.3</ele><time>2021-03-19T13:22:35Z</time><name>PT11519</name></trkpt>
<trkpt lat="52.961356" lon="05.987886"><ele>0.4</ele><time>2021-03-19T13:22:37Z</time><name>PT11520</name></trkpt>
<trkpt lat="52.961361" lon="05.987882"><ele>0.3</ele><time>2021-03-19T13:22:37Z</time><name>PT11521</name></trkpt>
<trkpt lat="52.961372" lon="05.987879"><ele>0.3</ele><time>2021-03-19T13:22:38Z</time><name>PT11522</name></trkpt>
<trkpt lat="52.961383" lon="05.987880"><ele>0</ele><time>2021-03-19T13:22:40Z</time><name>PT11523</name></trkpt>
<trkpt lat="52.961388" lon="05.987882"><ele>0.1</ele><time>2021-03-19T13:22:40Z</time><name>PT11524</name></trkpt>
<trkpt lat="52.961396" lon="05.987883"><ele>0.2</ele><time>2021-03-19T13:22:41Z</time><name>PT11525</name></trkpt>
<trkpt lat="52.961400" lon="05.987886"><ele>0.2</ele><time>2021-03-19T13:22:43Z</time><name>PT11526</name></trkpt>
<trkpt lat="52.961405" lon="05.987884"><ele>0.2</ele><time>2021-03-19T13:22:43Z</time><name>PT11527</name></trkpt>
<trkpt lat="52.961414" lon="05.987881"><ele>0.3</ele><time>2021-03-19T13:22:44Z</time><name>PT11528</name></trkpt>
<trkpt lat="52.961425" lon="05.987881"><ele>0.3</ele><time>2021-03-19T13:22:45Z</time><name>PT11529</name></trkpt>
<trkpt lat="52.961435" lon="05.987882"><ele>0.3</ele><time>2021-03-19T13:22:46Z</time><name>PT11530</name></trkpt>
<trkpt lat="52.961441" lon="05.987879"><ele>0.3</ele><time>2021-03-19T13:22:47Z</time><name>PT11531</name></trkpt>
<trkpt lat="52.961444" lon="05.987879"><ele>0.3</ele><time>2021-03-19T13:22:48Z</time><name>PT11532</name></trkpt>
<trkpt lat="52.961450" lon="05.987881"><ele>0.3</ele><time>2021-03-19T13:22:49Z</time><name>PT11533</name></trkpt>
<trkpt lat="52.961458" lon="05.987879"><ele>0.4</ele><time>2021-03-19T13:22:50Z</time><name>PT11534</name></trkpt>
<trkpt lat="52.961466" lon="05.987879"><ele>0.5</ele><time>2021-03-19T13:22:51Z</time><name>PT11535</name></trkpt>
<trkpt lat="52.961482" lon="05.987878"><ele>0.5</ele><time>2021-03-19T13:22:52Z</time><name>PT11536</name></trkpt>
<trkpt lat="52.961488" lon="05.987875"><ele>0.5</ele><time>2021-03-19T13:22:54Z</time><name>PT11537</name></trkpt>
<trkpt lat="52.961492" lon="05.987872"><ele>0.5</ele><time>2021-03-19T13:22:54Z</time><name>PT11538</name></trkpt>
<trkpt lat="52.961500" lon="05.987869"><ele>0.5</ele><time>2021-03-19T13:22:55Z</time><name>PT11539</name></trkpt>
<trkpt lat="52.961507" lon="05.987862"><ele>0.3</ele><time>2021-03-19T13:22:57Z</time><name>PT11540</name></trkpt>
<trkpt lat="52.961510" lon="05.987855"><ele>0.4</ele><time>2021-03-19T13:22:57Z</time><name>PT11541</name></trkpt>
<trkpt lat="52.961512" lon="05.987853"><ele>0.3</ele><time>2021-03-19T13:22:58Z</time><name>PT11542</name></trkpt>
<trkpt lat="52.961514" lon="05.987849"><ele>0.1</ele><time>2021-03-19T13:22:59Z</time><name>PT11543</name></trkpt>
<trkpt lat="52.961528" lon="05.987841"><ele>0.1</ele><time>2021-03-19T13:23:00Z</time><name>PT11544</name></trkpt>
<trkpt lat="52.961540" lon="05.987832"><ele>0.2</ele><time>2021-03-19T13:23:01Z</time><name>PT11545</name></trkpt>
<trkpt lat="52.961553" lon="05.987823"><ele>0.1</ele><time>2021-03-19T13:23:02Z</time><name>PT11546</name></trkpt>
<trkpt lat="52.961560" lon="05.987815"><ele>0.3</ele><time>2021-03-19T13:23:03Z</time><name>PT11547</name></trkpt>
<trkpt lat="52.961571" lon="05.987802"><ele>0.3</ele><time>2021-03-19T13:23:04Z</time><name>PT11548</name></trkpt>
<trkpt lat="52.961572" lon="05.987798"><ele>0.2</ele><time>2021-03-19T13:23:05Z</time><name>PT11549</name></trkpt>
<trkpt lat="52.961579" lon="05.987786"><ele>0.2</ele><time>2021-03-19T13:23:06Z</time><name>PT11550</name></trkpt>
<trkpt lat="52.961584" lon="05.987775"><ele>0.2</ele><time>2021-03-19T13:23:08Z</time><name>PT11551</name></trkpt>
<trkpt lat="52.961594" lon="05.987760"><ele>0.1</ele><time>2021-03-19T13:23:08Z</time><name>PT11552</name></trkpt>
<trkpt lat="52.961606" lon="05.987750"><ele>0</ele><time>2021-03-19T13:23:10Z</time><name>PT11553</name></trkpt>
<trkpt lat="52.961612" lon="05.987740"><ele>0</ele><time>2021-03-19T13:23:10Z</time><name>PT11554</name></trkpt>
<trkpt lat="52.961616" lon="05.987733"><ele>0.1</ele><time>2021-03-19T13:23:11Z</time><name>PT11555</name></trkpt>
<trkpt lat="52.961623" lon="05.987720"><ele>0</ele><time>2021-03-19T13:23:12Z</time><name>PT11556</name></trkpt>
<trkpt lat="52.961631" lon="05.987711"><ele>0</ele><time>2021-03-19T13:23:13Z</time><name>PT11557</name></trkpt>
<trkpt lat="52.961638" lon="05.987699"><ele>0</ele><time>2021-03-19T13:23:15Z</time><name>PT11558</name></trkpt>
<trkpt lat="52.961642" lon="05.987691"><ele>0</ele><time>2021-03-19T13:23:15Z</time><name>PT11559</name></trkpt>
<trkpt lat="52.961659" lon="05.987679"><ele>0.1</ele><time>2021-03-19T13:23:16Z</time><name>PT11560</name></trkpt>
<trkpt lat="52.961665" lon="05.987673"><ele>0.2</ele><time>2021-03-19T13:23:17Z</time><name>PT11561</name></trkpt>
<trkpt lat="52.961674" lon="05.987662"><ele>0.3</ele><time>2021-03-19T13:23:18Z</time><name>PT11562</name></trkpt>
<trkpt lat="52.961676" lon="05.987657"><ele>0.4</ele><time>2021-03-19T13:23:19Z</time><name>PT11563</name></trkpt>
<trkpt lat="52.961685" lon="05.987644"><ele>0.4</ele><time>2021-03-19T13:23:20Z</time><name>PT11564</name></trkpt>
<trkpt lat="52.961699" lon="05.987628"><ele>0.4</ele><time>2021-03-19T13:23:21Z</time><name>PT11565</name></trkpt>
<trkpt lat="52.961714" lon="05.987613"><ele>0.4</ele><time>2021-03-19T13:23:22Z</time><name>PT11566</name></trkpt>
<trkpt lat="52.961723" lon="05.987602"><ele>0.2</ele><time>2021-03-19T13:23:23Z</time><name>PT11567</name></trkpt>
<trkpt lat="52.961737" lon="05.987588"><ele>0.2</ele><time>2021-03-19T13:23:24Z</time><name>PT11568</name></trkpt>
<trkpt lat="52.961746" lon="05.987575"><ele>0.1</ele><time>2021-03-19T13:23:25Z</time><name>PT11569</name></trkpt>
<trkpt lat="52.961760" lon="05.987565"><ele>0</ele><time>2021-03-19T13:23:26Z</time><name>PT11570</name></trkpt>
<trkpt lat="52.961772" lon="05.987561"><ele>0.3</ele><time>2021-03-19T13:23:28Z</time><name>PT11571</name></trkpt>
<trkpt lat="52.961778" lon="05.987556"><ele>0.3</ele><time>2021-03-19T13:23:28Z</time><name>PT11572</name></trkpt>
<trkpt lat="52.961793" lon="05.987543"><ele>0.3</ele><time>2021-03-19T13:23:29Z</time><name>PT11573</name></trkpt>
<trkpt lat="52.961803" lon="05.987533"><ele>0.3</ele><time>2021-03-19T13:23:30Z</time><name>PT11574</name></trkpt>
<trkpt lat="52.961808" lon="05.987531"><ele>0.4</ele><time>2021-03-19T13:23:31Z</time><name>PT11575</name></trkpt>
<trkpt lat="52.961807" lon="05.987527"><ele>0.4</ele><time>2021-03-19T13:23:32Z</time><name>PT11576</name></trkpt>
<trkpt lat="52.961812" lon="05.987514"><ele>0.5</ele><time>2021-03-19T13:23:33Z</time><name>PT11577</name></trkpt>
<trkpt lat="52.961819" lon="05.987498"><ele>0.6</ele><time>2021-03-19T13:23:34Z</time><name>PT11578</name></trkpt>
<trkpt lat="52.961827" lon="05.987491"><ele>0.7</ele><time>2021-03-19T13:23:35Z</time><name>PT11579</name></trkpt>
<trkpt lat="52.961838" lon="05.987482"><ele>-1.1</ele><time>2021-03-19T13:23:36Z</time><name>PT11580</name></trkpt>
<trkpt lat="52.961846" lon="05.987474"><ele>-1.3</ele><time>2021-03-19T13:23:37Z</time><name>PT11581</name></trkpt>
<trkpt lat="52.961852" lon="05.987472"><ele>-1.3</ele><time>2021-03-19T13:23:39Z</time><name>PT11582</name></trkpt>
<trkpt lat="52.961859" lon="05.987464"><ele>-1.4</ele><time>2021-03-19T13:23:39Z</time><name>PT11583</name></trkpt>
<trkpt lat="52.961867" lon="05.987455"><ele>-1.2</ele><time>2021-03-19T13:23:40Z</time><name>PT11584</name></trkpt>
<trkpt lat="52.961874" lon="05.987449"><ele>-1.2</ele><time>2021-03-19T13:23:41Z</time><name>PT11585</name></trkpt>
<trkpt lat="52.961879" lon="05.987441"><ele>-1.1</ele><time>2021-03-19T13:23:42Z</time><name>PT11586</name></trkpt>
<trkpt lat="52.961890" lon="05.987431"><ele>-1.1</ele><time>2021-03-19T13:23:44Z</time><name>PT11587</name></trkpt>
<trkpt lat="52.961902" lon="05.987426"><ele>-1.1</ele><time>2021-03-19T13:23:44Z</time><name>PT11588</name></trkpt>
<trkpt lat="52.961916" lon="05.987418"><ele>-1.1</ele><time>2021-03-19T13:23:45Z</time><name>PT11589</name></trkpt>
<trkpt lat="52.961923" lon="05.987415"><ele>-1</ele><time>2021-03-19T13:23:46Z</time><name>PT11590</name></trkpt>
<trkpt lat="52.961932" lon="05.987409"><ele>0.8</ele><time>2021-03-19T13:23:47Z</time><name>PT11591</name></trkpt>
<trkpt lat="52.961938" lon="05.987400"><ele>-1</ele><time>2021-03-19T13:23:48Z</time><name>PT11592</name></trkpt>
<trkpt lat="52.961946" lon="05.987396"><ele>-1</ele><time>2021-03-19T13:23:49Z</time><name>PT11593</name></trkpt>
<trkpt lat="52.961953" lon="05.987390"><ele>-1.1</ele><time>2021-03-19T13:23:50Z</time><name>PT11594</name></trkpt>
<trkpt lat="52.961960" lon="05.987381"><ele>-1</ele><time>2021-03-19T13:23:51Z</time><name>PT11595</name></trkpt>
<trkpt lat="52.961972" lon="05.987368"><ele>-1</ele><time>2021-03-19T13:23:52Z</time><name>PT11596</name></trkpt>
<trkpt lat="52.961984" lon="05.987354"><ele>0.8</ele><time>2021-03-19T13:23:53Z</time><name>PT11597</name></trkpt>
<trkpt lat="52.961995" lon="05.987339"><ele>0.7</ele><time>2021-03-19T13:23:54Z</time><name>PT11598</name></trkpt>
<trkpt lat="52.962001" lon="05.987327"><ele>0.8</ele><time>2021-03-19T13:23:55Z</time><name>PT11599</name></trkpt>
<trkpt lat="52.962003" lon="05.987317"><ele>0.7</ele><time>2021-03-19T13:23:56Z</time><name>PT11600</name></trkpt>
<trkpt lat="52.962007" lon="05.987303"><ele>0.7</ele><time>2021-03-19T13:23:57Z</time><name>PT11601</name></trkpt>
<trkpt lat="52.962013" lon="05.987288"><ele>0.7</ele><time>2021-03-19T13:23:58Z</time><name>PT11602</name></trkpt>
<trkpt lat="52.962014" lon="05.987269"><ele>0.5</ele><time>2021-03-19T13:23:59Z</time><name>PT11603</name></trkpt>
<trkpt lat="52.962019" lon="05.987255"><ele>0.7</ele><time>2021-03-19T13:24:01Z</time><name>PT11604</name></trkpt>
<trkpt lat="52.962023" lon="05.987241"><ele>0.7</ele><time>2021-03-19T13:24:01Z</time><name>PT11605</name></trkpt>
<trkpt lat="52.962023" lon="05.987231"><ele>0.7</ele><time>2021-03-19T13:24:02Z</time><name>PT11606</name></trkpt>
<trkpt lat="52.962023" lon="05.987213"><ele>0.8</ele><time>2021-03-19T13:24:03Z</time><name>PT11607</name></trkpt>
<trkpt lat="52.962024" lon="05.987199"><ele>0.7</ele><time>2021-03-19T13:24:04Z</time><name>PT11608</name></trkpt>
<trkpt lat="52.962022" lon="05.987188"><ele>0.7</ele><time>2021-03-19T13:24:05Z</time><name>PT11609</name></trkpt>
<trkpt lat="52.962023" lon="05.987179"><ele>0.8</ele><time>2021-03-19T13:24:06Z</time><name>PT11610</name></trkpt>
<trkpt lat="52.962023" lon="05.987170"><ele>0.8</ele><time>2021-03-19T13:24:08Z</time><name>PT11611</name></trkpt>
<trkpt lat="52.962022" lon="05.987155"><ele>0.9</ele><time>2021-03-19T13:24:08Z</time><name>PT11612</name></trkpt>
<trkpt lat="52.962020" lon="05.987141"><ele>-1.1</ele><time>2021-03-19T13:24:09Z</time><name>PT11613</name></trkpt>
<trkpt lat="52.962022" lon="05.987128"><ele>-1.1</ele><time>2021-03-19T13:24:10Z</time><name>PT11614</name></trkpt>
<trkpt lat="52.962021" lon="05.987112"><ele>0.8</ele><time>2021-03-19T13:24:11Z</time><name>PT11615</name></trkpt>
<trkpt lat="52.962020" lon="05.987096"><ele>0.8</ele><time>2021-03-19T13:24:12Z</time><name>PT11616</name></trkpt>
<trkpt lat="52.962017" lon="05.987080"><ele>0.7</ele><time>2021-03-19T13:24:14Z</time><name>PT11617</name></trkpt>
<trkpt lat="52.962013" lon="05.987061"><ele>0.7</ele><time>2021-03-19T13:24:14Z</time><name>PT11618</name></trkpt>
<trkpt lat="52.962014" lon="05.987045"><ele>0.7</ele><time>2021-03-19T13:24:15Z</time><name>PT11619</name></trkpt>
<trkpt lat="52.962011" lon="05.987029"><ele>0.8</ele><time>2021-03-19T13:24:16Z</time><name>PT11620</name></trkpt>
<trkpt lat="52.962006" lon="05.987014"><ele>-1</ele><time>2021-03-19T13:24:17Z</time><name>PT11621</name></trkpt>
<trkpt lat="52.962002" lon="05.987006"><ele>-1.2</ele><time>2021-03-19T13:24:19Z</time><name>PT11622</name></trkpt>
<trkpt lat="52.961998" lon="05.986995"><ele>-1.2</ele><time>2021-03-19T13:24:19Z</time><name>PT11623</name></trkpt>
<trkpt lat="52.961993" lon="05.986981"><ele>-1.2</ele><time>2021-03-19T13:24:20Z</time><name>PT11624</name></trkpt>
<trkpt lat="52.961990" lon="05.986965"><ele>-1.1</ele><time>2021-03-19T13:24:21Z</time><name>PT11625</name></trkpt>
<trkpt lat="52.961992" lon="05.986952"><ele>-1.2</ele><time>2021-03-19T13:24:22Z</time><name>PT11626</name></trkpt>
<trkpt lat="52.961996" lon="05.986938"><ele>-1.2</ele><time>2021-03-19T13:24:23Z</time><name>PT11627</name></trkpt>
<trkpt lat="52.961994" lon="05.986926"><ele>-1.3</ele><time>2021-03-19T13:24:24Z</time><name>PT11628</name></trkpt>
<trkpt lat="52.961990" lon="05.986912"><ele>-1.4</ele><time>2021-03-19T13:24:25Z</time><name>PT11629</name></trkpt>
<trkpt lat="52.961986" lon="05.986904"><ele>-1.2</ele><time>2021-03-19T13:24:26Z</time><name>PT11630</name></trkpt>
<trkpt lat="52.961985" lon="05.986897"><ele>-1.3</ele><time>2021-03-19T13:24:27Z</time><name>PT11631</name></trkpt>
<trkpt lat="52.961984" lon="05.986883"><ele>-1.2</ele><time>2021-03-19T13:24:28Z</time><name>PT11632</name></trkpt>
<trkpt lat="52.961984" lon="05.986875"><ele>-1.2</ele><time>2021-03-19T13:24:29Z</time><name>PT11633</name></trkpt>
<trkpt lat="52.961980" lon="05.986864"><ele>-1.1</ele><time>2021-03-19T13:24:30Z</time><name>PT11634</name></trkpt>
<trkpt lat="52.961979" lon="05.986853"><ele>0.9</ele><time>2021-03-19T13:24:31Z</time><name>PT11635</name></trkpt>
<trkpt lat="52.961975" lon="05.986838"><ele>0.9</ele><time>2021-03-19T13:24:32Z</time><name>PT11636</name></trkpt>
<trkpt lat="52.961973" lon="05.986828"><ele>-1</ele><time>2021-03-19T13:24:34Z</time><name>PT11637</name></trkpt>
<trkpt lat="52.961971" lon="05.986817"><ele>0.7</ele><time>2021-03-19T13:24:34Z</time><name>PT11638</name></trkpt>
<trkpt lat="52.961964" lon="05.986799"><ele>0.8</ele><time>2021-03-19T13:24:35Z</time><name>PT11639</name></trkpt>
<trkpt lat="52.961954" lon="05.986779"><ele>0.7</ele><time>2021-03-19T13:24:36Z</time><name>PT11640</name></trkpt>
<trkpt lat="52.961946" lon="05.986763"><ele>0.7</ele><time>2021-03-19T13:24:37Z</time><name>PT11641</name></trkpt>
<trkpt lat="52.961940" lon="05.986754"><ele>0.7</ele><time>2021-03-19T13:24:38Z</time><name>PT11642</name></trkpt>
<trkpt lat="52.961938" lon="05.986746"><ele>0.9</ele><time>2021-03-19T13:24:39Z</time><name>PT11643</name></trkpt>
<trkpt lat="52.961934" lon="05.986730"><ele>0.9</ele><time>2021-03-19T13:24:40Z</time><name>PT11644</name></trkpt>
<trkpt lat="52.961934" lon="05.986715"><ele>-1</ele><time>2021-03-19T13:24:41Z</time><name>PT11645</name></trkpt>
<trkpt lat="52.961925" lon="05.986698"><ele>0.9</ele><time>2021-03-19T13:24:42Z</time><name>PT11646</name></trkpt>
<trkpt lat="52.961917" lon="05.986677"><ele>-1</ele><time>2021-03-19T13:24:43Z</time><name>PT11647</name></trkpt>
<trkpt lat="52.961913" lon="05.986662"><ele>-1</ele><time>2021-03-19T13:24:44Z</time><name>PT11648</name></trkpt>
<trkpt lat="52.961908" lon="05.986647"><ele>0.9</ele><time>2021-03-19T13:24:45Z</time><name>PT11649</name></trkpt>
<trkpt lat="52.961906" lon="05.986636"><ele>-1.1</ele><time>2021-03-19T13:24:46Z</time><name>PT11650</name></trkpt>
<trkpt lat="52.961894" lon="05.986622"><ele>-1.1</ele><time>2021-03-19T13:24:47Z</time><name>PT11651</name></trkpt>
<trkpt lat="52.961887" lon="05.986609"><ele>-1.2</ele><time>2021-03-19T13:24:48Z</time><name>PT11652</name></trkpt>
<trkpt lat="52.961885" lon="05.986599"><ele>-1.2</ele><time>2021-03-19T13:24:49Z</time><name>PT11653</name></trkpt>
<trkpt lat="52.961880" lon="05.986586"><ele>-1</ele><time>2021-03-19T13:24:50Z</time><name>PT11654</name></trkpt>
<trkpt lat="52.961877" lon="05.986574"><ele>0.9</ele><time>2021-03-19T13:24:51Z</time><name>PT11655</name></trkpt>
<trkpt lat="52.961875" lon="05.986567"><ele>0.8</ele><time>2021-03-19T13:24:52Z</time><name>PT11656</name></trkpt>
<trkpt lat="52.961865" lon="05.986557"><ele>0.8</ele><time>2021-03-19T13:24:53Z</time><name>PT11657</name></trkpt>
<trkpt lat="52.961862" lon="05.986543"><ele>0.9</ele><time>2021-03-19T13:24:54Z</time><name>PT11658</name></trkpt>
<trkpt lat="52.961859" lon="05.986538"><ele>0.9</ele><time>2021-03-19T13:24:55Z</time><name>PT11659</name></trkpt>
<trkpt lat="52.961864" lon="05.986534"><ele>0.9</ele><time>2021-03-19T13:24:56Z</time><name>PT11660</name></trkpt>
<trkpt lat="52.961862" lon="05.986527"><ele>0.9</ele><time>2021-03-19T13:24:57Z</time><name>PT11661</name></trkpt>
<trkpt lat="52.961867" lon="05.986521"><ele>-1</ele><time>2021-03-19T13:24:58Z</time><name>PT11662</name></trkpt>
<trkpt lat="52.961870" lon="05.986513"><ele>-1.1</ele><time>2021-03-19T13:24:59Z</time><name>PT11663</name></trkpt>
<trkpt lat="52.961869" lon="05.986496"><ele>-1.2</ele><time>2021-03-19T13:25:01Z</time><name>PT11664</name></trkpt>
<trkpt lat="52.961866" lon="05.986475"><ele>-1.1</ele><time>2021-03-19T13:25:01Z</time><name>PT11665</name></trkpt>
<trkpt lat="52.961861" lon="05.986459"><ele>-1.2</ele><time>2021-03-19T13:25:02Z</time><name>PT11666</name></trkpt>
<trkpt lat="52.961855" lon="05.986444"><ele>-1.2</ele><time>2021-03-19T13:25:04Z</time><name>PT11667</name></trkpt>
<trkpt lat="52.961852" lon="05.986433"><ele>-1.1</ele><time>2021-03-19T13:25:04Z</time><name>PT11668</name></trkpt>
<trkpt lat="52.961850" lon="05.986423"><ele>-1.2</ele><time>2021-03-19T13:25:05Z</time><name>PT11669</name></trkpt>
<trkpt lat="52.961849" lon="05.986416"><ele>-1.2</ele><time>2021-03-19T13:25:06Z</time><name>PT11670</name></trkpt>
<trkpt lat="52.961849" lon="05.986406"><ele>-1</ele><time>2021-03-19T13:25:07Z</time><name>PT11671</name></trkpt>
<trkpt lat="52.961850" lon="05.986391"><ele>-1</ele><time>2021-03-19T13:25:08Z</time><name>PT11672</name></trkpt>
<trkpt lat="52.961850" lon="05.986374"><ele>0.9</ele><time>2021-03-19T13:25:09Z</time><name>PT11673</name></trkpt>
<trkpt lat="52.961850" lon="05.986360"><ele>-1</ele><time>2021-03-19T13:25:11Z</time><name>PT11674</name></trkpt>
<trkpt lat="52.961850" lon="05.986343"><ele>0.9</ele><time>2021-03-19T13:25:11Z</time><name>PT11675</name></trkpt>
<trkpt lat="52.961853" lon="05.986328"><ele>-1</ele><time>2021-03-19T13:25:12Z</time><name>PT11676</name></trkpt>
<trkpt lat="52.961856" lon="05.986306"><ele>0.8</ele><time>2021-03-19T13:25:14Z</time><name>PT11677</name></trkpt>
<trkpt lat="52.961856" lon="05.986284"><ele>0.7</ele><time>2021-03-19T13:25:14Z</time><name>PT11678</name></trkpt>
<trkpt lat="52.961858" lon="05.986267"><ele>0.5</ele><time>2021-03-19T13:25:15Z</time><name>PT11679</name></trkpt>
<trkpt lat="52.961859" lon="05.986248"><ele>0.4</ele><time>2021-03-19T13:25:16Z</time><name>PT11680</name></trkpt>
<trkpt lat="52.961858" lon="05.986233"><ele>0</ele><time>2021-03-19T13:25:17Z</time><name>PT11681</name></trkpt>
<trkpt lat="52.961855" lon="05.986216"><ele>0</ele><time>2021-03-19T13:25:18Z</time><name>PT11682</name></trkpt>
<trkpt lat="52.961855" lon="05.986195"><ele>0.1</ele><time>2021-03-19T13:25:19Z</time><name>PT11683</name></trkpt>
<trkpt lat="52.961857" lon="05.986169"><ele>0</ele><time>2021-03-19T13:25:20Z</time><name>PT11684</name></trkpt>
<trkpt lat="52.961853" lon="05.986143"><ele>0.1</ele><time>2021-03-19T13:25:21Z</time><name>PT11685</name></trkpt>
<trkpt lat="52.961849" lon="05.986122"><ele>0</ele><time>2021-03-19T13:25:23Z</time><name>PT11686</name></trkpt>
<trkpt lat="52.961844" lon="05.986101"><ele>0.1</ele><time>2021-03-19T13:25:23Z</time><name>PT11687</name></trkpt>
<trkpt lat="52.961843" lon="05.986079"><ele>0.1</ele><time>2021-03-19T13:25:24Z</time><name>PT11688</name></trkpt>
<trkpt lat="52.961842" lon="05.986060"><ele>0.4</ele><time>2021-03-19T13:25:25Z</time><name>PT11689</name></trkpt>
<trkpt lat="52.961841" lon="05.986042"><ele>0.6</ele><time>2021-03-19T13:25:26Z</time><name>PT11690</name></trkpt>
<trkpt lat="52.961839" lon="05.986031"><ele>0.6</ele><time>2021-03-19T13:25:27Z</time><name>PT11691</name></trkpt>
<trkpt lat="52.961838" lon="05.986028"><ele>0.9</ele><time>2021-03-19T13:25:28Z</time><name>PT11692</name></trkpt>
<trkpt lat="52.961836" lon="05.986021"><ele>1</ele><time>2021-03-19T13:25:29Z</time><name>PT11693</name></trkpt>
<trkpt lat="52.961829" lon="05.985997"><ele>1.2</ele><time>2021-03-19T13:25:37Z</time><name>PT11694</name></trkpt>
<trkpt lat="52.961825" lon="05.985974"><ele>1.2</ele><time>2021-03-19T13:25:38Z</time><name>PT11695</name></trkpt>
<trkpt lat="52.961820" lon="05.985950"><ele>1.2</ele><time>2021-03-19T13:25:39Z</time><name>PT11696</name></trkpt>
<trkpt lat="52.961816" lon="05.985931"><ele>1</ele><time>2021-03-19T13:25:40Z</time><name>PT11697</name></trkpt>
<trkpt lat="52.961812" lon="05.985914"><ele>0.7</ele><time>2021-03-19T13:25:41Z</time><name>PT11698</name></trkpt>
<trkpt lat="52.961812" lon="05.985896"><ele>0.7</ele><time>2021-03-19T13:25:42Z</time><name>PT11699</name></trkpt>
<trkpt lat="52.961812" lon="05.985879"><ele>0.5</ele><time>2021-03-19T13:25:43Z</time><name>PT11700</name></trkpt>
<trkpt lat="52.961811" lon="05.985864"><ele>0.7</ele><time>2021-03-19T13:25:45Z</time><name>PT11701</name></trkpt>
<trkpt lat="52.961809" lon="05.985853"><ele>1</ele><time>2021-03-19T13:25:45Z</time><name>PT11702</name></trkpt>
<trkpt lat="52.961813" lon="05.985845"><ele>1.1</ele><time>2021-03-19T13:25:46Z</time><name>PT11703</name></trkpt>
<trkpt lat="52.961815" lon="05.985840"><ele>1</ele><time>2021-03-19T13:25:47Z</time><name>PT11704</name></trkpt>
<trkpt lat="52.961818" lon="05.985834"><ele>0.6</ele><time>2021-03-19T13:25:48Z</time><name>PT11705</name></trkpt>
<trkpt lat="52.961823" lon="05.985826"><ele>0.1</ele><time>2021-03-19T13:25:50Z</time><name>PT11706</name></trkpt>
<trkpt lat="52.961831" lon="05.985818"><ele>0.4</ele><time>2021-03-19T13:25:50Z</time><name>PT11707</name></trkpt>
<trkpt lat="52.961835" lon="05.985812"><ele>0.7</ele><time>2021-03-19T13:25:51Z</time><name>PT11708</name></trkpt>
<trkpt lat="52.961841" lon="05.985806"><ele>-1</ele><time>2021-03-19T13:25:53Z</time><name>PT11709</name></trkpt>
<trkpt lat="52.961847" lon="05.985802"><ele>-1</ele><time>2021-03-19T13:25:53Z</time><name>PT11710</name></trkpt>
<trkpt lat="52.961855" lon="05.985798"><ele>-1.1</ele><time>2021-03-19T13:25:54Z</time><name>PT11711</name></trkpt>
<trkpt lat="52.961861" lon="05.985795"><ele>-1.2</ele><time>2021-03-19T13:25:55Z</time><name>PT11712</name></trkpt>
<trkpt lat="52.961868" lon="05.985789"><ele>-1.1</ele><time>2021-03-19T13:25:56Z</time><name>PT11713</name></trkpt>
<trkpt lat="52.961875" lon="05.985784"><ele>0.9</ele><time>2021-03-19T13:25:58Z</time><name>PT11714</name></trkpt>
<trkpt lat="52.961883" lon="05.985778"><ele>-1</ele><time>2021-03-19T13:25:58Z</time><name>PT11715</name></trkpt>
<trkpt lat="52.961892" lon="05.985773"><ele>0.9</ele><time>2021-03-19T13:25:59Z</time><name>PT11716</name></trkpt>
<trkpt lat="52.961897" lon="05.985769"><ele>0.9</ele><time>2021-03-19T13:26:00Z</time><name>PT11717</name></trkpt>
<trkpt lat="52.961904" lon="05.985766"><ele>-1.2</ele><time>2021-03-19T13:26:02Z</time><name>PT11718</name></trkpt>
<trkpt lat="52.961911" lon="05.985759"><ele>-1.1</ele><time>2021-03-19T13:26:03Z</time><name>PT11719</name></trkpt>
<trkpt lat="52.961918" lon="05.985750"><ele>-1.1</ele><time>2021-03-19T13:26:03Z</time><name>PT11720</name></trkpt>
<trkpt lat="52.961924" lon="05.985741"><ele>-1.1</ele><time>2021-03-19T13:26:04Z</time><name>PT11721</name></trkpt>
<trkpt lat="52.961931" lon="05.985732"><ele>0.9</ele><time>2021-03-19T13:26:06Z</time><name>PT11722</name></trkpt>
<trkpt lat="52.961940" lon="05.985725"><ele>0.9</ele><time>2021-03-19T13:26:06Z</time><name>PT11723</name></trkpt>
<trkpt lat="52.961948" lon="05.985718"><ele>0.7</ele><time>2021-03-19T13:26:07Z</time><name>PT11724</name></trkpt>
<trkpt lat="52.961958" lon="05.985709"><ele>0.3</ele><time>2021-03-19T13:26:09Z</time><name>PT11725</name></trkpt>
<trkpt lat="52.961965" lon="05.985700"><ele>0.3</ele><time>2021-03-19T13:26:09Z</time><name>PT11726</name></trkpt>
<trkpt lat="52.961968" lon="05.985690"><ele>0.2</ele><time>2021-03-19T13:26:10Z</time><name>PT11727</name></trkpt>
<trkpt lat="52.961975" lon="05.985686"><ele>0.2</ele><time>2021-03-19T13:26:11Z</time><name>PT11728</name></trkpt>
<trkpt lat="52.961980" lon="05.985682"><ele>0.5</ele><time>2021-03-19T13:26:12Z</time><name>PT11729</name></trkpt>
<trkpt lat="52.961987" lon="05.985679"><ele>0.6</ele><time>2021-03-19T13:26:14Z</time><name>PT11730</name></trkpt>
<trkpt lat="52.961994" lon="05.985673"><ele>0.7</ele><time>2021-03-19T13:26:14Z</time><name>PT11731</name></trkpt>
<trkpt lat="52.962004" lon="05.985663"><ele>0.8</ele><time>2021-03-19T13:26:15Z</time><name>PT11732</name></trkpt>
<trkpt lat="52.962009" lon="05.985653"><ele>0.7</ele><time>2021-03-19T13:26:16Z</time><name>PT11733</name></trkpt>
<trkpt lat="52.962015" lon="05.985640"><ele>0.7</ele><time>2021-03-19T13:26:17Z</time><name>PT11734</name></trkpt>
<trkpt lat="52.962020" lon="05.985629"><ele>0.6</ele><time>2021-03-19T13:26:19Z</time><name>PT11735</name></trkpt>
<trkpt lat="52.962030" lon="05.985616"><ele>0.6</ele><time>2021-03-19T13:26:19Z</time><name>PT11736</name></trkpt>
<trkpt lat="52.962037" lon="05.985605"><ele>0.6</ele><time>2021-03-19T13:26:20Z</time><name>PT11737</name></trkpt>
<trkpt lat="52.962046" lon="05.985597"><ele>0.9</ele><time>2021-03-19T13:26:22Z</time><name>PT11738</name></trkpt>
<trkpt lat="52.962056" lon="05.985590"><ele>0.9</ele><time>2021-03-19T13:26:22Z</time><name>PT11739</name></trkpt>
<trkpt lat="52.962068" lon="05.985584"><ele>-1.1</ele><time>2021-03-19T13:26:23Z</time><name>PT11740</name></trkpt>
<trkpt lat="52.962079" lon="05.985576"><ele>-1.2</ele><time>2021-03-19T13:26:25Z</time><name>PT11741</name></trkpt>
<trkpt lat="52.962089" lon="05.985564"><ele>-1.1</ele><time>2021-03-19T13:26:25Z</time><name>PT11742</name></trkpt>
<trkpt lat="52.962099" lon="05.985553"><ele>-1.2</ele><time>2021-03-19T13:26:26Z</time><name>PT11743</name></trkpt>
<trkpt lat="52.962110" lon="05.985544"><ele>0.9</ele><time>2021-03-19T13:26:28Z</time><name>PT11744</name></trkpt>
<trkpt lat="52.962120" lon="05.985536"><ele>0.7</ele><time>2021-03-19T13:26:28Z</time><name>PT11745</name></trkpt>
<trkpt lat="52.962127" lon="05.985533"><ele>0.7</ele><time>2021-03-19T13:26:29Z</time><name>PT11746</name></trkpt>
<trkpt lat="52.962136" lon="05.985525"><ele>0.6</ele><time>2021-03-19T13:26:31Z</time><name>PT11747</name></trkpt>
<trkpt lat="52.962146" lon="05.985515"><ele>0.7</ele><time>2021-03-19T13:26:31Z</time><name>PT11748</name></trkpt>
<trkpt lat="52.962155" lon="05.985507"><ele>0.7</ele><time>2021-03-19T13:26:32Z</time><name>PT11749</name></trkpt>
<trkpt lat="52.962166" lon="05.985499"><ele>0.6</ele><time>2021-03-19T13:26:33Z</time><name>PT11750</name></trkpt>
<trkpt lat="52.962176" lon="05.985491"><ele>0.4</ele><time>2021-03-19T13:26:34Z</time><name>PT11751</name></trkpt>
<trkpt lat="52.962188" lon="05.985482"><ele>0.3</ele><time>2021-03-19T13:26:36Z</time><name>PT11752</name></trkpt>
<trkpt lat="52.962196" lon="05.985471"><ele>0.3</ele><time>2021-03-19T13:26:36Z</time><name>PT11753</name></trkpt>
<trkpt lat="52.962204" lon="05.985458"><ele>0.1</ele><time>2021-03-19T13:26:37Z</time><name>PT11754</name></trkpt>
<trkpt lat="52.962213" lon="05.985447"><ele>0.3</ele><time>2021-03-19T13:26:38Z</time><name>PT11755</name></trkpt>
<trkpt lat="52.962221" lon="05.985437"><ele>0.3</ele><time>2021-03-19T13:26:39Z</time><name>PT11756</name></trkpt>
<trkpt lat="52.962230" lon="05.985429"><ele>0.4</ele><time>2021-03-19T13:26:40Z</time><name>PT11757</name></trkpt>
<trkpt lat="52.962234" lon="05.985425"><ele>0.3</ele><time>2021-03-19T13:26:41Z</time><name>PT11758</name></trkpt>
<trkpt lat="52.962243" lon="05.985418"><ele>0.2</ele><time>2021-03-19T13:26:43Z</time><name>PT11759</name></trkpt>
<trkpt lat="52.962252" lon="05.985409"><ele>0</ele><time>2021-03-19T13:26:43Z</time><name>PT11760</name></trkpt>
<trkpt lat="52.962261" lon="05.985398"><ele>0</ele><time>2021-03-19T13:26:44Z</time><name>PT11761</name></trkpt>
<trkpt lat="52.962267" lon="05.985389"><ele>0.1</ele><time>2021-03-19T13:26:45Z</time><name>PT11762</name></trkpt>
<trkpt lat="52.962274" lon="05.985378"><ele>0.1</ele><time>2021-03-19T13:26:46Z</time><name>PT11763</name></trkpt>
<trkpt lat="52.962281" lon="05.985368"><ele>0.1</ele><time>2021-03-19T13:26:47Z</time><name>PT11764</name></trkpt>
<trkpt lat="52.962289" lon="05.985364"><ele>0</ele><time>2021-03-19T13:26:48Z</time><name>PT11765</name></trkpt>
<trkpt lat="52.962297" lon="05.985359"><ele>0.1</ele><time>2021-03-19T13:26:49Z</time><name>PT11766</name></trkpt>
<trkpt lat="52.962308" lon="05.985352"><ele>0</ele><time>2021-03-19T13:26:50Z</time><name>PT11767</name></trkpt>
<trkpt lat="52.962315" lon="05.985342"><ele>0.3</ele><time>2021-03-19T13:26:51Z</time><name>PT11768</name></trkpt>
<trkpt lat="52.962323" lon="05.985335"><ele>0.3</ele><time>2021-03-19T13:26:52Z</time><name>PT11769</name></trkpt>
<trkpt lat="52.962332" lon="05.985329"><ele>0.3</ele><time>2021-03-19T13:26:54Z</time><name>PT11770</name></trkpt>
<trkpt lat="52.962339" lon="05.985322"><ele>0.2</ele><time>2021-03-19T13:26:54Z</time><name>PT11771</name></trkpt>
<trkpt lat="52.962349" lon="05.985313"><ele>0</ele><time>2021-03-19T13:26:55Z</time><name>PT11772</name></trkpt>
<trkpt lat="52.962355" lon="05.985305"><ele>0</ele><time>2021-03-19T13:26:56Z</time><name>PT11773</name></trkpt>
<trkpt lat="52.962363" lon="05.985298"><ele>0.1</ele><time>2021-03-19T13:26:57Z</time><name>PT11774</name></trkpt>
<trkpt lat="52.962371" lon="05.985289"><ele>0.3</ele><time>2021-03-19T13:26:59Z</time><name>PT11775</name></trkpt>
<trkpt lat="52.962381" lon="05.985282"><ele>0.3</ele><time>2021-03-19T13:26:59Z</time><name>PT11776</name></trkpt>
<trkpt lat="52.962390" lon="05.985274"><ele>0.3</ele><time>2021-03-19T13:27:00Z</time><name>PT11777</name></trkpt>
<trkpt lat="52.962398" lon="05.985265"><ele>0.1</ele><time>2021-03-19T13:27:02Z</time><name>PT11778</name></trkpt>
<trkpt lat="52.962404" lon="05.985257"><ele>0</ele><time>2021-03-19T13:27:02Z</time><name>PT11779</name></trkpt>
<trkpt lat="52.962414" lon="05.985247"><ele>0</ele><time>2021-03-19T13:27:03Z</time><name>PT11780</name></trkpt>
<trkpt lat="52.962426" lon="05.985239"><ele>0.1</ele><time>2021-03-19T13:27:04Z</time><name>PT11781</name></trkpt>
<trkpt lat="52.962432" lon="05.985234"><ele>0</ele><time>2021-03-19T13:27:05Z</time><name>PT11782</name></trkpt>
<trkpt lat="52.962440" lon="05.985225"><ele>0</ele><time>2021-03-19T13:27:07Z</time><name>PT11783</name></trkpt>
<trkpt lat="52.962449" lon="05.985221"><ele>0</ele><time>2021-03-19T13:27:07Z</time><name>PT11784</name></trkpt>
<trkpt lat="52.962456" lon="05.985215"><ele>0</ele><time>2021-03-19T13:27:08Z</time><name>PT11785</name></trkpt>
<trkpt lat="52.962468" lon="05.985209"><ele>0.3</ele><time>2021-03-19T13:27:10Z</time><name>PT11786</name></trkpt>
<trkpt lat="52.962479" lon="05.985202"><ele>0.3</ele><time>2021-03-19T13:27:10Z</time><name>PT11787</name></trkpt>
<trkpt lat="52.962490" lon="05.985197"><ele>0.3</ele><time>2021-03-19T13:27:11Z</time><name>PT11788</name></trkpt>
<trkpt lat="52.962497" lon="05.985188"><ele>0.3</ele><time>2021-03-19T13:27:13Z</time><name>PT11789</name></trkpt>
<trkpt lat="52.962504" lon="05.985178"><ele>0.4</ele><time>2021-03-19T13:27:13Z</time><name>PT11790</name></trkpt>
<trkpt lat="52.962510" lon="05.985167"><ele>0.2</ele><time>2021-03-19T13:27:14Z</time><name>PT11791</name></trkpt>
<trkpt lat="52.962518" lon="05.985158"><ele>0.2</ele><time>2021-03-19T13:27:15Z</time><name>PT11792</name></trkpt>
<trkpt lat="52.962526" lon="05.985150"><ele>0.1</ele><time>2021-03-19T13:27:16Z</time><name>PT11793</name></trkpt>
<trkpt lat="52.962532" lon="05.985143"><ele>0.1</ele><time>2021-03-19T13:27:18Z</time><name>PT11794</name></trkpt>
<trkpt lat="52.962540" lon="05.985130"><ele>0.1</ele><time>2021-03-19T13:27:18Z</time><name>PT11795</name></trkpt>
<trkpt lat="52.962546" lon="05.985118"><ele>0.3</ele><time>2021-03-19T13:27:20Z</time><name>PT11796</name></trkpt>
<trkpt lat="52.962554" lon="05.985110"><ele>0.3</ele><time>2021-03-19T13:27:20Z</time><name>PT11797</name></trkpt>
<trkpt lat="52.962565" lon="05.985100"><ele>0.3</ele><time>2021-03-19T13:27:21Z</time><name>PT11798</name></trkpt>
<trkpt lat="52.962572" lon="05.985091"><ele>0.3</ele><time>2021-03-19T13:27:23Z</time><name>PT11799</name></trkpt>
<trkpt lat="52.962575" lon="05.985080"><ele>0.2</ele><time>2021-03-19T13:27:23Z</time><name>PT11800</name></trkpt>
<trkpt lat="52.962584" lon="05.985073"><ele>0.2</ele><time>2021-03-19T13:27:24Z</time><name>PT11801</name></trkpt>
<trkpt lat="52.962592" lon="05.985066"><ele>0.3</ele><time>2021-03-19T13:27:25Z</time><name>PT11802</name></trkpt>
<trkpt lat="52.962599" lon="05.985061"><ele>0.2</ele><time>2021-03-19T13:27:26Z</time><name>PT11803</name></trkpt>
<trkpt lat="52.962600" lon="05.985055"><ele>0.2</ele><time>2021-03-19T13:27:27Z</time><name>PT11804</name></trkpt>
<trkpt lat="52.962609" lon="05.985049"><ele>0.2</ele><time>2021-03-19T13:27:28Z</time><name>PT11805</name></trkpt>
<trkpt lat="52.962619" lon="05.985040"><ele>0.3</ele><time>2021-03-19T13:27:30Z</time><name>PT11806</name></trkpt>
<trkpt lat="52.962627" lon="05.985031"><ele>0.3</ele><time>2021-03-19T13:27:30Z</time><name>PT11807</name></trkpt>
<trkpt lat="52.962639" lon="05.985019"><ele>0.4</ele><time>2021-03-19T13:27:31Z</time><name>PT11808</name></trkpt>
<trkpt lat="52.962650" lon="05.985010"><ele>0.3</ele><time>2021-03-19T13:27:32Z</time><name>PT11809</name></trkpt>
<trkpt lat="52.962661" lon="05.985002"><ele>0.1</ele><time>2021-03-19T13:27:33Z</time><name>PT11810</name></trkpt>
<trkpt lat="52.962671" lon="05.984993"><ele>0.1</ele><time>2021-03-19T13:27:34Z</time><name>PT11811</name></trkpt>
<trkpt lat="52.962681" lon="05.984988"><ele>0.1</ele><time>2021-03-19T13:27:35Z</time><name>PT11812</name></trkpt>
<trkpt lat="52.962690" lon="05.984978"><ele>0.1</ele><time>2021-03-19T13:27:37Z</time><name>PT11813</name></trkpt>
<trkpt lat="52.962699" lon="05.984966"><ele>0</ele><time>2021-03-19T13:27:37Z</time><name>PT11814</name></trkpt>
<trkpt lat="52.962710" lon="05.984956"><ele>0.3</ele><time>2021-03-19T13:27:38Z</time><name>PT11815</name></trkpt>
<trkpt lat="52.962720" lon="05.984949"><ele>0.4</ele><time>2021-03-19T13:27:39Z</time><name>PT11816</name></trkpt>
<trkpt lat="52.962730" lon="05.984942"><ele>0.3</ele><time>2021-03-19T13:27:40Z</time><name>PT11817</name></trkpt>
<trkpt lat="52.962738" lon="05.984934"><ele>0.1</ele><time>2021-03-19T13:27:41Z</time><name>PT11818</name></trkpt>
<trkpt lat="52.962745" lon="05.984926"><ele>0.2</ele><time>2021-03-19T13:27:42Z</time><name>PT11819</name></trkpt>
<trkpt lat="52.962758" lon="05.984915"><ele>0.2</ele><time>2021-03-19T13:27:44Z</time><name>PT11820</name></trkpt>
<trkpt lat="52.962768" lon="05.984905"><ele>0.3</ele><time>2021-03-19T13:27:44Z</time><name>PT11821</name></trkpt>
<trkpt lat="52.962776" lon="05.984898"><ele>0.3</ele><time>2021-03-19T13:27:45Z</time><name>PT11822</name></trkpt>
<trkpt lat="52.962784" lon="05.984891"><ele>0.2</ele><time>2021-03-19T13:27:47Z</time><name>PT11823</name></trkpt>
<trkpt lat="52.962790" lon="05.984883"><ele>0</ele><time>2021-03-19T13:27:47Z</time><name>PT11824</name></trkpt>
<trkpt lat="52.962801" lon="05.984871"><ele>0.3</ele><time>2021-03-19T13:27:48Z</time><name>PT11825</name></trkpt>
<trkpt lat="52.962811" lon="05.984863"><ele>0.5</ele><time>2021-03-19T13:27:50Z</time><name>PT11826</name></trkpt>
<trkpt lat="52.962819" lon="05.984855"><ele>0.6</ele><time>2021-03-19T13:27:50Z</time><name>PT11827</name></trkpt>
<trkpt lat="52.962832" lon="05.984848"><ele>0.5</ele><time>2021-03-19T13:27:51Z</time><name>PT11828</name></trkpt>
<trkpt lat="52.962842" lon="05.984839"><ele>0.3</ele><time>2021-03-19T13:27:53Z</time><name>PT11829</name></trkpt>
<trkpt lat="52.962851" lon="05.984830"><ele>0.3</ele><time>2021-03-19T13:27:53Z</time><name>PT11830</name></trkpt>
<trkpt lat="52.962863" lon="05.984819"><ele>0.2</ele><time>2021-03-19T13:27:54Z</time><name>PT11831</name></trkpt>
<trkpt lat="52.962873" lon="05.984810"><ele>0.3</ele><time>2021-03-19T13:27:56Z</time><name>PT11832</name></trkpt>
<trkpt lat="52.962885" lon="05.984804"><ele>0.3</ele><time>2021-03-19T13:27:56Z</time><name>PT11833</name></trkpt>
<trkpt lat="52.962893" lon="05.984797"><ele>0.4</ele><time>2021-03-19T13:27:57Z</time><name>PT11834</name></trkpt>
<trkpt lat="52.962902" lon="05.984790"><ele>0.4</ele><time>2021-03-19T13:27:58Z</time><name>PT11835</name></trkpt>
<trkpt lat="52.962911" lon="05.984780"><ele>0.5</ele><time>2021-03-19T13:27:59Z</time><name>PT11836</name></trkpt>
<trkpt lat="52.962919" lon="05.984771"><ele>0.5</ele><time>2021-03-19T13:28:01Z</time><name>PT11837</name></trkpt>
<trkpt lat="52.962927" lon="05.984763"><ele>0.5</ele><time>2021-03-19T13:28:01Z</time><name>PT11838</name></trkpt>
<trkpt lat="52.962934" lon="05.984757"><ele>0.5</ele><time>2021-03-19T13:28:02Z</time><name>PT11839</name></trkpt>
<trkpt lat="52.962943" lon="05.984747"><ele>0.4</ele><time>2021-03-19T13:28:03Z</time><name>PT11840</name></trkpt>
<trkpt lat="52.962950" lon="05.984739"><ele>0.3</ele><time>2021-03-19T13:28:04Z</time><name>PT11841</name></trkpt>
<trkpt lat="52.962956" lon="05.984733"><ele>0.2</ele><time>2021-03-19T13:28:06Z</time><name>PT11842</name></trkpt>
<trkpt lat="52.962963" lon="05.984725"><ele>0.1</ele><time>2021-03-19T13:28:06Z</time><name>PT11843</name></trkpt>
<trkpt lat="52.962972" lon="05.984720"><ele>0</ele><time>2021-03-19T13:28:07Z</time><name>PT11844</name></trkpt>
<trkpt lat="52.962979" lon="05.984713"><ele>0.1</ele><time>2021-03-19T13:28:08Z</time><name>PT11845</name></trkpt>
<trkpt lat="52.962986" lon="05.984704"><ele>0.1</ele><time>2021-03-19T13:28:09Z</time><name>PT11846</name></trkpt>
<trkpt lat="52.962991" lon="05.984691"><ele>0.2</ele><time>2021-03-19T13:28:11Z</time><name>PT11847</name></trkpt>
<trkpt lat="52.962999" lon="05.984679"><ele>0.2</ele><time>2021-03-19T13:28:11Z</time><name>PT11848</name></trkpt>
<trkpt lat="52.963007" lon="05.984672"><ele>0.1</ele><time>2021-03-19T13:28:13Z</time><name>PT11849</name></trkpt>
<trkpt lat="52.963016" lon="05.984666"><ele>0.3</ele><time>2021-03-19T13:28:14Z</time><name>PT11850</name></trkpt>
<trkpt lat="52.963023" lon="05.984660"><ele>0.1</ele><time>2021-03-19T13:28:14Z</time><name>PT11851</name></trkpt>
<trkpt lat="52.963032" lon="05.984646"><ele>0</ele><time>2021-03-19T13:28:15Z</time><name>PT11852</name></trkpt>
<trkpt lat="52.963040" lon="05.984630"><ele>0.1</ele><time>2021-03-19T13:28:16Z</time><name>PT11853</name></trkpt>
<trkpt lat="52.963051" lon="05.984623"><ele>0.3</ele><time>2021-03-19T13:28:17Z</time><name>PT11854</name></trkpt>
<trkpt lat="52.963065" lon="05.984615"><ele>0.1</ele><time>2021-03-19T13:28:19Z</time><name>PT11855</name></trkpt>
<trkpt lat="52.963074" lon="05.984605"><ele>0.1</ele><time>2021-03-19T13:28:19Z</time><name>PT11856</name></trkpt>
<trkpt lat="52.963085" lon="05.984598"><ele>0.1</ele><time>2021-03-19T13:28:20Z</time><name>PT11857</name></trkpt>
<trkpt lat="52.963094" lon="05.984591"><ele>0.1</ele><time>2021-03-19T13:28:21Z</time><name>PT11858</name></trkpt>
<trkpt lat="52.963103" lon="05.984585"><ele>0.2</ele><time>2021-03-19T13:28:22Z</time><name>PT11859</name></trkpt>
<trkpt lat="52.963111" lon="05.984578"><ele>0</ele><time>2021-03-19T13:28:24Z</time><name>PT11860</name></trkpt>
<trkpt lat="52.963118" lon="05.984569"><ele>0</ele><time>2021-03-19T13:28:24Z</time><name>PT11861</name></trkpt>
<trkpt lat="52.963128" lon="05.984558"><ele>0.2</ele><time>2021-03-19T13:28:25Z</time><name>PT11862</name></trkpt>
<trkpt lat="52.963135" lon="05.984548"><ele>0.3</ele><time>2021-03-19T13:28:27Z</time><name>PT11863</name></trkpt>
<trkpt lat="52.963141" lon="05.984542"><ele>0.3</ele><time>2021-03-19T13:28:27Z</time><name>PT11864</name></trkpt>
<trkpt lat="52.963151" lon="05.984534"><ele>0.3</ele><time>2021-03-19T13:28:28Z</time><name>PT11865</name></trkpt>
<trkpt lat="52.963159" lon="05.984524"><ele>0.1</ele><time>2021-03-19T13:28:30Z</time><name>PT11866</name></trkpt>
<trkpt lat="52.963168" lon="05.984509"><ele>0.1</ele><time>2021-03-19T13:28:30Z</time><name>PT11867</name></trkpt>
<trkpt lat="52.963176" lon="05.984500"><ele>0.2</ele><time>2021-03-19T13:28:31Z</time><name>PT11868</name></trkpt>
<trkpt lat="52.963188" lon="05.984489"><ele>0.5</ele><time>2021-03-19T13:28:32Z</time><name>PT11869</name></trkpt>
<trkpt lat="52.963200" lon="05.984480"><ele>0.5</ele><time>2021-03-19T13:28:33Z</time><name>PT11870</name></trkpt>
<trkpt lat="52.963211" lon="05.984470"><ele>0.5</ele><time>2021-03-19T13:28:34Z</time><name>PT11871</name></trkpt>
<trkpt lat="52.963221" lon="05.984456"><ele>0.6</ele><time>2021-03-19T13:28:35Z</time><name>PT11872</name></trkpt>
<trkpt lat="52.963232" lon="05.984446"><ele>0.5</ele><time>2021-03-19T13:28:37Z</time><name>PT11873</name></trkpt>
<trkpt lat="52.963240" lon="05.984438"><ele>0.5</ele><time>2021-03-19T13:28:37Z</time><name>PT11874</name></trkpt>
<trkpt lat="52.963249" lon="05.984433"><ele>0.5</ele><time>2021-03-19T13:28:38Z</time><name>PT11875</name></trkpt>
<trkpt lat="52.963258" lon="05.984430"><ele>0.4</ele><time>2021-03-19T13:28:40Z</time><name>PT11876</name></trkpt>
<trkpt lat="52.963264" lon="05.984419"><ele>0.3</ele><time>2021-03-19T13:28:40Z</time><name>PT11877</name></trkpt>
<trkpt lat="52.963272" lon="05.984407"><ele>0.3</ele><time>2021-03-19T13:28:41Z</time><name>PT11878</name></trkpt>
<trkpt lat="52.963279" lon="05.984397"><ele>0.1</ele><time>2021-03-19T13:28:42Z</time><name>PT11879</name></trkpt>
<trkpt lat="52.963288" lon="05.984388"><ele>0.1</ele><time>2021-03-19T13:28:43Z</time><name>PT11880</name></trkpt>
<trkpt lat="52.963296" lon="05.984382"><ele>0</ele><time>2021-03-19T13:28:44Z</time><name>PT11881</name></trkpt>
<trkpt lat="52.963306" lon="05.984377"><ele>0.1</ele><time>2021-03-19T13:28:45Z</time><name>PT11882</name></trkpt>
<trkpt lat="52.963316" lon="05.984370"><ele>0.2</ele><time>2021-03-19T13:28:46Z</time><name>PT11883</name></trkpt>
<trkpt lat="52.963324" lon="05.984362"><ele>0.1</ele><time>2021-03-19T13:28:47Z</time><name>PT11884</name></trkpt>
<trkpt lat="52.963335" lon="05.984353"><ele>0</ele><time>2021-03-19T13:28:49Z</time><name>PT11885</name></trkpt>
<trkpt lat="52.963344" lon="05.984346"><ele>0.1</ele><time>2021-03-19T13:28:49Z</time><name>PT11886</name></trkpt>
<trkpt lat="52.963355" lon="05.984338"><ele>0.1</ele><time>2021-03-19T13:28:50Z</time><name>PT11887</name></trkpt>
<trkpt lat="52.963364" lon="05.984332"><ele>0.1</ele><time>2021-03-19T13:28:51Z</time><name>PT11888</name></trkpt>
<trkpt lat="52.963373" lon="05.984324"><ele>0.1</ele><time>2021-03-19T13:28:52Z</time><name>PT11889</name></trkpt>
<trkpt lat="52.963382" lon="05.984313"><ele>0.2</ele><time>2021-03-19T13:28:54Z</time><name>PT11890</name></trkpt>
<trkpt lat="52.963390" lon="05.984302"><ele>0.2</ele><time>2021-03-19T13:28:54Z</time><name>PT11891</name></trkpt>
<trkpt lat="52.963399" lon="05.984293"><ele>0.2</ele><time>2021-03-19T13:28:55Z</time><name>PT11892</name></trkpt>
<trkpt lat="52.963405" lon="05.984285"><ele>0.2</ele><time>2021-03-19T13:28:56Z</time><name>PT11893</name></trkpt>
<trkpt lat="52.963408" lon="05.984277"><ele>0</ele><time>2021-03-19T13:28:57Z</time><name>PT11894</name></trkpt>
<trkpt lat="52.963415" lon="05.984268"><ele>0</ele><time>2021-03-19T13:28:58Z</time><name>PT11895</name></trkpt>
<trkpt lat="52.963426" lon="05.984258"><ele>0.1</ele><time>2021-03-19T13:28:59Z</time><name>PT11896</name></trkpt>
<trkpt lat="52.963437" lon="05.984248"><ele>0.1</ele><time>2021-03-19T13:29:01Z</time><name>PT11897</name></trkpt>
<trkpt lat="52.963446" lon="05.984241"><ele>0.1</ele><time>2021-03-19T13:29:01Z</time><name>PT11898</name></trkpt>
<trkpt lat="52.963455" lon="05.984231"><ele>0.1</ele><time>2021-03-19T13:29:02Z</time><name>PT11899</name></trkpt>
<trkpt lat="52.963465" lon="05.984221"><ele>0</ele><time>2021-03-19T13:29:04Z</time><name>PT11900</name></trkpt>
<trkpt lat="52.963472" lon="05.984214"><ele>0</ele><time>2021-03-19T13:29:04Z</time><name>PT11901</name></trkpt>
<trkpt lat="52.963480" lon="05.984209"><ele>0</ele><time>2021-03-19T13:29:05Z</time><name>PT11902</name></trkpt>
<trkpt lat="52.963487" lon="05.984202"><ele>0.2</ele><time>2021-03-19T13:29:06Z</time><name>PT11903</name></trkpt>
<trkpt lat="52.963496" lon="05.984194"><ele>0.3</ele><time>2021-03-19T13:29:07Z</time><name>PT11904</name></trkpt>
<trkpt lat="52.963505" lon="05.984185"><ele>0.4</ele><time>2021-03-19T13:29:09Z</time><name>PT11905</name></trkpt>
<trkpt lat="52.963517" lon="05.984172"><ele>0.4</ele><time>2021-03-19T13:29:09Z</time><name>PT11906</name></trkpt>
<trkpt lat="52.963527" lon="05.984162"><ele>0.2</ele><time>2021-03-19T13:29:10Z</time><name>PT11907</name></trkpt>
<trkpt lat="52.963538" lon="05.984154"><ele>0.2</ele><time>2021-03-19T13:29:11Z</time><name>PT11908</name></trkpt>
<trkpt lat="52.963548" lon="05.984146"><ele>0.2</ele><time>2021-03-19T13:29:12Z</time><name>PT11909</name></trkpt>
<trkpt lat="52.963556" lon="05.984139"><ele>0.1</ele><time>2021-03-19T13:29:14Z</time><name>PT11910</name></trkpt>
<trkpt lat="52.963563" lon="05.984129"><ele>0</ele><time>2021-03-19T13:29:14Z</time><name>PT11911</name></trkpt>
<trkpt lat="52.963571" lon="05.984121"><ele>0.1</ele><time>2021-03-19T13:29:15Z</time><name>PT11912</name></trkpt>
<trkpt lat="52.963577" lon="05.984114"><ele>0.2</ele><time>2021-03-19T13:29:17Z</time><name>PT11913</name></trkpt>
<trkpt lat="52.963585" lon="05.984106"><ele>0.1</ele><time>2021-03-19T13:29:17Z</time><name>PT11914</name></trkpt>
<trkpt lat="52.963593" lon="05.984098"><ele>0.1</ele><time>2021-03-19T13:29:18Z</time><name>PT11915</name></trkpt>
<trkpt lat="52.963602" lon="05.984089"><ele>0.1</ele><time>2021-03-19T13:29:20Z</time><name>PT11916</name></trkpt>
<trkpt lat="52.963609" lon="05.984081"><ele>0.1</ele><time>2021-03-19T13:29:20Z</time><name>PT11917</name></trkpt>
<trkpt lat="52.963619" lon="05.984072"><ele>0</ele><time>2021-03-19T13:29:21Z</time><name>PT11918</name></trkpt>
<trkpt lat="52.963627" lon="05.984063"><ele>0</ele><time>2021-03-19T13:29:23Z</time><name>PT11919</name></trkpt>
<trkpt lat="52.963639" lon="05.984055"><ele>0</ele><time>2021-03-19T13:29:23Z</time><name>PT11920</name></trkpt>
<trkpt lat="52.963647" lon="05.984044"><ele>0.1</ele><time>2021-03-19T13:29:24Z</time><name>PT11921</name></trkpt>
<trkpt lat="52.963655" lon="05.984034"><ele>0.1</ele><time>2021-03-19T13:29:25Z</time><name>PT11922</name></trkpt>
<trkpt lat="52.963666" lon="05.984023"><ele>0</ele><time>2021-03-19T13:29:26Z</time><name>PT11923</name></trkpt>
<trkpt lat="52.963676" lon="05.984014"><ele>0.1</ele><time>2021-03-19T13:29:28Z</time><name>PT11924</name></trkpt>
<trkpt lat="52.963687" lon="05.984005"><ele>0.3</ele><time>2021-03-19T13:29:28Z</time><name>PT11925</name></trkpt>
<trkpt lat="52.963696" lon="05.983998"><ele>0.3</ele><time>2021-03-19T13:29:29Z</time><name>PT11926</name></trkpt>
<trkpt lat="52.963705" lon="05.983989"><ele>0.3</ele><time>2021-03-19T13:29:31Z</time><name>PT11927</name></trkpt>
<trkpt lat="52.963714" lon="05.983979"><ele>0.4</ele><time>2021-03-19T13:29:31Z</time><name>PT11928</name></trkpt>
<trkpt lat="52.963719" lon="05.983971"><ele>0.3</ele><time>2021-03-19T13:29:32Z</time><name>PT11929</name></trkpt>
<trkpt lat="52.963727" lon="05.983963"><ele>0.1</ele><time>2021-03-19T13:29:34Z</time><name>PT11930</name></trkpt>
<trkpt lat="52.963737" lon="05.983949"><ele>0</ele><time>2021-03-19T13:29:34Z</time><name>PT11931</name></trkpt>
<trkpt lat="52.963744" lon="05.983938"><ele>0.1</ele><time>2021-03-19T13:29:35Z</time><name>PT11932</name></trkpt>
<trkpt lat="52.963751" lon="05.983931"><ele>0.1</ele><time>2021-03-19T13:29:37Z</time><name>PT11933</name></trkpt>
<trkpt lat="52.963762" lon="05.983925"><ele>0.3</ele><time>2021-03-19T13:29:37Z</time><name>PT11934</name></trkpt>
<trkpt lat="52.963773" lon="05.983916"><ele>0.3</ele><time>2021-03-19T13:29:38Z</time><name>PT11935</name></trkpt>
<trkpt lat="52.963785" lon="05.983911"><ele>0.1</ele><time>2021-03-19T13:29:40Z</time><name>PT11936</name></trkpt>
<trkpt lat="52.963792" lon="05.983904"><ele>0</ele><time>2021-03-19T13:29:40Z</time><name>PT11937</name></trkpt>
<trkpt lat="52.963801" lon="05.983893"><ele>0</ele><time>2021-03-19T13:29:42Z</time><name>PT11938</name></trkpt>
<trkpt lat="52.963809" lon="05.983882"><ele>0.1</ele><time>2021-03-19T13:29:43Z</time><name>PT11939</name></trkpt>
<trkpt lat="52.963816" lon="05.983876"><ele>0.1</ele><time>2021-03-19T13:29:43Z</time><name>PT11940</name></trkpt>
<trkpt lat="52.963826" lon="05.983870"><ele>0.1</ele><time>2021-03-19T13:29:44Z</time><name>PT11941</name></trkpt>
<trkpt lat="52.963837" lon="05.983862"><ele>0.1</ele><time>2021-03-19T13:29:46Z</time><name>PT11942</name></trkpt>
<trkpt lat="52.963849" lon="05.983853"><ele>0.3</ele><time>2021-03-19T13:29:46Z</time><name>PT11943</name></trkpt>
<trkpt lat="52.963856" lon="05.983845"><ele>0.4</ele><time>2021-03-19T13:29:47Z</time><name>PT11944</name></trkpt>
<trkpt lat="52.963864" lon="05.983836"><ele>0.6</ele><time>2021-03-19T13:29:49Z</time><name>PT11945</name></trkpt>
<trkpt lat="52.963876" lon="05.983825"><ele>0.6</ele><time>2021-03-19T13:29:49Z</time><name>PT11946</name></trkpt>
<trkpt lat="52.963885" lon="05.983816"><ele>0.6</ele><time>2021-03-19T13:29:50Z</time><name>PT11947</name></trkpt>
<trkpt lat="52.963894" lon="05.983804"><ele>0.2</ele><time>2021-03-19T13:29:52Z</time><name>PT11948</name></trkpt>
<trkpt lat="52.963903" lon="05.983793"><ele>0.2</ele><time>2021-03-19T13:29:52Z</time><name>PT11949</name></trkpt>
<trkpt lat="52.963915" lon="05.983781"><ele>0</ele><time>2021-03-19T13:29:53Z</time><name>PT11950</name></trkpt>
<trkpt lat="52.963925" lon="05.983772"><ele>0.1</ele><time>2021-03-19T13:29:54Z</time><name>PT11951</name></trkpt>
<trkpt lat="52.963934" lon="05.983763"><ele>0.1</ele><time>2021-03-19T13:29:55Z</time><name>PT11952</name></trkpt>
<trkpt lat="52.963943" lon="05.983753"><ele>0.3</ele><time>2021-03-19T13:29:57Z</time><name>PT11953</name></trkpt>
<trkpt lat="52.963954" lon="05.983740"><ele>0.2</ele><time>2021-03-19T13:29:57Z</time><name>PT11954</name></trkpt>
<trkpt lat="52.963962" lon="05.983730"><ele>0</ele><time>2021-03-19T13:29:58Z</time><name>PT11955</name></trkpt>
<trkpt lat="52.963971" lon="05.983720"><ele>0.2</ele><time>2021-03-19T13:30:00Z</time><name>PT11956</name></trkpt>
<trkpt lat="52.963981" lon="05.983713"><ele>0.3</ele><time>2021-03-19T13:30:00Z</time><name>PT11957</name></trkpt>
<trkpt lat="52.963991" lon="05.983705"><ele>0.3</ele><time>2021-03-19T13:30:01Z</time><name>PT11958</name></trkpt>
<trkpt lat="52.964001" lon="05.983696"><ele>0.3</ele><time>2021-03-19T13:30:03Z</time><name>PT11959</name></trkpt>
<trkpt lat="52.964009" lon="05.983690"><ele>0.3</ele><time>2021-03-19T13:30:03Z</time><name>PT11960</name></trkpt>
<trkpt lat="52.964018" lon="05.983682"><ele>0.2</ele><time>2021-03-19T13:30:04Z</time><name>PT11961</name></trkpt>
<trkpt lat="52.964027" lon="05.983672"><ele>0.1</ele><time>2021-03-19T13:30:06Z</time><name>PT11962</name></trkpt>
<trkpt lat="52.964037" lon="05.983665"><ele>0</ele><time>2021-03-19T13:30:06Z</time><name>PT11963</name></trkpt>
<trkpt lat="52.964044" lon="05.983655"><ele>0.1</ele><time>2021-03-19T13:30:07Z</time><name>PT11964</name></trkpt>
<trkpt lat="52.964051" lon="05.983646"><ele>0.2</ele><time>2021-03-19T13:30:08Z</time><name>PT11965</name></trkpt>
<trkpt lat="52.964058" lon="05.983642"><ele>0.1</ele><time>2021-03-19T13:30:09Z</time><name>PT11966</name></trkpt>
<trkpt lat="52.964068" lon="05.983635"><ele>0.2</ele><time>2021-03-19T13:30:11Z</time><name>PT11967</name></trkpt>
<trkpt lat="52.964078" lon="05.983627"><ele>0.3</ele><time>2021-03-19T13:30:11Z</time><name>PT11968</name></trkpt>
<trkpt lat="52.964091" lon="05.983620"><ele>0.3</ele><time>2021-03-19T13:30:12Z</time><name>PT11969</name></trkpt>
<trkpt lat="52.964100" lon="05.983609"><ele>0.2</ele><time>2021-03-19T13:30:13Z</time><name>PT11970</name></trkpt>
<trkpt lat="52.964108" lon="05.983601"><ele>0</ele><time>2021-03-19T13:30:14Z</time><name>PT11971</name></trkpt>
<trkpt lat="52.964127" lon="05.983586"><ele>0.2</ele><time>2021-03-19T13:30:16Z</time><name>PT11972</name></trkpt>
<trkpt lat="52.964140" lon="05.983575"><ele>0.4</ele><time>2021-03-19T13:30:16Z</time><name>PT11973</name></trkpt>
<trkpt lat="52.964149" lon="05.983563"><ele>0.3</ele><time>2021-03-19T13:30:17Z</time><name>PT11974</name></trkpt>
<trkpt lat="52.964159" lon="05.983555"><ele>0.2</ele><time>2021-03-19T13:30:19Z</time><name>PT11975</name></trkpt>
<trkpt lat="52.964167" lon="05.983552"><ele>0.3</ele><time>2021-03-19T13:30:19Z</time><name>PT11976</name></trkpt>
<trkpt lat="52.964175" lon="05.983547"><ele>0.1</ele><time>2021-03-19T13:30:20Z</time><name>PT11977</name></trkpt>
<trkpt lat="52.964184" lon="05.983541"><ele>0</ele><time>2021-03-19T13:30:22Z</time><name>PT11978</name></trkpt>
<trkpt lat="52.964194" lon="05.983531"><ele>0</ele><time>2021-03-19T13:30:22Z</time><name>PT11979</name></trkpt>
<trkpt lat="52.964202" lon="05.983523"><ele>0</ele><time>2021-03-19T13:30:23Z</time><name>PT11980</name></trkpt>
<trkpt lat="52.964209" lon="05.983516"><ele>0</ele><time>2021-03-19T13:30:25Z</time><name>PT11981</name></trkpt>
<trkpt lat="52.964217" lon="05.983511"><ele>0.1</ele><time>2021-03-19T13:30:25Z</time><name>PT11982</name></trkpt>
<trkpt lat="52.964225" lon="05.983505"><ele>0.1</ele><time>2021-03-19T13:30:26Z</time><name>PT11983</name></trkpt>
<trkpt lat="52.964236" lon="05.983500"><ele>0.1</ele><time>2021-03-19T13:30:27Z</time><name>PT11984</name></trkpt>
<trkpt lat="52.964245" lon="05.983492"><ele>0</ele><time>2021-03-19T13:30:28Z</time><name>PT11985</name></trkpt>
<trkpt lat="52.964249" lon="05.983483"><ele>0.1</ele><time>2021-03-19T13:30:29Z</time><name>PT11986</name></trkpt>
<trkpt lat="52.964256" lon="05.983473"><ele>0.2</ele><time>2021-03-19T13:30:30Z</time><name>PT11987</name></trkpt>
<trkpt lat="52.964263" lon="05.983465"><ele>0.1</ele><time>2021-03-19T13:30:31Z</time><name>PT11988</name></trkpt>
<trkpt lat="52.964273" lon="05.983458"><ele>0.1</ele><time>2021-03-19T13:30:32Z</time><name>PT11989</name></trkpt>
<trkpt lat="52.964278" lon="05.983453"><ele>0.5</ele><time>2021-03-19T13:30:34Z</time><name>PT11990</name></trkpt>
<trkpt lat="52.964286" lon="05.983446"><ele>0.7</ele><time>2021-03-19T13:30:34Z</time><name>PT11991</name></trkpt>
<trkpt lat="52.964294" lon="05.983438"><ele>0.6</ele><time>2021-03-19T13:30:35Z</time><name>PT11992</name></trkpt>
<trkpt lat="52.964301" lon="05.983435"><ele>0.6</ele><time>2021-03-19T13:30:37Z</time><name>PT11993</name></trkpt>
<trkpt lat="52.964310" lon="05.983429"><ele>0.7</ele><time>2021-03-19T13:30:37Z</time><name>PT11994</name></trkpt>
<trkpt lat="52.964321" lon="05.983421"><ele>0.6</ele><time>2021-03-19T13:30:38Z</time><name>PT11995</name></trkpt>
<trkpt lat="52.964331" lon="05.983413"><ele>0.7</ele><time>2021-03-19T13:30:39Z</time><name>PT11996</name></trkpt>
<trkpt lat="52.964338" lon="05.983403"><ele>0.9</ele><time>2021-03-19T13:30:40Z</time><name>PT11997</name></trkpt>
<trkpt lat="52.964347" lon="05.983393"><ele>0.7</ele><time>2021-03-19T13:30:41Z</time><name>PT11998</name></trkpt>
<trkpt lat="52.964352" lon="05.983381"><ele>0.8</ele><time>2021-03-19T13:30:42Z</time><name>PT11999</name></trkpt>
<trkpt lat="52.964360" lon="05.983372"><ele>0.7</ele><time>2021-03-19T13:30:44Z</time><name>PT12000</name></trkpt>
<trkpt lat="52.964370" lon="05.983364"><ele>0.5</ele><time>2021-03-19T13:30:44Z</time><name>PT12001</name></trkpt>
<trkpt lat="52.964382" lon="05.983353"><ele>0.4</ele><time>2021-03-19T13:30:45Z</time><name>PT12002</name></trkpt>
<trkpt lat="52.964388" lon="05.983342"><ele>0.2</ele><time>2021-03-19T13:30:46Z</time><name>PT12003</name></trkpt>
<trkpt lat="52.964394" lon="05.983336"><ele>0.1</ele><time>2021-03-19T13:30:47Z</time><name>PT12004</name></trkpt>
<trkpt lat="52.964400" lon="05.983332"><ele>0</ele><time>2021-03-19T13:30:49Z</time><name>PT12005</name></trkpt>
<trkpt lat="52.964406" lon="05.983327"><ele>0</ele><time>2021-03-19T13:30:49Z</time><name>PT12006</name></trkpt>
<trkpt lat="52.964412" lon="05.983317"><ele>0</ele><time>2021-03-19T13:30:50Z</time><name>PT12007</name></trkpt>
<trkpt lat="52.964420" lon="05.983308"><ele>0.1</ele><time>2021-03-19T13:30:51Z</time><name>PT12008</name></trkpt>
<trkpt lat="52.964427" lon="05.983301"><ele>0.3</ele><time>2021-03-19T13:30:52Z</time><name>PT12009</name></trkpt>
<trkpt lat="52.964437" lon="05.983294"><ele>0.2</ele><time>2021-03-19T13:30:54Z</time><name>PT12010</name></trkpt>
<trkpt lat="52.964441" lon="05.983287"><ele>0.2</ele><time>2021-03-19T13:30:54Z</time><name>PT12011</name></trkpt>
<trkpt lat="52.964446" lon="05.983280"><ele>0.3</ele><time>2021-03-19T13:30:55Z</time><name>PT12012</name></trkpt>
<trkpt lat="52.964451" lon="05.983277"><ele>0.3</ele><time>2021-03-19T13:30:57Z</time><name>PT12013</name></trkpt>
<trkpt lat="52.964461" lon="05.983270"><ele>0.4</ele><time>2021-03-19T13:30:57Z</time><name>PT12014</name></trkpt>
<trkpt lat="52.964471" lon="05.983267"><ele>0.5</ele><time>2021-03-19T13:30:58Z</time><name>PT12015</name></trkpt>
<trkpt lat="52.964476" lon="05.983263"><ele>0.4</ele><time>2021-03-19T13:30:59Z</time><name>PT12016</name></trkpt>
<trkpt lat="52.964484" lon="05.983253"><ele>0.4</ele><time>2021-03-19T13:31:00Z</time><name>PT12017</name></trkpt>
<trkpt lat="52.964491" lon="05.983245"><ele>0.4</ele><time>2021-03-19T13:31:01Z</time><name>PT12018</name></trkpt>
<trkpt lat="52.964499" lon="05.983238"><ele>0.1</ele><time>2021-03-19T13:31:02Z</time><name>PT12019</name></trkpt>
<trkpt lat="52.964507" lon="05.983231"><ele>0</ele><time>2021-03-19T13:31:03Z</time><name>PT12020</name></trkpt>
<trkpt lat="52.964513" lon="05.983223"><ele>0.1</ele><time>2021-03-19T13:31:04Z</time><name>PT12021</name></trkpt>
<trkpt lat="52.964521" lon="05.983217"><ele>0.1</ele><time>2021-03-19T13:31:05Z</time><name>PT12022</name></trkpt>
<trkpt lat="52.964526" lon="05.983212"><ele>0</ele><time>2021-03-19T13:31:06Z</time><name>PT12023</name></trkpt>
<trkpt lat="52.964531" lon="05.983205"><ele>0.1</ele><time>2021-03-19T13:31:07Z</time><name>PT12024</name></trkpt>
<trkpt lat="52.964537" lon="05.983199"><ele>0.2</ele><time>2021-03-19T13:31:08Z</time><name>PT12025</name></trkpt>
<trkpt lat="52.964543" lon="05.983198"><ele>0.1</ele><time>2021-03-19T13:31:10Z</time><name>PT12026</name></trkpt>
<trkpt lat="52.964551" lon="05.983194"><ele>0.2</ele><time>2021-03-19T13:31:10Z</time><name>PT12027</name></trkpt>
<trkpt lat="52.964561" lon="05.983184"><ele>0.2</ele><time>2021-03-19T13:31:11Z</time><name>PT12028</name></trkpt>
<trkpt lat="52.964568" lon="05.983179"><ele>0</ele><time>2021-03-19T13:31:13Z</time><name>PT12029</name></trkpt>
<trkpt lat="52.964572" lon="05.983170"><ele>0.1</ele><time>2021-03-19T13:31:13Z</time><name>PT12030</name></trkpt>
<trkpt lat="52.964580" lon="05.983159"><ele>0.2</ele><time>2021-03-19T13:31:14Z</time><name>PT12031</name></trkpt>
<trkpt lat="52.964588" lon="05.983152"><ele>0.1</ele><time>2021-03-19T13:31:15Z</time><name>PT12032</name></trkpt>
<trkpt lat="52.964597" lon="05.983145"><ele>0.1</ele><time>2021-03-19T13:31:16Z</time><name>PT12033</name></trkpt>
<trkpt lat="52.964606" lon="05.983135"><ele>0.1</ele><time>2021-03-19T13:31:17Z</time><name>PT12034</name></trkpt>
<trkpt lat="52.964615" lon="05.983124"><ele>0</ele><time>2021-03-19T13:31:18Z</time><name>PT12035</name></trkpt>
<trkpt lat="52.964625" lon="05.983113"><ele>0</ele><time>2021-03-19T13:31:20Z</time><name>PT12036</name></trkpt>
<trkpt lat="52.964631" lon="05.983107"><ele>0.1</ele><time>2021-03-19T13:31:20Z</time><name>PT12037</name></trkpt>
<trkpt lat="52.964638" lon="05.983099"><ele>0.1</ele><time>2021-03-19T13:31:21Z</time><name>PT12038</name></trkpt>
<trkpt lat="52.964642" lon="05.983091"><ele>0.2</ele><time>2021-03-19T13:31:22Z</time><name>PT12039</name></trkpt>
<trkpt lat="52.964647" lon="05.983084"><ele>0.3</ele><time>2021-03-19T13:31:23Z</time><name>PT12040</name></trkpt>
<trkpt lat="52.964654" lon="05.983077"><ele>0.4</ele><time>2021-03-19T13:31:24Z</time><name>PT12041</name></trkpt>
<trkpt lat="52.964663" lon="05.983066"><ele>0.4</ele><time>2021-03-19T13:31:25Z</time><name>PT12042</name></trkpt>
<trkpt lat="52.964672" lon="05.983057"><ele>0.2</ele><time>2021-03-19T13:31:26Z</time><name>PT12043</name></trkpt>
<trkpt lat="52.964683" lon="05.983047"><ele>0.1</ele><time>2021-03-19T13:31:27Z</time><name>PT12044</name></trkpt>
<trkpt lat="52.964692" lon="05.983037"><ele>0.1</ele><time>2021-03-19T13:31:28Z</time><name>PT12045</name></trkpt>
<trkpt lat="52.964702" lon="05.983029"><ele>0.1</ele><time>2021-03-19T13:31:29Z</time><name>PT12046</name></trkpt>
<trkpt lat="52.964710" lon="05.983022"><ele>0.3</ele><time>2021-03-19T13:31:31Z</time><name>PT12047</name></trkpt>
<trkpt lat="52.964719" lon="05.983014"><ele>0.3</ele><time>2021-03-19T13:31:31Z</time><name>PT12048</name></trkpt>
<trkpt lat="52.964725" lon="05.983008"><ele>0.2</ele><time>2021-03-19T13:31:32Z</time><name>PT12049</name></trkpt>
<trkpt lat="52.964735" lon="05.982999"><ele>0.1</ele><time>2021-03-19T13:31:33Z</time><name>PT12050</name></trkpt>
<trkpt lat="52.964744" lon="05.982991"><ele>0.1</ele><time>2021-03-19T13:31:34Z</time><name>PT12051</name></trkpt>
<trkpt lat="52.964753" lon="05.982985"><ele>0.1</ele><time>2021-03-19T13:31:35Z</time><name>PT12052</name></trkpt>
<trkpt lat="52.964761" lon="05.982977"><ele>0.2</ele><time>2021-03-19T13:31:36Z</time><name>PT12053</name></trkpt>
<trkpt lat="52.964770" lon="05.982969"><ele>0.1</ele><time>2021-03-19T13:31:37Z</time><name>PT12054</name></trkpt>
<trkpt lat="52.964776" lon="05.982962"><ele>0.2</ele><time>2021-03-19T13:31:38Z</time><name>PT12055</name></trkpt>
<trkpt lat="52.964786" lon="05.982953"><ele>0</ele><time>2021-03-19T13:31:39Z</time><name>PT12056</name></trkpt>
<trkpt lat="52.964798" lon="05.982934"><ele>0.2</ele><time>2021-03-19T13:31:40Z</time><name>PT12057</name></trkpt>
<trkpt lat="52.964811" lon="05.982920"><ele>0.4</ele><time>2021-03-19T13:31:42Z</time><name>PT12058</name></trkpt>
<trkpt lat="52.964823" lon="05.982903"><ele>1</ele><time>2021-03-19T13:31:42Z</time><name>PT12059</name></trkpt>
<trkpt lat="52.964834" lon="05.982891"><ele>0.4</ele><time>2021-03-19T13:31:43Z</time><name>PT12060</name></trkpt>
<trkpt lat="52.964845" lon="05.982880"><ele>0.4</ele><time>2021-03-19T13:31:44Z</time><name>PT12061</name></trkpt>
<trkpt lat="52.964853" lon="05.982868"><ele>0.2</ele><time>2021-03-19T13:31:45Z</time><name>PT12062</name></trkpt>
<trkpt lat="52.964864" lon="05.982854"><ele>0.1</ele><time>2021-03-19T13:31:47Z</time><name>PT12063</name></trkpt>
<trkpt lat="52.964872" lon="05.982843"><ele>0</ele><time>2021-03-19T13:31:47Z</time><name>PT12064</name></trkpt>
<trkpt lat="52.964880" lon="05.982835"><ele>0.2</ele><time>2021-03-19T13:31:48Z</time><name>PT12065</name></trkpt>
<trkpt lat="52.964890" lon="05.982827"><ele>0</ele><time>2021-03-19T13:31:50Z</time><name>PT12066</name></trkpt>
<trkpt lat="52.964899" lon="05.982821"><ele>0.2</ele><time>2021-03-19T13:31:50Z</time><name>PT12067</name></trkpt>
<trkpt lat="52.964908" lon="05.982812"><ele>0.3</ele><time>2021-03-19T13:31:51Z</time><name>PT12068</name></trkpt>
<trkpt lat="52.964918" lon="05.982803"><ele>0.4</ele><time>2021-03-19T13:31:53Z</time><name>PT12069</name></trkpt>
<trkpt lat="52.964926" lon="05.982794"><ele>0.5</ele><time>2021-03-19T13:31:53Z</time><name>PT12070</name></trkpt>
<trkpt lat="52.964936" lon="05.982782"><ele>0.6</ele><time>2021-03-19T13:31:54Z</time><name>PT12071</name></trkpt>
<trkpt lat="52.964944" lon="05.982772"><ele>0.4</ele><time>2021-03-19T13:31:56Z</time><name>PT12072</name></trkpt>
<trkpt lat="52.964956" lon="05.982762"><ele>0.3</ele><time>2021-03-19T13:31:56Z</time><name>PT12073</name></trkpt>
<trkpt lat="52.964965" lon="05.982751"><ele>0.4</ele><time>2021-03-19T13:31:57Z</time><name>PT12074</name></trkpt>
<trkpt lat="52.964973" lon="05.982745"><ele>0.4</ele><time>2021-03-19T13:31:59Z</time><name>PT12075</name></trkpt>
<trkpt lat="52.964981" lon="05.982738"><ele>0.4</ele><time>2021-03-19T13:31:59Z</time><name>PT12076</name></trkpt>
<trkpt lat="52.964991" lon="05.982727"><ele>0.3</ele><time>2021-03-19T13:32:00Z</time><name>PT12077</name></trkpt>
<trkpt lat="52.965000" lon="05.982715"><ele>0.3</ele><time>2021-03-19T13:32:01Z</time><name>PT12078</name></trkpt>
<trkpt lat="52.965008" lon="05.982702"><ele>0.1</ele><time>2021-03-19T13:32:02Z</time><name>PT12079</name></trkpt>
<trkpt lat="52.965019" lon="05.982694"><ele>0.1</ele><time>2021-03-19T13:32:03Z</time><name>PT12080</name></trkpt>
<trkpt lat="52.965029" lon="05.982686"><ele>0.1</ele><time>2021-03-19T13:32:04Z</time><name>PT12081</name></trkpt>
<trkpt lat="52.965037" lon="05.982678"><ele>0.1</ele><time>2021-03-19T13:32:05Z</time><name>PT12082</name></trkpt>
<trkpt lat="52.965045" lon="05.982668"><ele>0</ele><time>2021-03-19T13:32:06Z</time><name>PT12083</name></trkpt>
<trkpt lat="52.965052" lon="05.982658"><ele>0.1</ele><time>2021-03-19T13:32:08Z</time><name>PT12084</name></trkpt>
<trkpt lat="52.965060" lon="05.982648"><ele>0</ele><time>2021-03-19T13:32:08Z</time><name>PT12085</name></trkpt>
<trkpt lat="52.965069" lon="05.982641"><ele>0.1</ele><time>2021-03-19T13:32:09Z</time><name>PT12086</name></trkpt>
<trkpt lat="52.965079" lon="05.982635"><ele>0.1</ele><time>2021-03-19T13:32:10Z</time><name>PT12087</name></trkpt>
<trkpt lat="52.965087" lon="05.982627"><ele>0.1</ele><time>2021-03-19T13:32:11Z</time><name>PT12088</name></trkpt>
<trkpt lat="52.965096" lon="05.982618"><ele>0.1</ele><time>2021-03-19T13:32:12Z</time><name>PT12089</name></trkpt>
<trkpt lat="52.965103" lon="05.982609"><ele>0</ele><time>2021-03-19T13:32:13Z</time><name>PT12090</name></trkpt>
<trkpt lat="52.965109" lon="05.982603"><ele>0.2</ele><time>2021-03-19T13:32:15Z</time><name>PT12091</name></trkpt>
<trkpt lat="52.965115" lon="05.982600"><ele>0.4</ele><time>2021-03-19T13:32:15Z</time><name>PT12092</name></trkpt>
<trkpt lat="52.965121" lon="05.982594"><ele>0.4</ele><time>2021-03-19T13:32:17Z</time><name>PT12093</name></trkpt>
<trkpt lat="52.965129" lon="05.982588"><ele>0.5</ele><time>2021-03-19T13:32:18Z</time><name>PT12094</name></trkpt>
<trkpt lat="52.965137" lon="05.982582"><ele>1</ele><time>2021-03-19T13:32:18Z</time><name>PT12095</name></trkpt>
<trkpt lat="52.965144" lon="05.982576"><ele>1.3</ele><time>2021-03-19T13:32:19Z</time><name>PT12096</name></trkpt>
<trkpt lat="52.965151" lon="05.982569"><ele>1</ele><time>2021-03-19T13:32:20Z</time><name>PT12097</name></trkpt>
<trkpt lat="52.965159" lon="05.982562"><ele>1.9</ele><time>2021-03-19T13:32:21Z</time><name>PT12098</name></trkpt>
<trkpt lat="52.965169" lon="05.982554"><ele>1.9</ele><time>2021-03-19T13:32:22Z</time><name>PT12099</name></trkpt>
<trkpt lat="52.965179" lon="05.982548"><ele>1.5</ele><time>2021-03-19T13:32:23Z</time><name>PT12100</name></trkpt>
<trkpt lat="52.965186" lon="05.982539"><ele>1.2</ele><time>2021-03-19T13:32:24Z</time><name>PT12101</name></trkpt>
<trkpt lat="52.965194" lon="05.982529"><ele>0.5</ele><time>2021-03-19T13:32:25Z</time><name>PT12102</name></trkpt>
<trkpt lat="52.965203" lon="05.982520"><ele>0.1</ele><time>2021-03-19T13:32:27Z</time><name>PT12103</name></trkpt>
<trkpt lat="52.965213" lon="05.982510"><ele>0</ele><time>2021-03-19T13:32:27Z</time><name>PT12104</name></trkpt>
<trkpt lat="52.965223" lon="05.982503"><ele>0.1</ele><time>2021-03-19T13:32:28Z</time><name>PT12105</name></trkpt>
<trkpt lat="52.965232" lon="05.982497"><ele>0.5</ele><time>2021-03-19T13:32:29Z</time><name>PT12106</name></trkpt>
<trkpt lat="52.965239" lon="05.982490"><ele>0.1</ele><time>2021-03-19T13:32:30Z</time><name>PT12107</name></trkpt>
<trkpt lat="52.965247" lon="05.982480"><ele>0</ele><time>2021-03-19T13:32:31Z</time><name>PT12108</name></trkpt>
<trkpt lat="52.965255" lon="05.982470"><ele>0.2</ele><time>2021-03-19T13:32:32Z</time><name>PT12109</name></trkpt>
<trkpt lat="52.965264" lon="05.982461"><ele>0.1</ele><time>2021-03-19T13:32:33Z</time><name>PT12110</name></trkpt>
<trkpt lat="52.965273" lon="05.982451"><ele>0.7</ele><time>2021-03-19T13:32:34Z</time><name>PT12111</name></trkpt>
<trkpt lat="52.965284" lon="05.982445"><ele>0.5</ele><time>2021-03-19T13:32:35Z</time><name>PT12112</name></trkpt>
<trkpt lat="52.965293" lon="05.982437"><ele>0.5</ele><time>2021-03-19T13:32:36Z</time><name>PT12113</name></trkpt>
<trkpt lat="52.965300" lon="05.982428"><ele>0.2</ele><time>2021-03-19T13:32:38Z</time><name>PT12114</name></trkpt>
<trkpt lat="52.965308" lon="05.982417"><ele>0</ele><time>2021-03-19T13:32:38Z</time><name>PT12115</name></trkpt>
<trkpt lat="52.965314" lon="05.982410"><ele>0.1</ele><time>2021-03-19T13:32:39Z</time><name>PT12116</name></trkpt>
<trkpt lat="52.965321" lon="05.982406"><ele>0.7</ele><time>2021-03-19T13:32:41Z</time><name>PT12117</name></trkpt>
<trkpt lat="52.965329" lon="05.982399"><ele>0.5</ele><time>2021-03-19T13:32:41Z</time><name>PT12118</name></trkpt>
<trkpt lat="52.965333" lon="05.982392"><ele>0.6</ele><time>2021-03-19T13:32:42Z</time><name>PT12119</name></trkpt>
<trkpt lat="52.965340" lon="05.982385"><ele>0.4</ele><time>2021-03-19T13:32:44Z</time><name>PT12120</name></trkpt>
<trkpt lat="52.965346" lon="05.982376"><ele>0.2</ele><time>2021-03-19T13:32:44Z</time><name>PT12121</name></trkpt>
<trkpt lat="52.965354" lon="05.982367"><ele>0.1</ele><time>2021-03-19T13:32:45Z</time><name>PT12122</name></trkpt>
<trkpt lat="52.965360" lon="05.982358"><ele>0.2</ele><time>2021-03-19T13:32:46Z</time><name>PT12123</name></trkpt>
<trkpt lat="52.965363" lon="05.982350"><ele>0.2</ele><time>2021-03-19T13:32:47Z</time><name>PT12124</name></trkpt>
<trkpt lat="52.965366" lon="05.982343"><ele>0.2</ele><time>2021-03-19T13:32:49Z</time><name>PT12125</name></trkpt>
<trkpt lat="52.965374" lon="05.982337"><ele>0.4</ele><time>2021-03-19T13:32:49Z</time><name>PT12126</name></trkpt>
<trkpt lat="52.965379" lon="05.982331"><ele>0.4</ele><time>2021-03-19T13:32:50Z</time><name>PT12127</name></trkpt>
<trkpt lat="52.965381" lon="05.982324"><ele>0.5</ele><time>2021-03-19T13:32:51Z</time><name>PT12128</name></trkpt>
<trkpt lat="52.965384" lon="05.982318"><ele>0.6</ele><time>2021-03-19T13:32:52Z</time><name>PT12129</name></trkpt>
<trkpt lat="52.965390" lon="05.982312"><ele>0.7</ele><time>2021-03-19T13:32:54Z</time><name>PT12130</name></trkpt>
<trkpt lat="52.965397" lon="05.982305"><ele>0.9</ele><time>2021-03-19T13:32:54Z</time><name>PT12131</name></trkpt>
<trkpt lat="52.965403" lon="05.982298"><ele>1</ele><time>2021-03-19T13:32:55Z</time><name>PT12132</name></trkpt>
<trkpt lat="52.965412" lon="05.982288"><ele>1</ele><time>2021-03-19T13:32:57Z</time><name>PT12133</name></trkpt>
<trkpt lat="52.965419" lon="05.982280"><ele>1</ele><time>2021-03-19T13:32:57Z</time><name>PT12134</name></trkpt>
<trkpt lat="52.965430" lon="05.982275"><ele>0.9</ele><time>2021-03-19T13:32:58Z</time><name>PT12135</name></trkpt>
<trkpt lat="52.965438" lon="05.982269"><ele>0.9</ele><time>2021-03-19T13:32:59Z</time><name>PT12136</name></trkpt>
<trkpt lat="52.965447" lon="05.982260"><ele>0.9</ele><time>2021-03-19T13:33:00Z</time><name>PT12137</name></trkpt>
<trkpt lat="52.965455" lon="05.982248"><ele>0.9</ele><time>2021-03-19T13:33:01Z</time><name>PT12138</name></trkpt>
<trkpt lat="52.965465" lon="05.982238"><ele>0.7</ele><time>2021-03-19T13:33:02Z</time><name>PT12139</name></trkpt>
<trkpt lat="52.965475" lon="05.982232"><ele>0.7</ele><time>2021-03-19T13:33:04Z</time><name>PT12140</name></trkpt>
<trkpt lat="52.965485" lon="05.982224"><ele>0.6</ele><time>2021-03-19T13:33:04Z</time><name>PT12141</name></trkpt>
<trkpt lat="52.965493" lon="05.982215"><ele>0.6</ele><time>2021-03-19T13:33:05Z</time><name>PT12142</name></trkpt>
<trkpt lat="52.965500" lon="05.982206"><ele>0.5</ele><time>2021-03-19T13:33:06Z</time><name>PT12143</name></trkpt>
<trkpt lat="52.965507" lon="05.982197"><ele>0.5</ele><time>2021-03-19T13:33:07Z</time><name>PT12144</name></trkpt>
<trkpt lat="52.965513" lon="05.982189"><ele>0.5</ele><time>2021-03-19T13:33:08Z</time><name>PT12145</name></trkpt>
<trkpt lat="52.965522" lon="05.982184"><ele>0.8</ele><time>2021-03-19T13:33:09Z</time><name>PT12146</name></trkpt>
<trkpt lat="52.965529" lon="05.982175"><ele>0.9</ele><time>2021-03-19T13:33:11Z</time><name>PT12147</name></trkpt>
<trkpt lat="52.965533" lon="05.982165"><ele>1.1</ele><time>2021-03-19T13:33:11Z</time><name>PT12148</name></trkpt>
<trkpt lat="52.965541" lon="05.982157"><ele>1.3</ele><time>2021-03-19T13:33:12Z</time><name>PT12149</name></trkpt>
<trkpt lat="52.965551" lon="05.982147"><ele>1.3</ele><time>2021-03-19T13:33:13Z</time><name>PT12150</name></trkpt>
<trkpt lat="52.965559" lon="05.982140"><ele>1.1</ele><time>2021-03-19T13:33:15Z</time><name>PT12151</name></trkpt>
<trkpt lat="52.965567" lon="05.982131"><ele>1.3</ele><time>2021-03-19T13:33:15Z</time><name>PT12152</name></trkpt>
<trkpt lat="52.965579" lon="05.982125"><ele>1</ele><time>2021-03-19T13:33:16Z</time><name>PT12153</name></trkpt>
<trkpt lat="52.965588" lon="05.982121"><ele>1</ele><time>2021-03-19T13:33:18Z</time><name>PT12154</name></trkpt>
<trkpt lat="52.965597" lon="05.982115"><ele>1.1</ele><time>2021-03-19T13:33:18Z</time><name>PT12155</name></trkpt>
<trkpt lat="52.965604" lon="05.982109"><ele>1</ele><time>2021-03-19T13:33:19Z</time><name>PT12156</name></trkpt>
<trkpt lat="52.965610" lon="05.982101"><ele>1.1</ele><time>2021-03-19T13:33:21Z</time><name>PT12157</name></trkpt>
<trkpt lat="52.965617" lon="05.982090"><ele>1</ele><time>2021-03-19T13:33:21Z</time><name>PT12158</name></trkpt>
<trkpt lat="52.965626" lon="05.982077"><ele>1</ele><time>2021-03-19T13:33:22Z</time><name>PT12159</name></trkpt>
<trkpt lat="52.965633" lon="05.982072"><ele>1</ele><time>2021-03-19T13:33:24Z</time><name>PT12160</name></trkpt>
<trkpt lat="52.965639" lon="05.982065"><ele>1</ele><time>2021-03-19T13:33:24Z</time><name>PT12161</name></trkpt>
<trkpt lat="52.965645" lon="05.982060"><ele>1</ele><time>2021-03-19T13:33:25Z</time><name>PT12162</name></trkpt>
<trkpt lat="52.965650" lon="05.982054"><ele>1</ele><time>2021-03-19T13:33:26Z</time><name>PT12163</name></trkpt>
<trkpt lat="52.965659" lon="05.982046"><ele>1.1</ele><time>2021-03-19T13:33:27Z</time><name>PT12164</name></trkpt>
<trkpt lat="52.965664" lon="05.982036"><ele>1</ele><time>2021-03-19T13:33:28Z</time><name>PT12165</name></trkpt>
<trkpt lat="52.965672" lon="05.982028"><ele>1</ele><time>2021-03-19T13:33:29Z</time><name>PT12166</name></trkpt>
<trkpt lat="52.965680" lon="05.982021"><ele>1</ele><time>2021-03-19T13:33:30Z</time><name>PT12167</name></trkpt>
<trkpt lat="52.965689" lon="05.982013"><ele>1</ele><time>2021-03-19T13:33:31Z</time><name>PT12168</name></trkpt>
<trkpt lat="52.965698" lon="05.982007"><ele>1</ele><time>2021-03-19T13:33:33Z</time><name>PT12169</name></trkpt>
<trkpt lat="52.965708" lon="05.981997"><ele>1</ele><time>2021-03-19T13:33:33Z</time><name>PT12170</name></trkpt>
<trkpt lat="52.965714" lon="05.981991"><ele>1</ele><time>2021-03-19T13:33:34Z</time><name>PT12171</name></trkpt>
<trkpt lat="52.965720" lon="05.981987"><ele>0.9</ele><time>2021-03-19T13:33:35Z</time><name>PT12172</name></trkpt>
<trkpt lat="52.965726" lon="05.981982"><ele>0.9</ele><time>2021-03-19T13:33:36Z</time><name>PT12173</name></trkpt>
<trkpt lat="52.965734" lon="05.981973"><ele>0.8</ele><time>2021-03-19T13:33:37Z</time><name>PT12174</name></trkpt>
<trkpt lat="52.965742" lon="05.981966"><ele>0.6</ele><time>2021-03-19T13:33:38Z</time><name>PT12175</name></trkpt>
<trkpt lat="52.965753" lon="05.981960"><ele>0.5</ele><time>2021-03-19T13:33:39Z</time><name>PT12176</name></trkpt>
<trkpt lat="52.965762" lon="05.981952"><ele>0.2</ele><time>2021-03-19T13:33:40Z</time><name>PT12177</name></trkpt>
<trkpt lat="52.965769" lon="05.981944"><ele>0</ele><time>2021-03-19T13:33:42Z</time><name>PT12178</name></trkpt>
<trkpt lat="52.965778" lon="05.981938"><ele>0</ele><time>2021-03-19T13:33:42Z</time><name>PT12179</name></trkpt>
<trkpt lat="52.965790" lon="05.981931"><ele>0.1</ele><time>2021-03-19T13:33:43Z</time><name>PT12180</name></trkpt>
<trkpt lat="52.965800" lon="05.981925"><ele>0</ele><time>2021-03-19T13:33:44Z</time><name>PT12181</name></trkpt>
<trkpt lat="52.965808" lon="05.981916"><ele>0.1</ele><time>2021-03-19T13:33:45Z</time><name>PT12182</name></trkpt>
<trkpt lat="52.965813" lon="05.981912"><ele>0.2</ele><time>2021-03-19T13:33:46Z</time><name>PT12183</name></trkpt>
<trkpt lat="52.965816" lon="05.981910"><ele>0.2</ele><time>2021-03-19T13:33:47Z</time><name>PT12184</name></trkpt>
<trkpt lat="52.965820" lon="05.981905"><ele>0.3</ele><time>2021-03-19T13:33:48Z</time><name>PT12185</name></trkpt>
<trkpt lat="52.965842" lon="05.981900"><ele>0.2</ele><time>2021-03-19T13:33:49Z</time><name>PT12186</name></trkpt>
<trkpt lat="52.965848" lon="05.981897"><ele>0.2</ele><time>2021-03-19T13:33:50Z</time><name>PT12187</name></trkpt>
<trkpt lat="52.965856" lon="05.981892"><ele>0.4</ele><time>2021-03-19T13:33:51Z</time><name>PT12188</name></trkpt>
<trkpt lat="52.965863" lon="05.981886"><ele>0.5</ele><time>2021-03-19T13:33:52Z</time><name>PT12189</name></trkpt>
<trkpt lat="52.965874" lon="05.981879"><ele>0.6</ele><time>2021-03-19T13:33:53Z</time><name>PT12190</name></trkpt>
<trkpt lat="52.965879" lon="05.981873"><ele>0.7</ele><time>2021-03-19T13:33:55Z</time><name>PT12191</name></trkpt>
<trkpt lat="52.965881" lon="05.981866"><ele>0.9</ele><time>2021-03-19T13:33:55Z</time><name>PT12192</name></trkpt>
<trkpt lat="52.965885" lon="05.981859"><ele>0.7</ele><time>2021-03-19T13:33:56Z</time><name>PT12193</name></trkpt>
<trkpt lat="52.965889" lon="05.981854"><ele>0.7</ele><time>2021-03-19T13:33:57Z</time><name>PT12194</name></trkpt>
<trkpt lat="52.965900" lon="05.981850"><ele>0.8</ele><time>2021-03-19T13:33:58Z</time><name>PT12195</name></trkpt>
<trkpt lat="52.965910" lon="05.981844"><ele>0.7</ele><time>2021-03-19T13:33:59Z</time><name>PT12196</name></trkpt>
<trkpt lat="52.965920" lon="05.981833"><ele>0.7</ele><time>2021-03-19T13:34:00Z</time><name>PT12197</name></trkpt>
<trkpt lat="52.965932" lon="05.981825"><ele>0.5</ele><time>2021-03-19T13:34:01Z</time><name>PT12198</name></trkpt>
<trkpt lat="52.965944" lon="05.981817"><ele>0.4</ele><time>2021-03-19T13:34:02Z</time><name>PT12199</name></trkpt>
<trkpt lat="52.965953" lon="05.981808"><ele>0.4</ele><time>2021-03-19T13:34:03Z</time><name>PT12200</name></trkpt>
<trkpt lat="52.965964" lon="05.981801"><ele>0.3</ele><time>2021-03-19T13:34:04Z</time><name>PT12201</name></trkpt>
<trkpt lat="52.965976" lon="05.981793"><ele>0.4</ele><time>2021-03-19T13:34:05Z</time><name>PT12202</name></trkpt>
<trkpt lat="52.965988" lon="05.981786"><ele>0.7</ele><time>2021-03-19T13:34:06Z</time><name>PT12203</name></trkpt>
<trkpt lat="52.966006" lon="05.981774"><ele>0.6</ele><time>2021-03-19T13:34:07Z</time><name>PT12204</name></trkpt>
<trkpt lat="52.966022" lon="05.981766"><ele>0.8</ele><time>2021-03-19T13:34:08Z</time><name>PT12205</name></trkpt>
<trkpt lat="52.966036" lon="05.981758"><ele>1</ele><time>2021-03-19T13:34:10Z</time><name>PT12206</name></trkpt>
<trkpt lat="52.966046" lon="05.981751"><ele>1</ele><time>2021-03-19T13:34:10Z</time><name>PT12207</name></trkpt>
<trkpt lat="52.966056" lon="05.981740"><ele>1</ele><time>2021-03-19T13:34:11Z</time><name>PT12208</name></trkpt>
<trkpt lat="52.966068" lon="05.981734"><ele>1</ele><time>2021-03-19T13:34:12Z</time><name>PT12209</name></trkpt>
<trkpt lat="52.966082" lon="05.981725"><ele>1.1</ele><time>2021-03-19T13:34:13Z</time><name>PT12210</name></trkpt>
<trkpt lat="52.966095" lon="05.981715"><ele>1.1</ele><time>2021-03-19T13:34:15Z</time><name>PT12211</name></trkpt>
<trkpt lat="52.966103" lon="05.981710"><ele>1.1</ele><time>2021-03-19T13:34:15Z</time><name>PT12212</name></trkpt>
<trkpt lat="52.966114" lon="05.981703"><ele>1.1</ele><time>2021-03-19T13:34:16Z</time><name>PT12213</name></trkpt>
<trkpt lat="52.966126" lon="05.981696"><ele>1</ele><time>2021-03-19T13:34:17Z</time><name>PT12214</name></trkpt>
<trkpt lat="52.966136" lon="05.981688"><ele>0.9</ele><time>2021-03-19T13:34:18Z</time><name>PT12215</name></trkpt>
<trkpt lat="52.966151" lon="05.981687"><ele>0.9</ele><time>2021-03-19T13:34:20Z</time><name>PT12216</name></trkpt>
<trkpt lat="52.966163" lon="05.981682"><ele>0.8</ele><time>2021-03-19T13:34:20Z</time><name>PT12217</name></trkpt>
<trkpt lat="52.966172" lon="05.981672"><ele>0.6</ele><time>2021-03-19T13:34:21Z</time><name>PT12218</name></trkpt>
<trkpt lat="52.966184" lon="05.981664"><ele>1</ele><time>2021-03-19T13:34:22Z</time><name>PT12219</name></trkpt>
<trkpt lat="52.966194" lon="05.981657"><ele>1</ele><time>2021-03-19T13:34:23Z</time><name>PT12220</name></trkpt>
<trkpt lat="52.966202" lon="05.981651"><ele>0.9</ele><time>2021-03-19T13:34:24Z</time><name>PT12221</name></trkpt>
<trkpt lat="52.966210" lon="05.981648"><ele>1.2</ele><time>2021-03-19T13:34:25Z</time><name>PT12222</name></trkpt>
<trkpt lat="52.966220" lon="05.981639"><ele>1.2</ele><time>2021-03-19T13:34:26Z</time><name>PT12223</name></trkpt>
<trkpt lat="52.966229" lon="05.981628"><ele>1</ele><time>2021-03-19T13:34:27Z</time><name>PT12224</name></trkpt>
<trkpt lat="52.966239" lon="05.981619"><ele>1</ele><time>2021-03-19T13:34:28Z</time><name>PT12225</name></trkpt>
<trkpt lat="52.966248" lon="05.981610"><ele>1</ele><time>2021-03-19T13:34:29Z</time><name>PT12226</name></trkpt>
<trkpt lat="52.966257" lon="05.981600"><ele>0.9</ele><time>2021-03-19T13:34:31Z</time><name>PT12227</name></trkpt>
<trkpt lat="52.966267" lon="05.981593"><ele>0.9</ele><time>2021-03-19T13:34:31Z</time><name>PT12228</name></trkpt>
<trkpt lat="52.966279" lon="05.981584"><ele>0.7</ele><time>2021-03-19T13:34:32Z</time><name>PT12229</name></trkpt>
<trkpt lat="52.966287" lon="05.981574"><ele>0.7</ele><time>2021-03-19T13:34:33Z</time><name>PT12230</name></trkpt>
<trkpt lat="52.966300" lon="05.981565"><ele>0.5</ele><time>2021-03-19T13:34:34Z</time><name>PT12231</name></trkpt>
<trkpt lat="52.966306" lon="05.981556"><ele>0.5</ele><time>2021-03-19T13:34:35Z</time><name>PT12232</name></trkpt>
<trkpt lat="52.966317" lon="05.981549"><ele>0.3</ele><time>2021-03-19T13:34:36Z</time><name>PT12233</name></trkpt>
<trkpt lat="52.966326" lon="05.981542"><ele>0.4</ele><time>2021-03-19T13:34:38Z</time><name>PT12234</name></trkpt>
<trkpt lat="52.966336" lon="05.981534"><ele>0.3</ele><time>2021-03-19T13:34:38Z</time><name>PT12235</name></trkpt>
<trkpt lat="52.966344" lon="05.981526"><ele>0.2</ele><time>2021-03-19T13:34:39Z</time><name>PT12236</name></trkpt>
<trkpt lat="52.966353" lon="05.981515"><ele>0.2</ele><time>2021-03-19T13:34:41Z</time><name>PT12237</name></trkpt>
<trkpt lat="52.966362" lon="05.981506"><ele>0.2</ele><time>2021-03-19T13:34:41Z</time><name>PT12238</name></trkpt>
<trkpt lat="52.966371" lon="05.981498"><ele>0.4</ele><time>2021-03-19T13:34:42Z</time><name>PT12239</name></trkpt>
<trkpt lat="52.966376" lon="05.981489"><ele>0.5</ele><time>2021-03-19T13:34:44Z</time><name>PT12240</name></trkpt>
<trkpt lat="52.966378" lon="05.981485"><ele>0.3</ele><time>2021-03-19T13:34:44Z</time><name>PT12241</name></trkpt>
<trkpt lat="52.966380" lon="05.981482"><ele>0.2</ele><time>2021-03-19T13:34:45Z</time><name>PT12242</name></trkpt>
<trkpt lat="52.966388" lon="05.981475"><ele>0.2</ele><time>2021-03-19T13:34:46Z</time><name>PT12243</name></trkpt>
<trkpt lat="52.966400" lon="05.981470"><ele>0.1</ele><time>2021-03-19T13:34:47Z</time><name>PT12244</name></trkpt>
<trkpt lat="52.966409" lon="05.981465"><ele>0.1</ele><time>2021-03-19T13:34:48Z</time><name>PT12245</name></trkpt>
<trkpt lat="52.966416" lon="05.981457"><ele>0.2</ele><time>2021-03-19T13:34:49Z</time><name>PT12246</name></trkpt>
<trkpt lat="52.966424" lon="05.981452"><ele>0.3</ele><time>2021-03-19T13:34:50Z</time><name>PT12247</name></trkpt>
<trkpt lat="52.966432" lon="05.981447"><ele>0.4</ele><time>2021-03-19T13:34:51Z</time><name>PT12248</name></trkpt>
<trkpt lat="52.966437" lon="05.981443"><ele>0.4</ele><time>2021-03-19T13:34:52Z</time><name>PT12249</name></trkpt>
<trkpt lat="52.966448" lon="05.981441"><ele>0.3</ele><time>2021-03-19T13:34:53Z</time><name>PT12250</name></trkpt>
<trkpt lat="52.966457" lon="05.981437"><ele>0.2</ele><time>2021-03-19T13:34:55Z</time><name>PT12251</name></trkpt>
<trkpt lat="52.966464" lon="05.981435"><ele>0.2</ele><time>2021-03-19T13:34:55Z</time><name>PT12252</name></trkpt>
<trkpt lat="52.966476" lon="05.981428"><ele>0.2</ele><time>2021-03-19T13:34:56Z</time><name>PT12253</name></trkpt>
<trkpt lat="52.966481" lon="05.981419"><ele>0</ele><time>2021-03-19T13:34:57Z</time><name>PT12254</name></trkpt>
<trkpt lat="52.966490" lon="05.981412"><ele>0</ele><time>2021-03-19T13:34:58Z</time><name>PT12255</name></trkpt>
<trkpt lat="52.966499" lon="05.981404"><ele>0</ele><time>2021-03-19T13:35:00Z</time><name>PT12256</name></trkpt>
<trkpt lat="52.966511" lon="05.981397"><ele>0.1</ele><time>2021-03-19T13:35:00Z</time><name>PT12257</name></trkpt>
<trkpt lat="52.966519" lon="05.981390"><ele>0</ele><time>2021-03-19T13:35:01Z</time><name>PT12258</name></trkpt>
<trkpt lat="52.966530" lon="05.981384"><ele>0.1</ele><time>2021-03-19T13:35:03Z</time><name>PT12259</name></trkpt>
<trkpt lat="52.966541" lon="05.981377"><ele>0.2</ele><time>2021-03-19T13:35:03Z</time><name>PT12260</name></trkpt>
<trkpt lat="52.966548" lon="05.981367"><ele>0.2</ele><time>2021-03-19T13:35:04Z</time><name>PT12261</name></trkpt>
<trkpt lat="52.966555" lon="05.981356"><ele>0.3</ele><time>2021-03-19T13:35:06Z</time><name>PT12262</name></trkpt>
<trkpt lat="52.966566" lon="05.981346"><ele>0.3</ele><time>2021-03-19T13:35:06Z</time><name>PT12263</name></trkpt>
<trkpt lat="52.966575" lon="05.981338"><ele>0.2</ele><time>2021-03-19T13:35:07Z</time><name>PT12264</name></trkpt>
<trkpt lat="52.966584" lon="05.981331"><ele>0.2</ele><time>2021-03-19T13:35:08Z</time><name>PT12265</name></trkpt>
<trkpt lat="52.966593" lon="05.981321"><ele>0.3</ele><time>2021-03-19T13:35:09Z</time><name>PT12266</name></trkpt>
<trkpt lat="52.966600" lon="05.981312"><ele>0.3</ele><time>2021-03-19T13:35:10Z</time><name>PT12267</name></trkpt>
<trkpt lat="52.966609" lon="05.981311"><ele>0.3</ele><time>2021-03-19T13:35:11Z</time><name>PT12268</name></trkpt>
<trkpt lat="52.966619" lon="05.981304"><ele>0.1</ele><time>2021-03-19T13:35:12Z</time><name>PT12269</name></trkpt>
<trkpt lat="52.966628" lon="05.981296"><ele>0.1</ele><time>2021-03-19T13:35:14Z</time><name>PT12270</name></trkpt>
<trkpt lat="52.966635" lon="05.981283"><ele>0</ele><time>2021-03-19T13:35:14Z</time><name>PT12271</name></trkpt>
<trkpt lat="52.966644" lon="05.981274"><ele>0.1</ele><time>2021-03-19T13:35:15Z</time><name>PT12272</name></trkpt>
<trkpt lat="52.966654" lon="05.981267"><ele>0.1</ele><time>2021-03-19T13:35:16Z</time><name>PT12273</name></trkpt>
<trkpt lat="52.966663" lon="05.981258"><ele>0</ele><time>2021-03-19T13:35:17Z</time><name>PT12274</name></trkpt>
<trkpt lat="52.966672" lon="05.981255"><ele>0.1</ele><time>2021-03-19T13:35:19Z</time><name>PT12275</name></trkpt>
<trkpt lat="52.966682" lon="05.981249"><ele>0</ele><time>2021-03-19T13:35:19Z</time><name>PT12276</name></trkpt>
<trkpt lat="52.966690" lon="05.981242"><ele>0</ele><time>2021-03-19T13:35:20Z</time><name>PT12277</name></trkpt>
<trkpt lat="52.966697" lon="05.981233"><ele>0.1</ele><time>2021-03-19T13:35:21Z</time><name>PT12278</name></trkpt>
<trkpt lat="52.966703" lon="05.981226"><ele>0.1</ele><time>2021-03-19T13:35:22Z</time><name>PT12279</name></trkpt>
<trkpt lat="52.966708" lon="05.981220"><ele>0.1</ele><time>2021-03-19T13:35:23Z</time><name>PT12280</name></trkpt>
<trkpt lat="52.966717" lon="05.981213"><ele>0.2</ele><time>2021-03-19T13:35:24Z</time><name>PT12281</name></trkpt>
<trkpt lat="52.966723" lon="05.981209"><ele>0.3</ele><time>2021-03-19T13:35:25Z</time><name>PT12282</name></trkpt>
<trkpt lat="52.966727" lon="05.981204"><ele>0.3</ele><time>2021-03-19T13:35:26Z</time><name>PT12283</name></trkpt>
<trkpt lat="52.966735" lon="05.981190"><ele>0.3</ele><time>2021-03-19T13:35:27Z</time><name>PT12284</name></trkpt>
<trkpt lat="52.966744" lon="05.981175"><ele>0.4</ele><time>2021-03-19T13:35:28Z</time><name>PT12285</name></trkpt>
<trkpt lat="52.966754" lon="05.981170"><ele>0.4</ele><time>2021-03-19T13:35:29Z</time><name>PT12286</name></trkpt>
<trkpt lat="52.966769" lon="05.981162"><ele>0.2</ele><time>2021-03-19T13:35:30Z</time><name>PT12287</name></trkpt>
<trkpt lat="52.966779" lon="05.981156"><ele>0.3</ele><time>2021-03-19T13:35:31Z</time><name>PT12288</name></trkpt>
<trkpt lat="52.966790" lon="05.981151"><ele>0.2</ele><time>2021-03-19T13:35:32Z</time><name>PT12289</name></trkpt>
<trkpt lat="52.966799" lon="05.981144"><ele>0.1</ele><time>2021-03-19T13:35:33Z</time><name>PT12290</name></trkpt>
<trkpt lat="52.966809" lon="05.981133"><ele>0</ele><time>2021-03-19T13:35:34Z</time><name>PT12291</name></trkpt>
<trkpt lat="52.966817" lon="05.981127"><ele>0</ele><time>2021-03-19T13:35:35Z</time><name>PT12292</name></trkpt>
<trkpt lat="52.966825" lon="05.981119"><ele>0</ele><time>2021-03-19T13:35:36Z</time><name>PT12293</name></trkpt>
<trkpt lat="52.966835" lon="05.981109"><ele>0.1</ele><time>2021-03-19T13:35:38Z</time><name>PT12294</name></trkpt>
<trkpt lat="52.966844" lon="05.981103"><ele>0.1</ele><time>2021-03-19T13:35:38Z</time><name>PT12295</name></trkpt>
<trkpt lat="52.966850" lon="05.981091"><ele>0.2</ele><time>2021-03-19T13:35:39Z</time><name>PT12296</name></trkpt>
<trkpt lat="52.966858" lon="05.981080"><ele>0.3</ele><time>2021-03-19T13:35:40Z</time><name>PT12297</name></trkpt>
<trkpt lat="52.966868" lon="05.981073"><ele>0.1</ele><time>2021-03-19T13:35:41Z</time><name>PT12298</name></trkpt>
<trkpt lat="52.966877" lon="05.981064"><ele>0.3</ele><time>2021-03-19T13:35:42Z</time><name>PT12299</name></trkpt>
<trkpt lat="52.966884" lon="05.981056"><ele>0.5</ele><time>2021-03-19T13:35:43Z</time><name>PT12300</name></trkpt>
<trkpt lat="52.966894" lon="05.981048"><ele>0.3</ele><time>2021-03-19T13:35:45Z</time><name>PT12301</name></trkpt>
<trkpt lat="52.966903" lon="05.981038"><ele>0.3</ele><time>2021-03-19T13:35:45Z</time><name>PT12302</name></trkpt>
<trkpt lat="52.966913" lon="05.981030"><ele>0.3</ele><time>2021-03-19T13:35:46Z</time><name>PT12303</name></trkpt>
<trkpt lat="52.966919" lon="05.981025"><ele>0.2</ele><time>2021-03-19T13:35:47Z</time><name>PT12304</name></trkpt>
<trkpt lat="52.966927" lon="05.981017"><ele>0.1</ele><time>2021-03-19T13:35:48Z</time><name>PT12305</name></trkpt>
<trkpt lat="52.966934" lon="05.981010"><ele>0.3</ele><time>2021-03-19T13:35:49Z</time><name>PT12306</name></trkpt>
<trkpt lat="52.966936" lon="05.981006"><ele>0.4</ele><time>2021-03-19T13:35:50Z</time><name>PT12307</name></trkpt>
<trkpt lat="52.966942" lon="05.981003"><ele>0.3</ele><time>2021-03-19T13:35:52Z</time><name>PT12308</name></trkpt>
<trkpt lat="52.966952" lon="05.980990"><ele>0.5</ele><time>2021-03-19T13:35:52Z</time><name>PT12309</name></trkpt>
<trkpt lat="52.966961" lon="05.980972"><ele>0.5</ele><time>2021-03-19T13:35:53Z</time><name>PT12310</name></trkpt>
<trkpt lat="52.966967" lon="05.980963"><ele>0.4</ele><time>2021-03-19T13:35:55Z</time><name>PT12311</name></trkpt>
<trkpt lat="52.966974" lon="05.980948"><ele>0.4</ele><time>2021-03-19T13:35:55Z</time><name>PT12312</name></trkpt>
<trkpt lat="52.966977" lon="05.980938"><ele>0.4</ele><time>2021-03-19T13:35:56Z</time><name>PT12313</name></trkpt>
<trkpt lat="52.966982" lon="05.980932"><ele>0.4</ele><time>2021-03-19T13:35:57Z</time><name>PT12314</name></trkpt>
<trkpt lat="52.966991" lon="05.980918"><ele>0.3</ele><time>2021-03-19T13:35:58Z</time><name>PT12315</name></trkpt>
<trkpt lat="52.967001" lon="05.980904"><ele>0.3</ele><time>2021-03-19T13:35:59Z</time><name>PT12316</name></trkpt>
<trkpt lat="52.967010" lon="05.980887"><ele>0.3</ele><time>2021-03-19T13:36:00Z</time><name>PT12317</name></trkpt>
<trkpt lat="52.967020" lon="05.980875"><ele>0.3</ele><time>2021-03-19T13:36:02Z</time><name>PT12318</name></trkpt>
<trkpt lat="52.967029" lon="05.980865"><ele>0.3</ele><time>2021-03-19T13:36:02Z</time><name>PT12319</name></trkpt>
<trkpt lat="52.967036" lon="05.980851"><ele>0.4</ele><time>2021-03-19T13:36:03Z</time><name>PT12320</name></trkpt>
<trkpt lat="52.967047" lon="05.980835"><ele>0.4</ele><time>2021-03-19T13:36:04Z</time><name>PT12321</name></trkpt>
<trkpt lat="52.967055" lon="05.980824"><ele>0.3</ele><time>2021-03-19T13:36:05Z</time><name>PT12322</name></trkpt>
<trkpt lat="52.967061" lon="05.980815"><ele>0.4</ele><time>2021-03-19T13:36:06Z</time><name>PT12323</name></trkpt>
<trkpt lat="52.967074" lon="05.980800"><ele>0.5</ele><time>2021-03-19T13:36:07Z</time><name>PT12324</name></trkpt>
<trkpt lat="52.967085" lon="05.980788"><ele>0.3</ele><time>2021-03-19T13:36:09Z</time><name>PT12325</name></trkpt>
<trkpt lat="52.967096" lon="05.980780"><ele>0.2</ele><time>2021-03-19T13:36:09Z</time><name>PT12326</name></trkpt>
<trkpt lat="52.967101" lon="05.980772"><ele>0.3</ele><time>2021-03-19T13:36:10Z</time><name>PT12327</name></trkpt>
<trkpt lat="52.967109" lon="05.980765"><ele>0.2</ele><time>2021-03-19T13:36:11Z</time><name>PT12328</name></trkpt>
<trkpt lat="52.967116" lon="05.980756"><ele>0.2</ele><time>2021-03-19T13:36:12Z</time><name>PT12329</name></trkpt>
<trkpt lat="52.967124" lon="05.980743"><ele>0.4</ele><time>2021-03-19T13:36:13Z</time><name>PT12330</name></trkpt>
<trkpt lat="52.967132" lon="05.980733"><ele>0.4</ele><time>2021-03-19T13:36:14Z</time><name>PT12331</name></trkpt>
<trkpt lat="52.967143" lon="05.980723"><ele>0.1</ele><time>2021-03-19T13:36:15Z</time><name>PT12332</name></trkpt>
<trkpt lat="52.967150" lon="05.980717"><ele>0.1</ele><time>2021-03-19T13:36:16Z</time><name>PT12333</name></trkpt>
<trkpt lat="52.967159" lon="05.980706"><ele>0.1</ele><time>2021-03-19T13:36:17Z</time><name>PT12334</name></trkpt>
<trkpt lat="52.967167" lon="05.980699"><ele>0.1</ele><time>2021-03-19T13:36:18Z</time><name>PT12335</name></trkpt>
<trkpt lat="52.967177" lon="05.980688"><ele>0.1</ele><time>2021-03-19T13:36:19Z</time><name>PT12336</name></trkpt>
<trkpt lat="52.967190" lon="05.980670"><ele>0.1</ele><time>2021-03-19T13:36:20Z</time><name>PT12337</name></trkpt>
<trkpt lat="52.967196" lon="05.980661"><ele>0</ele><time>2021-03-19T13:36:22Z</time><name>PT12338</name></trkpt>
<trkpt lat="52.967206" lon="05.980657"><ele>0</ele><time>2021-03-19T13:36:22Z</time><name>PT12339</name></trkpt>
<trkpt lat="52.967220" lon="05.980652"><ele>0.2</ele><time>2021-03-19T13:36:23Z</time><name>PT12340</name></trkpt>
<trkpt lat="52.967233" lon="05.980648"><ele>0.2</ele><time>2021-03-19T13:36:25Z</time><name>PT12341</name></trkpt>
<trkpt lat="52.967242" lon="05.980640"><ele>0.1</ele><time>2021-03-19T13:36:25Z</time><name>PT12342</name></trkpt>
<trkpt lat="52.967249" lon="05.980635"><ele>0</ele><time>2021-03-19T13:36:26Z</time><name>PT12343</name></trkpt>
<trkpt lat="52.967260" lon="05.980628"><ele>0.1</ele><time>2021-03-19T13:36:28Z</time><name>PT12344</name></trkpt>
<trkpt lat="52.967267" lon="05.980620"><ele>0.1</ele><time>2021-03-19T13:36:28Z</time><name>PT12345</name></trkpt>
<trkpt lat="52.967277" lon="05.980612"><ele>0</ele><time>2021-03-19T13:36:29Z</time><name>PT12346</name></trkpt>
<trkpt lat="52.967287" lon="05.980602"><ele>0</ele><time>2021-03-19T13:36:31Z</time><name>PT12347</name></trkpt>
<trkpt lat="52.967301" lon="05.980595"><ele>0</ele><time>2021-03-19T13:36:31Z</time><name>PT12348</name></trkpt>
<trkpt lat="52.967312" lon="05.980590"><ele>0</ele><time>2021-03-19T13:36:32Z</time><name>PT12349</name></trkpt>
<trkpt lat="52.967322" lon="05.980586"><ele>0</ele><time>2021-03-19T13:36:33Z</time><name>PT12350</name></trkpt>
<trkpt lat="52.967334" lon="05.980577"><ele>0</ele><time>2021-03-19T13:36:34Z</time><name>PT12351</name></trkpt>
<trkpt lat="52.967344" lon="05.980567"><ele>0</ele><time>2021-03-19T13:36:35Z</time><name>PT12352</name></trkpt>
<trkpt lat="52.967355" lon="05.980557"><ele>0.2</ele><time>2021-03-19T13:36:36Z</time><name>PT12353</name></trkpt>
<trkpt lat="52.967365" lon="05.980550"><ele>0</ele><time>2021-03-19T13:36:38Z</time><name>PT12354</name></trkpt>
<trkpt lat="52.967375" lon="05.980545"><ele>0</ele><time>2021-03-19T13:36:38Z</time><name>PT12355</name></trkpt>
<trkpt lat="52.967385" lon="05.980540"><ele>0</ele><time>2021-03-19T13:36:39Z</time><name>PT12356</name></trkpt>
<trkpt lat="52.967394" lon="05.980536"><ele>0</ele><time>2021-03-19T13:36:41Z</time><name>PT12357</name></trkpt>
<trkpt lat="52.967402" lon="05.980528"><ele>0.1</ele><time>2021-03-19T13:36:41Z</time><name>PT12358</name></trkpt>
<trkpt lat="52.967411" lon="05.980520"><ele>0</ele><time>2021-03-19T13:36:42Z</time><name>PT12359</name></trkpt>
<trkpt lat="52.967419" lon="05.980515"><ele>0.1</ele><time>2021-03-19T13:36:43Z</time><name>PT12360</name></trkpt>
<trkpt lat="52.967426" lon="05.980507"><ele>0.1</ele><time>2021-03-19T13:36:44Z</time><name>PT12361</name></trkpt>
<trkpt lat="52.967434" lon="05.980497"><ele>0.1</ele><time>2021-03-19T13:36:45Z</time><name>PT12362</name></trkpt>
<trkpt lat="52.967442" lon="05.980487"><ele>0.1</ele><time>2021-03-19T13:36:46Z</time><name>PT12363</name></trkpt>
<trkpt lat="52.967450" lon="05.980481"><ele>0.1</ele><time>2021-03-19T13:36:47Z</time><name>PT12364</name></trkpt>
<trkpt lat="52.967460" lon="05.980474"><ele>0.1</ele><time>2021-03-19T13:36:48Z</time><name>PT12365</name></trkpt>
<trkpt lat="52.967471" lon="05.980465"><ele>0</ele><time>2021-03-19T13:36:49Z</time><name>PT12366</name></trkpt>
<trkpt lat="52.967480" lon="05.980454"><ele>0.1</ele><time>2021-03-19T13:36:50Z</time><name>PT12367</name></trkpt>
<trkpt lat="52.967490" lon="05.980441"><ele>0.3</ele><time>2021-03-19T13:36:51Z</time><name>PT12368</name></trkpt>
<trkpt lat="52.967497" lon="05.980430"><ele>0.4</ele><time>2021-03-19T13:36:52Z</time><name>PT12369</name></trkpt>
<trkpt lat="52.967508" lon="05.980422"><ele>0.3</ele><time>2021-03-19T13:36:53Z</time><name>PT12370</name></trkpt>
<trkpt lat="52.967517" lon="05.980414"><ele>0.2</ele><time>2021-03-19T13:36:54Z</time><name>PT12371</name></trkpt>
<trkpt lat="52.967524" lon="05.980403"><ele>0</ele><time>2021-03-19T13:36:55Z</time><name>PT12372</name></trkpt>
<trkpt lat="52.967529" lon="05.980393"><ele>0.2</ele><time>2021-03-19T13:36:56Z</time><name>PT12373</name></trkpt>
<trkpt lat="52.967532" lon="05.980387"><ele>0.3</ele><time>2021-03-19T13:36:57Z</time><name>PT12374</name></trkpt>
<trkpt lat="52.967535" lon="05.980380"><ele>0.3</ele><time>2021-03-19T13:36:58Z</time><name>PT12375</name></trkpt>
<trkpt lat="52.967536" lon="05.980373"><ele>0.2</ele><time>2021-03-19T13:36:59Z</time><name>PT12376</name></trkpt>
<trkpt lat="52.967536" lon="05.980363"><ele>0.3</ele><time>2021-03-19T13:37:00Z</time><name>PT12377</name></trkpt>
<trkpt lat="52.967538" lon="05.980351"><ele>0.4</ele><time>2021-03-19T13:37:02Z</time><name>PT12378</name></trkpt>
<trkpt lat="52.967543" lon="05.980337"><ele>0.5</ele><time>2021-03-19T13:37:02Z</time><name>PT12379</name></trkpt>
<trkpt lat="52.967546" lon="05.980322"><ele>0.6</ele><time>2021-03-19T13:37:03Z</time><name>PT12380</name></trkpt>
<trkpt lat="52.967546" lon="05.980308"><ele>0.7</ele><time>2021-03-19T13:37:04Z</time><name>PT12381</name></trkpt>
<trkpt lat="52.967547" lon="05.980294"><ele>0.7</ele><time>2021-03-19T13:37:05Z</time><name>PT12382</name></trkpt>
<trkpt lat="52.967549" lon="05.980279"><ele>0.7</ele><time>2021-03-19T13:37:07Z</time><name>PT12383</name></trkpt>
<trkpt lat="52.967554" lon="05.980263"><ele>0.7</ele><time>2021-03-19T13:37:07Z</time><name>PT12384</name></trkpt>
<trkpt lat="52.967558" lon="05.980245"><ele>0.5</ele><time>2021-03-19T13:37:08Z</time><name>PT12385</name></trkpt>
<trkpt lat="52.967560" lon="05.980230"><ele>0.5</ele><time>2021-03-19T13:37:10Z</time><name>PT12386</name></trkpt>
<trkpt lat="52.967564" lon="05.980212"><ele>0.5</ele><time>2021-03-19T13:37:10Z</time><name>PT12387</name></trkpt>
<trkpt lat="52.967567" lon="05.980195"><ele>0.5</ele><time>2021-03-19T13:37:11Z</time><name>PT12388</name></trkpt>
<trkpt lat="52.967571" lon="05.980177"><ele>0.3</ele><time>2021-03-19T13:37:13Z</time><name>PT12389</name></trkpt>
<trkpt lat="52.967576" lon="05.980158"><ele>0.1</ele><time>2021-03-19T13:37:13Z</time><name>PT12390</name></trkpt>
<trkpt lat="52.967580" lon="05.980140"><ele>0</ele><time>2021-03-19T13:37:14Z</time><name>PT12391</name></trkpt>
<trkpt lat="52.967583" lon="05.980123"><ele>0</ele><time>2021-03-19T13:37:16Z</time><name>PT12392</name></trkpt>
<trkpt lat="52.967585" lon="05.980105"><ele>0</ele><time>2021-03-19T13:37:16Z</time><name>PT12393</name></trkpt>
<trkpt lat="52.967588" lon="05.980092"><ele>0</ele><time>2021-03-19T13:37:17Z</time><name>PT12394</name></trkpt>
<trkpt lat="52.967590" lon="05.980077"><ele>0.1</ele><time>2021-03-19T13:37:19Z</time><name>PT12395</name></trkpt>
<trkpt lat="52.967594" lon="05.980059"><ele>0.2</ele><time>2021-03-19T13:37:19Z</time><name>PT12396</name></trkpt>
<trkpt lat="52.967598" lon="05.980041"><ele>0.1</ele><time>2021-03-19T13:37:20Z</time><name>PT12397</name></trkpt>
<trkpt lat="52.967600" lon="05.980022"><ele>0</ele><time>2021-03-19T13:37:21Z</time><name>PT12398</name></trkpt>
<trkpt lat="52.967604" lon="05.980004"><ele>0</ele><time>2021-03-19T13:37:22Z</time><name>PT12399</name></trkpt>
<trkpt lat="52.967606" lon="05.979990"><ele>0</ele><time>2021-03-19T13:37:23Z</time><name>PT12400</name></trkpt>
<trkpt lat="52.967608" lon="05.979974"><ele>0.1</ele><time>2021-03-19T13:37:24Z</time><name>PT12401</name></trkpt>
<trkpt lat="52.967609" lon="05.979958"><ele>0</ele><time>2021-03-19T13:37:25Z</time><name>PT12402</name></trkpt>
<trkpt lat="52.967610" lon="05.979940"><ele>0</ele><time>2021-03-19T13:37:26Z</time><name>PT12403</name></trkpt>
<trkpt lat="52.967613" lon="05.979923"><ele>0</ele><time>2021-03-19T13:37:28Z</time><name>PT12404</name></trkpt>
<trkpt lat="52.967616" lon="05.979908"><ele>0.2</ele><time>2021-03-19T13:37:28Z</time><name>PT12405</name></trkpt>
<trkpt lat="52.967617" lon="05.979892"><ele>0.1</ele><time>2021-03-19T13:37:29Z</time><name>PT12406</name></trkpt>
<trkpt lat="52.967617" lon="05.979877"><ele>0.3</ele><time>2021-03-19T13:37:31Z</time><name>PT12407</name></trkpt>
<trkpt lat="52.967620" lon="05.979860"><ele>0.3</ele><time>2021-03-19T13:37:31Z</time><name>PT12408</name></trkpt>
<trkpt lat="52.967624" lon="05.979841"><ele>0.3</ele><time>2021-03-19T13:37:32Z</time><name>PT12409</name></trkpt>
<trkpt lat="52.967629" lon="05.979821"><ele>0.2</ele><time>2021-03-19T13:37:33Z</time><name>PT12410</name></trkpt>
<trkpt lat="52.967631" lon="05.979803"><ele>0.2</ele><time>2021-03-19T13:37:34Z</time><name>PT12411</name></trkpt>
<trkpt lat="52.967633" lon="05.979786"><ele>0.2</ele><time>2021-03-19T13:37:36Z</time><name>PT12412</name></trkpt>
<trkpt lat="52.967632" lon="05.979768"><ele>0.2</ele><time>2021-03-19T13:37:36Z</time><name>PT12413</name></trkpt>
<trkpt lat="52.967631" lon="05.979753"><ele>0.3</ele><time>2021-03-19T13:37:37Z</time><name>PT12414</name></trkpt>
<trkpt lat="52.967630" lon="05.979741"><ele>0.3</ele><time>2021-03-19T13:37:38Z</time><name>PT12415</name></trkpt>
<trkpt lat="52.967631" lon="05.979726"><ele>0.3</ele><time>2021-03-19T13:37:39Z</time><name>PT12416</name></trkpt>
<trkpt lat="52.967629" lon="05.979708"><ele>0.2</ele><time>2021-03-19T13:37:40Z</time><name>PT12417</name></trkpt>
<trkpt lat="52.967630" lon="05.979691"><ele>0.3</ele><time>2021-03-19T13:37:41Z</time><name>PT12418</name></trkpt>
<trkpt lat="52.967637" lon="05.979673"><ele>0.2</ele><time>2021-03-19T13:37:42Z</time><name>PT12419</name></trkpt>
<trkpt lat="52.967638" lon="05.979659"><ele>0.1</ele><time>2021-03-19T13:37:43Z</time><name>PT12420</name></trkpt>
<trkpt lat="52.967638" lon="05.979643"><ele>0</ele><time>2021-03-19T13:37:44Z</time><name>PT12421</name></trkpt>
<trkpt lat="52.967641" lon="05.979627"><ele>0</ele><time>2021-03-19T13:37:45Z</time><name>PT12422</name></trkpt>
<trkpt lat="52.967641" lon="05.979613"><ele>0.1</ele><time>2021-03-19T13:37:46Z</time><name>PT12423</name></trkpt>
<trkpt lat="52.967644" lon="05.979598"><ele>0</ele><time>2021-03-19T13:37:47Z</time><name>PT12424</name></trkpt>
<trkpt lat="52.967645" lon="05.979584"><ele>0.1</ele><time>2021-03-19T13:37:48Z</time><name>PT12425</name></trkpt>
<trkpt lat="52.967646" lon="05.979568"><ele>0</ele><time>2021-03-19T13:37:49Z</time><name>PT12426</name></trkpt>
<trkpt lat="52.967644" lon="05.979555"><ele>0</ele><time>2021-03-19T13:37:50Z</time><name>PT12427</name></trkpt>
<trkpt lat="52.967641" lon="05.979542"><ele>0.1</ele><time>2021-03-19T13:37:51Z</time><name>PT12428</name></trkpt>
<trkpt lat="52.967642" lon="05.979527"><ele>0.1</ele><time>2021-03-19T13:37:52Z</time><name>PT12429</name></trkpt>
<trkpt lat="52.967645" lon="05.979513"><ele>0.1</ele><time>2021-03-19T13:37:53Z</time><name>PT12430</name></trkpt>
<trkpt lat="52.967652" lon="05.979501"><ele>0.1</ele><time>2021-03-19T13:37:55Z</time><name>PT12431</name></trkpt>
<trkpt lat="52.967655" lon="05.979486"><ele>0.3</ele><time>2021-03-19T13:37:55Z</time><name>PT12432</name></trkpt>
<trkpt lat="52.967657" lon="05.979474"><ele>0.2</ele><time>2021-03-19T13:37:56Z</time><name>PT12433</name></trkpt>
<trkpt lat="52.967657" lon="05.979461"><ele>0.1</ele><time>2021-03-19T13:37:58Z</time><name>PT12434</name></trkpt>
<trkpt lat="52.967660" lon="05.979444"><ele>0.1</ele><time>2021-03-19T13:37:58Z</time><name>PT12435</name></trkpt>
<trkpt lat="52.967663" lon="05.979429"><ele>0</ele><time>2021-03-19T13:37:59Z</time><name>PT12436</name></trkpt>
<trkpt lat="52.967664" lon="05.979414"><ele>0.2</ele><time>2021-03-19T13:38:00Z</time><name>PT12437</name></trkpt>
<trkpt lat="52.967667" lon="05.979395"><ele>0.3</ele><time>2021-03-19T13:38:01Z</time><name>PT12438</name></trkpt>
<trkpt lat="52.967669" lon="05.979378"><ele>0.3</ele><time>2021-03-19T13:38:03Z</time><name>PT12439</name></trkpt>
<trkpt lat="52.967665" lon="05.979362"><ele>0.3</ele><time>2021-03-19T13:38:03Z</time><name>PT12440</name></trkpt>
<trkpt lat="52.967663" lon="05.979344"><ele>0.1</ele><time>2021-03-19T13:38:04Z</time><name>PT12441</name></trkpt>
<trkpt lat="52.967664" lon="05.979324"><ele>0</ele><time>2021-03-19T13:38:06Z</time><name>PT12442</name></trkpt>
<trkpt lat="52.967666" lon="05.979305"><ele>0</ele><time>2021-03-19T13:38:06Z</time><name>PT12443</name></trkpt>
<trkpt lat="52.967656" lon="05.979281"><ele>0</ele><time>2021-03-19T13:38:07Z</time><name>PT12444</name></trkpt>
<trkpt lat="52.967655" lon="05.979254"><ele>0</ele><time>2021-03-19T13:38:08Z</time><name>PT12445</name></trkpt>
<trkpt lat="52.967657" lon="05.979235"><ele>0</ele><time>2021-03-19T13:38:09Z</time><name>PT12446</name></trkpt>
<trkpt lat="52.967660" lon="05.979214"><ele>0</ele><time>2021-03-19T13:38:11Z</time><name>PT12447</name></trkpt>
<trkpt lat="52.967664" lon="05.979195"><ele>0</ele><time>2021-03-19T13:38:11Z</time><name>PT12448</name></trkpt>
<trkpt lat="52.967669" lon="05.979179"><ele>0.1</ele><time>2021-03-19T13:38:12Z</time><name>PT12449</name></trkpt>
<trkpt lat="52.967673" lon="05.979158"><ele>0.1</ele><time>2021-03-19T13:38:13Z</time><name>PT12450</name></trkpt>
<trkpt lat="52.967680" lon="05.979125"><ele>0.1</ele><time>2021-03-19T13:38:14Z</time><name>PT12451</name></trkpt>
<trkpt lat="52.967684" lon="05.979087"><ele>0</ele><time>2021-03-19T13:38:15Z</time><name>PT12452</name></trkpt>
<trkpt lat="52.967691" lon="05.979066"><ele>0.1</ele><time>2021-03-19T13:38:16Z</time><name>PT12453</name></trkpt>
<trkpt lat="52.967692" lon="05.979048"><ele>0.1</ele><time>2021-03-19T13:38:17Z</time><name>PT12454</name></trkpt>
<trkpt lat="52.967695" lon="05.979027"><ele>0</ele><time>2021-03-19T13:38:18Z</time><name>PT12455</name></trkpt>
<trkpt lat="52.967698" lon="05.979006"><ele>0.3</ele><time>2021-03-19T13:38:19Z</time><name>PT12456</name></trkpt>
<trkpt lat="52.967701" lon="05.978987"><ele>0.1</ele><time>2021-03-19T13:38:20Z</time><name>PT12457</name></trkpt>
<trkpt lat="52.967703" lon="05.978967"><ele>0</ele><time>2021-03-19T13:38:22Z</time><name>PT12458</name></trkpt>
<trkpt lat="52.967707" lon="05.978949"><ele>0.2</ele><time>2021-03-19T13:38:22Z</time><name>PT12459</name></trkpt>
<trkpt lat="52.967711" lon="05.978929"><ele>0.2</ele><time>2021-03-19T13:38:23Z</time><name>PT12460</name></trkpt>
<trkpt lat="52.967713" lon="05.978909"><ele>0.2</ele><time>2021-03-19T13:38:24Z</time><name>PT12461</name></trkpt>
<trkpt lat="52.967714" lon="05.978888"><ele>0.3</ele><time>2021-03-19T13:38:25Z</time><name>PT12462</name></trkpt>
<trkpt lat="52.967716" lon="05.978871"><ele>0.3</ele><time>2021-03-19T13:38:26Z</time><name>PT12463</name></trkpt>
<trkpt lat="52.967720" lon="05.978854"><ele>0.1</ele><time>2021-03-19T13:38:27Z</time><name>PT12464</name></trkpt>
<trkpt lat="52.967717" lon="05.978838"><ele>0</ele><time>2021-03-19T13:38:28Z</time><name>PT12465</name></trkpt>
<trkpt lat="52.967717" lon="05.978821"><ele>0</ele><time>2021-03-19T13:38:29Z</time><name>PT12466</name></trkpt>
<trkpt lat="52.967720" lon="05.978806"><ele>0.2</ele><time>2021-03-19T13:38:31Z</time><name>PT12467</name></trkpt>
<trkpt lat="52.967723" lon="05.978791"><ele>0.3</ele><time>2021-03-19T13:38:31Z</time><name>PT12468</name></trkpt>
<trkpt lat="52.967726" lon="05.978775"><ele>0.4</ele><time>2021-03-19T13:38:32Z</time><name>PT12469</name></trkpt>
<trkpt lat="52.967729" lon="05.978760"><ele>0.4</ele><time>2021-03-19T13:38:33Z</time><name>PT12470</name></trkpt>
<trkpt lat="52.967732" lon="05.978743"><ele>0.4</ele><time>2021-03-19T13:38:34Z</time><name>PT12471</name></trkpt>
<trkpt lat="52.967734" lon="05.978722"><ele>0.2</ele><time>2021-03-19T13:38:36Z</time><name>PT12472</name></trkpt>
<trkpt lat="52.967737" lon="05.978701"><ele>0.1</ele><time>2021-03-19T13:38:36Z</time><name>PT12473</name></trkpt>
<trkpt lat="52.967740" lon="05.978683"><ele>0</ele><time>2021-03-19T13:38:37Z</time><name>PT12474</name></trkpt>
<trkpt lat="52.967742" lon="05.978665"><ele>0.1</ele><time>2021-03-19T13:38:38Z</time><name>PT12475</name></trkpt>
<trkpt lat="52.967743" lon="05.978647"><ele>0.2</ele><time>2021-03-19T13:38:39Z</time><name>PT12476</name></trkpt>
<trkpt lat="52.967744" lon="05.978631"><ele>0.4</ele><time>2021-03-19T13:38:40Z</time><name>PT12477</name></trkpt>
<trkpt lat="52.967748" lon="05.978613"><ele>0.4</ele><time>2021-03-19T13:38:41Z</time><name>PT12478</name></trkpt>
<trkpt lat="52.967753" lon="05.978595"><ele>0.5</ele><time>2021-03-19T13:38:42Z</time><name>PT12479</name></trkpt>
<trkpt lat="52.967756" lon="05.978578"><ele>0.3</ele><time>2021-03-19T13:38:43Z</time><name>PT12480</name></trkpt>
<trkpt lat="52.967758" lon="05.978562"><ele>0.3</ele><time>2021-03-19T13:38:44Z</time><name>PT12481</name></trkpt>
<trkpt lat="52.967759" lon="05.978545"><ele>0</ele><time>2021-03-19T13:38:45Z</time><name>PT12482</name></trkpt>
<trkpt lat="52.967762" lon="05.978529"><ele>0</ele><time>2021-03-19T13:38:46Z</time><name>PT12483</name></trkpt>
<trkpt lat="52.967764" lon="05.978514"><ele>0.1</ele><time>2021-03-19T13:38:47Z</time><name>PT12484</name></trkpt>
<trkpt lat="52.967766" lon="05.978498"><ele>0.1</ele><time>2021-03-19T13:38:48Z</time><name>PT12485</name></trkpt>
<trkpt lat="52.967768" lon="05.978480"><ele>0.1</ele><time>2021-03-19T13:38:49Z</time><name>PT12486</name></trkpt>
<trkpt lat="52.967772" lon="05.978465"><ele>0.3</ele><time>2021-03-19T13:38:50Z</time><name>PT12487</name></trkpt>
<trkpt lat="52.967775" lon="05.978451"><ele>0.5</ele><time>2021-03-19T13:38:51Z</time><name>PT12488</name></trkpt>
<trkpt lat="52.967776" lon="05.978436"><ele>0.5</ele><time>2021-03-19T13:38:52Z</time><name>PT12489</name></trkpt>
<trkpt lat="52.967777" lon="05.978422"><ele>0.7</ele><time>2021-03-19T13:38:53Z</time><name>PT12490</name></trkpt>
<trkpt lat="52.967781" lon="05.978405"><ele>0.6</ele><time>2021-03-19T13:38:54Z</time><name>PT12491</name></trkpt>
<trkpt lat="52.967786" lon="05.978387"><ele>0.7</ele><time>2021-03-19T13:38:55Z</time><name>PT12492</name></trkpt>
<trkpt lat="52.967789" lon="05.978370"><ele>0.7</ele><time>2021-03-19T13:38:57Z</time><name>PT12493</name></trkpt>
<trkpt lat="52.967791" lon="05.978354"><ele>0.7</ele><time>2021-03-19T13:38:57Z</time><name>PT12494</name></trkpt>
<trkpt lat="52.967793" lon="05.978338"><ele>0.6</ele><time>2021-03-19T13:38:58Z</time><name>PT12495</name></trkpt>
<trkpt lat="52.967793" lon="05.978324"><ele>0.6</ele><time>2021-03-19T13:39:00Z</time><name>PT12496</name></trkpt>
<trkpt lat="52.967795" lon="05.978306"><ele>0.6</ele><time>2021-03-19T13:39:00Z</time><name>PT12497</name></trkpt>
<trkpt lat="52.967798" lon="05.978291"><ele>0.7</ele><time>2021-03-19T13:39:01Z</time><name>PT12498</name></trkpt>
<trkpt lat="52.967801" lon="05.978277"><ele>0.5</ele><time>2021-03-19T13:39:02Z</time><name>PT12499</name></trkpt>
<trkpt lat="52.967800" lon="05.978261"><ele>0.5</ele><time>2021-03-19T13:39:03Z</time><name>PT12500</name></trkpt>
<trkpt lat="52.967802" lon="05.978245"><ele>0.4</ele><time>2021-03-19T13:39:05Z</time><name>PT12501</name></trkpt>
<trkpt lat="52.967803" lon="05.978227"><ele>0.4</ele><time>2021-03-19T13:39:05Z</time><name>PT12502</name></trkpt>
<trkpt lat="52.967807" lon="05.978208"><ele>0.3</ele><time>2021-03-19T13:39:06Z</time><name>PT12503</name></trkpt>
<trkpt lat="52.967811" lon="05.978192"><ele>0.3</ele><time>2021-03-19T13:39:08Z</time><name>PT12504</name></trkpt>
<trkpt lat="52.967813" lon="05.978177"><ele>0.4</ele><time>2021-03-19T13:39:08Z</time><name>PT12505</name></trkpt>
<trkpt lat="52.967815" lon="05.978162"><ele>0.4</ele><time>2021-03-19T13:39:09Z</time><name>PT12506</name></trkpt>
<trkpt lat="52.967818" lon="05.978148"><ele>0.3</ele><time>2021-03-19T13:39:10Z</time><name>PT12507</name></trkpt>
<trkpt lat="52.967820" lon="05.978131"><ele>0.4</ele><time>2021-03-19T13:39:11Z</time><name>PT12508</name></trkpt>
<trkpt lat="52.967822" lon="05.978111"><ele>0.7</ele><time>2021-03-19T13:39:12Z</time><name>PT12509</name></trkpt>
<trkpt lat="52.967824" lon="05.978092"><ele>0.7</ele><time>2021-03-19T13:39:13Z</time><name>PT12510</name></trkpt>
<trkpt lat="52.967826" lon="05.978074"><ele>0.7</ele><time>2021-03-19T13:39:14Z</time><name>PT12511</name></trkpt>
<trkpt lat="52.967827" lon="05.978058"><ele>0.7</ele><time>2021-03-19T13:39:15Z</time><name>PT12512</name></trkpt>
<trkpt lat="52.967829" lon="05.978044"><ele>0.5</ele><time>2021-03-19T13:39:16Z</time><name>PT12513</name></trkpt>
<trkpt lat="52.967831" lon="05.978028"><ele>0.4</ele><time>2021-03-19T13:39:17Z</time><name>PT12514</name></trkpt>
<trkpt lat="52.967833" lon="05.978013"><ele>0.2</ele><time>2021-03-19T13:39:19Z</time><name>PT12515</name></trkpt>
<trkpt lat="52.967833" lon="05.977999"><ele>0.3</ele><time>2021-03-19T13:39:19Z</time><name>PT12516</name></trkpt>
<trkpt lat="52.967836" lon="05.977981"><ele>0.4</ele><time>2021-03-19T13:39:20Z</time><name>PT12517</name></trkpt>
<trkpt lat="52.967838" lon="05.977967"><ele>0.5</ele><time>2021-03-19T13:39:22Z</time><name>PT12518</name></trkpt>
<trkpt lat="52.967840" lon="05.977953"><ele>0.4</ele><time>2021-03-19T13:39:22Z</time><name>PT12519</name></trkpt>
<trkpt lat="52.967842" lon="05.977938"><ele>0.4</ele><time>2021-03-19T13:39:23Z</time><name>PT12520</name></trkpt>
<trkpt lat="52.967840" lon="05.977926"><ele>0.3</ele><time>2021-03-19T13:39:25Z</time><name>PT12521</name></trkpt>
<trkpt lat="52.967836" lon="05.977915"><ele>0.3</ele><time>2021-03-19T13:39:25Z</time><name>PT12522</name></trkpt>
<trkpt lat="52.967833" lon="05.977910"><ele>0.5</ele><time>2021-03-19T13:39:26Z</time><name>PT12523</name></trkpt>
<trkpt lat="52.967837" lon="05.977900"><ele>0.7</ele><time>2021-03-19T13:39:28Z</time><name>PT12524</name></trkpt>
<trkpt lat="52.967843" lon="05.977890"><ele>0.7</ele><time>2021-03-19T13:39:28Z</time><name>PT12525</name></trkpt>
<trkpt lat="52.967845" lon="05.977877"><ele>0.6</ele><time>2021-03-19T13:39:29Z</time><name>PT12526</name></trkpt>
<trkpt lat="52.967847" lon="05.977862"><ele>0.5</ele><time>2021-03-19T13:39:31Z</time><name>PT12527</name></trkpt>
<trkpt lat="52.967850" lon="05.977850"><ele>0.4</ele><time>2021-03-19T13:39:31Z</time><name>PT12528</name></trkpt>
<trkpt lat="52.967855" lon="05.977835"><ele>0.3</ele><time>2021-03-19T13:39:32Z</time><name>PT12529</name></trkpt>
<trkpt lat="52.967858" lon="05.977820"><ele>0.5</ele><time>2021-03-19T13:39:34Z</time><name>PT12530</name></trkpt>
<trkpt lat="52.967859" lon="05.977804"><ele>0.6</ele><time>2021-03-19T13:39:34Z</time><name>PT12531</name></trkpt>
<trkpt lat="52.967859" lon="05.977785"><ele>0.7</ele><time>2021-03-19T13:39:35Z</time><name>PT12532</name></trkpt>
<trkpt lat="52.967858" lon="05.977769"><ele>0.6</ele><time>2021-03-19T13:39:37Z</time><name>PT12533</name></trkpt>
<trkpt lat="52.967859" lon="05.977751"><ele>0.4</ele><time>2021-03-19T13:39:37Z</time><name>PT12534</name></trkpt>
<trkpt lat="52.967863" lon="05.977733"><ele>0.3</ele><time>2021-03-19T13:39:38Z</time><name>PT12535</name></trkpt>
<trkpt lat="52.967866" lon="05.977717"><ele>0.4</ele><time>2021-03-19T13:39:40Z</time><name>PT12536</name></trkpt>
<trkpt lat="52.967868" lon="05.977700"><ele>0.4</ele><time>2021-03-19T13:39:40Z</time><name>PT12537</name></trkpt>
<trkpt lat="52.967871" lon="05.977683"><ele>0.5</ele><time>2021-03-19T13:39:41Z</time><name>PT12538</name></trkpt>
<trkpt lat="52.967874" lon="05.977670"><ele>0.6</ele><time>2021-03-19T13:39:42Z</time><name>PT12539</name></trkpt>
<trkpt lat="52.967877" lon="05.977655"><ele>0.7</ele><time>2021-03-19T13:39:43Z</time><name>PT12540</name></trkpt>
<trkpt lat="52.967880" lon="05.977641"><ele>0.6</ele><time>2021-03-19T13:39:44Z</time><name>PT12541</name></trkpt>
<trkpt lat="52.967881" lon="05.977627"><ele>0.5</ele><time>2021-03-19T13:39:46Z</time><name>PT12542</name></trkpt>
<trkpt lat="52.967883" lon="05.977611"><ele>0.4</ele><time>2021-03-19T13:39:46Z</time><name>PT12543</name></trkpt>
<trkpt lat="52.967885" lon="05.977597"><ele>0.4</ele><time>2021-03-19T13:39:47Z</time><name>PT12544</name></trkpt>
<trkpt lat="52.967886" lon="05.977583"><ele>0.3</ele><time>2021-03-19T13:39:48Z</time><name>PT12545</name></trkpt>
<trkpt lat="52.967888" lon="05.977566"><ele>0.4</ele><time>2021-03-19T13:39:49Z</time><name>PT12546</name></trkpt>
<trkpt lat="52.967890" lon="05.977550"><ele>0.6</ele><time>2021-03-19T13:39:50Z</time><name>PT12547</name></trkpt>
<trkpt lat="52.967891" lon="05.977533"><ele>0.7</ele><time>2021-03-19T13:39:51Z</time><name>PT12548</name></trkpt>
<trkpt lat="52.967891" lon="05.977515"><ele>0.7</ele><time>2021-03-19T13:39:52Z</time><name>PT12549</name></trkpt>
<trkpt lat="52.967891" lon="05.977497"><ele>0.7</ele><time>2021-03-19T13:39:53Z</time><name>PT12550</name></trkpt>
<trkpt lat="52.967893" lon="05.977480"><ele>0.8</ele><time>2021-03-19T13:39:54Z</time><name>PT12551</name></trkpt>
<trkpt lat="52.967895" lon="05.977461"><ele>0.7</ele><time>2021-03-19T13:39:55Z</time><name>PT12552</name></trkpt>
<trkpt lat="52.967893" lon="05.977446"><ele>0.7</ele><time>2021-03-19T13:39:56Z</time><name>PT12553</name></trkpt>
<trkpt lat="52.967895" lon="05.977430"><ele>0.6</ele><time>2021-03-19T13:39:57Z</time><name>PT12554</name></trkpt>
<trkpt lat="52.967897" lon="05.977421"><ele>0.7</ele><time>2021-03-19T13:39:59Z</time><name>PT12555</name></trkpt>
<trkpt lat="52.967901" lon="05.977409"><ele>0.6</ele><time>2021-03-19T13:39:59Z</time><name>PT12556</name></trkpt>
<trkpt lat="52.967905" lon="05.977396"><ele>0.5</ele><time>2021-03-19T13:40:00Z</time><name>PT12557</name></trkpt>
<trkpt lat="52.967908" lon="05.977383"><ele>0.7</ele><time>2021-03-19T13:40:01Z</time><name>PT12558</name></trkpt>
<trkpt lat="52.967910" lon="05.977368"><ele>0.6</ele><time>2021-03-19T13:40:02Z</time><name>PT12559</name></trkpt>
<trkpt lat="52.967912" lon="05.977349"><ele>0.5</ele><time>2021-03-19T13:40:03Z</time><name>PT12560</name></trkpt>
<trkpt lat="52.967915" lon="05.977328"><ele>0.5</ele><time>2021-03-19T13:40:04Z</time><name>PT12561</name></trkpt>
<trkpt lat="52.967918" lon="05.977311"><ele>0.6</ele><time>2021-03-19T13:40:05Z</time><name>PT12562</name></trkpt>
<trkpt lat="52.967919" lon="05.977295"><ele>0.6</ele><time>2021-03-19T13:40:06Z</time><name>PT12563</name></trkpt>
<trkpt lat="52.967921" lon="05.977273"><ele>0.6</ele><time>2021-03-19T13:40:07Z</time><name>PT12564</name></trkpt>
<trkpt lat="52.967923" lon="05.977256"><ele>0.6</ele><time>2021-03-19T13:40:08Z</time><name>PT12565</name></trkpt>
<trkpt lat="52.967926" lon="05.977240"><ele>0.5</ele><time>2021-03-19T13:40:10Z</time><name>PT12566</name></trkpt>
<trkpt lat="52.967928" lon="05.977222"><ele>0.5</ele><time>2021-03-19T13:40:10Z</time><name>PT12567</name></trkpt>
<trkpt lat="52.967933" lon="05.977204"><ele>0.6</ele><time>2021-03-19T13:40:11Z</time><name>PT12568</name></trkpt>
<trkpt lat="52.967936" lon="05.977186"><ele>0.7</ele><time>2021-03-19T13:40:13Z</time><name>PT12569</name></trkpt>
<trkpt lat="52.967938" lon="05.977170"><ele>0.7</ele><time>2021-03-19T13:40:13Z</time><name>PT12570</name></trkpt>
<trkpt lat="52.967940" lon="05.977155"><ele>0.7</ele><time>2021-03-19T13:40:14Z</time><name>PT12571</name></trkpt>
<trkpt lat="52.967943" lon="05.977137"><ele>0.6</ele><time>2021-03-19T13:40:16Z</time><name>PT12572</name></trkpt>
<trkpt lat="52.967946" lon="05.977122"><ele>0.6</ele><time>2021-03-19T13:40:16Z</time><name>PT12573</name></trkpt>
<trkpt lat="52.967947" lon="05.977105"><ele>0.6</ele><time>2021-03-19T13:40:17Z</time><name>PT12574</name></trkpt>
<trkpt lat="52.967946" lon="05.977085"><ele>0.5</ele><time>2021-03-19T13:40:18Z</time><name>PT12575</name></trkpt>
<trkpt lat="52.967946" lon="05.977068"><ele>0.4</ele><time>2021-03-19T13:40:19Z</time><name>PT12576</name></trkpt>
<trkpt lat="52.967948" lon="05.977054"><ele>0.4</ele><time>2021-03-19T13:40:21Z</time><name>PT12577</name></trkpt>
<trkpt lat="52.967952" lon="05.977037"><ele>0.3</ele><time>2021-03-19T13:40:21Z</time><name>PT12578</name></trkpt>
<trkpt lat="52.967953" lon="05.977019"><ele>0.5</ele><time>2021-03-19T13:40:22Z</time><name>PT12579</name></trkpt>
<trkpt lat="52.967955" lon="05.977004"><ele>0.4</ele><time>2021-03-19T13:40:24Z</time><name>PT12580</name></trkpt>
<trkpt lat="52.967955" lon="05.976989"><ele>0.4</ele><time>2021-03-19T13:40:24Z</time><name>PT12581</name></trkpt>
<trkpt lat="52.967958" lon="05.976975"><ele>0.4</ele><time>2021-03-19T13:40:25Z</time><name>PT12582</name></trkpt>
<trkpt lat="52.967963" lon="05.976959"><ele>0.4</ele><time>2021-03-19T13:40:26Z</time><name>PT12583</name></trkpt>
<trkpt lat="52.967966" lon="05.976943"><ele>0.3</ele><time>2021-03-19T13:40:27Z</time><name>PT12584</name></trkpt>
<trkpt lat="52.967968" lon="05.976926"><ele>0.4</ele><time>2021-03-19T13:40:29Z</time><name>PT12585</name></trkpt>
<trkpt lat="52.967970" lon="05.976910"><ele>0.5</ele><time>2021-03-19T13:40:29Z</time><name>PT12586</name></trkpt>
<trkpt lat="52.967971" lon="05.976895"><ele>0.5</ele><time>2021-03-19T13:40:30Z</time><name>PT12587</name></trkpt>
<trkpt lat="52.967974" lon="05.976878"><ele>0.5</ele><time>2021-03-19T13:40:31Z</time><name>PT12588</name></trkpt>
<trkpt lat="52.967978" lon="05.976860"><ele>0.3</ele><time>2021-03-19T13:40:32Z</time><name>PT12589</name></trkpt>
<trkpt lat="52.967980" lon="05.976844"><ele>0.3</ele><time>2021-03-19T13:40:33Z</time><name>PT12590</name></trkpt>
<trkpt lat="52.967979" lon="05.976827"><ele>0.3</ele><time>2021-03-19T13:40:34Z</time><name>PT12591</name></trkpt>
<trkpt lat="52.967980" lon="05.976813"><ele>0.3</ele><time>2021-03-19T13:40:36Z</time><name>PT12592</name></trkpt>
<trkpt lat="52.967983" lon="05.976796"><ele>0.3</ele><time>2021-03-19T13:40:36Z</time><name>PT12593</name></trkpt>
<trkpt lat="52.967985" lon="05.976779"><ele>0.2</ele><time>2021-03-19T13:40:37Z</time><name>PT12594</name></trkpt>
<trkpt lat="52.967987" lon="05.976763"><ele>0.3</ele><time>2021-03-19T13:40:39Z</time><name>PT12595</name></trkpt>
<trkpt lat="52.967990" lon="05.976744"><ele>0.3</ele><time>2021-03-19T13:40:39Z</time><name>PT12596</name></trkpt>
<trkpt lat="52.967994" lon="05.976730"><ele>0.3</ele><time>2021-03-19T13:40:40Z</time><name>PT12597</name></trkpt>
<trkpt lat="52.967999" lon="05.976714"><ele>0.6</ele><time>2021-03-19T13:40:42Z</time><name>PT12598</name></trkpt>
<trkpt lat="52.968000" lon="05.976704"><ele>0.6</ele><time>2021-03-19T13:40:42Z</time><name>PT12599</name></trkpt>
<trkpt lat="52.968004" lon="05.976690"><ele>0.7</ele><time>2021-03-19T13:40:43Z</time><name>PT12600</name></trkpt>
<trkpt lat="52.968007" lon="05.976677"><ele>0.7</ele><time>2021-03-19T13:40:44Z</time><name>PT12601</name></trkpt>
<trkpt lat="52.968008" lon="05.976667"><ele>0.7</ele><time>2021-03-19T13:40:45Z</time><name>PT12602</name></trkpt>
<trkpt lat="52.968009" lon="05.976654"><ele>0.4</ele><time>2021-03-19T13:40:46Z</time><name>PT12603</name></trkpt>
<trkpt lat="52.968012" lon="05.976642"><ele>0.3</ele><time>2021-03-19T13:40:48Z</time><name>PT12604</name></trkpt>
<trkpt lat="52.968013" lon="05.976626"><ele>0.3</ele><time>2021-03-19T13:40:48Z</time><name>PT12605</name></trkpt>
<trkpt lat="52.968018" lon="05.976609"><ele>0.4</ele><time>2021-03-19T13:40:49Z</time><name>PT12606</name></trkpt>
<trkpt lat="52.968021" lon="05.976596"><ele>0.6</ele><time>2021-03-19T13:40:50Z</time><name>PT12607</name></trkpt>
<trkpt lat="52.968023" lon="05.976580"><ele>0.7</ele><time>2021-03-19T13:40:51Z</time><name>PT12608</name></trkpt>
<trkpt lat="52.968026" lon="05.976565"><ele>0.8</ele><time>2021-03-19T13:40:52Z</time><name>PT12609</name></trkpt>
<trkpt lat="52.968025" lon="05.976554"><ele>0.7</ele><time>2021-03-19T13:40:53Z</time><name>PT12610</name></trkpt>
<trkpt lat="52.968028" lon="05.976540"><ele>0.7</ele><time>2021-03-19T13:40:55Z</time><name>PT12611</name></trkpt>
<trkpt lat="52.968033" lon="05.976524"><ele>0.7</ele><time>2021-03-19T13:40:55Z</time><name>PT12612</name></trkpt>
<trkpt lat="52.968038" lon="05.976511"><ele>0.8</ele><time>2021-03-19T13:40:57Z</time><name>PT12613</name></trkpt>
<trkpt lat="52.968040" lon="05.976496"><ele>0.7</ele><time>2021-03-19T13:40:58Z</time><name>PT12614</name></trkpt>
<trkpt lat="52.968039" lon="05.976483"><ele>0.7</ele><time>2021-03-19T13:40:58Z</time><name>PT12615</name></trkpt>
<trkpt lat="52.968039" lon="05.976471"><ele>0.6</ele><time>2021-03-19T13:40:59Z</time><name>PT12616</name></trkpt>
<trkpt lat="52.968038" lon="05.976455"><ele>0.5</ele><time>2021-03-19T13:41:00Z</time><name>PT12617</name></trkpt>
<trkpt lat="52.968037" lon="05.976440"><ele>0.5</ele><time>2021-03-19T13:41:01Z</time><name>PT12618</name></trkpt>
<trkpt lat="52.968042" lon="05.976426"><ele>0.4</ele><time>2021-03-19T13:41:02Z</time><name>PT12619</name></trkpt>
<trkpt lat="52.968044" lon="05.976408"><ele>0.4</ele><time>2021-03-19T13:41:03Z</time><name>PT12620</name></trkpt>
<trkpt lat="52.968045" lon="05.976389"><ele>0.4</ele><time>2021-03-19T13:41:05Z</time><name>PT12621</name></trkpt>
<trkpt lat="52.968044" lon="05.976372"><ele>0.5</ele><time>2021-03-19T13:41:05Z</time><name>PT12622</name></trkpt>
<trkpt lat="52.968044" lon="05.976355"><ele>0.7</ele><time>2021-03-19T13:41:06Z</time><name>PT12623</name></trkpt>
<trkpt lat="52.968045" lon="05.976338"><ele>0.8</ele><time>2021-03-19T13:41:08Z</time><name>PT12624</name></trkpt>
<trkpt lat="52.968046" lon="05.976323"><ele>-1</ele><time>2021-03-19T13:41:08Z</time><name>PT12625</name></trkpt>
<trkpt lat="52.968045" lon="05.976310"><ele>0.9</ele><time>2021-03-19T13:41:09Z</time><name>PT12626</name></trkpt>
<trkpt lat="52.968047" lon="05.976296"><ele>0.8</ele><time>2021-03-19T13:41:10Z</time><name>PT12627</name></trkpt>
<trkpt lat="52.968050" lon="05.976274"><ele>0.7</ele><time>2021-03-19T13:41:11Z</time><name>PT12628</name></trkpt>
<trkpt lat="52.968053" lon="05.976257"><ele>0.7</ele><time>2021-03-19T13:41:12Z</time><name>PT12629</name></trkpt>
<trkpt lat="52.968057" lon="05.976240"><ele>0.5</ele><time>2021-03-19T13:41:13Z</time><name>PT12630</name></trkpt>
<trkpt lat="52.968061" lon="05.976226"><ele>0.7</ele><time>2021-03-19T13:41:15Z</time><name>PT12631</name></trkpt>
<trkpt lat="52.968061" lon="05.976216"><ele>0.6</ele><time>2021-03-19T13:41:15Z</time><name>PT12632</name></trkpt>
<trkpt lat="52.968061" lon="05.976204"><ele>0.5</ele><time>2021-03-19T13:41:16Z</time><name>PT12633</name></trkpt>
<trkpt lat="52.968068" lon="05.976188"><ele>0.7</ele><time>2021-03-19T13:41:18Z</time><name>PT12634</name></trkpt>
<trkpt lat="52.968073" lon="05.976177"><ele>0.8</ele><time>2021-03-19T13:41:18Z</time><name>PT12635</name></trkpt>
<trkpt lat="52.968075" lon="05.976163"><ele>0.6</ele><time>2021-03-19T13:41:19Z</time><name>PT12636</name></trkpt>
<trkpt lat="52.968074" lon="05.976146"><ele>0.7</ele><time>2021-03-19T13:41:20Z</time><name>PT12637</name></trkpt>
<trkpt lat="52.968071" lon="05.976126"><ele>0.7</ele><time>2021-03-19T13:41:21Z</time><name>PT12638</name></trkpt>
<trkpt lat="52.968072" lon="05.976110"><ele>0.7</ele><time>2021-03-19T13:41:22Z</time><name>PT12639</name></trkpt>
<trkpt lat="52.968074" lon="05.976097"><ele>0.7</ele><time>2021-03-19T13:41:23Z</time><name>PT12640</name></trkpt>
<trkpt lat="52.968075" lon="05.976085"><ele>0.9</ele><time>2021-03-19T13:41:25Z</time><name>PT12641</name></trkpt>
<trkpt lat="52.968077" lon="05.976072"><ele>0.8</ele><time>2021-03-19T13:41:25Z</time><name>PT12642</name></trkpt>
<trkpt lat="52.968080" lon="05.976054"><ele>0.9</ele><time>2021-03-19T13:41:27Z</time><name>PT12643</name></trkpt>
<trkpt lat="52.968081" lon="05.976037"><ele>0.9</ele><time>2021-03-19T13:41:28Z</time><name>PT12644</name></trkpt>
<trkpt lat="52.968087" lon="05.976020"><ele>0.8</ele><time>2021-03-19T13:41:28Z</time><name>PT12645</name></trkpt>
<trkpt lat="52.968091" lon="05.976004"><ele>0.7</ele><time>2021-03-19T13:41:29Z</time><name>PT12646</name></trkpt>
<trkpt lat="52.968091" lon="05.975987"><ele>0.6</ele><time>2021-03-19T13:41:30Z</time><name>PT12647</name></trkpt>
<trkpt lat="52.968091" lon="05.975968"><ele>0.5</ele><time>2021-03-19T13:41:31Z</time><name>PT12648</name></trkpt>
<trkpt lat="52.968092" lon="05.975959"><ele>0.4</ele><time>2021-03-19T13:41:32Z</time><name>PT12649</name></trkpt>
<trkpt lat="52.968095" lon="05.975943"><ele>0.4</ele><time>2021-03-19T13:41:33Z</time><name>PT12650</name></trkpt>
<trkpt lat="52.968097" lon="05.975924"><ele>0.5</ele><time>2021-03-19T13:41:34Z</time><name>PT12651</name></trkpt>
<trkpt lat="52.968100" lon="05.975905"><ele>0.7</ele><time>2021-03-19T13:41:35Z</time><name>PT12652</name></trkpt>
<trkpt lat="52.968103" lon="05.975885"><ele>0.7</ele><time>2021-03-19T13:41:37Z</time><name>PT12653</name></trkpt>
<trkpt lat="52.968105" lon="05.975867"><ele>0.7</ele><time>2021-03-19T13:41:37Z</time><name>PT12654</name></trkpt>
<trkpt lat="52.968108" lon="05.975850"><ele>0.7</ele><time>2021-03-19T13:41:38Z</time><name>PT12655</name></trkpt>
<trkpt lat="52.968111" lon="05.975831"><ele>0.7</ele><time>2021-03-19T13:41:39Z</time><name>PT12656</name></trkpt>
<trkpt lat="52.968113" lon="05.975812"><ele>0.7</ele><time>2021-03-19T13:41:40Z</time><name>PT12657</name></trkpt>
<trkpt lat="52.968117" lon="05.975795"><ele>0.7</ele><time>2021-03-19T13:41:41Z</time><name>PT12658</name></trkpt>
<trkpt lat="52.968119" lon="05.975780"><ele>0.8</ele><time>2021-03-19T13:41:42Z</time><name>PT12659</name></trkpt>
<trkpt lat="52.968121" lon="05.975759"><ele>0.8</ele><time>2021-03-19T13:41:44Z</time><name>PT12660</name></trkpt>
<trkpt lat="52.968121" lon="05.975742"><ele>0.8</ele><time>2021-03-19T13:41:44Z</time><name>PT12661</name></trkpt>
<trkpt lat="52.968122" lon="05.975724"><ele>0.8</ele><time>2021-03-19T13:41:45Z</time><name>PT12662</name></trkpt>
<trkpt lat="52.968126" lon="05.975708"><ele>0.8</ele><time>2021-03-19T13:41:46Z</time><name>PT12663</name></trkpt>
<trkpt lat="52.968128" lon="05.975691"><ele>0.7</ele><time>2021-03-19T13:41:47Z</time><name>PT12664</name></trkpt>
<trkpt lat="52.968130" lon="05.975675"><ele>0.5</ele><time>2021-03-19T13:41:48Z</time><name>PT12665</name></trkpt>
<trkpt lat="52.968133" lon="05.975661"><ele>0.7</ele><time>2021-03-19T13:41:49Z</time><name>PT12666</name></trkpt>
<trkpt lat="52.968134" lon="05.975643"><ele>0.6</ele><time>2021-03-19T13:41:50Z</time><name>PT12667</name></trkpt>
<trkpt lat="52.968136" lon="05.975629"><ele>0.7</ele><time>2021-03-19T13:41:51Z</time><name>PT12668</name></trkpt>
<trkpt lat="52.968139" lon="05.975613"><ele>0.8</ele><time>2021-03-19T13:41:52Z</time><name>PT12669</name></trkpt>
<trkpt lat="52.968140" lon="05.975598"><ele>0.9</ele><time>2021-03-19T13:41:53Z</time><name>PT12670</name></trkpt>
<trkpt lat="52.968142" lon="05.975580"><ele>0.7</ele><time>2021-03-19T13:41:54Z</time><name>PT12671</name></trkpt>
<trkpt lat="52.968143" lon="05.975568"><ele>0.7</ele><time>2021-03-19T13:41:55Z</time><name>PT12672</name></trkpt>
<trkpt lat="52.968144" lon="05.975551"><ele>0.7</ele><time>2021-03-19T13:41:57Z</time><name>PT12673</name></trkpt>
<trkpt lat="52.968149" lon="05.975534"><ele>0.7</ele><time>2021-03-19T13:41:57Z</time><name>PT12674</name></trkpt>
<trkpt lat="52.968151" lon="05.975515"><ele>0.8</ele><time>2021-03-19T13:41:58Z</time><name>PT12675</name></trkpt>
<trkpt lat="52.968155" lon="05.975497"><ele>0.8</ele><time>2021-03-19T13:42:00Z</time><name>PT12676</name></trkpt>
<trkpt lat="52.968156" lon="05.975477"><ele>0.7</ele><time>2021-03-19T13:42:00Z</time><name>PT12677</name></trkpt>
<trkpt lat="52.968155" lon="05.975455"><ele>0.7</ele><time>2021-03-19T13:42:01Z</time><name>PT12678</name></trkpt>
<trkpt lat="52.968156" lon="05.975439"><ele>0.6</ele><time>2021-03-19T13:42:03Z</time><name>PT12679</name></trkpt>
<trkpt lat="52.968159" lon="05.975422"><ele>0.6</ele><time>2021-03-19T13:42:03Z</time><name>PT12680</name></trkpt>
<trkpt lat="52.968162" lon="05.975407"><ele>0.5</ele><time>2021-03-19T13:42:04Z</time><name>PT12681</name></trkpt>
<trkpt lat="52.968163" lon="05.975393"><ele>0.6</ele><time>2021-03-19T13:42:05Z</time><name>PT12682</name></trkpt>
<trkpt lat="52.968165" lon="05.975377"><ele>0.6</ele><time>2021-03-19T13:42:06Z</time><name>PT12683</name></trkpt>
<trkpt lat="52.968166" lon="05.975364"><ele>0.5</ele><time>2021-03-19T13:42:07Z</time><name>PT12684</name></trkpt>
<trkpt lat="52.968170" lon="05.975352"><ele>0.4</ele><time>2021-03-19T13:42:08Z</time><name>PT12685</name></trkpt>
<trkpt lat="52.968172" lon="05.975338"><ele>0.3</ele><time>2021-03-19T13:42:10Z</time><name>PT12686</name></trkpt>
<trkpt lat="52.968174" lon="05.975322"><ele>0.3</ele><time>2021-03-19T13:42:10Z</time><name>PT12687</name></trkpt>
<trkpt lat="52.968177" lon="05.975305"><ele>0.3</ele><time>2021-03-19T13:42:11Z</time><name>PT12688</name></trkpt>
<trkpt lat="52.968178" lon="05.975286"><ele>0.4</ele><time>2021-03-19T13:42:12Z</time><name>PT12689</name></trkpt>
<trkpt lat="52.968177" lon="05.975269"><ele>0.2</ele><time>2021-03-19T13:42:13Z</time><name>PT12690</name></trkpt>
<trkpt lat="52.968178" lon="05.975255"><ele>0.3</ele><time>2021-03-19T13:42:14Z</time><name>PT12691</name></trkpt>
<trkpt lat="52.968178" lon="05.975250"><ele>0.4</ele><time>2021-03-19T13:42:15Z</time><name>PT12692</name></trkpt>
<trkpt lat="52.968178" lon="05.975241"><ele>0.3</ele><time>2021-03-19T13:42:17Z</time><name>PT12693</name></trkpt>
<trkpt lat="52.968178" lon="05.975229"><ele>0.5</ele><time>2021-03-19T13:42:17Z</time><name>PT12694</name></trkpt>
<trkpt lat="52.968179" lon="05.975214"><ele>0.4</ele><time>2021-03-19T13:42:18Z</time><name>PT12695</name></trkpt>
<trkpt lat="52.968179" lon="05.975200"><ele>0.5</ele><time>2021-03-19T13:42:20Z</time><name>PT12696</name></trkpt>
<trkpt lat="52.968180" lon="05.975183"><ele>0.4</ele><time>2021-03-19T13:42:20Z</time><name>PT12697</name></trkpt>
<trkpt lat="52.968181" lon="05.975168"><ele>0.6</ele><time>2021-03-19T13:42:21Z</time><name>PT12698</name></trkpt>
<trkpt lat="52.968183" lon="05.975155"><ele>0.5</ele><time>2021-03-19T13:42:22Z</time><name>PT12699</name></trkpt>
<trkpt lat="52.968186" lon="05.975143"><ele>0.6</ele><time>2021-03-19T13:42:23Z</time><name>PT12700</name></trkpt>
<trkpt lat="52.968189" lon="05.975130"><ele>0.5</ele><time>2021-03-19T13:42:24Z</time><name>PT12701</name></trkpt>
<trkpt lat="52.968192" lon="05.975111"><ele>0.7</ele><time>2021-03-19T13:42:25Z</time><name>PT12702</name></trkpt>
<trkpt lat="52.968197" lon="05.975094"><ele>0.7</ele><time>2021-03-19T13:42:27Z</time><name>PT12703</name></trkpt>
<trkpt lat="52.968200" lon="05.975079"><ele>0.7</ele><time>2021-03-19T13:42:27Z</time><name>PT12704</name></trkpt>
<trkpt lat="52.968200" lon="05.975063"><ele>0.7</ele><time>2021-03-19T13:42:28Z</time><name>PT12705</name></trkpt>
<trkpt lat="52.968198" lon="05.975044"><ele>0.9</ele><time>2021-03-19T13:42:29Z</time><name>PT12706</name></trkpt>
<trkpt lat="52.968201" lon="05.975030"><ele>-1</ele><time>2021-03-19T13:42:30Z</time><name>PT12707</name></trkpt>
<trkpt lat="52.968203" lon="05.975011"><ele>0.8</ele><time>2021-03-19T13:42:31Z</time><name>PT12708</name></trkpt>
<trkpt lat="52.968205" lon="05.974989"><ele>0.7</ele><time>2021-03-19T13:42:32Z</time><name>PT12709</name></trkpt>
<trkpt lat="52.968208" lon="05.974974"><ele>0.6</ele><time>2021-03-19T13:42:33Z</time><name>PT12710</name></trkpt>
<trkpt lat="52.968211" lon="05.974955"><ele>0.3</ele><time>2021-03-19T13:42:34Z</time><name>PT12711</name></trkpt>
<trkpt lat="52.968212" lon="05.974938"><ele>0.4</ele><time>2021-03-19T13:42:36Z</time><name>PT12712</name></trkpt>
<trkpt lat="52.968214" lon="05.974919"><ele>0.4</ele><time>2021-03-19T13:42:36Z</time><name>PT12713</name></trkpt>
<trkpt lat="52.968217" lon="05.974903"><ele>0.4</ele><time>2021-03-19T13:42:37Z</time><name>PT12714</name></trkpt>
<trkpt lat="52.968220" lon="05.974884"><ele>0.4</ele><time>2021-03-19T13:42:39Z</time><name>PT12715</name></trkpt>
<trkpt lat="52.968222" lon="05.974868"><ele>0.4</ele><time>2021-03-19T13:42:39Z</time><name>PT12716</name></trkpt>
<trkpt lat="52.968222" lon="05.974853"><ele>0.5</ele><time>2021-03-19T13:42:40Z</time><name>PT12717</name></trkpt>
<trkpt lat="52.968223" lon="05.974835"><ele>0.6</ele><time>2021-03-19T13:42:41Z</time><name>PT12718</name></trkpt>
<trkpt lat="52.968222" lon="05.974813"><ele>0.9</ele><time>2021-03-19T13:42:42Z</time><name>PT12719</name></trkpt>
<trkpt lat="52.968220" lon="05.974794"><ele>-1</ele><time>2021-03-19T13:42:44Z</time><name>PT12720</name></trkpt>
<trkpt lat="52.968216" lon="05.974778"><ele>-1</ele><time>2021-03-19T13:42:44Z</time><name>PT12721</name></trkpt>
<trkpt lat="52.968213" lon="05.974761"><ele>0.8</ele><time>2021-03-19T13:42:45Z</time><name>PT12722</name></trkpt>
<trkpt lat="52.968210" lon="05.974746"><ele>0.6</ele><time>2021-03-19T13:42:47Z</time><name>PT12723</name></trkpt>
<trkpt lat="52.968207" lon="05.974735"><ele>0.5</ele><time>2021-03-19T13:42:47Z</time><name>PT12724</name></trkpt>
<trkpt lat="52.968207" lon="05.974729"><ele>0.3</ele><time>2021-03-19T13:42:48Z</time><name>PT12725</name></trkpt>
<trkpt lat="52.968207" lon="05.974724"><ele>0.4</ele><time>2021-03-19T13:42:49Z</time><name>PT12726</name></trkpt>
<trkpt lat="52.968207" lon="05.974722"><ele>0.5</ele><time>2021-03-19T13:42:50Z</time><name>PT12727</name></trkpt>
<trkpt lat="52.968212" lon="05.974697"><ele>0.8</ele><time>2021-03-19T13:42:54Z</time><name>PT12728</name></trkpt>
<trkpt lat="52.968220" lon="05.974677"><ele>0.9</ele><time>2021-03-19T13:42:55Z</time><name>PT12729</name></trkpt>
<trkpt lat="52.968230" lon="05.974660"><ele>-1.1</ele><time>2021-03-19T13:42:56Z</time><name>PT12730</name></trkpt>
<trkpt lat="52.968237" lon="05.974642"><ele>-1</ele><time>2021-03-19T13:42:57Z</time><name>PT12731</name></trkpt>
<trkpt lat="52.968244" lon="05.974625"><ele>0.9</ele><time>2021-03-19T13:42:58Z</time><name>PT12732</name></trkpt>
<trkpt lat="52.968251" lon="05.974609"><ele>0.9</ele><time>2021-03-19T13:42:59Z</time><name>PT12733</name></trkpt>
<trkpt lat="52.968253" lon="05.974590"><ele>0.9</ele><time>2021-03-19T13:43:00Z</time><name>PT12734</name></trkpt>
<trkpt lat="52.968257" lon="05.974569"><ele>0.7</ele><time>2021-03-19T13:43:01Z</time><name>PT12735</name></trkpt>
<trkpt lat="52.968260" lon="05.974553"><ele>0.7</ele><time>2021-03-19T13:43:03Z</time><name>PT12736</name></trkpt>
<trkpt lat="52.968264" lon="05.974539"><ele>0.7</ele><time>2021-03-19T13:43:03Z</time><name>PT12737</name></trkpt>
<trkpt lat="52.968268" lon="05.974523"><ele>0.8</ele><time>2021-03-19T13:43:04Z</time><name>PT12738</name></trkpt>
<trkpt lat="52.968270" lon="05.974510"><ele>-1</ele><time>2021-03-19T13:43:06Z</time><name>PT12739</name></trkpt>
<trkpt lat="52.968269" lon="05.974495"><ele>0.9</ele><time>2021-03-19T13:43:06Z</time><name>PT12740</name></trkpt>
<trkpt lat="52.968269" lon="05.974477"><ele>0.9</ele><time>2021-03-19T13:43:07Z</time><name>PT12741</name></trkpt>
<trkpt lat="52.968271" lon="05.974462"><ele>0.8</ele><time>2021-03-19T13:43:08Z</time><name>PT12742</name></trkpt>
<trkpt lat="52.968273" lon="05.974444"><ele>0.7</ele><time>2021-03-19T13:43:09Z</time><name>PT12743</name></trkpt>
<trkpt lat="52.968274" lon="05.974429"><ele>0.6</ele><time>2021-03-19T13:43:10Z</time><name>PT12744</name></trkpt>
<trkpt lat="52.968275" lon="05.974413"><ele>0.7</ele><time>2021-03-19T13:43:11Z</time><name>PT12745</name></trkpt>
<trkpt lat="52.968273" lon="05.974393"><ele>0.6</ele><time>2021-03-19T13:43:12Z</time><name>PT12746</name></trkpt>
<trkpt lat="52.968274" lon="05.974376"><ele>0.5</ele><time>2021-03-19T13:43:13Z</time><name>PT12747</name></trkpt>
<trkpt lat="52.968275" lon="05.974364"><ele>0.5</ele><time>2021-03-19T13:43:15Z</time><name>PT12748</name></trkpt>
<trkpt lat="52.968276" lon="05.974350"><ele>0.4</ele><time>2021-03-19T13:43:15Z</time><name>PT12749</name></trkpt>
<trkpt lat="52.968278" lon="05.974339"><ele>0.5</ele><time>2021-03-19T13:43:16Z</time><name>PT12750</name></trkpt>
<trkpt lat="52.968279" lon="05.974325"><ele>0.4</ele><time>2021-03-19T13:43:18Z</time><name>PT12751</name></trkpt>
<trkpt lat="52.968281" lon="05.974306"><ele>0.3</ele><time>2021-03-19T13:43:18Z</time><name>PT12752</name></trkpt>
<trkpt lat="52.968283" lon="05.974288"><ele>0.2</ele><time>2021-03-19T13:43:19Z</time><name>PT12753</name></trkpt>
<trkpt lat="52.968286" lon="05.974270"><ele>0.3</ele><time>2021-03-19T13:43:21Z</time><name>PT12754</name></trkpt>
<trkpt lat="52.968288" lon="05.974254"><ele>0.2</ele><time>2021-03-19T13:43:21Z</time><name>PT12755</name></trkpt>
<trkpt lat="52.968290" lon="05.974238"><ele>0.3</ele><time>2021-03-19T13:43:22Z</time><name>PT12756</name></trkpt>
<trkpt lat="52.968292" lon="05.974221"><ele>0.3</ele><time>2021-03-19T13:43:23Z</time><name>PT12757</name></trkpt>
<trkpt lat="52.968294" lon="05.974208"><ele>0.3</ele><time>2021-03-19T13:43:24Z</time><name>PT12758</name></trkpt>
<trkpt lat="52.968296" lon="05.974197"><ele>0.4</ele><time>2021-03-19T13:43:26Z</time><name>PT12759</name></trkpt>
<trkpt lat="52.968299" lon="05.974183"><ele>0.4</ele><time>2021-03-19T13:43:26Z</time><name>PT12760</name></trkpt>
<trkpt lat="52.968305" lon="05.974169"><ele>0.4</ele><time>2021-03-19T13:43:27Z</time><name>PT12761</name></trkpt>
<trkpt lat="52.968312" lon="05.974156"><ele>0.5</ele><time>2021-03-19T13:43:29Z</time><name>PT12762</name></trkpt>
<trkpt lat="52.968318" lon="05.974145"><ele>0.6</ele><time>2021-03-19T13:43:29Z</time><name>PT12763</name></trkpt>
<trkpt lat="52.968325" lon="05.974136"><ele>0.6</ele><time>2021-03-19T13:43:30Z</time><name>PT12764</name></trkpt>
<trkpt lat="52.968330" lon="05.974123"><ele>0.7</ele><time>2021-03-19T13:43:32Z</time><name>PT12765</name></trkpt>
<trkpt lat="52.968337" lon="05.974109"><ele>0.8</ele><time>2021-03-19T13:43:32Z</time><name>PT12766</name></trkpt>
<trkpt lat="52.968342" lon="05.974093"><ele>0.7</ele><time>2021-03-19T13:43:33Z</time><name>PT12767</name></trkpt>
<trkpt lat="52.968344" lon="05.974077"><ele>0.7</ele><time>2021-03-19T13:43:34Z</time><name>PT12768</name></trkpt>
<trkpt lat="52.968345" lon="05.974056"><ele>0.6</ele><time>2021-03-19T13:43:35Z</time><name>PT12769</name></trkpt>
<trkpt lat="52.968344" lon="05.974038"><ele>0.5</ele><time>2021-03-19T13:43:36Z</time><name>PT12770</name></trkpt>
<trkpt lat="52.968342" lon="05.974021"><ele>0.4</ele><time>2021-03-19T13:43:37Z</time><name>PT12771</name></trkpt>
<trkpt lat="52.968340" lon="05.974005"><ele>0.6</ele><time>2021-03-19T13:43:39Z</time><name>PT12772</name></trkpt>
<trkpt lat="52.968343" lon="05.973994"><ele>0.6</ele><time>2021-03-19T13:43:39Z</time><name>PT12773</name></trkpt>
<trkpt lat="52.968345" lon="05.973986"><ele>0.7</ele><time>2021-03-19T13:43:40Z</time><name>PT12774</name></trkpt>
<trkpt lat="52.968347" lon="05.973976"><ele>0.6</ele><time>2021-03-19T13:43:41Z</time><name>PT12775</name></trkpt>
<trkpt lat="52.968347" lon="05.973960"><ele>0.7</ele><time>2021-03-19T13:43:42Z</time><name>PT12776</name></trkpt>
<trkpt lat="52.968346" lon="05.973944"><ele>0.6</ele><time>2021-03-19T13:43:44Z</time><name>PT12777</name></trkpt>
<trkpt lat="52.968344" lon="05.973928"><ele>0.5</ele><time>2021-03-19T13:43:44Z</time><name>PT12778</name></trkpt>
<trkpt lat="52.968344" lon="05.973912"><ele>0.6</ele><time>2021-03-19T13:43:45Z</time><name>PT12779</name></trkpt>
<trkpt lat="52.968346" lon="05.973896"><ele>0.6</ele><time>2021-03-19T13:43:46Z</time><name>PT12780</name></trkpt>
<trkpt lat="52.968348" lon="05.973883"><ele>0.5</ele><time>2021-03-19T13:43:47Z</time><name>PT12781</name></trkpt>
<trkpt lat="52.968347" lon="05.973868"><ele>0.6</ele><time>2021-03-19T13:43:48Z</time><name>PT12782</name></trkpt>
<trkpt lat="52.968345" lon="05.973850"><ele>0.6</ele><time>2021-03-19T13:43:49Z</time><name>PT12783</name></trkpt>
<trkpt lat="52.968344" lon="05.973834"><ele>0.4</ele><time>2021-03-19T13:43:51Z</time><name>PT12784</name></trkpt>
<trkpt lat="52.968344" lon="05.973815"><ele>0.4</ele><time>2021-03-19T13:43:51Z</time><name>PT12785</name></trkpt>
<trkpt lat="52.968345" lon="05.973796"><ele>0.3</ele><time>2021-03-19T13:43:52Z</time><name>PT12786</name></trkpt>
<trkpt lat="52.968347" lon="05.973781"><ele>0.3</ele><time>2021-03-19T13:43:54Z</time><name>PT12787</name></trkpt>
<trkpt lat="52.968348" lon="05.973765"><ele>0.4</ele><time>2021-03-19T13:43:54Z</time><name>PT12788</name></trkpt>
<trkpt lat="52.968346" lon="05.973748"><ele>0.5</ele><time>2021-03-19T13:43:55Z</time><name>PT12789</name></trkpt>
<trkpt lat="52.968348" lon="05.973733"><ele>0.4</ele><time>2021-03-19T13:43:56Z</time><name>PT12790</name></trkpt>
<trkpt lat="52.968349" lon="05.973718"><ele>0.7</ele><time>2021-03-19T13:43:57Z</time><name>PT12791</name></trkpt>
<trkpt lat="52.968350" lon="05.973705"><ele>0.7</ele><time>2021-03-19T13:43:58Z</time><name>PT12792</name></trkpt>
<trkpt lat="52.968351" lon="05.973690"><ele>0.5</ele><time>2021-03-19T13:43:59Z</time><name>PT12793</name></trkpt>
<trkpt lat="52.968351" lon="05.973669"><ele>0.6</ele><time>2021-03-19T13:44:01Z</time><name>PT12794</name></trkpt>
<trkpt lat="52.968352" lon="05.973650"><ele>0.4</ele><time>2021-03-19T13:44:01Z</time><name>PT12795</name></trkpt>
<trkpt lat="52.968354" lon="05.973632"><ele>0.3</ele><time>2021-03-19T13:44:02Z</time><name>PT12796</name></trkpt>
<trkpt lat="52.968358" lon="05.973618"><ele>0.2</ele><time>2021-03-19T13:44:03Z</time><name>PT12797</name></trkpt>
<trkpt lat="52.968359" lon="05.973604"><ele>0.3</ele><time>2021-03-19T13:44:04Z</time><name>PT12798</name></trkpt>
<trkpt lat="52.968359" lon="05.973590"><ele>0.3</ele><time>2021-03-19T13:44:05Z</time><name>PT12799</name></trkpt>
<trkpt lat="52.968362" lon="05.973575"><ele>0.4</ele><time>2021-03-19T13:44:06Z</time><name>PT12800</name></trkpt>
<trkpt lat="52.968366" lon="05.973557"><ele>0.6</ele><time>2021-03-19T13:44:07Z</time><name>PT12801</name></trkpt>
<trkpt lat="52.968368" lon="05.973538"><ele>0.7</ele><time>2021-03-19T13:44:08Z</time><name>PT12802</name></trkpt>
<trkpt lat="52.968370" lon="05.973520"><ele>0.6</ele><time>2021-03-19T13:44:10Z</time><name>PT12803</name></trkpt>
<trkpt lat="52.968372" lon="05.973500"><ele>0.6</ele><time>2021-03-19T13:44:10Z</time><name>PT12804</name></trkpt>
<trkpt lat="52.968374" lon="05.973483"><ele>0.6</ele><time>2021-03-19T13:44:11Z</time><name>PT12805</name></trkpt>
<trkpt lat="52.968375" lon="05.973466"><ele>0.7</ele><time>2021-03-19T13:44:12Z</time><name>PT12806</name></trkpt>
<trkpt lat="52.968378" lon="05.973451"><ele>0.7</ele><time>2021-03-19T13:44:13Z</time><name>PT12807</name></trkpt>
<trkpt lat="52.968378" lon="05.973437"><ele>0.8</ele><time>2021-03-19T13:44:15Z</time><name>PT12808</name></trkpt>
<trkpt lat="52.968380" lon="05.973425"><ele>0.8</ele><time>2021-03-19T13:44:15Z</time><name>PT12809</name></trkpt>
<trkpt lat="52.968379" lon="05.973416"><ele>0.9</ele><time>2021-03-19T13:44:16Z</time><name>PT12810</name></trkpt>
<trkpt lat="52.968379" lon="05.973402"><ele>0.9</ele><time>2021-03-19T13:44:18Z</time><name>PT12811</name></trkpt>
<trkpt lat="52.968381" lon="05.973386"><ele>0.9</ele><time>2021-03-19T13:44:18Z</time><name>PT12812</name></trkpt>
<trkpt lat="52.968384" lon="05.973372"><ele>0.9</ele><time>2021-03-19T13:44:19Z</time><name>PT12813</name></trkpt>
<trkpt lat="52.968385" lon="05.973359"><ele>0.7</ele><time>2021-03-19T13:44:20Z</time><name>PT12814</name></trkpt>
<trkpt lat="52.968387" lon="05.973346"><ele>0.7</ele><time>2021-03-19T13:44:21Z</time><name>PT12815</name></trkpt>
<trkpt lat="52.968390" lon="05.973330"><ele>0.7</ele><time>2021-03-19T13:44:22Z</time><name>PT12816</name></trkpt>
<trkpt lat="52.968394" lon="05.973312"><ele>0.6</ele><time>2021-03-19T13:44:23Z</time><name>PT12817</name></trkpt>
<trkpt lat="52.968394" lon="05.973295"><ele>0.6</ele><time>2021-03-19T13:44:24Z</time><name>PT12818</name></trkpt>
<trkpt lat="52.968395" lon="05.973280"><ele>0.7</ele><time>2021-03-19T13:44:25Z</time><name>PT12819</name></trkpt>
<trkpt lat="52.968397" lon="05.973266"><ele>0.7</ele><time>2021-03-19T13:44:26Z</time><name>PT12820</name></trkpt>
<trkpt lat="52.968399" lon="05.973252"><ele>0.8</ele><time>2021-03-19T13:44:27Z</time><name>PT12821</name></trkpt>
<trkpt lat="52.968400" lon="05.973232"><ele>0.8</ele><time>2021-03-19T13:44:28Z</time><name>PT12822</name></trkpt>
<trkpt lat="52.968404" lon="05.973208"><ele>0.7</ele><time>2021-03-19T13:44:29Z</time><name>PT12823</name></trkpt>
<trkpt lat="52.968407" lon="05.973189"><ele>0.8</ele><time>2021-03-19T13:44:30Z</time><name>PT12824</name></trkpt>
<trkpt lat="52.968411" lon="05.973175"><ele>0.7</ele><time>2021-03-19T13:44:32Z</time><name>PT12825</name></trkpt>
<trkpt lat="52.968413" lon="05.973159"><ele>0.7</ele><time>2021-03-19T13:44:32Z</time><name>PT12826</name></trkpt>
<trkpt lat="52.968415" lon="05.973142"><ele>0.8</ele><time>2021-03-19T13:44:33Z</time><name>PT12827</name></trkpt>
<trkpt lat="52.968417" lon="05.973127"><ele>0.7</ele><time>2021-03-19T13:44:35Z</time><name>PT12828</name></trkpt>
<trkpt lat="52.968421" lon="05.973111"><ele>0.6</ele><time>2021-03-19T13:44:35Z</time><name>PT12829</name></trkpt>
<trkpt lat="52.968423" lon="05.973095"><ele>0.7</ele><time>2021-03-19T13:44:36Z</time><name>PT12830</name></trkpt>
<trkpt lat="52.968425" lon="05.973078"><ele>0.7</ele><time>2021-03-19T13:44:38Z</time><name>PT12831</name></trkpt>
<trkpt lat="52.968428" lon="05.973059"><ele>0.8</ele><time>2021-03-19T13:44:38Z</time><name>PT12832</name></trkpt>
<trkpt lat="52.968430" lon="05.973043"><ele>0.7</ele><time>2021-03-19T13:44:39Z</time><name>PT12833</name></trkpt>
<trkpt lat="52.968432" lon="05.973026"><ele>0.8</ele><time>2021-03-19T13:44:40Z</time><name>PT12834</name></trkpt>
<trkpt lat="52.968434" lon="05.973008"><ele>0.7</ele><time>2021-03-19T13:44:41Z</time><name>PT12835</name></trkpt>
<trkpt lat="52.968436" lon="05.972991"><ele>0.7</ele><time>2021-03-19T13:44:43Z</time><name>PT12836</name></trkpt>
<trkpt lat="52.968437" lon="05.972973"><ele>0.6</ele><time>2021-03-19T13:44:43Z</time><name>PT12837</name></trkpt>
<trkpt lat="52.968438" lon="05.972955"><ele>0.7</ele><time>2021-03-19T13:44:44Z</time><name>PT12838</name></trkpt>
<trkpt lat="52.968440" lon="05.972941"><ele>0.7</ele><time>2021-03-19T13:44:45Z</time><name>PT12839</name></trkpt>
<trkpt lat="52.968443" lon="05.972927"><ele>0.7</ele><time>2021-03-19T13:44:46Z</time><name>PT12840</name></trkpt>
<trkpt lat="52.968445" lon="05.972912"><ele>0.7</ele><time>2021-03-19T13:44:47Z</time><name>PT12841</name></trkpt>
<trkpt lat="52.968446" lon="05.972899"><ele>0.7</ele><time>2021-03-19T13:44:48Z</time><name>PT12842</name></trkpt>
<trkpt lat="52.968448" lon="05.972888"><ele>0.7</ele><time>2021-03-19T13:44:50Z</time><name>PT12843</name></trkpt>
<trkpt lat="52.968450" lon="05.972873"><ele>0.7</ele><time>2021-03-19T13:44:50Z</time><name>PT12844</name></trkpt>
<trkpt lat="52.968454" lon="05.972859"><ele>0.5</ele><time>2021-03-19T13:44:51Z</time><name>PT12845</name></trkpt>
<trkpt lat="52.968458" lon="05.972844"><ele>0.6</ele><time>2021-03-19T13:44:52Z</time><name>PT12846</name></trkpt>
<trkpt lat="52.968460" lon="05.972828"><ele>0.5</ele><time>2021-03-19T13:44:53Z</time><name>PT12847</name></trkpt>
<trkpt lat="52.968462" lon="05.972812"><ele>0.7</ele><time>2021-03-19T13:44:54Z</time><name>PT12848</name></trkpt>
<trkpt lat="52.968464" lon="05.972795"><ele>0.7</ele><time>2021-03-19T13:44:55Z</time><name>PT12849</name></trkpt>
<trkpt lat="52.968465" lon="05.972778"><ele>0.7</ele><time>2021-03-19T13:44:57Z</time><name>PT12850</name></trkpt>
<trkpt lat="52.968468" lon="05.972763"><ele>0.7</ele><time>2021-03-19T13:44:57Z</time><name>PT12851</name></trkpt>
<trkpt lat="52.968470" lon="05.972750"><ele>0.7</ele><time>2021-03-19T13:44:58Z</time><name>PT12852</name></trkpt>
<trkpt lat="52.968473" lon="05.972737"><ele>0.7</ele><time>2021-03-19T13:44:59Z</time><name>PT12853</name></trkpt>
<trkpt lat="52.968476" lon="05.972723"><ele>0.7</ele><time>2021-03-19T13:45:00Z</time><name>PT12854</name></trkpt>
<trkpt lat="52.968479" lon="05.972706"><ele>0.7</ele><time>2021-03-19T13:45:01Z</time><name>PT12855</name></trkpt>
<trkpt lat="52.968483" lon="05.972691"><ele>0.7</ele><time>2021-03-19T13:45:02Z</time><name>PT12856</name></trkpt>
<trkpt lat="52.968486" lon="05.972674"><ele>0.7</ele><time>2021-03-19T13:45:03Z</time><name>PT12857</name></trkpt>
<trkpt lat="52.968486" lon="05.972658"><ele>0.7</ele><time>2021-03-19T13:45:04Z</time><name>PT12858</name></trkpt>
<trkpt lat="52.968487" lon="05.972639"><ele>0.7</ele><time>2021-03-19T13:45:06Z</time><name>PT12859</name></trkpt>
<trkpt lat="52.968489" lon="05.972624"><ele>0.7</ele><time>2021-03-19T13:45:06Z</time><name>PT12860</name></trkpt>
<trkpt lat="52.968492" lon="05.972607"><ele>0.9</ele><time>2021-03-19T13:45:07Z</time><name>PT12861</name></trkpt>
<trkpt lat="52.968490" lon="05.972585"><ele>-1</ele><time>2021-03-19T13:45:08Z</time><name>PT12862</name></trkpt>
<trkpt lat="52.968490" lon="05.972568"><ele>0.9</ele><time>2021-03-19T13:45:09Z</time><name>PT12863</name></trkpt>
<trkpt lat="52.968492" lon="05.972546"><ele>-1</ele><time>2021-03-19T13:45:10Z</time><name>PT12864</name></trkpt>
<trkpt lat="52.968494" lon="05.972530"><ele>0.9</ele><time>2021-03-19T13:45:11Z</time><name>PT12865</name></trkpt>
<trkpt lat="52.968498" lon="05.972515"><ele>0.9</ele><time>2021-03-19T13:45:13Z</time><name>PT12866</name></trkpt>
<trkpt lat="52.968498" lon="05.972507"><ele>0.9</ele><time>2021-03-19T13:45:13Z</time><name>PT12867</name></trkpt>
<trkpt lat="52.968500" lon="05.972495"><ele>0.9</ele><time>2021-03-19T13:45:14Z</time><name>PT12868</name></trkpt>
<trkpt lat="52.968504" lon="05.972482"><ele>0.8</ele><time>2021-03-19T13:45:15Z</time><name>PT12869</name></trkpt>
<trkpt lat="52.968506" lon="05.972467"><ele>-1</ele><time>2021-03-19T13:45:16Z</time><name>PT12870</name></trkpt>
<trkpt lat="52.968509" lon="05.972452"><ele>-1</ele><time>2021-03-19T13:45:17Z</time><name>PT12871</name></trkpt>
<trkpt lat="52.968510" lon="05.972442"><ele>0.8</ele><time>2021-03-19T13:45:18Z</time><name>PT12872</name></trkpt>
<trkpt lat="52.968512" lon="05.972426"><ele>0.9</ele><time>2021-03-19T13:45:19Z</time><name>PT12873</name></trkpt>
<trkpt lat="52.968514" lon="05.972410"><ele>0.8</ele><time>2021-03-19T13:45:20Z</time><name>PT12874</name></trkpt>
<trkpt lat="52.968516" lon="05.972395"><ele>0.6</ele><time>2021-03-19T13:45:21Z</time><name>PT12875</name></trkpt>
<trkpt lat="52.968518" lon="05.972377"><ele>0.4</ele><time>2021-03-19T13:45:22Z</time><name>PT12876</name></trkpt>
<trkpt lat="52.968519" lon="05.972359"><ele>0.6</ele><time>2021-03-19T13:45:23Z</time><name>PT12877</name></trkpt>
<trkpt lat="52.968519" lon="05.972342"><ele>0.6</ele><time>2021-03-19T13:45:24Z</time><name>PT12878</name></trkpt>
<trkpt lat="52.968523" lon="05.972323"><ele>0.7</ele><time>2021-03-19T13:45:25Z</time><name>PT12879</name></trkpt>
<trkpt lat="52.968526" lon="05.972310"><ele>0.7</ele><time>2021-03-19T13:45:26Z</time><name>PT12880</name></trkpt>
<trkpt lat="52.968530" lon="05.972300"><ele>0.8</ele><time>2021-03-19T13:45:27Z</time><name>PT12881</name></trkpt>
<trkpt lat="52.968532" lon="05.972287"><ele>0.8</ele><time>2021-03-19T13:45:28Z</time><name>PT12882</name></trkpt>
<trkpt lat="52.968535" lon="05.972272"><ele>0.7</ele><time>2021-03-19T13:45:29Z</time><name>PT12883</name></trkpt>
<trkpt lat="52.968534" lon="05.972258"><ele>0.7</ele><time>2021-03-19T13:45:30Z</time><name>PT12884</name></trkpt>
<trkpt lat="52.968532" lon="05.972237"><ele>0.7</ele><time>2021-03-19T13:45:32Z</time><name>PT12885</name></trkpt>
<trkpt lat="52.968532" lon="05.972223"><ele>0.7</ele><time>2021-03-19T13:45:32Z</time><name>PT12886</name></trkpt>
<trkpt lat="52.968535" lon="05.972206"><ele>0.8</ele><time>2021-03-19T13:45:33Z</time><name>PT12887</name></trkpt>
<trkpt lat="52.968538" lon="05.972188"><ele>0.7</ele><time>2021-03-19T13:45:34Z</time><name>PT12888</name></trkpt>
<trkpt lat="52.968540" lon="05.972169"><ele>0.8</ele><time>2021-03-19T13:45:35Z</time><name>PT12889</name></trkpt>
<trkpt lat="52.968541" lon="05.972139"><ele>0.7</ele><time>2021-03-19T13:45:36Z</time><name>PT12890</name></trkpt>
<trkpt lat="52.968541" lon="05.972109"><ele>0.4</ele><time>2021-03-19T13:45:37Z</time><name>PT12891</name></trkpt>
<trkpt lat="52.968540" lon="05.972081"><ele>0.5</ele><time>2021-03-19T13:45:38Z</time><name>PT12892</name></trkpt>
<trkpt lat="52.968540" lon="05.972054"><ele>0.5</ele><time>2021-03-19T13:45:39Z</time><name>PT12893</name></trkpt>
<trkpt lat="52.968543" lon="05.972031"><ele>0.4</ele><time>2021-03-19T13:45:40Z</time><name>PT12894</name></trkpt>
<trkpt lat="52.968542" lon="05.972005"><ele>0.7</ele><time>2021-03-19T13:45:41Z</time><name>PT12895</name></trkpt>
<trkpt lat="52.968540" lon="05.971982"><ele>0.4</ele><time>2021-03-19T13:45:43Z</time><name>PT12896</name></trkpt>
<trkpt lat="52.968540" lon="05.971961"><ele>0.4</ele><time>2021-03-19T13:45:43Z</time><name>PT12897</name></trkpt>
<trkpt lat="52.968538" lon="05.971939"><ele>0.4</ele><time>2021-03-19T13:45:44Z</time><name>PT12898</name></trkpt>
<trkpt lat="52.968536" lon="05.971917"><ele>0.3</ele><time>2021-03-19T13:45:46Z</time><name>PT12899</name></trkpt>
<trkpt lat="52.968534" lon="05.971895"><ele>0.3</ele><time>2021-03-19T13:45:46Z</time><name>PT12900</name></trkpt>
<trkpt lat="52.968535" lon="05.971875"><ele>0.5</ele><time>2021-03-19T13:45:47Z</time><name>PT12901</name></trkpt>
<trkpt lat="52.968536" lon="05.971856"><ele>0.6</ele><time>2021-03-19T13:45:48Z</time><name>PT12902</name></trkpt>
<trkpt lat="52.968537" lon="05.971838"><ele>0.5</ele><time>2021-03-19T13:45:49Z</time><name>PT12903</name></trkpt>
<trkpt lat="52.968538" lon="05.971819"><ele>0.7</ele><time>2021-03-19T13:45:51Z</time><name>PT12904</name></trkpt>
<trkpt lat="52.968537" lon="05.971800"><ele>0.8</ele><time>2021-03-19T13:45:51Z</time><name>PT12905</name></trkpt>
<trkpt lat="52.968535" lon="05.971782"><ele>-1.1</ele><time>2021-03-19T13:45:52Z</time><name>PT12906</name></trkpt>
<trkpt lat="52.968535" lon="05.971762"><ele>0.9</ele><time>2021-03-19T13:45:54Z</time><name>PT12907</name></trkpt>
<trkpt lat="52.968536" lon="05.971743"><ele>0.9</ele><time>2021-03-19T13:45:54Z</time><name>PT12908</name></trkpt>
<trkpt lat="52.968537" lon="05.971723"><ele>0.9</ele><time>2021-03-19T13:45:55Z</time><name>PT12909</name></trkpt>
<trkpt lat="52.968538" lon="05.971705"><ele>0.8</ele><time>2021-03-19T13:45:57Z</time><name>PT12910</name></trkpt>
<trkpt lat="52.968536" lon="05.971688"><ele>0.9</ele><time>2021-03-19T13:45:57Z</time><name>PT12911</name></trkpt>
<trkpt lat="52.968535" lon="05.971673"><ele>0.8</ele><time>2021-03-19T13:45:58Z</time><name>PT12912</name></trkpt>
<trkpt lat="52.968533" lon="05.971655"><ele>0.7</ele><time>2021-03-19T13:45:59Z</time><name>PT12913</name></trkpt>
<trkpt lat="52.968532" lon="05.971637"><ele>0.8</ele><time>2021-03-19T13:46:00Z</time><name>PT12914</name></trkpt>
<trkpt lat="52.968531" lon="05.971621"><ele>0.7</ele><time>2021-03-19T13:46:02Z</time><name>PT12915</name></trkpt>
<trkpt lat="52.968530" lon="05.971605"><ele>0.6</ele><time>2021-03-19T13:46:02Z</time><name>PT12916</name></trkpt>
<trkpt lat="52.968529" lon="05.971589"><ele>0.7</ele><time>2021-03-19T13:46:03Z</time><name>PT12917</name></trkpt>
<trkpt lat="52.968527" lon="05.971572"><ele>0.7</ele><time>2021-03-19T13:46:05Z</time><name>PT12918</name></trkpt>
<trkpt lat="52.968527" lon="05.971553"><ele>0.6</ele><time>2021-03-19T13:46:05Z</time><name>PT12919</name></trkpt>
<trkpt lat="52.968528" lon="05.971537"><ele>0.7</ele><time>2021-03-19T13:46:06Z</time><name>PT12920</name></trkpt>
<trkpt lat="52.968528" lon="05.971521"><ele>0.8</ele><time>2021-03-19T13:46:07Z</time><name>PT12921</name></trkpt>
<trkpt lat="52.968527" lon="05.971504"><ele>0.7</ele><time>2021-03-19T13:46:08Z</time><name>PT12922</name></trkpt>
<trkpt lat="52.968524" lon="05.971489"><ele>-1.1</ele><time>2021-03-19T13:46:10Z</time><name>PT12923</name></trkpt>
<trkpt lat="52.968522" lon="05.971472"><ele>-1.1</ele><time>2021-03-19T13:46:10Z</time><name>PT12924</name></trkpt>
<trkpt lat="52.968523" lon="05.971453"><ele>-1.1</ele><time>2021-03-19T13:46:11Z</time><name>PT12925</name></trkpt>
<trkpt lat="52.968522" lon="05.971437"><ele>-1</ele><time>2021-03-19T13:46:13Z</time><name>PT12926</name></trkpt>
<trkpt lat="52.968521" lon="05.971422"><ele>0.9</ele><time>2021-03-19T13:46:13Z</time><name>PT12927</name></trkpt>
<trkpt lat="52.968520" lon="05.971405"><ele>0.5</ele><time>2021-03-19T13:46:14Z</time><name>PT12928</name></trkpt>
<trkpt lat="52.968519" lon="05.971387"><ele>0.4</ele><time>2021-03-19T13:46:15Z</time><name>PT12929</name></trkpt>
<trkpt lat="52.968519" lon="05.971368"><ele>0.5</ele><time>2021-03-19T13:46:16Z</time><name>PT12930</name></trkpt>
<trkpt lat="52.968520" lon="05.971350"><ele>0.5</ele><time>2021-03-19T13:46:17Z</time><name>PT12931</name></trkpt>
<trkpt lat="52.968520" lon="05.971333"><ele>0.7</ele><time>2021-03-19T13:46:18Z</time><name>PT12932</name></trkpt>
<trkpt lat="52.968521" lon="05.971318"><ele>0.7</ele><time>2021-03-19T13:46:20Z</time><name>PT12933</name></trkpt>
<trkpt lat="52.968520" lon="05.971301"><ele>0.7</ele><time>2021-03-19T13:46:20Z</time><name>PT12934</name></trkpt>
<trkpt lat="52.968518" lon="05.971284"><ele>0.7</ele><time>2021-03-19T13:46:21Z</time><name>PT12935</name></trkpt>
<trkpt lat="52.968519" lon="05.971266"><ele>0.7</ele><time>2021-03-19T13:46:22Z</time><name>PT12936</name></trkpt>
<trkpt lat="52.968521" lon="05.971248"><ele>0.7</ele><time>2021-03-19T13:46:23Z</time><name>PT12937</name></trkpt>
<trkpt lat="52.968521" lon="05.971230"><ele>0.7</ele><time>2021-03-19T13:46:25Z</time><name>PT12938</name></trkpt>
<trkpt lat="52.968520" lon="05.971212"><ele>0.7</ele><time>2021-03-19T13:46:25Z</time><name>PT12939</name></trkpt>
<trkpt lat="52.968520" lon="05.971194"><ele>0.7</ele><time>2021-03-19T13:46:26Z</time><name>PT12940</name></trkpt>
<trkpt lat="52.968519" lon="05.971178"><ele>0.7</ele><time>2021-03-19T13:46:27Z</time><name>PT12941</name></trkpt>
<trkpt lat="52.968518" lon="05.971160"><ele>0.7</ele><time>2021-03-19T13:46:28Z</time><name>PT12942</name></trkpt>
<trkpt lat="52.968519" lon="05.971143"><ele>0.4</ele><time>2021-03-19T13:46:30Z</time><name>PT12943</name></trkpt>
<trkpt lat="52.968519" lon="05.971127"><ele>0.5</ele><time>2021-03-19T13:46:30Z</time><name>PT12944</name></trkpt>
<trkpt lat="52.968518" lon="05.971111"><ele>0.4</ele><time>2021-03-19T13:46:31Z</time><name>PT12945</name></trkpt>
<trkpt lat="52.968517" lon="05.971095"><ele>0.6</ele><time>2021-03-19T13:46:32Z</time><name>PT12946</name></trkpt>
<trkpt lat="52.968516" lon="05.971080"><ele>0.8</ele><time>2021-03-19T13:46:33Z</time><name>PT12947</name></trkpt>
<trkpt lat="52.968517" lon="05.971061"><ele>0.9</ele><time>2021-03-19T13:46:34Z</time><name>PT12948</name></trkpt>
<trkpt lat="52.968518" lon="05.971045"><ele>-1</ele><time>2021-03-19T13:46:35Z</time><name>PT12949</name></trkpt>
<trkpt lat="52.968519" lon="05.971028"><ele>-1.2</ele><time>2021-03-19T13:46:36Z</time><name>PT12950</name></trkpt>
<trkpt lat="52.968520" lon="05.971010"><ele>0.9</ele><time>2021-03-19T13:46:37Z</time><name>PT12951</name></trkpt>
<trkpt lat="52.968518" lon="05.970992"><ele>0.8</ele><time>2021-03-19T13:46:39Z</time><name>PT12952</name></trkpt>
<trkpt lat="52.968516" lon="05.970975"><ele>0.7</ele><time>2021-03-19T13:46:39Z</time><name>PT12953</name></trkpt>
<trkpt lat="52.968516" lon="05.970958"><ele>0.7</ele><time>2021-03-19T13:46:40Z</time><name>PT12954</name></trkpt>
<trkpt lat="52.968515" lon="05.970943"><ele>0.7</ele><time>2021-03-19T13:46:41Z</time><name>PT12955</name></trkpt>
<trkpt lat="52.968513" lon="05.970928"><ele>0.7</ele><time>2021-03-19T13:46:42Z</time><name>PT12956</name></trkpt>
<trkpt lat="52.968511" lon="05.970912"><ele>0.9</ele><time>2021-03-19T13:46:43Z</time><name>PT12957</name></trkpt>
<trkpt lat="52.968510" lon="05.970894"><ele>0.9</ele><time>2021-03-19T13:46:44Z</time><name>PT12958</name></trkpt>
<trkpt lat="52.968509" lon="05.970876"><ele>-1</ele><time>2021-03-19T13:46:45Z</time><name>PT12959</name></trkpt>
<trkpt lat="52.968510" lon="05.970857"><ele>-1.2</ele><time>2021-03-19T13:46:46Z</time><name>PT12960</name></trkpt>
<trkpt lat="52.968510" lon="05.970840"><ele>-1.1</ele><time>2021-03-19T13:46:47Z</time><name>PT12961</name></trkpt>
<trkpt lat="52.968510" lon="05.970823"><ele>0.9</ele><time>2021-03-19T13:46:48Z</time><name>PT12962</name></trkpt>
<trkpt lat="52.968510" lon="05.970806"><ele>-1</ele><time>2021-03-19T13:46:49Z</time><name>PT12963</name></trkpt>
<trkpt lat="52.968509" lon="05.970788"><ele>-1</ele><time>2021-03-19T13:46:50Z</time><name>PT12964</name></trkpt>
<trkpt lat="52.968508" lon="05.970770"><ele>-1</ele><time>2021-03-19T13:46:51Z</time><name>PT12965</name></trkpt>
<trkpt lat="52.968509" lon="05.970751"><ele>-1.1</ele><time>2021-03-19T13:46:52Z</time><name>PT12966</name></trkpt>
<trkpt lat="52.968510" lon="05.970735"><ele>-1</ele><time>2021-03-19T13:46:54Z</time><name>PT12967</name></trkpt>
<trkpt lat="52.968511" lon="05.970719"><ele>-1</ele><time>2021-03-19T13:46:54Z</time><name>PT12968</name></trkpt>
<trkpt lat="52.968510" lon="05.970703"><ele>0.9</ele><time>2021-03-19T13:46:55Z</time><name>PT12969</name></trkpt>
<trkpt lat="52.968509" lon="05.970687"><ele>0.8</ele><time>2021-03-19T13:46:57Z</time><name>PT12970</name></trkpt>
<trkpt lat="52.968509" lon="05.970669"><ele>0.9</ele><time>2021-03-19T13:46:57Z</time><name>PT12971</name></trkpt>
<trkpt lat="52.968509" lon="05.970649"><ele>0.8</ele><time>2021-03-19T13:46:58Z</time><name>PT12972</name></trkpt>
<trkpt lat="52.968510" lon="05.970631"><ele>0.8</ele><time>2021-03-19T13:46:59Z</time><name>PT12973</name></trkpt>
<trkpt lat="52.968509" lon="05.970613"><ele>0.7</ele><time>2021-03-19T13:47:00Z</time><name>PT12974</name></trkpt>
<trkpt lat="52.968508" lon="05.970597"><ele>-1</ele><time>2021-03-19T13:47:02Z</time><name>PT12975</name></trkpt>
<trkpt lat="52.968508" lon="05.970582"><ele>-1.1</ele><time>2021-03-19T13:47:02Z</time><name>PT12976</name></trkpt>
<trkpt lat="52.968508" lon="05.970566"><ele>-1.1</ele><time>2021-03-19T13:47:03Z</time><name>PT12977</name></trkpt>
<trkpt lat="52.968508" lon="05.970547"><ele>-1.2</ele><time>2021-03-19T13:47:05Z</time><name>PT12978</name></trkpt>
<trkpt lat="52.968508" lon="05.970531"><ele>-1.2</ele><time>2021-03-19T13:47:05Z</time><name>PT12979</name></trkpt>
<trkpt lat="52.968507" lon="05.970514"><ele>-1</ele><time>2021-03-19T13:47:06Z</time><name>PT12980</name></trkpt>
<trkpt lat="52.968506" lon="05.970497"><ele>-1.3</ele><time>2021-03-19T13:47:08Z</time><name>PT12981</name></trkpt>
<trkpt lat="52.968507" lon="05.970478"><ele>-1.2</ele><time>2021-03-19T13:47:08Z</time><name>PT12982</name></trkpt>
<trkpt lat="52.968507" lon="05.970460"><ele>-1.2</ele><time>2021-03-19T13:47:09Z</time><name>PT12983</name></trkpt>
<trkpt lat="52.968508" lon="05.970442"><ele>-1.4</ele><time>2021-03-19T13:47:11Z</time><name>PT12984</name></trkpt>
<trkpt lat="52.968509" lon="05.970425"><ele>-1.5</ele><time>2021-03-19T13:47:11Z</time><name>PT12985</name></trkpt>
<trkpt lat="52.968509" lon="05.970406"><ele>-1.5</ele><time>2021-03-19T13:47:12Z</time><name>PT12986</name></trkpt>
<trkpt lat="52.968510" lon="05.970388"><ele>-1.5</ele><time>2021-03-19T13:47:14Z</time><name>PT12987</name></trkpt>
<trkpt lat="52.968509" lon="05.970370"><ele>-1.6</ele><time>2021-03-19T13:47:14Z</time><name>PT12988</name></trkpt>
<trkpt lat="52.968507" lon="05.970352"><ele>-1.6</ele><time>2021-03-19T13:47:15Z</time><name>PT12989</name></trkpt>
<trkpt lat="52.968506" lon="05.970334"><ele>-1.6</ele><time>2021-03-19T13:47:17Z</time><name>PT12990</name></trkpt>
<trkpt lat="52.968506" lon="05.970316"><ele>-1.6</ele><time>2021-03-19T13:47:17Z</time><name>PT12991</name></trkpt>
<trkpt lat="52.968507" lon="05.970298"><ele>-1.6</ele><time>2021-03-19T13:47:18Z</time><name>PT12992</name></trkpt>
<trkpt lat="52.968507" lon="05.970280"><ele>-1.6</ele><time>2021-03-19T13:47:20Z</time><name>PT12993</name></trkpt>
<trkpt lat="52.968506" lon="05.970263"><ele>-1.7</ele><time>2021-03-19T13:47:20Z</time><name>PT12994</name></trkpt>
<trkpt lat="52.968504" lon="05.970248"><ele>-1.7</ele><time>2021-03-19T13:47:21Z</time><name>PT12995</name></trkpt>
<trkpt lat="52.968504" lon="05.970231"><ele>-1.6</ele><time>2021-03-19T13:47:23Z</time><name>PT12996</name></trkpt>
<trkpt lat="52.968504" lon="05.970214"><ele>-1.6</ele><time>2021-03-19T13:47:23Z</time><name>PT12997</name></trkpt>
<trkpt lat="52.968504" lon="05.970197"><ele>-1.6</ele><time>2021-03-19T13:47:24Z</time><name>PT12998</name></trkpt>
<trkpt lat="52.968507" lon="05.970179"><ele>-1.5</ele><time>2021-03-19T13:47:26Z</time><name>PT12999</name></trkpt>
<trkpt lat="52.968506" lon="05.970160"><ele>-1.5</ele><time>2021-03-19T13:47:26Z</time><name>PT13000</name></trkpt>
<trkpt lat="52.968504" lon="05.970144"><ele>-1.6</ele><time>2021-03-19T13:47:27Z</time><name>PT13001</name></trkpt>
<trkpt lat="52.968503" lon="05.970125"><ele>-1.6</ele><time>2021-03-19T13:47:28Z</time><name>PT13002</name></trkpt>
<trkpt lat="52.968502" lon="05.970107"><ele>-1.5</ele><time>2021-03-19T13:47:29Z</time><name>PT13003</name></trkpt>
<trkpt lat="52.968502" lon="05.970089"><ele>-1.4</ele><time>2021-03-19T13:47:31Z</time><name>PT13004</name></trkpt>
<trkpt lat="52.968502" lon="05.970073"><ele>-1.4</ele><time>2021-03-19T13:47:31Z</time><name>PT13005</name></trkpt>
<trkpt lat="52.968501" lon="05.970056"><ele>-1.5</ele><time>2021-03-19T13:47:32Z</time><name>PT13006</name></trkpt>
<trkpt lat="52.968502" lon="05.970038"><ele>-1.3</ele><time>2021-03-19T13:47:34Z</time><name>PT13007</name></trkpt>
<trkpt lat="52.968502" lon="05.970021"><ele>-1.3</ele><time>2021-03-19T13:47:34Z</time><name>PT13008</name></trkpt>
<trkpt lat="52.968502" lon="05.970003"><ele>-1.3</ele><time>2021-03-19T13:47:35Z</time><name>PT13009</name></trkpt>
<trkpt lat="52.968502" lon="05.969986"><ele>-1.2</ele><time>2021-03-19T13:47:37Z</time><name>PT13010</name></trkpt>
<trkpt lat="52.968502" lon="05.969970"><ele>-1.2</ele><time>2021-03-19T13:47:37Z</time><name>PT13011</name></trkpt>
<trkpt lat="52.968502" lon="05.969955"><ele>-1.3</ele><time>2021-03-19T13:47:38Z</time><name>PT13012</name></trkpt>
<trkpt lat="52.968504" lon="05.969939"><ele>-1.3</ele><time>2021-03-19T13:47:40Z</time><name>PT13013</name></trkpt>
<trkpt lat="52.968508" lon="05.969922"><ele>-1.5</ele><time>2021-03-19T13:47:40Z</time><name>PT13014</name></trkpt>
<trkpt lat="52.968510" lon="05.969908"><ele>-1.4</ele><time>2021-03-19T13:47:41Z</time><name>PT13015</name></trkpt>
<trkpt lat="52.968512" lon="05.969893"><ele>-1.2</ele><time>2021-03-19T13:47:43Z</time><name>PT13016</name></trkpt>
<trkpt lat="52.968511" lon="05.969876"><ele>-1.3</ele><time>2021-03-19T13:47:43Z</time><name>PT13017</name></trkpt>
<trkpt lat="52.968509" lon="05.969859"><ele>-1.2</ele><time>2021-03-19T13:47:44Z</time><name>PT13018</name></trkpt>
<trkpt lat="52.968506" lon="05.969839"><ele>-1.2</ele><time>2021-03-19T13:47:45Z</time><name>PT13019</name></trkpt>
<trkpt lat="52.968505" lon="05.969821"><ele>-1.4</ele><time>2021-03-19T13:47:46Z</time><name>PT13020</name></trkpt>
<trkpt lat="52.968505" lon="05.969805"><ele>-1.6</ele><time>2021-03-19T13:47:48Z</time><name>PT13021</name></trkpt>
<trkpt lat="52.968503" lon="05.969788"><ele>-1.6</ele><time>2021-03-19T13:47:48Z</time><name>PT13022</name></trkpt>
<trkpt lat="52.968499" lon="05.969772"><ele>-1.9</ele><time>2021-03-19T13:47:49Z</time><name>PT13023</name></trkpt>
<trkpt lat="52.968497" lon="05.969757"><ele>-1.9</ele><time>2021-03-19T13:47:51Z</time><name>PT13024</name></trkpt>
<trkpt lat="52.968496" lon="05.969739"><ele>-1.8</ele><time>2021-03-19T13:47:51Z</time><name>PT13025</name></trkpt>
<trkpt lat="52.968495" lon="05.969721"><ele>-1.9</ele><time>2021-03-19T13:47:52Z</time><name>PT13026</name></trkpt>
<trkpt lat="52.968495" lon="05.969703"><ele>-1.8</ele><time>2021-03-19T13:47:54Z</time><name>PT13027</name></trkpt>
<trkpt lat="52.968495" lon="05.969688"><ele>-1.9</ele><time>2021-03-19T13:47:54Z</time><name>PT13028</name></trkpt>
<trkpt lat="52.968496" lon="05.969671"><ele>-1.9</ele><time>2021-03-19T13:47:55Z</time><name>PT13029</name></trkpt>
<trkpt lat="52.968495" lon="05.969654"><ele>-2</ele><time>2021-03-19T13:47:56Z</time><name>PT13030</name></trkpt>
<trkpt lat="52.968493" lon="05.969635"><ele>-1.9</ele><time>2021-03-19T13:47:58Z</time><name>PT13031</name></trkpt>
<trkpt lat="52.968493" lon="05.969616"><ele>-1.9</ele><time>2021-03-19T13:47:58Z</time><name>PT13032</name></trkpt>
<trkpt lat="52.968492" lon="05.969598"><ele>-1.8</ele><time>2021-03-19T13:47:59Z</time><name>PT13033</name></trkpt>
<trkpt lat="52.968493" lon="05.969581"><ele>-1.8</ele><time>2021-03-19T13:48:00Z</time><name>PT13034</name></trkpt>
<trkpt lat="52.968492" lon="05.969564"><ele>-1.7</ele><time>2021-03-19T13:48:01Z</time><name>PT13035</name></trkpt>
<trkpt lat="52.968491" lon="05.969546"><ele>-1.7</ele><time>2021-03-19T13:48:02Z</time><name>PT13036</name></trkpt>
<trkpt lat="52.968489" lon="05.969527"><ele>-1.7</ele><time>2021-03-19T13:48:03Z</time><name>PT13037</name></trkpt>
<trkpt lat="52.968488" lon="05.969509"><ele>-1.7</ele><time>2021-03-19T13:48:04Z</time><name>PT13038</name></trkpt>
<trkpt lat="52.968489" lon="05.969490"><ele>-1.6</ele><time>2021-03-19T13:48:05Z</time><name>PT13039</name></trkpt>
<trkpt lat="52.968490" lon="05.969474"><ele>-1.5</ele><time>2021-03-19T13:48:06Z</time><name>PT13040</name></trkpt>
<trkpt lat="52.968490" lon="05.969456"><ele>-1.4</ele><time>2021-03-19T13:48:07Z</time><name>PT13041</name></trkpt>
<trkpt lat="52.968488" lon="05.969439"><ele>-1.4</ele><time>2021-03-19T13:48:08Z</time><name>PT13042</name></trkpt>
<trkpt lat="52.968487" lon="05.969424"><ele>-1.4</ele><time>2021-03-19T13:48:09Z</time><name>PT13043</name></trkpt>
<trkpt lat="52.968486" lon="05.969405"><ele>-1.5</ele><time>2021-03-19T13:48:11Z</time><name>PT13044</name></trkpt>
<trkpt lat="52.968483" lon="05.969384"><ele>-1.6</ele><time>2021-03-19T13:48:11Z</time><name>PT13045</name></trkpt>
<trkpt lat="52.968482" lon="05.969366"><ele>-1.6</ele><time>2021-03-19T13:48:12Z</time><name>PT13046</name></trkpt>
<trkpt lat="52.968483" lon="05.969349"><ele>-1.5</ele><time>2021-03-19T13:48:13Z</time><name>PT13047</name></trkpt>
<trkpt lat="52.968484" lon="05.969334"><ele>-1.5</ele><time>2021-03-19T13:48:14Z</time><name>PT13048</name></trkpt>
<trkpt lat="52.968483" lon="05.969319"><ele>-1.4</ele><time>2021-03-19T13:48:15Z</time><name>PT13049</name></trkpt>
<trkpt lat="52.968482" lon="05.969303"><ele>-1.5</ele><time>2021-03-19T13:48:16Z</time><name>PT13050</name></trkpt>
<trkpt lat="52.968482" lon="05.969285"><ele>-1.6</ele><time>2021-03-19T13:48:18Z</time><name>PT13051</name></trkpt>
<trkpt lat="52.968482" lon="05.969269"><ele>-1.7</ele><time>2021-03-19T13:48:18Z</time><name>PT13052</name></trkpt>
<trkpt lat="52.968482" lon="05.969251"><ele>-1.9</ele><time>2021-03-19T13:48:19Z</time><name>PT13053</name></trkpt>
<trkpt lat="52.968483" lon="05.969236"><ele>-2</ele><time>2021-03-19T13:48:21Z</time><name>PT13054</name></trkpt>
<trkpt lat="52.968482" lon="05.969219"><ele>-1.9</ele><time>2021-03-19T13:48:21Z</time><name>PT13055</name></trkpt>
<trkpt lat="52.968482" lon="05.969203"><ele>-1.8</ele><time>2021-03-19T13:48:22Z</time><name>PT13056</name></trkpt>
<trkpt lat="52.968483" lon="05.969185"><ele>-1.8</ele><time>2021-03-19T13:48:24Z</time><name>PT13057</name></trkpt>
<trkpt lat="52.968482" lon="05.969163"><ele>-1.9</ele><time>2021-03-19T13:48:24Z</time><name>PT13058</name></trkpt>
<trkpt lat="52.968483" lon="05.969145"><ele>-1.8</ele><time>2021-03-19T13:48:25Z</time><name>PT13059</name></trkpt>
<trkpt lat="52.968483" lon="05.969130"><ele>-1.8</ele><time>2021-03-19T13:48:27Z</time><name>PT13060</name></trkpt>
<trkpt lat="52.968482" lon="05.969112"><ele>-1.6</ele><time>2021-03-19T13:48:27Z</time><name>PT13061</name></trkpt>
<trkpt lat="52.968480" lon="05.969096"><ele>-1.5</ele><time>2021-03-19T13:48:28Z</time><name>PT13062</name></trkpt>
<trkpt lat="52.968477" lon="05.969078"><ele>-1.6</ele><time>2021-03-19T13:48:29Z</time><name>PT13063</name></trkpt>
<trkpt lat="52.968476" lon="05.969060"><ele>-1.4</ele><time>2021-03-19T13:48:30Z</time><name>PT13064</name></trkpt>
<trkpt lat="52.968475" lon="05.969044"><ele>-1.3</ele><time>2021-03-19T13:48:31Z</time><name>PT13065</name></trkpt>
<trkpt lat="52.968475" lon="05.969027"><ele>-1.2</ele><time>2021-03-19T13:48:32Z</time><name>PT13066</name></trkpt>
<trkpt lat="52.968477" lon="05.969011"><ele>-1.2</ele><time>2021-03-19T13:48:34Z</time><name>PT13067</name></trkpt>
<trkpt lat="52.968477" lon="05.968994"><ele>-1.3</ele><time>2021-03-19T13:48:34Z</time><name>PT13068</name></trkpt>
<trkpt lat="52.968475" lon="05.968977"><ele>-1.2</ele><time>2021-03-19T13:48:35Z</time><name>PT13069</name></trkpt>
<trkpt lat="52.968473" lon="05.968959"><ele>-1.3</ele><time>2021-03-19T13:48:36Z</time><name>PT13070</name></trkpt>
<trkpt lat="52.968474" lon="05.968942"><ele>-1.4</ele><time>2021-03-19T13:48:37Z</time><name>PT13071</name></trkpt>
<trkpt lat="52.968474" lon="05.968926"><ele>-1.1</ele><time>2021-03-19T13:48:38Z</time><name>PT13072</name></trkpt>
<trkpt lat="52.968473" lon="05.968910"><ele>-1.1</ele><time>2021-03-19T13:48:39Z</time><name>PT13073</name></trkpt>
<trkpt lat="52.968472" lon="05.968893"><ele>-1</ele><time>2021-03-19T13:48:41Z</time><name>PT13074</name></trkpt>
<trkpt lat="52.968473" lon="05.968877"><ele>-1.1</ele><time>2021-03-19T13:48:41Z</time><name>PT13075</name></trkpt>
<trkpt lat="52.968475" lon="05.968860"><ele>-1.4</ele><time>2021-03-19T13:48:42Z</time><name>PT13076</name></trkpt>
<trkpt lat="52.968476" lon="05.968841"><ele>-1.4</ele><time>2021-03-19T13:48:44Z</time><name>PT13077</name></trkpt>
<trkpt lat="52.968476" lon="05.968822"><ele>-1.3</ele><time>2021-03-19T13:48:44Z</time><name>PT13078</name></trkpt>
<trkpt lat="52.968476" lon="05.968807"><ele>-1.2</ele><time>2021-03-19T13:48:45Z</time><name>PT13079</name></trkpt>
<trkpt lat="52.968476" lon="05.968790"><ele>-1.1</ele><time>2021-03-19T13:48:47Z</time><name>PT13080</name></trkpt>
<trkpt lat="52.968474" lon="05.968774"><ele>0.9</ele><time>2021-03-19T13:48:47Z</time><name>PT13081</name></trkpt>
<trkpt lat="52.968473" lon="05.968757"><ele>0.8</ele><time>2021-03-19T13:48:48Z</time><name>PT13082</name></trkpt>
<trkpt lat="52.968474" lon="05.968740"><ele>0.8</ele><time>2021-03-19T13:48:49Z</time><name>PT13083</name></trkpt>
<trkpt lat="52.968474" lon="05.968722"><ele>0.8</ele><time>2021-03-19T13:48:51Z</time><name>PT13084</name></trkpt>
<trkpt lat="52.968473" lon="05.968704"><ele>0.7</ele><time>2021-03-19T13:48:51Z</time><name>PT13085</name></trkpt>
<trkpt lat="52.968473" lon="05.968687"><ele>0.8</ele><time>2021-03-19T13:48:52Z</time><name>PT13086</name></trkpt>
<trkpt lat="52.968473" lon="05.968670"><ele>0.8</ele><time>2021-03-19T13:48:54Z</time><name>PT13087</name></trkpt>
<trkpt lat="52.968473" lon="05.968652"><ele>0.9</ele><time>2021-03-19T13:48:54Z</time><name>PT13088</name></trkpt>
<trkpt lat="52.968472" lon="05.968634"><ele>-1.2</ele><time>2021-03-19T13:48:55Z</time><name>PT13089</name></trkpt>
<trkpt lat="52.968473" lon="05.968619"><ele>-1.2</ele><time>2021-03-19T13:48:57Z</time><name>PT13090</name></trkpt>
<trkpt lat="52.968473" lon="05.968603"><ele>-1.3</ele><time>2021-03-19T13:48:57Z</time><name>PT13091</name></trkpt>
<trkpt lat="52.968473" lon="05.968584"><ele>-1.2</ele><time>2021-03-19T13:48:58Z</time><name>PT13092</name></trkpt>
<trkpt lat="52.968472" lon="05.968569"><ele>-1.1</ele><time>2021-03-19T13:48:59Z</time><name>PT13093</name></trkpt>
<trkpt lat="52.968472" lon="05.968552"><ele>0.7</ele><time>2021-03-19T13:49:00Z</time><name>PT13094</name></trkpt>
<trkpt lat="52.968472" lon="05.968534"><ele>0.7</ele><time>2021-03-19T13:49:02Z</time><name>PT13095</name></trkpt>
<trkpt lat="52.968472" lon="05.968516"><ele>0.7</ele><time>2021-03-19T13:49:02Z</time><name>PT13096</name></trkpt>
<trkpt lat="52.968471" lon="05.968500"><ele>0.9</ele><time>2021-03-19T13:49:03Z</time><name>PT13097</name></trkpt>
<trkpt lat="52.968470" lon="05.968484"><ele>-1.1</ele><time>2021-03-19T13:49:05Z</time><name>PT13098</name></trkpt>
<trkpt lat="52.968471" lon="05.968467"><ele>-1.2</ele><time>2021-03-19T13:49:05Z</time><name>PT13099</name></trkpt>
<trkpt lat="52.968472" lon="05.968450"><ele>-1.2</ele><time>2021-03-19T13:49:06Z</time><name>PT13100</name></trkpt>
<trkpt lat="52.968471" lon="05.968432"><ele>-1</ele><time>2021-03-19T13:49:07Z</time><name>PT13101</name></trkpt>
<trkpt lat="52.968473" lon="05.968413"><ele>-1.1</ele><time>2021-03-19T13:49:08Z</time><name>PT13102</name></trkpt>
<trkpt lat="52.968475" lon="05.968397"><ele>0.9</ele><time>2021-03-19T13:49:10Z</time><name>PT13103</name></trkpt>
<trkpt lat="52.968478" lon="05.968380"><ele>0.9</ele><time>2021-03-19T13:49:10Z</time><name>PT13104</name></trkpt>
<trkpt lat="52.968478" lon="05.968364"><ele>0.9</ele><time>2021-03-19T13:49:11Z</time><name>PT13105</name></trkpt>
<trkpt lat="52.968477" lon="05.968347"><ele>-1</ele><time>2021-03-19T13:49:12Z</time><name>PT13106</name></trkpt>
<trkpt lat="52.968474" lon="05.968329"><ele>-1.1</ele><time>2021-03-19T13:49:13Z</time><name>PT13107</name></trkpt>
<trkpt lat="52.968471" lon="05.968311"><ele>-1.1</ele><time>2021-03-19T13:49:15Z</time><name>PT13108</name></trkpt>
<trkpt lat="52.968470" lon="05.968294"><ele>-1.2</ele><time>2021-03-19T13:49:15Z</time><name>PT13109</name></trkpt>
<trkpt lat="52.968470" lon="05.968278"><ele>-1.1</ele><time>2021-03-19T13:49:16Z</time><name>PT13110</name></trkpt>
<trkpt lat="52.968469" lon="05.968263"><ele>-1.1</ele><time>2021-03-19T13:49:17Z</time><name>PT13111</name></trkpt>
<trkpt lat="52.968469" lon="05.968246"><ele>-1</ele><time>2021-03-19T13:49:18Z</time><name>PT13112</name></trkpt>
<trkpt lat="52.968468" lon="05.968230"><ele>-1.1</ele><time>2021-03-19T13:49:20Z</time><name>PT13113</name></trkpt>
<trkpt lat="52.968466" lon="05.968213"><ele>-1.2</ele><time>2021-03-19T13:49:20Z</time><name>PT13114</name></trkpt>
<trkpt lat="52.968466" lon="05.968195"><ele>-1.2</ele><time>2021-03-19T13:49:21Z</time><name>PT13115</name></trkpt>
<trkpt lat="52.968465" lon="05.968175"><ele>-1.3</ele><time>2021-03-19T13:49:22Z</time><name>PT13116</name></trkpt>
<trkpt lat="52.968466" lon="05.968158"><ele>-1.4</ele><time>2021-03-19T13:49:23Z</time><name>PT13117</name></trkpt>
<trkpt lat="52.968465" lon="05.968140"><ele>-1.2</ele><time>2021-03-19T13:49:25Z</time><name>PT13118</name></trkpt>
<trkpt lat="52.968464" lon="05.968123"><ele>-1.1</ele><time>2021-03-19T13:49:25Z</time><name>PT13119</name></trkpt>
<trkpt lat="52.968465" lon="05.968104"><ele>-1</ele><time>2021-03-19T13:49:26Z</time><name>PT13120</name></trkpt>
<trkpt lat="52.968464" lon="05.968085"><ele>-1.2</ele><time>2021-03-19T13:49:27Z</time><name>PT13121</name></trkpt>
<trkpt lat="52.968462" lon="05.968068"><ele>-1.2</ele><time>2021-03-19T13:49:28Z</time><name>PT13122</name></trkpt>
<trkpt lat="52.968463" lon="05.968052"><ele>-1.6</ele><time>2021-03-19T13:49:30Z</time><name>PT13123</name></trkpt>
<trkpt lat="52.968462" lon="05.968036"><ele>-1.6</ele><time>2021-03-19T13:49:30Z</time><name>PT13124</name></trkpt>
<trkpt lat="52.968460" lon="05.968017"><ele>-1.6</ele><time>2021-03-19T13:49:31Z</time><name>PT13125</name></trkpt>
<trkpt lat="52.968459" lon="05.967998"><ele>-1.6</ele><time>2021-03-19T13:49:32Z</time><name>PT13126</name></trkpt>
<trkpt lat="52.968459" lon="05.967979"><ele>-1.4</ele><time>2021-03-19T13:49:33Z</time><name>PT13127</name></trkpt>
<trkpt lat="52.968458" lon="05.967959"><ele>-1.4</ele><time>2021-03-19T13:49:35Z</time><name>PT13128</name></trkpt>
<trkpt lat="52.968458" lon="05.967940"><ele>-1.4</ele><time>2021-03-19T13:49:35Z</time><name>PT13129</name></trkpt>
<trkpt lat="52.968457" lon="05.967924"><ele>-1.5</ele><time>2021-03-19T13:49:36Z</time><name>PT13130</name></trkpt>
<trkpt lat="52.968456" lon="05.967907"><ele>-1.6</ele><time>2021-03-19T13:49:38Z</time><name>PT13131</name></trkpt>
<trkpt lat="52.968455" lon="05.967889"><ele>-1.5</ele><time>2021-03-19T13:49:38Z</time><name>PT13132</name></trkpt>
<trkpt lat="52.968454" lon="05.967871"><ele>-1.3</ele><time>2021-03-19T13:49:39Z</time><name>PT13133</name></trkpt>
<trkpt lat="52.968451" lon="05.967852"><ele>-1.5</ele><time>2021-03-19T13:49:41Z</time><name>PT13134</name></trkpt>
<trkpt lat="52.968450" lon="05.967834"><ele>-1.4</ele><time>2021-03-19T13:49:41Z</time><name>PT13135</name></trkpt>
<trkpt lat="52.968451" lon="05.967817"><ele>-1.5</ele><time>2021-03-19T13:49:42Z</time><name>PT13136</name></trkpt>
<trkpt lat="52.968451" lon="05.967799"><ele>-1.6</ele><time>2021-03-19T13:49:44Z</time><name>PT13137</name></trkpt>
<trkpt lat="52.968451" lon="05.967780"><ele>-1.6</ele><time>2021-03-19T13:49:44Z</time><name>PT13138</name></trkpt>
<trkpt lat="52.968449" lon="05.967762"><ele>-1.4</ele><time>2021-03-19T13:49:45Z</time><name>PT13139</name></trkpt>
<trkpt lat="52.968447" lon="05.967746"><ele>-1.6</ele><time>2021-03-19T13:49:46Z</time><name>PT13140</name></trkpt>
<trkpt lat="52.968444" lon="05.967726"><ele>-1.5</ele><time>2021-03-19T13:49:47Z</time><name>PT13141</name></trkpt>
<trkpt lat="52.968443" lon="05.967707"><ele>-1.5</ele><time>2021-03-19T13:49:49Z</time><name>PT13142</name></trkpt>
<trkpt lat="52.968443" lon="05.967690"><ele>-1.6</ele><time>2021-03-19T13:49:49Z</time><name>PT13143</name></trkpt>
<trkpt lat="52.968443" lon="05.967674"><ele>-1.6</ele><time>2021-03-19T13:49:50Z</time><name>PT13144</name></trkpt>
<trkpt lat="52.968442" lon="05.967657"><ele>-1.6</ele><time>2021-03-19T13:49:51Z</time><name>PT13145</name></trkpt>
<trkpt lat="52.968439" lon="05.967642"><ele>-1.6</ele><time>2021-03-19T13:49:52Z</time><name>PT13146</name></trkpt>
<trkpt lat="52.968437" lon="05.967626"><ele>-1.4</ele><time>2021-03-19T13:49:53Z</time><name>PT13147</name></trkpt>
<trkpt lat="52.968435" lon="05.967608"><ele>-1.2</ele><time>2021-03-19T13:49:54Z</time><name>PT13148</name></trkpt>
<trkpt lat="52.968435" lon="05.967590"><ele>-1.2</ele><time>2021-03-19T13:49:56Z</time><name>PT13149</name></trkpt>
<trkpt lat="52.968436" lon="05.967573"><ele>-1.3</ele><time>2021-03-19T13:49:56Z</time><name>PT13150</name></trkpt>
<trkpt lat="52.968437" lon="05.967556"><ele>-1.3</ele><time>2021-03-19T13:49:57Z</time><name>PT13151</name></trkpt>
<trkpt lat="52.968434" lon="05.967538"><ele>-1.3</ele><time>2021-03-19T13:49:58Z</time><name>PT13152</name></trkpt>
<trkpt lat="52.968432" lon="05.967521"><ele>-1.2</ele><time>2021-03-19T13:49:59Z</time><name>PT13153</name></trkpt>
<trkpt lat="52.968431" lon="05.967503"><ele>-1.2</ele><time>2021-03-19T13:50:00Z</time><name>PT13154</name></trkpt>
<trkpt lat="52.968428" lon="05.967484"><ele>0.8</ele><time>2021-03-19T13:50:01Z</time><name>PT13155</name></trkpt>
<trkpt lat="52.968427" lon="05.967465"><ele>0.7</ele><time>2021-03-19T13:50:03Z</time><name>PT13156</name></trkpt>
<trkpt lat="52.968428" lon="05.967447"><ele>0.8</ele><time>2021-03-19T13:50:03Z</time><name>PT13157</name></trkpt>
<trkpt lat="52.968427" lon="05.967431"><ele>0.7</ele><time>2021-03-19T13:50:04Z</time><name>PT13158</name></trkpt>
<trkpt lat="52.968424" lon="05.967414"><ele>0.9</ele><time>2021-03-19T13:50:06Z</time><name>PT13159</name></trkpt>
<trkpt lat="52.968423" lon="05.967397"><ele>-1</ele><time>2021-03-19T13:50:06Z</time><name>PT13160</name></trkpt>
<trkpt lat="52.968423" lon="05.967378"><ele>-1.1</ele><time>2021-03-19T13:50:07Z</time><name>PT13161</name></trkpt>
<trkpt lat="52.968423" lon="05.967359"><ele>-1.1</ele><time>2021-03-19T13:50:09Z</time><name>PT13162</name></trkpt>
<trkpt lat="52.968424" lon="05.967344"><ele>-1.1</ele><time>2021-03-19T13:50:09Z</time><name>PT13163</name></trkpt>
<trkpt lat="52.968422" lon="05.967329"><ele>-1.1</ele><time>2021-03-19T13:50:10Z</time><name>PT13164</name></trkpt>
<trkpt lat="52.968421" lon="05.967313"><ele>-1</ele><time>2021-03-19T13:50:11Z</time><name>PT13165</name></trkpt>
<trkpt lat="52.968418" lon="05.967296"><ele>0.9</ele><time>2021-03-19T13:50:12Z</time><name>PT13166</name></trkpt>
<trkpt lat="52.968417" lon="05.967278"><ele>0.9</ele><time>2021-03-19T13:50:13Z</time><name>PT13167</name></trkpt>
<trkpt lat="52.968418" lon="05.967264"><ele>-1.2</ele><time>2021-03-19T13:50:14Z</time><name>PT13168</name></trkpt>
<trkpt lat="52.968418" lon="05.967258"><ele>-1.2</ele><time>2021-03-19T13:50:15Z</time><name>PT13169</name></trkpt>
<trkpt lat="52.968418" lon="05.967253"><ele>-1.2</ele><time>2021-03-19T13:50:16Z</time><name>PT13170</name></trkpt>
<trkpt lat="52.968419" lon="05.967251"><ele>-1.2</ele><time>2021-03-19T13:50:18Z</time><name>PT13171</name></trkpt>
<trkpt lat="52.968419" lon="05.967249"><ele>-1.1</ele><time>2021-03-19T13:50:18Z</time><name>PT13172</name></trkpt>
<trkpt lat="52.968421" lon="05.967243"><ele>-1</ele><time>2021-03-19T13:50:19Z</time><name>PT13173</name></trkpt>
<trkpt lat="52.968422" lon="05.967238"><ele>-1.1</ele><time>2021-03-19T13:50:20Z</time><name>PT13174</name></trkpt>
<trkpt lat="52.968422" lon="05.967237"><ele>-1.1</ele><time>2021-03-19T13:50:21Z</time><name>PT13175</name></trkpt>
<trkpt lat="52.968421" lon="05.967239"><ele>-1.1</ele><time>2021-03-19T13:50:22Z</time><name>PT13176</name></trkpt>
<trkpt lat="52.968419" lon="05.967235"><ele>-1.2</ele><time>2021-03-19T13:50:23Z</time><name>PT13177</name></trkpt>
<trkpt lat="52.968418" lon="05.967223"><ele>-1.3</ele><time>2021-03-19T13:50:24Z</time><name>PT13178</name></trkpt>
<trkpt lat="52.968419" lon="05.967209"><ele>-1.4</ele><time>2021-03-19T13:50:25Z</time><name>PT13179</name></trkpt>
<trkpt lat="52.968419" lon="05.967193"><ele>-1.5</ele><time>2021-03-19T13:50:27Z</time><name>PT13180</name></trkpt>
<trkpt lat="52.968418" lon="05.967176"><ele>-1.4</ele><time>2021-03-19T13:50:27Z</time><name>PT13181</name></trkpt>
<trkpt lat="52.968418" lon="05.967160"><ele>-1.4</ele><time>2021-03-19T13:50:28Z</time><name>PT13182</name></trkpt>
<trkpt lat="52.968417" lon="05.967143"><ele>-1.4</ele><time>2021-03-19T13:50:30Z</time><name>PT13183</name></trkpt>
<trkpt lat="52.968418" lon="05.967125"><ele>-1.3</ele><time>2021-03-19T13:50:30Z</time><name>PT13184</name></trkpt>
<trkpt lat="52.968419" lon="05.967108"><ele>-1.4</ele><time>2021-03-19T13:50:31Z</time><name>PT13185</name></trkpt>
<trkpt lat="52.968418" lon="05.967089"><ele>-1.4</ele><time>2021-03-19T13:50:32Z</time><name>PT13186</name></trkpt>
<trkpt lat="52.968417" lon="05.967072"><ele>-1.2</ele><time>2021-03-19T13:50:33Z</time><name>PT13187</name></trkpt>
<trkpt lat="52.968416" lon="05.967054"><ele>-1.3</ele><time>2021-03-19T13:50:34Z</time><name>PT13188</name></trkpt>
<trkpt lat="52.968415" lon="05.967035"><ele>-1.2</ele><time>2021-03-19T13:50:35Z</time><name>PT13189</name></trkpt>
<trkpt lat="52.968415" lon="05.967014"><ele>-1.2</ele><time>2021-03-19T13:50:36Z</time><name>PT13190</name></trkpt>
<trkpt lat="52.968415" lon="05.966994"><ele>-1.1</ele><time>2021-03-19T13:50:37Z</time><name>PT13191</name></trkpt>
<trkpt lat="52.968416" lon="05.966977"><ele>-1.2</ele><time>2021-03-19T13:50:39Z</time><name>PT13192</name></trkpt>
<trkpt lat="52.968416" lon="05.966959"><ele>-1.2</ele><time>2021-03-19T13:50:39Z</time><name>PT13193</name></trkpt>
<trkpt lat="52.968415" lon="05.966941"><ele>-1.3</ele><time>2021-03-19T13:50:40Z</time><name>PT13194</name></trkpt>
<trkpt lat="52.968415" lon="05.966924"><ele>-1.4</ele><time>2021-03-19T13:50:42Z</time><name>PT13195</name></trkpt>
<trkpt lat="52.968415" lon="05.966906"><ele>-1.3</ele><time>2021-03-19T13:50:42Z</time><name>PT13196</name></trkpt>
<trkpt lat="52.968415" lon="05.966886"><ele>-1.2</ele><time>2021-03-19T13:50:43Z</time><name>PT13197</name></trkpt>
<trkpt lat="52.968415" lon="05.966865"><ele>-1.2</ele><time>2021-03-19T13:50:44Z</time><name>PT13198</name></trkpt>
<trkpt lat="52.968415" lon="05.966848"><ele>-1.2</ele><time>2021-03-19T13:50:45Z</time><name>PT13199</name></trkpt>
<trkpt lat="52.968416" lon="05.966831"><ele>-1.3</ele><time>2021-03-19T13:50:47Z</time><name>PT13200</name></trkpt>
<trkpt lat="52.968415" lon="05.966815"><ele>-1.2</ele><time>2021-03-19T13:50:47Z</time><name>PT13201</name></trkpt>
<trkpt lat="52.968414" lon="05.966797"><ele>-1.3</ele><time>2021-03-19T13:50:48Z</time><name>PT13202</name></trkpt>
<trkpt lat="52.968413" lon="05.966781"><ele>-1.2</ele><time>2021-03-19T13:50:49Z</time><name>PT13203</name></trkpt>
<trkpt lat="52.968413" lon="05.966765"><ele>-1.3</ele><time>2021-03-19T13:50:50Z</time><name>PT13204</name></trkpt>
<trkpt lat="52.968413" lon="05.966749"><ele>-1.2</ele><time>2021-03-19T13:50:52Z</time><name>PT13205</name></trkpt>
<trkpt lat="52.968413" lon="05.966732"><ele>-1.2</ele><time>2021-03-19T13:50:52Z</time><name>PT13206</name></trkpt>
<trkpt lat="52.968414" lon="05.966717"><ele>-1.2</ele><time>2021-03-19T13:50:53Z</time><name>PT13207</name></trkpt>
<trkpt lat="52.968413" lon="05.966699"><ele>-1</ele><time>2021-03-19T13:50:55Z</time><name>PT13208</name></trkpt>
<trkpt lat="52.968412" lon="05.966683"><ele>-1.2</ele><time>2021-03-19T13:50:55Z</time><name>PT13209</name></trkpt>
<trkpt lat="52.968411" lon="05.966665"><ele>-1.2</ele><time>2021-03-19T13:50:56Z</time><name>PT13210</name></trkpt>
<trkpt lat="52.968412" lon="05.966649"><ele>-1</ele><time>2021-03-19T13:50:58Z</time><name>PT13211</name></trkpt>
<trkpt lat="52.968414" lon="05.966631"><ele>-1.2</ele><time>2021-03-19T13:50:58Z</time><name>PT13212</name></trkpt>
<trkpt lat="52.968413" lon="05.966614"><ele>-1.2</ele><time>2021-03-19T13:50:59Z</time><name>PT13213</name></trkpt>
<trkpt lat="52.968413" lon="05.966596"><ele>-1.2</ele><time>2021-03-19T13:51:00Z</time><name>PT13214</name></trkpt>
<trkpt lat="52.968413" lon="05.966578"><ele>-1.5</ele><time>2021-03-19T13:51:01Z</time><name>PT13215</name></trkpt>
<trkpt lat="52.968414" lon="05.966560"><ele>-1.3</ele><time>2021-03-19T13:51:02Z</time><name>PT13216</name></trkpt>
<trkpt lat="52.968415" lon="05.966544"><ele>-1.1</ele><time>2021-03-19T13:51:03Z</time><name>PT13217</name></trkpt>
<trkpt lat="52.968417" lon="05.966529"><ele>0.9</ele><time>2021-03-19T13:51:05Z</time><name>PT13218</name></trkpt>
<trkpt lat="52.968419" lon="05.966512"><ele>0.8</ele><time>2021-03-19T13:51:05Z</time><name>PT13219</name></trkpt>
<trkpt lat="52.968421" lon="05.966502"><ele>0.8</ele><time>2021-03-19T13:51:06Z</time><name>PT13220</name></trkpt>
<trkpt lat="52.968427" lon="05.966492"><ele>-1</ele><time>2021-03-19T13:51:07Z</time><name>PT13221</name></trkpt>
<trkpt lat="52.968434" lon="05.966482"><ele>-1.2</ele><time>2021-03-19T13:51:08Z</time><name>PT13222</name></trkpt>
<trkpt lat="52.968440" lon="05.966473"><ele>-1.5</ele><time>2021-03-19T13:51:10Z</time><name>PT13223</name></trkpt>
<trkpt lat="52.968446" lon="05.966470"><ele>-1.5</ele><time>2021-03-19T13:51:10Z</time><name>PT13224</name></trkpt>
<trkpt lat="52.968451" lon="05.966466"><ele>-1.6</ele><time>2021-03-19T13:51:11Z</time><name>PT13225</name></trkpt>
<trkpt lat="52.968456" lon="05.966465"><ele>-1.6</ele><time>2021-03-19T13:51:13Z</time><name>PT13226</name></trkpt>
<trkpt lat="52.968464" lon="05.966463"><ele>-1.8</ele><time>2021-03-19T13:51:13Z</time><name>PT13227</name></trkpt>
<trkpt lat="52.968473" lon="05.966456"><ele>-1.7</ele><time>2021-03-19T13:51:14Z</time><name>PT13228</name></trkpt>
<trkpt lat="52.968481" lon="05.966450"><ele>-1.8</ele><time>2021-03-19T13:51:16Z</time><name>PT13229</name></trkpt>
<trkpt lat="52.968489" lon="05.966443"><ele>-1.7</ele><time>2021-03-19T13:51:16Z</time><name>PT13230</name></trkpt>
<trkpt lat="52.968497" lon="05.966439"><ele>-1.6</ele><time>2021-03-19T13:51:17Z</time><name>PT13231</name></trkpt>
<trkpt lat="52.968505" lon="05.966433"><ele>-1.5</ele><time>2021-03-19T13:51:18Z</time><name>PT13232</name></trkpt>
<trkpt lat="52.968510" lon="05.966427"><ele>-1.4</ele><time>2021-03-19T13:51:19Z</time><name>PT13233</name></trkpt>
<trkpt lat="52.968511" lon="05.966421"><ele>-1.2</ele><time>2021-03-19T13:51:21Z</time><name>PT13234</name></trkpt>
<trkpt lat="52.968513" lon="05.966415"><ele>-1.2</ele><time>2021-03-19T13:51:21Z</time><name>PT13235</name></trkpt>
<trkpt lat="52.968517" lon="05.966411"><ele>-1.2</ele><time>2021-03-19T13:51:22Z</time><name>PT13236</name></trkpt>
<trkpt lat="52.968519" lon="05.966407"><ele>-1</ele><time>2021-03-19T13:51:24Z</time><name>PT13237</name></trkpt>
<trkpt lat="52.968519" lon="05.966405"><ele>-1</ele><time>2021-03-19T13:51:24Z</time><name>PT13238</name></trkpt>
<trkpt lat="52.968519" lon="05.966403"><ele>-1.2</ele><time>2021-03-19T13:51:25Z</time><name>PT13239</name></trkpt>
<trkpt lat="52.968521" lon="05.966402"><ele>-1.1</ele><time>2021-03-19T13:51:27Z</time><name>PT13240</name></trkpt>
<trkpt lat="52.968522" lon="05.966402"><ele>-1.2</ele><time>2021-03-19T13:51:27Z</time><name>PT13241</name></trkpt>
<trkpt lat="52.968522" lon="05.966402"><ele>0.9</ele><time>2021-03-19T13:51:28Z</time><name>PT13242</name></trkpt>
<trkpt lat="52.968523" lon="05.966403"><ele>0.7</ele><time>2021-03-19T13:51:29Z</time><name>PT13243</name></trkpt>
<trkpt lat="52.968523" lon="05.966407"><ele>0.5</ele><time>2021-03-19T13:51:30Z</time><name>PT13244</name></trkpt>
<trkpt lat="52.968522" lon="05.966407"><ele>0.5</ele><time>2021-03-19T13:51:32Z</time><name>PT13245</name></trkpt>
<trkpt lat="52.968522" lon="05.966406"><ele>0.7</ele><time>2021-03-19T13:51:32Z</time><name>PT13246</name></trkpt>
<trkpt lat="52.968521" lon="05.966408"><ele>0.8</ele><time>2021-03-19T13:51:33Z</time><name>PT13247</name></trkpt>
<trkpt lat="52.968519" lon="05.966411"><ele>-1.2</ele><time>2021-03-19T13:51:35Z</time><name>PT13248</name></trkpt>
<trkpt lat="52.968520" lon="05.966414"><ele>-1.1</ele><time>2021-03-19T13:51:36Z</time><name>PT13249</name></trkpt>
<trkpt lat="52.968521" lon="05.966410"><ele>-1</ele><time>2021-03-19T13:51:38Z</time><name>PT13250</name></trkpt>
<trkpt lat="52.968522" lon="05.966410"><ele>0.9</ele><time>2021-03-19T13:51:38Z</time><name>PT13251</name></trkpt>
<trkpt lat="52.968521" lon="05.966408"><ele>0.7</ele><time>2021-03-19T13:51:39Z</time><name>PT13252</name></trkpt>
<trkpt lat="52.968519" lon="05.966403"><ele>0.8</ele><time>2021-03-19T13:51:41Z</time><name>PT13253</name></trkpt>
<trkpt lat="52.968518" lon="05.966401"><ele>-1</ele><time>2021-03-19T13:51:41Z</time><name>PT13254</name></trkpt>
<trkpt lat="52.968514" lon="05.966409"><ele>-1.1</ele><time>2021-03-19T13:51:44Z</time><name>PT13255</name></trkpt>
<trkpt lat="52.968512" lon="05.966406"><ele>-1.1</ele><time>2021-03-19T13:51:45Z</time><name>PT13256</name></trkpt>
<trkpt lat="52.968512" lon="05.966403"><ele>-1.2</ele><time>2021-03-19T13:51:46Z</time><name>PT13257</name></trkpt>
<trkpt lat="52.968511" lon="05.966398"><ele>-1.1</ele><time>2021-03-19T13:51:48Z</time><name>PT13258</name></trkpt>
<trkpt lat="52.968510" lon="05.966397"><ele>-1.2</ele><time>2021-03-19T13:51:48Z</time><name>PT13259</name></trkpt>
<trkpt lat="52.968509" lon="05.966400"><ele>-1.2</ele><time>2021-03-19T13:51:49Z</time><name>PT13260</name></trkpt>
<trkpt lat="52.968507" lon="05.966398"><ele>-1.1</ele><time>2021-03-19T13:51:51Z</time><name>PT13261</name></trkpt>
<trkpt lat="52.968507" lon="05.966397"><ele>-1.2</ele><time>2021-03-19T13:51:51Z</time><name>PT13262</name></trkpt>
<trkpt lat="52.968505" lon="05.966395"><ele>-1.5</ele><time>2021-03-19T13:51:52Z</time><name>PT13263</name></trkpt></trkseg></trk></gpx>